<?xml version="1.0" encoding="UTF-8"?>
<gpx version="1.1" creator="https://www.youtrack.es" xsi:schemaLocation="http://www.topografix.com/GPX/1/1 http://www.topografix.com/GPX/1/1/gpx.xsd http://www.garmin.com/xmlschemas/GpxExtensions/v3 http://www.garmin.com/xmlschemas/GpxExtensionsv3.xsd http://www.garmin.com/xmlschemas/TrackPointExtension/v1 http://www.garmin.com/xmlschemas/TrackPointExtensionv1.xsd" xmlns:gpxtpx="http://www.garmin.com/xmlschemas/TrackPointExtension/v1" xmlns:gpxx="http://www.garmin.com/xmlschemas/GpxExtensions/v3" xmlns:xsi="http://www.w3.org/2001/XMLSchema-instance">
  <metadata>
    <link href="https://www.youtrack.es">
      <text>YouTrack.es</text>
    </link>
    <time>2026-05-08T02:59:17Z</time>
  </metadata>
  <trk>
    <src>https://www.youtrack.es</src>
    <link href="https://www.youtrack.es/ruta/1819-roma-barcelona-2018">
      <text>YouTrack.es</text>
    </link>
    <trkseg>
      <trkpt lat="41.893894" lon="12.476574">
        <ele>29.754372</ele>
        <time>2018-08-03T13:00:16Z</time>
      </trkpt>
      <trkpt lat="41.894035" lon="12.476275">
        <ele>31.488825</ele>
        <time>2018-08-03T13:00:32Z</time>
      </trkpt>
      <trkpt lat="41.894207" lon="12.476383">
        <ele>31.135214</ele>
        <time>2018-08-03T13:01:07Z</time>
      </trkpt>
      <trkpt lat="41.894755" lon="12.476423">
        <ele>27.847019</ele>
        <time>2018-08-03T13:01:23Z</time>
      </trkpt>
      <trkpt lat="41.894813" lon="12.477570">
        <ele>29.233084</ele>
        <time>2018-08-03T13:01:39Z</time>
      </trkpt>
      <trkpt lat="41.894991" lon="12.479886">
        <ele>34.286690</ele>
        <time>2018-08-03T13:01:55Z</time>
      </trkpt>
      <trkpt lat="41.894706" lon="12.481053">
        <ele>30.342503</ele>
        <time>2018-08-03T13:02:11Z</time>
      </trkpt>
      <trkpt lat="41.893926" lon="12.481746">
        <ele>35.051247</ele>
        <time>2018-08-03T13:02:26Z</time>
      </trkpt>
      <trkpt lat="41.893114" lon="12.481183">
        <ele>34.393669</ele>
        <time>2018-08-03T13:02:41Z</time>
      </trkpt>
      <trkpt lat="41.891704" lon="12.480260">
        <ele>26.530720</ele>
        <time>2018-08-03T13:02:57Z</time>
      </trkpt>
      <trkpt lat="41.890315" lon="12.480748">
        <ele>20.205784</ele>
        <time>2018-08-03T13:03:12Z</time>
      </trkpt>
      <trkpt lat="41.888774" lon="12.481349">
        <ele>19.890900</ele>
        <time>2018-08-03T13:03:27Z</time>
      </trkpt>
      <trkpt lat="41.888268" lon="12.481314">
        <ele>19.421524</ele>
        <time>2018-08-03T13:03:47Z</time>
      </trkpt>
      <trkpt lat="41.888145" lon="12.481230">
        <ele>19.748167</ele>
        <time>2018-08-03T13:05:01Z</time>
      </trkpt>
      <trkpt lat="41.887491" lon="12.481682">
        <ele>23.209658</ele>
        <time>2018-08-03T13:05:16Z</time>
      </trkpt>
      <trkpt lat="41.887413" lon="12.481835">
        <ele>24.983751</ele>
        <time>2018-08-03T13:06:18Z</time>
      </trkpt>
      <trkpt lat="41.887321" lon="12.481981">
        <ele>26.549093</ele>
        <time>2018-08-03T13:07:01Z</time>
      </trkpt>
      <trkpt lat="41.886455" lon="12.483132">
        <ele>29.066360</ele>
        <time>2018-08-03T13:07:16Z</time>
      </trkpt>
      <trkpt lat="41.885523" lon="12.484288">
        <ele>31.035004</ele>
        <time>2018-08-03T13:07:31Z</time>
      </trkpt>
      <trkpt lat="41.884397" lon="12.484939">
        <ele>37.593887</ele>
        <time>2018-08-03T13:07:47Z</time>
      </trkpt>
      <trkpt lat="41.883375" lon="12.484966">
        <ele>41.933968</ele>
        <time>2018-08-03T13:08:02Z</time>
      </trkpt>
      <trkpt lat="41.882469" lon="12.484154">
        <ele>37.948711</ele>
        <time>2018-08-03T13:08:18Z</time>
      </trkpt>
      <trkpt lat="41.882015" lon="12.483945">
        <ele>37.616451</ele>
        <time>2018-08-03T13:08:33Z</time>
      </trkpt>
      <trkpt lat="41.880686" lon="12.483953">
        <ele>33.824883</ele>
        <time>2018-08-03T13:08:49Z</time>
      </trkpt>
      <trkpt lat="41.879417" lon="12.482909">
        <ele>33.245476</ele>
        <time>2018-08-03T13:09:04Z</time>
      </trkpt>
      <trkpt lat="41.877896" lon="12.481945">
        <ele>26.974010</ele>
        <time>2018-08-03T13:09:19Z</time>
      </trkpt>
      <trkpt lat="41.877191" lon="12.481115">
        <ele>20.274319</ele>
        <time>2018-08-03T13:09:35Z</time>
      </trkpt>
      <trkpt lat="41.876295" lon="12.481132">
        <ele>18.394205</ele>
        <time>2018-08-03T13:09:51Z</time>
      </trkpt>
      <trkpt lat="41.875630" lon="12.479641">
        <ele>22.801153</ele>
        <time>2018-08-03T13:10:07Z</time>
      </trkpt>
      <trkpt lat="41.874782" lon="12.478119">
        <ele>19.840946</ele>
        <time>2018-08-03T13:10:23Z</time>
      </trkpt>
      <trkpt lat="41.874344" lon="12.477965">
        <ele>18.796108</ele>
        <time>2018-08-03T13:10:38Z</time>
      </trkpt>
      <trkpt lat="41.873240" lon="12.478403">
        <ele>19.879190</ele>
        <time>2018-08-03T13:10:53Z</time>
      </trkpt>
      <trkpt lat="41.872908" lon="12.478548">
        <ele>18.716698</ele>
        <time>2018-08-03T13:11:10Z</time>
      </trkpt>
      <trkpt lat="41.872753" lon="12.478576">
        <ele>17.972054</ele>
        <time>2018-08-03T13:11:32Z</time>
      </trkpt>
      <trkpt lat="41.872580" lon="12.478677">
        <ele>17.032875</ele>
        <time>2018-08-03T13:11:47Z</time>
      </trkpt>
      <trkpt lat="41.872416" lon="12.477217">
        <ele>19.389668</ele>
        <time>2018-08-03T13:12:03Z</time>
      </trkpt>
      <trkpt lat="41.872341" lon="12.474786">
        <ele>16.355156</ele>
        <time>2018-08-03T13:12:19Z</time>
      </trkpt>
      <trkpt lat="41.872185" lon="12.473265">
        <ele>16.906063</ele>
        <time>2018-08-03T13:12:34Z</time>
      </trkpt>
      <trkpt lat="41.872117" lon="12.472709">
        <ele>13.025017</ele>
        <time>2018-08-03T13:12:51Z</time>
      </trkpt>
      <trkpt lat="41.872065" lon="12.472366">
        <ele>11.345655</ele>
        <time>2018-08-03T13:13:06Z</time>
      </trkpt>
      <trkpt lat="41.871718" lon="12.470830">
        <ele>17.943464</ele>
        <time>2018-08-03T13:13:21Z</time>
      </trkpt>
      <trkpt lat="41.871302" lon="12.468824">
        <ele>20.143375</ele>
        <time>2018-08-03T13:13:36Z</time>
      </trkpt>
      <trkpt lat="41.870783" lon="12.466808">
        <ele>22.278442</ele>
        <time>2018-08-03T13:13:51Z</time>
      </trkpt>
      <trkpt lat="41.869552" lon="12.465138">
        <ele>23.257847</ele>
        <time>2018-08-03T13:14:07Z</time>
      </trkpt>
      <trkpt lat="41.867731" lon="12.464484">
        <ele>23.758833</ele>
        <time>2018-08-03T13:14:23Z</time>
      </trkpt>
      <trkpt lat="41.866854" lon="12.463627">
        <ele>20.024820</ele>
        <time>2018-08-03T13:14:38Z</time>
      </trkpt>
      <trkpt lat="41.867829" lon="12.462587">
        <ele>27.930401</ele>
        <time>2018-08-03T13:14:54Z</time>
      </trkpt>
      <trkpt lat="41.868151" lon="12.462346">
        <ele>30.687500</ele>
        <time>2018-08-03T13:15:10Z</time>
      </trkpt>
      <trkpt lat="41.869011" lon="12.461720">
        <ele>36.725056</ele>
        <time>2018-08-03T13:15:26Z</time>
      </trkpt>
      <trkpt lat="41.870403" lon="12.460746">
        <ele>27.147961</ele>
        <time>2018-08-03T13:15:42Z</time>
      </trkpt>
      <trkpt lat="41.871309" lon="12.460005">
        <ele>32.673286</ele>
        <time>2018-08-03T13:15:57Z</time>
      </trkpt>
      <trkpt lat="41.872377" lon="12.458978">
        <ele>40.042530</ele>
        <time>2018-08-03T13:16:13Z</time>
      </trkpt>
      <trkpt lat="41.873242" lon="12.457779">
        <ele>43.398338</ele>
        <time>2018-08-03T13:16:28Z</time>
      </trkpt>
      <trkpt lat="41.873923" lon="12.456838">
        <ele>45.326382</ele>
        <time>2018-08-03T13:16:44Z</time>
      </trkpt>
      <trkpt lat="41.874250" lon="12.456260">
        <ele>46.874668</ele>
        <time>2018-08-03T13:17:00Z</time>
      </trkpt>
      <trkpt lat="41.875013" lon="12.454960">
        <ele>50.516808</ele>
        <time>2018-08-03T13:17:16Z</time>
      </trkpt>
      <trkpt lat="41.876339" lon="12.453940">
        <ele>55.613487</ele>
        <time>2018-08-03T13:17:32Z</time>
      </trkpt>
      <trkpt lat="41.877374" lon="12.452902">
        <ele>50.441349</ele>
        <time>2018-08-03T13:17:48Z</time>
      </trkpt>
      <trkpt lat="41.877461" lon="12.452755">
        <ele>50.866268</ele>
        <time>2018-08-03T13:18:11Z</time>
      </trkpt>
      <trkpt lat="41.878384" lon="12.451910">
        <ele>53.430363</ele>
        <time>2018-08-03T13:18:26Z</time>
      </trkpt>
      <trkpt lat="41.879384" lon="12.450868">
        <ele>52.242825</ele>
        <time>2018-08-03T13:18:42Z</time>
      </trkpt>
      <trkpt lat="41.880053" lon="12.450323">
        <ele>52.558773</ele>
        <time>2018-08-03T13:18:57Z</time>
      </trkpt>
      <trkpt lat="41.880115" lon="12.448968">
        <ele>51.590710</ele>
        <time>2018-08-03T13:19:13Z</time>
      </trkpt>
      <trkpt lat="41.879805" lon="12.447275">
        <ele>58.071671</ele>
        <time>2018-08-03T13:19:28Z</time>
      </trkpt>
      <trkpt lat="41.879332" lon="12.445324">
        <ele>64.432961</ele>
        <time>2018-08-03T13:19:43Z</time>
      </trkpt>
      <trkpt lat="41.879345" lon="12.443218">
        <ele>68.369713</ele>
        <time>2018-08-03T13:19:58Z</time>
      </trkpt>
      <trkpt lat="41.879914" lon="12.441461">
        <ele>74.557007</ele>
        <time>2018-08-03T13:20:14Z</time>
      </trkpt>
      <trkpt lat="41.880037" lon="12.441284">
        <ele>74.572548</ele>
        <time>2018-08-03T13:21:53Z</time>
      </trkpt>
      <trkpt lat="41.881932" lon="12.440658">
        <ele>76.665627</ele>
        <time>2018-08-03T13:22:09Z</time>
      </trkpt>
      <trkpt lat="41.884408" lon="12.440481">
        <ele>72.772827</ele>
        <time>2018-08-03T13:22:24Z</time>
      </trkpt>
      <trkpt lat="41.887117" lon="12.440605">
        <ele>75.397446</ele>
        <time>2018-08-03T13:22:40Z</time>
      </trkpt>
      <trkpt lat="41.889342" lon="12.440557">
        <ele>82.714211</ele>
        <time>2018-08-03T13:22:55Z</time>
      </trkpt>
      <trkpt lat="41.890903" lon="12.438647">
        <ele>75.185867</ele>
        <time>2018-08-03T13:23:10Z</time>
      </trkpt>
      <trkpt lat="41.893009" lon="12.437735">
        <ele>65.909424</ele>
        <time>2018-08-03T13:23:26Z</time>
      </trkpt>
      <trkpt lat="41.894165" lon="12.437609">
        <ele>62.525211</ele>
        <time>2018-08-03T13:23:41Z</time>
      </trkpt>
      <trkpt lat="41.894693" lon="12.438244">
        <ele>61.895462</ele>
        <time>2018-08-03T13:23:57Z</time>
      </trkpt>
      <trkpt lat="41.894788" lon="12.437966">
        <ele>62.632866</ele>
        <time>2018-08-03T13:24:12Z</time>
      </trkpt>
      <trkpt lat="41.894450" lon="12.437538">
        <ele>63.372208</ele>
        <time>2018-08-03T13:24:44Z</time>
      </trkpt>
      <trkpt lat="41.894268" lon="12.437465">
        <ele>62.592358</ele>
        <time>2018-08-03T13:25:32Z</time>
      </trkpt>
      <trkpt lat="41.893449" lon="12.435404">
        <ele>72.962967</ele>
        <time>2018-08-03T13:25:48Z</time>
      </trkpt>
      <trkpt lat="41.894107" lon="12.432612">
        <ele>82.327362</ele>
        <time>2018-08-03T13:26:03Z</time>
      </trkpt>
      <trkpt lat="41.894763" lon="12.430516">
        <ele>88.858154</ele>
        <time>2018-08-03T13:26:19Z</time>
      </trkpt>
      <trkpt lat="41.894978" lon="12.429987">
        <ele>90.928459</ele>
        <time>2018-08-03T13:26:34Z</time>
      </trkpt>
      <trkpt lat="41.895423" lon="12.429655">
        <ele>90.143379</ele>
        <time>2018-08-03T13:26:49Z</time>
      </trkpt>
      <trkpt lat="41.896172" lon="12.428996">
        <ele>89.791542</ele>
        <time>2018-08-03T13:27:05Z</time>
      </trkpt>
      <trkpt lat="41.896779" lon="12.428700">
        <ele>90.996651</ele>
        <time>2018-08-03T13:27:21Z</time>
      </trkpt>
      <trkpt lat="41.897506" lon="12.428323">
        <ele>89.920570</ele>
        <time>2018-08-03T13:27:36Z</time>
      </trkpt>
      <trkpt lat="41.897783" lon="12.428139">
        <ele>88.233505</ele>
        <time>2018-08-03T13:27:53Z</time>
      </trkpt>
      <trkpt lat="41.897980" lon="12.428040">
        <ele>87.288490</ele>
        <time>2018-08-03T13:28:09Z</time>
      </trkpt>
      <trkpt lat="41.898355" lon="12.427743">
        <ele>85.246422</ele>
        <time>2018-08-03T13:28:24Z</time>
      </trkpt>
      <trkpt lat="41.898493" lon="12.427656">
        <ele>85.405655</ele>
        <time>2018-08-03T13:28:39Z</time>
      </trkpt>
      <trkpt lat="41.898680" lon="12.426045">
        <ele>89.111931</ele>
        <time>2018-08-03T13:28:55Z</time>
      </trkpt>
      <trkpt lat="41.898515" lon="12.424797">
        <ele>84.979889</ele>
        <time>2018-08-03T13:29:10Z</time>
      </trkpt>
      <trkpt lat="41.897989" lon="12.422937">
        <ele>91.189697</ele>
        <time>2018-08-03T13:29:25Z</time>
      </trkpt>
      <trkpt lat="41.897363" lon="12.421518">
        <ele>91.747192</ele>
        <time>2018-08-03T13:29:41Z</time>
      </trkpt>
      <trkpt lat="41.896992" lon="12.420716">
        <ele>89.172318</ele>
        <time>2018-08-03T13:29:56Z</time>
      </trkpt>
      <trkpt lat="41.896503" lon="12.419795">
        <ele>85.112328</ele>
        <time>2018-08-03T13:30:12Z</time>
      </trkpt>
      <trkpt lat="41.895996" lon="12.418811">
        <ele>84.798996</ele>
        <time>2018-08-03T13:30:27Z</time>
      </trkpt>
      <trkpt lat="41.895015" lon="12.417232">
        <ele>85.653450</ele>
        <time>2018-08-03T13:30:43Z</time>
      </trkpt>
      <trkpt lat="41.894470" lon="12.416497">
        <ele>83.765182</ele>
        <time>2018-08-03T13:30:58Z</time>
      </trkpt>
      <trkpt lat="41.893863" lon="12.415744">
        <ele>85.033493</ele>
        <time>2018-08-03T13:31:14Z</time>
      </trkpt>
      <trkpt lat="41.892395" lon="12.413981">
        <ele>81.040848</ele>
        <time>2018-08-03T13:31:30Z</time>
      </trkpt>
      <trkpt lat="41.890539" lon="12.412506">
        <ele>76.949898</ele>
        <time>2018-08-03T13:31:45Z</time>
      </trkpt>
      <trkpt lat="41.889624" lon="12.409901">
        <ele>79.228333</ele>
        <time>2018-08-03T13:32:01Z</time>
      </trkpt>
      <trkpt lat="41.889038" lon="12.407971">
        <ele>77.475288</ele>
        <time>2018-08-03T13:32:16Z</time>
      </trkpt>
      <trkpt lat="41.888320" lon="12.405421">
        <ele>67.670837</ele>
        <time>2018-08-03T13:32:32Z</time>
      </trkpt>
      <trkpt lat="41.887107" lon="12.403308">
        <ele>58.519020</ele>
        <time>2018-08-03T13:32:47Z</time>
      </trkpt>
      <trkpt lat="41.885918" lon="12.400784">
        <ele>53.534298</ele>
        <time>2018-08-03T13:33:03Z</time>
      </trkpt>
      <trkpt lat="41.884844" lon="12.397919">
        <ele>48.377659</ele>
        <time>2018-08-03T13:33:19Z</time>
      </trkpt>
      <trkpt lat="41.884161" lon="12.395238">
        <ele>47.694927</ele>
        <time>2018-08-03T13:33:35Z</time>
      </trkpt>
      <trkpt lat="41.884397" lon="12.392510">
        <ele>44.438984</ele>
        <time>2018-08-03T13:33:50Z</time>
      </trkpt>
      <trkpt lat="41.885431" lon="12.389901">
        <ele>57.830212</ele>
        <time>2018-08-03T13:34:06Z</time>
      </trkpt>
      <trkpt lat="41.886961" lon="12.388848">
        <ele>65.628830</ele>
        <time>2018-08-03T13:34:21Z</time>
      </trkpt>
      <trkpt lat="41.888051" lon="12.389394">
        <ele>67.454971</ele>
        <time>2018-08-03T13:34:37Z</time>
      </trkpt>
      <trkpt lat="41.887513" lon="12.388023">
        <ele>64.891335</ele>
        <time>2018-08-03T13:34:52Z</time>
      </trkpt>
      <trkpt lat="41.887397" lon="12.384897">
        <ele>50.075638</ele>
        <time>2018-08-03T13:35:08Z</time>
      </trkpt>
      <trkpt lat="41.887849" lon="12.382583">
        <ele>38.699142</ele>
        <time>2018-08-03T13:35:24Z</time>
      </trkpt>
      <trkpt lat="41.888112" lon="12.382573">
        <ele>38.034081</ele>
        <time>2018-08-03T13:36:05Z</time>
      </trkpt>
      <trkpt lat="41.888260" lon="12.382554">
        <ele>37.556755</ele>
        <time>2018-08-03T13:40:21Z</time>
      </trkpt>
      <trkpt lat="41.889641" lon="12.382435">
        <ele>38.580929</ele>
        <time>2018-08-03T13:40:37Z</time>
      </trkpt>
      <trkpt lat="41.890521" lon="12.380954">
        <ele>39.794617</ele>
        <time>2018-08-03T13:40:53Z</time>
      </trkpt>
      <trkpt lat="41.892025" lon="12.379806">
        <ele>39.294502</ele>
        <time>2018-08-03T13:41:08Z</time>
      </trkpt>
      <trkpt lat="41.893482" lon="12.378725">
        <ele>42.547760</ele>
        <time>2018-08-03T13:41:23Z</time>
      </trkpt>
      <trkpt lat="41.895335" lon="12.377652">
        <ele>41.402977</ele>
        <time>2018-08-03T13:41:38Z</time>
      </trkpt>
      <trkpt lat="41.897497" lon="12.376890">
        <ele>44.861019</ele>
        <time>2018-08-03T13:41:54Z</time>
      </trkpt>
      <trkpt lat="41.899613" lon="12.377240">
        <ele>45.950096</ele>
        <time>2018-08-03T13:42:09Z</time>
      </trkpt>
      <trkpt lat="41.901379" lon="12.378820">
        <ele>47.728256</ele>
        <time>2018-08-03T13:42:25Z</time>
      </trkpt>
      <trkpt lat="41.902628" lon="12.380558">
        <ele>46.646969</ele>
        <time>2018-08-03T13:42:40Z</time>
      </trkpt>
      <trkpt lat="41.903041" lon="12.382450">
        <ele>52.347992</ele>
        <time>2018-08-03T13:42:55Z</time>
      </trkpt>
      <trkpt lat="41.904170" lon="12.384654">
        <ele>53.509842</ele>
        <time>2018-08-03T13:43:11Z</time>
      </trkpt>
      <trkpt lat="41.906175" lon="12.385023">
        <ele>55.264874</ele>
        <time>2018-08-03T13:43:27Z</time>
      </trkpt>
      <trkpt lat="41.908391" lon="12.385115">
        <ele>58.119816</ele>
        <time>2018-08-03T13:43:42Z</time>
      </trkpt>
      <trkpt lat="41.911203" lon="12.385475">
        <ele>50.904663</ele>
        <time>2018-08-03T13:43:58Z</time>
      </trkpt>
      <trkpt lat="41.914100" lon="12.385251">
        <ele>56.618084</ele>
        <time>2018-08-03T13:44:14Z</time>
      </trkpt>
      <trkpt lat="41.916817" lon="12.384535">
        <ele>62.991325</ele>
        <time>2018-08-03T13:44:29Z</time>
      </trkpt>
      <trkpt lat="41.919953" lon="12.383395">
        <ele>63.927711</ele>
        <time>2018-08-03T13:44:44Z</time>
      </trkpt>
      <trkpt lat="41.923311" lon="12.381768">
        <ele>72.754997</ele>
        <time>2018-08-03T13:44:59Z</time>
      </trkpt>
      <trkpt lat="41.927056" lon="12.381294">
        <ele>71.447662</ele>
        <time>2018-08-03T13:45:14Z</time>
      </trkpt>
      <trkpt lat="41.930706" lon="12.380989">
        <ele>73.464706</ele>
        <time>2018-08-03T13:45:30Z</time>
      </trkpt>
      <trkpt lat="41.934016" lon="12.381155">
        <ele>71.935486</ele>
        <time>2018-08-03T13:45:45Z</time>
      </trkpt>
      <trkpt lat="41.937577" lon="12.381504">
        <ele>85.398170</ele>
        <time>2018-08-03T13:46:01Z</time>
      </trkpt>
      <trkpt lat="41.948177" lon="12.382941">
        <ele>96.870316</ele>
        <time>2018-08-03T13:46:55Z</time>
      </trkpt>
      <trkpt lat="41.951731" lon="12.383212">
        <ele>102.384483</ele>
        <time>2018-08-03T13:47:11Z</time>
      </trkpt>
      <trkpt lat="41.955157" lon="12.383992">
        <ele>102.531250</ele>
        <time>2018-08-03T13:47:27Z</time>
      </trkpt>
      <trkpt lat="41.958130" lon="12.386900">
        <ele>105.221626</ele>
        <time>2018-08-03T13:47:43Z</time>
      </trkpt>
      <trkpt lat="41.960377" lon="12.390547">
        <ele>115.682343</ele>
        <time>2018-08-03T13:47:58Z</time>
      </trkpt>
      <trkpt lat="41.962576" lon="12.394157">
        <ele>115.456497</ele>
        <time>2018-08-03T13:48:13Z</time>
      </trkpt>
      <trkpt lat="41.964525" lon="12.397359">
        <ele>130.340134</ele>
        <time>2018-08-03T13:48:28Z</time>
      </trkpt>
      <trkpt lat="41.966154" lon="12.400040">
        <ele>135.461243</ele>
        <time>2018-08-03T13:48:43Z</time>
      </trkpt>
      <trkpt lat="41.966859" lon="12.404370">
        <ele>128.970474</ele>
        <time>2018-08-03T13:49:06Z</time>
      </trkpt>
      <trkpt lat="41.967338" lon="12.407318">
        <ele>125.954826</ele>
        <time>2018-08-03T13:49:22Z</time>
      </trkpt>
      <trkpt lat="41.966318" lon="12.407708">
        <ele>131.251709</ele>
        <time>2018-08-03T13:49:37Z</time>
      </trkpt>
      <trkpt lat="41.965362" lon="12.408780">
        <ele>135.581268</ele>
        <time>2018-08-03T13:49:52Z</time>
      </trkpt>
      <trkpt lat="41.966424" lon="12.409265">
        <ele>138.093384</ele>
        <time>2018-08-03T13:50:08Z</time>
      </trkpt>
      <trkpt lat="41.967836" lon="12.409450">
        <ele>140.249390</ele>
        <time>2018-08-03T13:50:24Z</time>
      </trkpt>
      <trkpt lat="41.969348" lon="12.409021">
        <ele>138.762573</ele>
        <time>2018-08-03T13:50:39Z</time>
      </trkpt>
      <trkpt lat="41.971613" lon="12.408459">
        <ele>140.083252</ele>
        <time>2018-08-03T13:50:55Z</time>
      </trkpt>
      <trkpt lat="41.973726" lon="12.407956">
        <ele>146.246216</ele>
        <time>2018-08-03T13:51:10Z</time>
      </trkpt>
      <trkpt lat="41.975993" lon="12.407945">
        <ele>139.136047</ele>
        <time>2018-08-03T13:51:26Z</time>
      </trkpt>
      <trkpt lat="41.978188" lon="12.408117">
        <ele>140.263306</ele>
        <time>2018-08-03T13:51:42Z</time>
      </trkpt>
      <trkpt lat="41.980030" lon="12.408409">
        <ele>142.101334</ele>
        <time>2018-08-03T13:51:57Z</time>
      </trkpt>
      <trkpt lat="41.981104" lon="12.408401">
        <ele>139.483368</ele>
        <time>2018-08-03T13:52:12Z</time>
      </trkpt>
      <trkpt lat="41.982447" lon="12.407755">
        <ele>137.911331</ele>
        <time>2018-08-03T13:52:27Z</time>
      </trkpt>
      <trkpt lat="41.983552" lon="12.408031">
        <ele>143.461411</ele>
        <time>2018-08-03T13:52:43Z</time>
      </trkpt>
      <trkpt lat="41.984402" lon="12.408093">
        <ele>146.409302</ele>
        <time>2018-08-03T13:52:59Z</time>
      </trkpt>
      <trkpt lat="41.984808" lon="12.407388">
        <ele>148.631516</ele>
        <time>2018-08-03T13:53:14Z</time>
      </trkpt>
      <trkpt lat="41.985312" lon="12.406300">
        <ele>149.125061</ele>
        <time>2018-08-03T13:53:29Z</time>
      </trkpt>
      <trkpt lat="41.986019" lon="12.404512">
        <ele>149.372253</ele>
        <time>2018-08-03T13:53:45Z</time>
      </trkpt>
      <trkpt lat="41.986540" lon="12.403225">
        <ele>145.988251</ele>
        <time>2018-08-03T13:54:00Z</time>
      </trkpt>
      <trkpt lat="41.987394" lon="12.401877">
        <ele>141.187927</ele>
        <time>2018-08-03T13:54:15Z</time>
      </trkpt>
      <trkpt lat="41.988776" lon="12.400262">
        <ele>141.266754</ele>
        <time>2018-08-03T13:54:31Z</time>
      </trkpt>
      <trkpt lat="41.990427" lon="12.398299">
        <ele>146.378601</ele>
        <time>2018-08-03T13:54:47Z</time>
      </trkpt>
      <trkpt lat="41.991484" lon="12.396539">
        <ele>144.087891</ele>
        <time>2018-08-03T13:55:02Z</time>
      </trkpt>
      <trkpt lat="41.992858" lon="12.394420">
        <ele>140.783203</ele>
        <time>2018-08-03T13:55:17Z</time>
      </trkpt>
      <trkpt lat="41.994454" lon="12.392059">
        <ele>151.011292</ele>
        <time>2018-08-03T13:55:33Z</time>
      </trkpt>
      <trkpt lat="41.996003" lon="12.389838">
        <ele>153.375458</ele>
        <time>2018-08-03T13:55:52Z</time>
      </trkpt>
      <trkpt lat="41.997231" lon="12.386491">
        <ele>152.342926</ele>
        <time>2018-08-03T13:56:10Z</time>
      </trkpt>
      <trkpt lat="41.998110" lon="12.383293">
        <ele>155.093262</ele>
        <time>2018-08-03T13:56:25Z</time>
      </trkpt>
      <trkpt lat="42.000274" lon="12.381472">
        <ele>156.555649</ele>
        <time>2018-08-03T13:56:41Z</time>
      </trkpt>
      <trkpt lat="42.002079" lon="12.379480">
        <ele>155.089111</ele>
        <time>2018-08-03T13:56:56Z</time>
      </trkpt>
      <trkpt lat="42.004113" lon="12.378520">
        <ele>157.208084</ele>
        <time>2018-08-03T13:57:11Z</time>
      </trkpt>
      <trkpt lat="42.006460" lon="12.378605">
        <ele>160.364868</ele>
        <time>2018-08-03T13:57:26Z</time>
      </trkpt>
      <trkpt lat="42.008498" lon="12.376982">
        <ele>153.260025</ele>
        <time>2018-08-03T13:57:42Z</time>
      </trkpt>
      <trkpt lat="42.008994" lon="12.373455">
        <ele>155.754715</ele>
        <time>2018-08-03T13:57:58Z</time>
      </trkpt>
      <trkpt lat="42.009260" lon="12.369823">
        <ele>160.615738</ele>
        <time>2018-08-03T13:58:14Z</time>
      </trkpt>
      <trkpt lat="42.010601" lon="12.367504">
        <ele>152.451508</ele>
        <time>2018-08-03T13:58:30Z</time>
      </trkpt>
      <trkpt lat="42.012298" lon="12.365897">
        <ele>152.439667</ele>
        <time>2018-08-03T13:58:45Z</time>
      </trkpt>
      <trkpt lat="42.014195" lon="12.363856">
        <ele>143.886368</ele>
        <time>2018-08-03T13:59:01Z</time>
      </trkpt>
      <trkpt lat="42.016032" lon="12.361596">
        <ele>142.537750</ele>
        <time>2018-08-03T13:59:17Z</time>
      </trkpt>
      <trkpt lat="42.017639" lon="12.359169">
        <ele>148.677414</ele>
        <time>2018-08-03T13:59:32Z</time>
      </trkpt>
      <trkpt lat="42.017655" lon="12.356219">
        <ele>139.898880</ele>
        <time>2018-08-03T13:59:47Z</time>
      </trkpt>
      <trkpt lat="42.018304" lon="12.353281">
        <ele>137.609741</ele>
        <time>2018-08-03T14:00:03Z</time>
      </trkpt>
      <trkpt lat="42.019092" lon="12.350769">
        <ele>129.749649</ele>
        <time>2018-08-03T14:00:18Z</time>
      </trkpt>
      <trkpt lat="42.021153" lon="12.349374">
        <ele>130.727493</ele>
        <time>2018-08-03T14:00:34Z</time>
      </trkpt>
      <trkpt lat="42.022462" lon="12.346441">
        <ele>135.553421</ele>
        <time>2018-08-03T14:00:50Z</time>
      </trkpt>
      <trkpt lat="42.023925" lon="12.344293">
        <ele>143.077148</ele>
        <time>2018-08-03T14:01:05Z</time>
      </trkpt>
      <trkpt lat="42.025323" lon="12.343767">
        <ele>142.305756</ele>
        <time>2018-08-03T14:01:21Z</time>
      </trkpt>
      <trkpt lat="42.027367" lon="12.343048">
        <ele>138.076569</ele>
        <time>2018-08-03T14:01:36Z</time>
      </trkpt>
      <trkpt lat="42.029865" lon="12.342901">
        <ele>132.372314</ele>
        <time>2018-08-03T14:01:52Z</time>
      </trkpt>
      <trkpt lat="42.032139" lon="12.341483">
        <ele>129.721359</ele>
        <time>2018-08-03T14:02:07Z</time>
      </trkpt>
      <trkpt lat="42.034038" lon="12.339116">
        <ele>128.543625</ele>
        <time>2018-08-03T14:02:23Z</time>
      </trkpt>
      <trkpt lat="42.035519" lon="12.337071">
        <ele>128.329468</ele>
        <time>2018-08-03T14:02:39Z</time>
      </trkpt>
      <trkpt lat="42.035779" lon="12.333548">
        <ele>117.581543</ele>
        <time>2018-08-03T14:02:55Z</time>
      </trkpt>
      <trkpt lat="42.037096" lon="12.331554">
        <ele>126.021469</ele>
        <time>2018-08-03T14:03:10Z</time>
      </trkpt>
      <trkpt lat="42.037363" lon="12.329815">
        <ele>130.714874</ele>
        <time>2018-08-03T14:03:26Z</time>
      </trkpt>
      <trkpt lat="42.036702" lon="12.327450">
        <ele>138.057663</ele>
        <time>2018-08-03T14:03:42Z</time>
      </trkpt>
      <trkpt lat="42.037296" lon="12.324783">
        <ele>139.687363</ele>
        <time>2018-08-03T14:03:57Z</time>
      </trkpt>
      <trkpt lat="42.037563" lon="12.321545">
        <ele>134.491837</ele>
        <time>2018-08-03T14:04:13Z</time>
      </trkpt>
      <trkpt lat="42.036913" lon="12.318043">
        <ele>145.347839</ele>
        <time>2018-08-03T14:04:29Z</time>
      </trkpt>
      <trkpt lat="42.036527" lon="12.314992">
        <ele>141.815262</ele>
        <time>2018-08-03T14:04:45Z</time>
      </trkpt>
      <trkpt lat="42.036423" lon="12.312690">
        <ele>136.071671</ele>
        <time>2018-08-03T14:05:00Z</time>
      </trkpt>
      <trkpt lat="42.036919" lon="12.311178">
        <ele>137.066803</ele>
        <time>2018-08-03T14:05:16Z</time>
      </trkpt>
      <trkpt lat="42.038232" lon="12.310164">
        <ele>140.434708</ele>
        <time>2018-08-03T14:05:31Z</time>
      </trkpt>
      <trkpt lat="42.039483" lon="12.308488">
        <ele>143.421417</ele>
        <time>2018-08-03T14:05:46Z</time>
      </trkpt>
      <trkpt lat="42.040967" lon="12.306570">
        <ele>141.160583</ele>
        <time>2018-08-03T14:06:02Z</time>
      </trkpt>
      <trkpt lat="42.042688" lon="12.304280">
        <ele>143.894287</ele>
        <time>2018-08-03T14:06:18Z</time>
      </trkpt>
      <trkpt lat="42.044381" lon="12.302040">
        <ele>145.991943</ele>
        <time>2018-08-03T14:06:33Z</time>
      </trkpt>
      <trkpt lat="42.046235" lon="12.299650">
        <ele>144.880310</ele>
        <time>2018-08-03T14:06:48Z</time>
      </trkpt>
      <trkpt lat="42.047883" lon="12.296819">
        <ele>147.879761</ele>
        <time>2018-08-03T14:07:04Z</time>
      </trkpt>
      <trkpt lat="42.049635" lon="12.295576">
        <ele>151.812149</ele>
        <time>2018-08-03T14:07:19Z</time>
      </trkpt>
      <trkpt lat="42.051470" lon="12.295854">
        <ele>154.508270</ele>
        <time>2018-08-03T14:07:34Z</time>
      </trkpt>
      <trkpt lat="42.053563" lon="12.295411">
        <ele>158.000000</ele>
        <time>2018-08-03T14:07:50Z</time>
      </trkpt>
      <trkpt lat="42.055754" lon="12.294746">
        <ele>160.077316</ele>
        <time>2018-08-03T14:08:06Z</time>
      </trkpt>
      <trkpt lat="42.057545" lon="12.293949">
        <ele>160.207275</ele>
        <time>2018-08-03T14:08:21Z</time>
      </trkpt>
      <trkpt lat="42.059352" lon="12.293290">
        <ele>158.830322</ele>
        <time>2018-08-03T14:08:36Z</time>
      </trkpt>
      <trkpt lat="42.061025" lon="12.292674">
        <ele>159.256409</ele>
        <time>2018-08-03T14:08:52Z</time>
      </trkpt>
      <trkpt lat="42.062674" lon="12.292281">
        <ele>160.571472</ele>
        <time>2018-08-03T14:09:08Z</time>
      </trkpt>
      <trkpt lat="42.064785" lon="12.291702">
        <ele>163.268661</ele>
        <time>2018-08-03T14:09:24Z</time>
      </trkpt>
      <trkpt lat="42.066186" lon="12.291342">
        <ele>165.643799</ele>
        <time>2018-08-03T14:09:39Z</time>
      </trkpt>
      <trkpt lat="42.066720" lon="12.291203">
        <ele>165.993423</ele>
        <time>2018-08-03T14:09:54Z</time>
      </trkpt>
      <trkpt lat="42.067704" lon="12.290931">
        <ele>167.853531</ele>
        <time>2018-08-03T14:10:10Z</time>
      </trkpt>
      <trkpt lat="42.069152" lon="12.290692">
        <ele>167.352448</ele>
        <time>2018-08-03T14:10:26Z</time>
      </trkpt>
      <trkpt lat="42.070394" lon="12.290934">
        <ele>167.895767</ele>
        <time>2018-08-03T14:10:41Z</time>
      </trkpt>
      <trkpt lat="42.071902" lon="12.291183">
        <ele>170.461563</ele>
        <time>2018-08-03T14:10:56Z</time>
      </trkpt>
      <trkpt lat="42.073547" lon="12.290910">
        <ele>170.767181</ele>
        <time>2018-08-03T14:11:12Z</time>
      </trkpt>
      <trkpt lat="42.075385" lon="12.290609">
        <ele>172.751801</ele>
        <time>2018-08-03T14:11:28Z</time>
      </trkpt>
      <trkpt lat="42.076996" lon="12.289452">
        <ele>175.661316</ele>
        <time>2018-08-03T14:11:44Z</time>
      </trkpt>
      <trkpt lat="42.078497" lon="12.288031">
        <ele>177.291626</ele>
        <time>2018-08-03T14:12:00Z</time>
      </trkpt>
      <trkpt lat="42.079530" lon="12.287066">
        <ele>177.814346</ele>
        <time>2018-08-03T14:12:15Z</time>
      </trkpt>
      <trkpt lat="42.080609" lon="12.285847">
        <ele>179.259781</ele>
        <time>2018-08-03T14:12:31Z</time>
      </trkpt>
      <trkpt lat="42.081504" lon="12.284365">
        <ele>181.613556</ele>
        <time>2018-08-03T14:12:46Z</time>
      </trkpt>
      <trkpt lat="42.082778" lon="12.283393">
        <ele>181.952652</ele>
        <time>2018-08-03T14:13:02Z</time>
      </trkpt>
      <trkpt lat="42.083943" lon="12.282823">
        <ele>182.612823</ele>
        <time>2018-08-03T14:13:17Z</time>
      </trkpt>
      <trkpt lat="42.084724" lon="12.282433">
        <ele>183.027023</ele>
        <time>2018-08-03T14:13:33Z</time>
      </trkpt>
      <trkpt lat="42.086144" lon="12.281294">
        <ele>185.535217</ele>
        <time>2018-08-03T14:13:49Z</time>
      </trkpt>
      <trkpt lat="42.087558" lon="12.279639">
        <ele>188.242172</ele>
        <time>2018-08-03T14:14:05Z</time>
      </trkpt>
      <trkpt lat="42.088709" lon="12.278361">
        <ele>187.018250</ele>
        <time>2018-08-03T14:14:20Z</time>
      </trkpt>
      <trkpt lat="42.089493" lon="12.276744">
        <ele>186.870453</ele>
        <time>2018-08-03T14:14:35Z</time>
      </trkpt>
      <trkpt lat="42.090264" lon="12.275282">
        <ele>190.327545</ele>
        <time>2018-08-03T14:14:50Z</time>
      </trkpt>
      <trkpt lat="42.090786" lon="12.273764">
        <ele>190.731781</ele>
        <time>2018-08-03T14:15:06Z</time>
      </trkpt>
      <trkpt lat="42.091315" lon="12.271897">
        <ele>192.440842</ele>
        <time>2018-08-03T14:15:21Z</time>
      </trkpt>
      <trkpt lat="42.091741" lon="12.270940">
        <ele>190.076035</ele>
        <time>2018-08-03T14:15:36Z</time>
      </trkpt>
      <trkpt lat="42.092187" lon="12.270149">
        <ele>190.537292</ele>
        <time>2018-08-03T14:15:51Z</time>
      </trkpt>
      <trkpt lat="42.092097" lon="12.269321">
        <ele>179.096527</ele>
        <time>2018-08-03T14:16:07Z</time>
      </trkpt>
      <trkpt lat="42.091980" lon="12.268704">
        <ele>171.206024</ele>
        <time>2018-08-03T14:16:22Z</time>
      </trkpt>
      <trkpt lat="42.092247" lon="12.268565">
        <ele>167.533112</ele>
        <time>2018-08-03T14:16:38Z</time>
      </trkpt>
      <trkpt lat="42.092646" lon="12.268574">
        <ele>165.797760</ele>
        <time>2018-08-03T14:16:53Z</time>
      </trkpt>
      <trkpt lat="42.092842" lon="12.268541">
        <ele>165.123352</ele>
        <time>2018-08-03T14:17:08Z</time>
      </trkpt>
      <trkpt lat="42.093024" lon="12.268482">
        <ele>164.030487</ele>
        <time>2018-08-03T14:17:24Z</time>
      </trkpt>
      <trkpt lat="42.092855" lon="12.268523">
        <ele>164.896973</ele>
        <time>2018-08-03T14:17:39Z</time>
      </trkpt>
      <trkpt lat="42.092670" lon="12.268524">
        <ele>165.273911</ele>
        <time>2018-08-03T14:17:56Z</time>
      </trkpt>
      <trkpt lat="42.092534" lon="12.268549">
        <ele>165.755142</ele>
        <time>2018-08-03T14:24:45Z</time>
      </trkpt>
      <trkpt lat="42.092451" lon="12.268707">
        <ele>167.521255</ele>
        <time>2018-08-03T14:25:43Z</time>
      </trkpt>
      <trkpt lat="42.092805" lon="12.268534">
        <ele>165.117462</ele>
        <time>2018-08-03T15:11:34Z</time>
      </trkpt>
      <trkpt lat="42.093085" lon="12.268926">
        <ele>169.862045</ele>
        <time>2018-08-03T15:11:50Z</time>
      </trkpt>
      <trkpt lat="42.092570" lon="12.268886">
        <ele>168.724945</ele>
        <time>2018-08-03T15:12:05Z</time>
      </trkpt>
      <trkpt lat="42.092042" lon="12.268683">
        <ele>170.433380</ele>
        <time>2018-08-03T15:12:21Z</time>
      </trkpt>
      <trkpt lat="42.091961" lon="12.268860">
        <ele>173.634155</ele>
        <time>2018-08-03T15:12:38Z</time>
      </trkpt>
      <trkpt lat="42.092212" lon="12.269906">
        <ele>188.387299</ele>
        <time>2018-08-03T15:12:53Z</time>
      </trkpt>
      <trkpt lat="42.091748" lon="12.270928">
        <ele>190.094421</ele>
        <time>2018-08-03T15:13:09Z</time>
      </trkpt>
      <trkpt lat="42.092001" lon="12.271601">
        <ele>187.473053</ele>
        <time>2018-08-03T15:13:25Z</time>
      </trkpt>
      <trkpt lat="42.092572" lon="12.272832">
        <ele>183.036880</ele>
        <time>2018-08-03T15:13:40Z</time>
      </trkpt>
      <trkpt lat="42.092759" lon="12.275113">
        <ele>171.438751</ele>
        <time>2018-08-03T15:13:55Z</time>
      </trkpt>
      <trkpt lat="42.093250" lon="12.277751">
        <ele>166.142822</ele>
        <time>2018-08-03T15:14:11Z</time>
      </trkpt>
      <trkpt lat="42.094348" lon="12.280035">
        <ele>165.665390</ele>
        <time>2018-08-03T15:14:27Z</time>
      </trkpt>
      <trkpt lat="42.096548" lon="12.279482">
        <ele>165.585815</ele>
        <time>2018-08-03T15:14:42Z</time>
      </trkpt>
      <trkpt lat="42.098823" lon="12.279700">
        <ele>169.266785</ele>
        <time>2018-08-03T15:14:58Z</time>
      </trkpt>
      <trkpt lat="42.101133" lon="12.279715">
        <ele>179.898117</ele>
        <time>2018-08-03T15:15:14Z</time>
      </trkpt>
      <trkpt lat="42.102286" lon="12.278955">
        <ele>179.602463</ele>
        <time>2018-08-03T15:15:29Z</time>
      </trkpt>
      <trkpt lat="42.102453" lon="12.278946">
        <ele>181.553680</ele>
        <time>2018-08-03T15:21:20Z</time>
      </trkpt>
      <trkpt lat="42.103975" lon="12.278314">
        <ele>180.619171</ele>
        <time>2018-08-03T15:21:36Z</time>
      </trkpt>
      <trkpt lat="42.106337" lon="12.278717">
        <ele>170.971786</ele>
        <time>2018-08-03T15:21:52Z</time>
      </trkpt>
      <trkpt lat="42.108352" lon="12.280479">
        <ele>184.716858</ele>
        <time>2018-08-03T15:22:08Z</time>
      </trkpt>
      <trkpt lat="42.110465" lon="12.280838">
        <ele>177.413971</ele>
        <time>2018-08-03T15:22:24Z</time>
      </trkpt>
      <trkpt lat="42.113096" lon="12.282338">
        <ele>177.181274</ele>
        <time>2018-08-03T15:22:39Z</time>
      </trkpt>
      <trkpt lat="42.116652" lon="12.283234">
        <ele>177.234451</ele>
        <time>2018-08-03T15:22:55Z</time>
      </trkpt>
      <trkpt lat="42.120000" lon="12.283883">
        <ele>176.888550</ele>
        <time>2018-08-03T15:23:11Z</time>
      </trkpt>
      <trkpt lat="42.123274" lon="12.284186">
        <ele>175.643814</ele>
        <time>2018-08-03T15:23:27Z</time>
      </trkpt>
      <trkpt lat="42.126526" lon="12.285073">
        <ele>180.385513</ele>
        <time>2018-08-03T15:23:43Z</time>
      </trkpt>
      <trkpt lat="42.129220" lon="12.286108">
        <ele>176.896774</ele>
        <time>2018-08-03T15:23:58Z</time>
      </trkpt>
      <trkpt lat="42.131193" lon="12.287906">
        <ele>171.930389</ele>
        <time>2018-08-03T15:24:14Z</time>
      </trkpt>
      <trkpt lat="42.131729" lon="12.288192">
        <ele>167.208084</ele>
        <time>2018-08-03T15:24:39Z</time>
      </trkpt>
      <trkpt lat="42.133142" lon="12.288604">
        <ele>166.055954</ele>
        <time>2018-08-03T15:24:55Z</time>
      </trkpt>
      <trkpt lat="42.134885" lon="12.287810">
        <ele>171.286285</ele>
        <time>2018-08-03T15:25:10Z</time>
      </trkpt>
      <trkpt lat="42.136797" lon="12.285760">
        <ele>164.430511</ele>
        <time>2018-08-03T15:25:26Z</time>
      </trkpt>
      <trkpt lat="42.138929" lon="12.284259">
        <ele>165.509506</ele>
        <time>2018-08-03T15:25:41Z</time>
      </trkpt>
      <trkpt lat="42.141014" lon="12.282575">
        <ele>169.502533</ele>
        <time>2018-08-03T15:25:56Z</time>
      </trkpt>
      <trkpt lat="42.143600" lon="12.281986">
        <ele>171.519806</ele>
        <time>2018-08-03T15:26:12Z</time>
      </trkpt>
      <trkpt lat="42.144466" lon="12.281995">
        <ele>171.624496</ele>
        <time>2018-08-03T15:26:27Z</time>
      </trkpt>
      <trkpt lat="42.145703" lon="12.280581">
        <ele>169.603302</ele>
        <time>2018-08-03T15:26:42Z</time>
      </trkpt>
      <trkpt lat="42.146872" lon="12.278099">
        <ele>168.210175</ele>
        <time>2018-08-03T15:26:58Z</time>
      </trkpt>
      <trkpt lat="42.147790" lon="12.275119">
        <ele>166.789536</ele>
        <time>2018-08-03T15:27:14Z</time>
      </trkpt>
      <trkpt lat="42.148668" lon="12.272207">
        <ele>168.013367</ele>
        <time>2018-08-03T15:27:29Z</time>
      </trkpt>
      <trkpt lat="42.149082" lon="12.269100">
        <ele>170.695679</ele>
        <time>2018-08-03T15:27:45Z</time>
      </trkpt>
      <trkpt lat="42.149657" lon="12.265851">
        <ele>169.831085</ele>
        <time>2018-08-03T15:28:01Z</time>
      </trkpt>
      <trkpt lat="42.151278" lon="12.264275">
        <ele>169.706390</ele>
        <time>2018-08-03T15:28:16Z</time>
      </trkpt>
      <trkpt lat="42.153186" lon="12.263041">
        <ele>177.883163</ele>
        <time>2018-08-03T15:28:31Z</time>
      </trkpt>
      <trkpt lat="42.155210" lon="12.263243">
        <ele>176.054428</ele>
        <time>2018-08-03T15:28:47Z</time>
      </trkpt>
      <trkpt lat="42.157611" lon="12.264710">
        <ele>175.340820</ele>
        <time>2018-08-03T15:29:03Z</time>
      </trkpt>
      <trkpt lat="42.159989" lon="12.264420">
        <ele>169.981750</ele>
        <time>2018-08-03T15:29:18Z</time>
      </trkpt>
      <trkpt lat="42.162063" lon="12.262410">
        <ele>171.743256</ele>
        <time>2018-08-03T15:29:34Z</time>
      </trkpt>
      <trkpt lat="42.163124" lon="12.259650">
        <ele>169.086258</ele>
        <time>2018-08-03T15:29:49Z</time>
      </trkpt>
      <trkpt lat="42.163040" lon="12.256657">
        <ele>167.238831</ele>
        <time>2018-08-03T15:30:05Z</time>
      </trkpt>
      <trkpt lat="42.163193" lon="12.254520">
        <ele>170.876541</ele>
        <time>2018-08-03T15:30:21Z</time>
      </trkpt>
      <trkpt lat="42.163113" lon="12.254357">
        <ele>171.323273</ele>
        <time>2018-08-03T15:32:39Z</time>
      </trkpt>
      <trkpt lat="42.161926" lon="12.253263">
        <ele>169.728729</ele>
        <time>2018-08-03T15:32:55Z</time>
      </trkpt>
      <trkpt lat="42.160001" lon="12.251851">
        <ele>170.120895</ele>
        <time>2018-08-03T15:33:10Z</time>
      </trkpt>
      <trkpt lat="42.158106" lon="12.250113">
        <ele>169.665970</ele>
        <time>2018-08-03T15:33:26Z</time>
      </trkpt>
      <trkpt lat="42.156837" lon="12.249478">
        <ele>170.040848</ele>
        <time>2018-08-03T15:33:41Z</time>
      </trkpt>
      <trkpt lat="42.155602" lon="12.249136">
        <ele>168.799561</ele>
        <time>2018-08-03T15:33:57Z</time>
      </trkpt>
      <trkpt lat="42.154998" lon="12.248770">
        <ele>170.739136</ele>
        <time>2018-08-03T15:34:12Z</time>
      </trkpt>
      <trkpt lat="42.154513" lon="12.247733">
        <ele>166.930511</ele>
        <time>2018-08-03T15:34:28Z</time>
      </trkpt>
      <trkpt lat="42.155035" lon="12.246365">
        <ele>169.825012</ele>
        <time>2018-08-03T15:34:44Z</time>
      </trkpt>
      <trkpt lat="42.155734" lon="12.246111">
        <ele>171.391464</ele>
        <time>2018-08-03T15:34:59Z</time>
      </trkpt>
      <trkpt lat="42.156378" lon="12.245313">
        <ele>172.250702</ele>
        <time>2018-08-03T15:35:15Z</time>
      </trkpt>
      <trkpt lat="42.156897" lon="12.244390">
        <ele>177.464203</ele>
        <time>2018-08-03T15:35:31Z</time>
      </trkpt>
      <trkpt lat="42.157379" lon="12.243421">
        <ele>179.455872</ele>
        <time>2018-08-03T15:35:47Z</time>
      </trkpt>
      <trkpt lat="42.157824" lon="12.242622">
        <ele>178.465485</ele>
        <time>2018-08-03T15:36:03Z</time>
      </trkpt>
      <trkpt lat="42.158182" lon="12.241626">
        <ele>175.167282</ele>
        <time>2018-08-03T15:36:18Z</time>
      </trkpt>
      <trkpt lat="42.158843" lon="12.240953">
        <ele>179.010941</ele>
        <time>2018-08-03T15:36:34Z</time>
      </trkpt>
      <trkpt lat="42.160065" lon="12.240827">
        <ele>197.795044</ele>
        <time>2018-08-03T15:36:49Z</time>
      </trkpt>
      <trkpt lat="42.161169" lon="12.241441">
        <ele>219.510986</ele>
        <time>2018-08-03T15:37:05Z</time>
      </trkpt>
      <trkpt lat="42.161895" lon="12.242403">
        <ele>233.091507</ele>
        <time>2018-08-03T15:37:20Z</time>
      </trkpt>
      <trkpt lat="42.161648" lon="12.242132">
        <ele>227.637711</ele>
        <time>2018-08-03T15:37:35Z</time>
      </trkpt>
      <trkpt lat="42.160926" lon="12.241001">
        <ele>211.538116</ele>
        <time>2018-08-03T15:37:51Z</time>
      </trkpt>
      <trkpt lat="42.159991" lon="12.240808">
        <ele>196.553680</ele>
        <time>2018-08-03T15:38:06Z</time>
      </trkpt>
      <trkpt lat="42.158988" lon="12.240969">
        <ele>180.468781</ele>
        <time>2018-08-03T15:38:21Z</time>
      </trkpt>
      <trkpt lat="42.158627" lon="12.240745">
        <ele>176.106079</ele>
        <time>2018-08-03T15:38:37Z</time>
      </trkpt>
      <trkpt lat="42.159032" lon="12.239459">
        <ele>173.865311</ele>
        <time>2018-08-03T15:38:52Z</time>
      </trkpt>
      <trkpt lat="42.159686" lon="12.238007">
        <ele>174.842148</ele>
        <time>2018-08-03T15:39:08Z</time>
      </trkpt>
      <trkpt lat="42.159627" lon="12.238188">
        <ele>175.213852</ele>
        <time>2018-08-03T15:39:23Z</time>
      </trkpt>
      <trkpt lat="42.159396" lon="12.238801">
        <ele>175.751465</ele>
        <time>2018-08-03T15:39:39Z</time>
      </trkpt>
      <trkpt lat="42.159303" lon="12.238655">
        <ele>174.867737</ele>
        <time>2018-08-03T15:41:29Z</time>
      </trkpt>
      <trkpt lat="42.159366" lon="12.238830">
        <ele>175.569336</ele>
        <time>2018-08-03T15:46:48Z</time>
      </trkpt>
      <trkpt lat="42.159269" lon="12.238698">
        <ele>174.689224</ele>
        <time>2018-08-03T15:59:25Z</time>
      </trkpt>
      <trkpt lat="42.159371" lon="12.238499">
        <ele>175.028824</ele>
        <time>2018-08-03T16:09:02Z</time>
      </trkpt>
      <trkpt lat="42.160257" lon="12.237467">
        <ele>175.169800</ele>
        <time>2018-08-03T16:09:17Z</time>
      </trkpt>
      <trkpt lat="42.161423" lon="12.235771">
        <ele>174.938385</ele>
        <time>2018-08-03T16:09:33Z</time>
      </trkpt>
      <trkpt lat="42.162348" lon="12.233900">
        <ele>176.685974</ele>
        <time>2018-08-03T16:09:48Z</time>
      </trkpt>
      <trkpt lat="42.162839" lon="12.231791">
        <ele>178.973068</ele>
        <time>2018-08-03T16:10:04Z</time>
      </trkpt>
      <trkpt lat="42.162999" lon="12.229195">
        <ele>182.367157</ele>
        <time>2018-08-03T16:10:20Z</time>
      </trkpt>
      <trkpt lat="42.163408" lon="12.228259">
        <ele>182.540161</ele>
        <time>2018-08-03T16:10:35Z</time>
      </trkpt>
      <trkpt lat="42.164340" lon="12.229389">
        <ele>191.711288</ele>
        <time>2018-08-03T16:10:51Z</time>
      </trkpt>
      <trkpt lat="42.165448" lon="12.229978">
        <ele>210.096832</ele>
        <time>2018-08-03T16:11:07Z</time>
      </trkpt>
      <trkpt lat="42.166255" lon="12.227808">
        <ele>216.580261</ele>
        <time>2018-08-03T16:11:22Z</time>
      </trkpt>
      <trkpt lat="42.167340" lon="12.227361">
        <ele>230.860565</ele>
        <time>2018-08-03T16:11:38Z</time>
      </trkpt>
      <trkpt lat="42.166919" lon="12.229390">
        <ele>243.166656</ele>
        <time>2018-08-03T16:11:54Z</time>
      </trkpt>
      <trkpt lat="42.167183" lon="12.231708">
        <ele>259.520691</ele>
        <time>2018-08-03T16:12:09Z</time>
      </trkpt>
      <trkpt lat="42.167310" lon="12.233871">
        <ele>277.401611</ele>
        <time>2018-08-03T16:12:25Z</time>
      </trkpt>
      <trkpt lat="42.167407" lon="12.236185">
        <ele>289.209259</ele>
        <time>2018-08-03T16:12:41Z</time>
      </trkpt>
      <trkpt lat="42.168186" lon="12.238527">
        <ele>298.051605</ele>
        <time>2018-08-03T16:12:56Z</time>
      </trkpt>
      <trkpt lat="42.169518" lon="12.241424">
        <ele>321.986938</ele>
        <time>2018-08-03T16:13:12Z</time>
      </trkpt>
      <trkpt lat="42.171386" lon="12.243735">
        <ele>339.043213</ele>
        <time>2018-08-03T16:13:28Z</time>
      </trkpt>
      <trkpt lat="42.172743" lon="12.246183">
        <ele>356.492950</ele>
        <time>2018-08-03T16:13:43Z</time>
      </trkpt>
      <trkpt lat="42.172697" lon="12.248680">
        <ele>366.104858</ele>
        <time>2018-08-03T16:13:59Z</time>
      </trkpt>
      <trkpt lat="42.174004" lon="12.249738">
        <ele>379.962372</ele>
        <time>2018-08-03T16:14:14Z</time>
      </trkpt>
      <trkpt lat="42.176550" lon="12.250056">
        <ele>397.765442</ele>
        <time>2018-08-03T16:14:30Z</time>
      </trkpt>
      <trkpt lat="42.178973" lon="12.250350">
        <ele>402.901154</ele>
        <time>2018-08-03T16:14:46Z</time>
      </trkpt>
      <trkpt lat="42.181318" lon="12.249336">
        <ele>398.982147</ele>
        <time>2018-08-03T16:15:02Z</time>
      </trkpt>
      <trkpt lat="42.183527" lon="12.247957">
        <ele>388.345795</ele>
        <time>2018-08-03T16:15:17Z</time>
      </trkpt>
      <trkpt lat="42.185758" lon="12.246662">
        <ele>404.916534</ele>
        <time>2018-08-03T16:15:33Z</time>
      </trkpt>
      <trkpt lat="42.187313" lon="12.244384">
        <ele>439.381409</ele>
        <time>2018-08-03T16:15:49Z</time>
      </trkpt>
      <trkpt lat="42.187818" lon="12.241824">
        <ele>431.253967</ele>
        <time>2018-08-03T16:16:04Z</time>
      </trkpt>
      <trkpt lat="42.190138" lon="12.241223">
        <ele>424.851654</ele>
        <time>2018-08-03T16:16:20Z</time>
      </trkpt>
      <trkpt lat="42.192733" lon="12.241512">
        <ele>420.762634</ele>
        <time>2018-08-03T16:16:36Z</time>
      </trkpt>
      <trkpt lat="42.194784" lon="12.241478">
        <ele>421.146820</ele>
        <time>2018-08-03T16:16:51Z</time>
      </trkpt>
      <trkpt lat="42.195157" lon="12.241328">
        <ele>420.451294</ele>
        <time>2018-08-03T16:19:00Z</time>
      </trkpt>
      <trkpt lat="42.195265" lon="12.241170">
        <ele>420.316345</ele>
        <time>2018-08-03T16:19:25Z</time>
      </trkpt>
      <trkpt lat="42.196549" lon="12.240177">
        <ele>421.970123</ele>
        <time>2018-08-03T16:19:40Z</time>
      </trkpt>
      <trkpt lat="42.198400" lon="12.238742">
        <ele>421.520325</ele>
        <time>2018-08-03T16:19:55Z</time>
      </trkpt>
      <trkpt lat="42.200669" lon="12.237001">
        <ele>416.235657</ele>
        <time>2018-08-03T16:20:11Z</time>
      </trkpt>
      <trkpt lat="42.202556" lon="12.237578">
        <ele>405.888123</ele>
        <time>2018-08-03T16:20:27Z</time>
      </trkpt>
      <trkpt lat="42.203336" lon="12.239576">
        <ele>390.683167</ele>
        <time>2018-08-03T16:20:42Z</time>
      </trkpt>
      <trkpt lat="42.205259" lon="12.240583">
        <ele>375.308838</ele>
        <time>2018-08-03T16:20:58Z</time>
      </trkpt>
      <trkpt lat="42.207624" lon="12.240961">
        <ele>354.623444</ele>
        <time>2018-08-03T16:21:14Z</time>
      </trkpt>
      <trkpt lat="42.208447" lon="12.239599">
        <ele>348.963013</ele>
        <time>2018-08-03T16:21:30Z</time>
      </trkpt>
      <trkpt lat="42.209063" lon="12.238862">
        <ele>345.595093</ele>
        <time>2018-08-03T16:21:45Z</time>
      </trkpt>
      <trkpt lat="42.210501" lon="12.240547">
        <ele>327.244934</ele>
        <time>2018-08-03T16:22:00Z</time>
      </trkpt>
      <trkpt lat="42.211754" lon="12.242973">
        <ele>311.584076</ele>
        <time>2018-08-03T16:22:16Z</time>
      </trkpt>
      <trkpt lat="42.213578" lon="12.244553">
        <ele>294.269501</ele>
        <time>2018-08-03T16:22:31Z</time>
      </trkpt>
      <trkpt lat="42.215610" lon="12.244986">
        <ele>282.110046</ele>
        <time>2018-08-03T16:22:47Z</time>
      </trkpt>
      <trkpt lat="42.217808" lon="12.244604">
        <ele>274.299530</ele>
        <time>2018-08-03T16:23:02Z</time>
      </trkpt>
      <trkpt lat="42.220196" lon="12.245620">
        <ele>269.846527</ele>
        <time>2018-08-03T16:23:18Z</time>
      </trkpt>
      <trkpt lat="42.222499" lon="12.246132">
        <ele>275.276337</ele>
        <time>2018-08-03T16:23:33Z</time>
      </trkpt>
      <trkpt lat="42.224246" lon="12.244885">
        <ele>271.637299</ele>
        <time>2018-08-03T16:23:48Z</time>
      </trkpt>
      <trkpt lat="42.225976" lon="12.242509">
        <ele>268.487732</ele>
        <time>2018-08-03T16:24:04Z</time>
      </trkpt>
      <trkpt lat="42.227323" lon="12.239660">
        <ele>275.212402</ele>
        <time>2018-08-03T16:24:20Z</time>
      </trkpt>
      <trkpt lat="42.229128" lon="12.237758">
        <ele>281.844543</ele>
        <time>2018-08-03T16:24:36Z</time>
      </trkpt>
      <trkpt lat="42.230994" lon="12.237639">
        <ele>279.102203</ele>
        <time>2018-08-03T16:24:51Z</time>
      </trkpt>
      <trkpt lat="42.232283" lon="12.238307">
        <ele>267.530243</ele>
        <time>2018-08-03T16:25:06Z</time>
      </trkpt>
      <trkpt lat="42.232996" lon="12.238323">
        <ele>265.430298</ele>
        <time>2018-08-03T16:25:22Z</time>
      </trkpt>
      <trkpt lat="42.233154" lon="12.238300">
        <ele>265.331024</ele>
        <time>2018-08-03T16:25:54Z</time>
      </trkpt>
      <trkpt lat="42.233487" lon="12.237168">
        <ele>271.399231</ele>
        <time>2018-08-03T16:26:09Z</time>
      </trkpt>
      <trkpt lat="42.234208" lon="12.235455">
        <ele>274.552612</ele>
        <time>2018-08-03T16:26:25Z</time>
      </trkpt>
      <trkpt lat="42.235480" lon="12.232953">
        <ele>277.870880</ele>
        <time>2018-08-03T16:26:41Z</time>
      </trkpt>
      <trkpt lat="42.237710" lon="12.231613">
        <ele>271.977509</ele>
        <time>2018-08-03T16:26:56Z</time>
      </trkpt>
      <trkpt lat="42.239633" lon="12.229644">
        <ele>268.984070</ele>
        <time>2018-08-03T16:27:11Z</time>
      </trkpt>
      <trkpt lat="42.240459" lon="12.227947">
        <ele>274.672058</ele>
        <time>2018-08-03T16:27:26Z</time>
      </trkpt>
      <trkpt lat="42.240566" lon="12.227832">
        <ele>275.320435</ele>
        <time>2018-08-03T16:29:26Z</time>
      </trkpt>
      <trkpt lat="42.240432" lon="12.227723">
        <ele>276.375977</ele>
        <time>2018-08-03T16:35:38Z</time>
      </trkpt>
      <trkpt lat="42.240595" lon="12.225715">
        <ele>279.018494</ele>
        <time>2018-08-03T16:35:54Z</time>
      </trkpt>
      <trkpt lat="42.240979" lon="12.223704">
        <ele>278.183044</ele>
        <time>2018-08-03T16:36:09Z</time>
      </trkpt>
      <trkpt lat="42.241057" lon="12.223419">
        <ele>278.545410</ele>
        <time>2018-08-03T16:36:24Z</time>
      </trkpt>
      <trkpt lat="42.241188" lon="12.223081">
        <ele>279.113098</ele>
        <time>2018-08-03T16:36:40Z</time>
      </trkpt>
      <trkpt lat="42.242057" lon="12.221780">
        <ele>284.318970</ele>
        <time>2018-08-03T16:36:55Z</time>
      </trkpt>
      <trkpt lat="42.242534" lon="12.219846">
        <ele>287.106293</ele>
        <time>2018-08-03T16:37:10Z</time>
      </trkpt>
      <trkpt lat="42.244305" lon="12.218288">
        <ele>299.195068</ele>
        <time>2018-08-03T16:37:26Z</time>
      </trkpt>
      <trkpt lat="42.245367" lon="12.216290">
        <ele>309.332794</ele>
        <time>2018-08-03T16:37:42Z</time>
      </trkpt>
      <trkpt lat="42.245794" lon="12.215017">
        <ele>310.998047</ele>
        <time>2018-08-03T16:37:57Z</time>
      </trkpt>
      <trkpt lat="42.246821" lon="12.215267">
        <ele>315.066620</ele>
        <time>2018-08-03T16:38:13Z</time>
      </trkpt>
      <trkpt lat="42.248699" lon="12.215587">
        <ele>308.756989</ele>
        <time>2018-08-03T16:38:29Z</time>
      </trkpt>
      <trkpt lat="42.250855" lon="12.215840">
        <ele>321.162689</ele>
        <time>2018-08-03T16:38:44Z</time>
      </trkpt>
      <trkpt lat="42.252976" lon="12.215117">
        <ele>325.085175</ele>
        <time>2018-08-03T16:38:59Z</time>
      </trkpt>
      <trkpt lat="42.255345" lon="12.216095">
        <ele>328.484589</ele>
        <time>2018-08-03T16:39:15Z</time>
      </trkpt>
      <trkpt lat="42.257840" lon="12.217034">
        <ele>332.082397</ele>
        <time>2018-08-03T16:39:30Z</time>
      </trkpt>
      <trkpt lat="42.260082" lon="12.218681">
        <ele>338.249023</ele>
        <time>2018-08-03T16:39:46Z</time>
      </trkpt>
      <trkpt lat="42.262486" lon="12.218181">
        <ele>347.318054</ele>
        <time>2018-08-03T16:40:01Z</time>
      </trkpt>
      <trkpt lat="42.265129" lon="12.218258">
        <ele>352.283447</ele>
        <time>2018-08-03T16:40:17Z</time>
      </trkpt>
      <trkpt lat="42.267555" lon="12.219358">
        <ele>367.168915</ele>
        <time>2018-08-03T16:40:32Z</time>
      </trkpt>
      <trkpt lat="42.270124" lon="12.220046">
        <ele>378.642822</ele>
        <time>2018-08-03T16:40:48Z</time>
      </trkpt>
      <trkpt lat="42.272702" lon="12.220012">
        <ele>373.893280</ele>
        <time>2018-08-03T16:41:04Z</time>
      </trkpt>
      <trkpt lat="42.274191" lon="12.219129">
        <ele>361.504089</ele>
        <time>2018-08-03T16:41:20Z</time>
      </trkpt>
      <trkpt lat="42.275860" lon="12.217963">
        <ele>383.600830</ele>
        <time>2018-08-03T16:41:35Z</time>
      </trkpt>
      <trkpt lat="42.277839" lon="12.218970">
        <ele>394.033081</ele>
        <time>2018-08-03T16:41:50Z</time>
      </trkpt>
      <trkpt lat="42.279553" lon="12.219377">
        <ele>403.316895</ele>
        <time>2018-08-03T16:42:06Z</time>
      </trkpt>
      <trkpt lat="42.279975" lon="12.217708">
        <ele>406.116943</ele>
        <time>2018-08-03T16:42:22Z</time>
      </trkpt>
      <trkpt lat="42.281319" lon="12.215635">
        <ele>414.670746</ele>
        <time>2018-08-03T16:42:37Z</time>
      </trkpt>
      <trkpt lat="42.283296" lon="12.214970">
        <ele>424.883362</ele>
        <time>2018-08-03T16:42:52Z</time>
      </trkpt>
      <trkpt lat="42.283930" lon="12.214692">
        <ele>429.235474</ele>
        <time>2018-08-03T16:43:07Z</time>
      </trkpt>
      <trkpt lat="42.283784" lon="12.214686">
        <ele>428.496033</ele>
        <time>2018-08-03T16:49:24Z</time>
      </trkpt>
      <trkpt lat="42.283679" lon="12.214831">
        <ele>427.350342</ele>
        <time>2018-08-03T16:54:17Z</time>
      </trkpt>
      <trkpt lat="42.283822" lon="12.214920">
        <ele>427.690918</ele>
        <time>2018-08-03T16:55:08Z</time>
      </trkpt>
      <trkpt lat="42.285224" lon="12.214792">
        <ele>437.114197</ele>
        <time>2018-08-03T16:55:24Z</time>
      </trkpt>
      <trkpt lat="42.285876" lon="12.214771">
        <ele>441.792603</ele>
        <time>2018-08-03T16:55:39Z</time>
      </trkpt>
      <trkpt lat="42.286672" lon="12.214697">
        <ele>446.383575</ele>
        <time>2018-08-03T16:55:54Z</time>
      </trkpt>
      <trkpt lat="42.288318" lon="12.214506">
        <ele>452.150391</ele>
        <time>2018-08-03T16:56:10Z</time>
      </trkpt>
      <trkpt lat="42.289368" lon="12.214360">
        <ele>449.447845</ele>
        <time>2018-08-03T16:56:26Z</time>
      </trkpt>
      <trkpt lat="42.289865" lon="12.214098">
        <ele>447.218109</ele>
        <time>2018-08-03T16:56:41Z</time>
      </trkpt>
      <trkpt lat="42.290404" lon="12.213298">
        <ele>452.103424</ele>
        <time>2018-08-03T16:56:57Z</time>
      </trkpt>
      <trkpt lat="42.291566" lon="12.211645">
        <ele>459.298615</ele>
        <time>2018-08-03T16:57:12Z</time>
      </trkpt>
      <trkpt lat="42.293457" lon="12.210885">
        <ele>479.064606</ele>
        <time>2018-08-03T16:57:28Z</time>
      </trkpt>
      <trkpt lat="42.295093" lon="12.210146">
        <ele>485.545898</ele>
        <time>2018-08-03T16:57:44Z</time>
      </trkpt>
      <trkpt lat="42.295805" lon="12.209889">
        <ele>487.493073</ele>
        <time>2018-08-03T16:58:00Z</time>
      </trkpt>
      <trkpt lat="42.296422" lon="12.207547">
        <ele>494.470886</ele>
        <time>2018-08-03T16:58:16Z</time>
      </trkpt>
      <trkpt lat="42.297390" lon="12.204875">
        <ele>523.953125</ele>
        <time>2018-08-03T16:58:31Z</time>
      </trkpt>
      <trkpt lat="42.298850" lon="12.202131">
        <ele>540.701538</ele>
        <time>2018-08-03T16:58:47Z</time>
      </trkpt>
      <trkpt lat="42.300592" lon="12.200854">
        <ele>551.604004</ele>
        <time>2018-08-03T16:59:02Z</time>
      </trkpt>
      <trkpt lat="42.302542" lon="12.199896">
        <ele>541.855652</ele>
        <time>2018-08-03T16:59:18Z</time>
      </trkpt>
      <trkpt lat="42.304367" lon="12.200068">
        <ele>532.014526</ele>
        <time>2018-08-03T16:59:34Z</time>
      </trkpt>
      <trkpt lat="42.305863" lon="12.202446">
        <ele>541.635193</ele>
        <time>2018-08-03T16:59:49Z</time>
      </trkpt>
      <trkpt lat="42.307693" lon="12.204781">
        <ele>569.001526</ele>
        <time>2018-08-03T17:00:05Z</time>
      </trkpt>
      <trkpt lat="42.309631" lon="12.206327">
        <ele>584.099731</ele>
        <time>2018-08-03T17:00:20Z</time>
      </trkpt>
      <trkpt lat="42.311221" lon="12.208080">
        <ele>596.104065</ele>
        <time>2018-08-03T17:00:35Z</time>
      </trkpt>
      <trkpt lat="42.313345" lon="12.209544">
        <ele>602.699463</ele>
        <time>2018-08-03T17:00:51Z</time>
      </trkpt>
      <trkpt lat="42.315769" lon="12.209951">
        <ele>613.136719</ele>
        <time>2018-08-03T17:01:06Z</time>
      </trkpt>
      <trkpt lat="42.318124" lon="12.210873">
        <ele>621.719788</ele>
        <time>2018-08-03T17:01:22Z</time>
      </trkpt>
      <trkpt lat="42.320587" lon="12.212636">
        <ele>636.702148</ele>
        <time>2018-08-03T17:01:37Z</time>
      </trkpt>
      <trkpt lat="42.322841" lon="12.213955">
        <ele>653.330261</ele>
        <time>2018-08-03T17:01:52Z</time>
      </trkpt>
      <trkpt lat="42.325092" lon="12.214635">
        <ele>664.942078</ele>
        <time>2018-08-03T17:02:08Z</time>
      </trkpt>
      <trkpt lat="42.327381" lon="12.214656">
        <ele>674.455261</ele>
        <time>2018-08-03T17:02:23Z</time>
      </trkpt>
      <trkpt lat="42.330050" lon="12.215939">
        <ele>687.098022</ele>
        <time>2018-08-03T17:02:39Z</time>
      </trkpt>
      <trkpt lat="42.332684" lon="12.216532">
        <ele>702.077148</ele>
        <time>2018-08-03T17:02:54Z</time>
      </trkpt>
      <trkpt lat="42.335125" lon="12.216158">
        <ele>714.442505</ele>
        <time>2018-08-03T17:03:10Z</time>
      </trkpt>
      <trkpt lat="42.337809" lon="12.215464">
        <ele>714.071899</ele>
        <time>2018-08-03T17:03:26Z</time>
      </trkpt>
      <trkpt lat="42.340381" lon="12.214791">
        <ele>709.899597</ele>
        <time>2018-08-03T17:03:41Z</time>
      </trkpt>
      <trkpt lat="42.342998" lon="12.214042">
        <ele>720.467163</ele>
        <time>2018-08-03T17:03:56Z</time>
      </trkpt>
      <trkpt lat="42.345386" lon="12.213001">
        <ele>727.495605</ele>
        <time>2018-08-03T17:04:12Z</time>
      </trkpt>
      <trkpt lat="42.347206" lon="12.211416">
        <ele>726.369263</ele>
        <time>2018-08-03T17:04:27Z</time>
      </trkpt>
      <trkpt lat="42.349165" lon="12.211226">
        <ele>739.743896</ele>
        <time>2018-08-03T17:04:42Z</time>
      </trkpt>
      <trkpt lat="42.350062" lon="12.209301">
        <ele>760.476929</ele>
        <time>2018-08-03T17:04:57Z</time>
      </trkpt>
      <trkpt lat="42.351580" lon="12.207852">
        <ele>778.302368</ele>
        <time>2018-08-03T17:05:12Z</time>
      </trkpt>
      <trkpt lat="42.352886" lon="12.207165">
        <ele>794.135864</ele>
        <time>2018-08-03T17:05:27Z</time>
      </trkpt>
      <trkpt lat="42.354108" lon="12.205366">
        <ele>816.128296</ele>
        <time>2018-08-03T17:05:43Z</time>
      </trkpt>
      <trkpt lat="42.355191" lon="12.202462">
        <ele>821.785522</ele>
        <time>2018-08-03T17:05:59Z</time>
      </trkpt>
      <trkpt lat="42.356870" lon="12.199875">
        <ele>831.337036</ele>
        <time>2018-08-03T17:06:14Z</time>
      </trkpt>
      <trkpt lat="42.358991" lon="12.197079">
        <ele>835.027832</ele>
        <time>2018-08-03T17:06:30Z</time>
      </trkpt>
      <trkpt lat="42.360919" lon="12.194033">
        <ele>837.047302</ele>
        <time>2018-08-03T17:06:45Z</time>
      </trkpt>
      <trkpt lat="42.362173" lon="12.190478">
        <ele>852.232544</ele>
        <time>2018-08-03T17:07:01Z</time>
      </trkpt>
      <trkpt lat="42.363186" lon="12.187132">
        <ele>864.422119</ele>
        <time>2018-08-03T17:07:16Z</time>
      </trkpt>
      <trkpt lat="42.364234" lon="12.184282">
        <ele>863.186157</ele>
        <time>2018-08-03T17:07:32Z</time>
      </trkpt>
      <trkpt lat="42.366269" lon="12.185161">
        <ele>856.941406</ele>
        <time>2018-08-03T17:07:48Z</time>
      </trkpt>
      <trkpt lat="42.367811" lon="12.186259">
        <ele>842.845215</ele>
        <time>2018-08-03T17:08:03Z</time>
      </trkpt>
      <trkpt lat="42.369515" lon="12.187937">
        <ele>827.457520</ele>
        <time>2018-08-03T17:08:18Z</time>
      </trkpt>
      <trkpt lat="42.370331" lon="12.188361">
        <ele>820.837280</ele>
        <time>2018-08-03T17:08:34Z</time>
      </trkpt>
      <trkpt lat="42.371182" lon="12.187264">
        <ele>809.658813</ele>
        <time>2018-08-03T17:08:49Z</time>
      </trkpt>
      <trkpt lat="42.373229" lon="12.187195">
        <ele>805.826660</ele>
        <time>2018-08-03T17:09:04Z</time>
      </trkpt>
      <trkpt lat="42.375359" lon="12.185397">
        <ele>793.399902</ele>
        <time>2018-08-03T17:09:20Z</time>
      </trkpt>
      <trkpt lat="42.377945" lon="12.184946">
        <ele>787.221252</ele>
        <time>2018-08-03T17:09:35Z</time>
      </trkpt>
      <trkpt lat="42.380372" lon="12.185408">
        <ele>780.100708</ele>
        <time>2018-08-03T17:09:51Z</time>
      </trkpt>
      <trkpt lat="42.382316" lon="12.183322">
        <ele>769.580505</ele>
        <time>2018-08-03T17:10:07Z</time>
      </trkpt>
      <trkpt lat="42.385151" lon="12.182541">
        <ele>759.818970</ele>
        <time>2018-08-03T17:10:23Z</time>
      </trkpt>
      <trkpt lat="42.387464" lon="12.181332">
        <ele>757.145935</ele>
        <time>2018-08-03T17:10:38Z</time>
      </trkpt>
      <trkpt lat="42.388657" lon="12.177535">
        <ele>729.514282</ele>
        <time>2018-08-03T17:10:54Z</time>
      </trkpt>
      <trkpt lat="42.390215" lon="12.173884">
        <ele>718.818115</ele>
        <time>2018-08-03T17:11:09Z</time>
      </trkpt>
      <trkpt lat="42.392435" lon="12.171902">
        <ele>705.180664</ele>
        <time>2018-08-03T17:11:24Z</time>
      </trkpt>
      <trkpt lat="42.393035" lon="12.168998">
        <ele>698.754700</ele>
        <time>2018-08-03T17:11:39Z</time>
      </trkpt>
      <trkpt lat="42.393139" lon="12.165259">
        <ele>684.601074</ele>
        <time>2018-08-03T17:11:55Z</time>
      </trkpt>
      <trkpt lat="42.392649" lon="12.161814">
        <ele>669.922729</ele>
        <time>2018-08-03T17:12:11Z</time>
      </trkpt>
      <trkpt lat="42.393356" lon="12.158307">
        <ele>655.852356</ele>
        <time>2018-08-03T17:12:26Z</time>
      </trkpt>
      <trkpt lat="42.394378" lon="12.154912">
        <ele>641.858643</ele>
        <time>2018-08-03T17:12:42Z</time>
      </trkpt>
      <trkpt lat="42.394211" lon="12.151231">
        <ele>618.848633</ele>
        <time>2018-08-03T17:12:58Z</time>
      </trkpt>
      <trkpt lat="42.394369" lon="12.147684">
        <ele>602.829651</ele>
        <time>2018-08-03T17:13:14Z</time>
      </trkpt>
      <trkpt lat="42.396235" lon="12.146040">
        <ele>586.335693</ele>
        <time>2018-08-03T17:13:29Z</time>
      </trkpt>
      <trkpt lat="42.398757" lon="12.144828">
        <ele>571.467224</ele>
        <time>2018-08-03T17:13:45Z</time>
      </trkpt>
      <trkpt lat="42.400846" lon="12.143217">
        <ele>558.748169</ele>
        <time>2018-08-03T17:14:01Z</time>
      </trkpt>
      <trkpt lat="42.402221" lon="12.140862">
        <ele>546.852600</ele>
        <time>2018-08-03T17:14:16Z</time>
      </trkpt>
      <trkpt lat="42.403533" lon="12.139546">
        <ele>531.902100</ele>
        <time>2018-08-03T17:14:31Z</time>
      </trkpt>
      <trkpt lat="42.403014" lon="12.137458">
        <ele>514.406189</ele>
        <time>2018-08-03T17:14:46Z</time>
      </trkpt>
      <trkpt lat="42.404082" lon="12.135207">
        <ele>497.694397</ele>
        <time>2018-08-03T17:15:02Z</time>
      </trkpt>
      <trkpt lat="42.405186" lon="12.132546">
        <ele>488.387756</ele>
        <time>2018-08-03T17:15:18Z</time>
      </trkpt>
      <trkpt lat="42.405442" lon="12.129726">
        <ele>472.460419</ele>
        <time>2018-08-03T17:15:33Z</time>
      </trkpt>
      <trkpt lat="42.406277" lon="12.127130">
        <ele>457.672119</ele>
        <time>2018-08-03T17:15:48Z</time>
      </trkpt>
      <trkpt lat="42.407445" lon="12.124162">
        <ele>439.692566</ele>
        <time>2018-08-03T17:16:04Z</time>
      </trkpt>
      <trkpt lat="42.408875" lon="12.122237">
        <ele>426.193787</ele>
        <time>2018-08-03T17:16:19Z</time>
      </trkpt>
      <trkpt lat="42.410170" lon="12.120378">
        <ele>412.040039</ele>
        <time>2018-08-03T17:16:35Z</time>
      </trkpt>
      <trkpt lat="42.410308" lon="12.118677">
        <ele>402.429504</ele>
        <time>2018-08-03T17:16:50Z</time>
      </trkpt>
      <trkpt lat="42.409963" lon="12.116503">
        <ele>387.287964</ele>
        <time>2018-08-03T17:17:06Z</time>
      </trkpt>
      <trkpt lat="42.411129" lon="12.114761">
        <ele>377.615265</ele>
        <time>2018-08-03T17:17:21Z</time>
      </trkpt>
      <trkpt lat="42.412000" lon="12.113528">
        <ele>367.613281</ele>
        <time>2018-08-03T17:17:37Z</time>
      </trkpt>
      <trkpt lat="42.412122" lon="12.113356">
        <ele>365.951599</ele>
        <time>2018-08-03T17:18:47Z</time>
      </trkpt>
      <trkpt lat="42.412928" lon="12.112212">
        <ele>362.687561</ele>
        <time>2018-08-03T17:19:03Z</time>
      </trkpt>
      <trkpt lat="42.413870" lon="12.111004">
        <ele>359.389984</ele>
        <time>2018-08-03T17:19:19Z</time>
      </trkpt>
      <trkpt lat="42.414140" lon="12.110541">
        <ele>358.797668</ele>
        <time>2018-08-03T17:19:54Z</time>
      </trkpt>
      <trkpt lat="42.414234" lon="12.110331">
        <ele>358.386597</ele>
        <time>2018-08-03T17:20:23Z</time>
      </trkpt>
      <trkpt lat="42.415257" lon="12.110237">
        <ele>359.435669</ele>
        <time>2018-08-03T17:20:39Z</time>
      </trkpt>
      <trkpt lat="42.416320" lon="12.110244">
        <ele>356.538208</ele>
        <time>2018-08-03T17:20:55Z</time>
      </trkpt>
      <trkpt lat="42.416471" lon="12.110222">
        <ele>356.065308</ele>
        <time>2018-08-03T17:21:17Z</time>
      </trkpt>
      <trkpt lat="42.417579" lon="12.110238">
        <ele>353.408783</ele>
        <time>2018-08-03T17:21:32Z</time>
      </trkpt>
      <trkpt lat="42.418514" lon="12.110196">
        <ele>351.654602</ele>
        <time>2018-08-03T17:21:48Z</time>
      </trkpt>
      <trkpt lat="42.418650" lon="12.110186">
        <ele>351.585510</ele>
        <time>2018-08-03T17:24:14Z</time>
      </trkpt>
      <trkpt lat="42.419129" lon="12.110081">
        <ele>351.198975</ele>
        <time>2018-08-03T17:24:30Z</time>
      </trkpt>
      <trkpt lat="42.420757" lon="12.109953">
        <ele>343.405853</ele>
        <time>2018-08-03T17:24:46Z</time>
      </trkpt>
      <trkpt lat="42.421672" lon="12.109354">
        <ele>337.247894</ele>
        <time>2018-08-03T17:25:02Z</time>
      </trkpt>
      <trkpt lat="42.422701" lon="12.108030">
        <ele>341.100739</ele>
        <time>2018-08-03T17:25:17Z</time>
      </trkpt>
      <trkpt lat="42.423258" lon="12.106814">
        <ele>343.207031</ele>
        <time>2018-08-03T17:25:32Z</time>
      </trkpt>
      <trkpt lat="42.423789" lon="12.105724">
        <ele>343.106018</ele>
        <time>2018-08-03T17:25:48Z</time>
      </trkpt>
      <trkpt lat="42.424760" lon="12.104704">
        <ele>339.200775</ele>
        <time>2018-08-03T17:26:04Z</time>
      </trkpt>
      <trkpt lat="42.425742" lon="12.104089">
        <ele>338.525726</ele>
        <time>2018-08-03T17:26:20Z</time>
      </trkpt>
      <trkpt lat="42.426758" lon="12.102824">
        <ele>333.690582</ele>
        <time>2018-08-03T17:26:35Z</time>
      </trkpt>
      <trkpt lat="42.427572" lon="12.101046">
        <ele>328.295593</ele>
        <time>2018-08-03T17:26:50Z</time>
      </trkpt>
      <trkpt lat="42.428725" lon="12.100362">
        <ele>328.674805</ele>
        <time>2018-08-03T17:27:06Z</time>
      </trkpt>
      <trkpt lat="42.430072" lon="12.100155">
        <ele>330.441406</ele>
        <time>2018-08-03T17:27:22Z</time>
      </trkpt>
      <trkpt lat="42.431624" lon="12.099800">
        <ele>330.266022</ele>
        <time>2018-08-03T17:27:38Z</time>
      </trkpt>
      <trkpt lat="42.433136" lon="12.099443">
        <ele>331.236206</ele>
        <time>2018-08-03T17:27:54Z</time>
      </trkpt>
      <trkpt lat="42.434476" lon="12.098848">
        <ele>329.125488</ele>
        <time>2018-08-03T17:28:09Z</time>
      </trkpt>
      <trkpt lat="42.435871" lon="12.097474">
        <ele>329.938690</ele>
        <time>2018-08-03T17:28:25Z</time>
      </trkpt>
      <trkpt lat="42.436862" lon="12.095813">
        <ele>327.185822</ele>
        <time>2018-08-03T17:28:40Z</time>
      </trkpt>
      <trkpt lat="42.437119" lon="12.095379">
        <ele>326.452148</ele>
        <time>2018-08-03T17:28:56Z</time>
      </trkpt>
      <trkpt lat="42.437860" lon="12.095330">
        <ele>326.792053</ele>
        <time>2018-08-03T17:29:11Z</time>
      </trkpt>
      <trkpt lat="42.438201" lon="12.095203">
        <ele>326.488281</ele>
        <time>2018-08-03T17:29:26Z</time>
      </trkpt>
      <trkpt lat="42.438327" lon="12.095111">
        <ele>326.266418</ele>
        <time>2018-08-03T17:30:56Z</time>
      </trkpt>
      <trkpt lat="42.438335" lon="12.095308">
        <ele>326.734863</ele>
        <time>2018-08-03T17:31:55Z</time>
      </trkpt>
      <trkpt lat="42.438343" lon="12.095492">
        <ele>327.158478</ele>
        <time>2018-08-03T17:36:11Z</time>
      </trkpt>
      <trkpt lat="42.438463" lon="12.095589">
        <ele>327.101868</ele>
        <time>2018-08-03T17:36:37Z</time>
      </trkpt>
      <trkpt lat="42.438576" lon="12.095696">
        <ele>327.089417</ele>
        <time>2018-08-03T17:36:55Z</time>
      </trkpt>
      <trkpt lat="42.438685" lon="12.095878">
        <ele>327.186096</ele>
        <time>2018-08-03T17:37:11Z</time>
      </trkpt>
      <trkpt lat="42.438741" lon="12.096066">
        <ele>327.162872</ele>
        <time>2018-08-03T17:37:27Z</time>
      </trkpt>
      <trkpt lat="42.438842" lon="12.096195">
        <ele>326.947906</ele>
        <time>2018-08-03T17:37:44Z</time>
      </trkpt>
      <trkpt lat="42.439083" lon="12.096356">
        <ele>326.263184</ele>
        <time>2018-08-03T17:38:00Z</time>
      </trkpt>
      <trkpt lat="42.439033" lon="12.096155">
        <ele>326.381927</ele>
        <time>2018-08-03T17:38:22Z</time>
      </trkpt>
      <trkpt lat="42.438927" lon="12.096277">
        <ele>326.727112</ele>
        <time>2018-08-03T17:38:43Z</time>
      </trkpt>
      <trkpt lat="42.438872" lon="12.096671">
        <ele>327.054199</ele>
        <time>2018-08-03T17:38:59Z</time>
      </trkpt>
      <trkpt lat="42.438999" lon="12.096386">
        <ele>326.535767</ele>
        <time>2018-08-03T17:39:21Z</time>
      </trkpt>
      <trkpt lat="42.438935" lon="12.096553">
        <ele>326.796509</ele>
        <time>2018-08-03T17:40:30Z</time>
      </trkpt>
      <trkpt lat="42.439022" lon="12.096408">
        <ele>326.467865</ele>
        <time>2018-08-03T17:41:07Z</time>
      </trkpt>
      <trkpt lat="42.439198" lon="12.096575">
        <ele>325.954254</ele>
        <time>2018-08-03T17:53:03Z</time>
      </trkpt>
      <trkpt lat="42.439342" lon="12.096664">
        <ele>325.788300</ele>
        <time>2018-08-03T17:53:18Z</time>
      </trkpt>
      <trkpt lat="42.439493" lon="12.096680">
        <ele>325.611450</ele>
        <time>2018-08-03T17:53:34Z</time>
      </trkpt>
      <trkpt lat="42.439138" lon="12.096364">
        <ele>326.090302</ele>
        <time>2018-08-03T17:53:50Z</time>
      </trkpt>
      <trkpt lat="42.439180" lon="12.096567">
        <ele>325.980286</ele>
        <time>2018-08-03T17:54:06Z</time>
      </trkpt>
      <trkpt lat="42.439199" lon="12.096384">
        <ele>325.935608</ele>
        <time>2018-08-03T17:54:26Z</time>
      </trkpt>
      <trkpt lat="42.438865" lon="12.096169">
        <ele>326.868591</ele>
        <time>2018-08-03T17:54:42Z</time>
      </trkpt>
      <trkpt lat="42.439031" lon="12.096524">
        <ele>326.459717</ele>
        <time>2018-08-03T17:54:57Z</time>
      </trkpt>
      <trkpt lat="42.438941" lon="12.096759">
        <ele>326.703064</ele>
        <time>2018-08-03T17:55:35Z</time>
      </trkpt>
      <trkpt lat="42.439005" lon="12.096357">
        <ele>326.509827</ele>
        <time>2018-08-03T17:56:10Z</time>
      </trkpt>
      <trkpt lat="42.439004" lon="12.096569">
        <ele>326.562317</ele>
        <time>2018-08-03T17:58:11Z</time>
      </trkpt>
      <trkpt lat="42.439059" lon="12.096382">
        <ele>326.343262</ele>
        <time>2018-08-03T17:58:26Z</time>
      </trkpt>
      <trkpt lat="42.439021" lon="12.096200">
        <ele>326.427460</ele>
        <time>2018-08-03T17:58:52Z</time>
      </trkpt>
      <trkpt lat="42.438947" lon="12.096027">
        <ele>326.587921</ele>
        <time>2018-08-03T17:59:07Z</time>
      </trkpt>
      <trkpt lat="42.438846" lon="12.095842">
        <ele>326.772400</ele>
        <time>2018-08-03T17:59:23Z</time>
      </trkpt>
      <trkpt lat="42.438734" lon="12.095688">
        <ele>326.688995</ele>
        <time>2018-08-03T17:59:38Z</time>
      </trkpt>
      <trkpt lat="42.438620" lon="12.095528">
        <ele>326.579163</ele>
        <time>2018-08-03T17:59:54Z</time>
      </trkpt>
      <trkpt lat="42.438545" lon="12.095342">
        <ele>326.312744</ele>
        <time>2018-08-03T18:00:09Z</time>
      </trkpt>
      <trkpt lat="42.438453" lon="12.095176">
        <ele>326.133911</ele>
        <time>2018-08-03T18:00:24Z</time>
      </trkpt>
      <trkpt lat="42.438311" lon="12.095150">
        <ele>326.359558</ele>
        <time>2018-08-03T18:00:42Z</time>
      </trkpt>
      <trkpt lat="42.438216" lon="12.095317">
        <ele>326.761658</ele>
        <time>2018-08-03T18:07:59Z</time>
      </trkpt>
      <trkpt lat="42.437505" lon="12.095133">
        <ele>326.318909</ele>
        <time>2018-08-03T18:08:15Z</time>
      </trkpt>
      <trkpt lat="42.438210" lon="12.094184">
        <ele>324.876160</ele>
        <time>2018-08-03T18:08:30Z</time>
      </trkpt>
      <trkpt lat="42.439726" lon="12.094155">
        <ele>320.336426</ele>
        <time>2018-08-03T18:08:45Z</time>
      </trkpt>
      <trkpt lat="42.441771" lon="12.092617">
        <ele>317.904602</ele>
        <time>2018-08-03T18:09:01Z</time>
      </trkpt>
      <trkpt lat="42.443700" lon="12.091378">
        <ele>322.270203</ele>
        <time>2018-08-03T18:09:16Z</time>
      </trkpt>
      <trkpt lat="42.444438" lon="12.090672">
        <ele>320.518860</ele>
        <time>2018-08-03T18:09:32Z</time>
      </trkpt>
      <trkpt lat="42.443162" lon="12.091506">
        <ele>321.754272</ele>
        <time>2018-08-03T18:09:47Z</time>
      </trkpt>
      <trkpt lat="42.442412" lon="12.091526">
        <ele>320.303833</ele>
        <time>2018-08-03T18:10:02Z</time>
      </trkpt>
      <trkpt lat="42.443195" lon="12.089009">
        <ele>318.803162</ele>
        <time>2018-08-03T18:10:18Z</time>
      </trkpt>
      <trkpt lat="42.443154" lon="12.087992">
        <ele>318.481354</ele>
        <time>2018-08-03T18:10:33Z</time>
      </trkpt>
      <trkpt lat="42.444714" lon="12.086508">
        <ele>315.489014</ele>
        <time>2018-08-03T18:10:49Z</time>
      </trkpt>
      <trkpt lat="42.447076" lon="12.085033">
        <ele>314.490845</ele>
        <time>2018-08-03T18:11:04Z</time>
      </trkpt>
      <trkpt lat="42.449371" lon="12.083132">
        <ele>316.186096</ele>
        <time>2018-08-03T18:11:20Z</time>
      </trkpt>
      <trkpt lat="42.451700" lon="12.081435">
        <ele>312.902130</ele>
        <time>2018-08-03T18:11:35Z</time>
      </trkpt>
      <trkpt lat="42.454071" lon="12.079861">
        <ele>308.685150</ele>
        <time>2018-08-03T18:11:50Z</time>
      </trkpt>
      <trkpt lat="42.456702" lon="12.077911">
        <ele>307.936096</ele>
        <time>2018-08-03T18:12:06Z</time>
      </trkpt>
      <trkpt lat="42.458977" lon="12.076367">
        <ele>309.770447</ele>
        <time>2018-08-03T18:12:21Z</time>
      </trkpt>
      <trkpt lat="42.460601" lon="12.075379">
        <ele>312.014862</ele>
        <time>2018-08-03T18:12:36Z</time>
      </trkpt>
      <trkpt lat="42.462312" lon="12.074460">
        <ele>312.647797</ele>
        <time>2018-08-03T18:12:51Z</time>
      </trkpt>
      <trkpt lat="42.464451" lon="12.073513">
        <ele>314.857727</ele>
        <time>2018-08-03T18:13:07Z</time>
      </trkpt>
      <trkpt lat="42.466927" lon="12.073512">
        <ele>317.228516</ele>
        <time>2018-08-03T18:13:23Z</time>
      </trkpt>
      <trkpt lat="42.469332" lon="12.073944">
        <ele>314.191803</ele>
        <time>2018-08-03T18:13:38Z</time>
      </trkpt>
      <trkpt lat="42.471645" lon="12.073699">
        <ele>311.375305</ele>
        <time>2018-08-03T18:13:54Z</time>
      </trkpt>
      <trkpt lat="42.473706" lon="12.073011">
        <ele>316.827271</ele>
        <time>2018-08-03T18:14:09Z</time>
      </trkpt>
      <trkpt lat="42.475679" lon="12.071882">
        <ele>317.089478</ele>
        <time>2018-08-03T18:14:24Z</time>
      </trkpt>
      <trkpt lat="42.478340" lon="12.070475">
        <ele>320.460907</ele>
        <time>2018-08-03T18:14:40Z</time>
      </trkpt>
      <trkpt lat="42.481474" lon="12.069405">
        <ele>322.681488</ele>
        <time>2018-08-03T18:14:55Z</time>
      </trkpt>
      <trkpt lat="42.484994" lon="12.068199">
        <ele>317.159576</ele>
        <time>2018-08-03T18:15:11Z</time>
      </trkpt>
      <trkpt lat="42.488204" lon="12.067104">
        <ele>321.633026</ele>
        <time>2018-08-03T18:15:26Z</time>
      </trkpt>
      <trkpt lat="42.491242" lon="12.064960">
        <ele>316.041809</ele>
        <time>2018-08-03T18:15:42Z</time>
      </trkpt>
      <trkpt lat="42.494353" lon="12.063608">
        <ele>310.968109</ele>
        <time>2018-08-03T18:15:58Z</time>
      </trkpt>
      <trkpt lat="42.497660" lon="12.062411">
        <ele>316.727020</ele>
        <time>2018-08-03T18:16:13Z</time>
      </trkpt>
      <trkpt lat="42.500779" lon="12.061233">
        <ele>334.583649</ele>
        <time>2018-08-03T18:16:28Z</time>
      </trkpt>
      <trkpt lat="42.503837" lon="12.059954">
        <ele>344.571075</ele>
        <time>2018-08-03T18:16:44Z</time>
      </trkpt>
      <trkpt lat="42.506663" lon="12.058152">
        <ele>348.338623</ele>
        <time>2018-08-03T18:17:00Z</time>
      </trkpt>
      <trkpt lat="42.509630" lon="12.056355">
        <ele>355.320374</ele>
        <time>2018-08-03T18:17:16Z</time>
      </trkpt>
      <trkpt lat="42.512296" lon="12.054381">
        <ele>370.516418</ele>
        <time>2018-08-03T18:17:32Z</time>
      </trkpt>
      <trkpt lat="42.514988" lon="12.052583">
        <ele>386.618683</ele>
        <time>2018-08-03T18:17:48Z</time>
      </trkpt>
      <trkpt lat="42.517247" lon="12.050421">
        <ele>400.220154</ele>
        <time>2018-08-03T18:18:04Z</time>
      </trkpt>
      <trkpt lat="42.519223" lon="12.048358">
        <ele>411.478760</ele>
        <time>2018-08-03T18:18:20Z</time>
      </trkpt>
      <trkpt lat="42.521471" lon="12.048257">
        <ele>408.297882</ele>
        <time>2018-08-03T18:18:35Z</time>
      </trkpt>
      <trkpt lat="42.523083" lon="12.050150">
        <ele>423.783691</ele>
        <time>2018-08-03T18:18:50Z</time>
      </trkpt>
      <trkpt lat="42.524162" lon="12.052151">
        <ele>435.138031</ele>
        <time>2018-08-03T18:19:05Z</time>
      </trkpt>
      <trkpt lat="42.525429" lon="12.053415">
        <ele>441.930847</ele>
        <time>2018-08-03T18:19:21Z</time>
      </trkpt>
      <trkpt lat="42.527324" lon="12.053568">
        <ele>452.436279</ele>
        <time>2018-08-03T18:19:36Z</time>
      </trkpt>
      <trkpt lat="42.529309" lon="12.053735">
        <ele>466.935791</ele>
        <time>2018-08-03T18:19:52Z</time>
      </trkpt>
      <trkpt lat="42.530899" lon="12.052512">
        <ele>469.782074</ele>
        <time>2018-08-03T18:20:08Z</time>
      </trkpt>
      <trkpt lat="42.531442" lon="12.049759">
        <ele>480.672974</ele>
        <time>2018-08-03T18:20:23Z</time>
      </trkpt>
      <trkpt lat="42.532137" lon="12.046944">
        <ele>488.389587</ele>
        <time>2018-08-03T18:20:39Z</time>
      </trkpt>
      <trkpt lat="42.532824" lon="12.044221">
        <ele>503.828949</ele>
        <time>2018-08-03T18:20:54Z</time>
      </trkpt>
      <trkpt lat="42.534038" lon="12.042103">
        <ele>516.424805</ele>
        <time>2018-08-03T18:21:09Z</time>
      </trkpt>
      <trkpt lat="42.535392" lon="12.039834">
        <ele>532.056458</ele>
        <time>2018-08-03T18:21:25Z</time>
      </trkpt>
      <trkpt lat="42.536806" lon="12.038086">
        <ele>539.616882</ele>
        <time>2018-08-03T18:21:40Z</time>
      </trkpt>
      <trkpt lat="42.538119" lon="12.036261">
        <ele>545.967651</ele>
        <time>2018-08-03T18:21:55Z</time>
      </trkpt>
      <trkpt lat="42.539233" lon="12.035531">
        <ele>552.656311</ele>
        <time>2018-08-03T18:22:11Z</time>
      </trkpt>
      <trkpt lat="42.540882" lon="12.035909">
        <ele>552.862793</ele>
        <time>2018-08-03T18:22:27Z</time>
      </trkpt>
      <trkpt lat="42.542164" lon="12.036383">
        <ele>537.572937</ele>
        <time>2018-08-03T18:22:42Z</time>
      </trkpt>
      <trkpt lat="42.543700" lon="12.038080">
        <ele>530.777466</ele>
        <time>2018-08-03T18:22:58Z</time>
      </trkpt>
      <trkpt lat="42.545365" lon="12.039415">
        <ele>531.757812</ele>
        <time>2018-08-03T18:23:13Z</time>
      </trkpt>
      <trkpt lat="42.547554" lon="12.040080">
        <ele>526.766602</ele>
        <time>2018-08-03T18:23:29Z</time>
      </trkpt>
      <trkpt lat="42.549803" lon="12.041375">
        <ele>518.164490</ele>
        <time>2018-08-03T18:23:44Z</time>
      </trkpt>
      <trkpt lat="42.552089" lon="12.042118">
        <ele>515.159180</ele>
        <time>2018-08-03T18:24:00Z</time>
      </trkpt>
      <trkpt lat="42.554156" lon="12.042763">
        <ele>515.397949</ele>
        <time>2018-08-03T18:24:15Z</time>
      </trkpt>
      <trkpt lat="42.556392" lon="12.043599">
        <ele>519.407959</ele>
        <time>2018-08-03T18:24:30Z</time>
      </trkpt>
      <trkpt lat="42.559201" lon="12.043911">
        <ele>511.079773</ele>
        <time>2018-08-03T18:24:46Z</time>
      </trkpt>
      <trkpt lat="42.561930" lon="12.045133">
        <ele>508.409729</ele>
        <time>2018-08-03T18:25:02Z</time>
      </trkpt>
      <trkpt lat="42.564346" lon="12.047190">
        <ele>505.339325</ele>
        <time>2018-08-03T18:25:17Z</time>
      </trkpt>
      <trkpt lat="42.567286" lon="12.048581">
        <ele>508.039612</ele>
        <time>2018-08-03T18:25:33Z</time>
      </trkpt>
      <trkpt lat="42.570330" lon="12.048503">
        <ele>521.250000</ele>
        <time>2018-08-03T18:25:48Z</time>
      </trkpt>
      <trkpt lat="42.572921" lon="12.049059">
        <ele>519.116333</ele>
        <time>2018-08-03T18:26:04Z</time>
      </trkpt>
      <trkpt lat="42.575238" lon="12.049440">
        <ele>524.007996</ele>
        <time>2018-08-03T18:26:19Z</time>
      </trkpt>
      <trkpt lat="42.577773" lon="12.048711">
        <ele>533.231934</ele>
        <time>2018-08-03T18:26:34Z</time>
      </trkpt>
      <trkpt lat="42.580169" lon="12.047145">
        <ele>539.649231</ele>
        <time>2018-08-03T18:26:50Z</time>
      </trkpt>
      <trkpt lat="42.581365" lon="12.043481">
        <ele>537.700378</ele>
        <time>2018-08-03T18:27:06Z</time>
      </trkpt>
      <trkpt lat="42.582817" lon="12.041377">
        <ele>538.450134</ele>
        <time>2018-08-03T18:27:21Z</time>
      </trkpt>
      <trkpt lat="42.585577" lon="12.040650">
        <ele>520.100098</ele>
        <time>2018-08-03T18:27:37Z</time>
      </trkpt>
      <trkpt lat="42.588521" lon="12.040827">
        <ele>506.929260</ele>
        <time>2018-08-03T18:27:53Z</time>
      </trkpt>
      <trkpt lat="42.591456" lon="12.041756">
        <ele>503.040314</ele>
        <time>2018-08-03T18:28:09Z</time>
      </trkpt>
      <trkpt lat="42.594431" lon="12.041661">
        <ele>507.995453</ele>
        <time>2018-08-03T18:28:24Z</time>
      </trkpt>
      <trkpt lat="42.597699" lon="12.041497">
        <ele>518.298828</ele>
        <time>2018-08-03T18:28:40Z</time>
      </trkpt>
      <trkpt lat="42.601025" lon="12.041290">
        <ele>522.933533</ele>
        <time>2018-08-03T18:28:56Z</time>
      </trkpt>
      <trkpt lat="42.604056" lon="12.041249">
        <ele>529.238220</ele>
        <time>2018-08-03T18:29:11Z</time>
      </trkpt>
      <trkpt lat="42.607296" lon="12.041325">
        <ele>544.475159</ele>
        <time>2018-08-03T18:29:27Z</time>
      </trkpt>
      <trkpt lat="42.610001" lon="12.041656">
        <ele>552.986267</ele>
        <time>2018-08-03T18:29:42Z</time>
      </trkpt>
      <trkpt lat="42.612508" lon="12.039891">
        <ele>538.720886</ele>
        <time>2018-08-03T18:29:58Z</time>
      </trkpt>
      <trkpt lat="42.615405" lon="12.038334">
        <ele>535.513916</ele>
        <time>2018-08-03T18:30:14Z</time>
      </trkpt>
      <trkpt lat="42.618333" lon="12.037718">
        <ele>532.216980</ele>
        <time>2018-08-03T18:30:30Z</time>
      </trkpt>
      <trkpt lat="42.621125" lon="12.037139">
        <ele>530.513916</ele>
        <time>2018-08-03T18:30:45Z</time>
      </trkpt>
      <trkpt lat="42.623947" lon="12.036460">
        <ele>522.130737</ele>
        <time>2018-08-03T18:31:01Z</time>
      </trkpt>
      <trkpt lat="42.626603" lon="12.036203">
        <ele>519.486450</ele>
        <time>2018-08-03T18:31:16Z</time>
      </trkpt>
      <trkpt lat="42.629159" lon="12.036109">
        <ele>526.304443</ele>
        <time>2018-08-03T18:31:31Z</time>
      </trkpt>
      <trkpt lat="42.631639" lon="12.035680">
        <ele>533.565491</ele>
        <time>2018-08-03T18:31:47Z</time>
      </trkpt>
      <trkpt lat="42.634546" lon="12.036520">
        <ele>537.310181</ele>
        <time>2018-08-03T18:32:03Z</time>
      </trkpt>
      <trkpt lat="42.637454" lon="12.036191">
        <ele>547.397583</ele>
        <time>2018-08-03T18:32:18Z</time>
      </trkpt>
      <trkpt lat="42.640392" lon="12.035980">
        <ele>556.953003</ele>
        <time>2018-08-03T18:32:33Z</time>
      </trkpt>
      <trkpt lat="42.643001" lon="12.034303">
        <ele>567.508667</ele>
        <time>2018-08-03T18:32:49Z</time>
      </trkpt>
      <trkpt lat="42.645609" lon="12.033203">
        <ele>568.998108</ele>
        <time>2018-08-03T18:33:04Z</time>
      </trkpt>
      <trkpt lat="42.648511" lon="12.031173">
        <ele>559.425842</ele>
        <time>2018-08-03T18:33:20Z</time>
      </trkpt>
      <trkpt lat="42.651822" lon="12.030949">
        <ele>558.915833</ele>
        <time>2018-08-03T18:33:36Z</time>
      </trkpt>
      <trkpt lat="42.655089" lon="12.031559">
        <ele>550.072388</ele>
        <time>2018-08-03T18:33:51Z</time>
      </trkpt>
      <trkpt lat="42.658865" lon="12.031678">
        <ele>540.604919</ele>
        <time>2018-08-03T18:34:07Z</time>
      </trkpt>
      <trkpt lat="42.662138" lon="12.031673">
        <ele>543.153076</ele>
        <time>2018-08-03T18:34:22Z</time>
      </trkpt>
      <trkpt lat="42.665563" lon="12.032289">
        <ele>530.314575</ele>
        <time>2018-08-03T18:34:38Z</time>
      </trkpt>
      <trkpt lat="42.668985" lon="12.032743">
        <ele>546.815430</ele>
        <time>2018-08-03T18:34:54Z</time>
      </trkpt>
      <trkpt lat="42.672101" lon="12.031748">
        <ele>559.145203</ele>
        <time>2018-08-03T18:35:10Z</time>
      </trkpt>
      <trkpt lat="42.675522" lon="12.031876">
        <ele>572.059814</ele>
        <time>2018-08-03T18:35:26Z</time>
      </trkpt>
      <trkpt lat="42.678524" lon="12.032990">
        <ele>568.323486</ele>
        <time>2018-08-03T18:35:41Z</time>
      </trkpt>
      <trkpt lat="42.678768" lon="12.036884">
        <ele>559.538574</ele>
        <time>2018-08-03T18:35:56Z</time>
      </trkpt>
      <trkpt lat="42.679226" lon="12.041229">
        <ele>550.491211</ele>
        <time>2018-08-03T18:36:12Z</time>
      </trkpt>
      <trkpt lat="42.680958" lon="12.044887">
        <ele>539.802551</ele>
        <time>2018-08-03T18:36:28Z</time>
      </trkpt>
      <trkpt lat="42.683125" lon="12.047658">
        <ele>534.667419</ele>
        <time>2018-08-03T18:36:43Z</time>
      </trkpt>
      <trkpt lat="42.684796" lon="12.050800">
        <ele>528.763977</ele>
        <time>2018-08-03T18:36:59Z</time>
      </trkpt>
      <trkpt lat="42.685232" lon="12.053512">
        <ele>519.740112</ele>
        <time>2018-08-03T18:37:14Z</time>
      </trkpt>
      <trkpt lat="42.686358" lon="12.055887">
        <ele>515.904419</ele>
        <time>2018-08-03T18:37:30Z</time>
      </trkpt>
      <trkpt lat="42.687431" lon="12.057910">
        <ele>513.628113</ele>
        <time>2018-08-03T18:37:45Z</time>
      </trkpt>
      <trkpt lat="42.688706" lon="12.059943">
        <ele>508.646942</ele>
        <time>2018-08-03T18:38:01Z</time>
      </trkpt>
      <trkpt lat="42.690075" lon="12.062386">
        <ele>499.439850</ele>
        <time>2018-08-03T18:38:16Z</time>
      </trkpt>
      <trkpt lat="42.692248" lon="12.064142">
        <ele>491.700714</ele>
        <time>2018-08-03T18:38:32Z</time>
      </trkpt>
      <trkpt lat="42.694523" lon="12.065124">
        <ele>485.337646</ele>
        <time>2018-08-03T18:38:47Z</time>
      </trkpt>
      <trkpt lat="42.695774" lon="12.067137">
        <ele>481.031128</ele>
        <time>2018-08-03T18:39:02Z</time>
      </trkpt>
      <trkpt lat="42.697084" lon="12.069094">
        <ele>474.672852</ele>
        <time>2018-08-03T18:39:17Z</time>
      </trkpt>
      <trkpt lat="42.699024" lon="12.070395">
        <ele>463.647278</ele>
        <time>2018-08-03T18:39:32Z</time>
      </trkpt>
      <trkpt lat="42.700242" lon="12.072265">
        <ele>459.201721</ele>
        <time>2018-08-03T18:39:47Z</time>
      </trkpt>
      <trkpt lat="42.700809" lon="12.075091">
        <ele>442.975983</ele>
        <time>2018-08-03T18:40:02Z</time>
      </trkpt>
      <trkpt lat="42.701455" lon="12.078294">
        <ele>422.376343</ele>
        <time>2018-08-03T18:40:17Z</time>
      </trkpt>
      <trkpt lat="42.702276" lon="12.080838">
        <ele>409.262421</ele>
        <time>2018-08-03T18:40:33Z</time>
      </trkpt>
      <trkpt lat="42.703991" lon="12.081572">
        <ele>392.695862</ele>
        <time>2018-08-03T18:40:48Z</time>
      </trkpt>
      <trkpt lat="42.705753" lon="12.080330">
        <ele>381.985138</ele>
        <time>2018-08-03T18:41:03Z</time>
      </trkpt>
      <trkpt lat="42.707013" lon="12.078438">
        <ele>379.864319</ele>
        <time>2018-08-03T18:41:19Z</time>
      </trkpt>
      <trkpt lat="42.708521" lon="12.078149">
        <ele>362.467987</ele>
        <time>2018-08-03T18:41:34Z</time>
      </trkpt>
      <trkpt lat="42.709939" lon="12.077338">
        <ele>353.005585</ele>
        <time>2018-08-03T18:41:50Z</time>
      </trkpt>
      <trkpt lat="42.709996" lon="12.077951">
        <ele>345.658020</ele>
        <time>2018-08-03T18:42:06Z</time>
      </trkpt>
      <trkpt lat="42.708664" lon="12.079298">
        <ele>340.934113</ele>
        <time>2018-08-03T18:42:22Z</time>
      </trkpt>
      <trkpt lat="42.709751" lon="12.079531">
        <ele>327.687683</ele>
        <time>2018-08-03T18:42:37Z</time>
      </trkpt>
      <trkpt lat="42.710984" lon="12.080012">
        <ele>318.718414</ele>
        <time>2018-08-03T18:42:52Z</time>
      </trkpt>
      <trkpt lat="42.710105" lon="12.080646">
        <ele>311.741730</ele>
        <time>2018-08-03T18:43:08Z</time>
      </trkpt>
      <trkpt lat="42.710120" lon="12.081686">
        <ele>301.129333</ele>
        <time>2018-08-03T18:43:23Z</time>
      </trkpt>
      <trkpt lat="42.711713" lon="12.082189">
        <ele>293.210052</ele>
        <time>2018-08-03T18:43:38Z</time>
      </trkpt>
      <trkpt lat="42.713226" lon="12.081015">
        <ele>281.597351</ele>
        <time>2018-08-03T18:43:54Z</time>
      </trkpt>
      <trkpt lat="42.713370" lon="12.081310">
        <ele>275.305542</ele>
        <time>2018-08-03T18:44:09Z</time>
      </trkpt>
      <trkpt lat="42.712467" lon="12.083308">
        <ele>271.525970</ele>
        <time>2018-08-03T18:44:25Z</time>
      </trkpt>
      <trkpt lat="42.714122" lon="12.082006">
        <ele>259.033142</ele>
        <time>2018-08-03T18:44:41Z</time>
      </trkpt>
      <trkpt lat="42.715057" lon="12.080615">
        <ele>245.305496</ele>
        <time>2018-08-03T18:44:57Z</time>
      </trkpt>
      <trkpt lat="42.715117" lon="12.082716">
        <ele>241.181946</ele>
        <time>2018-08-03T18:45:12Z</time>
      </trkpt>
      <trkpt lat="42.714544" lon="12.084905">
        <ele>233.919037</ele>
        <time>2018-08-03T18:45:27Z</time>
      </trkpt>
      <trkpt lat="42.714814" lon="12.087377">
        <ele>220.500183</ele>
        <time>2018-08-03T18:45:43Z</time>
      </trkpt>
      <trkpt lat="42.715382" lon="12.089732">
        <ele>209.157806</ele>
        <time>2018-08-03T18:45:58Z</time>
      </trkpt>
      <trkpt lat="42.714216" lon="12.091632">
        <ele>199.159180</ele>
        <time>2018-08-03T18:46:13Z</time>
      </trkpt>
      <trkpt lat="42.713774" lon="12.093357">
        <ele>190.246399</ele>
        <time>2018-08-03T18:46:28Z</time>
      </trkpt>
      <trkpt lat="42.714707" lon="12.095593">
        <ele>189.736725</ele>
        <time>2018-08-03T18:46:43Z</time>
      </trkpt>
      <trkpt lat="42.716125" lon="12.096835">
        <ele>200.633972</ele>
        <time>2018-08-03T18:46:59Z</time>
      </trkpt>
      <trkpt lat="42.716679" lon="12.098431">
        <ele>206.134583</ele>
        <time>2018-08-03T18:47:14Z</time>
      </trkpt>
      <trkpt lat="42.717240" lon="12.099271">
        <ele>212.730499</ele>
        <time>2018-08-03T18:47:29Z</time>
      </trkpt>
      <trkpt lat="42.718870" lon="12.097397">
        <ele>201.363586</ele>
        <time>2018-08-03T18:47:45Z</time>
      </trkpt>
      <trkpt lat="42.720816" lon="12.096164">
        <ele>188.977356</ele>
        <time>2018-08-03T18:48:01Z</time>
      </trkpt>
      <trkpt lat="42.722834" lon="12.096629">
        <ele>172.624313</ele>
        <time>2018-08-03T18:48:16Z</time>
      </trkpt>
      <trkpt lat="42.724394" lon="12.096976">
        <ele>160.140320</ele>
        <time>2018-08-03T18:48:31Z</time>
      </trkpt>
      <trkpt lat="42.725401" lon="12.095641">
        <ele>151.028931</ele>
        <time>2018-08-03T18:48:47Z</time>
      </trkpt>
      <trkpt lat="42.726706" lon="12.094060">
        <ele>146.208267</ele>
        <time>2018-08-03T18:49:03Z</time>
      </trkpt>
      <trkpt lat="42.726494" lon="12.094194">
        <ele>147.025085</ele>
        <time>2018-08-03T18:49:18Z</time>
      </trkpt>
      <trkpt lat="42.725734" lon="12.094380">
        <ele>150.519028</ele>
        <time>2018-08-03T18:49:34Z</time>
      </trkpt>
      <trkpt lat="42.725352" lon="12.094174">
        <ele>150.987213</ele>
        <time>2018-08-03T18:49:49Z</time>
      </trkpt>
      <trkpt lat="42.725203" lon="12.094177">
        <ele>150.984314</ele>
        <time>2018-08-03T18:51:12Z</time>
      </trkpt>
      <trkpt lat="42.724689" lon="12.093873">
        <ele>152.188004</ele>
        <time>2018-08-03T18:51:27Z</time>
      </trkpt>
      <trkpt lat="42.724658" lon="12.093618">
        <ele>152.597198</ele>
        <time>2018-08-03T18:51:42Z</time>
      </trkpt>
      <trkpt lat="42.724653" lon="12.092654">
        <ele>157.412933</ele>
        <time>2018-08-03T18:51:57Z</time>
      </trkpt>
      <trkpt lat="42.724874" lon="12.092070">
        <ele>161.684464</ele>
        <time>2018-08-03T18:52:13Z</time>
      </trkpt>
      <trkpt lat="42.724957" lon="12.091812">
        <ele>163.786392</ele>
        <time>2018-08-03T18:52:33Z</time>
      </trkpt>
      <trkpt lat="42.724841" lon="12.091927">
        <ele>162.875641</ele>
        <time>2018-08-03T19:00:15Z</time>
      </trkpt>
      <trkpt lat="42.724664" lon="12.091936">
        <ele>162.871155</ele>
        <time>2018-08-03T19:00:30Z</time>
      </trkpt>
      <trkpt lat="42.724748" lon="12.092110">
        <ele>161.437607</ele>
        <time>2018-08-03T19:01:06Z</time>
      </trkpt>
      <trkpt lat="42.724698" lon="12.092431">
        <ele>158.909164</ele>
        <time>2018-08-03T19:01:21Z</time>
      </trkpt>
      <trkpt lat="42.724834" lon="12.092333">
        <ele>159.563934</ele>
        <time>2018-08-03T19:02:35Z</time>
      </trkpt>
      <trkpt lat="42.724501" lon="12.092147">
        <ele>161.308899</ele>
        <time>2018-08-03T19:03:57Z</time>
      </trkpt>
      <trkpt lat="42.724399" lon="12.092014">
        <ele>162.380890</ele>
        <time>2018-08-03T19:04:12Z</time>
      </trkpt>
      <trkpt lat="42.724258" lon="12.091585">
        <ele>165.248062</ele>
        <time>2018-08-03T19:04:28Z</time>
      </trkpt>
      <trkpt lat="42.72451" lon="12.09277">
        <ele>0.0</ele>
      </trkpt>
      <trkpt lat="42.72454" lon="12.09283">
        <ele>0.0</ele>
      </trkpt>
      <trkpt lat="42.72459" lon="12.09329">
        <ele>0.0</ele>
      </trkpt>
      <trkpt lat="42.72459" lon="12.09351">
        <ele>0.0</ele>
      </trkpt>
      <trkpt lat="42.72455" lon="12.09383">
        <ele>0.0</ele>
      </trkpt>
      <trkpt lat="42.72462" lon="12.09387">
        <ele>0.0</ele>
      </trkpt>
      <trkpt lat="42.72579" lon="12.09436">
        <ele>0.0</ele>
      </trkpt>
      <trkpt lat="42.7259" lon="12.09439">
        <ele>0.0</ele>
      </trkpt>
      <trkpt lat="42.72602" lon="12.09438">
        <ele>0.0</ele>
      </trkpt>
      <trkpt lat="42.72644" lon="12.09416">
        <ele>0.0</ele>
      </trkpt>
      <trkpt lat="42.72655" lon="12.09413">
        <ele>0.0</ele>
      </trkpt>
      <trkpt lat="42.72666" lon="12.09413">
        <ele>0.0</ele>
      </trkpt>
      <trkpt lat="42.72676" lon="12.09394">
        <ele>0.0</ele>
      </trkpt>
      <trkpt lat="42.7269" lon="12.09411">
        <ele>0.0</ele>
      </trkpt>
      <trkpt lat="42.72765" lon="12.09348">
        <ele>0.0</ele>
      </trkpt>
      <trkpt lat="42.72884" lon="12.09237">
        <ele>0.0</ele>
      </trkpt>
      <trkpt lat="42.72916" lon="12.09211">
        <ele>0.0</ele>
      </trkpt>
      <trkpt lat="42.72968" lon="12.09181">
        <ele>0.0</ele>
      </trkpt>
      <trkpt lat="42.73" lon="12.09158">
        <ele>0.0</ele>
      </trkpt>
      <trkpt lat="42.73031" lon="12.09124">
        <ele>0.0</ele>
      </trkpt>
      <trkpt lat="42.73186" lon="12.08916">
        <ele>0.0</ele>
      </trkpt>
      <trkpt lat="42.73283" lon="12.08771">
        <ele>0.0</ele>
      </trkpt>
      <trkpt lat="42.73361" lon="12.08591">
        <ele>0.0</ele>
      </trkpt>
      <trkpt lat="42.7338" lon="12.08524">
        <ele>0.0</ele>
      </trkpt>
      <trkpt lat="42.734" lon="12.08422">
        <ele>0.0</ele>
      </trkpt>
      <trkpt lat="42.73408" lon="12.08392">
        <ele>0.0</ele>
      </trkpt>
      <trkpt lat="42.73433" lon="12.08336">
        <ele>0.0</ele>
      </trkpt>
      <trkpt lat="42.73538" lon="12.08134">
        <ele>0.0</ele>
      </trkpt>
      <trkpt lat="42.7364" lon="12.07955">
        <ele>0.0</ele>
      </trkpt>
      <trkpt lat="42.73687" lon="12.07856">
        <ele>0.0</ele>
      </trkpt>
      <trkpt lat="42.73718" lon="12.07802">
        <ele>0.0</ele>
      </trkpt>
      <trkpt lat="42.7373" lon="12.07786">
        <ele>0.0</ele>
      </trkpt>
      <trkpt lat="42.73826" lon="12.07692">
        <ele>0.0</ele>
      </trkpt>
      <trkpt lat="42.73877" lon="12.07647">
        <ele>0.0</ele>
      </trkpt>
      <trkpt lat="42.73954" lon="12.07586">
        <ele>0.0</ele>
      </trkpt>
      <trkpt lat="42.73986" lon="12.07555">
        <ele>0.0</ele>
      </trkpt>
      <trkpt lat="42.73988" lon="12.07554">
        <ele>0.0</ele>
      </trkpt>
      <trkpt lat="42.74036" lon="12.07505">
        <ele>0.0</ele>
      </trkpt>
      <trkpt lat="42.74184" lon="12.07346">
        <ele>0.0</ele>
      </trkpt>
      <trkpt lat="42.74329" lon="12.0724">
        <ele>0.0</ele>
      </trkpt>
      <trkpt lat="42.74346" lon="12.0723">
        <ele>0.0</ele>
      </trkpt>
      <trkpt lat="42.74352" lon="12.07225">
        <ele>0.0</ele>
      </trkpt>
      <trkpt lat="42.7442" lon="12.07183">
        <ele>0.0</ele>
      </trkpt>
      <trkpt lat="42.7442" lon="12.07182">
        <ele>0.0</ele>
      </trkpt>
      <trkpt lat="42.74496" lon="12.0714">
        <ele>0.0</ele>
      </trkpt>
      <trkpt lat="42.74558" lon="12.07119">
        <ele>0.0</ele>
      </trkpt>
      <trkpt lat="42.74559" lon="12.07118">
        <ele>0.0</ele>
      </trkpt>
      <trkpt lat="42.74629" lon="12.07094">
        <ele>0.0</ele>
      </trkpt>
      <trkpt lat="42.74744" lon="12.07039">
        <ele>0.0</ele>
      </trkpt>
      <trkpt lat="42.74767" lon="12.07026">
        <ele>0.0</ele>
      </trkpt>
      <trkpt lat="42.74838" lon="12.06962">
        <ele>0.0</ele>
      </trkpt>
      <trkpt lat="42.74905" lon="12.06908">
        <ele>0.0</ele>
      </trkpt>
      <trkpt lat="42.75045" lon="12.06812">
        <ele>0.0</ele>
      </trkpt>
      <trkpt lat="42.75097" lon="12.06771">
        <ele>0.0</ele>
      </trkpt>
      <trkpt lat="42.7528" lon="12.06643">
        <ele>0.0</ele>
      </trkpt>
      <trkpt lat="42.75324" lon="12.06602">
        <ele>0.0</ele>
      </trkpt>
      <trkpt lat="42.75433" lon="12.06462">
        <ele>0.0</ele>
      </trkpt>
      <trkpt lat="42.75519" lon="12.0636">
        <ele>0.0</ele>
      </trkpt>
      <trkpt lat="42.75773" lon="12.06037">
        <ele>0.0</ele>
      </trkpt>
      <trkpt lat="42.75775" lon="12.06036">
        <ele>0.0</ele>
      </trkpt>
      <trkpt lat="42.75796" lon="12.06001">
        <ele>0.0</ele>
      </trkpt>
      <trkpt lat="42.75967" lon="12.05649">
        <ele>0.0</ele>
      </trkpt>
      <trkpt lat="42.76077" lon="12.05454">
        <ele>0.0</ele>
      </trkpt>
      <trkpt lat="42.7617" lon="12.05305">
        <ele>0.0</ele>
      </trkpt>
      <trkpt lat="42.76254" lon="12.05184">
        <ele>0.0</ele>
      </trkpt>
      <trkpt lat="42.76365" lon="12.05038">
        <ele>0.0</ele>
      </trkpt>
      <trkpt lat="42.76407" lon="12.04966">
        <ele>0.0</ele>
      </trkpt>
      <trkpt lat="42.76421" lon="12.04926">
        <ele>0.0</ele>
      </trkpt>
      <trkpt lat="42.76616" lon="12.04146">
        <ele>0.0</ele>
      </trkpt>
      <trkpt lat="42.76745" lon="12.03701">
        <ele>0.0</ele>
      </trkpt>
      <trkpt lat="42.768" lon="12.03554">
        <ele>0.0</ele>
      </trkpt>
      <trkpt lat="42.76817" lon="12.03516">
        <ele>0.0</ele>
      </trkpt>
      <trkpt lat="42.76834" lon="12.03522">
        <ele>0.0</ele>
      </trkpt>
      <trkpt lat="42.76842" lon="12.0352">
        <ele>0.0</ele>
      </trkpt>
      <trkpt lat="42.76896" lon="12.03466">
        <ele>0.0</ele>
      </trkpt>
      <trkpt lat="42.76988" lon="12.03407">
        <ele>0.0</ele>
      </trkpt>
      <trkpt lat="42.77066" lon="12.03395">
        <ele>0.0</ele>
      </trkpt>
      <trkpt lat="42.77095" lon="12.03394">
        <ele>0.0</ele>
      </trkpt>
      <trkpt lat="42.77126" lon="12.03398">
        <ele>0.0</ele>
      </trkpt>
      <trkpt lat="42.77301" lon="12.03443">
        <ele>0.0</ele>
      </trkpt>
      <trkpt lat="42.77314" lon="12.03445">
        <ele>0.0</ele>
      </trkpt>
      <trkpt lat="42.77337" lon="12.03445">
        <ele>0.0</ele>
      </trkpt>
      <trkpt lat="42.77366" lon="12.0344">
        <ele>0.0</ele>
      </trkpt>
      <trkpt lat="42.77571" lon="12.03355">
        <ele>0.0</ele>
      </trkpt>
      <trkpt lat="42.7758" lon="12.03354">
        <ele>0.0</ele>
      </trkpt>
      <trkpt lat="42.77612" lon="12.0336">
        <ele>0.0</ele>
      </trkpt>
      <trkpt lat="42.77621" lon="12.03363">
        <ele>0.0</ele>
      </trkpt>
      <trkpt lat="42.77818" lon="12.03482">
        <ele>0.0</ele>
      </trkpt>
      <trkpt lat="42.77828" lon="12.03484">
        <ele>0.0</ele>
      </trkpt>
      <trkpt lat="42.77845" lon="12.03483">
        <ele>0.0</ele>
      </trkpt>
      <trkpt lat="42.77898" lon="12.03451">
        <ele>0.0</ele>
      </trkpt>
      <trkpt lat="42.77902" lon="12.0345">
        <ele>0.0</ele>
      </trkpt>
      <trkpt lat="42.77913" lon="12.0345">
        <ele>0.0</ele>
      </trkpt>
      <trkpt lat="42.7792" lon="12.03452">
        <ele>0.0</ele>
      </trkpt>
      <trkpt lat="42.78219" lon="12.03636">
        <ele>0.0</ele>
      </trkpt>
      <trkpt lat="42.78249" lon="12.03652">
        <ele>0.0</ele>
      </trkpt>
      <trkpt lat="42.78322" lon="12.03684">
        <ele>0.0</ele>
      </trkpt>
      <trkpt lat="42.78327" lon="12.03657">
        <ele>0.0</ele>
      </trkpt>
      <trkpt lat="42.78335" lon="12.03628">
        <ele>0.0</ele>
      </trkpt>
      <trkpt lat="42.78516" lon="12.03225">
        <ele>0.0</ele>
      </trkpt>
      <trkpt lat="42.78545" lon="12.03174">
        <ele>0.0</ele>
      </trkpt>
      <trkpt lat="42.78569" lon="12.03139">
        <ele>0.0</ele>
      </trkpt>
      <trkpt lat="42.7858" lon="12.03112">
        <ele>0.0</ele>
      </trkpt>
      <trkpt lat="42.78603" lon="12.03033">
        <ele>0.0</ele>
      </trkpt>
      <trkpt lat="42.7861" lon="12.02996">
        <ele>0.0</ele>
      </trkpt>
      <trkpt lat="42.78611" lon="12.02983">
        <ele>0.0</ele>
      </trkpt>
      <trkpt lat="42.78605" lon="12.02947">
        <ele>0.0</ele>
      </trkpt>
      <trkpt lat="42.78598" lon="12.02933">
        <ele>0.0</ele>
      </trkpt>
      <trkpt lat="42.78573" lon="12.02859">
        <ele>0.0</ele>
      </trkpt>
      <trkpt lat="42.7857" lon="12.02844">
        <ele>0.0</ele>
      </trkpt>
      <trkpt lat="42.7857" lon="12.02822">
        <ele>0.0</ele>
      </trkpt>
      <trkpt lat="42.78571" lon="12.02816">
        <ele>0.0</ele>
      </trkpt>
      <trkpt lat="42.78577" lon="12.028">
        <ele>0.0</ele>
      </trkpt>
      <trkpt lat="42.78585" lon="12.02791">
        <ele>0.0</ele>
      </trkpt>
      <trkpt lat="42.78644" lon="12.02742">
        <ele>0.0</ele>
      </trkpt>
      <trkpt lat="42.78659" lon="12.02721">
        <ele>0.0</ele>
      </trkpt>
      <trkpt lat="42.78683" lon="12.02654">
        <ele>0.0</ele>
      </trkpt>
      <trkpt lat="42.78712" lon="12.02609">
        <ele>0.0</ele>
      </trkpt>
      <trkpt lat="42.78724" lon="12.02598">
        <ele>0.0</ele>
      </trkpt>
      <trkpt lat="42.78736" lon="12.02593">
        <ele>0.0</ele>
      </trkpt>
      <trkpt lat="42.78748" lon="12.0259">
        <ele>0.0</ele>
      </trkpt>
      <trkpt lat="42.78757" lon="12.02591">
        <ele>0.0</ele>
      </trkpt>
      <trkpt lat="42.7877" lon="12.02595">
        <ele>0.0</ele>
      </trkpt>
      <trkpt lat="42.78785" lon="12.02597">
        <ele>0.0</ele>
      </trkpt>
      <trkpt lat="42.78792" lon="12.02599">
        <ele>0.0</ele>
      </trkpt>
      <trkpt lat="42.78797" lon="12.02598">
        <ele>0.0</ele>
      </trkpt>
      <trkpt lat="42.7881" lon="12.02591">
        <ele>0.0</ele>
      </trkpt>
      <trkpt lat="42.78819" lon="12.0258">
        <ele>0.0</ele>
      </trkpt>
      <trkpt lat="42.78838" lon="12.02546">
        <ele>0.0</ele>
      </trkpt>
      <trkpt lat="42.78846" lon="12.02526">
        <ele>0.0</ele>
      </trkpt>
      <trkpt lat="42.78856" lon="12.02486">
        <ele>0.0</ele>
      </trkpt>
      <trkpt lat="42.78875" lon="12.02379">
        <ele>0.0</ele>
      </trkpt>
      <trkpt lat="42.78893" lon="12.02347">
        <ele>0.0</ele>
      </trkpt>
      <trkpt lat="42.78938" lon="12.02303">
        <ele>0.0</ele>
      </trkpt>
      <trkpt lat="42.78956" lon="12.02277">
        <ele>0.0</ele>
      </trkpt>
      <trkpt lat="42.78963" lon="12.02255">
        <ele>0.0</ele>
      </trkpt>
      <trkpt lat="42.78961" lon="12.022">
        <ele>0.0</ele>
      </trkpt>
      <trkpt lat="42.78947" lon="12.02072">
        <ele>0.0</ele>
      </trkpt>
      <trkpt lat="42.78939" lon="12.02046">
        <ele>0.0</ele>
      </trkpt>
      <trkpt lat="42.78885" lon="12.01959">
        <ele>0.0</ele>
      </trkpt>
      <trkpt lat="42.78869" lon="12.01927">
        <ele>0.0</ele>
      </trkpt>
      <trkpt lat="42.78864" lon="12.01912">
        <ele>0.0</ele>
      </trkpt>
      <trkpt lat="42.78856" lon="12.01759">
        <ele>0.0</ele>
      </trkpt>
      <trkpt lat="42.78861" lon="12.01734">
        <ele>0.0</ele>
      </trkpt>
      <trkpt lat="42.78868" lon="12.01722">
        <ele>0.0</ele>
      </trkpt>
      <trkpt lat="42.78876" lon="12.01712">
        <ele>0.0</ele>
      </trkpt>
      <trkpt lat="42.78881" lon="12.01708">
        <ele>0.0</ele>
      </trkpt>
      <trkpt lat="42.78902" lon="12.01701">
        <ele>0.0</ele>
      </trkpt>
      <trkpt lat="42.7893" lon="12.01702">
        <ele>0.0</ele>
      </trkpt>
      <trkpt lat="42.78975" lon="12.01708">
        <ele>0.0</ele>
      </trkpt>
      <trkpt lat="42.78999" lon="12.01705">
        <ele>0.0</ele>
      </trkpt>
      <trkpt lat="42.7902" lon="12.01693">
        <ele>0.0</ele>
      </trkpt>
      <trkpt lat="42.7909" lon="12.01639">
        <ele>0.0</ele>
      </trkpt>
      <trkpt lat="42.79138" lon="12.01597">
        <ele>0.0</ele>
      </trkpt>
      <trkpt lat="42.79306" lon="12.01431">
        <ele>0.0</ele>
      </trkpt>
      <trkpt lat="42.79335" lon="12.01393">
        <ele>0.0</ele>
      </trkpt>
      <trkpt lat="42.7936" lon="12.01345">
        <ele>0.0</ele>
      </trkpt>
      <trkpt lat="42.79387" lon="12.01246">
        <ele>0.0</ele>
      </trkpt>
      <trkpt lat="42.7939" lon="12.01205">
        <ele>0.0</ele>
      </trkpt>
      <trkpt lat="42.79386" lon="12.01179">
        <ele>0.0</ele>
      </trkpt>
      <trkpt lat="42.79369" lon="12.01114">
        <ele>0.0</ele>
      </trkpt>
      <trkpt lat="42.79369" lon="12.01108">
        <ele>0.0</ele>
      </trkpt>
      <trkpt lat="42.79368" lon="12.01103">
        <ele>0.0</ele>
      </trkpt>
      <trkpt lat="42.7937" lon="12.0109">
        <ele>0.0</ele>
      </trkpt>
      <trkpt lat="42.79378" lon="12.01074">
        <ele>0.0</ele>
      </trkpt>
      <trkpt lat="42.79386" lon="12.01067">
        <ele>0.0</ele>
      </trkpt>
      <trkpt lat="42.79405" lon="12.01058">
        <ele>0.0</ele>
      </trkpt>
      <trkpt lat="42.79461" lon="12.01046">
        <ele>0.0</ele>
      </trkpt>
      <trkpt lat="42.79489" lon="12.01032">
        <ele>0.0</ele>
      </trkpt>
      <trkpt lat="42.79499" lon="12.0102">
        <ele>0.0</ele>
      </trkpt>
      <trkpt lat="42.79541" lon="12.00954">
        <ele>0.0</ele>
      </trkpt>
      <trkpt lat="42.79558" lon="12.00931">
        <ele>0.0</ele>
      </trkpt>
      <trkpt lat="42.79571" lon="12.0092">
        <ele>0.0</ele>
      </trkpt>
      <trkpt lat="42.79587" lon="12.00911">
        <ele>0.0</ele>
      </trkpt>
      <trkpt lat="42.79639" lon="12.00868">
        <ele>0.0</ele>
      </trkpt>
      <trkpt lat="42.79646" lon="12.0086">
        <ele>0.0</ele>
      </trkpt>
      <trkpt lat="42.79655" lon="12.00843">
        <ele>0.0</ele>
      </trkpt>
      <trkpt lat="42.79663" lon="12.00821">
        <ele>0.0</ele>
      </trkpt>
      <trkpt lat="42.79669" lon="12.00797">
        <ele>0.0</ele>
      </trkpt>
      <trkpt lat="42.79672" lon="12.00765">
        <ele>0.0</ele>
      </trkpt>
      <trkpt lat="42.7967" lon="12.00622">
        <ele>0.0</ele>
      </trkpt>
      <trkpt lat="42.79667" lon="12.00592">
        <ele>0.0</ele>
      </trkpt>
      <trkpt lat="42.79667" lon="12.00254">
        <ele>0.0</ele>
      </trkpt>
      <trkpt lat="42.79671" lon="12.00151">
        <ele>0.0</ele>
      </trkpt>
      <trkpt lat="42.7969" lon="11.99977">
        <ele>0.0</ele>
      </trkpt>
      <trkpt lat="42.79701" lon="11.99912">
        <ele>0.0</ele>
      </trkpt>
      <trkpt lat="42.79709" lon="11.99879">
        <ele>0.0</ele>
      </trkpt>
      <trkpt lat="42.79721" lon="11.99852">
        <ele>0.0</ele>
      </trkpt>
      <trkpt lat="42.79729" lon="11.99839">
        <ele>0.0</ele>
      </trkpt>
      <trkpt lat="42.79745" lon="11.99819">
        <ele>0.0</ele>
      </trkpt>
      <trkpt lat="42.79794" lon="11.99776">
        <ele>0.0</ele>
      </trkpt>
      <trkpt lat="42.79926" lon="11.99678">
        <ele>0.0</ele>
      </trkpt>
      <trkpt lat="42.7995" lon="11.99664">
        <ele>0.0</ele>
      </trkpt>
      <trkpt lat="42.80013" lon="11.99639">
        <ele>0.0</ele>
      </trkpt>
      <trkpt lat="42.80028" lon="11.9963">
        <ele>0.0</ele>
      </trkpt>
      <trkpt lat="42.80045" lon="11.99616">
        <ele>0.0</ele>
      </trkpt>
      <trkpt lat="42.80074" lon="11.99586">
        <ele>0.0</ele>
      </trkpt>
      <trkpt lat="42.80112" lon="11.9954">
        <ele>0.0</ele>
      </trkpt>
      <trkpt lat="42.80138" lon="11.99514">
        <ele>0.0</ele>
      </trkpt>
      <trkpt lat="42.80185" lon="11.99453">
        <ele>0.0</ele>
      </trkpt>
      <trkpt lat="42.80215" lon="11.99409">
        <ele>0.0</ele>
      </trkpt>
      <trkpt lat="42.80374" lon="11.9913">
        <ele>0.0</ele>
      </trkpt>
      <trkpt lat="42.80388" lon="11.99113">
        <ele>0.0</ele>
      </trkpt>
      <trkpt lat="42.80403" lon="11.99101">
        <ele>0.0</ele>
      </trkpt>
      <trkpt lat="42.80424" lon="11.9909">
        <ele>0.0</ele>
      </trkpt>
      <trkpt lat="42.80453" lon="11.99087">
        <ele>0.0</ele>
      </trkpt>
      <trkpt lat="42.80469" lon="11.99089">
        <ele>0.0</ele>
      </trkpt>
      <trkpt lat="42.80505" lon="11.991">
        <ele>0.0</ele>
      </trkpt>
      <trkpt lat="42.80527" lon="11.99103">
        <ele>0.0</ele>
      </trkpt>
      <trkpt lat="42.80541" lon="11.991">
        <ele>0.0</ele>
      </trkpt>
      <trkpt lat="42.8055" lon="11.99095">
        <ele>0.0</ele>
      </trkpt>
      <trkpt lat="42.80565" lon="11.9908">
        <ele>0.0</ele>
      </trkpt>
      <trkpt lat="42.80575" lon="11.99064">
        <ele>0.0</ele>
      </trkpt>
      <trkpt lat="42.80583" lon="11.9904">
        <ele>0.0</ele>
      </trkpt>
      <trkpt lat="42.8067" lon="11.98645">
        <ele>0.0</ele>
      </trkpt>
      <trkpt lat="42.80685" lon="11.98472">
        <ele>0.0</ele>
      </trkpt>
      <trkpt lat="42.80682" lon="11.98426">
        <ele>0.0</ele>
      </trkpt>
      <trkpt lat="42.80677" lon="11.98406">
        <ele>0.0</ele>
      </trkpt>
      <trkpt lat="42.80677" lon="11.98404">
        <ele>0.0</ele>
      </trkpt>
      <trkpt lat="42.80643" lon="11.98315">
        <ele>0.0</ele>
      </trkpt>
      <trkpt lat="42.80638" lon="11.98297">
        <ele>0.0</ele>
      </trkpt>
      <trkpt lat="42.80637" lon="11.98274">
        <ele>0.0</ele>
      </trkpt>
      <trkpt lat="42.80638" lon="11.98264">
        <ele>0.0</ele>
      </trkpt>
      <trkpt lat="42.80641" lon="11.98252">
        <ele>0.0</ele>
      </trkpt>
      <trkpt lat="42.80647" lon="11.98242">
        <ele>0.0</ele>
      </trkpt>
      <trkpt lat="42.80659" lon="11.98228">
        <ele>0.0</ele>
      </trkpt>
      <trkpt lat="42.80691" lon="11.98204">
        <ele>0.0</ele>
      </trkpt>
      <trkpt lat="42.80705" lon="11.98197">
        <ele>0.0</ele>
      </trkpt>
      <trkpt lat="42.80728" lon="11.98192">
        <ele>0.0</ele>
      </trkpt>
      <trkpt lat="42.8075" lon="11.98193">
        <ele>0.0</ele>
      </trkpt>
      <trkpt lat="42.80762" lon="11.98192">
        <ele>0.0</ele>
      </trkpt>
      <trkpt lat="42.80775" lon="11.98188">
        <ele>0.0</ele>
      </trkpt>
      <trkpt lat="42.80781" lon="11.98185">
        <ele>0.0</ele>
      </trkpt>
      <trkpt lat="42.80794" lon="11.98175">
        <ele>0.0</ele>
      </trkpt>
      <trkpt lat="42.80806" lon="11.98162">
        <ele>0.0</ele>
      </trkpt>
      <trkpt lat="42.80815" lon="11.98148">
        <ele>0.0</ele>
      </trkpt>
      <trkpt lat="42.80822" lon="11.98131">
        <ele>0.0</ele>
      </trkpt>
      <trkpt lat="42.80856" lon="11.98022">
        <ele>0.0</ele>
      </trkpt>
      <trkpt lat="42.80862" lon="11.97996">
        <ele>0.0</ele>
      </trkpt>
      <trkpt lat="42.8087" lon="11.97935">
        <ele>0.0</ele>
      </trkpt>
      <trkpt lat="42.80876" lon="11.97918">
        <ele>0.0</ele>
      </trkpt>
      <trkpt lat="42.80882" lon="11.97892">
        <ele>0.0</ele>
      </trkpt>
      <trkpt lat="42.80884" lon="11.97839">
        <ele>0.0</ele>
      </trkpt>
      <trkpt lat="42.80889" lon="11.97791">
        <ele>0.0</ele>
      </trkpt>
      <trkpt lat="42.80891" lon="11.97783">
        <ele>0.0</ele>
      </trkpt>
      <trkpt lat="42.80899" lon="11.97768">
        <ele>0.0</ele>
      </trkpt>
      <trkpt lat="42.80913" lon="11.97757">
        <ele>0.0</ele>
      </trkpt>
      <trkpt lat="42.80936" lon="11.97748">
        <ele>0.0</ele>
      </trkpt>
      <trkpt lat="42.80942" lon="11.97744">
        <ele>0.0</ele>
      </trkpt>
      <trkpt lat="42.80948" lon="11.97738">
        <ele>0.0</ele>
      </trkpt>
      <trkpt lat="42.80954" lon="11.97729">
        <ele>0.0</ele>
      </trkpt>
      <trkpt lat="42.80971" lon="11.97696">
        <ele>0.0</ele>
      </trkpt>
      <trkpt lat="42.80983" lon="11.97682">
        <ele>0.0</ele>
      </trkpt>
      <trkpt lat="42.81028" lon="11.97653">
        <ele>0.0</ele>
      </trkpt>
      <trkpt lat="42.81031" lon="11.97649">
        <ele>0.0</ele>
      </trkpt>
      <trkpt lat="42.81036" lon="11.97637">
        <ele>0.0</ele>
      </trkpt>
      <trkpt lat="42.81043" lon="11.97598">
        <ele>0.0</ele>
      </trkpt>
      <trkpt lat="42.81047" lon="11.97467">
        <ele>0.0</ele>
      </trkpt>
      <trkpt lat="42.81051" lon="11.97453">
        <ele>0.0</ele>
      </trkpt>
      <trkpt lat="42.81058" lon="11.97436">
        <ele>0.0</ele>
      </trkpt>
      <trkpt lat="42.81073" lon="11.97409">
        <ele>0.0</ele>
      </trkpt>
      <trkpt lat="42.81077" lon="11.97405">
        <ele>0.0</ele>
      </trkpt>
      <trkpt lat="42.81095" lon="11.97399">
        <ele>0.0</ele>
      </trkpt>
      <trkpt lat="42.81175" lon="11.9739">
        <ele>0.0</ele>
      </trkpt>
      <trkpt lat="42.81203" lon="11.97376">
        <ele>0.0</ele>
      </trkpt>
      <trkpt lat="42.81309" lon="11.97244">
        <ele>0.0</ele>
      </trkpt>
      <trkpt lat="42.81338" lon="11.9722">
        <ele>0.0</ele>
      </trkpt>
      <trkpt lat="42.81349" lon="11.97208">
        <ele>0.0</ele>
      </trkpt>
      <trkpt lat="42.81351" lon="11.97203">
        <ele>0.0</ele>
      </trkpt>
      <trkpt lat="42.81352" lon="11.97197">
        <ele>0.0</ele>
      </trkpt>
      <trkpt lat="42.81348" lon="11.97189">
        <ele>0.0</ele>
      </trkpt>
      <trkpt lat="42.81298" lon="11.97136">
        <ele>0.0</ele>
      </trkpt>
      <trkpt lat="42.81291" lon="11.97117">
        <ele>0.0</ele>
      </trkpt>
      <trkpt lat="42.8129" lon="11.97095">
        <ele>0.0</ele>
      </trkpt>
      <trkpt lat="42.81302" lon="11.9704">
        <ele>0.0</ele>
      </trkpt>
      <trkpt lat="42.81302" lon="11.97023">
        <ele>0.0</ele>
      </trkpt>
      <trkpt lat="42.81297" lon="11.97012">
        <ele>0.0</ele>
      </trkpt>
      <trkpt lat="42.81262" lon="11.9696">
        <ele>0.0</ele>
      </trkpt>
      <trkpt lat="42.81259" lon="11.96953">
        <ele>0.0</ele>
      </trkpt>
      <trkpt lat="42.81256" lon="11.96938">
        <ele>0.0</ele>
      </trkpt>
      <trkpt lat="42.81255" lon="11.96697">
        <ele>0.0</ele>
      </trkpt>
      <trkpt lat="42.8124" lon="11.96534">
        <ele>0.0</ele>
      </trkpt>
      <trkpt lat="42.81241" lon="11.96516">
        <ele>0.0</ele>
      </trkpt>
      <trkpt lat="42.81243" lon="11.96506">
        <ele>0.0</ele>
      </trkpt>
      <trkpt lat="42.8125" lon="11.96493">
        <ele>0.0</ele>
      </trkpt>
      <trkpt lat="42.81283" lon="11.96448">
        <ele>0.0</ele>
      </trkpt>
      <trkpt lat="42.81328" lon="11.96346">
        <ele>0.0</ele>
      </trkpt>
      <trkpt lat="42.81334" lon="11.96326">
        <ele>0.0</ele>
      </trkpt>
      <trkpt lat="42.81341" lon="11.96272">
        <ele>0.0</ele>
      </trkpt>
      <trkpt lat="42.8134" lon="11.9626">
        <ele>0.0</ele>
      </trkpt>
      <trkpt lat="42.81335" lon="11.96241">
        <ele>0.0</ele>
      </trkpt>
      <trkpt lat="42.81319" lon="11.962">
        <ele>0.0</ele>
      </trkpt>
      <trkpt lat="42.81295" lon="11.96158">
        <ele>0.0</ele>
      </trkpt>
      <trkpt lat="42.81269" lon="11.96123">
        <ele>0.0</ele>
      </trkpt>
      <trkpt lat="42.81261" lon="11.96115">
        <ele>0.0</ele>
      </trkpt>
      <trkpt lat="42.81256" lon="11.96105">
        <ele>0.0</ele>
      </trkpt>
      <trkpt lat="42.81254" lon="11.96098">
        <ele>0.0</ele>
      </trkpt>
      <trkpt lat="42.81254" lon="11.96072">
        <ele>0.0</ele>
      </trkpt>
      <trkpt lat="42.81256" lon="11.96056">
        <ele>0.0</ele>
      </trkpt>
      <trkpt lat="42.81277" lon="11.95988">
        <ele>0.0</ele>
      </trkpt>
      <trkpt lat="42.81281" lon="11.95968">
        <ele>0.0</ele>
      </trkpt>
      <trkpt lat="42.81285" lon="11.95916">
        <ele>0.0</ele>
      </trkpt>
      <trkpt lat="42.81282" lon="11.95892">
        <ele>0.0</ele>
      </trkpt>
      <trkpt lat="42.81236" lon="11.95737">
        <ele>0.0</ele>
      </trkpt>
      <trkpt lat="42.81233" lon="11.95719">
        <ele>0.0</ele>
      </trkpt>
      <trkpt lat="42.81233" lon="11.95713">
        <ele>0.0</ele>
      </trkpt>
      <trkpt lat="42.81256" lon="11.95645">
        <ele>0.0</ele>
      </trkpt>
      <trkpt lat="42.8126" lon="11.95614">
        <ele>0.0</ele>
      </trkpt>
      <trkpt lat="42.8126" lon="11.95599">
        <ele>0.0</ele>
      </trkpt>
      <trkpt lat="42.81252" lon="11.95545">
        <ele>0.0</ele>
      </trkpt>
      <trkpt lat="42.81252" lon="11.95536">
        <ele>0.0</ele>
      </trkpt>
      <trkpt lat="42.8126" lon="11.95512">
        <ele>0.0</ele>
      </trkpt>
      <trkpt lat="42.8128" lon="11.95479">
        <ele>0.0</ele>
      </trkpt>
      <trkpt lat="42.81297" lon="11.95444">
        <ele>0.0</ele>
      </trkpt>
      <trkpt lat="42.813" lon="11.95431">
        <ele>0.0</ele>
      </trkpt>
      <trkpt lat="42.81302" lon="11.95406">
        <ele>0.0</ele>
      </trkpt>
      <trkpt lat="42.81301" lon="11.954">
        <ele>0.0</ele>
      </trkpt>
      <trkpt lat="42.81298" lon="11.95393">
        <ele>0.0</ele>
      </trkpt>
      <trkpt lat="42.81278" lon="11.95362">
        <ele>0.0</ele>
      </trkpt>
      <trkpt lat="42.81246" lon="11.95302">
        <ele>0.0</ele>
      </trkpt>
      <trkpt lat="42.81233" lon="11.95286">
        <ele>0.0</ele>
      </trkpt>
      <trkpt lat="42.81179" lon="11.95237">
        <ele>0.0</ele>
      </trkpt>
      <trkpt lat="42.81164" lon="11.95209">
        <ele>0.0</ele>
      </trkpt>
      <trkpt lat="42.81141" lon="11.95132">
        <ele>0.0</ele>
      </trkpt>
      <trkpt lat="42.81134" lon="11.95114">
        <ele>0.0</ele>
      </trkpt>
      <trkpt lat="42.81109" lon="11.95073">
        <ele>0.0</ele>
      </trkpt>
      <trkpt lat="42.81095" lon="11.95058">
        <ele>0.0</ele>
      </trkpt>
      <trkpt lat="42.81076" lon="11.95044">
        <ele>0.0</ele>
      </trkpt>
      <trkpt lat="42.80929" lon="11.94954">
        <ele>0.0</ele>
      </trkpt>
      <trkpt lat="42.8091" lon="11.94922">
        <ele>0.0</ele>
      </trkpt>
      <trkpt lat="42.80907" lon="11.94908">
        <ele>0.0</ele>
      </trkpt>
      <trkpt lat="42.80902" lon="11.94896">
        <ele>0.0</ele>
      </trkpt>
      <trkpt lat="42.80894" lon="11.94882">
        <ele>0.0</ele>
      </trkpt>
      <trkpt lat="42.80874" lon="11.94859">
        <ele>0.0</ele>
      </trkpt>
      <trkpt lat="42.80847" lon="11.94835">
        <ele>0.0</ele>
      </trkpt>
      <trkpt lat="42.80842" lon="11.94827">
        <ele>0.0</ele>
      </trkpt>
      <trkpt lat="42.80838" lon="11.94808">
        <ele>0.0</ele>
      </trkpt>
      <trkpt lat="42.80839" lon="11.94768">
        <ele>0.0</ele>
      </trkpt>
      <trkpt lat="42.80836" lon="11.94755">
        <ele>0.0</ele>
      </trkpt>
      <trkpt lat="42.80819" lon="11.9472">
        <ele>0.0</ele>
      </trkpt>
      <trkpt lat="42.80816" lon="11.9471">
        <ele>0.0</ele>
      </trkpt>
      <trkpt lat="42.80817" lon="11.94693">
        <ele>0.0</ele>
      </trkpt>
      <trkpt lat="42.80825" lon="11.94673">
        <ele>0.0</ele>
      </trkpt>
      <trkpt lat="42.80829" lon="11.94667">
        <ele>0.0</ele>
      </trkpt>
      <trkpt lat="42.80878" lon="11.94635">
        <ele>0.0</ele>
      </trkpt>
      <trkpt lat="42.80898" lon="11.94619">
        <ele>0.0</ele>
      </trkpt>
      <trkpt lat="42.80917" lon="11.94594">
        <ele>0.0</ele>
      </trkpt>
      <trkpt lat="42.80992" lon="11.94418">
        <ele>0.0</ele>
      </trkpt>
      <trkpt lat="42.80991" lon="11.94399">
        <ele>0.0</ele>
      </trkpt>
      <trkpt lat="42.80982" lon="11.9438">
        <ele>0.0</ele>
      </trkpt>
      <trkpt lat="42.80964" lon="11.94362">
        <ele>0.0</ele>
      </trkpt>
      <trkpt lat="42.80957" lon="11.94352">
        <ele>0.0</ele>
      </trkpt>
      <trkpt lat="42.80952" lon="11.94333">
        <ele>0.0</ele>
      </trkpt>
      <trkpt lat="42.8095" lon="11.94311">
        <ele>0.0</ele>
      </trkpt>
      <trkpt lat="42.8095" lon="11.94265">
        <ele>0.0</ele>
      </trkpt>
      <trkpt lat="42.80954" lon="11.94241">
        <ele>0.0</ele>
      </trkpt>
      <trkpt lat="42.8096" lon="11.94228">
        <ele>0.0</ele>
      </trkpt>
      <trkpt lat="42.81008" lon="11.94168">
        <ele>0.0</ele>
      </trkpt>
      <trkpt lat="42.81013" lon="11.94157">
        <ele>0.0</ele>
      </trkpt>
      <trkpt lat="42.81017" lon="11.94143">
        <ele>0.0</ele>
      </trkpt>
      <trkpt lat="42.81018" lon="11.94133">
        <ele>0.0</ele>
      </trkpt>
      <trkpt lat="42.81017" lon="11.94124">
        <ele>0.0</ele>
      </trkpt>
      <trkpt lat="42.81006" lon="11.94095">
        <ele>0.0</ele>
      </trkpt>
      <trkpt lat="42.81001" lon="11.94077">
        <ele>0.0</ele>
      </trkpt>
      <trkpt lat="42.81001" lon="11.94052">
        <ele>0.0</ele>
      </trkpt>
      <trkpt lat="42.81004" lon="11.94037">
        <ele>0.0</ele>
      </trkpt>
      <trkpt lat="42.81065" lon="11.93882">
        <ele>0.0</ele>
      </trkpt>
      <trkpt lat="42.81069" lon="11.93861">
        <ele>0.0</ele>
      </trkpt>
      <trkpt lat="42.8107" lon="11.93846">
        <ele>0.0</ele>
      </trkpt>
      <trkpt lat="42.81067" lon="11.93808">
        <ele>0.0</ele>
      </trkpt>
      <trkpt lat="42.81057" lon="11.93768">
        <ele>0.0</ele>
      </trkpt>
      <trkpt lat="42.8105" lon="11.93753">
        <ele>0.0</ele>
      </trkpt>
      <trkpt lat="42.81031" lon="11.93726">
        <ele>0.0</ele>
      </trkpt>
      <trkpt lat="42.8102" lon="11.937">
        <ele>0.0</ele>
      </trkpt>
      <trkpt lat="42.81019" lon="11.93676">
        <ele>0.0</ele>
      </trkpt>
      <trkpt lat="42.81039" lon="11.93569">
        <ele>0.0</ele>
      </trkpt>
      <trkpt lat="42.81042" lon="11.93537">
        <ele>0.0</ele>
      </trkpt>
      <trkpt lat="42.81027" lon="11.93446">
        <ele>0.0</ele>
      </trkpt>
      <trkpt lat="42.8102" lon="11.93432">
        <ele>0.0</ele>
      </trkpt>
      <trkpt lat="42.8101" lon="11.93418">
        <ele>0.0</ele>
      </trkpt>
      <trkpt lat="42.80922" lon="11.93315">
        <ele>0.0</ele>
      </trkpt>
      <trkpt lat="42.80906" lon="11.9329">
        <ele>0.0</ele>
      </trkpt>
      <trkpt lat="42.80885" lon="11.93216">
        <ele>0.0</ele>
      </trkpt>
      <trkpt lat="42.80875" lon="11.93165">
        <ele>0.0</ele>
      </trkpt>
      <trkpt lat="42.80876" lon="11.93143">
        <ele>0.0</ele>
      </trkpt>
      <trkpt lat="42.80922" lon="11.93012">
        <ele>0.0</ele>
      </trkpt>
      <trkpt lat="42.80922" lon="11.92995">
        <ele>0.0</ele>
      </trkpt>
      <trkpt lat="42.80921" lon="11.9299">
        <ele>0.0</ele>
      </trkpt>
      <trkpt lat="42.80823" lon="11.9283">
        <ele>0.0</ele>
      </trkpt>
      <trkpt lat="42.80814" lon="11.92811">
        <ele>0.0</ele>
      </trkpt>
      <trkpt lat="42.80811" lon="11.92782">
        <ele>0.0</ele>
      </trkpt>
      <trkpt lat="42.80813" lon="11.92769">
        <ele>0.0</ele>
      </trkpt>
      <trkpt lat="42.80818" lon="11.92758">
        <ele>0.0</ele>
      </trkpt>
      <trkpt lat="42.80828" lon="11.92746">
        <ele>0.0</ele>
      </trkpt>
      <trkpt lat="42.80839" lon="11.92742">
        <ele>0.0</ele>
      </trkpt>
      <trkpt lat="42.80907" lon="11.92733">
        <ele>0.0</ele>
      </trkpt>
      <trkpt lat="42.80915" lon="11.92727">
        <ele>0.0</ele>
      </trkpt>
      <trkpt lat="42.80921" lon="11.9272">
        <ele>0.0</ele>
      </trkpt>
      <trkpt lat="42.80926" lon="11.92707">
        <ele>0.0</ele>
      </trkpt>
      <trkpt lat="42.80929" lon="11.92671">
        <ele>0.0</ele>
      </trkpt>
      <trkpt lat="42.80922" lon="11.92624">
        <ele>0.0</ele>
      </trkpt>
      <trkpt lat="42.80905" lon="11.92583">
        <ele>0.0</ele>
      </trkpt>
      <trkpt lat="42.80875" lon="11.92534">
        <ele>0.0</ele>
      </trkpt>
      <trkpt lat="42.80869" lon="11.92509">
        <ele>0.0</ele>
      </trkpt>
      <trkpt lat="42.80868" lon="11.92494">
        <ele>0.0</ele>
      </trkpt>
      <trkpt lat="42.8087" lon="11.9248">
        <ele>0.0</ele>
      </trkpt>
      <trkpt lat="42.80873" lon="11.9247">
        <ele>0.0</ele>
      </trkpt>
      <trkpt lat="42.80888" lon="11.92449">
        <ele>0.0</ele>
      </trkpt>
      <trkpt lat="42.80895" lon="11.92444">
        <ele>0.0</ele>
      </trkpt>
      <trkpt lat="42.80912" lon="11.92438">
        <ele>0.0</ele>
      </trkpt>
      <trkpt lat="42.80974" lon="11.92427">
        <ele>0.0</ele>
      </trkpt>
      <trkpt lat="42.80989" lon="11.92421">
        <ele>0.0</ele>
      </trkpt>
      <trkpt lat="42.81004" lon="11.92407">
        <ele>0.0</ele>
      </trkpt>
      <trkpt lat="42.81012" lon="11.92397">
        <ele>0.0</ele>
      </trkpt>
      <trkpt lat="42.81055" lon="11.9232">
        <ele>0.0</ele>
      </trkpt>
      <trkpt lat="42.81066" lon="11.92307">
        <ele>0.0</ele>
      </trkpt>
      <trkpt lat="42.81076" lon="11.92299">
        <ele>0.0</ele>
      </trkpt>
      <trkpt lat="42.81085" lon="11.92296">
        <ele>0.0</ele>
      </trkpt>
      <trkpt lat="42.81102" lon="11.92298">
        <ele>0.0</ele>
      </trkpt>
      <trkpt lat="42.81165" lon="11.92291">
        <ele>0.0</ele>
      </trkpt>
      <trkpt lat="42.81214" lon="11.92277">
        <ele>0.0</ele>
      </trkpt>
      <trkpt lat="42.81243" lon="11.92261">
        <ele>0.0</ele>
      </trkpt>
      <trkpt lat="42.81309" lon="11.9221">
        <ele>0.0</ele>
      </trkpt>
      <trkpt lat="42.81315" lon="11.92203">
        <ele>0.0</ele>
      </trkpt>
      <trkpt lat="42.81322" lon="11.92188">
        <ele>0.0</ele>
      </trkpt>
      <trkpt lat="42.81323" lon="11.9217">
        <ele>0.0</ele>
      </trkpt>
      <trkpt lat="42.81318" lon="11.92146">
        <ele>0.0</ele>
      </trkpt>
      <trkpt lat="42.81273" lon="11.92027">
        <ele>0.0</ele>
      </trkpt>
      <trkpt lat="42.81262" lon="11.91988">
        <ele>0.0</ele>
      </trkpt>
      <trkpt lat="42.81261" lon="11.91964">
        <ele>0.0</ele>
      </trkpt>
      <trkpt lat="42.81263" lon="11.91956">
        <ele>0.0</ele>
      </trkpt>
      <trkpt lat="42.81268" lon="11.91915">
        <ele>0.0</ele>
      </trkpt>
      <trkpt lat="42.81272" lon="11.91902">
        <ele>0.0</ele>
      </trkpt>
      <trkpt lat="42.81283" lon="11.91879">
        <ele>0.0</ele>
      </trkpt>
      <trkpt lat="42.81294" lon="11.91868">
        <ele>0.0</ele>
      </trkpt>
      <trkpt lat="42.8134" lon="11.91847">
        <ele>0.0</ele>
      </trkpt>
      <trkpt lat="42.81351" lon="11.91837">
        <ele>0.0</ele>
      </trkpt>
      <trkpt lat="42.81373" lon="11.91802">
        <ele>0.0</ele>
      </trkpt>
      <trkpt lat="42.81394" lon="11.91775">
        <ele>0.0</ele>
      </trkpt>
      <trkpt lat="42.81412" lon="11.91761">
        <ele>0.0</ele>
      </trkpt>
      <trkpt lat="42.81444" lon="11.91748">
        <ele>0.0</ele>
      </trkpt>
      <trkpt lat="42.81493" lon="11.91733">
        <ele>0.0</ele>
      </trkpt>
      <trkpt lat="42.8153" lon="11.91717">
        <ele>0.0</ele>
      </trkpt>
      <trkpt lat="42.81539" lon="11.9171">
        <ele>0.0</ele>
      </trkpt>
      <trkpt lat="42.81584" lon="11.91666">
        <ele>0.0</ele>
      </trkpt>
      <trkpt lat="42.81593" lon="11.9166">
        <ele>0.0</ele>
      </trkpt>
      <trkpt lat="42.81612" lon="11.91653">
        <ele>0.0</ele>
      </trkpt>
      <trkpt lat="42.81626" lon="11.91651">
        <ele>0.0</ele>
      </trkpt>
      <trkpt lat="42.81645" lon="11.91651">
        <ele>0.0</ele>
      </trkpt>
      <trkpt lat="42.81705" lon="11.91661">
        <ele>0.0</ele>
      </trkpt>
      <trkpt lat="42.81721" lon="11.91662">
        <ele>0.0</ele>
      </trkpt>
      <trkpt lat="42.81737" lon="11.91655">
        <ele>0.0</ele>
      </trkpt>
      <trkpt lat="42.81745" lon="11.91644">
        <ele>0.0</ele>
      </trkpt>
      <trkpt lat="42.81746" lon="11.91634">
        <ele>0.0</ele>
      </trkpt>
      <trkpt lat="42.81741" lon="11.91553">
        <ele>0.0</ele>
      </trkpt>
      <trkpt lat="42.81734" lon="11.91516">
        <ele>0.0</ele>
      </trkpt>
      <trkpt lat="42.81724" lon="11.91479">
        <ele>0.0</ele>
      </trkpt>
      <trkpt lat="42.81724" lon="11.9146">
        <ele>0.0</ele>
      </trkpt>
      <trkpt lat="42.81728" lon="11.91432">
        <ele>0.0</ele>
      </trkpt>
      <trkpt lat="42.81727" lon="11.91408">
        <ele>0.0</ele>
      </trkpt>
      <trkpt lat="42.81716" lon="11.91385">
        <ele>0.0</ele>
      </trkpt>
      <trkpt lat="42.81695" lon="11.91358">
        <ele>0.0</ele>
      </trkpt>
      <trkpt lat="42.81688" lon="11.91342">
        <ele>0.0</ele>
      </trkpt>
      <trkpt lat="42.81684" lon="11.91319">
        <ele>0.0</ele>
      </trkpt>
      <trkpt lat="42.81684" lon="11.91304">
        <ele>0.0</ele>
      </trkpt>
      <trkpt lat="42.81693" lon="11.91254">
        <ele>0.0</ele>
      </trkpt>
      <trkpt lat="42.81705" lon="11.91223">
        <ele>0.0</ele>
      </trkpt>
      <trkpt lat="42.81724" lon="11.91197">
        <ele>0.0</ele>
      </trkpt>
      <trkpt lat="42.81757" lon="11.91163">
        <ele>0.0</ele>
      </trkpt>
      <trkpt lat="42.8177" lon="11.91152">
        <ele>0.0</ele>
      </trkpt>
      <trkpt lat="42.81784" lon="11.91144">
        <ele>0.0</ele>
      </trkpt>
      <trkpt lat="42.8185" lon="11.91133">
        <ele>0.0</ele>
      </trkpt>
      <trkpt lat="42.81888" lon="11.9113">
        <ele>0.0</ele>
      </trkpt>
      <trkpt lat="42.81909" lon="11.91124">
        <ele>0.0</ele>
      </trkpt>
      <trkpt lat="42.81927" lon="11.91116">
        <ele>0.0</ele>
      </trkpt>
      <trkpt lat="42.81961" lon="11.91082">
        <ele>0.0</ele>
      </trkpt>
      <trkpt lat="42.81976" lon="11.91059">
        <ele>0.0</ele>
      </trkpt>
      <trkpt lat="42.81986" lon="11.91037">
        <ele>0.0</ele>
      </trkpt>
      <trkpt lat="42.81996" lon="11.91006">
        <ele>0.0</ele>
      </trkpt>
      <trkpt lat="42.82003" lon="11.90961">
        <ele>0.0</ele>
      </trkpt>
      <trkpt lat="42.82008" lon="11.90949">
        <ele>0.0</ele>
      </trkpt>
      <trkpt lat="42.82017" lon="11.90934">
        <ele>0.0</ele>
      </trkpt>
      <trkpt lat="42.82036" lon="11.90919">
        <ele>0.0</ele>
      </trkpt>
      <trkpt lat="42.82094" lon="11.90889">
        <ele>0.0</ele>
      </trkpt>
      <trkpt lat="42.82107" lon="11.90876">
        <ele>0.0</ele>
      </trkpt>
      <trkpt lat="42.82113" lon="11.90866">
        <ele>0.0</ele>
      </trkpt>
      <trkpt lat="42.82117" lon="11.90851">
        <ele>0.0</ele>
      </trkpt>
      <trkpt lat="42.82137" lon="11.90811">
        <ele>0.0</ele>
      </trkpt>
      <trkpt lat="42.82152" lon="11.908">
        <ele>0.0</ele>
      </trkpt>
      <trkpt lat="42.82163" lon="11.90799">
        <ele>0.0</ele>
      </trkpt>
      <trkpt lat="42.82227" lon="11.90801">
        <ele>0.0</ele>
      </trkpt>
      <trkpt lat="42.82253" lon="11.90795">
        <ele>0.0</ele>
      </trkpt>
      <trkpt lat="42.8231" lon="11.90767">
        <ele>0.0</ele>
      </trkpt>
      <trkpt lat="42.82338" lon="11.90748">
        <ele>0.0</ele>
      </trkpt>
      <trkpt lat="42.82379" lon="11.90701">
        <ele>0.0</ele>
      </trkpt>
      <trkpt lat="42.82385" lon="11.90697">
        <ele>0.0</ele>
      </trkpt>
      <trkpt lat="42.82412" lon="11.90687">
        <ele>0.0</ele>
      </trkpt>
      <trkpt lat="42.82482" lon="11.9067">
        <ele>0.0</ele>
      </trkpt>
      <trkpt lat="42.82523" lon="11.90657">
        <ele>0.0</ele>
      </trkpt>
      <trkpt lat="42.82532" lon="11.90652">
        <ele>0.0</ele>
      </trkpt>
      <trkpt lat="42.8263" lon="11.90663">
        <ele>0.0</ele>
      </trkpt>
      <trkpt lat="42.82692" lon="11.90685">
        <ele>0.0</ele>
      </trkpt>
      <trkpt lat="42.82698" lon="11.90685">
        <ele>0.0</ele>
      </trkpt>
      <trkpt lat="42.82715" lon="11.90679">
        <ele>0.0</ele>
      </trkpt>
      <trkpt lat="42.82724" lon="11.90674">
        <ele>0.0</ele>
      </trkpt>
      <trkpt lat="42.82731" lon="11.90672">
        <ele>0.0</ele>
      </trkpt>
      <trkpt lat="42.8274" lon="11.90672">
        <ele>0.0</ele>
      </trkpt>
      <trkpt lat="42.82748" lon="11.90675">
        <ele>0.0</ele>
      </trkpt>
      <trkpt lat="42.82754" lon="11.90679">
        <ele>0.0</ele>
      </trkpt>
      <trkpt lat="42.82797" lon="11.90716">
        <ele>0.0</ele>
      </trkpt>
      <trkpt lat="42.8282" lon="11.90756">
        <ele>0.0</ele>
      </trkpt>
      <trkpt lat="42.82824" lon="11.9076">
        <ele>0.0</ele>
      </trkpt>
      <trkpt lat="42.82829" lon="11.90762">
        <ele>0.0</ele>
      </trkpt>
      <trkpt lat="42.82831" lon="11.90762">
        <ele>0.0</ele>
      </trkpt>
      <trkpt lat="42.82834" lon="11.90763">
        <ele>0.0</ele>
      </trkpt>
      <trkpt lat="42.82868" lon="11.9076">
        <ele>0.0</ele>
      </trkpt>
      <trkpt lat="42.82878" lon="11.90762">
        <ele>0.0</ele>
      </trkpt>
      <trkpt lat="42.82882" lon="11.90764">
        <ele>0.0</ele>
      </trkpt>
      <trkpt lat="42.82887" lon="11.9077">
        <ele>0.0</ele>
      </trkpt>
      <trkpt lat="42.8289" lon="11.90777">
        <ele>0.0</ele>
      </trkpt>
      <trkpt lat="42.829" lon="11.90843">
        <ele>0.0</ele>
      </trkpt>
      <trkpt lat="42.82907" lon="11.90852">
        <ele>0.0</ele>
      </trkpt>
      <trkpt lat="42.82943" lon="11.90885">
        <ele>0.0</ele>
      </trkpt>
      <trkpt lat="42.82955" lon="11.90889">
        <ele>0.0</ele>
      </trkpt>
      <trkpt lat="42.82959" lon="11.90889">
        <ele>0.0</ele>
      </trkpt>
      <trkpt lat="42.82989" lon="11.90884">
        <ele>0.0</ele>
      </trkpt>
      <trkpt lat="42.82994" lon="11.90884">
        <ele>0.0</ele>
      </trkpt>
      <trkpt lat="42.83008" lon="11.9089">
        <ele>0.0</ele>
      </trkpt>
      <trkpt lat="42.83044" lon="11.90927">
        <ele>0.0</ele>
      </trkpt>
      <trkpt lat="42.83076" lon="11.90977">
        <ele>0.0</ele>
      </trkpt>
      <trkpt lat="42.83083" lon="11.90991">
        <ele>0.0</ele>
      </trkpt>
      <trkpt lat="42.83093" lon="11.91022">
        <ele>0.0</ele>
      </trkpt>
      <trkpt lat="42.831" lon="11.91068">
        <ele>0.0</ele>
      </trkpt>
      <trkpt lat="42.83108" lon="11.91093">
        <ele>0.0</ele>
      </trkpt>
      <trkpt lat="42.83114" lon="11.91104">
        <ele>0.0</ele>
      </trkpt>
      <trkpt lat="42.83125" lon="11.91119">
        <ele>0.0</ele>
      </trkpt>
      <trkpt lat="42.83136" lon="11.9113">
        <ele>0.0</ele>
      </trkpt>
      <trkpt lat="42.83145" lon="11.91134">
        <ele>0.0</ele>
      </trkpt>
      <trkpt lat="42.83164" lon="11.91138">
        <ele>0.0</ele>
      </trkpt>
      <trkpt lat="42.83174" lon="11.91135">
        <ele>0.0</ele>
      </trkpt>
      <trkpt lat="42.83178" lon="11.91132">
        <ele>0.0</ele>
      </trkpt>
      <trkpt lat="42.83202" lon="11.91094">
        <ele>0.0</ele>
      </trkpt>
      <trkpt lat="42.83205" lon="11.91091">
        <ele>0.0</ele>
      </trkpt>
      <trkpt lat="42.83214" lon="11.91088">
        <ele>0.0</ele>
      </trkpt>
      <trkpt lat="42.83222" lon="11.91092">
        <ele>0.0</ele>
      </trkpt>
      <trkpt lat="42.83226" lon="11.91098">
        <ele>0.0</ele>
      </trkpt>
      <trkpt lat="42.83277" lon="11.91224">
        <ele>0.0</ele>
      </trkpt>
      <trkpt lat="42.83283" lon="11.9123">
        <ele>0.0</ele>
      </trkpt>
      <trkpt lat="42.83359" lon="11.91286">
        <ele>0.0</ele>
      </trkpt>
      <trkpt lat="42.83363" lon="11.91287">
        <ele>0.0</ele>
      </trkpt>
      <trkpt lat="42.83372" lon="11.91295">
        <ele>0.0</ele>
      </trkpt>
      <trkpt lat="42.83489" lon="11.91499">
        <ele>0.0</ele>
      </trkpt>
      <trkpt lat="42.83508" lon="11.91517">
        <ele>0.0</ele>
      </trkpt>
      <trkpt lat="42.83517" lon="11.91523">
        <ele>0.0</ele>
      </trkpt>
      <trkpt lat="42.83533" lon="11.91531">
        <ele>0.0</ele>
      </trkpt>
      <trkpt lat="42.83542" lon="11.91533">
        <ele>0.0</ele>
      </trkpt>
      <trkpt lat="42.83555" lon="11.91534">
        <ele>0.0</ele>
      </trkpt>
      <trkpt lat="42.83673" lon="11.9152">
        <ele>0.0</ele>
      </trkpt>
      <trkpt lat="42.83687" lon="11.9152">
        <ele>0.0</ele>
      </trkpt>
      <trkpt lat="42.83741" lon="11.91535">
        <ele>0.0</ele>
      </trkpt>
      <trkpt lat="42.83778" lon="11.91552">
        <ele>0.0</ele>
      </trkpt>
      <trkpt lat="42.83801" lon="11.91584">
        <ele>0.0</ele>
      </trkpt>
      <trkpt lat="42.8382" lon="11.91619">
        <ele>0.0</ele>
      </trkpt>
      <trkpt lat="42.83836" lon="11.91642">
        <ele>0.0</ele>
      </trkpt>
      <trkpt lat="42.83849" lon="11.91656">
        <ele>0.0</ele>
      </trkpt>
      <trkpt lat="42.8386" lon="11.91662">
        <ele>0.0</ele>
      </trkpt>
      <trkpt lat="42.83904" lon="11.91672">
        <ele>0.0</ele>
      </trkpt>
      <trkpt lat="42.83929" lon="11.91687">
        <ele>0.0</ele>
      </trkpt>
      <trkpt lat="42.83938" lon="11.91696">
        <ele>0.0</ele>
      </trkpt>
      <trkpt lat="42.83948" lon="11.9171">
        <ele>0.0</ele>
      </trkpt>
      <trkpt lat="42.83963" lon="11.91747">
        <ele>0.0</ele>
      </trkpt>
      <trkpt lat="42.83969" lon="11.91825">
        <ele>0.0</ele>
      </trkpt>
      <trkpt lat="42.83974" lon="11.91843">
        <ele>0.0</ele>
      </trkpt>
      <trkpt lat="42.83981" lon="11.91852">
        <ele>0.0</ele>
      </trkpt>
      <trkpt lat="42.83989" lon="11.91858">
        <ele>0.0</ele>
      </trkpt>
      <trkpt lat="42.84026" lon="11.91878">
        <ele>0.0</ele>
      </trkpt>
      <trkpt lat="42.84261" lon="11.92105">
        <ele>0.0</ele>
      </trkpt>
      <trkpt lat="42.8427" lon="11.92125">
        <ele>0.0</ele>
      </trkpt>
      <trkpt lat="42.84271" lon="11.92148">
        <ele>0.0</ele>
      </trkpt>
      <trkpt lat="42.84267" lon="11.92162">
        <ele>0.0</ele>
      </trkpt>
      <trkpt lat="42.84256" lon="11.92181">
        <ele>0.0</ele>
      </trkpt>
      <trkpt lat="42.84243" lon="11.92209">
        <ele>0.0</ele>
      </trkpt>
      <trkpt lat="42.8424" lon="11.92226">
        <ele>0.0</ele>
      </trkpt>
      <trkpt lat="42.84243" lon="11.92279">
        <ele>0.0</ele>
      </trkpt>
      <trkpt lat="42.84253" lon="11.92354">
        <ele>0.0</ele>
      </trkpt>
      <trkpt lat="42.84256" lon="11.92398">
        <ele>0.0</ele>
      </trkpt>
      <trkpt lat="42.84243" lon="11.92562">
        <ele>0.0</ele>
      </trkpt>
      <trkpt lat="42.84244" lon="11.92577">
        <ele>0.0</ele>
      </trkpt>
      <trkpt lat="42.84271" lon="11.92681">
        <ele>0.0</ele>
      </trkpt>
      <trkpt lat="42.84286" lon="11.92795">
        <ele>0.0</ele>
      </trkpt>
      <trkpt lat="42.84286" lon="11.9281">
        <ele>0.0</ele>
      </trkpt>
      <trkpt lat="42.84284" lon="11.92827">
        <ele>0.0</ele>
      </trkpt>
      <trkpt lat="42.84281" lon="11.92839">
        <ele>0.0</ele>
      </trkpt>
      <trkpt lat="42.84261" lon="11.92885">
        <ele>0.0</ele>
      </trkpt>
      <trkpt lat="42.84255" lon="11.92911">
        <ele>0.0</ele>
      </trkpt>
      <trkpt lat="42.84257" lon="11.92988">
        <ele>0.0</ele>
      </trkpt>
      <trkpt lat="42.84249" lon="11.93106">
        <ele>0.0</ele>
      </trkpt>
      <trkpt lat="42.8425" lon="11.93147">
        <ele>0.0</ele>
      </trkpt>
      <trkpt lat="42.84262" lon="11.93196">
        <ele>0.0</ele>
      </trkpt>
      <trkpt lat="42.84268" lon="11.93208">
        <ele>0.0</ele>
      </trkpt>
      <trkpt lat="42.84294" lon="11.93244">
        <ele>0.0</ele>
      </trkpt>
      <trkpt lat="42.843" lon="11.93255">
        <ele>0.0</ele>
      </trkpt>
      <trkpt lat="42.84304" lon="11.93267">
        <ele>0.0</ele>
      </trkpt>
      <trkpt lat="42.84318" lon="11.93334">
        <ele>0.0</ele>
      </trkpt>
      <trkpt lat="42.84337" lon="11.93375">
        <ele>0.0</ele>
      </trkpt>
      <trkpt lat="42.84344" lon="11.93402">
        <ele>0.0</ele>
      </trkpt>
      <trkpt lat="42.84346" lon="11.93419">
        <ele>0.0</ele>
      </trkpt>
      <trkpt lat="42.84346" lon="11.93449">
        <ele>0.0</ele>
      </trkpt>
      <trkpt lat="42.84338" lon="11.93514">
        <ele>0.0</ele>
      </trkpt>
      <trkpt lat="42.84306" lon="11.93645">
        <ele>0.0</ele>
      </trkpt>
      <trkpt lat="42.84305" lon="11.93668">
        <ele>0.0</ele>
      </trkpt>
      <trkpt lat="42.84309" lon="11.93691">
        <ele>0.0</ele>
      </trkpt>
      <trkpt lat="42.84322" lon="11.93721">
        <ele>0.0</ele>
      </trkpt>
      <trkpt lat="42.84452" lon="11.93886">
        <ele>0.0</ele>
      </trkpt>
      <trkpt lat="42.84467" lon="11.93912">
        <ele>0.0</ele>
      </trkpt>
      <trkpt lat="42.84476" lon="11.93937">
        <ele>0.0</ele>
      </trkpt>
      <trkpt lat="42.84502" lon="11.94047">
        <ele>0.0</ele>
      </trkpt>
      <trkpt lat="42.84509" lon="11.94101">
        <ele>0.0</ele>
      </trkpt>
      <trkpt lat="42.84518" lon="11.94134">
        <ele>0.0</ele>
      </trkpt>
      <trkpt lat="42.84568" lon="11.94269">
        <ele>0.0</ele>
      </trkpt>
      <trkpt lat="42.84584" lon="11.94302">
        <ele>0.0</ele>
      </trkpt>
      <trkpt lat="42.84591" lon="11.94312">
        <ele>0.0</ele>
      </trkpt>
      <trkpt lat="42.84598" lon="11.94318">
        <ele>0.0</ele>
      </trkpt>
      <trkpt lat="42.84605" lon="11.94322">
        <ele>0.0</ele>
      </trkpt>
      <trkpt lat="42.84618" lon="11.94321">
        <ele>0.0</ele>
      </trkpt>
      <trkpt lat="42.84624" lon="11.94317">
        <ele>0.0</ele>
      </trkpt>
      <trkpt lat="42.84633" lon="11.94307">
        <ele>0.0</ele>
      </trkpt>
      <trkpt lat="42.84641" lon="11.94292">
        <ele>0.0</ele>
      </trkpt>
      <trkpt lat="42.84657" lon="11.94277">
        <ele>0.0</ele>
      </trkpt>
      <trkpt lat="42.84662" lon="11.94274">
        <ele>0.0</ele>
      </trkpt>
      <trkpt lat="42.84667" lon="11.94275">
        <ele>0.0</ele>
      </trkpt>
      <trkpt lat="42.8467" lon="11.9428">
        <ele>0.0</ele>
      </trkpt>
      <trkpt lat="42.84677" lon="11.94286">
        <ele>0.0</ele>
      </trkpt>
      <trkpt lat="42.84684" lon="11.94298">
        <ele>0.0</ele>
      </trkpt>
      <trkpt lat="42.84687" lon="11.94314">
        <ele>0.0</ele>
      </trkpt>
      <trkpt lat="42.84718" lon="11.94424">
        <ele>0.0</ele>
      </trkpt>
      <trkpt lat="42.84734" lon="11.94506">
        <ele>0.0</ele>
      </trkpt>
      <trkpt lat="42.84744" lon="11.94542">
        <ele>0.0</ele>
      </trkpt>
      <trkpt lat="42.84783" lon="11.94624">
        <ele>0.0</ele>
      </trkpt>
      <trkpt lat="42.84792" lon="11.94653">
        <ele>0.0</ele>
      </trkpt>
      <trkpt lat="42.84795" lon="11.94671">
        <ele>0.0</ele>
      </trkpt>
      <trkpt lat="42.848" lon="11.94742">
        <ele>0.0</ele>
      </trkpt>
      <trkpt lat="42.84816" lon="11.94794">
        <ele>0.0</ele>
      </trkpt>
      <trkpt lat="42.84848" lon="11.94845">
        <ele>0.0</ele>
      </trkpt>
      <trkpt lat="42.84851" lon="11.94852">
        <ele>0.0</ele>
      </trkpt>
      <trkpt lat="42.84854" lon="11.94867">
        <ele>0.0</ele>
      </trkpt>
      <trkpt lat="42.84854" lon="11.94875">
        <ele>0.0</ele>
      </trkpt>
      <trkpt lat="42.84851" lon="11.9489">
        <ele>0.0</ele>
      </trkpt>
      <trkpt lat="42.84837" lon="11.94924">
        <ele>0.0</ele>
      </trkpt>
      <trkpt lat="42.8481" lon="11.94957">
        <ele>0.0</ele>
      </trkpt>
      <trkpt lat="42.84807" lon="11.94962">
        <ele>0.0</ele>
      </trkpt>
      <trkpt lat="42.84804" lon="11.94974">
        <ele>0.0</ele>
      </trkpt>
      <trkpt lat="42.84804" lon="11.9498">
        <ele>0.0</ele>
      </trkpt>
      <trkpt lat="42.84806" lon="11.94988">
        <ele>0.0</ele>
      </trkpt>
      <trkpt lat="42.84811" lon="11.94994">
        <ele>0.0</ele>
      </trkpt>
      <trkpt lat="42.84814" lon="11.94995">
        <ele>0.0</ele>
      </trkpt>
      <trkpt lat="42.84818" lon="11.94995">
        <ele>0.0</ele>
      </trkpt>
      <trkpt lat="42.84823" lon="11.94993">
        <ele>0.0</ele>
      </trkpt>
      <trkpt lat="42.84844" lon="11.94978">
        <ele>0.0</ele>
      </trkpt>
      <trkpt lat="42.84881" lon="11.94962">
        <ele>0.0</ele>
      </trkpt>
      <trkpt lat="42.84923" lon="11.94919">
        <ele>0.0</ele>
      </trkpt>
      <trkpt lat="42.8503" lon="11.94856">
        <ele>0.0</ele>
      </trkpt>
      <trkpt lat="42.85036" lon="11.94854">
        <ele>0.0</ele>
      </trkpt>
      <trkpt lat="42.85041" lon="11.94854">
        <ele>0.0</ele>
      </trkpt>
      <trkpt lat="42.85043" lon="11.94855">
        <ele>0.0</ele>
      </trkpt>
      <trkpt lat="42.8505" lon="11.94863">
        <ele>0.0</ele>
      </trkpt>
      <trkpt lat="42.85053" lon="11.94873">
        <ele>0.0</ele>
      </trkpt>
      <trkpt lat="42.85053" lon="11.94876">
        <ele>0.0</ele>
      </trkpt>
      <trkpt lat="42.85051" lon="11.94884">
        <ele>0.0</ele>
      </trkpt>
      <trkpt lat="42.84964" lon="11.95007">
        <ele>0.0</ele>
      </trkpt>
      <trkpt lat="42.84958" lon="11.95018">
        <ele>0.0</ele>
      </trkpt>
      <trkpt lat="42.84957" lon="11.95032">
        <ele>0.0</ele>
      </trkpt>
      <trkpt lat="42.84968" lon="11.95082">
        <ele>0.0</ele>
      </trkpt>
      <trkpt lat="42.84967" lon="11.95094">
        <ele>0.0</ele>
      </trkpt>
      <trkpt lat="42.84962" lon="11.95109">
        <ele>0.0</ele>
      </trkpt>
      <trkpt lat="42.84923" lon="11.95166">
        <ele>0.0</ele>
      </trkpt>
      <trkpt lat="42.84915" lon="11.95193">
        <ele>0.0</ele>
      </trkpt>
      <trkpt lat="42.84915" lon="11.95209">
        <ele>0.0</ele>
      </trkpt>
      <trkpt lat="42.84921" lon="11.95229">
        <ele>0.0</ele>
      </trkpt>
      <trkpt lat="42.84961" lon="11.95279">
        <ele>0.0</ele>
      </trkpt>
      <trkpt lat="42.84967" lon="11.95291">
        <ele>0.0</ele>
      </trkpt>
      <trkpt lat="42.84985" lon="11.95348">
        <ele>0.0</ele>
      </trkpt>
      <trkpt lat="42.84997" lon="11.95365">
        <ele>0.0</ele>
      </trkpt>
      <trkpt lat="42.85031" lon="11.95389">
        <ele>0.0</ele>
      </trkpt>
      <trkpt lat="42.85041" lon="11.95408">
        <ele>0.0</ele>
      </trkpt>
      <trkpt lat="42.85044" lon="11.95423">
        <ele>0.0</ele>
      </trkpt>
      <trkpt lat="42.85044" lon="11.95438">
        <ele>0.0</ele>
      </trkpt>
      <trkpt lat="42.85038" lon="11.95465">
        <ele>0.0</ele>
      </trkpt>
      <trkpt lat="42.85038" lon="11.95472">
        <ele>0.0</ele>
      </trkpt>
      <trkpt lat="42.85037" lon="11.95477">
        <ele>0.0</ele>
      </trkpt>
      <trkpt lat="42.8504" lon="11.95491">
        <ele>0.0</ele>
      </trkpt>
      <trkpt lat="42.85051" lon="11.95513">
        <ele>0.0</ele>
      </trkpt>
      <trkpt lat="42.85062" lon="11.95523">
        <ele>0.0</ele>
      </trkpt>
      <trkpt lat="42.85085" lon="11.95523">
        <ele>0.0</ele>
      </trkpt>
      <trkpt lat="42.85097" lon="11.9552">
        <ele>0.0</ele>
      </trkpt>
      <trkpt lat="42.85104" lon="11.95515">
        <ele>0.0</ele>
      </trkpt>
      <trkpt lat="42.8511" lon="11.95509">
        <ele>0.0</ele>
      </trkpt>
      <trkpt lat="42.85114" lon="11.95503">
        <ele>0.0</ele>
      </trkpt>
      <trkpt lat="42.85133" lon="11.95452">
        <ele>0.0</ele>
      </trkpt>
      <trkpt lat="42.85134" lon="11.95447">
        <ele>0.0</ele>
      </trkpt>
      <trkpt lat="42.85135" lon="11.95414">
        <ele>0.0</ele>
      </trkpt>
      <trkpt lat="42.85138" lon="11.95401">
        <ele>0.0</ele>
      </trkpt>
      <trkpt lat="42.85147" lon="11.9539">
        <ele>0.0</ele>
      </trkpt>
      <trkpt lat="42.85171" lon="11.95377">
        <ele>0.0</ele>
      </trkpt>
      <trkpt lat="42.85189" lon="11.9537">
        <ele>0.0</ele>
      </trkpt>
      <trkpt lat="42.85213" lon="11.95368">
        <ele>0.0</ele>
      </trkpt>
      <trkpt lat="42.85224" lon="11.95373">
        <ele>0.0</ele>
      </trkpt>
      <trkpt lat="42.85228" lon="11.95376">
        <ele>0.0</ele>
      </trkpt>
      <trkpt lat="42.8529" lon="11.9548">
        <ele>0.0</ele>
      </trkpt>
      <trkpt lat="42.85294" lon="11.95489">
        <ele>0.0</ele>
      </trkpt>
      <trkpt lat="42.85303" lon="11.95525">
        <ele>0.0</ele>
      </trkpt>
      <trkpt lat="42.85331" lon="11.95708">
        <ele>0.0</ele>
      </trkpt>
      <trkpt lat="42.85343" lon="11.9575">
        <ele>0.0</ele>
      </trkpt>
      <trkpt lat="42.85354" lon="11.95769">
        <ele>0.0</ele>
      </trkpt>
      <trkpt lat="42.85365" lon="11.95784">
        <ele>0.0</ele>
      </trkpt>
      <trkpt lat="42.85385" lon="11.95795">
        <ele>0.0</ele>
      </trkpt>
      <trkpt lat="42.85408" lon="11.95794">
        <ele>0.0</ele>
      </trkpt>
      <trkpt lat="42.85465" lon="11.95779">
        <ele>0.0</ele>
      </trkpt>
      <trkpt lat="42.85527" lon="11.95768">
        <ele>0.0</ele>
      </trkpt>
      <trkpt lat="42.85532" lon="11.95769">
        <ele>0.0</ele>
      </trkpt>
      <trkpt lat="42.85539" lon="11.95769">
        <ele>0.0</ele>
      </trkpt>
      <trkpt lat="42.85544" lon="11.95771">
        <ele>0.0</ele>
      </trkpt>
      <trkpt lat="42.85556" lon="11.9579">
        <ele>0.0</ele>
      </trkpt>
      <trkpt lat="42.85567" lon="11.95816">
        <ele>0.0</ele>
      </trkpt>
      <trkpt lat="42.85574" lon="11.95824">
        <ele>0.0</ele>
      </trkpt>
      <trkpt lat="42.85582" lon="11.9583">
        <ele>0.0</ele>
      </trkpt>
      <trkpt lat="42.85595" lon="11.95832">
        <ele>0.0</ele>
      </trkpt>
      <trkpt lat="42.85603" lon="11.95832">
        <ele>0.0</ele>
      </trkpt>
      <trkpt lat="42.85615" lon="11.95827">
        <ele>0.0</ele>
      </trkpt>
      <trkpt lat="42.85672" lon="11.95796">
        <ele>0.0</ele>
      </trkpt>
      <trkpt lat="42.85692" lon="11.95783">
        <ele>0.0</ele>
      </trkpt>
      <trkpt lat="42.85735" lon="11.9575">
        <ele>0.0</ele>
      </trkpt>
      <trkpt lat="42.85756" lon="11.95741">
        <ele>0.0</ele>
      </trkpt>
      <trkpt lat="42.85769" lon="11.95738">
        <ele>0.0</ele>
      </trkpt>
      <trkpt lat="42.85807" lon="11.95737">
        <ele>0.0</ele>
      </trkpt>
      <trkpt lat="42.85826" lon="11.95742">
        <ele>0.0</ele>
      </trkpt>
      <trkpt lat="42.85839" lon="11.95748">
        <ele>0.0</ele>
      </trkpt>
      <trkpt lat="42.85884" lon="11.95761">
        <ele>0.0</ele>
      </trkpt>
      <trkpt lat="42.85994" lon="11.95776">
        <ele>0.0</ele>
      </trkpt>
      <trkpt lat="42.8601" lon="11.95781">
        <ele>0.0</ele>
      </trkpt>
      <trkpt lat="42.86074" lon="11.95809">
        <ele>0.0</ele>
      </trkpt>
      <trkpt lat="42.8612" lon="11.95836">
        <ele>0.0</ele>
      </trkpt>
      <trkpt lat="42.86133" lon="11.95846">
        <ele>0.0</ele>
      </trkpt>
      <trkpt lat="42.86147" lon="11.95862">
        <ele>0.0</ele>
      </trkpt>
      <trkpt lat="42.86191" lon="11.95942">
        <ele>0.0</ele>
      </trkpt>
      <trkpt lat="42.862" lon="11.95953">
        <ele>0.0</ele>
      </trkpt>
      <trkpt lat="42.86222" lon="11.9597">
        <ele>0.0</ele>
      </trkpt>
      <trkpt lat="42.86241" lon="11.95989">
        <ele>0.0</ele>
      </trkpt>
      <trkpt lat="42.86241" lon="11.9599">
        <ele>0.0</ele>
      </trkpt>
      <trkpt lat="42.86347" lon="11.96125">
        <ele>0.0</ele>
      </trkpt>
      <trkpt lat="42.86364" lon="11.96141">
        <ele>0.0</ele>
      </trkpt>
      <trkpt lat="42.86408" lon="11.9617">
        <ele>0.0</ele>
      </trkpt>
      <trkpt lat="42.86435" lon="11.96184">
        <ele>0.0</ele>
      </trkpt>
      <trkpt lat="42.86478" lon="11.96197">
        <ele>0.0</ele>
      </trkpt>
      <trkpt lat="42.86503" lon="11.96207">
        <ele>0.0</ele>
      </trkpt>
      <trkpt lat="42.86562" lon="11.96245">
        <ele>0.0</ele>
      </trkpt>
      <trkpt lat="42.8668" lon="11.96349">
        <ele>0.0</ele>
      </trkpt>
      <trkpt lat="42.86707" lon="11.96379">
        <ele>0.0</ele>
      </trkpt>
      <trkpt lat="42.86793" lon="11.96494">
        <ele>0.0</ele>
      </trkpt>
      <trkpt lat="42.86827" lon="11.96546">
        <ele>0.0</ele>
      </trkpt>
      <trkpt lat="42.86812" lon="11.96395">
        <ele>0.0</ele>
      </trkpt>
      <trkpt lat="42.86813" lon="11.96391">
        <ele>0.0</ele>
      </trkpt>
      <trkpt lat="42.86813" lon="11.96386">
        <ele>0.0</ele>
      </trkpt>
      <trkpt lat="42.86816" lon="11.96376">
        <ele>0.0</ele>
      </trkpt>
      <trkpt lat="42.86819" lon="11.96372">
        <ele>0.0</ele>
      </trkpt>
      <trkpt lat="42.86937" lon="11.9629">
        <ele>0.0</ele>
      </trkpt>
      <trkpt lat="42.86942" lon="11.96284">
        <ele>0.0</ele>
      </trkpt>
      <trkpt lat="42.86944" lon="11.96283">
        <ele>0.0</ele>
      </trkpt>
      <trkpt lat="42.86945" lon="11.9628">
        <ele>0.0</ele>
      </trkpt>
      <trkpt lat="42.86947" lon="11.96278">
        <ele>0.0</ele>
      </trkpt>
      <trkpt lat="42.86948" lon="11.96275">
        <ele>0.0</ele>
      </trkpt>
      <trkpt lat="42.86948" lon="11.96269">
        <ele>0.0</ele>
      </trkpt>
      <trkpt lat="42.86934" lon="11.96203">
        <ele>0.0</ele>
      </trkpt>
      <trkpt lat="42.86932" lon="11.96185">
        <ele>0.0</ele>
      </trkpt>
      <trkpt lat="42.86947" lon="11.96022">
        <ele>0.0</ele>
      </trkpt>
      <trkpt lat="42.86945" lon="11.9597">
        <ele>0.0</ele>
      </trkpt>
      <trkpt lat="42.86931" lon="11.95826">
        <ele>0.0</ele>
      </trkpt>
      <trkpt lat="42.86931" lon="11.95805">
        <ele>0.0</ele>
      </trkpt>
      <trkpt lat="42.8701" lon="11.95497">
        <ele>0.0</ele>
      </trkpt>
      <trkpt lat="42.87025" lon="11.95343">
        <ele>0.0</ele>
      </trkpt>
      <trkpt lat="42.87031" lon="11.9531">
        <ele>0.0</ele>
      </trkpt>
      <trkpt lat="42.87036" lon="11.95293">
        <ele>0.0</ele>
      </trkpt>
      <trkpt lat="42.87078" lon="11.952">
        <ele>0.0</ele>
      </trkpt>
      <trkpt lat="42.87089" lon="11.95165">
        <ele>0.0</ele>
      </trkpt>
      <trkpt lat="42.87126" lon="11.95003">
        <ele>0.0</ele>
      </trkpt>
      <trkpt lat="42.87135" lon="11.94863">
        <ele>0.0</ele>
      </trkpt>
      <trkpt lat="42.87145" lon="11.94789">
        <ele>0.0</ele>
      </trkpt>
      <trkpt lat="42.87161" lon="11.94704">
        <ele>0.0</ele>
      </trkpt>
      <trkpt lat="42.87169" lon="11.94674">
        <ele>0.0</ele>
      </trkpt>
      <trkpt lat="42.8725" lon="11.94469">
        <ele>0.0</ele>
      </trkpt>
      <trkpt lat="42.87273" lon="11.94424">
        <ele>0.0</ele>
      </trkpt>
      <trkpt lat="42.87323" lon="11.9434">
        <ele>0.0</ele>
      </trkpt>
      <trkpt lat="42.87333" lon="11.94327">
        <ele>0.0</ele>
      </trkpt>
      <trkpt lat="42.8735" lon="11.94315">
        <ele>0.0</ele>
      </trkpt>
      <trkpt lat="42.87507" lon="11.9425">
        <ele>0.0</ele>
      </trkpt>
      <trkpt lat="42.87518" lon="11.94248">
        <ele>0.0</ele>
      </trkpt>
      <trkpt lat="42.87528" lon="11.9425">
        <ele>0.0</ele>
      </trkpt>
      <trkpt lat="42.87544" lon="11.94259">
        <ele>0.0</ele>
      </trkpt>
      <trkpt lat="42.87579" lon="11.94286">
        <ele>0.0</ele>
      </trkpt>
      <trkpt lat="42.87589" lon="11.94292">
        <ele>0.0</ele>
      </trkpt>
      <trkpt lat="42.87601" lon="11.94293">
        <ele>0.0</ele>
      </trkpt>
      <trkpt lat="42.87608" lon="11.94289">
        <ele>0.0</ele>
      </trkpt>
      <trkpt lat="42.87611" lon="11.94284">
        <ele>0.0</ele>
      </trkpt>
      <trkpt lat="42.87618" lon="11.94235">
        <ele>0.0</ele>
      </trkpt>
      <trkpt lat="42.87621" lon="11.94187">
        <ele>0.0</ele>
      </trkpt>
      <trkpt lat="42.87626" lon="11.94173">
        <ele>0.0</ele>
      </trkpt>
      <trkpt lat="42.8763" lon="11.94168">
        <ele>0.0</ele>
      </trkpt>
      <trkpt lat="42.87636" lon="11.94164">
        <ele>0.0</ele>
      </trkpt>
      <trkpt lat="42.87639" lon="11.94163">
        <ele>0.0</ele>
      </trkpt>
      <trkpt lat="42.87646" lon="11.94163">
        <ele>0.0</ele>
      </trkpt>
      <trkpt lat="42.87649" lon="11.94164">
        <ele>0.0</ele>
      </trkpt>
      <trkpt lat="42.87652" lon="11.94166">
        <ele>0.0</ele>
      </trkpt>
      <trkpt lat="42.87666" lon="11.94181">
        <ele>0.0</ele>
      </trkpt>
      <trkpt lat="42.87671" lon="11.94185">
        <ele>0.0</ele>
      </trkpt>
      <trkpt lat="42.87697" lon="11.94192">
        <ele>0.0</ele>
      </trkpt>
      <trkpt lat="42.87707" lon="11.94196">
        <ele>0.0</ele>
      </trkpt>
      <trkpt lat="42.87711" lon="11.94199">
        <ele>0.0</ele>
      </trkpt>
      <trkpt lat="42.8772" lon="11.94218">
        <ele>0.0</ele>
      </trkpt>
      <trkpt lat="42.87726" lon="11.94223">
        <ele>0.0</ele>
      </trkpt>
      <trkpt lat="42.87737" lon="11.94223">
        <ele>0.0</ele>
      </trkpt>
      <trkpt lat="42.8779" lon="11.94211">
        <ele>0.0</ele>
      </trkpt>
      <trkpt lat="42.87803" lon="11.94205">
        <ele>0.0</ele>
      </trkpt>
      <trkpt lat="42.87807" lon="11.94201">
        <ele>0.0</ele>
      </trkpt>
      <trkpt lat="42.8781" lon="11.94196">
        <ele>0.0</ele>
      </trkpt>
      <trkpt lat="42.87813" lon="11.94184">
        <ele>0.0</ele>
      </trkpt>
      <trkpt lat="42.87807" lon="11.94038">
        <ele>0.0</ele>
      </trkpt>
      <trkpt lat="42.87809" lon="11.94019">
        <ele>0.0</ele>
      </trkpt>
      <trkpt lat="42.87811" lon="11.94011">
        <ele>0.0</ele>
      </trkpt>
      <trkpt lat="42.87824" lon="11.9398">
        <ele>0.0</ele>
      </trkpt>
      <trkpt lat="42.87845" lon="11.93873">
        <ele>0.0</ele>
      </trkpt>
      <trkpt lat="42.87847" lon="11.93868">
        <ele>0.0</ele>
      </trkpt>
      <trkpt lat="42.87851" lon="11.93864">
        <ele>0.0</ele>
      </trkpt>
      <trkpt lat="42.87864" lon="11.93859">
        <ele>0.0</ele>
      </trkpt>
      <trkpt lat="42.87875" lon="11.93851">
        <ele>0.0</ele>
      </trkpt>
      <trkpt lat="42.87876" lon="11.93848">
        <ele>0.0</ele>
      </trkpt>
      <trkpt lat="42.87881" lon="11.93809">
        <ele>0.0</ele>
      </trkpt>
      <trkpt lat="42.87883" lon="11.93804">
        <ele>0.0</ele>
      </trkpt>
      <trkpt lat="42.87887" lon="11.93799">
        <ele>0.0</ele>
      </trkpt>
      <trkpt lat="42.87897" lon="11.93793">
        <ele>0.0</ele>
      </trkpt>
      <trkpt lat="42.88024" lon="11.93786">
        <ele>0.0</ele>
      </trkpt>
      <trkpt lat="42.88037" lon="11.93783">
        <ele>0.0</ele>
      </trkpt>
      <trkpt lat="42.88044" lon="11.9378">
        <ele>0.0</ele>
      </trkpt>
      <trkpt lat="42.88061" lon="11.93768">
        <ele>0.0</ele>
      </trkpt>
      <trkpt lat="42.88126" lon="11.93705">
        <ele>0.0</ele>
      </trkpt>
      <trkpt lat="42.88159" lon="11.9368">
        <ele>0.0</ele>
      </trkpt>
      <trkpt lat="42.88168" lon="11.93645">
        <ele>0.0</ele>
      </trkpt>
      <trkpt lat="42.88169" lon="11.93631">
        <ele>0.0</ele>
      </trkpt>
      <trkpt lat="42.88167" lon="11.93614">
        <ele>0.0</ele>
      </trkpt>
      <trkpt lat="42.88161" lon="11.93598">
        <ele>0.0</ele>
      </trkpt>
      <trkpt lat="42.88104" lon="11.93488">
        <ele>0.0</ele>
      </trkpt>
      <trkpt lat="42.88101" lon="11.93475">
        <ele>0.0</ele>
      </trkpt>
      <trkpt lat="42.88101" lon="11.93463">
        <ele>0.0</ele>
      </trkpt>
      <trkpt lat="42.88122" lon="11.93407">
        <ele>0.0</ele>
      </trkpt>
      <trkpt lat="42.88128" lon="11.93399">
        <ele>0.0</ele>
      </trkpt>
      <trkpt lat="42.88139" lon="11.93395">
        <ele>0.0</ele>
      </trkpt>
      <trkpt lat="42.88171" lon="11.93397">
        <ele>0.0</ele>
      </trkpt>
      <trkpt lat="42.88195" lon="11.93402">
        <ele>0.0</ele>
      </trkpt>
      <trkpt lat="42.88222" lon="11.93415">
        <ele>0.0</ele>
      </trkpt>
      <trkpt lat="42.88225" lon="11.93415">
        <ele>0.0</ele>
      </trkpt>
      <trkpt lat="42.88225" lon="11.93427">
        <ele>0.0</ele>
      </trkpt>
      <trkpt lat="42.88227" lon="11.93436">
        <ele>0.0</ele>
      </trkpt>
      <trkpt lat="42.88236" lon="11.93459">
        <ele>0.0</ele>
      </trkpt>
      <trkpt lat="42.88243" lon="11.9347">
        <ele>0.0</ele>
      </trkpt>
      <trkpt lat="42.88254" lon="11.93479">
        <ele>0.0</ele>
      </trkpt>
      <trkpt lat="42.88265" lon="11.93486">
        <ele>0.0</ele>
      </trkpt>
      <trkpt lat="42.88312" lon="11.935">
        <ele>0.0</ele>
      </trkpt>
      <trkpt lat="42.88377" lon="11.93509">
        <ele>0.0</ele>
      </trkpt>
      <trkpt lat="42.88411" lon="11.93511">
        <ele>0.0</ele>
      </trkpt>
      <trkpt lat="42.88427" lon="11.93514">
        <ele>0.0</ele>
      </trkpt>
      <trkpt lat="42.8845" lon="11.93521">
        <ele>0.0</ele>
      </trkpt>
      <trkpt lat="42.88472" lon="11.93536">
        <ele>0.0</ele>
      </trkpt>
      <trkpt lat="42.8848" lon="11.93544">
        <ele>0.0</ele>
      </trkpt>
      <trkpt lat="42.88669" lon="11.93774">
        <ele>0.0</ele>
      </trkpt>
      <trkpt lat="42.88681" lon="11.93785">
        <ele>0.0</ele>
      </trkpt>
      <trkpt lat="42.88701" lon="11.93797">
        <ele>0.0</ele>
      </trkpt>
      <trkpt lat="42.88708" lon="11.93799">
        <ele>0.0</ele>
      </trkpt>
      <trkpt lat="42.88717" lon="11.938">
        <ele>0.0</ele>
      </trkpt>
      <trkpt lat="42.88889" lon="11.93775">
        <ele>0.0</ele>
      </trkpt>
      <trkpt lat="42.88969" lon="11.93768">
        <ele>0.0</ele>
      </trkpt>
      <trkpt lat="42.89134" lon="11.93765">
        <ele>0.0</ele>
      </trkpt>
      <trkpt lat="42.89145" lon="11.93775">
        <ele>0.0</ele>
      </trkpt>
      <trkpt lat="42.89147" lon="11.93779">
        <ele>0.0</ele>
      </trkpt>
      <trkpt lat="42.8918" lon="11.93825">
        <ele>0.0</ele>
      </trkpt>
      <trkpt lat="42.89188" lon="11.93831">
        <ele>0.0</ele>
      </trkpt>
      <trkpt lat="42.89194" lon="11.93834">
        <ele>0.0</ele>
      </trkpt>
      <trkpt lat="42.89201" lon="11.93834">
        <ele>0.0</ele>
      </trkpt>
      <trkpt lat="42.89208" lon="11.93832">
        <ele>0.0</ele>
      </trkpt>
      <trkpt lat="42.89225" lon="11.93822">
        <ele>0.0</ele>
      </trkpt>
      <trkpt lat="42.89268" lon="11.93789">
        <ele>0.0</ele>
      </trkpt>
      <trkpt lat="42.89281" lon="11.93782">
        <ele>0.0</ele>
      </trkpt>
      <trkpt lat="42.8929" lon="11.9378">
        <ele>0.0</ele>
      </trkpt>
      <trkpt lat="42.89395" lon="11.93789">
        <ele>0.0</ele>
      </trkpt>
      <trkpt lat="42.89406" lon="11.93793">
        <ele>0.0</ele>
      </trkpt>
      <trkpt lat="42.89429" lon="11.93806">
        <ele>0.0</ele>
      </trkpt>
      <trkpt lat="42.89435" lon="11.93813">
        <ele>0.0</ele>
      </trkpt>
      <trkpt lat="42.89446" lon="11.9384">
        <ele>0.0</ele>
      </trkpt>
      <trkpt lat="42.89455" lon="11.93872">
        <ele>0.0</ele>
      </trkpt>
      <trkpt lat="42.89458" lon="11.93892">
        <ele>0.0</ele>
      </trkpt>
      <trkpt lat="42.89456" lon="11.93955">
        <ele>0.0</ele>
      </trkpt>
      <trkpt lat="42.89458" lon="11.93961">
        <ele>0.0</ele>
      </trkpt>
      <trkpt lat="42.89463" lon="11.93968">
        <ele>0.0</ele>
      </trkpt>
      <trkpt lat="42.89466" lon="11.9397">
        <ele>0.0</ele>
      </trkpt>
      <trkpt lat="42.89472" lon="11.93972">
        <ele>0.0</ele>
      </trkpt>
      <trkpt lat="42.89479" lon="11.93972">
        <ele>0.0</ele>
      </trkpt>
      <trkpt lat="42.89488" lon="11.93969">
        <ele>0.0</ele>
      </trkpt>
      <trkpt lat="42.89491" lon="11.93966">
        <ele>0.0</ele>
      </trkpt>
      <trkpt lat="42.89496" lon="11.93963">
        <ele>0.0</ele>
      </trkpt>
      <trkpt lat="42.89511" lon="11.93934">
        <ele>0.0</ele>
      </trkpt>
      <trkpt lat="42.89517" lon="11.93909">
        <ele>0.0</ele>
      </trkpt>
      <trkpt lat="42.89519" lon="11.93877">
        <ele>0.0</ele>
      </trkpt>
      <trkpt lat="42.89515" lon="11.93841">
        <ele>0.0</ele>
      </trkpt>
      <trkpt lat="42.89504" lon="11.93786">
        <ele>0.0</ele>
      </trkpt>
      <trkpt lat="42.89504" lon="11.93765">
        <ele>0.0</ele>
      </trkpt>
      <trkpt lat="42.89507" lon="11.93751">
        <ele>0.0</ele>
      </trkpt>
      <trkpt lat="42.89513" lon="11.9374">
        <ele>0.0</ele>
      </trkpt>
      <trkpt lat="42.89525" lon="11.93728">
        <ele>0.0</ele>
      </trkpt>
      <trkpt lat="42.89533" lon="11.93722">
        <ele>0.0</ele>
      </trkpt>
      <trkpt lat="42.89542" lon="11.93719">
        <ele>0.0</ele>
      </trkpt>
      <trkpt lat="42.89559" lon="11.93722">
        <ele>0.0</ele>
      </trkpt>
      <trkpt lat="42.89629" lon="11.93748">
        <ele>0.0</ele>
      </trkpt>
      <trkpt lat="42.89635" lon="11.93748">
        <ele>0.0</ele>
      </trkpt>
      <trkpt lat="42.8964" lon="11.93747">
        <ele>0.0</ele>
      </trkpt>
      <trkpt lat="42.89664" lon="11.93733">
        <ele>0.0</ele>
      </trkpt>
      <trkpt lat="42.89787" lon="11.93638">
        <ele>0.0</ele>
      </trkpt>
      <trkpt lat="42.89878" lon="11.93547">
        <ele>0.0</ele>
      </trkpt>
      <trkpt lat="42.89898" lon="11.9353">
        <ele>0.0</ele>
      </trkpt>
      <trkpt lat="42.89954" lon="11.9346">
        <ele>0.0</ele>
      </trkpt>
      <trkpt lat="42.89994" lon="11.93386">
        <ele>0.0</ele>
      </trkpt>
      <trkpt lat="42.9001" lon="11.93344">
        <ele>0.0</ele>
      </trkpt>
      <trkpt lat="42.90051" lon="11.93201">
        <ele>0.0</ele>
      </trkpt>
      <trkpt lat="42.90167" lon="11.92944">
        <ele>0.0</ele>
      </trkpt>
      <trkpt lat="42.90177" lon="11.92937">
        <ele>0.0</ele>
      </trkpt>
      <trkpt lat="42.90181" lon="11.92936">
        <ele>0.0</ele>
      </trkpt>
      <trkpt lat="42.9019" lon="11.92937">
        <ele>0.0</ele>
      </trkpt>
      <trkpt lat="42.90199" lon="11.92941">
        <ele>0.0</ele>
      </trkpt>
      <trkpt lat="42.90238" lon="11.92974">
        <ele>0.0</ele>
      </trkpt>
      <trkpt lat="42.90268" lon="11.92996">
        <ele>0.0</ele>
      </trkpt>
      <trkpt lat="42.9043" lon="11.93133">
        <ele>0.0</ele>
      </trkpt>
      <trkpt lat="42.90444" lon="11.9314">
        <ele>0.0</ele>
      </trkpt>
      <trkpt lat="42.90452" lon="11.9314">
        <ele>0.0</ele>
      </trkpt>
      <trkpt lat="42.90462" lon="11.93136">
        <ele>0.0</ele>
      </trkpt>
      <trkpt lat="42.90473" lon="11.93128">
        <ele>0.0</ele>
      </trkpt>
      <trkpt lat="42.90508" lon="11.93089">
        <ele>0.0</ele>
      </trkpt>
      <trkpt lat="42.90514" lon="11.93084">
        <ele>0.0</ele>
      </trkpt>
      <trkpt lat="42.90522" lon="11.9308">
        <ele>0.0</ele>
      </trkpt>
      <trkpt lat="42.90527" lon="11.9308">
        <ele>0.0</ele>
      </trkpt>
      <trkpt lat="42.90528" lon="11.93001">
        <ele>0.0</ele>
      </trkpt>
      <trkpt lat="42.905305" lon="11.929819">
        <ele>354.673737</ele>
        <time>2018-08-04T10:25:29Z</time>
      </trkpt>
      <trkpt lat="42.905000" lon="11.927850">
        <ele>357.836823</ele>
        <time>2018-08-04T10:25:45Z</time>
      </trkpt>
      <trkpt lat="42.905685" lon="11.925349">
        <ele>361.514587</ele>
        <time>2018-08-04T10:26:00Z</time>
      </trkpt>
      <trkpt lat="42.906118" lon="11.922670">
        <ele>362.705139</ele>
        <time>2018-08-04T10:26:16Z</time>
      </trkpt>
      <trkpt lat="42.906690" lon="11.920194">
        <ele>376.910889</ele>
        <time>2018-08-04T10:26:31Z</time>
      </trkpt>
      <trkpt lat="42.907187" lon="11.918501">
        <ele>386.415070</ele>
        <time>2018-08-04T10:26:46Z</time>
      </trkpt>
      <trkpt lat="42.907359" lon="11.917963">
        <ele>388.832611</ele>
        <time>2018-08-04T10:27:02Z</time>
      </trkpt>
      <trkpt lat="42.907817" lon="11.918164">
        <ele>386.804504</ele>
        <time>2018-08-04T10:27:17Z</time>
      </trkpt>
      <trkpt lat="42.908841" lon="11.916161">
        <ele>378.882812</ele>
        <time>2018-08-04T10:27:33Z</time>
      </trkpt>
      <trkpt lat="42.910820" lon="11.915548">
        <ele>369.484863</ele>
        <time>2018-08-04T10:27:49Z</time>
      </trkpt>
      <trkpt lat="42.911710" lon="11.917874">
        <ele>350.017426</ele>
        <time>2018-08-04T10:28:04Z</time>
      </trkpt>
      <trkpt lat="42.913628" lon="11.918988">
        <ele>336.906158</ele>
        <time>2018-08-04T10:28:20Z</time>
      </trkpt>
      <trkpt lat="42.914370" lon="11.916770">
        <ele>335.971649</ele>
        <time>2018-08-04T10:28:35Z</time>
      </trkpt>
      <trkpt lat="42.916520" lon="11.917285">
        <ele>323.849365</ele>
        <time>2018-08-04T10:28:51Z</time>
      </trkpt>
      <trkpt lat="42.917962" lon="11.915968">
        <ele>323.313721</ele>
        <time>2018-08-04T10:29:07Z</time>
      </trkpt>
      <trkpt lat="42.919789" lon="11.916146">
        <ele>328.281860</ele>
        <time>2018-08-04T10:29:23Z</time>
      </trkpt>
      <trkpt lat="42.921166" lon="11.916999">
        <ele>338.407776</ele>
        <time>2018-08-04T10:29:38Z</time>
      </trkpt>
      <trkpt lat="42.922471" lon="11.916609">
        <ele>340.925751</ele>
        <time>2018-08-04T10:29:54Z</time>
      </trkpt>
      <trkpt lat="42.922320" lon="11.914629">
        <ele>347.690247</ele>
        <time>2018-08-04T10:30:09Z</time>
      </trkpt>
      <trkpt lat="42.924353" lon="11.915708">
        <ele>322.730896</ele>
        <time>2018-08-04T10:30:25Z</time>
      </trkpt>
      <trkpt lat="42.925473" lon="11.915018">
        <ele>323.700684</ele>
        <time>2018-08-04T10:30:41Z</time>
      </trkpt>
      <trkpt lat="42.927355" lon="11.916832">
        <ele>320.205872</ele>
        <time>2018-08-04T10:30:56Z</time>
      </trkpt>
      <trkpt lat="42.929497" lon="11.919228">
        <ele>314.454529</ele>
        <time>2018-08-04T10:31:12Z</time>
      </trkpt>
      <trkpt lat="42.931420" lon="11.921728">
        <ele>317.019226</ele>
        <time>2018-08-04T10:31:28Z</time>
      </trkpt>
      <trkpt lat="42.933753" lon="11.922019">
        <ele>317.063293</ele>
        <time>2018-08-04T10:31:43Z</time>
      </trkpt>
      <trkpt lat="42.935187" lon="11.923786">
        <ele>319.089935</ele>
        <time>2018-08-04T10:31:59Z</time>
      </trkpt>
      <trkpt lat="42.937263" lon="11.925163">
        <ele>306.043488</ele>
        <time>2018-08-04T10:32:15Z</time>
      </trkpt>
      <trkpt lat="42.939195" lon="11.925612">
        <ele>294.162659</ele>
        <time>2018-08-04T10:32:30Z</time>
      </trkpt>
      <trkpt lat="42.940509" lon="11.925258">
        <ele>280.733826</ele>
        <time>2018-08-04T10:32:45Z</time>
      </trkpt>
      <trkpt lat="42.942321" lon="11.924440">
        <ele>268.398895</ele>
        <time>2018-08-04T10:33:01Z</time>
      </trkpt>
      <trkpt lat="42.944806" lon="11.923066">
        <ele>275.821686</ele>
        <time>2018-08-04T10:33:17Z</time>
      </trkpt>
      <trkpt lat="42.947335" lon="11.921776">
        <ele>292.237732</ele>
        <time>2018-08-04T10:33:32Z</time>
      </trkpt>
      <trkpt lat="42.949038" lon="11.920122">
        <ele>287.619202</ele>
        <time>2018-08-04T10:33:47Z</time>
      </trkpt>
      <trkpt lat="42.951243" lon="11.918137">
        <ele>272.997314</ele>
        <time>2018-08-04T10:34:03Z</time>
      </trkpt>
      <trkpt lat="42.952568" lon="11.915788">
        <ele>285.877472</ele>
        <time>2018-08-04T10:34:19Z</time>
      </trkpt>
      <trkpt lat="42.953710" lon="11.916152">
        <ele>293.605835</ele>
        <time>2018-08-04T10:34:34Z</time>
      </trkpt>
      <trkpt lat="42.955449" lon="11.914415">
        <ele>287.114502</ele>
        <time>2018-08-04T10:34:49Z</time>
      </trkpt>
      <trkpt lat="42.957272" lon="11.911834">
        <ele>271.346558</ele>
        <time>2018-08-04T10:35:05Z</time>
      </trkpt>
      <trkpt lat="42.958571" lon="11.910062">
        <ele>274.306519</ele>
        <time>2018-08-04T10:35:20Z</time>
      </trkpt>
      <trkpt lat="42.960156" lon="11.908699">
        <ele>282.489044</ele>
        <time>2018-08-04T10:35:35Z</time>
      </trkpt>
      <trkpt lat="42.962143" lon="11.907795">
        <ele>286.542328</ele>
        <time>2018-08-04T10:35:51Z</time>
      </trkpt>
      <trkpt lat="42.963223" lon="11.905943">
        <ele>296.712769</ele>
        <time>2018-08-04T10:36:06Z</time>
      </trkpt>
      <trkpt lat="42.964933" lon="11.906004">
        <ele>309.288116</ele>
        <time>2018-08-04T10:36:21Z</time>
      </trkpt>
      <trkpt lat="42.965389" lon="11.905213">
        <ele>312.154327</ele>
        <time>2018-08-04T10:36:36Z</time>
      </trkpt>
      <trkpt lat="42.966340" lon="11.903876">
        <ele>322.490448</ele>
        <time>2018-08-04T10:36:52Z</time>
      </trkpt>
      <trkpt lat="42.966828" lon="11.902580">
        <ele>327.299072</ele>
        <time>2018-08-04T10:37:07Z</time>
      </trkpt>
      <trkpt lat="42.966311" lon="11.901671">
        <ele>331.400879</ele>
        <time>2018-08-04T10:37:23Z</time>
      </trkpt>
      <trkpt lat="42.965429" lon="11.900416">
        <ele>346.280212</ele>
        <time>2018-08-04T10:37:39Z</time>
      </trkpt>
      <trkpt lat="42.965557" lon="11.899904">
        <ele>350.908875</ele>
        <time>2018-08-04T10:37:55Z</time>
      </trkpt>
      <trkpt lat="42.965813" lon="11.900308">
        <ele>348.004303</ele>
        <time>2018-08-04T10:38:10Z</time>
      </trkpt>
      <trkpt lat="42.965956" lon="11.900578">
        <ele>345.039917</ele>
        <time>2018-08-04T10:38:26Z</time>
      </trkpt>
      <trkpt lat="42.965887" lon="11.900411">
        <ele>346.928253</ele>
        <time>2018-08-04T10:44:47Z</time>
      </trkpt>
      <trkpt lat="42.965809" lon="11.900232">
        <ele>348.727509</ele>
        <time>2018-08-04T10:45:03Z</time>
      </trkpt>
      <trkpt lat="42.965794" lon="11.900048">
        <ele>350.446533</ele>
        <time>2018-08-04T10:45:20Z</time>
      </trkpt>
      <trkpt lat="42.965634" lon="11.900005">
        <ele>350.477661</ele>
        <time>2018-08-04T10:45:35Z</time>
      </trkpt>
      <trkpt lat="42.965467" lon="11.900031">
        <ele>349.841248</ele>
        <time>2018-08-04T10:45:51Z</time>
      </trkpt>
      <trkpt lat="42.965413" lon="11.900244">
        <ele>347.795532</ele>
        <time>2018-08-04T10:46:07Z</time>
      </trkpt>
      <trkpt lat="42.965264" lon="11.900277">
        <ele>347.202240</ele>
        <time>2018-08-04T10:46:23Z</time>
      </trkpt>
      <trkpt lat="42.965084" lon="11.900298">
        <ele>346.664337</ele>
        <time>2018-08-04T10:46:39Z</time>
      </trkpt>
      <trkpt lat="42.964928" lon="11.900342">
        <ele>346.750580</ele>
        <time>2018-08-04T10:46:54Z</time>
      </trkpt>
      <trkpt lat="42.964740" lon="11.900357">
        <ele>348.270905</ele>
        <time>2018-08-04T10:47:10Z</time>
      </trkpt>
      <trkpt lat="42.964571" lon="11.900375">
        <ele>349.639191</ele>
        <time>2018-08-04T10:47:25Z</time>
      </trkpt>
      <trkpt lat="42.964451" lon="11.900470">
        <ele>350.123199</ele>
        <time>2018-08-04T10:47:46Z</time>
      </trkpt>
      <trkpt lat="42.964310" lon="11.900478">
        <ele>351.378418</ele>
        <time>2018-08-04T10:48:02Z</time>
      </trkpt>
      <trkpt lat="42.964130" lon="11.900484">
        <ele>352.735687</ele>
        <time>2018-08-04T10:48:18Z</time>
      </trkpt>
      <trkpt lat="42.963997" lon="11.900455">
        <ele>352.966309</ele>
        <time>2018-08-04T10:48:34Z</time>
      </trkpt>
      <trkpt lat="42.963867" lon="11.900508">
        <ele>353.192474</ele>
        <time>2018-08-04T10:51:58Z</time>
      </trkpt>
      <trkpt lat="42.963725" lon="11.900582">
        <ele>353.891357</ele>
        <time>2018-08-04T10:52:13Z</time>
      </trkpt>
      <trkpt lat="42.963831" lon="11.900740">
        <ele>353.949219</ele>
        <time>2018-08-04T10:52:29Z</time>
      </trkpt>
      <trkpt lat="42.964005" lon="11.900871">
        <ele>352.786957</ele>
        <time>2018-08-04T10:52:55Z</time>
      </trkpt>
      <trkpt lat="42.964143" lon="11.900914">
        <ele>351.551239</ele>
        <time>2018-08-04T10:54:51Z</time>
      </trkpt>
      <trkpt lat="42.964272" lon="11.901047">
        <ele>350.180542</ele>
        <time>2018-08-04T10:55:07Z</time>
      </trkpt>
      <trkpt lat="42.964421" lon="11.901222">
        <ele>347.659760</ele>
        <time>2018-08-04T10:55:23Z</time>
      </trkpt>
      <trkpt lat="42.964494" lon="11.901380">
        <ele>345.816956</ele>
        <time>2018-08-04T11:00:02Z</time>
      </trkpt>
      <trkpt lat="42.964461" lon="11.901566">
        <ele>346.101379</ele>
        <time>2018-08-04T11:00:20Z</time>
      </trkpt>
      <trkpt lat="42.964329" lon="11.901643">
        <ele>349.522400</ele>
        <time>2018-08-04T11:00:35Z</time>
      </trkpt>
      <trkpt lat="42.964194" lon="11.901693">
        <ele>352.817963</ele>
        <time>2018-08-04T11:01:01Z</time>
      </trkpt>
      <trkpt lat="42.964062" lon="11.901737">
        <ele>355.155304</ele>
        <time>2018-08-04T11:01:21Z</time>
      </trkpt>
      <trkpt lat="42.963959" lon="11.901575">
        <ele>358.105194</ele>
        <time>2018-08-04T11:02:14Z</time>
      </trkpt>
      <trkpt lat="42.963902" lon="11.901394">
        <ele>357.911530</ele>
        <time>2018-08-04T11:03:01Z</time>
      </trkpt>
      <trkpt lat="42.963810" lon="11.901251">
        <ele>358.289246</ele>
        <time>2018-08-04T11:03:19Z</time>
      </trkpt>
      <trkpt lat="42.963699" lon="11.901134">
        <ele>358.797241</ele>
        <time>2018-08-04T11:03:59Z</time>
      </trkpt>
      <trkpt lat="42.963554" lon="11.901077">
        <ele>360.117859</ele>
        <time>2018-08-04T11:04:14Z</time>
      </trkpt>
      <trkpt lat="42.963398" lon="11.900960">
        <ele>360.386322</ele>
        <time>2018-08-04T11:04:30Z</time>
      </trkpt>
      <trkpt lat="42.963251" lon="11.900827">
        <ele>357.716370</ele>
        <time>2018-08-04T11:04:46Z</time>
      </trkpt>
      <trkpt lat="42.963204" lon="11.901002">
        <ele>360.005676</ele>
        <time>2018-08-04T11:06:57Z</time>
      </trkpt>
      <trkpt lat="42.962989" lon="11.900958">
        <ele>356.195374</ele>
        <time>2018-08-04T11:07:13Z</time>
      </trkpt>
      <trkpt lat="42.962861" lon="11.901026">
        <ele>355.562622</ele>
        <time>2018-08-04T11:07:31Z</time>
      </trkpt>
      <trkpt lat="42.962996" lon="11.901002">
        <ele>357.062622</ele>
        <time>2018-08-04T11:09:03Z</time>
      </trkpt>
      <trkpt lat="42.963129" lon="11.900949">
        <ele>358.035431</ele>
        <time>2018-08-04T11:09:21Z</time>
      </trkpt>
      <trkpt lat="42.963198" lon="11.900788">
        <ele>356.282776</ele>
        <time>2018-08-04T11:09:59Z</time>
      </trkpt>
      <trkpt lat="42.963130" lon="11.900591">
        <ele>351.734863</ele>
        <time>2018-08-04T11:10:15Z</time>
      </trkpt>
      <trkpt lat="42.962992" lon="11.900572">
        <ele>348.773499</ele>
        <time>2018-08-04T11:10:54Z</time>
      </trkpt>
      <trkpt lat="42.962684" lon="11.900340">
        <ele>337.002228</ele>
        <time>2018-08-04T11:11:09Z</time>
      </trkpt>
      <trkpt lat="42.962578" lon="11.900468">
        <ele>338.094177</ele>
        <time>2018-08-04T11:11:25Z</time>
      </trkpt>
      <trkpt lat="42.962543" lon="11.900778">
        <ele>346.070618</ele>
        <time>2018-08-04T11:11:41Z</time>
      </trkpt>
      <trkpt lat="42.962462" lon="11.900927">
        <ele>347.104370</ele>
        <time>2018-08-04T11:12:00Z</time>
      </trkpt>
      <trkpt lat="42.962349" lon="11.901079">
        <ele>345.093872</ele>
        <time>2018-08-04T11:12:15Z</time>
      </trkpt>
      <trkpt lat="42.962394" lon="11.900899">
        <ele>343.719971</ele>
        <time>2018-08-04T11:13:20Z</time>
      </trkpt>
      <trkpt lat="42.962547" lon="11.900848">
        <ele>347.926270</ele>
        <time>2018-08-04T11:13:36Z</time>
      </trkpt>
      <trkpt lat="42.962691" lon="11.900775">
        <ele>348.258972</ele>
        <time>2018-08-04T11:13:51Z</time>
      </trkpt>
      <trkpt lat="42.962828" lon="11.900677">
        <ele>348.089417</ele>
        <time>2018-08-04T11:14:06Z</time>
      </trkpt>
      <trkpt lat="42.963015" lon="11.900710">
        <ele>351.961304</ele>
        <time>2018-08-04T11:14:21Z</time>
      </trkpt>
      <trkpt lat="42.963164" lon="11.900708">
        <ele>354.375671</ele>
        <time>2018-08-04T11:14:37Z</time>
      </trkpt>
      <trkpt lat="42.963340" lon="11.900695">
        <ele>356.966705</ele>
        <time>2018-08-04T11:14:53Z</time>
      </trkpt>
      <trkpt lat="42.963565" lon="11.900682">
        <ele>355.408203</ele>
        <time>2018-08-04T11:15:09Z</time>
      </trkpt>
      <trkpt lat="42.963754" lon="11.900657">
        <ele>354.129944</ele>
        <time>2018-08-04T11:15:24Z</time>
      </trkpt>
      <trkpt lat="42.963922" lon="11.900510">
        <ele>353.079407</ele>
        <time>2018-08-04T11:15:40Z</time>
      </trkpt>
      <trkpt lat="42.964036" lon="11.900339">
        <ele>353.139160</ele>
        <time>2018-08-04T11:26:30Z</time>
      </trkpt>
      <trkpt lat="42.964015" lon="11.900529">
        <ele>352.852173</ele>
        <time>2018-08-04T11:26:48Z</time>
      </trkpt>
      <trkpt lat="42.963966" lon="11.900286">
        <ele>353.024170</ele>
        <time>2018-08-04T11:38:23Z</time>
      </trkpt>
      <trkpt lat="42.963960" lon="11.900024">
        <ele>353.017456</ele>
        <time>2018-08-04T11:38:38Z</time>
      </trkpt>
      <trkpt lat="42.963957" lon="11.900327">
        <ele>352.997467</ele>
        <time>2018-08-04T11:39:37Z</time>
      </trkpt>
      <trkpt lat="42.963839" lon="11.900422">
        <ele>353.014465</ele>
        <time>2018-08-04T11:43:34Z</time>
      </trkpt>
      <trkpt lat="42.963723" lon="11.900516">
        <ele>353.538940</ele>
        <time>2018-08-04T11:43:55Z</time>
      </trkpt>
      <trkpt lat="42.963954" lon="11.900448">
        <ele>353.003265</ele>
        <time>2018-08-04T11:53:25Z</time>
      </trkpt>
      <trkpt lat="42.963938" lon="11.900989">
        <ele>354.324768</ele>
        <time>2018-08-04T11:53:41Z</time>
      </trkpt>
      <trkpt lat="42.963959" lon="11.900401">
        <ele>353.000275</ele>
        <time>2018-08-04T11:53:57Z</time>
      </trkpt>
      <trkpt lat="42.964180" lon="11.900720">
        <ele>351.410156</ele>
        <time>2018-08-04T12:20:14Z</time>
      </trkpt>
      <trkpt lat="42.964000" lon="11.900396">
        <ele>353.019287</ele>
        <time>2018-08-04T12:20:30Z</time>
      </trkpt>
      <trkpt lat="42.964139" lon="11.900452">
        <ele>352.854950</ele>
        <time>2018-08-04T12:25:45Z</time>
      </trkpt>
      <trkpt lat="42.964333" lon="11.900459">
        <ele>351.267883</ele>
        <time>2018-08-04T12:26:01Z</time>
      </trkpt>
      <trkpt lat="42.964496" lon="11.900425">
        <ele>349.985657</ele>
        <time>2018-08-04T12:26:16Z</time>
      </trkpt>
      <trkpt lat="42.964671" lon="11.900425">
        <ele>348.404144</ele>
        <time>2018-08-04T12:26:32Z</time>
      </trkpt>
      <trkpt lat="42.964832" lon="11.900369">
        <ele>347.374207</ele>
        <time>2018-08-04T12:26:48Z</time>
      </trkpt>
      <trkpt lat="42.964969" lon="11.900356">
        <ele>346.277740</ele>
        <time>2018-08-04T12:27:04Z</time>
      </trkpt>
      <trkpt lat="42.965128" lon="11.900348">
        <ele>346.321533</ele>
        <time>2018-08-04T12:27:20Z</time>
      </trkpt>
      <trkpt lat="42.965341" lon="11.900249">
        <ele>347.602600</ele>
        <time>2018-08-04T12:27:35Z</time>
      </trkpt>
      <trkpt lat="42.965439" lon="11.900122">
        <ele>348.954102</ele>
        <time>2018-08-04T12:27:52Z</time>
      </trkpt>
      <trkpt lat="42.965561" lon="11.900037">
        <ele>350.004089</ele>
        <time>2018-08-04T12:28:11Z</time>
      </trkpt>
      <trkpt lat="42.965700" lon="11.900031">
        <ele>350.391632</ele>
        <time>2018-08-04T12:28:28Z</time>
      </trkpt>
      <trkpt lat="42.965785" lon="11.900195">
        <ele>349.020782</ele>
        <time>2018-08-04T12:28:43Z</time>
      </trkpt>
      <trkpt lat="42.965812" lon="11.900397">
        <ele>347.147858</ele>
        <time>2018-08-04T12:28:58Z</time>
      </trkpt>
      <trkpt lat="42.965917" lon="11.900571">
        <ele>345.242188</ele>
        <time>2018-08-04T12:29:14Z</time>
      </trkpt>
      <trkpt lat="42.965818" lon="11.900393">
        <ele>347.197601</ele>
        <time>2018-08-04T12:34:30Z</time>
      </trkpt>
      <trkpt lat="42.966101" lon="11.899484">
        <ele>351.818481</ele>
        <time>2018-08-04T12:34:45Z</time>
      </trkpt>
      <trkpt lat="42.966082" lon="11.898851">
        <ele>352.224884</ele>
        <time>2018-08-04T12:35:00Z</time>
      </trkpt>
      <trkpt lat="42.965947" lon="11.898587">
        <ele>352.451630</ele>
        <time>2018-08-04T12:35:15Z</time>
      </trkpt>
      <trkpt lat="42.966639" lon="11.896941">
        <ele>360.347351</ele>
        <time>2018-08-04T12:35:31Z</time>
      </trkpt>
      <trkpt lat="42.967465" lon="11.894914">
        <ele>369.475708</ele>
        <time>2018-08-04T12:35:46Z</time>
      </trkpt>
      <trkpt lat="42.968789" lon="11.892424">
        <ele>372.625824</ele>
        <time>2018-08-04T12:36:02Z</time>
      </trkpt>
      <trkpt lat="42.969885" lon="11.889817">
        <ele>375.267822</ele>
        <time>2018-08-04T12:36:17Z</time>
      </trkpt>
      <trkpt lat="42.972292" lon="11.889999">
        <ele>352.254333</ele>
        <time>2018-08-04T12:36:33Z</time>
      </trkpt>
      <trkpt lat="42.973938" lon="11.891282">
        <ele>333.414795</ele>
        <time>2018-08-04T12:36:48Z</time>
      </trkpt>
      <trkpt lat="42.973880" lon="11.888533">
        <ele>339.127838</ele>
        <time>2018-08-04T12:37:04Z</time>
      </trkpt>
      <trkpt lat="42.976078" lon="11.889150">
        <ele>321.413940</ele>
        <time>2018-08-04T12:37:19Z</time>
      </trkpt>
      <trkpt lat="42.978231" lon="11.889021">
        <ele>332.689880</ele>
        <time>2018-08-04T12:37:35Z</time>
      </trkpt>
      <trkpt lat="42.978207" lon="11.887346">
        <ele>349.137695</ele>
        <time>2018-08-04T12:37:50Z</time>
      </trkpt>
      <trkpt lat="42.979109" lon="11.887238">
        <ele>363.272827</ele>
        <time>2018-08-04T12:38:05Z</time>
      </trkpt>
      <trkpt lat="42.979771" lon="11.886607">
        <ele>380.440552</ele>
        <time>2018-08-04T12:38:21Z</time>
      </trkpt>
      <trkpt lat="42.980112" lon="11.885587">
        <ele>397.970520</ele>
        <time>2018-08-04T12:38:37Z</time>
      </trkpt>
      <trkpt lat="42.981080" lon="11.887969">
        <ele>390.775726</ele>
        <time>2018-08-04T12:38:53Z</time>
      </trkpt>
      <trkpt lat="42.982124" lon="11.885953">
        <ele>417.468262</ele>
        <time>2018-08-04T12:39:08Z</time>
      </trkpt>
      <trkpt lat="42.981244" lon="11.883740">
        <ele>433.341919</ele>
        <time>2018-08-04T12:39:24Z</time>
      </trkpt>
      <trkpt lat="42.980104" lon="11.880966">
        <ele>453.011047</ele>
        <time>2018-08-04T12:39:40Z</time>
      </trkpt>
      <trkpt lat="42.979339" lon="11.877873">
        <ele>467.565002</ele>
        <time>2018-08-04T12:39:56Z</time>
      </trkpt>
      <trkpt lat="42.978757" lon="11.876797">
        <ele>474.027283</ele>
        <time>2018-08-04T12:40:11Z</time>
      </trkpt>
      <trkpt lat="42.980737" lon="11.877995">
        <ele>490.995178</ele>
        <time>2018-08-04T12:40:26Z</time>
      </trkpt>
      <trkpt lat="42.982497" lon="11.880339">
        <ele>504.124207</ele>
        <time>2018-08-04T12:40:42Z</time>
      </trkpt>
      <trkpt lat="42.984379" lon="11.878858">
        <ele>516.276001</ele>
        <time>2018-08-04T12:40:57Z</time>
      </trkpt>
      <trkpt lat="42.985918" lon="11.876943">
        <ele>517.432922</ele>
        <time>2018-08-04T12:41:13Z</time>
      </trkpt>
      <trkpt lat="42.987461" lon="11.875107">
        <ele>517.994019</ele>
        <time>2018-08-04T12:41:29Z</time>
      </trkpt>
      <trkpt lat="42.988749" lon="11.873475">
        <ele>519.573792</ele>
        <time>2018-08-04T12:41:45Z</time>
      </trkpt>
      <trkpt lat="42.988919" lon="11.872975">
        <ele>520.558228</ele>
        <time>2018-08-04T12:42:00Z</time>
      </trkpt>
      <trkpt lat="42.989336" lon="11.872646">
        <ele>520.753784</ele>
        <time>2018-08-04T12:42:15Z</time>
      </trkpt>
      <trkpt lat="42.990078" lon="11.871743">
        <ele>525.411133</ele>
        <time>2018-08-04T12:42:31Z</time>
      </trkpt>
      <trkpt lat="42.990103" lon="11.871284">
        <ele>530.701904</ele>
        <time>2018-08-04T12:42:47Z</time>
      </trkpt>
      <trkpt lat="42.989588" lon="11.870441">
        <ele>534.140503</ele>
        <time>2018-08-04T12:43:02Z</time>
      </trkpt>
      <trkpt lat="42.989439" lon="11.870014">
        <ele>535.186951</ele>
        <time>2018-08-04T12:43:33Z</time>
      </trkpt>
      <trkpt lat="42.989074" lon="11.869947">
        <ele>531.349182</ele>
        <time>2018-08-04T12:43:49Z</time>
      </trkpt>
      <trkpt lat="42.988344" lon="11.870000">
        <ele>526.078613</ele>
        <time>2018-08-04T12:44:05Z</time>
      </trkpt>
      <trkpt lat="42.987770" lon="11.870066">
        <ele>523.816772</ele>
        <time>2018-08-04T12:44:20Z</time>
      </trkpt>
      <trkpt lat="42.987831" lon="11.870320">
        <ele>523.350586</ele>
        <time>2018-08-04T12:44:35Z</time>
      </trkpt>
      <trkpt lat="42.987951" lon="11.871736">
        <ele>520.624512</ele>
        <time>2018-08-04T12:44:51Z</time>
      </trkpt>
      <trkpt lat="42.988477" lon="11.873389">
        <ele>519.810791</ele>
        <time>2018-08-04T12:45:07Z</time>
      </trkpt>
      <trkpt lat="42.988724" lon="11.873466">
        <ele>519.596191</ele>
        <time>2018-08-04T12:45:23Z</time>
      </trkpt>
      <trkpt lat="42.989226" lon="11.873744">
        <ele>518.942078</ele>
        <time>2018-08-04T12:45:38Z</time>
      </trkpt>
      <trkpt lat="42.989468" lon="11.875189">
        <ele>515.889099</ele>
        <time>2018-08-04T12:45:53Z</time>
      </trkpt>
      <trkpt lat="42.989543" lon="11.875013">
        <ele>516.414124</ele>
        <time>2018-08-04T12:46:09Z</time>
      </trkpt>
      <trkpt lat="42.989227" lon="11.873510">
        <ele>519.461060</ele>
        <time>2018-08-04T12:46:25Z</time>
      </trkpt>
      <trkpt lat="42.988935" lon="11.872953">
        <ele>520.582825</ele>
        <time>2018-08-04T12:46:40Z</time>
      </trkpt>
      <trkpt lat="42.988488" lon="11.873421">
        <ele>519.704895</ele>
        <time>2018-08-04T12:46:56Z</time>
      </trkpt>
      <trkpt lat="42.987967" lon="11.871510">
        <ele>520.929443</ele>
        <time>2018-08-04T12:47:11Z</time>
      </trkpt>
      <trkpt lat="42.987831" lon="11.870074">
        <ele>523.996094</ele>
        <time>2018-08-04T12:47:27Z</time>
      </trkpt>
      <trkpt lat="42.987681" lon="11.868614">
        <ele>525.388611</ele>
        <time>2018-08-04T12:47:42Z</time>
      </trkpt>
      <trkpt lat="42.987289" lon="11.866480">
        <ele>527.631104</ele>
        <time>2018-08-04T12:47:58Z</time>
      </trkpt>
      <trkpt lat="42.987780" lon="11.864982">
        <ele>529.700500</ele>
        <time>2018-08-04T12:48:14Z</time>
      </trkpt>
      <trkpt lat="42.988719" lon="11.865295">
        <ele>532.577576</ele>
        <time>2018-08-04T12:48:30Z</time>
      </trkpt>
      <trkpt lat="42.989119" lon="11.866036">
        <ele>533.843750</ele>
        <time>2018-08-04T12:48:45Z</time>
      </trkpt>
      <trkpt lat="42.989491" lon="11.866008">
        <ele>538.466492</ele>
        <time>2018-08-04T12:49:00Z</time>
      </trkpt>
      <trkpt lat="42.990647" lon="11.864463">
        <ele>534.568481</ele>
        <time>2018-08-04T12:49:15Z</time>
      </trkpt>
      <trkpt lat="42.992062" lon="11.864453">
        <ele>530.416260</ele>
        <time>2018-08-04T12:49:30Z</time>
      </trkpt>
      <trkpt lat="42.993618" lon="11.863558">
        <ele>528.230591</ele>
        <time>2018-08-04T12:49:46Z</time>
      </trkpt>
      <trkpt lat="42.995085" lon="11.862684">
        <ele>528.018188</ele>
        <time>2018-08-04T12:50:02Z</time>
      </trkpt>
      <trkpt lat="42.996764" lon="11.861610">
        <ele>525.049805</ele>
        <time>2018-08-04T12:50:17Z</time>
      </trkpt>
      <trkpt lat="42.998527" lon="11.860194">
        <ele>529.301880</ele>
        <time>2018-08-04T12:50:32Z</time>
      </trkpt>
      <trkpt lat="42.998049" lon="11.856979">
        <ele>547.526550</ele>
        <time>2018-08-04T12:50:47Z</time>
      </trkpt>
      <trkpt lat="42.999483" lon="11.855166">
        <ele>549.117249</ele>
        <time>2018-08-04T12:51:03Z</time>
      </trkpt>
      <trkpt lat="43.000931" lon="11.853741">
        <ele>534.794983</ele>
        <time>2018-08-04T12:51:18Z</time>
      </trkpt>
      <trkpt lat="43.003214" lon="11.853022">
        <ele>518.098755</ele>
        <time>2018-08-04T12:51:34Z</time>
      </trkpt>
      <trkpt lat="43.005419" lon="11.851085">
        <ele>511.921021</ele>
        <time>2018-08-04T12:51:49Z</time>
      </trkpt>
      <trkpt lat="43.007359" lon="11.848406">
        <ele>516.965454</ele>
        <time>2018-08-04T12:52:05Z</time>
      </trkpt>
      <trkpt lat="43.008786" lon="11.845488">
        <ele>515.961792</ele>
        <time>2018-08-04T12:52:20Z</time>
      </trkpt>
      <trkpt lat="43.010562" lon="11.842218">
        <ele>518.084656</ele>
        <time>2018-08-04T12:52:35Z</time>
      </trkpt>
      <trkpt lat="43.012315" lon="11.839854">
        <ele>517.502441</ele>
        <time>2018-08-04T12:52:51Z</time>
      </trkpt>
      <trkpt lat="43.014147" lon="11.840290">
        <ele>501.084595</ele>
        <time>2018-08-04T12:53:06Z</time>
      </trkpt>
      <trkpt lat="43.016503" lon="11.839452">
        <ele>489.005920</ele>
        <time>2018-08-04T12:53:22Z</time>
      </trkpt>
      <trkpt lat="43.019096" lon="11.839692">
        <ele>470.530731</ele>
        <time>2018-08-04T12:53:38Z</time>
      </trkpt>
      <trkpt lat="43.021630" lon="11.839204">
        <ele>450.625610</ele>
        <time>2018-08-04T12:53:54Z</time>
      </trkpt>
      <trkpt lat="43.023997" lon="11.838277">
        <ele>431.520569</ele>
        <time>2018-08-04T12:54:09Z</time>
      </trkpt>
      <trkpt lat="43.026163" lon="11.836850">
        <ele>409.785339</ele>
        <time>2018-08-04T12:54:25Z</time>
      </trkpt>
      <trkpt lat="43.027484" lon="11.837359">
        <ele>398.392609</ele>
        <time>2018-08-04T12:54:40Z</time>
      </trkpt>
      <trkpt lat="43.026595" lon="11.835130">
        <ele>387.794586</ele>
        <time>2018-08-04T12:54:55Z</time>
      </trkpt>
      <trkpt lat="43.028245" lon="11.833058">
        <ele>392.303284</ele>
        <time>2018-08-04T12:55:11Z</time>
      </trkpt>
      <trkpt lat="43.030602" lon="11.833848">
        <ele>400.048401</ele>
        <time>2018-08-04T12:55:27Z</time>
      </trkpt>
      <trkpt lat="43.032420" lon="11.833592">
        <ele>419.142822</ele>
        <time>2018-08-04T12:55:42Z</time>
      </trkpt>
      <trkpt lat="43.034069" lon="11.835085">
        <ele>428.425873</ele>
        <time>2018-08-04T12:55:57Z</time>
      </trkpt>
      <trkpt lat="43.035284" lon="11.834721">
        <ele>440.265503</ele>
        <time>2018-08-04T12:56:13Z</time>
      </trkpt>
      <trkpt lat="43.035035" lon="11.832785">
        <ele>450.816681</ele>
        <time>2018-08-04T12:56:28Z</time>
      </trkpt>
      <trkpt lat="43.034591" lon="11.830162">
        <ele>474.500336</ele>
        <time>2018-08-04T12:56:44Z</time>
      </trkpt>
      <trkpt lat="43.033937" lon="11.827453">
        <ele>497.358093</ele>
        <time>2018-08-04T12:56:59Z</time>
      </trkpt>
      <trkpt lat="43.033830" lon="11.824339">
        <ele>506.507996</ele>
        <time>2018-08-04T12:57:15Z</time>
      </trkpt>
      <trkpt lat="43.033558" lon="11.820845">
        <ele>531.097534</ele>
        <time>2018-08-04T12:57:31Z</time>
      </trkpt>
      <trkpt lat="43.034598" lon="11.817715">
        <ele>543.694824</ele>
        <time>2018-08-04T12:57:47Z</time>
      </trkpt>
      <trkpt lat="43.035066" lon="11.814202">
        <ele>535.737122</ele>
        <time>2018-08-04T12:58:03Z</time>
      </trkpt>
      <trkpt lat="43.035541" lon="11.811256">
        <ele>541.808838</ele>
        <time>2018-08-04T12:58:18Z</time>
      </trkpt>
      <trkpt lat="43.037800" lon="11.811640">
        <ele>541.088806</ele>
        <time>2018-08-04T12:58:33Z</time>
      </trkpt>
      <trkpt lat="43.038411" lon="11.811267">
        <ele>542.036682</ele>
        <time>2018-08-04T12:58:49Z</time>
      </trkpt>
      <trkpt lat="43.039512" lon="11.810085">
        <ele>541.658569</ele>
        <time>2018-08-04T12:59:04Z</time>
      </trkpt>
      <trkpt lat="43.039852" lon="11.808884">
        <ele>544.216064</ele>
        <time>2018-08-04T12:59:20Z</time>
      </trkpt>
      <trkpt lat="43.040557" lon="11.806214">
        <ele>550.487000</ele>
        <time>2018-08-04T12:59:35Z</time>
      </trkpt>
      <trkpt lat="43.041290" lon="11.803285">
        <ele>555.293945</ele>
        <time>2018-08-04T12:59:50Z</time>
      </trkpt>
      <trkpt lat="43.039858" lon="11.800095">
        <ele>544.998901</ele>
        <time>2018-08-04T13:00:06Z</time>
      </trkpt>
      <trkpt lat="43.038285" lon="11.797810">
        <ele>542.530457</ele>
        <time>2018-08-04T13:00:22Z</time>
      </trkpt>
      <trkpt lat="43.035588" lon="11.798124">
        <ele>525.929443</ele>
        <time>2018-08-04T13:00:38Z</time>
      </trkpt>
      <trkpt lat="43.033806" lon="11.798681">
        <ele>509.671692</ele>
        <time>2018-08-04T13:00:54Z</time>
      </trkpt>
      <trkpt lat="43.034617" lon="11.796406">
        <ele>491.898315</ele>
        <time>2018-08-04T13:01:09Z</time>
      </trkpt>
      <trkpt lat="43.033251" lon="11.796479">
        <ele>475.634552</ele>
        <time>2018-08-04T13:01:24Z</time>
      </trkpt>
      <trkpt lat="43.031835" lon="11.798374">
        <ele>461.803986</ele>
        <time>2018-08-04T13:01:40Z</time>
      </trkpt>
      <trkpt lat="43.029993" lon="11.796624">
        <ele>470.403259</ele>
        <time>2018-08-04T13:01:55Z</time>
      </trkpt>
      <trkpt lat="43.028080" lon="11.794942">
        <ele>481.797241</ele>
        <time>2018-08-04T13:02:11Z</time>
      </trkpt>
      <trkpt lat="43.027293" lon="11.792052">
        <ele>504.762970</ele>
        <time>2018-08-04T13:02:27Z</time>
      </trkpt>
      <trkpt lat="43.026348" lon="11.788087">
        <ele>526.523987</ele>
        <time>2018-08-04T13:02:43Z</time>
      </trkpt>
      <trkpt lat="43.026374" lon="11.784138">
        <ele>532.716675</ele>
        <time>2018-08-04T13:02:59Z</time>
      </trkpt>
      <trkpt lat="43.025260" lon="11.780451">
        <ele>554.560425</ele>
        <time>2018-08-04T13:03:15Z</time>
      </trkpt>
      <trkpt lat="43.025170" lon="11.778210">
        <ele>550.798767</ele>
        <time>2018-08-04T13:03:30Z</time>
      </trkpt>
      <trkpt lat="43.024965" lon="11.778173">
        <ele>548.443970</ele>
        <time>2018-08-04T13:03:50Z</time>
      </trkpt>
      <trkpt lat="43.025102" lon="11.778124">
        <ele>548.798767</ele>
        <time>2018-08-04T13:09:23Z</time>
      </trkpt>
      <trkpt lat="43.025919" lon="11.777213">
        <ele>544.643616</ele>
        <time>2018-08-04T13:09:39Z</time>
      </trkpt>
      <trkpt lat="43.027720" lon="11.776080">
        <ele>529.570923</ele>
        <time>2018-08-04T13:09:55Z</time>
      </trkpt>
      <trkpt lat="43.029292" lon="11.774164">
        <ele>510.976990</ele>
        <time>2018-08-04T13:10:11Z</time>
      </trkpt>
      <trkpt lat="43.029636" lon="11.772032">
        <ele>491.002960</ele>
        <time>2018-08-04T13:10:27Z</time>
      </trkpt>
      <trkpt lat="43.030472" lon="11.770650">
        <ele>479.708832</ele>
        <time>2018-08-04T13:10:42Z</time>
      </trkpt>
      <trkpt lat="43.029087" lon="11.769263">
        <ele>468.660156</ele>
        <time>2018-08-04T13:10:57Z</time>
      </trkpt>
      <trkpt lat="43.027356" lon="11.769257">
        <ele>458.484283</ele>
        <time>2018-08-04T13:11:13Z</time>
      </trkpt>
      <trkpt lat="43.025004" lon="11.769285">
        <ele>445.009430</ele>
        <time>2018-08-04T13:11:29Z</time>
      </trkpt>
      <trkpt lat="43.023162" lon="11.769330">
        <ele>432.581299</ele>
        <time>2018-08-04T13:11:45Z</time>
      </trkpt>
      <trkpt lat="43.021737" lon="11.768064">
        <ele>418.621521</ele>
        <time>2018-08-04T13:12:00Z</time>
      </trkpt>
      <trkpt lat="43.019588" lon="11.767407">
        <ele>408.936462</ele>
        <time>2018-08-04T13:12:16Z</time>
      </trkpt>
      <trkpt lat="43.017712" lon="11.766239">
        <ele>393.270935</ele>
        <time>2018-08-04T13:12:31Z</time>
      </trkpt>
      <trkpt lat="43.015480" lon="11.765287">
        <ele>382.962646</ele>
        <time>2018-08-04T13:12:47Z</time>
      </trkpt>
      <trkpt lat="43.012659" lon="11.764141">
        <ele>368.504242</ele>
        <time>2018-08-04T13:13:03Z</time>
      </trkpt>
      <trkpt lat="43.010309" lon="11.761570">
        <ele>363.135284</ele>
        <time>2018-08-04T13:13:19Z</time>
      </trkpt>
      <trkpt lat="43.008452" lon="11.758805">
        <ele>348.913086</ele>
        <time>2018-08-04T13:13:34Z</time>
      </trkpt>
      <trkpt lat="43.008103" lon="11.754519">
        <ele>341.671783</ele>
        <time>2018-08-04T13:13:50Z</time>
      </trkpt>
      <trkpt lat="43.007260" lon="11.750737">
        <ele>332.126831</ele>
        <time>2018-08-04T13:14:05Z</time>
      </trkpt>
      <trkpt lat="43.007287" lon="11.746523">
        <ele>318.460052</ele>
        <time>2018-08-04T13:14:20Z</time>
      </trkpt>
      <trkpt lat="43.007909" lon="11.744503">
        <ele>308.123596</ele>
        <time>2018-08-04T13:14:35Z</time>
      </trkpt>
      <trkpt lat="43.008665" lon="11.743732">
        <ele>303.875854</ele>
        <time>2018-08-04T13:14:51Z</time>
      </trkpt>
      <trkpt lat="43.010892" lon="11.743714">
        <ele>301.081055</ele>
        <time>2018-08-04T13:15:07Z</time>
      </trkpt>
      <trkpt lat="43.013875" lon="11.741840">
        <ele>300.527527</ele>
        <time>2018-08-04T13:15:23Z</time>
      </trkpt>
      <trkpt lat="43.016574" lon="11.739744">
        <ele>302.050720</ele>
        <time>2018-08-04T13:15:38Z</time>
      </trkpt>
      <trkpt lat="43.017974" lon="11.736464">
        <ele>305.580688</ele>
        <time>2018-08-04T13:15:53Z</time>
      </trkpt>
      <trkpt lat="43.019662" lon="11.733985">
        <ele>310.864014</ele>
        <time>2018-08-04T13:16:09Z</time>
      </trkpt>
      <trkpt lat="43.021591" lon="11.732196">
        <ele>304.498138</ele>
        <time>2018-08-04T13:16:25Z</time>
      </trkpt>
      <trkpt lat="43.022522" lon="11.728868">
        <ele>298.192078</ele>
        <time>2018-08-04T13:16:41Z</time>
      </trkpt>
      <trkpt lat="43.023564" lon="11.724795">
        <ele>297.455811</ele>
        <time>2018-08-04T13:16:57Z</time>
      </trkpt>
      <trkpt lat="43.023720" lon="11.720941">
        <ele>296.399872</ele>
        <time>2018-08-04T13:17:12Z</time>
      </trkpt>
      <trkpt lat="43.023863" lon="11.716380">
        <ele>297.449036</ele>
        <time>2018-08-04T13:17:28Z</time>
      </trkpt>
      <trkpt lat="43.024070" lon="11.712643">
        <ele>296.507782</ele>
        <time>2018-08-04T13:17:43Z</time>
      </trkpt>
      <trkpt lat="43.023975" lon="11.710537">
        <ele>295.577209</ele>
        <time>2018-08-04T13:17:58Z</time>
      </trkpt>
      <trkpt lat="43.023828" lon="11.709276">
        <ele>292.307617</ele>
        <time>2018-08-04T13:18:14Z</time>
      </trkpt>
      <trkpt lat="43.023627" lon="11.708016">
        <ele>291.422638</ele>
        <time>2018-08-04T13:18:30Z</time>
      </trkpt>
      <trkpt lat="43.023638" lon="11.706731">
        <ele>290.325684</ele>
        <time>2018-08-04T13:18:45Z</time>
      </trkpt>
      <trkpt lat="43.023807" lon="11.705472">
        <ele>290.174835</ele>
        <time>2018-08-04T13:19:01Z</time>
      </trkpt>
      <trkpt lat="43.024044" lon="11.703580">
        <ele>289.430420</ele>
        <time>2018-08-04T13:19:16Z</time>
      </trkpt>
      <trkpt lat="43.024231" lon="11.700467">
        <ele>287.383636</ele>
        <time>2018-08-04T13:19:31Z</time>
      </trkpt>
      <trkpt lat="43.024339" lon="11.698275">
        <ele>286.979004</ele>
        <time>2018-08-04T13:19:47Z</time>
      </trkpt>
      <trkpt lat="43.025255" lon="11.695302">
        <ele>287.443176</ele>
        <time>2018-08-04T13:20:02Z</time>
      </trkpt>
      <trkpt lat="43.026440" lon="11.692094">
        <ele>282.190552</ele>
        <time>2018-08-04T13:20:18Z</time>
      </trkpt>
      <trkpt lat="43.026848" lon="11.691017">
        <ele>281.997742</ele>
        <time>2018-08-04T13:20:34Z</time>
      </trkpt>
      <trkpt lat="43.027751" lon="11.688192">
        <ele>281.051178</ele>
        <time>2018-08-04T13:20:49Z</time>
      </trkpt>
      <trkpt lat="43.028414" lon="11.684939">
        <ele>282.642029</ele>
        <time>2018-08-04T13:21:04Z</time>
      </trkpt>
      <trkpt lat="43.029155" lon="11.681165">
        <ele>277.805359</ele>
        <time>2018-08-04T13:21:19Z</time>
      </trkpt>
      <trkpt lat="43.029924" lon="11.677335">
        <ele>277.999420</ele>
        <time>2018-08-04T13:21:35Z</time>
      </trkpt>
      <trkpt lat="43.030944" lon="11.674042">
        <ele>275.867554</ele>
        <time>2018-08-04T13:21:51Z</time>
      </trkpt>
      <trkpt lat="43.031526" lon="11.670514">
        <ele>280.682129</ele>
        <time>2018-08-04T13:22:06Z</time>
      </trkpt>
      <trkpt lat="43.032108" lon="11.667168">
        <ele>283.112823</ele>
        <time>2018-08-04T13:22:21Z</time>
      </trkpt>
      <trkpt lat="43.032668" lon="11.663133">
        <ele>279.124908</ele>
        <time>2018-08-04T13:22:37Z</time>
      </trkpt>
      <trkpt lat="43.033209" lon="11.658910">
        <ele>278.937866</ele>
        <time>2018-08-04T13:22:53Z</time>
      </trkpt>
      <trkpt lat="43.033708" lon="11.654808">
        <ele>272.900177</ele>
        <time>2018-08-04T13:23:08Z</time>
      </trkpt>
      <trkpt lat="43.034261" lon="11.650258">
        <ele>268.155701</ele>
        <time>2018-08-04T13:23:24Z</time>
      </trkpt>
      <trkpt lat="43.034808" lon="11.645995">
        <ele>265.343048</ele>
        <time>2018-08-04T13:23:39Z</time>
      </trkpt>
      <trkpt lat="43.034254" lon="11.641777">
        <ele>262.565704</ele>
        <time>2018-08-04T13:23:55Z</time>
      </trkpt>
      <trkpt lat="43.033551" lon="11.637366">
        <ele>262.628845</ele>
        <time>2018-08-04T13:24:11Z</time>
      </trkpt>
      <trkpt lat="43.033638" lon="11.633158">
        <ele>261.559204</ele>
        <time>2018-08-04T13:24:26Z</time>
      </trkpt>
      <trkpt lat="43.033409" lon="11.628946">
        <ele>259.519226</ele>
        <time>2018-08-04T13:24:41Z</time>
      </trkpt>
      <trkpt lat="43.033638" lon="11.627559">
        <ele>262.875336</ele>
        <time>2018-08-04T13:24:57Z</time>
      </trkpt>
      <trkpt lat="43.034551" lon="11.627664">
        <ele>266.542175</ele>
        <time>2018-08-04T13:25:13Z</time>
      </trkpt>
      <trkpt lat="43.034744" lon="11.627608">
        <ele>267.478699</ele>
        <time>2018-08-04T13:26:14Z</time>
      </trkpt>
      <trkpt lat="43.036749" lon="11.627259">
        <ele>267.900116</ele>
        <time>2018-08-04T13:26:30Z</time>
      </trkpt>
      <trkpt lat="43.039668" lon="11.626872">
        <ele>270.810547</ele>
        <time>2018-08-04T13:26:46Z</time>
      </trkpt>
      <trkpt lat="43.042534" lon="11.626050">
        <ele>273.219421</ele>
        <time>2018-08-04T13:27:01Z</time>
      </trkpt>
      <trkpt lat="43.045442" lon="11.625069">
        <ele>278.196960</ele>
        <time>2018-08-04T13:27:16Z</time>
      </trkpt>
      <trkpt lat="43.048118" lon="11.625325">
        <ele>282.661621</ele>
        <time>2018-08-04T13:27:31Z</time>
      </trkpt>
      <trkpt lat="43.049409" lon="11.622506">
        <ele>292.524292</ele>
        <time>2018-08-04T13:27:46Z</time>
      </trkpt>
      <trkpt lat="43.049643" lon="11.621648">
        <ele>292.911163</ele>
        <time>2018-08-04T13:28:02Z</time>
      </trkpt>
      <trkpt lat="43.049694" lon="11.621400">
        <ele>293.059509</ele>
        <time>2018-08-04T13:28:25Z</time>
      </trkpt>
      <trkpt lat="43.050526" lon="11.620680">
        <ele>290.668335</ele>
        <time>2018-08-04T13:28:41Z</time>
      </trkpt>
      <trkpt lat="43.050705" lon="11.622178">
        <ele>287.961700</ele>
        <time>2018-08-04T13:28:56Z</time>
      </trkpt>
      <trkpt lat="43.050982" lon="11.623748">
        <ele>289.688904</ele>
        <time>2018-08-04T13:29:11Z</time>
      </trkpt>
      <trkpt lat="43.050887" lon="11.623075">
        <ele>287.414642</ele>
        <time>2018-08-04T13:29:26Z</time>
      </trkpt>
      <trkpt lat="43.050621" lon="11.621046">
        <ele>289.934265</ele>
        <time>2018-08-04T13:29:42Z</time>
      </trkpt>
      <trkpt lat="43.050596" lon="11.621308">
        <ele>289.553558</ele>
        <time>2018-08-04T13:30:01Z</time>
      </trkpt>
      <trkpt lat="43.050481" lon="11.621657">
        <ele>289.016571</ele>
        <time>2018-08-04T13:30:18Z</time>
      </trkpt>
      <trkpt lat="43.050597" lon="11.621509">
        <ele>289.242249</ele>
        <time>2018-08-04T13:40:42Z</time>
      </trkpt>
      <trkpt lat="43.050553" lon="11.620486">
        <ele>291.029785</ele>
        <time>2018-08-04T13:40:58Z</time>
      </trkpt>
      <trkpt lat="43.049810" lon="11.620988">
        <ele>292.872650</ele>
        <time>2018-08-04T13:41:13Z</time>
      </trkpt>
      <trkpt lat="43.049455" lon="11.622311">
        <ele>292.866394</ele>
        <time>2018-08-04T13:41:29Z</time>
      </trkpt>
      <trkpt lat="43.049484" lon="11.622000">
        <ele>293.585144</ele>
        <time>2018-08-04T13:41:45Z</time>
      </trkpt>
      <trkpt lat="43.049491" lon="11.619779">
        <ele>297.920715</ele>
        <time>2018-08-04T13:42:00Z</time>
      </trkpt>
      <trkpt lat="43.049215" lon="11.616545">
        <ele>311.084747</ele>
        <time>2018-08-04T13:42:16Z</time>
      </trkpt>
      <trkpt lat="43.048305" lon="11.613252">
        <ele>325.350037</ele>
        <time>2018-08-04T13:42:32Z</time>
      </trkpt>
      <trkpt lat="43.049172" lon="11.610927">
        <ele>342.867554</ele>
        <time>2018-08-04T13:42:47Z</time>
      </trkpt>
      <trkpt lat="43.051457" lon="11.609400">
        <ele>352.029205</ele>
        <time>2018-08-04T13:43:03Z</time>
      </trkpt>
      <trkpt lat="43.053803" lon="11.608392">
        <ele>368.899109</ele>
        <time>2018-08-04T13:43:19Z</time>
      </trkpt>
      <trkpt lat="43.055681" lon="11.609986">
        <ele>375.451050</ele>
        <time>2018-08-04T13:43:34Z</time>
      </trkpt>
      <trkpt lat="43.057720" lon="11.610975">
        <ele>378.064575</ele>
        <time>2018-08-04T13:43:50Z</time>
      </trkpt>
      <trkpt lat="43.059247" lon="11.608738">
        <ele>392.049286</ele>
        <time>2018-08-04T13:44:05Z</time>
      </trkpt>
      <trkpt lat="43.059595" lon="11.608329">
        <ele>393.413025</ele>
        <time>2018-08-04T13:44:30Z</time>
      </trkpt>
      <trkpt lat="43.059972" lon="11.607565">
        <ele>393.830261</ele>
        <time>2018-08-04T13:44:45Z</time>
      </trkpt>
      <trkpt lat="43.061282" lon="11.605396">
        <ele>402.809753</ele>
        <time>2018-08-04T13:45:00Z</time>
      </trkpt>
      <trkpt lat="43.061453" lon="11.602153">
        <ele>392.833252</ele>
        <time>2018-08-04T13:45:15Z</time>
      </trkpt>
      <trkpt lat="43.060081" lon="11.598596">
        <ele>364.000366</ele>
        <time>2018-08-04T13:45:31Z</time>
      </trkpt>
      <trkpt lat="43.059886" lon="11.594179">
        <ele>356.998260</ele>
        <time>2018-08-04T13:45:47Z</time>
      </trkpt>
      <trkpt lat="43.061319" lon="11.590392">
        <ele>341.593567</ele>
        <time>2018-08-04T13:46:02Z</time>
      </trkpt>
      <trkpt lat="43.062952" lon="11.586470">
        <ele>321.985626</ele>
        <time>2018-08-04T13:46:18Z</time>
      </trkpt>
      <trkpt lat="43.065875" lon="11.584115">
        <ele>307.128754</ele>
        <time>2018-08-04T13:46:34Z</time>
      </trkpt>
      <trkpt lat="43.068844" lon="11.581750">
        <ele>292.398743</ele>
        <time>2018-08-04T13:46:50Z</time>
      </trkpt>
      <trkpt lat="43.070242" lon="11.577587">
        <ele>255.279999</ele>
        <time>2018-08-04T13:47:06Z</time>
      </trkpt>
      <trkpt lat="43.069118" lon="11.573039">
        <ele>246.862610</ele>
        <time>2018-08-04T13:47:22Z</time>
      </trkpt>
      <trkpt lat="43.066850" lon="11.569567">
        <ele>252.226135</ele>
        <time>2018-08-04T13:47:38Z</time>
      </trkpt>
      <trkpt lat="43.064449" lon="11.565917">
        <ele>254.770538</ele>
        <time>2018-08-04T13:47:54Z</time>
      </trkpt>
      <trkpt lat="43.063834" lon="11.561211">
        <ele>254.530365</ele>
        <time>2018-08-04T13:48:10Z</time>
      </trkpt>
      <trkpt lat="43.064179" lon="11.556609">
        <ele>247.400864</ele>
        <time>2018-08-04T13:48:26Z</time>
      </trkpt>
      <trkpt lat="43.065140" lon="11.552596">
        <ele>235.404572</ele>
        <time>2018-08-04T13:48:41Z</time>
      </trkpt>
      <trkpt lat="43.066820" lon="11.548493">
        <ele>240.134735</ele>
        <time>2018-08-04T13:48:57Z</time>
      </trkpt>
      <trkpt lat="43.068343" lon="11.547282">
        <ele>243.050751</ele>
        <time>2018-08-04T13:57:05Z</time>
      </trkpt>
      <trkpt lat="43.068461" lon="11.547167">
        <ele>243.658661</ele>
        <time>2018-08-04T13:59:40Z</time>
      </trkpt>
      <trkpt lat="43.070230" lon="11.546850">
        <ele>242.245026</ele>
        <time>2018-08-04T13:59:56Z</time>
      </trkpt>
      <trkpt lat="43.073088" lon="11.547539">
        <ele>246.631241</ele>
        <time>2018-08-04T14:00:11Z</time>
      </trkpt>
      <trkpt lat="43.076336" lon="11.546841">
        <ele>246.499847</ele>
        <time>2018-08-04T14:00:26Z</time>
      </trkpt>
      <trkpt lat="43.080033" lon="11.547061">
        <ele>246.832184</ele>
        <time>2018-08-04T14:00:42Z</time>
      </trkpt>
      <trkpt lat="43.083360" lon="11.546513">
        <ele>262.923859</ele>
        <time>2018-08-04T14:00:57Z</time>
      </trkpt>
      <trkpt lat="43.085938" lon="11.542937">
        <ele>260.072998</ele>
        <time>2018-08-04T14:01:14Z</time>
      </trkpt>
      <trkpt lat="43.089209" lon="11.540802">
        <ele>233.661713</ele>
        <time>2018-08-04T14:01:30Z</time>
      </trkpt>
      <trkpt lat="43.092095" lon="11.538462">
        <ele>210.694366</ele>
        <time>2018-08-04T14:01:45Z</time>
      </trkpt>
      <trkpt lat="43.093351" lon="11.534359">
        <ele>185.535919</ele>
        <time>2018-08-04T14:02:01Z</time>
      </trkpt>
      <trkpt lat="43.093871" lon="11.530446">
        <ele>164.055054</ele>
        <time>2018-08-04T14:02:16Z</time>
      </trkpt>
      <trkpt lat="43.095373" lon="11.527068">
        <ele>169.114227</ele>
        <time>2018-08-04T14:02:32Z</time>
      </trkpt>
      <trkpt lat="43.097921" lon="11.524224">
        <ele>166.435211</ele>
        <time>2018-08-04T14:02:47Z</time>
      </trkpt>
      <trkpt lat="43.100365" lon="11.521487">
        <ele>158.984543</ele>
        <time>2018-08-04T14:03:03Z</time>
      </trkpt>
      <trkpt lat="43.102182" lon="11.518460">
        <ele>161.078217</ele>
        <time>2018-08-04T14:03:19Z</time>
      </trkpt>
      <trkpt lat="43.103207" lon="11.515295">
        <ele>159.889297</ele>
        <time>2018-08-04T14:03:34Z</time>
      </trkpt>
      <trkpt lat="43.104081" lon="11.512122">
        <ele>157.881775</ele>
        <time>2018-08-04T14:03:50Z</time>
      </trkpt>
      <trkpt lat="43.104613" lon="11.509638">
        <ele>161.192307</ele>
        <time>2018-08-04T14:04:05Z</time>
      </trkpt>
      <trkpt lat="43.105396" lon="11.506908">
        <ele>159.703033</ele>
        <time>2018-08-04T14:04:21Z</time>
      </trkpt>
      <trkpt lat="43.105877" lon="11.503295">
        <ele>152.088501</ele>
        <time>2018-08-04T14:04:36Z</time>
      </trkpt>
      <trkpt lat="43.106209" lon="11.498824">
        <ele>158.234161</ele>
        <time>2018-08-04T14:04:52Z</time>
      </trkpt>
      <trkpt lat="43.108496" lon="11.497586">
        <ele>149.987411</ele>
        <time>2018-08-04T14:05:08Z</time>
      </trkpt>
      <trkpt lat="43.110011" lon="11.493759">
        <ele>155.678253</ele>
        <time>2018-08-04T14:05:24Z</time>
      </trkpt>
      <trkpt lat="43.111063" lon="11.490408">
        <ele>165.809631</ele>
        <time>2018-08-04T14:05:39Z</time>
      </trkpt>
      <trkpt lat="43.112841" lon="11.487248">
        <ele>171.175293</ele>
        <time>2018-08-04T14:05:55Z</time>
      </trkpt>
      <trkpt lat="43.115205" lon="11.485309">
        <ele>169.574234</ele>
        <time>2018-08-04T14:06:10Z</time>
      </trkpt>
      <trkpt lat="43.116822" lon="11.483780">
        <ele>154.455170</ele>
        <time>2018-08-04T14:06:26Z</time>
      </trkpt>
      <trkpt lat="43.119415" lon="11.483525">
        <ele>142.229492</ele>
        <time>2018-08-04T14:06:41Z</time>
      </trkpt>
      <trkpt lat="43.121728" lon="11.483251">
        <ele>144.100632</ele>
        <time>2018-08-04T14:06:57Z</time>
      </trkpt>
      <trkpt lat="43.123536" lon="11.483083">
        <ele>143.987457</ele>
        <time>2018-08-04T14:07:13Z</time>
      </trkpt>
      <trkpt lat="43.125667" lon="11.482910">
        <ele>141.996826</ele>
        <time>2018-08-04T14:07:28Z</time>
      </trkpt>
      <trkpt lat="43.127910" lon="11.482715">
        <ele>145.131165</ele>
        <time>2018-08-04T14:07:44Z</time>
      </trkpt>
      <trkpt lat="43.130188" lon="11.482522">
        <ele>141.852997</ele>
        <time>2018-08-04T14:08:00Z</time>
      </trkpt>
      <trkpt lat="43.132259" lon="11.482479">
        <ele>143.317917</ele>
        <time>2018-08-04T14:08:15Z</time>
      </trkpt>
      <trkpt lat="43.134334" lon="11.483163">
        <ele>144.996735</ele>
        <time>2018-08-04T14:08:31Z</time>
      </trkpt>
      <trkpt lat="43.135849" lon="11.483441">
        <ele>145.868774</ele>
        <time>2018-08-04T14:08:46Z</time>
      </trkpt>
      <trkpt lat="43.137553" lon="11.483401">
        <ele>146.942047</ele>
        <time>2018-08-04T14:09:01Z</time>
      </trkpt>
      <trkpt lat="43.139400" lon="11.482880">
        <ele>145.223648</ele>
        <time>2018-08-04T14:09:16Z</time>
      </trkpt>
      <trkpt lat="43.140959" lon="11.481795">
        <ele>140.868790</ele>
        <time>2018-08-04T14:09:31Z</time>
      </trkpt>
      <trkpt lat="43.142583" lon="11.480066">
        <ele>143.928528</ele>
        <time>2018-08-04T14:09:47Z</time>
      </trkpt>
      <trkpt lat="43.143191" lon="11.477530">
        <ele>145.458191</ele>
        <time>2018-08-04T14:10:02Z</time>
      </trkpt>
      <trkpt lat="43.145092" lon="11.476284">
        <ele>151.470734</ele>
        <time>2018-08-04T14:10:18Z</time>
      </trkpt>
      <trkpt lat="43.147984" lon="11.475298">
        <ele>147.098724</ele>
        <time>2018-08-04T14:10:34Z</time>
      </trkpt>
      <trkpt lat="43.150720" lon="11.473832">
        <ele>150.231567</ele>
        <time>2018-08-04T14:10:50Z</time>
      </trkpt>
      <trkpt lat="43.153570" lon="11.472270">
        <ele>143.283737</ele>
        <time>2018-08-04T14:11:05Z</time>
      </trkpt>
      <trkpt lat="43.157546" lon="11.471344">
        <ele>147.963806</ele>
        <time>2018-08-04T14:11:21Z</time>
      </trkpt>
      <trkpt lat="43.160125" lon="11.469358">
        <ele>147.743042</ele>
        <time>2018-08-04T14:11:36Z</time>
      </trkpt>
      <trkpt lat="43.162896" lon="11.468333">
        <ele>147.048187</ele>
        <time>2018-08-04T14:11:52Z</time>
      </trkpt>
      <trkpt lat="43.165130" lon="11.466781">
        <ele>147.708527</ele>
        <time>2018-08-04T14:12:07Z</time>
      </trkpt>
      <trkpt lat="43.166620" lon="11.465313">
        <ele>147.031570</ele>
        <time>2018-08-04T14:12:22Z</time>
      </trkpt>
      <trkpt lat="43.168533" lon="11.465580">
        <ele>149.166855</ele>
        <time>2018-08-04T14:12:38Z</time>
      </trkpt>
      <trkpt lat="43.170246" lon="11.465535">
        <ele>148.810577</ele>
        <time>2018-08-04T14:12:53Z</time>
      </trkpt>
      <trkpt lat="43.172378" lon="11.464698">
        <ele>149.163559</ele>
        <time>2018-08-04T14:13:09Z</time>
      </trkpt>
      <trkpt lat="43.175196" lon="11.463563">
        <ele>150.130188</ele>
        <time>2018-08-04T14:13:25Z</time>
      </trkpt>
      <trkpt lat="43.177943" lon="11.462464">
        <ele>153.668442</ele>
        <time>2018-08-04T14:13:40Z</time>
      </trkpt>
      <trkpt lat="43.180346" lon="11.461885">
        <ele>161.230927</ele>
        <time>2018-08-04T14:13:56Z</time>
      </trkpt>
      <trkpt lat="43.182600" lon="11.459224">
        <ele>159.684357</ele>
        <time>2018-08-04T14:14:11Z</time>
      </trkpt>
      <trkpt lat="43.184738" lon="11.456905">
        <ele>162.636810</ele>
        <time>2018-08-04T14:14:26Z</time>
      </trkpt>
      <trkpt lat="43.186871" lon="11.454801">
        <ele>172.361847</ele>
        <time>2018-08-04T14:14:41Z</time>
      </trkpt>
      <trkpt lat="43.189057" lon="11.454052">
        <ele>178.487366</ele>
        <time>2018-08-04T14:14:57Z</time>
      </trkpt>
      <trkpt lat="43.191158" lon="11.453370">
        <ele>170.833420</ele>
        <time>2018-08-04T14:15:12Z</time>
      </trkpt>
      <trkpt lat="43.192488" lon="11.455046">
        <ele>165.898499</ele>
        <time>2018-08-04T14:15:28Z</time>
      </trkpt>
      <trkpt lat="43.192881" lon="11.453399">
        <ele>162.051971</ele>
        <time>2018-08-04T14:15:44Z</time>
      </trkpt>
      <trkpt lat="43.193762" lon="11.450972">
        <ele>156.561142</ele>
        <time>2018-08-04T14:15:59Z</time>
      </trkpt>
      <trkpt lat="43.195323" lon="11.447937">
        <ele>160.686829</ele>
        <time>2018-08-04T14:16:15Z</time>
      </trkpt>
      <trkpt lat="43.196181" lon="11.444799">
        <ele>160.134476</ele>
        <time>2018-08-04T14:16:31Z</time>
      </trkpt>
      <trkpt lat="43.198182" lon="11.443535">
        <ele>157.940277</ele>
        <time>2018-08-04T14:16:46Z</time>
      </trkpt>
      <trkpt lat="43.201074" lon="11.443018">
        <ele>156.596100</ele>
        <time>2018-08-04T14:17:02Z</time>
      </trkpt>
      <trkpt lat="43.203504" lon="11.442043">
        <ele>159.105194</ele>
        <time>2018-08-04T14:17:18Z</time>
      </trkpt>
      <trkpt lat="43.206017" lon="11.440125">
        <ele>156.966949</ele>
        <time>2018-08-04T14:17:34Z</time>
      </trkpt>
      <trkpt lat="43.208057" lon="11.437749">
        <ele>157.468933</ele>
        <time>2018-08-04T14:17:50Z</time>
      </trkpt>
      <trkpt lat="43.208668" lon="11.434722">
        <ele>161.268372</ele>
        <time>2018-08-04T14:18:05Z</time>
      </trkpt>
      <trkpt lat="43.209023" lon="11.432728">
        <ele>164.655182</ele>
        <time>2018-08-04T14:18:21Z</time>
      </trkpt>
      <trkpt lat="43.210890" lon="11.431964">
        <ele>165.401260</ele>
        <time>2018-08-04T14:18:37Z</time>
      </trkpt>
      <trkpt lat="43.213148" lon="11.431935">
        <ele>164.089386</ele>
        <time>2018-08-04T14:18:53Z</time>
      </trkpt>
      <trkpt lat="43.214822" lon="11.432537">
        <ele>161.595642</ele>
        <time>2018-08-04T14:19:08Z</time>
      </trkpt>
      <trkpt lat="43.215866" lon="11.433445">
        <ele>159.688782</ele>
        <time>2018-08-04T14:19:24Z</time>
      </trkpt>
      <trkpt lat="43.217524" lon="11.433412">
        <ele>157.603073</ele>
        <time>2018-08-04T14:19:39Z</time>
      </trkpt>
      <trkpt lat="43.219853" lon="11.431712">
        <ele>158.253433</ele>
        <time>2018-08-04T14:19:55Z</time>
      </trkpt>
      <trkpt lat="43.222701" lon="11.429481">
        <ele>160.458008</ele>
        <time>2018-08-04T14:20:10Z</time>
      </trkpt>
      <trkpt lat="43.226040" lon="11.426747">
        <ele>157.903809</ele>
        <time>2018-08-04T14:20:26Z</time>
      </trkpt>
      <trkpt lat="43.229708" lon="11.425268">
        <ele>161.260956</ele>
        <time>2018-08-04T14:20:42Z</time>
      </trkpt>
      <trkpt lat="43.232966" lon="11.422787">
        <ele>163.213058</ele>
        <time>2018-08-04T14:20:58Z</time>
      </trkpt>
      <trkpt lat="43.235488" lon="11.419520">
        <ele>162.566772</ele>
        <time>2018-08-04T14:21:14Z</time>
      </trkpt>
      <trkpt lat="43.238300" lon="11.416537">
        <ele>162.323227</ele>
        <time>2018-08-04T14:21:29Z</time>
      </trkpt>
      <trkpt lat="43.241010" lon="11.412519">
        <ele>160.972900</ele>
        <time>2018-08-04T14:21:45Z</time>
      </trkpt>
      <trkpt lat="43.243909" lon="11.409554">
        <ele>162.474243</ele>
        <time>2018-08-04T14:22:01Z</time>
      </trkpt>
      <trkpt lat="43.246482" lon="11.409239">
        <ele>161.338470</ele>
        <time>2018-08-04T14:22:17Z</time>
      </trkpt>
      <trkpt lat="43.246381" lon="11.407355">
        <ele>163.632065</ele>
        <time>2018-08-04T14:22:32Z</time>
      </trkpt>
      <trkpt lat="43.246614" lon="11.405998">
        <ele>166.605347</ele>
        <time>2018-08-04T14:22:47Z</time>
      </trkpt>
      <trkpt lat="43.248051" lon="11.404399">
        <ele>167.934006</ele>
        <time>2018-08-04T14:23:03Z</time>
      </trkpt>
      <trkpt lat="43.249090" lon="11.401923">
        <ele>167.427475</ele>
        <time>2018-08-04T14:23:18Z</time>
      </trkpt>
      <trkpt lat="43.250356" lon="11.399619">
        <ele>168.253479</ele>
        <time>2018-08-04T14:23:33Z</time>
      </trkpt>
      <trkpt lat="43.251175" lon="11.397396">
        <ele>169.514648</ele>
        <time>2018-08-04T14:23:49Z</time>
      </trkpt>
      <trkpt lat="43.251790" lon="11.395759">
        <ele>169.493637</ele>
        <time>2018-08-04T14:24:04Z</time>
      </trkpt>
      <trkpt lat="43.252697" lon="11.394200">
        <ele>171.975891</ele>
        <time>2018-08-04T14:24:19Z</time>
      </trkpt>
      <trkpt lat="43.253728" lon="11.391639">
        <ele>169.014191</ele>
        <time>2018-08-04T14:24:35Z</time>
      </trkpt>
      <trkpt lat="43.254856" lon="11.388570">
        <ele>167.346313</ele>
        <time>2018-08-04T14:24:50Z</time>
      </trkpt>
      <trkpt lat="43.255491" lon="11.385440">
        <ele>170.173767</ele>
        <time>2018-08-04T14:25:05Z</time>
      </trkpt>
      <trkpt lat="43.256152" lon="11.382716">
        <ele>169.766098</ele>
        <time>2018-08-04T14:25:20Z</time>
      </trkpt>
      <trkpt lat="43.257433" lon="11.381006">
        <ele>171.854568</ele>
        <time>2018-08-04T14:25:36Z</time>
      </trkpt>
      <trkpt lat="43.258710" lon="11.380127">
        <ele>172.928741</ele>
        <time>2018-08-04T14:25:51Z</time>
      </trkpt>
      <trkpt lat="43.259855" lon="11.378148">
        <ele>172.530411</ele>
        <time>2018-08-04T14:26:07Z</time>
      </trkpt>
      <trkpt lat="43.260117" lon="11.376063">
        <ele>174.307953</ele>
        <time>2018-08-04T14:26:23Z</time>
      </trkpt>
      <trkpt lat="43.261535" lon="11.374241">
        <ele>176.602692</ele>
        <time>2018-08-04T14:26:38Z</time>
      </trkpt>
      <trkpt lat="43.263197" lon="11.372248">
        <ele>187.477234</ele>
        <time>2018-08-04T14:26:54Z</time>
      </trkpt>
      <trkpt lat="43.263510" lon="11.369557">
        <ele>196.225693</ele>
        <time>2018-08-04T14:27:09Z</time>
      </trkpt>
      <trkpt lat="43.263842" lon="11.366905">
        <ele>203.338776</ele>
        <time>2018-08-04T14:27:25Z</time>
      </trkpt>
      <trkpt lat="43.265547" lon="11.366488">
        <ele>211.188354</ele>
        <time>2018-08-04T14:27:40Z</time>
      </trkpt>
      <trkpt lat="43.267448" lon="11.365608">
        <ele>214.981934</ele>
        <time>2018-08-04T14:27:56Z</time>
      </trkpt>
      <trkpt lat="43.268908" lon="11.363395">
        <ele>216.883072</ele>
        <time>2018-08-04T14:28:12Z</time>
      </trkpt>
      <trkpt lat="43.270049" lon="11.361621">
        <ele>225.789612</ele>
        <time>2018-08-04T14:28:27Z</time>
      </trkpt>
      <trkpt lat="43.270802" lon="11.359058">
        <ele>225.150024</ele>
        <time>2018-08-04T14:28:43Z</time>
      </trkpt>
      <trkpt lat="43.272614" lon="11.356636">
        <ele>226.821976</ele>
        <time>2018-08-04T14:28:58Z</time>
      </trkpt>
      <trkpt lat="43.274509" lon="11.354411">
        <ele>222.404175</ele>
        <time>2018-08-04T14:29:13Z</time>
      </trkpt>
      <trkpt lat="43.276624" lon="11.353775">
        <ele>228.617722</ele>
        <time>2018-08-04T14:29:28Z</time>
      </trkpt>
      <trkpt lat="43.278808" lon="11.352703">
        <ele>226.267578</ele>
        <time>2018-08-04T14:29:44Z</time>
      </trkpt>
      <trkpt lat="43.280829" lon="11.353132">
        <ele>237.247284</ele>
        <time>2018-08-04T14:29:59Z</time>
      </trkpt>
      <trkpt lat="43.282965" lon="11.353660">
        <ele>237.261215</ele>
        <time>2018-08-04T14:30:15Z</time>
      </trkpt>
      <trkpt lat="43.284873" lon="11.352666">
        <ele>237.639008</ele>
        <time>2018-08-04T14:30:31Z</time>
      </trkpt>
      <trkpt lat="43.285729" lon="11.350093">
        <ele>235.387451</ele>
        <time>2018-08-04T14:30:46Z</time>
      </trkpt>
      <trkpt lat="43.286682" lon="11.347271">
        <ele>240.816284</ele>
        <time>2018-08-04T14:31:01Z</time>
      </trkpt>
      <trkpt lat="43.287392" lon="11.344792">
        <ele>243.400070</ele>
        <time>2018-08-04T14:31:16Z</time>
      </trkpt>
      <trkpt lat="43.289182" lon="11.343874">
        <ele>247.344925</ele>
        <time>2018-08-04T14:31:32Z</time>
      </trkpt>
      <trkpt lat="43.290842" lon="11.343984">
        <ele>244.208771</ele>
        <time>2018-08-04T14:31:48Z</time>
      </trkpt>
      <trkpt lat="43.293250" lon="11.343367">
        <ele>243.176117</ele>
        <time>2018-08-04T14:32:04Z</time>
      </trkpt>
      <trkpt lat="43.295440" lon="11.342321">
        <ele>244.494873</ele>
        <time>2018-08-04T14:32:20Z</time>
      </trkpt>
      <trkpt lat="43.295906" lon="11.341732">
        <ele>244.736603</ele>
        <time>2018-08-04T14:32:45Z</time>
      </trkpt>
      <trkpt lat="43.296890" lon="11.339654">
        <ele>239.110184</ele>
        <time>2018-08-04T14:33:00Z</time>
      </trkpt>
      <trkpt lat="43.298722" lon="11.337440">
        <ele>245.578125</ele>
        <time>2018-08-04T14:33:15Z</time>
      </trkpt>
      <trkpt lat="43.300743" lon="11.337527">
        <ele>253.312653</ele>
        <time>2018-08-04T14:33:30Z</time>
      </trkpt>
      <trkpt lat="43.302654" lon="11.337760">
        <ele>266.634216</ele>
        <time>2018-08-04T14:33:45Z</time>
      </trkpt>
      <trkpt lat="43.304561" lon="11.337193">
        <ele>274.055176</ele>
        <time>2018-08-04T14:34:01Z</time>
      </trkpt>
      <trkpt lat="43.305884" lon="11.338580">
        <ele>280.789520</ele>
        <time>2018-08-04T14:34:17Z</time>
      </trkpt>
      <trkpt lat="43.307463" lon="11.339139">
        <ele>281.783691</ele>
        <time>2018-08-04T14:34:32Z</time>
      </trkpt>
      <trkpt lat="43.309101" lon="11.339060">
        <ele>280.175568</ele>
        <time>2018-08-04T14:34:47Z</time>
      </trkpt>
      <trkpt lat="43.310766" lon="11.339372">
        <ele>283.537262</ele>
        <time>2018-08-04T14:35:03Z</time>
      </trkpt>
      <trkpt lat="43.311913" lon="11.339422">
        <ele>293.414276</ele>
        <time>2018-08-04T14:35:19Z</time>
      </trkpt>
      <trkpt lat="43.313088" lon="11.339434">
        <ele>302.014984</ele>
        <time>2018-08-04T14:35:34Z</time>
      </trkpt>
      <trkpt lat="43.314013" lon="11.339550">
        <ele>306.472168</ele>
        <time>2018-08-04T14:35:50Z</time>
      </trkpt>
      <trkpt lat="43.314685" lon="11.339634">
        <ele>311.214478</ele>
        <time>2018-08-04T14:36:05Z</time>
      </trkpt>
      <trkpt lat="43.314889" lon="11.339748">
        <ele>312.092346</ele>
        <time>2018-08-04T14:36:55Z</time>
      </trkpt>
      <trkpt lat="43.314817" lon="11.339574">
        <ele>312.931244</ele>
        <time>2018-08-04T14:37:42Z</time>
      </trkpt>
      <trkpt lat="43.314954" lon="11.339590">
        <ele>314.023834</ele>
        <time>2018-08-04T14:43:34Z</time>
      </trkpt>
      <trkpt lat="43.315089" lon="11.339650">
        <ele>314.048004</ele>
        <time>2018-08-04T14:43:51Z</time>
      </trkpt>
      <trkpt lat="43.315590" lon="11.339496">
        <ele>315.938385</ele>
        <time>2018-08-04T14:44:06Z</time>
      </trkpt>
      <trkpt lat="43.315983" lon="11.339125">
        <ele>318.660278</ele>
        <time>2018-08-04T14:44:22Z</time>
      </trkpt>
      <trkpt lat="43.315927" lon="11.338941">
        <ele>320.535522</ele>
        <time>2018-08-04T14:46:01Z</time>
      </trkpt>
      <trkpt lat="43.316067" lon="11.338958">
        <ele>319.838684</ele>
        <time>2018-08-04T14:46:47Z</time>
      </trkpt>
      <trkpt lat="43.316235" lon="11.338854">
        <ele>320.241425</ele>
        <time>2018-08-04T14:47:02Z</time>
      </trkpt>
      <trkpt lat="43.316323" lon="11.338704">
        <ele>321.517273</ele>
        <time>2018-08-04T14:47:18Z</time>
      </trkpt>
      <trkpt lat="43.316476" lon="11.338546">
        <ele>322.856506</ele>
        <time>2018-08-04T14:47:34Z</time>
      </trkpt>
      <trkpt lat="43.316659" lon="11.338444">
        <ele>323.685120</ele>
        <time>2018-08-04T14:47:50Z</time>
      </trkpt>
      <trkpt lat="43.316733" lon="11.338277">
        <ele>324.307526</ele>
        <time>2018-08-04T14:48:06Z</time>
      </trkpt>
      <trkpt lat="43.316894" lon="11.338469">
        <ele>321.092896</ele>
        <time>2018-08-04T14:48:58Z</time>
      </trkpt>
      <trkpt lat="43.316958" lon="11.338635">
        <ele>318.747253</ele>
        <time>2018-08-04T14:49:37Z</time>
      </trkpt>
      <trkpt lat="43.317059" lon="11.338934">
        <ele>314.913025</ele>
        <time>2018-08-04T14:49:53Z</time>
      </trkpt>
      <trkpt lat="43.316892" lon="11.339218">
        <ele>312.778931</ele>
        <time>2018-08-04T14:50:08Z</time>
      </trkpt>
      <trkpt lat="43.316884" lon="11.338487">
        <ele>320.995026</ele>
        <time>2018-08-04T14:50:24Z</time>
      </trkpt>
      <trkpt lat="43.316913" lon="11.338304">
        <ele>322.378235</ele>
        <time>2018-08-04T14:51:22Z</time>
      </trkpt>
      <trkpt lat="43.316904" lon="11.338496">
        <ele>320.706451</ele>
        <time>2018-08-04T14:55:23Z</time>
      </trkpt>
      <trkpt lat="43.316720" lon="11.338272">
        <ele>324.440521</ele>
        <time>2018-08-04T14:56:31Z</time>
      </trkpt>
      <trkpt lat="43.316613" lon="11.338422">
        <ele>324.020142</ele>
        <time>2018-08-04T14:56:47Z</time>
      </trkpt>
      <trkpt lat="43.316535" lon="11.338584">
        <ele>322.293671</ele>
        <time>2018-08-04T14:57:14Z</time>
      </trkpt>
      <trkpt lat="43.316399" lon="11.338707">
        <ele>321.270050</ele>
        <time>2018-08-04T14:57:29Z</time>
      </trkpt>
      <trkpt lat="43.316234" lon="11.338800">
        <ele>320.793945</ele>
        <time>2018-08-04T14:57:44Z</time>
      </trkpt>
      <trkpt lat="43.316121" lon="11.339012">
        <ele>319.113647</ele>
        <time>2018-08-04T14:57:59Z</time>
      </trkpt>
      <trkpt lat="43.315990" lon="11.339090">
        <ele>318.942535</ele>
        <time>2018-08-04T14:58:15Z</time>
      </trkpt>
      <trkpt lat="43.315813" lon="11.339146">
        <ele>319.150543</ele>
        <time>2018-08-04T14:58:30Z</time>
      </trkpt>
      <trkpt lat="43.315926" lon="11.339265">
        <ele>317.603638</ele>
        <time>2018-08-04T14:58:58Z</time>
      </trkpt>
      <trkpt lat="43.315962" lon="11.339080">
        <ele>319.159363</ele>
        <time>2018-08-04T14:59:16Z</time>
      </trkpt>
      <trkpt lat="43.316037" lon="11.338882">
        <ele>320.667633</ele>
        <time>2018-08-04T15:01:44Z</time>
      </trkpt>
      <trkpt lat="43.315898" lon="11.338898">
        <ele>321.017761</ele>
        <time>2018-08-04T15:02:02Z</time>
      </trkpt>
      <trkpt lat="43.315827" lon="11.339117">
        <ele>319.415070</ele>
        <time>2018-08-04T15:04:21Z</time>
      </trkpt>
      <trkpt lat="43.315941" lon="11.338987">
        <ele>320.075073</ele>
        <time>2018-08-04T15:04:36Z</time>
      </trkpt>
      <trkpt lat="43.316078" lon="11.339029">
        <ele>319.132935</ele>
        <time>2018-08-04T15:07:06Z</time>
      </trkpt>
      <trkpt lat="43.316207" lon="11.338861">
        <ele>320.264648</ele>
        <time>2018-08-04T15:07:21Z</time>
      </trkpt>
      <trkpt lat="43.316366" lon="11.338744">
        <ele>320.969299</ele>
        <time>2018-08-04T15:07:37Z</time>
      </trkpt>
      <trkpt lat="43.316462" lon="11.338581">
        <ele>322.491699</ele>
        <time>2018-08-04T15:07:53Z</time>
      </trkpt>
      <trkpt lat="43.316557" lon="11.338410">
        <ele>324.247192</ele>
        <time>2018-08-04T15:08:09Z</time>
      </trkpt>
      <trkpt lat="43.316659" lon="11.338259">
        <ele>325.003601</ele>
        <time>2018-08-04T15:08:47Z</time>
      </trkpt>
      <trkpt lat="43.316792" lon="11.338309">
        <ele>323.660492</ele>
        <time>2018-08-04T15:09:27Z</time>
      </trkpt>
      <trkpt lat="43.316947" lon="11.338513">
        <ele>320.100647</ele>
        <time>2018-08-04T15:09:46Z</time>
      </trkpt>
      <trkpt lat="43.316863" lon="11.338343">
        <ele>322.779297</ele>
        <time>2018-08-04T15:10:03Z</time>
      </trkpt>
      <trkpt lat="43.316722" lon="11.338354">
        <ele>324.168976</ele>
        <time>2018-08-04T15:11:16Z</time>
      </trkpt>
      <trkpt lat="43.316926" lon="11.338551">
        <ele>319.908478</ele>
        <time>2018-08-04T15:12:15Z</time>
      </trkpt>
      <trkpt lat="43.317164" lon="11.338617">
        <ele>317.039307</ele>
        <time>2018-08-04T15:12:30Z</time>
      </trkpt>
      <trkpt lat="43.317297" lon="11.338504">
        <ele>316.766022</ele>
        <time>2018-08-04T15:13:18Z</time>
      </trkpt>
      <trkpt lat="43.317430" lon="11.338390">
        <ele>316.325989</ele>
        <time>2018-08-04T15:13:33Z</time>
      </trkpt>
      <trkpt lat="43.317216" lon="11.338420">
        <ele>318.299286</ele>
        <time>2018-08-04T15:14:37Z</time>
      </trkpt>
      <trkpt lat="43.317016" lon="11.338452">
        <ele>320.049011</ele>
        <time>2018-08-04T15:14:52Z</time>
      </trkpt>
      <trkpt lat="43.316944" lon="11.338658">
        <ele>318.625916</ele>
        <time>2018-08-04T15:15:08Z</time>
      </trkpt>
      <trkpt lat="43.315805" lon="11.338930">
        <ele>321.003754</ele>
        <time>2018-08-05T09:13:16Z</time>
      </trkpt>
      <trkpt lat="43.315788" lon="11.338695">
        <ele>323.063416</ele>
        <time>2018-08-05T09:17:18Z</time>
      </trkpt>
      <trkpt lat="43.315648" lon="11.338706">
        <ele>323.266388</ele>
        <time>2018-08-05T09:17:36Z</time>
      </trkpt>
      <trkpt lat="43.315321" lon="11.339242">
        <ele>317.752106</ele>
        <time>2018-08-05T09:17:51Z</time>
      </trkpt>
      <trkpt lat="43.315290" lon="11.339555">
        <ele>315.086029</ele>
        <time>2018-08-05T09:18:07Z</time>
      </trkpt>
      <trkpt lat="43.314556" lon="11.339572">
        <ele>310.603027</ele>
        <time>2018-08-05T09:18:22Z</time>
      </trkpt>
      <trkpt lat="43.313536" lon="11.339450">
        <ele>304.509552</ele>
        <time>2018-08-05T09:18:38Z</time>
      </trkpt>
      <trkpt lat="43.312835" lon="11.339368">
        <ele>300.946960</ele>
        <time>2018-08-05T09:18:53Z</time>
      </trkpt>
      <trkpt lat="43.311999" lon="11.339391">
        <ele>294.387909</ele>
        <time>2018-08-05T09:19:08Z</time>
      </trkpt>
      <trkpt lat="43.311828" lon="11.339386">
        <ele>292.876404</ele>
        <time>2018-08-05T09:19:57Z</time>
      </trkpt>
      <trkpt lat="43.311970" lon="11.340341">
        <ele>284.587769</ele>
        <time>2018-08-05T09:20:12Z</time>
      </trkpt>
      <trkpt lat="43.312857" lon="11.341283">
        <ele>280.194489</ele>
        <time>2018-08-05T09:20:27Z</time>
      </trkpt>
      <trkpt lat="43.314192" lon="11.341927">
        <ele>279.392914</ele>
        <time>2018-08-05T09:20:43Z</time>
      </trkpt>
      <trkpt lat="43.315185" lon="11.342390">
        <ele>278.664276</ele>
        <time>2018-08-05T09:20:59Z</time>
      </trkpt>
      <trkpt lat="43.316670" lon="11.342297">
        <ele>278.552582</ele>
        <time>2018-08-05T09:21:14Z</time>
      </trkpt>
      <trkpt lat="43.316610" lon="11.343944">
        <ele>282.127380</ele>
        <time>2018-08-05T09:21:30Z</time>
      </trkpt>
      <trkpt lat="43.316829" lon="11.344275">
        <ele>283.253937</ele>
        <time>2018-08-05T09:21:47Z</time>
      </trkpt>
      <trkpt lat="43.317194" lon="11.343114">
        <ele>286.876709</ele>
        <time>2018-08-05T09:22:03Z</time>
      </trkpt>
      <trkpt lat="43.317640" lon="11.342439">
        <ele>294.585144</ele>
        <time>2018-08-05T09:22:18Z</time>
      </trkpt>
      <trkpt lat="43.318953" lon="11.342031">
        <ele>298.296326</ele>
        <time>2018-08-05T09:22:34Z</time>
      </trkpt>
      <trkpt lat="43.318618" lon="11.340503">
        <ele>297.396667</ele>
        <time>2018-08-05T09:22:50Z</time>
      </trkpt>
      <trkpt lat="43.319223" lon="11.339293">
        <ele>286.711823</ele>
        <time>2018-08-05T09:23:06Z</time>
      </trkpt>
      <trkpt lat="43.319838" lon="11.338424">
        <ele>279.750366</ele>
        <time>2018-08-05T09:23:22Z</time>
      </trkpt>
      <trkpt lat="43.320872" lon="11.338335">
        <ele>276.035706</ele>
        <time>2018-08-05T09:23:37Z</time>
      </trkpt>
      <trkpt lat="43.322106" lon="11.337413">
        <ele>285.757385</ele>
        <time>2018-08-05T09:23:53Z</time>
      </trkpt>
      <trkpt lat="43.323279" lon="11.336063">
        <ele>290.522400</ele>
        <time>2018-08-05T09:24:09Z</time>
      </trkpt>
      <trkpt lat="43.323579" lon="11.334100">
        <ele>300.194733</ele>
        <time>2018-08-05T09:24:24Z</time>
      </trkpt>
      <trkpt lat="43.323808" lon="11.333257">
        <ele>301.240509</ele>
        <time>2018-08-05T09:24:40Z</time>
      </trkpt>
      <trkpt lat="43.324589" lon="11.333843">
        <ele>297.354858</ele>
        <time>2018-08-05T09:24:55Z</time>
      </trkpt>
      <trkpt lat="43.325847" lon="11.333807">
        <ele>303.777374</ele>
        <time>2018-08-05T09:25:10Z</time>
      </trkpt>
      <trkpt lat="43.326720" lon="11.333700">
        <ele>297.872833</ele>
        <time>2018-08-05T09:25:25Z</time>
      </trkpt>
      <trkpt lat="43.327106" lon="11.332432">
        <ele>295.434387</ele>
        <time>2018-08-05T09:25:41Z</time>
      </trkpt>
      <trkpt lat="43.327567" lon="11.331839">
        <ele>285.946350</ele>
        <time>2018-08-05T09:25:56Z</time>
      </trkpt>
      <trkpt lat="43.327676" lon="11.330656">
        <ele>289.828613</ele>
        <time>2018-08-05T09:26:11Z</time>
      </trkpt>
      <trkpt lat="43.328628" lon="11.328599">
        <ele>290.618439</ele>
        <time>2018-08-05T09:26:27Z</time>
      </trkpt>
      <trkpt lat="43.329808" lon="11.326715">
        <ele>291.157379</ele>
        <time>2018-08-05T09:26:43Z</time>
      </trkpt>
      <trkpt lat="43.330187" lon="11.325981">
        <ele>290.952362</ele>
        <time>2018-08-05T09:26:58Z</time>
      </trkpt>
      <trkpt lat="43.330534" lon="11.324662">
        <ele>288.873535</ele>
        <time>2018-08-05T09:27:13Z</time>
      </trkpt>
      <trkpt lat="43.331055" lon="11.322960">
        <ele>286.615021</ele>
        <time>2018-08-05T09:27:29Z</time>
      </trkpt>
      <trkpt lat="43.331645" lon="11.321256">
        <ele>287.436646</ele>
        <time>2018-08-05T09:27:44Z</time>
      </trkpt>
      <trkpt lat="43.332255" lon="11.319396">
        <ele>291.817596</ele>
        <time>2018-08-05T09:28:00Z</time>
      </trkpt>
      <trkpt lat="43.332807" lon="11.317333">
        <ele>300.957855</ele>
        <time>2018-08-05T09:28:15Z</time>
      </trkpt>
      <trkpt lat="43.333355" lon="11.314664">
        <ele>309.997711</ele>
        <time>2018-08-05T09:28:30Z</time>
      </trkpt>
      <trkpt lat="43.333495" lon="11.312330">
        <ele>322.634552</ele>
        <time>2018-08-05T09:28:45Z</time>
      </trkpt>
      <trkpt lat="43.333764" lon="11.311713">
        <ele>324.828369</ele>
        <time>2018-08-05T09:29:01Z</time>
      </trkpt>
      <trkpt lat="43.333876" lon="11.311356">
        <ele>326.513428</ele>
        <time>2018-08-05T09:29:17Z</time>
      </trkpt>
      <trkpt lat="43.334412" lon="11.310071">
        <ele>337.832886</ele>
        <time>2018-08-05T09:29:33Z</time>
      </trkpt>
      <trkpt lat="43.334643" lon="11.309199">
        <ele>343.236542</ele>
        <time>2018-08-05T09:29:48Z</time>
      </trkpt>
      <trkpt lat="43.336233" lon="11.308045">
        <ele>349.663330</ele>
        <time>2018-08-05T09:30:04Z</time>
      </trkpt>
      <trkpt lat="43.337792" lon="11.307090">
        <ele>346.816040</ele>
        <time>2018-08-05T09:30:20Z</time>
      </trkpt>
      <trkpt lat="43.338949" lon="11.305929">
        <ele>346.207855</ele>
        <time>2018-08-05T09:30:35Z</time>
      </trkpt>
      <trkpt lat="43.340403" lon="11.305901">
        <ele>340.033508</ele>
        <time>2018-08-05T09:30:50Z</time>
      </trkpt>
      <trkpt lat="43.341737" lon="11.306011">
        <ele>336.720123</ele>
        <time>2018-08-05T09:31:05Z</time>
      </trkpt>
      <trkpt lat="43.342050" lon="11.306364">
        <ele>336.196106</ele>
        <time>2018-08-05T09:31:21Z</time>
      </trkpt>
      <trkpt lat="43.342162" lon="11.306223">
        <ele>336.216064</ele>
        <time>2018-08-05T09:36:34Z</time>
      </trkpt>
      <trkpt lat="43.342389" lon="11.305928">
        <ele>336.118103</ele>
        <time>2018-08-05T09:36:50Z</time>
      </trkpt>
      <trkpt lat="43.343448" lon="11.305632">
        <ele>339.030762</ele>
        <time>2018-08-05T09:37:06Z</time>
      </trkpt>
      <trkpt lat="43.344002" lon="11.303175">
        <ele>351.452881</ele>
        <time>2018-08-05T09:37:22Z</time>
      </trkpt>
      <trkpt lat="43.344539" lon="11.300401">
        <ele>353.451904</ele>
        <time>2018-08-05T09:37:37Z</time>
      </trkpt>
      <trkpt lat="43.344781" lon="11.298351">
        <ele>358.455627</ele>
        <time>2018-08-05T09:37:52Z</time>
      </trkpt>
      <trkpt lat="43.345260" lon="11.295954">
        <ele>365.126373</ele>
        <time>2018-08-05T09:38:08Z</time>
      </trkpt>
      <trkpt lat="43.345279" lon="11.292839">
        <ele>370.879547</ele>
        <time>2018-08-05T09:38:24Z</time>
      </trkpt>
      <trkpt lat="43.344473" lon="11.290018">
        <ele>361.792664</ele>
        <time>2018-08-05T09:38:39Z</time>
      </trkpt>
      <trkpt lat="43.343916" lon="11.287486">
        <ele>353.078491</ele>
        <time>2018-08-05T09:38:54Z</time>
      </trkpt>
      <trkpt lat="43.344150" lon="11.285772">
        <ele>342.806091</ele>
        <time>2018-08-05T09:39:09Z</time>
      </trkpt>
      <trkpt lat="43.343864" lon="11.283413">
        <ele>338.771332</ele>
        <time>2018-08-05T09:39:25Z</time>
      </trkpt>
      <trkpt lat="43.344329" lon="11.280962">
        <ele>338.504517</ele>
        <time>2018-08-05T09:39:41Z</time>
      </trkpt>
      <trkpt lat="43.346020" lon="11.279849">
        <ele>343.144318</ele>
        <time>2018-08-05T09:39:56Z</time>
      </trkpt>
      <trkpt lat="43.347807" lon="11.277888">
        <ele>327.175385</ele>
        <time>2018-08-05T09:40:12Z</time>
      </trkpt>
      <trkpt lat="43.348986" lon="11.275740">
        <ele>321.666565</ele>
        <time>2018-08-05T09:40:27Z</time>
      </trkpt>
      <trkpt lat="43.349523" lon="11.274894">
        <ele>320.435059</ele>
        <time>2018-08-05T09:40:43Z</time>
      </trkpt>
      <trkpt lat="43.348944" lon="11.275455">
        <ele>320.632599</ele>
        <time>2018-08-05T09:40:58Z</time>
      </trkpt>
      <trkpt lat="43.348087" lon="11.273469">
        <ele>311.144653</ele>
        <time>2018-08-05T09:41:14Z</time>
      </trkpt>
      <trkpt lat="43.349212" lon="11.271097">
        <ele>299.472687</ele>
        <time>2018-08-05T09:41:30Z</time>
      </trkpt>
      <trkpt lat="43.350664" lon="11.270310">
        <ele>289.167572</ele>
        <time>2018-08-05T09:41:46Z</time>
      </trkpt>
      <trkpt lat="43.351976" lon="11.269201">
        <ele>280.035065</ele>
        <time>2018-08-05T09:42:01Z</time>
      </trkpt>
      <trkpt lat="43.352595" lon="11.265892">
        <ele>277.467896</ele>
        <time>2018-08-05T09:42:17Z</time>
      </trkpt>
      <trkpt lat="43.353786" lon="11.263373">
        <ele>275.439667</ele>
        <time>2018-08-05T09:42:33Z</time>
      </trkpt>
      <trkpt lat="43.356408" lon="11.262370">
        <ele>273.558441</ele>
        <time>2018-08-05T09:42:49Z</time>
      </trkpt>
      <trkpt lat="43.358571" lon="11.260091">
        <ele>271.546387</ele>
        <time>2018-08-05T09:43:04Z</time>
      </trkpt>
      <trkpt lat="43.361199" lon="11.257971">
        <ele>274.560974</ele>
        <time>2018-08-05T09:43:20Z</time>
      </trkpt>
      <trkpt lat="43.362912" lon="11.255283">
        <ele>278.143372</ele>
        <time>2018-08-05T09:43:35Z</time>
      </trkpt>
      <trkpt lat="43.365208" lon="11.254454">
        <ele>292.912811</ele>
        <time>2018-08-05T09:43:50Z</time>
      </trkpt>
      <trkpt lat="43.368039" lon="11.254239">
        <ele>288.900513</ele>
        <time>2018-08-05T09:44:06Z</time>
      </trkpt>
      <trkpt lat="43.370896" lon="11.254812">
        <ele>276.453583</ele>
        <time>2018-08-05T09:44:21Z</time>
      </trkpt>
      <trkpt lat="43.373699" lon="11.254792">
        <ele>266.611786</ele>
        <time>2018-08-05T09:44:37Z</time>
      </trkpt>
      <trkpt lat="43.375677" lon="11.252463">
        <ele>266.817993</ele>
        <time>2018-08-05T09:44:52Z</time>
      </trkpt>
      <trkpt lat="43.376830" lon="11.249100">
        <ele>253.543640</ele>
        <time>2018-08-05T09:45:08Z</time>
      </trkpt>
      <trkpt lat="43.378769" lon="11.246983">
        <ele>245.346558</ele>
        <time>2018-08-05T09:45:23Z</time>
      </trkpt>
      <trkpt lat="43.381216" lon="11.245532">
        <ele>238.941528</ele>
        <time>2018-08-05T09:45:39Z</time>
      </trkpt>
      <trkpt lat="43.382011" lon="11.243186">
        <ele>237.454025</ele>
        <time>2018-08-05T09:45:55Z</time>
      </trkpt>
      <trkpt lat="43.383024" lon="11.239779">
        <ele>244.255890</ele>
        <time>2018-08-05T09:46:11Z</time>
      </trkpt>
      <trkpt lat="43.385762" lon="11.237348">
        <ele>231.349854</ele>
        <time>2018-08-05T09:46:27Z</time>
      </trkpt>
      <trkpt lat="43.385598" lon="11.234361">
        <ele>220.798157</ele>
        <time>2018-08-05T09:46:42Z</time>
      </trkpt>
      <trkpt lat="43.385067" lon="11.230583">
        <ele>235.638504</ele>
        <time>2018-08-05T09:46:58Z</time>
      </trkpt>
      <trkpt lat="43.385449" lon="11.227393">
        <ele>242.279800</ele>
        <time>2018-08-05T09:47:14Z</time>
      </trkpt>
      <trkpt lat="43.385952" lon="11.224850">
        <ele>236.488251</ele>
        <time>2018-08-05T09:47:30Z</time>
      </trkpt>
      <trkpt lat="43.387962" lon="11.222038">
        <ele>228.886566</ele>
        <time>2018-08-05T09:47:46Z</time>
      </trkpt>
      <trkpt lat="43.390154" lon="11.219980">
        <ele>217.242081</ele>
        <time>2018-08-05T09:48:02Z</time>
      </trkpt>
      <trkpt lat="43.392168" lon="11.219349">
        <ele>211.403778</ele>
        <time>2018-08-05T09:48:18Z</time>
      </trkpt>
      <trkpt lat="43.393117" lon="11.218616">
        <ele>203.717712</ele>
        <time>2018-08-05T09:48:33Z</time>
      </trkpt>
      <trkpt lat="43.394540" lon="11.217400">
        <ele>196.037262</ele>
        <time>2018-08-05T09:48:49Z</time>
      </trkpt>
      <trkpt lat="43.396730" lon="11.216454">
        <ele>192.254761</ele>
        <time>2018-08-05T09:49:04Z</time>
      </trkpt>
      <trkpt lat="43.399474" lon="11.215640">
        <ele>198.356384</ele>
        <time>2018-08-05T09:49:20Z</time>
      </trkpt>
      <trkpt lat="43.402198" lon="11.214292">
        <ele>200.284393</ele>
        <time>2018-08-05T09:49:36Z</time>
      </trkpt>
      <trkpt lat="43.403408" lon="11.212569">
        <ele>193.660934</ele>
        <time>2018-08-05T09:49:52Z</time>
      </trkpt>
      <trkpt lat="43.404660" lon="11.211146">
        <ele>198.810394</ele>
        <time>2018-08-05T09:50:08Z</time>
      </trkpt>
      <trkpt lat="43.405820" lon="11.210241">
        <ele>193.819458</ele>
        <time>2018-08-05T09:50:23Z</time>
      </trkpt>
      <trkpt lat="43.406300" lon="11.209888">
        <ele>195.471375</ele>
        <time>2018-08-05T09:50:44Z</time>
      </trkpt>
      <trkpt lat="43.406870" lon="11.209609">
        <ele>197.689682</ele>
        <time>2018-08-05T09:50:59Z</time>
      </trkpt>
      <trkpt lat="43.408806" lon="11.208453">
        <ele>200.576416</ele>
        <time>2018-08-05T09:51:15Z</time>
      </trkpt>
      <trkpt lat="43.410380" lon="11.206922">
        <ele>191.341141</ele>
        <time>2018-08-05T09:51:31Z</time>
      </trkpt>
      <trkpt lat="43.411622" lon="11.205590">
        <ele>193.583405</ele>
        <time>2018-08-05T09:51:47Z</time>
      </trkpt>
      <trkpt lat="43.413194" lon="11.203360">
        <ele>188.963654</ele>
        <time>2018-08-05T09:52:02Z</time>
      </trkpt>
      <trkpt lat="43.415065" lon="11.200338">
        <ele>181.249176</ele>
        <time>2018-08-05T09:52:18Z</time>
      </trkpt>
      <trkpt lat="43.416418" lon="11.196780">
        <ele>176.974091</ele>
        <time>2018-08-05T09:52:34Z</time>
      </trkpt>
      <trkpt lat="43.416617" lon="11.193910">
        <ele>167.571396</ele>
        <time>2018-08-05T09:52:49Z</time>
      </trkpt>
      <trkpt lat="43.417535" lon="11.191160">
        <ele>175.073135</ele>
        <time>2018-08-05T09:53:04Z</time>
      </trkpt>
      <trkpt lat="43.418775" lon="11.188009">
        <ele>170.491135</ele>
        <time>2018-08-05T09:53:20Z</time>
      </trkpt>
      <trkpt lat="43.420056" lon="11.185666">
        <ele>175.879852</ele>
        <time>2018-08-05T09:53:35Z</time>
      </trkpt>
      <trkpt lat="43.421028" lon="11.183852">
        <ele>176.243149</ele>
        <time>2018-08-05T09:53:50Z</time>
      </trkpt>
      <trkpt lat="43.421997" lon="11.182853">
        <ele>173.870499</ele>
        <time>2018-08-05T09:54:06Z</time>
      </trkpt>
      <trkpt lat="43.423340" lon="11.182231">
        <ele>169.640717</ele>
        <time>2018-08-05T09:54:23Z</time>
      </trkpt>
      <trkpt lat="43.424330" lon="11.181549">
        <ele>163.768402</ele>
        <time>2018-08-05T09:54:38Z</time>
      </trkpt>
      <trkpt lat="43.425335" lon="11.179981">
        <ele>158.707001</ele>
        <time>2018-08-05T09:54:53Z</time>
      </trkpt>
      <trkpt lat="43.425386" lon="11.179793">
        <ele>159.340591</ele>
        <time>2018-08-05T09:55:28Z</time>
      </trkpt>
      <trkpt lat="43.425497" lon="11.179658">
        <ele>159.140594</ele>
        <time>2018-08-05T09:59:45Z</time>
      </trkpt>
      <trkpt lat="43.425600" lon="11.179536">
        <ele>159.157120</ele>
        <time>2018-08-05T10:05:54Z</time>
      </trkpt>
      <trkpt lat="43.425746" lon="11.179399">
        <ele>159.188446</ele>
        <time>2018-08-05T10:11:51Z</time>
      </trkpt>
      <trkpt lat="43.426990" lon="11.177168">
        <ele>162.049408</ele>
        <time>2018-08-05T10:12:07Z</time>
      </trkpt>
      <trkpt lat="43.428146" lon="11.174985">
        <ele>166.900589</ele>
        <time>2018-08-05T10:12:22Z</time>
      </trkpt>
      <trkpt lat="43.430184" lon="11.175635">
        <ele>159.342621</ele>
        <time>2018-08-05T10:12:38Z</time>
      </trkpt>
      <trkpt lat="43.431455" lon="11.176110">
        <ele>159.309845</ele>
        <time>2018-08-05T10:12:53Z</time>
      </trkpt>
      <trkpt lat="43.433715" lon="11.176567">
        <ele>156.624847</ele>
        <time>2018-08-05T10:13:09Z</time>
      </trkpt>
      <trkpt lat="43.436091" lon="11.173995">
        <ele>151.341278</ele>
        <time>2018-08-05T10:13:25Z</time>
      </trkpt>
      <trkpt lat="43.437793" lon="11.170453">
        <ele>143.767029</ele>
        <time>2018-08-05T10:13:41Z</time>
      </trkpt>
      <trkpt lat="43.438942" lon="11.166893">
        <ele>125.844193</ele>
        <time>2018-08-05T10:13:56Z</time>
      </trkpt>
      <trkpt lat="43.440067" lon="11.163825">
        <ele>141.386337</ele>
        <time>2018-08-05T10:14:12Z</time>
      </trkpt>
      <trkpt lat="43.440744" lon="11.160164">
        <ele>139.613983</ele>
        <time>2018-08-05T10:14:28Z</time>
      </trkpt>
      <trkpt lat="43.442618" lon="11.157212">
        <ele>133.585587</ele>
        <time>2018-08-05T10:14:44Z</time>
      </trkpt>
      <trkpt lat="43.445240" lon="11.156140">
        <ele>133.874481</ele>
        <time>2018-08-05T10:14:59Z</time>
      </trkpt>
      <trkpt lat="43.447969" lon="11.155699">
        <ele>133.894394</ele>
        <time>2018-08-05T10:15:15Z</time>
      </trkpt>
      <trkpt lat="43.450381" lon="11.154764">
        <ele>128.485931</ele>
        <time>2018-08-05T10:15:31Z</time>
      </trkpt>
      <trkpt lat="43.450817" lon="11.152457">
        <ele>122.514648</ele>
        <time>2018-08-05T10:15:46Z</time>
      </trkpt>
      <trkpt lat="43.452041" lon="11.152206">
        <ele>112.927902</ele>
        <time>2018-08-05T10:16:01Z</time>
      </trkpt>
      <trkpt lat="43.453594" lon="11.153192">
        <ele>113.992447</ele>
        <time>2018-08-05T10:16:17Z</time>
      </trkpt>
      <trkpt lat="43.453716" lon="11.152519">
        <ele>117.827095</ele>
        <time>2018-08-05T10:16:33Z</time>
      </trkpt>
      <trkpt lat="43.453280" lon="11.150764">
        <ele>125.856720</ele>
        <time>2018-08-05T10:16:48Z</time>
      </trkpt>
      <trkpt lat="43.455026" lon="11.150889">
        <ele>140.904068</ele>
        <time>2018-08-05T10:17:04Z</time>
      </trkpt>
      <trkpt lat="43.457024" lon="11.151539">
        <ele>156.995850</ele>
        <time>2018-08-05T10:17:19Z</time>
      </trkpt>
      <trkpt lat="43.458477" lon="11.149105">
        <ele>174.705353</ele>
        <time>2018-08-05T10:17:35Z</time>
      </trkpt>
      <trkpt lat="43.460309" lon="11.146919">
        <ele>161.242798</ele>
        <time>2018-08-05T10:17:51Z</time>
      </trkpt>
      <trkpt lat="43.462231" lon="11.146011">
        <ele>140.643036</ele>
        <time>2018-08-05T10:18:07Z</time>
      </trkpt>
      <trkpt lat="43.463960" lon="11.145398">
        <ele>127.752304</ele>
        <time>2018-08-05T10:18:23Z</time>
      </trkpt>
      <trkpt lat="43.465440" lon="11.144796">
        <ele>107.933746</ele>
        <time>2018-08-05T10:18:39Z</time>
      </trkpt>
      <trkpt lat="43.466951" lon="11.144041">
        <ele>101.326904</ele>
        <time>2018-08-05T10:18:54Z</time>
      </trkpt>
      <trkpt lat="43.467846" lon="11.143493">
        <ele>101.565430</ele>
        <time>2018-08-05T10:19:11Z</time>
      </trkpt>
      <trkpt lat="43.467665" lon="11.142639">
        <ele>97.061218</ele>
        <time>2018-08-05T10:19:26Z</time>
      </trkpt>
      <trkpt lat="43.467187" lon="11.141015">
        <ele>95.624084</ele>
        <time>2018-08-05T10:19:42Z</time>
      </trkpt>
      <trkpt lat="43.467547" lon="11.139174">
        <ele>94.894928</ele>
        <time>2018-08-05T10:19:57Z</time>
      </trkpt>
      <trkpt lat="43.468470" lon="11.137236">
        <ele>95.735519</ele>
        <time>2018-08-05T10:20:13Z</time>
      </trkpt>
      <trkpt lat="43.469170" lon="11.135042">
        <ele>92.150566</ele>
        <time>2018-08-05T10:20:29Z</time>
      </trkpt>
      <trkpt lat="43.469683" lon="11.131945">
        <ele>106.303589</ele>
        <time>2018-08-05T10:20:45Z</time>
      </trkpt>
      <trkpt lat="43.469746" lon="11.129053">
        <ele>103.836319</ele>
        <time>2018-08-05T10:21:00Z</time>
      </trkpt>
      <trkpt lat="43.470367" lon="11.128166">
        <ele>95.012390</ele>
        <time>2018-08-05T10:21:15Z</time>
      </trkpt>
      <trkpt lat="43.469405" lon="11.126734">
        <ele>98.856346</ele>
        <time>2018-08-05T10:21:31Z</time>
      </trkpt>
      <trkpt lat="43.467426" lon="11.126248">
        <ele>97.122643</ele>
        <time>2018-08-05T10:21:46Z</time>
      </trkpt>
      <trkpt lat="43.465410" lon="11.125167">
        <ele>101.525665</ele>
        <time>2018-08-05T10:22:01Z</time>
      </trkpt>
      <trkpt lat="43.463276" lon="11.123760">
        <ele>100.001381</ele>
        <time>2018-08-05T10:22:17Z</time>
      </trkpt>
      <trkpt lat="43.462078" lon="11.121682">
        <ele>97.537079</ele>
        <time>2018-08-05T10:22:32Z</time>
      </trkpt>
      <trkpt lat="43.461513" lon="11.119330">
        <ele>96.655251</ele>
        <time>2018-08-05T10:22:48Z</time>
      </trkpt>
      <trkpt lat="43.460952" lon="11.116455">
        <ele>96.894058</ele>
        <time>2018-08-05T10:23:04Z</time>
      </trkpt>
      <trkpt lat="43.460361" lon="11.113405">
        <ele>95.592514</ele>
        <time>2018-08-05T10:23:19Z</time>
      </trkpt>
      <trkpt lat="43.459856" lon="11.110684">
        <ele>97.969025</ele>
        <time>2018-08-05T10:23:34Z</time>
      </trkpt>
      <trkpt lat="43.459517" lon="11.108796">
        <ele>97.685913</ele>
        <time>2018-08-05T10:23:49Z</time>
      </trkpt>
      <trkpt lat="43.459085" lon="11.105864">
        <ele>97.326668</ele>
        <time>2018-08-05T10:24:05Z</time>
      </trkpt>
      <trkpt lat="43.459425" lon="11.102721">
        <ele>103.939713</ele>
        <time>2018-08-05T10:24:20Z</time>
      </trkpt>
      <trkpt lat="43.459481" lon="11.099764">
        <ele>104.023895</ele>
        <time>2018-08-05T10:24:35Z</time>
      </trkpt>
      <trkpt lat="43.459325" lon="11.096515">
        <ele>106.147568</ele>
        <time>2018-08-05T10:24:50Z</time>
      </trkpt>
      <trkpt lat="43.458942" lon="11.093702">
        <ele>108.114243</ele>
        <time>2018-08-05T10:25:05Z</time>
      </trkpt>
      <trkpt lat="43.457721" lon="11.091237">
        <ele>115.387024</ele>
        <time>2018-08-05T10:25:21Z</time>
      </trkpt>
      <trkpt lat="43.455768" lon="11.087890">
        <ele>113.249962</ele>
        <time>2018-08-05T10:25:37Z</time>
      </trkpt>
      <trkpt lat="43.453755" lon="11.085014">
        <ele>118.447746</ele>
        <time>2018-08-05T10:25:53Z</time>
      </trkpt>
      <trkpt lat="43.453063" lon="11.081808">
        <ele>120.285309</ele>
        <time>2018-08-05T10:26:09Z</time>
      </trkpt>
      <trkpt lat="43.453530" lon="11.078315">
        <ele>120.925758</ele>
        <time>2018-08-05T10:26:25Z</time>
      </trkpt>
      <trkpt lat="43.454203" lon="11.075165">
        <ele>129.093506</ele>
        <time>2018-08-05T10:26:41Z</time>
      </trkpt>
      <trkpt lat="43.456058" lon="11.073345">
        <ele>129.531616</ele>
        <time>2018-08-05T10:26:56Z</time>
      </trkpt>
      <trkpt lat="43.457625" lon="11.070961">
        <ele>138.554947</ele>
        <time>2018-08-05T10:27:12Z</time>
      </trkpt>
      <trkpt lat="43.459194" lon="11.067923">
        <ele>137.675095</ele>
        <time>2018-08-05T10:27:27Z</time>
      </trkpt>
      <trkpt lat="43.459864" lon="11.064978">
        <ele>147.483017</ele>
        <time>2018-08-05T10:27:43Z</time>
      </trkpt>
      <trkpt lat="43.459188" lon="11.062691">
        <ele>159.160172</ele>
        <time>2018-08-05T10:27:58Z</time>
      </trkpt>
      <trkpt lat="43.459000" lon="11.060246">
        <ele>172.542236</ele>
        <time>2018-08-05T10:28:14Z</time>
      </trkpt>
      <trkpt lat="43.458974" lon="11.057447">
        <ele>193.825150</ele>
        <time>2018-08-05T10:28:30Z</time>
      </trkpt>
      <trkpt lat="43.458674" lon="11.054251">
        <ele>210.471832</ele>
        <time>2018-08-05T10:28:46Z</time>
      </trkpt>
      <trkpt lat="43.458691" lon="11.050902">
        <ele>231.664948</ele>
        <time>2018-08-05T10:29:02Z</time>
      </trkpt>
      <trkpt lat="43.459520" lon="11.048285">
        <ele>242.508179</ele>
        <time>2018-08-05T10:29:17Z</time>
      </trkpt>
      <trkpt lat="43.461437" lon="11.046015">
        <ele>259.520538</ele>
        <time>2018-08-05T10:29:33Z</time>
      </trkpt>
      <trkpt lat="43.461656" lon="11.042664">
        <ele>275.812103</ele>
        <time>2018-08-05T10:29:49Z</time>
      </trkpt>
      <trkpt lat="43.462290" lon="11.041444">
        <ele>283.102997</ele>
        <time>2018-08-05T10:30:04Z</time>
      </trkpt>
      <trkpt lat="43.462335" lon="11.040081">
        <ele>284.217255</ele>
        <time>2018-08-05T10:30:20Z</time>
      </trkpt>
      <trkpt lat="43.463231" lon="11.040920">
        <ele>292.710938</ele>
        <time>2018-08-05T10:30:35Z</time>
      </trkpt>
      <trkpt lat="43.463449" lon="11.041928">
        <ele>298.483582</ele>
        <time>2018-08-05T10:30:55Z</time>
      </trkpt>
      <trkpt lat="43.463607" lon="11.042250">
        <ele>299.221741</ele>
        <time>2018-08-05T10:31:11Z</time>
      </trkpt>
      <trkpt lat="43.464258" lon="11.042526">
        <ele>304.159668</ele>
        <time>2018-08-05T10:31:26Z</time>
      </trkpt>
      <trkpt lat="43.464564" lon="11.041929">
        <ele>307.072937</ele>
        <time>2018-08-05T10:31:42Z</time>
      </trkpt>
      <trkpt lat="43.464551" lon="11.041738">
        <ele>306.947266</ele>
        <time>2018-08-05T10:31:57Z</time>
      </trkpt>
      <trkpt lat="43.464194" lon="11.041562">
        <ele>305.056152</ele>
        <time>2018-08-05T10:32:13Z</time>
      </trkpt>
      <trkpt lat="43.463914" lon="11.041499">
        <ele>302.154968</ele>
        <time>2018-08-05T10:32:29Z</time>
      </trkpt>
      <trkpt lat="43.463761" lon="11.041523">
        <ele>300.979858</ele>
        <time>2018-08-05T10:32:55Z</time>
      </trkpt>
      <trkpt lat="43.463494" lon="11.041898">
        <ele>298.986969</ele>
        <time>2018-08-05T10:33:14Z</time>
      </trkpt>
      <trkpt lat="43.463475" lon="11.042095">
        <ele>298.333588</ele>
        <time>2018-08-05T10:33:30Z</time>
      </trkpt>
      <trkpt lat="43.463537" lon="11.042548">
        <ele>297.385742</ele>
        <time>2018-08-05T10:33:45Z</time>
      </trkpt>
      <trkpt lat="43.463119" lon="11.042792">
        <ele>292.467712</ele>
        <time>2018-08-05T10:34:01Z</time>
      </trkpt>
      <trkpt lat="43.463016" lon="11.042998">
        <ele>290.973480</ele>
        <time>2018-08-05T10:34:16Z</time>
      </trkpt>
      <trkpt lat="43.463416" lon="11.042584">
        <ele>295.966034</ele>
        <time>2018-08-05T10:34:32Z</time>
      </trkpt>
      <trkpt lat="43.463429" lon="11.042122">
        <ele>297.830048</ele>
        <time>2018-08-05T10:34:47Z</time>
      </trkpt>
      <trkpt lat="43.463538" lon="11.042232">
        <ele>298.612793</ele>
        <time>2018-08-05T10:40:45Z</time>
      </trkpt>
      <trkpt lat="43.463625" lon="11.042386">
        <ele>299.074463</ele>
        <time>2018-08-05T10:41:01Z</time>
      </trkpt>
      <trkpt lat="43.463815" lon="11.042514">
        <ele>300.393951</ele>
        <time>2018-08-05T10:41:16Z</time>
      </trkpt>
      <trkpt lat="43.463957" lon="11.042556">
        <ele>300.903107</ele>
        <time>2018-08-05T10:44:49Z</time>
      </trkpt>
      <trkpt lat="43.464086" lon="11.042641">
        <ele>300.210815</ele>
        <time>2018-08-05T10:45:06Z</time>
      </trkpt>
      <trkpt lat="43.464245" lon="11.042658">
        <ele>301.032379</ele>
        <time>2018-08-05T10:45:21Z</time>
      </trkpt>
      <trkpt lat="43.464417" lon="11.042660">
        <ele>302.330933</ele>
        <time>2018-08-05T10:45:37Z</time>
      </trkpt>
      <trkpt lat="43.464572" lon="11.042681">
        <ele>303.054169</ele>
        <time>2018-08-05T10:45:52Z</time>
      </trkpt>
      <trkpt lat="43.464705" lon="11.042632">
        <ele>305.317505</ele>
        <time>2018-08-05T10:47:20Z</time>
      </trkpt>
      <trkpt lat="43.464843" lon="11.042621">
        <ele>306.677795</ele>
        <time>2018-08-05T10:47:59Z</time>
      </trkpt>
      <trkpt lat="43.464985" lon="11.042681">
        <ele>306.319427</ele>
        <time>2018-08-05T10:48:19Z</time>
      </trkpt>
      <trkpt lat="43.465144" lon="11.042646">
        <ele>307.942688</ele>
        <time>2018-08-05T10:48:35Z</time>
      </trkpt>
      <trkpt lat="43.465282" lon="11.042674">
        <ele>307.916687</ele>
        <time>2018-08-05T10:48:54Z</time>
      </trkpt>
      <trkpt lat="43.465469" lon="11.042680">
        <ele>308.676270</ele>
        <time>2018-08-05T10:49:09Z</time>
      </trkpt>
      <trkpt lat="43.465651" lon="11.042618">
        <ele>310.590485</ele>
        <time>2018-08-05T10:49:25Z</time>
      </trkpt>
      <trkpt lat="43.465792" lon="11.042667">
        <ele>310.407257</ele>
        <time>2018-08-05T10:49:42Z</time>
      </trkpt>
      <trkpt lat="43.465948" lon="11.042668">
        <ele>311.607422</ele>
        <time>2018-08-05T10:49:57Z</time>
      </trkpt>
      <trkpt lat="43.466090" lon="11.042705">
        <ele>312.423279</ele>
        <time>2018-08-05T10:51:39Z</time>
      </trkpt>
      <trkpt lat="43.466225" lon="11.042701">
        <ele>313.712250</ele>
        <time>2018-08-05T10:52:15Z</time>
      </trkpt>
      <trkpt lat="43.466367" lon="11.042700">
        <ele>315.032043</ele>
        <time>2018-08-05T10:52:36Z</time>
      </trkpt>
      <trkpt lat="43.466527" lon="11.042736">
        <ele>316.242157</ele>
        <time>2018-08-05T10:52:51Z</time>
      </trkpt>
      <trkpt lat="43.466658" lon="11.042785">
        <ele>317.200195</ele>
        <time>2018-08-05T10:53:07Z</time>
      </trkpt>
      <trkpt lat="43.466803" lon="11.042941">
        <ele>319.051697</ele>
        <time>2018-08-05T10:55:18Z</time>
      </trkpt>
      <trkpt lat="43.466671" lon="11.042655">
        <ele>318.162781</ele>
        <time>2018-08-05T10:55:33Z</time>
      </trkpt>
      <trkpt lat="43.466723" lon="11.042837">
        <ele>318.082977</ele>
        <time>2018-08-05T10:55:48Z</time>
      </trkpt>
      <trkpt lat="43.466826" lon="11.042970">
        <ele>319.350006</ele>
        <time>2018-08-05T10:56:54Z</time>
      </trkpt>
      <trkpt lat="43.466968" lon="11.042975">
        <ele>322.138153</ele>
        <time>2018-08-05T10:57:14Z</time>
      </trkpt>
      <trkpt lat="43.467069" lon="11.043106">
        <ele>323.443726</ele>
        <time>2018-08-05T10:57:30Z</time>
      </trkpt>
      <trkpt lat="43.467138" lon="11.043268">
        <ele>323.957642</ele>
        <time>2018-08-05T10:57:55Z</time>
      </trkpt>
      <trkpt lat="43.467285" lon="11.043176">
        <ele>327.413025</ele>
        <time>2018-08-05T10:58:11Z</time>
      </trkpt>
      <trkpt lat="43.467369" lon="11.043441">
        <ele>327.641174</ele>
        <time>2018-08-05T10:58:26Z</time>
      </trkpt>
      <trkpt lat="43.467497" lon="11.043511">
        <ele>329.878418</ele>
        <time>2018-08-05T10:59:30Z</time>
      </trkpt>
      <trkpt lat="43.467623" lon="11.043423">
        <ele>329.598999</ele>
        <time>2018-08-05T10:59:48Z</time>
      </trkpt>
      <trkpt lat="43.467745" lon="11.043320">
        <ele>329.587738</ele>
        <time>2018-08-05T11:01:19Z</time>
      </trkpt>
      <trkpt lat="43.467919" lon="11.043324">
        <ele>328.526764</ele>
        <time>2018-08-05T11:01:34Z</time>
      </trkpt>
      <trkpt lat="43.468049" lon="11.043268">
        <ele>327.966644</ele>
        <time>2018-08-05T11:01:51Z</time>
      </trkpt>
      <trkpt lat="43.468124" lon="11.043105">
        <ele>328.150024</ele>
        <time>2018-08-05T11:02:13Z</time>
      </trkpt>
      <trkpt lat="43.468251" lon="11.043017">
        <ele>327.667389</ele>
        <time>2018-08-05T11:02:33Z</time>
      </trkpt>
      <trkpt lat="43.468382" lon="11.042872">
        <ele>326.489929</ele>
        <time>2018-08-05T11:02:49Z</time>
      </trkpt>
      <trkpt lat="43.468518" lon="11.042793">
        <ele>323.631866</ele>
        <time>2018-08-05T11:03:04Z</time>
      </trkpt>
      <trkpt lat="43.468637" lon="11.042694">
        <ele>321.499786</ele>
        <time>2018-08-05T11:03:35Z</time>
      </trkpt>
      <trkpt lat="43.468771" lon="11.042554">
        <ele>319.646454</ele>
        <time>2018-08-05T11:03:51Z</time>
      </trkpt>
      <trkpt lat="43.468838" lon="11.042393">
        <ele>319.480377</ele>
        <time>2018-08-05T11:04:10Z</time>
      </trkpt>
      <trkpt lat="43.468955" lon="11.042276">
        <ele>318.133301</ele>
        <time>2018-08-05T11:04:26Z</time>
      </trkpt>
      <trkpt lat="43.469055" lon="11.042082">
        <ele>317.953918</ele>
        <time>2018-08-05T11:04:41Z</time>
      </trkpt>
      <trkpt lat="43.469136" lon="11.041902">
        <ele>318.239532</ele>
        <time>2018-08-05T11:04:57Z</time>
      </trkpt>
      <trkpt lat="43.469172" lon="11.041719">
        <ele>319.449829</ele>
        <time>2018-08-05T11:05:13Z</time>
      </trkpt>
      <trkpt lat="43.469272" lon="11.041589">
        <ele>318.788116</ele>
        <time>2018-08-05T11:05:29Z</time>
      </trkpt>
      <trkpt lat="43.469380" lon="11.041477">
        <ele>317.288361</ele>
        <time>2018-08-05T11:05:48Z</time>
      </trkpt>
      <trkpt lat="43.469468" lon="11.041330">
        <ele>315.675201</ele>
        <time>2018-08-05T11:06:04Z</time>
      </trkpt>
      <trkpt lat="43.469608" lon="11.041350">
        <ele>314.348022</ele>
        <time>2018-08-05T11:06:21Z</time>
      </trkpt>
      <trkpt lat="43.469730" lon="11.041259">
        <ele>312.479187</ele>
        <time>2018-08-05T11:06:45Z</time>
      </trkpt>
      <trkpt lat="43.469860" lon="11.041318">
        <ele>311.524231</ele>
        <time>2018-08-05T11:07:34Z</time>
      </trkpt>
      <trkpt lat="43.469953" lon="11.041463">
        <ele>311.738098</ele>
        <time>2018-08-05T11:07:53Z</time>
      </trkpt>
      <trkpt lat="43.470145" lon="11.041458">
        <ele>311.205688</ele>
        <time>2018-08-05T11:08:52Z</time>
      </trkpt>
      <trkpt lat="43.469802" lon="11.041594">
        <ele>314.138153</ele>
        <time>2018-08-05T11:10:58Z</time>
      </trkpt>
      <trkpt lat="43.469718" lon="11.041437">
        <ele>313.808014</ele>
        <time>2018-08-05T11:11:15Z</time>
      </trkpt>
      <trkpt lat="43.469590" lon="11.041336">
        <ele>314.450226</ele>
        <time>2018-08-05T11:26:56Z</time>
      </trkpt>
      <trkpt lat="43.469009" lon="11.041766">
        <ele>321.427643</ele>
        <time>2018-08-05T11:27:11Z</time>
      </trkpt>
      <trkpt lat="43.469517" lon="11.041245">
        <ele>314.687744</ele>
        <time>2018-08-05T11:27:27Z</time>
      </trkpt>
      <trkpt lat="43.469465" lon="11.041466">
        <ele>316.421631</ele>
        <time>2018-08-05T11:27:43Z</time>
      </trkpt>
      <trkpt lat="43.469368" lon="11.041686">
        <ele>318.129333</ele>
        <time>2018-08-05T11:27:58Z</time>
      </trkpt>
      <trkpt lat="43.469289" lon="11.041845">
        <ele>317.296356</ele>
        <time>2018-08-05T11:29:02Z</time>
      </trkpt>
      <trkpt lat="43.469165" lon="11.042019">
        <ele>316.643188</ele>
        <time>2018-08-05T11:29:17Z</time>
      </trkpt>
      <trkpt lat="43.469031" lon="11.042065">
        <ele>318.517242</ele>
        <time>2018-08-05T11:29:36Z</time>
      </trkpt>
      <trkpt lat="43.468897" lon="11.042197">
        <ele>319.830933</ele>
        <time>2018-08-05T11:29:52Z</time>
      </trkpt>
      <trkpt lat="43.468807" lon="11.042366">
        <ele>320.275574</ele>
        <time>2018-08-05T11:30:08Z</time>
      </trkpt>
      <trkpt lat="43.468732" lon="11.042533">
        <ele>320.605713</ele>
        <time>2018-08-05T11:30:23Z</time>
      </trkpt>
      <trkpt lat="43.468648" lon="11.042685">
        <ele>321.320038</ele>
        <time>2018-08-05T11:30:39Z</time>
      </trkpt>
      <trkpt lat="43.468520" lon="11.042763">
        <ele>323.745300</ele>
        <time>2018-08-05T11:30:57Z</time>
      </trkpt>
      <trkpt lat="43.468418" lon="11.042886">
        <ele>325.549744</ele>
        <time>2018-08-05T11:31:20Z</time>
      </trkpt>
      <trkpt lat="43.468310" lon="11.043012">
        <ele>327.308105</ele>
        <time>2018-08-05T11:31:36Z</time>
      </trkpt>
      <trkpt lat="43.468186" lon="11.043190">
        <ele>327.430695</ele>
        <time>2018-08-05T11:31:52Z</time>
      </trkpt>
      <trkpt lat="43.468029" lon="11.043309">
        <ele>327.927460</ele>
        <time>2018-08-05T11:32:07Z</time>
      </trkpt>
      <trkpt lat="43.467878" lon="11.043326">
        <ele>328.760925</ele>
        <time>2018-08-05T11:32:22Z</time>
      </trkpt>
      <trkpt lat="43.467761" lon="11.043436">
        <ele>328.510529</ele>
        <time>2018-08-05T11:32:37Z</time>
      </trkpt>
      <trkpt lat="43.467612" lon="11.043481">
        <ele>329.251129</ele>
        <time>2018-08-05T11:32:53Z</time>
      </trkpt>
      <trkpt lat="43.467460" lon="11.043426">
        <ele>329.619507</ele>
        <time>2018-08-05T11:33:09Z</time>
      </trkpt>
      <trkpt lat="43.467306" lon="11.043335">
        <ele>327.039886</ele>
        <time>2018-08-05T11:33:25Z</time>
      </trkpt>
      <trkpt lat="43.467151" lon="11.043231">
        <ele>324.423828</ele>
        <time>2018-08-05T11:33:41Z</time>
      </trkpt>
      <trkpt lat="43.467026" lon="11.043038">
        <ele>322.950806</ele>
        <time>2018-08-05T11:33:56Z</time>
      </trkpt>
      <trkpt lat="43.466800" lon="11.042848">
        <ele>319.541656</ele>
        <time>2018-08-05T11:34:12Z</time>
      </trkpt>
      <trkpt lat="43.466632" lon="11.042774">
        <ele>317.009033</ele>
        <time>2018-08-05T11:34:27Z</time>
      </trkpt>
      <trkpt lat="43.466481" lon="11.042671">
        <ele>316.316772</ele>
        <time>2018-08-05T11:34:43Z</time>
      </trkpt>
      <trkpt lat="43.466322" lon="11.042609">
        <ele>315.487793</ele>
        <time>2018-08-05T11:34:58Z</time>
      </trkpt>
      <trkpt lat="43.466127" lon="11.042606">
        <ele>313.895416</ele>
        <time>2018-08-05T11:35:14Z</time>
      </trkpt>
      <trkpt lat="43.465950" lon="11.042635">
        <ele>312.049255</ele>
        <time>2018-08-05T11:35:29Z</time>
      </trkpt>
      <trkpt lat="43.465809" lon="11.042657">
        <ele>310.639008</ele>
        <time>2018-08-05T11:35:53Z</time>
      </trkpt>
      <trkpt lat="43.465616" lon="11.042652">
        <ele>309.864227</ele>
        <time>2018-08-05T11:36:09Z</time>
      </trkpt>
      <trkpt lat="43.465479" lon="11.042639">
        <ele>309.512451</ele>
        <time>2018-08-05T11:36:25Z</time>
      </trkpt>
      <trkpt lat="43.465287" lon="11.042650">
        <ele>308.470276</ele>
        <time>2018-08-05T11:36:41Z</time>
      </trkpt>
      <trkpt lat="43.465127" lon="11.042590">
        <ele>309.189667</ele>
        <time>2018-08-05T11:36:56Z</time>
      </trkpt>
      <trkpt lat="43.464941" lon="11.042619">
        <ele>307.536438</ele>
        <time>2018-08-05T11:37:11Z</time>
      </trkpt>
      <trkpt lat="43.464776" lon="11.042578">
        <ele>307.202667</ele>
        <time>2018-08-05T11:37:27Z</time>
      </trkpt>
      <trkpt lat="43.464653" lon="11.042653">
        <ele>304.378876</ele>
        <time>2018-08-05T11:38:00Z</time>
      </trkpt>
      <trkpt lat="43.464521" lon="11.042601">
        <ele>304.581451</ele>
        <time>2018-08-05T11:42:57Z</time>
      </trkpt>
      <trkpt lat="43.464383" lon="11.042569">
        <ele>304.210999</ele>
        <time>2018-08-05T11:43:14Z</time>
      </trkpt>
      <trkpt lat="43.464238" lon="11.042522">
        <ele>304.100037</ele>
        <time>2018-08-05T11:43:30Z</time>
      </trkpt>
      <trkpt lat="43.464066" lon="11.042534">
        <ele>302.319366</ele>
        <time>2018-08-05T11:43:45Z</time>
      </trkpt>
      <trkpt lat="43.463901" lon="11.042532">
        <ele>300.873016</ele>
        <time>2018-08-05T11:44:00Z</time>
      </trkpt>
      <trkpt lat="43.463747" lon="11.042490">
        <ele>299.999237</ele>
        <time>2018-08-05T11:44:16Z</time>
      </trkpt>
      <trkpt lat="43.463607" lon="11.042334">
        <ele>299.023590</ele>
        <time>2018-08-05T11:44:31Z</time>
      </trkpt>
      <trkpt lat="43.463520" lon="11.042140">
        <ele>298.656128</ele>
        <time>2018-08-05T11:44:47Z</time>
      </trkpt>
      <trkpt lat="43.463443" lon="11.041984">
        <ele>298.293152</ele>
        <time>2018-08-05T11:49:25Z</time>
      </trkpt>
      <trkpt lat="43.463303" lon="11.040955">
        <ele>293.480103</ele>
        <time>2018-08-05T11:49:41Z</time>
      </trkpt>
      <trkpt lat="43.462304" lon="11.040029">
        <ele>283.880127</ele>
        <time>2018-08-05T11:49:56Z</time>
      </trkpt>
      <trkpt lat="43.462087" lon="11.041343">
        <ele>280.057709</ele>
        <time>2018-08-05T11:50:12Z</time>
      </trkpt>
      <trkpt lat="43.461559" lon="11.043389">
        <ele>273.281189</ele>
        <time>2018-08-05T11:50:27Z</time>
      </trkpt>
      <trkpt lat="43.461004" lon="11.046477">
        <ele>256.030457</ele>
        <time>2018-08-05T11:50:43Z</time>
      </trkpt>
      <trkpt lat="43.459208" lon="11.048584">
        <ele>238.062286</ele>
        <time>2018-08-05T11:50:58Z</time>
      </trkpt>
      <trkpt lat="43.458663" lon="11.051273">
        <ele>228.245270</ele>
        <time>2018-08-05T11:51:13Z</time>
      </trkpt>
      <trkpt lat="43.458626" lon="11.054471">
        <ele>208.734116</ele>
        <time>2018-08-05T11:51:29Z</time>
      </trkpt>
      <trkpt lat="43.458968" lon="11.057469">
        <ele>193.588562</ele>
        <time>2018-08-05T11:51:45Z</time>
      </trkpt>
      <trkpt lat="43.458876" lon="11.061053">
        <ele>170.024399</ele>
        <time>2018-08-05T11:52:01Z</time>
      </trkpt>
      <trkpt lat="43.459719" lon="11.063685">
        <ele>153.281433</ele>
        <time>2018-08-05T11:52:17Z</time>
      </trkpt>
      <trkpt lat="43.459506" lon="11.067116">
        <ele>137.984039</ele>
        <time>2018-08-05T11:52:33Z</time>
      </trkpt>
      <trkpt lat="43.457824" lon="11.070481">
        <ele>139.318741</ele>
        <time>2018-08-05T11:52:48Z</time>
      </trkpt>
      <trkpt lat="43.456024" lon="11.073330">
        <ele>129.048218</ele>
        <time>2018-08-05T11:53:04Z</time>
      </trkpt>
      <trkpt lat="43.453879" lon="11.075719">
        <ele>127.713379</ele>
        <time>2018-08-05T11:53:19Z</time>
      </trkpt>
      <trkpt lat="43.453325" lon="11.079690">
        <ele>117.056854</ele>
        <time>2018-08-05T11:53:34Z</time>
      </trkpt>
      <trkpt lat="43.452907" lon="11.082874">
        <ele>120.256622</ele>
        <time>2018-08-05T11:53:50Z</time>
      </trkpt>
      <trkpt lat="43.454331" lon="11.085846">
        <ele>115.130997</ele>
        <time>2018-08-05T11:54:05Z</time>
      </trkpt>
      <trkpt lat="43.456728" lon="11.089496">
        <ele>111.077148</ele>
        <time>2018-08-05T11:54:21Z</time>
      </trkpt>
      <trkpt lat="43.458294" lon="11.092164">
        <ele>116.984268</ele>
        <time>2018-08-05T11:54:37Z</time>
      </trkpt>
      <trkpt lat="43.459222" lon="11.095657">
        <ele>106.906326</ele>
        <time>2018-08-05T11:54:53Z</time>
      </trkpt>
      <trkpt lat="43.459440" lon="11.099686">
        <ele>103.861153</ele>
        <time>2018-08-05T11:55:09Z</time>
      </trkpt>
      <trkpt lat="43.459297" lon="11.103585">
        <ele>100.623360</ele>
        <time>2018-08-05T11:55:24Z</time>
      </trkpt>
      <trkpt lat="43.459194" lon="11.107364">
        <ele>98.696510</ele>
        <time>2018-08-05T11:55:39Z</time>
      </trkpt>
      <trkpt lat="43.459543" lon="11.110142">
        <ele>97.544693</ele>
        <time>2018-08-05T11:55:55Z</time>
      </trkpt>
      <trkpt lat="43.460133" lon="11.112675">
        <ele>97.294983</ele>
        <time>2018-08-05T11:56:10Z</time>
      </trkpt>
      <trkpt lat="43.460838" lon="11.116217">
        <ele>96.997276</ele>
        <time>2018-08-05T11:56:26Z</time>
      </trkpt>
      <trkpt lat="43.461501" lon="11.119642">
        <ele>96.344238</ele>
        <time>2018-08-05T11:56:41Z</time>
      </trkpt>
      <trkpt lat="43.461840" lon="11.121783">
        <ele>98.514648</ele>
        <time>2018-08-05T11:56:56Z</time>
      </trkpt>
      <trkpt lat="43.463255" lon="11.123769">
        <ele>100.233635</ele>
        <time>2018-08-05T11:57:13Z</time>
      </trkpt>
      <trkpt lat="43.465472" lon="11.125262">
        <ele>102.116364</ele>
        <time>2018-08-05T11:57:28Z</time>
      </trkpt>
      <trkpt lat="43.467940" lon="11.126396">
        <ele>98.943802</ele>
        <time>2018-08-05T11:57:43Z</time>
      </trkpt>
      <trkpt lat="43.469949" lon="11.127702">
        <ele>96.296761</ele>
        <time>2018-08-05T11:57:58Z</time>
      </trkpt>
      <trkpt lat="43.470712" lon="11.128500">
        <ele>92.636589</ele>
        <time>2018-08-05T11:58:14Z</time>
      </trkpt>
      <trkpt lat="43.472292" lon="11.129253">
        <ele>87.180573</ele>
        <time>2018-08-05T11:58:29Z</time>
      </trkpt>
      <trkpt lat="43.474789" lon="11.129708">
        <ele>88.068039</ele>
        <time>2018-08-05T11:58:45Z</time>
      </trkpt>
      <trkpt lat="43.476918" lon="11.130182">
        <ele>88.814178</ele>
        <time>2018-08-05T11:59:00Z</time>
      </trkpt>
      <trkpt lat="43.478323" lon="11.130752">
        <ele>88.924171</ele>
        <time>2018-08-05T11:59:16Z</time>
      </trkpt>
      <trkpt lat="43.478930" lon="11.129123">
        <ele>89.523193</ele>
        <time>2018-08-05T11:59:31Z</time>
      </trkpt>
      <trkpt lat="43.480570" lon="11.126763">
        <ele>86.873833</ele>
        <time>2018-08-05T11:59:46Z</time>
      </trkpt>
      <trkpt lat="43.482206" lon="11.127463">
        <ele>86.087296</ele>
        <time>2018-08-05T12:00:02Z</time>
      </trkpt>
      <trkpt lat="43.482425" lon="11.130839">
        <ele>96.284698</ele>
        <time>2018-08-05T12:00:18Z</time>
      </trkpt>
      <trkpt lat="43.482655" lon="11.134721">
        <ele>104.371826</ele>
        <time>2018-08-05T12:00:34Z</time>
      </trkpt>
      <trkpt lat="43.482912" lon="11.138814">
        <ele>103.857483</ele>
        <time>2018-08-05T12:00:50Z</time>
      </trkpt>
      <trkpt lat="43.484130" lon="11.143032">
        <ele>102.620552</ele>
        <time>2018-08-05T12:01:06Z</time>
      </trkpt>
      <trkpt lat="43.486201" lon="11.147035">
        <ele>105.803383</ele>
        <time>2018-08-05T12:01:22Z</time>
      </trkpt>
      <trkpt lat="43.486270" lon="11.150038">
        <ele>107.021744</ele>
        <time>2018-08-05T12:01:38Z</time>
      </trkpt>
      <trkpt lat="43.485872" lon="11.152187">
        <ele>108.249908</ele>
        <time>2018-08-05T12:01:53Z</time>
      </trkpt>
      <trkpt lat="43.484924" lon="11.155260">
        <ele>112.636505</ele>
        <time>2018-08-05T12:02:09Z</time>
      </trkpt>
      <trkpt lat="43.486825" lon="11.157497">
        <ele>123.274597</ele>
        <time>2018-08-05T12:02:25Z</time>
      </trkpt>
      <trkpt lat="43.487513" lon="11.162261">
        <ele>125.123825</ele>
        <time>2018-08-05T12:02:40Z</time>
      </trkpt>
      <trkpt lat="43.488324" lon="11.167644">
        <ele>130.990860</ele>
        <time>2018-08-05T12:02:56Z</time>
      </trkpt>
      <trkpt lat="43.490128" lon="11.172595">
        <ele>138.403320</ele>
        <time>2018-08-05T12:03:12Z</time>
      </trkpt>
      <trkpt lat="43.492459" lon="11.176963">
        <ele>156.232529</ele>
        <time>2018-08-05T12:03:28Z</time>
      </trkpt>
      <trkpt lat="43.495855" lon="11.179600">
        <ele>171.254211</ele>
        <time>2018-08-05T12:03:44Z</time>
      </trkpt>
      <trkpt lat="43.498693" lon="11.183017">
        <ele>186.091904</ele>
        <time>2018-08-05T12:03:59Z</time>
      </trkpt>
      <trkpt lat="43.501311" lon="11.186992">
        <ele>191.936340</ele>
        <time>2018-08-05T12:04:15Z</time>
      </trkpt>
      <trkpt lat="43.504960" lon="11.188832">
        <ele>206.861725</ele>
        <time>2018-08-05T12:04:31Z</time>
      </trkpt>
      <trkpt lat="43.508413" lon="11.189962">
        <ele>212.639404</ele>
        <time>2018-08-05T12:04:46Z</time>
      </trkpt>
      <trkpt lat="43.511973" lon="11.192110">
        <ele>228.619568</ele>
        <time>2018-08-05T12:05:02Z</time>
      </trkpt>
      <trkpt lat="43.514326" lon="11.195918">
        <ele>239.627258</ele>
        <time>2018-08-05T12:05:17Z</time>
      </trkpt>
      <trkpt lat="43.517856" lon="11.197129">
        <ele>262.495178</ele>
        <time>2018-08-05T12:05:33Z</time>
      </trkpt>
      <trkpt lat="43.521601" lon="11.198369">
        <ele>271.490601</ele>
        <time>2018-08-05T12:05:49Z</time>
      </trkpt>
      <trkpt lat="43.524756" lon="11.200765">
        <ele>283.307434</ele>
        <time>2018-08-05T12:06:04Z</time>
      </trkpt>
      <trkpt lat="43.527241" lon="11.205127">
        <ele>289.856415</ele>
        <time>2018-08-05T12:06:20Z</time>
      </trkpt>
      <trkpt lat="43.529483" lon="11.209616">
        <ele>296.321503</ele>
        <time>2018-08-05T12:06:36Z</time>
      </trkpt>
      <trkpt lat="43.531244" lon="11.214011">
        <ele>283.918549</ele>
        <time>2018-08-05T12:06:51Z</time>
      </trkpt>
      <trkpt lat="43.533820" lon="11.218168">
        <ele>307.293457</ele>
        <time>2018-08-05T12:07:07Z</time>
      </trkpt>
      <trkpt lat="43.537340" lon="11.220553">
        <ele>320.094604</ele>
        <time>2018-08-05T12:07:23Z</time>
      </trkpt>
      <trkpt lat="43.541063" lon="11.219099">
        <ele>308.769073</ele>
        <time>2018-08-05T12:07:38Z</time>
      </trkpt>
      <trkpt lat="43.544012" lon="11.214703">
        <ele>295.937408</ele>
        <time>2018-08-05T12:07:54Z</time>
      </trkpt>
      <trkpt lat="43.547172" lon="11.211015">
        <ele>302.973999</ele>
        <time>2018-08-05T12:08:10Z</time>
      </trkpt>
      <trkpt lat="43.551165" lon="11.210279">
        <ele>302.923767</ele>
        <time>2018-08-05T12:08:26Z</time>
      </trkpt>
      <trkpt lat="43.554984" lon="11.210353">
        <ele>310.009216</ele>
        <time>2018-08-05T12:08:41Z</time>
      </trkpt>
      <trkpt lat="43.558753" lon="11.212605">
        <ele>286.103699</ele>
        <time>2018-08-05T12:08:57Z</time>
      </trkpt>
      <trkpt lat="43.562823" lon="11.213143">
        <ele>266.260803</ele>
        <time>2018-08-05T12:09:13Z</time>
      </trkpt>
      <trkpt lat="43.566636" lon="11.212573">
        <ele>262.100006</ele>
        <time>2018-08-05T12:09:29Z</time>
      </trkpt>
      <trkpt lat="43.569723" lon="11.209251">
        <ele>235.702332</ele>
        <time>2018-08-05T12:09:45Z</time>
      </trkpt>
      <trkpt lat="43.573177" lon="11.206691">
        <ele>217.809799</ele>
        <time>2018-08-05T12:10:01Z</time>
      </trkpt>
      <trkpt lat="43.576610" lon="11.204846">
        <ele>200.592712</ele>
        <time>2018-08-05T12:10:16Z</time>
      </trkpt>
      <trkpt lat="43.580429" lon="11.203576">
        <ele>186.332062</ele>
        <time>2018-08-05T12:10:31Z</time>
      </trkpt>
      <trkpt lat="43.584640" lon="11.202319">
        <ele>174.054092</ele>
        <time>2018-08-05T12:10:47Z</time>
      </trkpt>
      <trkpt lat="43.588492" lon="11.201020">
        <ele>164.332520</ele>
        <time>2018-08-05T12:11:02Z</time>
      </trkpt>
      <trkpt lat="43.592268" lon="11.199117">
        <ele>161.279114</ele>
        <time>2018-08-05T12:11:18Z</time>
      </trkpt>
      <trkpt lat="43.595163" lon="11.196874">
        <ele>158.427078</ele>
        <time>2018-08-05T12:11:34Z</time>
      </trkpt>
      <trkpt lat="43.598381" lon="11.194187">
        <ele>152.838928</ele>
        <time>2018-08-05T12:11:50Z</time>
      </trkpt>
      <trkpt lat="43.601974" lon="11.192634">
        <ele>150.345032</ele>
        <time>2018-08-05T12:12:05Z</time>
      </trkpt>
      <trkpt lat="43.605854" lon="11.191438">
        <ele>149.132767</ele>
        <time>2018-08-05T12:12:21Z</time>
      </trkpt>
      <trkpt lat="43.609201" lon="11.191026">
        <ele>146.406616</ele>
        <time>2018-08-05T12:12:36Z</time>
      </trkpt>
      <trkpt lat="43.612509" lon="11.190547">
        <ele>144.322479</ele>
        <time>2018-08-05T12:12:51Z</time>
      </trkpt>
      <trkpt lat="43.615757" lon="11.188883">
        <ele>145.475403</ele>
        <time>2018-08-05T12:13:06Z</time>
      </trkpt>
      <trkpt lat="43.619204" lon="11.186896">
        <ele>137.882202</ele>
        <time>2018-08-05T12:13:22Z</time>
      </trkpt>
      <trkpt lat="43.622525" lon="11.184947">
        <ele>134.991760</ele>
        <time>2018-08-05T12:13:38Z</time>
      </trkpt>
      <trkpt lat="43.625903" lon="11.183328">
        <ele>139.814575</ele>
        <time>2018-08-05T12:13:53Z</time>
      </trkpt>
      <trkpt lat="43.629923" lon="11.183229">
        <ele>141.723694</ele>
        <time>2018-08-05T12:14:09Z</time>
      </trkpt>
      <trkpt lat="43.633408" lon="11.182224">
        <ele>144.264984</ele>
        <time>2018-08-05T12:14:24Z</time>
      </trkpt>
      <trkpt lat="43.637153" lon="11.179984">
        <ele>164.259186</ele>
        <time>2018-08-05T12:14:40Z</time>
      </trkpt>
      <trkpt lat="43.640998" lon="11.178493">
        <ele>177.602478</ele>
        <time>2018-08-05T12:14:56Z</time>
      </trkpt>
      <trkpt lat="43.644705" lon="11.178925">
        <ele>190.721268</ele>
        <time>2018-08-05T12:15:11Z</time>
      </trkpt>
      <trkpt lat="43.647641" lon="11.182069">
        <ele>213.098816</ele>
        <time>2018-08-05T12:15:26Z</time>
      </trkpt>
      <trkpt lat="43.649762" lon="11.186250">
        <ele>228.709656</ele>
        <time>2018-08-05T12:15:41Z</time>
      </trkpt>
      <trkpt lat="43.652082" lon="11.190875">
        <ele>251.041962</ele>
        <time>2018-08-05T12:15:57Z</time>
      </trkpt>
      <trkpt lat="43.655643" lon="11.195914">
        <ele>251.256302</ele>
        <time>2018-08-05T12:16:16Z</time>
      </trkpt>
      <trkpt lat="43.657975" lon="11.200604">
        <ele>220.945099</ele>
        <time>2018-08-05T12:16:32Z</time>
      </trkpt>
      <trkpt lat="43.660443" lon="11.204648">
        <ele>203.539963</ele>
        <time>2018-08-05T12:16:47Z</time>
      </trkpt>
      <trkpt lat="43.663910" lon="11.207656">
        <ele>170.440430</ele>
        <time>2018-08-05T12:17:03Z</time>
      </trkpt>
      <trkpt lat="43.667146" lon="11.209578">
        <ele>165.068832</ele>
        <time>2018-08-05T12:17:19Z</time>
      </trkpt>
      <trkpt lat="43.671172" lon="11.210316">
        <ele>149.946106</ele>
        <time>2018-08-05T12:17:35Z</time>
      </trkpt>
      <trkpt lat="43.674864" lon="11.210160">
        <ele>127.552628</ele>
        <time>2018-08-05T12:17:50Z</time>
      </trkpt>
      <trkpt lat="43.678153" lon="11.210896">
        <ele>112.561394</ele>
        <time>2018-08-05T12:18:06Z</time>
      </trkpt>
      <trkpt lat="43.680221" lon="11.212008">
        <ele>102.365997</ele>
        <time>2018-08-05T12:18:22Z</time>
      </trkpt>
      <trkpt lat="43.682921" lon="11.211840">
        <ele>97.810440</ele>
        <time>2018-08-05T12:18:38Z</time>
      </trkpt>
      <trkpt lat="43.686115" lon="11.211255">
        <ele>115.672226</ele>
        <time>2018-08-05T12:18:53Z</time>
      </trkpt>
      <trkpt lat="43.689927" lon="11.212311">
        <ele>97.334862</ele>
        <time>2018-08-05T12:19:09Z</time>
      </trkpt>
      <trkpt lat="43.693565" lon="11.212681">
        <ele>99.766891</ele>
        <time>2018-08-05T12:19:25Z</time>
      </trkpt>
      <trkpt lat="43.697185" lon="11.211606">
        <ele>93.916336</ele>
        <time>2018-08-05T12:19:41Z</time>
      </trkpt>
      <trkpt lat="43.700633" lon="11.213776">
        <ele>86.891838</ele>
        <time>2018-08-05T12:19:56Z</time>
      </trkpt>
      <trkpt lat="43.705554" lon="11.213715">
        <ele>141.481583</ele>
        <time>2018-08-05T12:20:19Z</time>
      </trkpt>
      <trkpt lat="43.709363" lon="11.213254">
        <ele>73.050392</ele>
        <time>2018-08-05T12:20:35Z</time>
      </trkpt>
      <trkpt lat="43.712635" lon="11.215198">
        <ele>73.276970</ele>
        <time>2018-08-05T12:20:51Z</time>
      </trkpt>
      <trkpt lat="43.714691" lon="11.218552">
        <ele>76.662277</ele>
        <time>2018-08-05T12:21:06Z</time>
      </trkpt>
      <trkpt lat="43.717141" lon="11.220406">
        <ele>76.880020</ele>
        <time>2018-08-05T12:21:21Z</time>
      </trkpt>
      <trkpt lat="43.719356" lon="11.220611">
        <ele>72.563087</ele>
        <time>2018-08-05T12:21:37Z</time>
      </trkpt>
      <trkpt lat="43.727197" lon="11.218366">
        <ele>79.595261</ele>
        <time>2018-08-05T12:22:22Z</time>
      </trkpt>
      <trkpt lat="43.737756" lon="11.213560">
        <ele>70.732521</ele>
        <time>2018-08-05T12:23:20Z</time>
      </trkpt>
      <trkpt lat="43.740955" lon="11.214405">
        <ele>64.922195</ele>
        <time>2018-08-05T12:23:36Z</time>
      </trkpt>
      <trkpt lat="43.742689" lon="11.217289">
        <ele>76.814758</ele>
        <time>2018-08-05T12:23:51Z</time>
      </trkpt>
      <trkpt lat="43.742458" lon="11.219746">
        <ele>72.865410</ele>
        <time>2018-08-05T12:24:07Z</time>
      </trkpt>
      <trkpt lat="43.742347" lon="11.224163">
        <ele>74.761627</ele>
        <time>2018-08-05T12:24:27Z</time>
      </trkpt>
      <trkpt lat="43.742575" lon="11.225563">
        <ele>73.933258</ele>
        <time>2018-08-05T12:24:42Z</time>
      </trkpt>
      <trkpt lat="43.744451" lon="11.227282">
        <ele>77.493973</ele>
        <time>2018-08-05T12:24:58Z</time>
      </trkpt>
      <trkpt lat="43.746353" lon="11.229372">
        <ele>75.310036</ele>
        <time>2018-08-05T12:25:14Z</time>
      </trkpt>
      <trkpt lat="43.747716" lon="11.231590">
        <ele>77.717545</ele>
        <time>2018-08-05T12:25:29Z</time>
      </trkpt>
      <trkpt lat="43.748616" lon="11.233554">
        <ele>81.377670</ele>
        <time>2018-08-05T12:25:44Z</time>
      </trkpt>
      <trkpt lat="43.749501" lon="11.235393">
        <ele>85.085930</ele>
        <time>2018-08-05T12:26:00Z</time>
      </trkpt>
      <trkpt lat="43.750295" lon="11.236774">
        <ele>87.436676</ele>
        <time>2018-08-05T12:26:16Z</time>
      </trkpt>
      <trkpt lat="43.750242" lon="11.238934">
        <ele>89.801971</ele>
        <time>2018-08-05T12:26:32Z</time>
      </trkpt>
      <trkpt lat="43.750636" lon="11.240942">
        <ele>93.762726</ele>
        <time>2018-08-05T12:26:47Z</time>
      </trkpt>
      <trkpt lat="43.751236" lon="11.242615">
        <ele>99.288940</ele>
        <time>2018-08-05T12:27:03Z</time>
      </trkpt>
      <trkpt lat="43.752280" lon="11.244398">
        <ele>99.754402</ele>
        <time>2018-08-05T12:27:19Z</time>
      </trkpt>
      <trkpt lat="43.752966" lon="11.245449">
        <ele>102.184784</ele>
        <time>2018-08-05T12:27:34Z</time>
      </trkpt>
      <trkpt lat="43.754295" lon="11.245020">
        <ele>107.350037</ele>
        <time>2018-08-05T12:27:50Z</time>
      </trkpt>
      <trkpt lat="43.755909" lon="11.244188">
        <ele>92.073975</ele>
        <time>2018-08-05T12:28:06Z</time>
      </trkpt>
      <trkpt lat="43.757502" lon="11.243326">
        <ele>73.991898</ele>
        <time>2018-08-05T12:28:22Z</time>
      </trkpt>
      <trkpt lat="43.759246" lon="11.242343">
        <ele>63.149597</ele>
        <time>2018-08-05T12:28:37Z</time>
      </trkpt>
      <trkpt lat="43.760366" lon="11.241944">
        <ele>57.081444</ele>
        <time>2018-08-05T12:28:52Z</time>
      </trkpt>
      <trkpt lat="43.761152" lon="11.242240">
        <ele>55.648418</ele>
        <time>2018-08-05T12:29:07Z</time>
      </trkpt>
      <trkpt lat="43.761807" lon="11.242802">
        <ele>55.557312</ele>
        <time>2018-08-05T12:29:23Z</time>
      </trkpt>
      <trkpt lat="43.762213" lon="11.243155">
        <ele>54.549366</ele>
        <time>2018-08-05T12:29:42Z</time>
      </trkpt>
      <trkpt lat="43.762345" lon="11.243201">
        <ele>54.241901</ele>
        <time>2018-08-05T12:36:21Z</time>
      </trkpt>
      <trkpt lat="43.762487" lon="11.243380">
        <ele>53.921223</ele>
        <time>2018-08-05T12:36:37Z</time>
      </trkpt>
      <trkpt lat="43.762598" lon="11.243489">
        <ele>53.596016</ele>
        <time>2018-08-05T12:36:52Z</time>
      </trkpt>
      <trkpt lat="43.762729" lon="11.243536">
        <ele>53.506256</ele>
        <time>2018-08-05T12:37:15Z</time>
      </trkpt>
      <trkpt lat="43.762590" lon="11.243527">
        <ele>53.526863</ele>
        <time>2018-08-05T12:38:57Z</time>
      </trkpt>
      <trkpt lat="43.762255" lon="11.243302">
        <ele>54.560341</ele>
        <time>2018-08-06T09:01:44Z</time>
      </trkpt>
      <trkpt lat="43.762427" lon="11.243298">
        <ele>54.136509</ele>
        <time>2018-08-06T09:06:06Z</time>
      </trkpt>
      <trkpt lat="43.763029" lon="11.243963">
        <ele>53.772263</ele>
        <time>2018-08-06T09:06:22Z</time>
      </trkpt>
      <trkpt lat="43.763368" lon="11.244037">
        <ele>54.744724</ele>
        <time>2018-08-06T09:06:38Z</time>
      </trkpt>
      <trkpt lat="43.763339" lon="11.243402">
        <ele>53.185291</ele>
        <time>2018-08-06T09:06:54Z</time>
      </trkpt>
      <trkpt lat="43.762911" lon="11.243052">
        <ele>53.168884</ele>
        <time>2018-08-06T09:07:09Z</time>
      </trkpt>
      <trkpt lat="43.761941" lon="11.242495">
        <ele>55.005173</ele>
        <time>2018-08-06T09:07:25Z</time>
      </trkpt>
      <trkpt lat="43.760981" lon="11.242015">
        <ele>56.031773</ele>
        <time>2018-08-06T09:07:40Z</time>
      </trkpt>
      <trkpt lat="43.760272" lon="11.241544">
        <ele>57.641296</ele>
        <time>2018-08-06T09:07:55Z</time>
      </trkpt>
      <trkpt lat="43.759412" lon="11.241321">
        <ele>61.429245</ele>
        <time>2018-08-06T09:08:11Z</time>
      </trkpt>
      <trkpt lat="43.758924" lon="11.241169">
        <ele>63.586994</ele>
        <time>2018-08-06T09:08:45Z</time>
      </trkpt>
      <trkpt lat="43.757883" lon="11.240826">
        <ele>66.044281</ele>
        <time>2018-08-06T09:09:00Z</time>
      </trkpt>
      <trkpt lat="43.756089" lon="11.240178">
        <ele>73.630928</ele>
        <time>2018-08-06T09:09:16Z</time>
      </trkpt>
      <trkpt lat="43.754334" lon="11.239455">
        <ele>88.351807</ele>
        <time>2018-08-06T09:09:32Z</time>
      </trkpt>
      <trkpt lat="43.753031" lon="11.238991">
        <ele>100.719803</ele>
        <time>2018-08-06T09:09:47Z</time>
      </trkpt>
      <trkpt lat="43.751650" lon="11.237757">
        <ele>98.263481</ele>
        <time>2018-08-06T09:10:03Z</time>
      </trkpt>
      <trkpt lat="43.751100" lon="11.237051">
        <ele>94.389404</ele>
        <time>2018-08-06T09:10:19Z</time>
      </trkpt>
      <trkpt lat="43.750864" lon="11.236795">
        <ele>91.537849</ele>
        <time>2018-08-06T09:10:35Z</time>
      </trkpt>
      <trkpt lat="43.750391" lon="11.236342">
        <ele>89.038422</ele>
        <time>2018-08-06T09:10:51Z</time>
      </trkpt>
      <trkpt lat="43.750088" lon="11.235906">
        <ele>86.798378</ele>
        <time>2018-08-06T09:11:06Z</time>
      </trkpt>
      <trkpt lat="43.749695" lon="11.235560">
        <ele>85.514267</ele>
        <time>2018-08-06T09:11:21Z</time>
      </trkpt>
      <trkpt lat="43.749215" lon="11.234709">
        <ele>83.479385</ele>
        <time>2018-08-06T09:11:37Z</time>
      </trkpt>
      <trkpt lat="43.748225" lon="11.232587">
        <ele>80.702911</ele>
        <time>2018-08-06T09:11:53Z</time>
      </trkpt>
      <trkpt lat="43.747190" lon="11.230342">
        <ele>77.450676</ele>
        <time>2018-08-06T09:12:08Z</time>
      </trkpt>
      <trkpt lat="43.745770" lon="11.228549">
        <ele>75.347237</ele>
        <time>2018-08-06T09:12:24Z</time>
      </trkpt>
      <trkpt lat="43.744036" lon="11.226855">
        <ele>74.759239</ele>
        <time>2018-08-06T09:12:40Z</time>
      </trkpt>
      <trkpt lat="43.742560" lon="11.225438">
        <ele>73.436440</ele>
        <time>2018-08-06T09:12:56Z</time>
      </trkpt>
      <trkpt lat="43.742104" lon="11.224794">
        <ele>72.129379</ele>
        <time>2018-08-06T09:13:11Z</time>
      </trkpt>
      <trkpt lat="43.740676" lon="11.224393">
        <ele>68.558853</ele>
        <time>2018-08-06T09:13:27Z</time>
      </trkpt>
      <trkpt lat="43.739301" lon="11.224343">
        <ele>63.756577</ele>
        <time>2018-08-06T09:13:42Z</time>
      </trkpt>
      <trkpt lat="43.737880" lon="11.224541">
        <ele>63.456055</ele>
        <time>2018-08-06T09:13:57Z</time>
      </trkpt>
      <trkpt lat="43.736700" lon="11.223957">
        <ele>62.310619</ele>
        <time>2018-08-06T09:14:13Z</time>
      </trkpt>
      <trkpt lat="43.735755" lon="11.223054">
        <ele>60.450157</ele>
        <time>2018-08-06T09:14:28Z</time>
      </trkpt>
      <trkpt lat="43.734507" lon="11.221458">
        <ele>58.976562</ele>
        <time>2018-08-06T09:14:44Z</time>
      </trkpt>
      <trkpt lat="43.733724" lon="11.219780">
        <ele>56.419647</ele>
        <time>2018-08-06T09:14:59Z</time>
      </trkpt>
      <trkpt lat="43.732712" lon="11.217737">
        <ele>65.095390</ele>
        <time>2018-08-06T09:15:15Z</time>
      </trkpt>
      <trkpt lat="43.732620" lon="11.215680">
        <ele>82.446014</ele>
        <time>2018-08-06T09:15:30Z</time>
      </trkpt>
      <trkpt lat="43.732115" lon="11.214858">
        <ele>99.748398</ele>
        <time>2018-08-06T09:15:45Z</time>
      </trkpt>
      <trkpt lat="43.731295" lon="11.214543">
        <ele>112.648972</ele>
        <time>2018-08-06T09:16:01Z</time>
      </trkpt>
      <trkpt lat="43.731874" lon="11.213367">
        <ele>123.506744</ele>
        <time>2018-08-06T09:16:16Z</time>
      </trkpt>
      <trkpt lat="43.730743" lon="11.213213">
        <ele>135.164047</ele>
        <time>2018-08-06T09:16:31Z</time>
      </trkpt>
      <trkpt lat="43.730843" lon="11.212631">
        <ele>144.547333</ele>
        <time>2018-08-06T09:16:47Z</time>
      </trkpt>
      <trkpt lat="43.731747" lon="11.210638">
        <ele>160.928772</ele>
        <time>2018-08-06T09:17:02Z</time>
      </trkpt>
      <trkpt lat="43.732200" lon="11.207871">
        <ele>183.052200</ele>
        <time>2018-08-06T09:17:17Z</time>
      </trkpt>
      <trkpt lat="43.731197" lon="11.206017">
        <ele>183.209259</ele>
        <time>2018-08-06T09:17:32Z</time>
      </trkpt>
      <trkpt lat="43.729706" lon="11.204200">
        <ele>173.013824</ele>
        <time>2018-08-06T09:17:47Z</time>
      </trkpt>
      <trkpt lat="43.728152" lon="11.202314">
        <ele>160.661240</ele>
        <time>2018-08-06T09:18:03Z</time>
      </trkpt>
      <trkpt lat="43.726386" lon="11.200537">
        <ele>173.925018</ele>
        <time>2018-08-06T09:18:18Z</time>
      </trkpt>
      <trkpt lat="43.724448" lon="11.198688">
        <ele>180.719696</ele>
        <time>2018-08-06T09:18:34Z</time>
      </trkpt>
      <trkpt lat="43.722343" lon="11.199205">
        <ele>170.184204</ele>
        <time>2018-08-06T09:18:49Z</time>
      </trkpt>
      <trkpt lat="43.720951" lon="11.197258">
        <ele>178.664551</ele>
        <time>2018-08-06T09:19:04Z</time>
      </trkpt>
      <trkpt lat="43.720597" lon="11.194171">
        <ele>183.088211</ele>
        <time>2018-08-06T09:19:20Z</time>
      </trkpt>
      <trkpt lat="43.719808" lon="11.193115">
        <ele>183.984558</ele>
        <time>2018-08-06T09:19:36Z</time>
      </trkpt>
      <trkpt lat="43.717899" lon="11.193726">
        <ele>178.531693</ele>
        <time>2018-08-06T09:19:52Z</time>
      </trkpt>
      <trkpt lat="43.716226" lon="11.191541">
        <ele>182.515869</ele>
        <time>2018-08-06T09:20:08Z</time>
      </trkpt>
      <trkpt lat="43.716039" lon="11.188873">
        <ele>192.926025</ele>
        <time>2018-08-06T09:20:23Z</time>
      </trkpt>
      <trkpt lat="43.714027" lon="11.187332">
        <ele>207.416565</ele>
        <time>2018-08-06T09:20:39Z</time>
      </trkpt>
      <trkpt lat="43.712303" lon="11.188970">
        <ele>216.358566</ele>
        <time>2018-08-06T09:20:55Z</time>
      </trkpt>
      <trkpt lat="43.710192" lon="11.188674">
        <ele>212.547745</ele>
        <time>2018-08-06T09:21:11Z</time>
      </trkpt>
      <trkpt lat="43.708754" lon="11.187455">
        <ele>213.601196</ele>
        <time>2018-08-06T09:21:26Z</time>
      </trkpt>
      <trkpt lat="43.706898" lon="11.186707">
        <ele>225.608002</ele>
        <time>2018-08-06T09:21:42Z</time>
      </trkpt>
      <trkpt lat="43.705245" lon="11.186032">
        <ele>232.335266</ele>
        <time>2018-08-06T09:21:57Z</time>
      </trkpt>
      <trkpt lat="43.704460" lon="11.184045">
        <ele>229.127243</ele>
        <time>2018-08-06T09:22:13Z</time>
      </trkpt>
      <trkpt lat="43.703577" lon="11.181878">
        <ele>223.110855</ele>
        <time>2018-08-06T09:22:28Z</time>
      </trkpt>
      <trkpt lat="43.702199" lon="11.179840">
        <ele>207.145844</ele>
        <time>2018-08-06T09:22:44Z</time>
      </trkpt>
      <trkpt lat="43.700874" lon="11.179022">
        <ele>193.719772</ele>
        <time>2018-08-06T09:23:00Z</time>
      </trkpt>
      <trkpt lat="43.699194" lon="11.177800">
        <ele>185.038940</ele>
        <time>2018-08-06T09:23:16Z</time>
      </trkpt>
      <trkpt lat="43.697864" lon="11.175584">
        <ele>183.037262</ele>
        <time>2018-08-06T09:23:31Z</time>
      </trkpt>
      <trkpt lat="43.696484" lon="11.172896">
        <ele>184.535156</ele>
        <time>2018-08-06T09:23:47Z</time>
      </trkpt>
      <trkpt lat="43.694759" lon="11.171161">
        <ele>178.740372</ele>
        <time>2018-08-06T09:24:02Z</time>
      </trkpt>
      <trkpt lat="43.694300" lon="11.169020">
        <ele>159.487732</ele>
        <time>2018-08-06T09:24:18Z</time>
      </trkpt>
      <trkpt lat="43.693586" lon="11.167740">
        <ele>149.945023</ele>
        <time>2018-08-06T09:24:34Z</time>
      </trkpt>
      <trkpt lat="43.692105" lon="11.166447">
        <ele>139.337097</ele>
        <time>2018-08-06T09:24:49Z</time>
      </trkpt>
      <trkpt lat="43.691145" lon="11.164403">
        <ele>133.387161</ele>
        <time>2018-08-06T09:25:05Z</time>
      </trkpt>
      <trkpt lat="43.689720" lon="11.161598">
        <ele>126.926025</ele>
        <time>2018-08-06T09:25:20Z</time>
      </trkpt>
      <trkpt lat="43.689454" lon="11.158393">
        <ele>126.241730</ele>
        <time>2018-08-06T09:25:35Z</time>
      </trkpt>
      <trkpt lat="43.688708" lon="11.155769">
        <ele>122.367935</ele>
        <time>2018-08-06T09:25:51Z</time>
      </trkpt>
      <trkpt lat="43.687987" lon="11.152748">
        <ele>118.111542</ele>
        <time>2018-08-06T09:26:07Z</time>
      </trkpt>
      <trkpt lat="43.687784" lon="11.148838">
        <ele>116.574921</ele>
        <time>2018-08-06T09:26:22Z</time>
      </trkpt>
      <trkpt lat="43.687938" lon="11.145158">
        <ele>110.163788</ele>
        <time>2018-08-06T09:26:38Z</time>
      </trkpt>
      <trkpt lat="43.687943" lon="11.141761">
        <ele>105.181992</ele>
        <time>2018-08-06T09:26:53Z</time>
      </trkpt>
      <trkpt lat="43.687548" lon="11.138419">
        <ele>99.462402</ele>
        <time>2018-08-06T09:27:08Z</time>
      </trkpt>
      <trkpt lat="43.687757" lon="11.134480">
        <ele>100.929596</ele>
        <time>2018-08-06T09:27:24Z</time>
      </trkpt>
      <trkpt lat="43.687091" lon="11.132046">
        <ele>95.511139</ele>
        <time>2018-08-06T09:27:40Z</time>
      </trkpt>
      <trkpt lat="43.685625" lon="11.130311">
        <ele>87.937614</ele>
        <time>2018-08-06T09:27:56Z</time>
      </trkpt>
      <trkpt lat="43.684598" lon="11.128423">
        <ele>83.092224</ele>
        <time>2018-08-06T09:28:12Z</time>
      </trkpt>
      <trkpt lat="43.684866" lon="11.126963">
        <ele>81.412918</ele>
        <time>2018-08-06T09:28:28Z</time>
      </trkpt>
      <trkpt lat="43.686238" lon="11.125592">
        <ele>77.755653</ele>
        <time>2018-08-06T09:28:43Z</time>
      </trkpt>
      <trkpt lat="43.687527" lon="11.123932">
        <ele>77.043640</ele>
        <time>2018-08-06T09:28:58Z</time>
      </trkpt>
      <trkpt lat="43.688925" lon="11.122108">
        <ele>77.264877</ele>
        <time>2018-08-06T09:29:14Z</time>
      </trkpt>
      <trkpt lat="43.689366" lon="11.119534">
        <ele>72.133629</ele>
        <time>2018-08-06T09:29:29Z</time>
      </trkpt>
      <trkpt lat="43.690693" lon="11.117369">
        <ele>70.805367</ele>
        <time>2018-08-06T09:29:45Z</time>
      </trkpt>
      <trkpt lat="43.691835" lon="11.114548">
        <ele>71.442169</ele>
        <time>2018-08-06T09:30:01Z</time>
      </trkpt>
      <trkpt lat="43.693297" lon="11.112295">
        <ele>75.531525</ele>
        <time>2018-08-06T09:30:16Z</time>
      </trkpt>
      <trkpt lat="43.694164" lon="11.109507">
        <ele>71.796692</ele>
        <time>2018-08-06T09:30:32Z</time>
      </trkpt>
      <trkpt lat="43.694928" lon="11.106665">
        <ele>67.739296</ele>
        <time>2018-08-06T09:30:47Z</time>
      </trkpt>
      <trkpt lat="43.695413" lon="11.104382">
        <ele>66.744568</ele>
        <time>2018-08-06T09:31:02Z</time>
      </trkpt>
      <trkpt lat="43.695854" lon="11.102359">
        <ele>64.855232</ele>
        <time>2018-08-06T09:31:17Z</time>
      </trkpt>
      <trkpt lat="43.697202" lon="11.100528">
        <ele>64.194687</ele>
        <time>2018-08-06T09:31:33Z</time>
      </trkpt>
      <trkpt lat="43.698901" lon="11.099595">
        <ele>64.511765</ele>
        <time>2018-08-06T09:31:48Z</time>
      </trkpt>
      <trkpt lat="43.699717" lon="11.097519">
        <ele>69.410194</ele>
        <time>2018-08-06T09:32:03Z</time>
      </trkpt>
      <trkpt lat="43.700592" lon="11.095394">
        <ele>63.826012</ele>
        <time>2018-08-06T09:32:19Z</time>
      </trkpt>
      <trkpt lat="43.701615" lon="11.093695">
        <ele>61.893784</ele>
        <time>2018-08-06T09:32:34Z</time>
      </trkpt>
      <trkpt lat="43.702758" lon="11.091523">
        <ele>64.246254</ele>
        <time>2018-08-06T09:32:49Z</time>
      </trkpt>
      <trkpt lat="43.704071" lon="11.089292">
        <ele>67.812302</ele>
        <time>2018-08-06T09:33:05Z</time>
      </trkpt>
      <trkpt lat="43.704771" lon="11.086859">
        <ele>55.734169</ele>
        <time>2018-08-06T09:33:20Z</time>
      </trkpt>
      <trkpt lat="43.704632" lon="11.083641">
        <ele>53.322449</ele>
        <time>2018-08-06T09:33:36Z</time>
      </trkpt>
      <trkpt lat="43.705529" lon="11.079284">
        <ele>52.634827</ele>
        <time>2018-08-06T09:33:51Z</time>
      </trkpt>
      <trkpt lat="43.706095" lon="11.074213">
        <ele>51.647732</ele>
        <time>2018-08-06T09:34:07Z</time>
      </trkpt>
      <trkpt lat="43.707738" lon="11.071464">
        <ele>51.259857</ele>
        <time>2018-08-06T09:34:23Z</time>
      </trkpt>
      <trkpt lat="43.708851" lon="11.068832">
        <ele>48.212448</ele>
        <time>2018-08-06T09:34:38Z</time>
      </trkpt>
      <trkpt lat="43.709469" lon="11.064444">
        <ele>47.269730</ele>
        <time>2018-08-06T09:34:54Z</time>
      </trkpt>
      <trkpt lat="43.711190" lon="11.062621">
        <ele>48.125641</ele>
        <time>2018-08-06T09:35:09Z</time>
      </trkpt>
      <trkpt lat="43.712504" lon="11.060501">
        <ele>50.637901</ele>
        <time>2018-08-06T09:35:25Z</time>
      </trkpt>
      <trkpt lat="43.713341" lon="11.057532">
        <ele>54.412182</ele>
        <time>2018-08-06T09:35:41Z</time>
      </trkpt>
      <trkpt lat="43.714660" lon="11.054207">
        <ele>60.551041</ele>
        <time>2018-08-06T09:35:57Z</time>
      </trkpt>
      <trkpt lat="43.716033" lon="11.050587">
        <ele>50.217552</ele>
        <time>2018-08-06T09:36:13Z</time>
      </trkpt>
      <trkpt lat="43.717197" lon="11.046999">
        <ele>51.336998</ele>
        <time>2018-08-06T09:36:28Z</time>
      </trkpt>
      <trkpt lat="43.718888" lon="11.043668">
        <ele>43.130604</ele>
        <time>2018-08-06T09:36:44Z</time>
      </trkpt>
      <trkpt lat="43.719810" lon="11.040478">
        <ele>40.181637</ele>
        <time>2018-08-06T09:37:00Z</time>
      </trkpt>
      <trkpt lat="43.721078" lon="11.038662">
        <ele>43.630466</ele>
        <time>2018-08-06T09:37:15Z</time>
      </trkpt>
      <trkpt lat="43.721527" lon="11.038388">
        <ele>45.643475</ele>
        <time>2018-08-06T09:37:30Z</time>
      </trkpt>
      <trkpt lat="43.721340" lon="11.038426">
        <ele>44.087917</ele>
        <time>2018-08-06T09:37:48Z</time>
      </trkpt>
      <trkpt lat="43.720184" lon="11.039240">
        <ele>38.542152</ele>
        <time>2018-08-06T09:38:03Z</time>
      </trkpt>
      <trkpt lat="43.719828" lon="11.040406">
        <ele>40.035465</ele>
        <time>2018-08-06T09:38:18Z</time>
      </trkpt>
      <trkpt lat="43.720136" lon="11.039380">
        <ele>38.571739</ele>
        <time>2018-08-06T09:38:34Z</time>
      </trkpt>
      <trkpt lat="43.721374" lon="11.038487">
        <ele>45.619724</ele>
        <time>2018-08-06T09:38:49Z</time>
      </trkpt>
      <trkpt lat="43.721532" lon="11.038370">
        <ele>45.310333</ele>
        <time>2018-08-06T09:39:05Z</time>
      </trkpt>
      <trkpt lat="43.721668" lon="11.038305">
        <ele>45.716038</ele>
        <time>2018-08-06T09:46:13Z</time>
      </trkpt>
      <trkpt lat="43.722763" lon="11.036815">
        <ele>46.672371</ele>
        <time>2018-08-06T09:46:28Z</time>
      </trkpt>
      <trkpt lat="43.723913" lon="11.033860">
        <ele>45.363556</ele>
        <time>2018-08-06T09:46:44Z</time>
      </trkpt>
      <trkpt lat="43.725472" lon="11.031273">
        <ele>47.247711</ele>
        <time>2018-08-06T09:46:59Z</time>
      </trkpt>
      <trkpt lat="43.726904" lon="11.029170">
        <ele>39.308315</ele>
        <time>2018-08-06T09:47:14Z</time>
      </trkpt>
      <trkpt lat="43.728048" lon="11.027383">
        <ele>37.555058</ele>
        <time>2018-08-06T09:47:29Z</time>
      </trkpt>
      <trkpt lat="43.727306" lon="11.025717">
        <ele>31.552521</ele>
        <time>2018-08-06T09:47:44Z</time>
      </trkpt>
      <trkpt lat="43.727642" lon="11.023132">
        <ele>31.330830</ele>
        <time>2018-08-06T09:48:00Z</time>
      </trkpt>
      <trkpt lat="43.728773" lon="11.022266">
        <ele>30.280554</ele>
        <time>2018-08-06T09:48:15Z</time>
      </trkpt>
      <trkpt lat="43.728149" lon="11.020901">
        <ele>30.062801</ele>
        <time>2018-08-06T09:48:31Z</time>
      </trkpt>
      <trkpt lat="43.727123" lon="11.018400">
        <ele>41.248787</ele>
        <time>2018-08-06T09:48:46Z</time>
      </trkpt>
      <trkpt lat="43.726216" lon="11.016274">
        <ele>52.647964</ele>
        <time>2018-08-06T09:49:02Z</time>
      </trkpt>
      <trkpt lat="43.726028" lon="11.013971">
        <ele>50.187702</ele>
        <time>2018-08-06T09:49:17Z</time>
      </trkpt>
      <trkpt lat="43.726655" lon="11.011519">
        <ele>40.825832</ele>
        <time>2018-08-06T09:49:32Z</time>
      </trkpt>
      <trkpt lat="43.727351" lon="11.008950">
        <ele>39.607391</ele>
        <time>2018-08-06T09:49:47Z</time>
      </trkpt>
      <trkpt lat="43.727805" lon="11.006009">
        <ele>36.519547</ele>
        <time>2018-08-06T09:50:03Z</time>
      </trkpt>
      <trkpt lat="43.728174" lon="11.003182">
        <ele>32.153690</ele>
        <time>2018-08-06T09:50:19Z</time>
      </trkpt>
      <trkpt lat="43.728622" lon="11.001373">
        <ele>28.101751</ele>
        <time>2018-08-06T09:50:35Z</time>
      </trkpt>
      <trkpt lat="43.728502" lon="10.999935">
        <ele>27.781368</ele>
        <time>2018-08-06T09:50:51Z</time>
      </trkpt>
      <trkpt lat="43.728052" lon="10.997211">
        <ele>28.000000</ele>
        <time>2018-08-06T09:51:08Z</time>
      </trkpt>
      <trkpt lat="43.727509" lon="10.994216">
        <ele>26.069519</ele>
        <time>2018-08-06T09:51:24Z</time>
      </trkpt>
      <trkpt lat="43.727019" lon="10.991040">
        <ele>25.192951</ele>
        <time>2018-08-06T09:51:40Z</time>
      </trkpt>
      <trkpt lat="43.725947" lon="10.988784">
        <ele>26.467274</ele>
        <time>2018-08-06T09:51:55Z</time>
      </trkpt>
      <trkpt lat="43.724043" lon="10.986567">
        <ele>24.956085</ele>
        <time>2018-08-06T09:52:11Z</time>
      </trkpt>
      <trkpt lat="43.722628" lon="10.983864">
        <ele>25.385593</ele>
        <time>2018-08-06T09:52:27Z</time>
      </trkpt>
      <trkpt lat="43.721396" lon="10.982166">
        <ele>25.530748</ele>
        <time>2018-08-06T09:52:43Z</time>
      </trkpt>
      <trkpt lat="43.720644" lon="10.979575">
        <ele>27.227417</ele>
        <time>2018-08-06T09:52:59Z</time>
      </trkpt>
      <trkpt lat="43.720896" lon="10.977157">
        <ele>25.588013</ele>
        <time>2018-08-06T09:53:14Z</time>
      </trkpt>
      <trkpt lat="43.721612" lon="10.974871">
        <ele>25.934631</ele>
        <time>2018-08-06T09:53:29Z</time>
      </trkpt>
      <trkpt lat="43.721768" lon="10.972387">
        <ele>25.194130</ele>
        <time>2018-08-06T09:53:44Z</time>
      </trkpt>
      <trkpt lat="43.721468" lon="10.969337">
        <ele>26.461655</ele>
        <time>2018-08-06T09:54:00Z</time>
      </trkpt>
      <trkpt lat="43.721188" lon="10.966555">
        <ele>26.631344</ele>
        <time>2018-08-06T09:54:15Z</time>
      </trkpt>
      <trkpt lat="43.720879" lon="10.963869">
        <ele>26.163879</ele>
        <time>2018-08-06T09:54:30Z</time>
      </trkpt>
      <trkpt lat="43.720965" lon="10.961220">
        <ele>27.915462</ele>
        <time>2018-08-06T09:54:46Z</time>
      </trkpt>
      <trkpt lat="43.720979" lon="10.959078">
        <ele>28.175293</ele>
        <time>2018-08-06T09:55:02Z</time>
      </trkpt>
      <trkpt lat="43.721889" lon="10.957763">
        <ele>27.814672</ele>
        <time>2018-08-06T09:55:18Z</time>
      </trkpt>
      <trkpt lat="43.722155" lon="10.957664">
        <ele>27.863823</ele>
        <time>2018-08-06T09:55:41Z</time>
      </trkpt>
      <trkpt lat="43.722336" lon="10.957562">
        <ele>27.892353</ele>
        <time>2018-08-06T09:56:13Z</time>
      </trkpt>
      <trkpt lat="43.724201" lon="10.956761">
        <ele>27.890924</ele>
        <time>2018-08-06T09:56:29Z</time>
      </trkpt>
      <trkpt lat="43.724459" lon="10.954775">
        <ele>28.990953</ele>
        <time>2018-08-06T09:56:44Z</time>
      </trkpt>
      <trkpt lat="43.723782" lon="10.952677">
        <ele>25.788208</ele>
        <time>2018-08-06T09:57:00Z</time>
      </trkpt>
      <trkpt lat="43.724212" lon="10.951073">
        <ele>27.821289</ele>
        <time>2018-08-06T09:57:15Z</time>
      </trkpt>
      <trkpt lat="43.724720" lon="10.949164">
        <ele>26.991764</ele>
        <time>2018-08-06T09:57:31Z</time>
      </trkpt>
      <trkpt lat="43.724091" lon="10.947169">
        <ele>24.898731</ele>
        <time>2018-08-06T09:57:47Z</time>
      </trkpt>
      <trkpt lat="43.723739" lon="10.946446">
        <ele>26.085327</ele>
        <time>2018-08-06T09:58:03Z</time>
      </trkpt>
      <trkpt lat="43.722892" lon="10.944942">
        <ele>28.965942</ele>
        <time>2018-08-06T09:58:18Z</time>
      </trkpt>
      <trkpt lat="43.722040" lon="10.942554">
        <ele>27.477390</ele>
        <time>2018-08-06T09:58:34Z</time>
      </trkpt>
      <trkpt lat="43.721690" lon="10.939937">
        <ele>24.879755</ele>
        <time>2018-08-06T09:58:50Z</time>
      </trkpt>
      <trkpt lat="43.721892" lon="10.937756">
        <ele>25.881409</ele>
        <time>2018-08-06T09:59:05Z</time>
      </trkpt>
      <trkpt lat="43.720615" lon="10.936827">
        <ele>26.879662</ele>
        <time>2018-08-06T09:59:21Z</time>
      </trkpt>
      <trkpt lat="43.720200" lon="10.936179">
        <ele>26.099594</ele>
        <time>2018-08-06T09:59:40Z</time>
      </trkpt>
      <trkpt lat="43.720077" lon="10.936059">
        <ele>26.024937</ele>
        <time>2018-08-06T10:00:23Z</time>
      </trkpt>
      <trkpt lat="43.720048" lon="10.934222">
        <ele>26.823238</ele>
        <time>2018-08-06T10:00:38Z</time>
      </trkpt>
      <trkpt lat="43.720163" lon="10.931600">
        <ele>25.000000</ele>
        <time>2018-08-06T10:00:54Z</time>
      </trkpt>
      <trkpt lat="43.720142" lon="10.929761">
        <ele>23.878948</ele>
        <time>2018-08-06T10:01:10Z</time>
      </trkpt>
      <trkpt lat="43.720150" lon="10.928325">
        <ele>25.196228</ele>
        <time>2018-08-06T10:01:26Z</time>
      </trkpt>
      <trkpt lat="43.720159" lon="10.926269">
        <ele>25.717144</ele>
        <time>2018-08-06T10:01:41Z</time>
      </trkpt>
      <trkpt lat="43.720199" lon="10.924356">
        <ele>24.750488</ele>
        <time>2018-08-06T10:01:57Z</time>
      </trkpt>
      <trkpt lat="43.720171" lon="10.923361">
        <ele>24.019802</ele>
        <time>2018-08-06T10:02:12Z</time>
      </trkpt>
      <trkpt lat="43.720198" lon="10.920704">
        <ele>23.118498</ele>
        <time>2018-08-06T10:02:27Z</time>
      </trkpt>
      <trkpt lat="43.720201" lon="10.917609">
        <ele>24.130859</ele>
        <time>2018-08-06T10:02:43Z</time>
      </trkpt>
      <trkpt lat="43.720213" lon="10.914102">
        <ele>23.764023</ele>
        <time>2018-08-06T10:02:59Z</time>
      </trkpt>
      <trkpt lat="43.720208" lon="10.910686">
        <ele>22.485088</ele>
        <time>2018-08-06T10:03:14Z</time>
      </trkpt>
      <trkpt lat="43.720206" lon="10.906861">
        <ele>23.577471</ele>
        <time>2018-08-06T10:03:30Z</time>
      </trkpt>
      <trkpt lat="43.720205" lon="10.903149">
        <ele>22.054407</ele>
        <time>2018-08-06T10:03:46Z</time>
      </trkpt>
      <trkpt lat="43.720226" lon="10.900457">
        <ele>22.296993</ele>
        <time>2018-08-06T10:04:01Z</time>
      </trkpt>
      <trkpt lat="43.720198" lon="10.897388">
        <ele>22.102278</ele>
        <time>2018-08-06T10:04:17Z</time>
      </trkpt>
      <trkpt lat="43.720187" lon="10.894014">
        <ele>23.408327</ele>
        <time>2018-08-06T10:04:32Z</time>
      </trkpt>
      <trkpt lat="43.720184" lon="10.890711">
        <ele>23.147217</ele>
        <time>2018-08-06T10:04:47Z</time>
      </trkpt>
      <trkpt lat="43.720185" lon="10.887236">
        <ele>23.778381</ele>
        <time>2018-08-06T10:05:03Z</time>
      </trkpt>
      <trkpt lat="43.720144" lon="10.885963">
        <ele>23.973141</ele>
        <time>2018-08-06T10:05:20Z</time>
      </trkpt>
      <trkpt lat="43.720155" lon="10.885740">
        <ele>24.112549</ele>
        <time>2018-08-06T10:05:51Z</time>
      </trkpt>
      <trkpt lat="43.721122" lon="10.884158">
        <ele>22.889957</ele>
        <time>2018-08-06T10:06:06Z</time>
      </trkpt>
      <trkpt lat="43.722923" lon="10.882374">
        <ele>24.793823</ele>
        <time>2018-08-06T10:06:22Z</time>
      </trkpt>
      <trkpt lat="43.724604" lon="10.881041">
        <ele>24.606077</ele>
        <time>2018-08-06T10:06:38Z</time>
      </trkpt>
      <trkpt lat="43.724927" lon="10.879875">
        <ele>25.026354</ele>
        <time>2018-08-06T10:06:53Z</time>
      </trkpt>
      <trkpt lat="43.724438" lon="10.877318">
        <ele>26.495163</ele>
        <time>2018-08-06T10:07:08Z</time>
      </trkpt>
      <trkpt lat="43.723740" lon="10.874649">
        <ele>26.421265</ele>
        <time>2018-08-06T10:07:24Z</time>
      </trkpt>
      <trkpt lat="43.723266" lon="10.872884">
        <ele>27.262896</ele>
        <time>2018-08-06T10:07:40Z</time>
      </trkpt>
      <trkpt lat="43.722670" lon="10.870644">
        <ele>25.550245</ele>
        <time>2018-08-06T10:07:56Z</time>
      </trkpt>
      <trkpt lat="43.722033" lon="10.868179">
        <ele>26.123650</ele>
        <time>2018-08-06T10:08:11Z</time>
      </trkpt>
      <trkpt lat="43.721334" lon="10.865657">
        <ele>27.448040</ele>
        <time>2018-08-06T10:08:26Z</time>
      </trkpt>
      <trkpt lat="43.721182" lon="10.862690">
        <ele>23.772453</ele>
        <time>2018-08-06T10:08:41Z</time>
      </trkpt>
      <trkpt lat="43.721489" lon="10.859743">
        <ele>24.110844</ele>
        <time>2018-08-06T10:08:57Z</time>
      </trkpt>
      <trkpt lat="43.721731" lon="10.857037">
        <ele>23.367126</ele>
        <time>2018-08-06T10:09:12Z</time>
      </trkpt>
      <trkpt lat="43.721970" lon="10.854877">
        <ele>23.689724</ele>
        <time>2018-08-06T10:09:27Z</time>
      </trkpt>
      <trkpt lat="43.722459" lon="10.852566">
        <ele>24.947229</ele>
        <time>2018-08-06T10:09:42Z</time>
      </trkpt>
      <trkpt lat="43.723178" lon="10.849685">
        <ele>25.332003</ele>
        <time>2018-08-06T10:09:57Z</time>
      </trkpt>
      <trkpt lat="43.723961" lon="10.846357">
        <ele>27.582998</ele>
        <time>2018-08-06T10:10:12Z</time>
      </trkpt>
      <trkpt lat="43.724407" lon="10.842502">
        <ele>24.730381</ele>
        <time>2018-08-06T10:10:28Z</time>
      </trkpt>
      <trkpt lat="43.723847" lon="10.838679">
        <ele>25.994066</ele>
        <time>2018-08-06T10:10:43Z</time>
      </trkpt>
      <trkpt lat="43.722414" lon="10.835403">
        <ele>24.926645</ele>
        <time>2018-08-06T10:10:59Z</time>
      </trkpt>
      <trkpt lat="43.722648" lon="10.832598">
        <ele>25.118408</ele>
        <time>2018-08-06T10:11:14Z</time>
      </trkpt>
      <trkpt lat="43.723154" lon="10.829872">
        <ele>23.215454</ele>
        <time>2018-08-06T10:11:29Z</time>
      </trkpt>
      <trkpt lat="43.723657" lon="10.827042">
        <ele>21.450562</ele>
        <time>2018-08-06T10:11:45Z</time>
      </trkpt>
      <trkpt lat="43.724250" lon="10.823741">
        <ele>20.658850</ele>
        <time>2018-08-06T10:12:01Z</time>
      </trkpt>
      <trkpt lat="43.724923" lon="10.822254">
        <ele>20.452761</ele>
        <time>2018-08-06T10:12:17Z</time>
      </trkpt>
      <trkpt lat="43.726352" lon="10.820257">
        <ele>24.868408</ele>
        <time>2018-08-06T10:12:32Z</time>
      </trkpt>
      <trkpt lat="43.728093" lon="10.818983">
        <ele>29.021633</ele>
        <time>2018-08-06T10:12:47Z</time>
      </trkpt>
      <trkpt lat="43.728269" lon="10.818879">
        <ele>29.633358</ele>
        <time>2018-08-06T10:13:10Z</time>
      </trkpt>
      <trkpt lat="43.729832" lon="10.818136">
        <ele>23.317627</ele>
        <time>2018-08-06T10:13:25Z</time>
      </trkpt>
      <trkpt lat="43.731737" lon="10.816857">
        <ele>22.438194</ele>
        <time>2018-08-06T10:13:41Z</time>
      </trkpt>
      <trkpt lat="43.732949" lon="10.814166">
        <ele>32.691620</ele>
        <time>2018-08-06T10:13:56Z</time>
      </trkpt>
      <trkpt lat="43.734027" lon="10.810207">
        <ele>23.735222</ele>
        <time>2018-08-06T10:14:12Z</time>
      </trkpt>
      <trkpt lat="43.735178" lon="10.808259">
        <ele>21.251656</ele>
        <time>2018-08-06T10:14:27Z</time>
      </trkpt>
      <trkpt lat="43.736320" lon="10.805883">
        <ele>18.118896</ele>
        <time>2018-08-06T10:14:43Z</time>
      </trkpt>
      <trkpt lat="43.737282" lon="10.802755">
        <ele>15.785156</ele>
        <time>2018-08-06T10:14:59Z</time>
      </trkpt>
      <trkpt lat="43.737170" lon="10.800245">
        <ele>16.720278</ele>
        <time>2018-08-06T10:15:15Z</time>
      </trkpt>
      <trkpt lat="43.738053" lon="10.797123">
        <ele>14.121391</ele>
        <time>2018-08-06T10:15:30Z</time>
      </trkpt>
      <trkpt lat="43.739717" lon="10.794343">
        <ele>13.887174</ele>
        <time>2018-08-06T10:15:46Z</time>
      </trkpt>
      <trkpt lat="43.741297" lon="10.791715">
        <ele>12.450467</ele>
        <time>2018-08-06T10:16:01Z</time>
      </trkpt>
      <trkpt lat="43.742718" lon="10.788446">
        <ele>13.099577</ele>
        <time>2018-08-06T10:16:17Z</time>
      </trkpt>
      <trkpt lat="43.742483" lon="10.784940">
        <ele>13.074470</ele>
        <time>2018-08-06T10:16:33Z</time>
      </trkpt>
      <trkpt lat="43.742073" lon="10.783587">
        <ele>16.058975</ele>
        <time>2018-08-06T10:16:49Z</time>
      </trkpt>
      <trkpt lat="43.740707" lon="10.781976">
        <ele>17.960846</ele>
        <time>2018-08-06T10:17:05Z</time>
      </trkpt>
      <trkpt lat="43.739563" lon="10.780387">
        <ele>14.984728</ele>
        <time>2018-08-06T10:17:21Z</time>
      </trkpt>
      <trkpt lat="43.737825" lon="10.778001">
        <ele>15.000000</ele>
        <time>2018-08-06T10:17:37Z</time>
      </trkpt>
      <trkpt lat="43.736176" lon="10.775343">
        <ele>13.927354</ele>
        <time>2018-08-06T10:17:53Z</time>
      </trkpt>
      <trkpt lat="43.735280" lon="10.773185">
        <ele>14.815990</ele>
        <time>2018-08-06T10:18:09Z</time>
      </trkpt>
      <trkpt lat="43.734005" lon="10.769723">
        <ele>14.538199</ele>
        <time>2018-08-06T10:18:24Z</time>
      </trkpt>
      <trkpt lat="43.732545" lon="10.765819">
        <ele>14.909851</ele>
        <time>2018-08-06T10:18:40Z</time>
      </trkpt>
      <trkpt lat="43.731911" lon="10.764365">
        <ele>15.684534</ele>
        <time>2018-08-06T10:19:21Z</time>
      </trkpt>
      <trkpt lat="43.731804" lon="10.764178">
        <ele>15.339281</ele>
        <time>2018-08-06T10:19:45Z</time>
      </trkpt>
      <trkpt lat="43.730423" lon="10.762216">
        <ele>14.789453</ele>
        <time>2018-08-06T10:20:01Z</time>
      </trkpt>
      <trkpt lat="43.728184" lon="10.759253">
        <ele>13.848623</ele>
        <time>2018-08-06T10:20:17Z</time>
      </trkpt>
      <trkpt lat="43.726134" lon="10.756369">
        <ele>14.375138</ele>
        <time>2018-08-06T10:20:32Z</time>
      </trkpt>
      <trkpt lat="43.724100" lon="10.753230">
        <ele>16.795898</ele>
        <time>2018-08-06T10:20:48Z</time>
      </trkpt>
      <trkpt lat="43.723193" lon="10.750869">
        <ele>12.845691</ele>
        <time>2018-08-06T10:21:03Z</time>
      </trkpt>
      <trkpt lat="43.722283" lon="10.748016">
        <ele>13.219886</ele>
        <time>2018-08-06T10:21:19Z</time>
      </trkpt>
      <trkpt lat="43.721868" lon="10.745551">
        <ele>13.160046</ele>
        <time>2018-08-06T10:21:35Z</time>
      </trkpt>
      <trkpt lat="43.721805" lon="10.745318">
        <ele>13.063402</ele>
        <time>2018-08-06T10:22:05Z</time>
      </trkpt>
      <trkpt lat="43.721662" lon="10.745344">
        <ele>12.993958</ele>
        <time>2018-08-06T10:27:26Z</time>
      </trkpt>
      <trkpt lat="43.721272" lon="10.744154">
        <ele>14.007742</ele>
        <time>2018-08-06T10:27:42Z</time>
      </trkpt>
      <trkpt lat="43.720324" lon="10.740648">
        <ele>13.253190</ele>
        <time>2018-08-06T10:27:58Z</time>
      </trkpt>
      <trkpt lat="43.719064" lon="10.736982">
        <ele>13.331464</ele>
        <time>2018-08-06T10:28:14Z</time>
      </trkpt>
      <trkpt lat="43.717605" lon="10.733536">
        <ele>13.030567</ele>
        <time>2018-08-06T10:28:30Z</time>
      </trkpt>
      <trkpt lat="43.715767" lon="10.729205">
        <ele>12.961662</ele>
        <time>2018-08-06T10:28:46Z</time>
      </trkpt>
      <trkpt lat="43.713552" lon="10.725373">
        <ele>13.095209</ele>
        <time>2018-08-06T10:29:02Z</time>
      </trkpt>
      <trkpt lat="43.710853" lon="10.722453">
        <ele>12.079086</ele>
        <time>2018-08-06T10:29:17Z</time>
      </trkpt>
      <trkpt lat="43.707548" lon="10.718830">
        <ele>12.437947</ele>
        <time>2018-08-06T10:29:33Z</time>
      </trkpt>
      <trkpt lat="43.704568" lon="10.715600">
        <ele>12.000000</ele>
        <time>2018-08-06T10:29:49Z</time>
      </trkpt>
      <trkpt lat="43.702038" lon="10.712869">
        <ele>13.311717</ele>
        <time>2018-08-06T10:30:04Z</time>
      </trkpt>
      <trkpt lat="43.700220" lon="10.710911">
        <ele>12.093506</ele>
        <time>2018-08-06T10:30:20Z</time>
      </trkpt>
      <trkpt lat="43.697644" lon="10.708093">
        <ele>12.123425</ele>
        <time>2018-08-06T10:30:36Z</time>
      </trkpt>
      <trkpt lat="43.695238" lon="10.707192">
        <ele>14.263783</ele>
        <time>2018-08-06T10:30:51Z</time>
      </trkpt>
      <trkpt lat="43.694696" lon="10.706179">
        <ele>15.158653</ele>
        <time>2018-08-06T10:31:07Z</time>
      </trkpt>
      <trkpt lat="43.694434" lon="10.703780">
        <ele>14.463562</ele>
        <time>2018-08-06T10:31:23Z</time>
      </trkpt>
      <trkpt lat="43.694171" lon="10.701781">
        <ele>16.854324</ele>
        <time>2018-08-06T10:31:38Z</time>
      </trkpt>
      <trkpt lat="43.693646" lon="10.700209">
        <ele>16.000000</ele>
        <time>2018-08-06T10:31:54Z</time>
      </trkpt>
      <trkpt lat="43.692944" lon="10.697988">
        <ele>14.414551</ele>
        <time>2018-08-06T10:32:09Z</time>
      </trkpt>
      <trkpt lat="43.692140" lon="10.695493">
        <ele>13.096848</ele>
        <time>2018-08-06T10:32:25Z</time>
      </trkpt>
      <trkpt lat="43.691205" lon="10.692642">
        <ele>13.891968</ele>
        <time>2018-08-06T10:32:41Z</time>
      </trkpt>
      <trkpt lat="43.690162" lon="10.689424">
        <ele>14.254614</ele>
        <time>2018-08-06T10:32:56Z</time>
      </trkpt>
      <trkpt lat="43.689126" lon="10.686091">
        <ele>12.373114</ele>
        <time>2018-08-06T10:33:11Z</time>
      </trkpt>
      <trkpt lat="43.688005" lon="10.681253">
        <ele>12.484005</ele>
        <time>2018-08-06T10:33:27Z</time>
      </trkpt>
      <trkpt lat="43.686975" lon="10.676797">
        <ele>13.786865</ele>
        <time>2018-08-06T10:33:43Z</time>
      </trkpt>
      <trkpt lat="43.686255" lon="10.673668">
        <ele>14.598816</ele>
        <time>2018-08-06T10:33:58Z</time>
      </trkpt>
      <trkpt lat="43.685552" lon="10.670642">
        <ele>14.337585</ele>
        <time>2018-08-06T10:34:14Z</time>
      </trkpt>
      <trkpt lat="43.684881" lon="10.667761">
        <ele>14.777778</ele>
        <time>2018-08-06T10:34:29Z</time>
      </trkpt>
      <trkpt lat="43.684468" lon="10.665398">
        <ele>15.666507</ele>
        <time>2018-08-06T10:34:44Z</time>
      </trkpt>
      <trkpt lat="43.684710" lon="10.663468">
        <ele>16.118042</ele>
        <time>2018-08-06T10:34:59Z</time>
      </trkpt>
      <trkpt lat="43.684485" lon="10.660224">
        <ele>15.477305</ele>
        <time>2018-08-06T10:35:15Z</time>
      </trkpt>
      <trkpt lat="43.684388" lon="10.656739">
        <ele>15.947689</ele>
        <time>2018-08-06T10:35:30Z</time>
      </trkpt>
      <trkpt lat="43.684562" lon="10.653333">
        <ele>27.489330</ele>
        <time>2018-08-06T10:35:46Z</time>
      </trkpt>
      <trkpt lat="43.683247" lon="10.650359">
        <ele>21.828821</ele>
        <time>2018-08-06T10:36:01Z</time>
      </trkpt>
      <trkpt lat="43.681667" lon="10.647982">
        <ele>22.329945</ele>
        <time>2018-08-06T10:36:17Z</time>
      </trkpt>
      <trkpt lat="43.681055" lon="10.644763">
        <ele>31.682564</ele>
        <time>2018-08-06T10:36:32Z</time>
      </trkpt>
      <trkpt lat="43.679421" lon="10.641665">
        <ele>33.336498</ele>
        <time>2018-08-06T10:36:48Z</time>
      </trkpt>
      <trkpt lat="43.678703" lon="10.639542">
        <ele>30.645786</ele>
        <time>2018-08-06T10:37:03Z</time>
      </trkpt>
      <trkpt lat="43.679418" lon="10.636539">
        <ele>25.235043</ele>
        <time>2018-08-06T10:37:19Z</time>
      </trkpt>
      <trkpt lat="43.679229" lon="10.633072">
        <ele>16.429159</ele>
        <time>2018-08-06T10:37:35Z</time>
      </trkpt>
      <trkpt lat="43.680654" lon="10.630140">
        <ele>15.933792</ele>
        <time>2018-08-06T10:37:51Z</time>
      </trkpt>
      <trkpt lat="43.682554" lon="10.626610">
        <ele>30.412048</ele>
        <time>2018-08-06T10:38:07Z</time>
      </trkpt>
      <trkpt lat="43.683816" lon="10.624934">
        <ele>20.683830</ele>
        <time>2018-08-06T10:38:23Z</time>
      </trkpt>
      <trkpt lat="43.684521" lon="10.621896">
        <ele>13.150513</ele>
        <time>2018-08-06T10:38:39Z</time>
      </trkpt>
      <trkpt lat="43.685288" lon="10.619760">
        <ele>14.000000</ele>
        <time>2018-08-06T10:38:54Z</time>
      </trkpt>
      <trkpt lat="43.685357" lon="10.619505">
        <ele>14.000000</ele>
        <time>2018-08-06T10:39:46Z</time>
      </trkpt>
      <trkpt lat="43.686351" lon="10.616985">
        <ele>11.375793</ele>
        <time>2018-08-06T10:40:02Z</time>
      </trkpt>
      <trkpt lat="43.686823" lon="10.613479">
        <ele>10.529793</ele>
        <time>2018-08-06T10:40:17Z</time>
      </trkpt>
      <trkpt lat="43.686301" lon="10.609224">
        <ele>11.325065</ele>
        <time>2018-08-06T10:40:33Z</time>
      </trkpt>
      <trkpt lat="43.685699" lon="10.605465">
        <ele>13.257276</ele>
        <time>2018-08-06T10:40:49Z</time>
      </trkpt>
      <trkpt lat="43.685161" lon="10.601967">
        <ele>16.155449</ele>
        <time>2018-08-06T10:41:04Z</time>
      </trkpt>
      <trkpt lat="43.685196" lon="10.598541">
        <ele>12.310059</ele>
        <time>2018-08-06T10:41:19Z</time>
      </trkpt>
      <trkpt lat="43.685803" lon="10.594937">
        <ele>15.779758</ele>
        <time>2018-08-06T10:41:35Z</time>
      </trkpt>
      <trkpt lat="43.686883" lon="10.591702">
        <ele>10.792612</ele>
        <time>2018-08-06T10:41:50Z</time>
      </trkpt>
      <trkpt lat="43.687621" lon="10.588224">
        <ele>14.183168</ele>
        <time>2018-08-06T10:42:05Z</time>
      </trkpt>
      <trkpt lat="43.687870" lon="10.585646">
        <ele>12.005077</ele>
        <time>2018-08-06T10:42:21Z</time>
      </trkpt>
      <trkpt lat="43.687896" lon="10.584555">
        <ele>11.906121</ele>
        <time>2018-08-06T10:42:37Z</time>
      </trkpt>
      <trkpt lat="43.688219" lon="10.582404">
        <ele>16.589294</ele>
        <time>2018-08-06T10:42:52Z</time>
      </trkpt>
      <trkpt lat="43.687784" lon="10.580470">
        <ele>15.160322</ele>
        <time>2018-08-06T10:43:08Z</time>
      </trkpt>
      <trkpt lat="43.687454" lon="10.579952">
        <ele>15.325301</ele>
        <time>2018-08-06T10:43:23Z</time>
      </trkpt>
      <trkpt lat="43.686828" lon="10.579311">
        <ele>15.329712</ele>
        <time>2018-08-06T10:43:39Z</time>
      </trkpt>
      <trkpt lat="43.685692" lon="10.578309">
        <ele>15.000000</ele>
        <time>2018-08-06T10:43:55Z</time>
      </trkpt>
      <trkpt lat="43.684991" lon="10.577657">
        <ele>14.974763</ele>
        <time>2018-08-06T10:44:10Z</time>
      </trkpt>
      <trkpt lat="43.684854" lon="10.577504">
        <ele>14.646994</ele>
        <time>2018-08-06T10:45:31Z</time>
      </trkpt>
      <trkpt lat="43.683508" lon="10.576072">
        <ele>14.172079</ele>
        <time>2018-08-06T10:45:46Z</time>
      </trkpt>
      <trkpt lat="43.682058" lon="10.573316">
        <ele>12.469299</ele>
        <time>2018-08-06T10:46:02Z</time>
      </trkpt>
      <trkpt lat="43.680847" lon="10.570675">
        <ele>13.187026</ele>
        <time>2018-08-06T10:46:17Z</time>
      </trkpt>
      <trkpt lat="43.680457" lon="10.567161">
        <ele>12.233965</ele>
        <time>2018-08-06T10:46:33Z</time>
      </trkpt>
      <trkpt lat="43.681253" lon="10.563856">
        <ele>14.088236</ele>
        <time>2018-08-06T10:46:49Z</time>
      </trkpt>
      <trkpt lat="43.683056" lon="10.560751">
        <ele>13.302804</ele>
        <time>2018-08-06T10:47:04Z</time>
      </trkpt>
      <trkpt lat="43.684372" lon="10.556884">
        <ele>15.819497</ele>
        <time>2018-08-06T10:47:20Z</time>
      </trkpt>
      <trkpt lat="43.684656" lon="10.553631">
        <ele>13.407942</ele>
        <time>2018-08-06T10:47:35Z</time>
      </trkpt>
      <trkpt lat="43.684632" lon="10.550560">
        <ele>12.118408</ele>
        <time>2018-08-06T10:47:51Z</time>
      </trkpt>
      <trkpt lat="43.685397" lon="10.547063">
        <ele>13.475952</ele>
        <time>2018-08-06T10:48:07Z</time>
      </trkpt>
      <trkpt lat="43.686568" lon="10.544077">
        <ele>13.010315</ele>
        <time>2018-08-06T10:48:23Z</time>
      </trkpt>
      <trkpt lat="43.687519" lon="10.541369">
        <ele>12.673706</ele>
        <time>2018-08-06T10:48:39Z</time>
      </trkpt>
      <trkpt lat="43.688381" lon="10.537859">
        <ele>17.156570</ele>
        <time>2018-08-06T10:48:55Z</time>
      </trkpt>
      <trkpt lat="43.689207" lon="10.534297">
        <ele>13.019771</ele>
        <time>2018-08-06T10:49:10Z</time>
      </trkpt>
      <trkpt lat="43.690043" lon="10.530451">
        <ele>16.319515</ele>
        <time>2018-08-06T10:49:26Z</time>
      </trkpt>
      <trkpt lat="43.691001" lon="10.527053">
        <ele>17.080994</ele>
        <time>2018-08-06T10:49:42Z</time>
      </trkpt>
      <trkpt lat="43.692305" lon="10.524845">
        <ele>20.915598</ele>
        <time>2018-08-06T10:49:57Z</time>
      </trkpt>
      <trkpt lat="43.693069" lon="10.522677">
        <ele>14.902908</ele>
        <time>2018-08-06T10:50:12Z</time>
      </trkpt>
      <trkpt lat="43.694146" lon="10.520664">
        <ele>14.661596</ele>
        <time>2018-08-06T10:50:28Z</time>
      </trkpt>
      <trkpt lat="43.695905" lon="10.519123">
        <ele>14.315403</ele>
        <time>2018-08-06T10:50:44Z</time>
      </trkpt>
      <trkpt lat="43.697663" lon="10.517826">
        <ele>15.958195</ele>
        <time>2018-08-06T10:50:59Z</time>
      </trkpt>
      <trkpt lat="43.699319" lon="10.516130">
        <ele>15.175783</ele>
        <time>2018-08-06T10:51:14Z</time>
      </trkpt>
      <trkpt lat="43.700573" lon="10.514464">
        <ele>9.719044</ele>
        <time>2018-08-06T10:51:30Z</time>
      </trkpt>
      <trkpt lat="43.702114" lon="10.512009">
        <ele>18.478355</ele>
        <time>2018-08-06T10:51:46Z</time>
      </trkpt>
      <trkpt lat="43.703392" lon="10.508644">
        <ele>15.162287</ele>
        <time>2018-08-06T10:52:02Z</time>
      </trkpt>
      <trkpt lat="43.705275" lon="10.506542">
        <ele>10.599512</ele>
        <time>2018-08-06T10:52:17Z</time>
      </trkpt>
      <trkpt lat="43.706506" lon="10.504804">
        <ele>11.382594</ele>
        <time>2018-08-06T10:52:32Z</time>
      </trkpt>
      <trkpt lat="43.707703" lon="10.503841">
        <ele>10.016234</ele>
        <time>2018-08-06T10:52:47Z</time>
      </trkpt>
      <trkpt lat="43.708889" lon="10.502509">
        <ele>7.999023</ele>
        <time>2018-08-06T10:53:03Z</time>
      </trkpt>
      <trkpt lat="43.710720" lon="10.503980">
        <ele>6.719544</ele>
        <time>2018-08-06T10:53:19Z</time>
      </trkpt>
      <trkpt lat="43.712674" lon="10.505440">
        <ele>6.527893</ele>
        <time>2018-08-06T10:53:35Z</time>
      </trkpt>
      <trkpt lat="43.713888" lon="10.503362">
        <ele>4.011434</ele>
        <time>2018-08-06T10:53:51Z</time>
      </trkpt>
      <trkpt lat="43.714471" lon="10.500135">
        <ele>4.000000</ele>
        <time>2018-08-06T10:54:06Z</time>
      </trkpt>
      <trkpt lat="43.715940" lon="10.496714">
        <ele>3.922244</ele>
        <time>2018-08-06T10:54:22Z</time>
      </trkpt>
      <trkpt lat="43.717889" lon="10.493458">
        <ele>3.835917</ele>
        <time>2018-08-06T10:54:38Z</time>
      </trkpt>
      <trkpt lat="43.720832" lon="10.491340">
        <ele>3.607849</ele>
        <time>2018-08-06T10:54:54Z</time>
      </trkpt>
      <trkpt lat="43.722146" lon="10.489403">
        <ele>3.532284</ele>
        <time>2018-08-06T10:55:09Z</time>
      </trkpt>
      <trkpt lat="43.721727" lon="10.485637">
        <ele>4.455383</ele>
        <time>2018-08-06T10:55:25Z</time>
      </trkpt>
      <trkpt lat="43.722031" lon="10.481926">
        <ele>2.466891</ele>
        <time>2018-08-06T10:55:40Z</time>
      </trkpt>
      <trkpt lat="43.722431" lon="10.478450">
        <ele>2.281751</ele>
        <time>2018-08-06T10:55:55Z</time>
      </trkpt>
      <trkpt lat="43.723117" lon="10.474850">
        <ele>3.560669</ele>
        <time>2018-08-06T10:56:11Z</time>
      </trkpt>
      <trkpt lat="43.723321" lon="10.471458">
        <ele>3.745720</ele>
        <time>2018-08-06T10:56:26Z</time>
      </trkpt>
      <trkpt lat="43.723258" lon="10.468785">
        <ele>3.589846</ele>
        <time>2018-08-06T10:56:42Z</time>
      </trkpt>
      <trkpt lat="43.723436" lon="10.465765">
        <ele>4.723396</ele>
        <time>2018-08-06T10:56:58Z</time>
      </trkpt>
      <trkpt lat="43.724513" lon="10.463297">
        <ele>4.168823</ele>
        <time>2018-08-06T10:57:13Z</time>
      </trkpt>
      <trkpt lat="43.725335" lon="10.461124">
        <ele>4.442639</ele>
        <time>2018-08-06T10:57:29Z</time>
      </trkpt>
      <trkpt lat="43.725960" lon="10.458539">
        <ele>4.620144</ele>
        <time>2018-08-06T10:57:45Z</time>
      </trkpt>
      <trkpt lat="43.726111" lon="10.455520">
        <ele>4.083875</ele>
        <time>2018-08-06T10:58:00Z</time>
      </trkpt>
      <trkpt lat="43.726199" lon="10.452423">
        <ele>3.560608</ele>
        <time>2018-08-06T10:58:16Z</time>
      </trkpt>
      <trkpt lat="43.725403" lon="10.450108">
        <ele>4.066672</ele>
        <time>2018-08-06T10:58:31Z</time>
      </trkpt>
      <trkpt lat="43.726264" lon="10.447599">
        <ele>3.087815</ele>
        <time>2018-08-06T10:58:47Z</time>
      </trkpt>
      <trkpt lat="43.727120" lon="10.445104">
        <ele>1.475886</ele>
        <time>2018-08-06T10:59:03Z</time>
      </trkpt>
      <trkpt lat="43.728240" lon="10.441963">
        <ele>1.000000</ele>
        <time>2018-08-06T10:59:19Z</time>
      </trkpt>
      <trkpt lat="43.729345" lon="10.438719">
        <ele>0.388401</ele>
        <time>2018-08-06T10:59:35Z</time>
      </trkpt>
      <trkpt lat="43.729865" lon="10.437505">
        <ele>2.671750</ele>
        <time>2018-08-06T10:59:59Z</time>
      </trkpt>
      <trkpt lat="43.729932" lon="10.437312">
        <ele>2.441244</ele>
        <time>2018-08-06T11:00:27Z</time>
      </trkpt>
      <trkpt lat="43.730620" lon="10.435726">
        <ele>1.744080</ele>
        <time>2018-08-06T11:00:42Z</time>
      </trkpt>
      <trkpt lat="43.731841" lon="10.432551">
        <ele>1.398158</ele>
        <time>2018-08-06T11:00:58Z</time>
      </trkpt>
      <trkpt lat="43.733099" lon="10.429298">
        <ele>0.867093</ele>
        <time>2018-08-06T11:01:14Z</time>
      </trkpt>
      <trkpt lat="43.734094" lon="10.426192">
        <ele>1.000000</ele>
        <time>2018-08-06T11:01:30Z</time>
      </trkpt>
      <trkpt lat="43.733517" lon="10.424997">
        <ele>1.220774</ele>
        <time>2018-08-06T11:01:46Z</time>
      </trkpt>
      <trkpt lat="43.731409" lon="10.423727">
        <ele>1.618042</ele>
        <time>2018-08-06T11:02:02Z</time>
      </trkpt>
      <trkpt lat="43.729382" lon="10.421853">
        <ele>0.884709</ele>
        <time>2018-08-06T11:02:18Z</time>
      </trkpt>
      <trkpt lat="43.728590" lon="10.419413">
        <ele>1.886600</ele>
        <time>2018-08-06T11:02:34Z</time>
      </trkpt>
      <trkpt lat="43.726683" lon="10.417668">
        <ele>2.000000</ele>
        <time>2018-08-06T11:02:50Z</time>
      </trkpt>
      <trkpt lat="43.724800" lon="10.416089">
        <ele>1.600612</ele>
        <time>2018-08-06T11:03:05Z</time>
      </trkpt>
      <trkpt lat="43.723181" lon="10.415504">
        <ele>2.678842</ele>
        <time>2018-08-06T11:03:21Z</time>
      </trkpt>
      <trkpt lat="43.722462" lon="10.415290">
        <ele>3.018025</ele>
        <time>2018-08-06T11:03:36Z</time>
      </trkpt>
      <trkpt lat="43.722719" lon="10.413844">
        <ele>4.737547</ele>
        <time>2018-08-06T11:03:52Z</time>
      </trkpt>
      <trkpt lat="43.721584" lon="10.412879">
        <ele>6.373592</ele>
        <time>2018-08-06T11:04:07Z</time>
      </trkpt>
      <trkpt lat="43.720333" lon="10.411787">
        <ele>5.542724</ele>
        <time>2018-08-06T11:04:23Z</time>
      </trkpt>
      <trkpt lat="43.719356" lon="10.410977">
        <ele>6.640146</ele>
        <time>2018-08-06T11:04:39Z</time>
      </trkpt>
      <trkpt lat="43.718786" lon="10.409995">
        <ele>5.551886</ele>
        <time>2018-08-06T11:04:54Z</time>
      </trkpt>
      <trkpt lat="43.718616" lon="10.408317">
        <ele>7.000000</ele>
        <time>2018-08-06T11:05:09Z</time>
      </trkpt>
      <trkpt lat="43.718301" lon="10.407353">
        <ele>6.758509</ele>
        <time>2018-08-06T11:05:25Z</time>
      </trkpt>
      <trkpt lat="43.716956" lon="10.407312">
        <ele>5.879120</ele>
        <time>2018-08-06T11:05:40Z</time>
      </trkpt>
      <trkpt lat="43.716451" lon="10.406946">
        <ele>7.009480</ele>
        <time>2018-08-06T11:05:55Z</time>
      </trkpt>
      <trkpt lat="43.716338" lon="10.405845">
        <ele>8.589433</ele>
        <time>2018-08-06T11:06:11Z</time>
      </trkpt>
      <trkpt lat="43.716375" lon="10.404764">
        <ele>9.847742</ele>
        <time>2018-08-06T11:06:27Z</time>
      </trkpt>
      <trkpt lat="43.716459" lon="10.403668">
        <ele>10.698244</ele>
        <time>2018-08-06T11:06:43Z</time>
      </trkpt>
      <trkpt lat="43.715998" lon="10.403456">
        <ele>10.970866</ele>
        <time>2018-08-06T11:06:58Z</time>
      </trkpt>
      <trkpt lat="43.715803" lon="10.403805">
        <ele>10.908050</ele>
        <time>2018-08-06T11:07:13Z</time>
      </trkpt>
      <trkpt lat="43.715707" lon="10.404202">
        <ele>10.485754</ele>
        <time>2018-08-06T11:08:25Z</time>
      </trkpt>
      <trkpt lat="43.715671" lon="10.404418">
        <ele>10.047512</ele>
        <time>2018-08-06T11:10:02Z</time>
      </trkpt>
      <trkpt lat="43.715240" lon="10.405506">
        <ele>9.968905</ele>
        <time>2018-08-06T11:10:17Z</time>
      </trkpt>
      <trkpt lat="43.714716" lon="10.406642">
        <ele>7.368694</ele>
        <time>2018-08-06T11:10:32Z</time>
      </trkpt>
      <trkpt lat="43.715006" lon="10.407051">
        <ele>8.458005</ele>
        <time>2018-08-06T11:10:47Z</time>
      </trkpt>
      <trkpt lat="43.715427" lon="10.407096">
        <ele>8.251005</ele>
        <time>2018-08-06T11:11:03Z</time>
      </trkpt>
      <trkpt lat="43.716290" lon="10.407210">
        <ele>7.094424</ele>
        <time>2018-08-06T11:11:18Z</time>
      </trkpt>
      <trkpt lat="43.716398" lon="10.406355">
        <ele>7.829351</ele>
        <time>2018-08-06T11:11:34Z</time>
      </trkpt>
      <trkpt lat="43.716370" lon="10.405463">
        <ele>9.088226</ele>
        <time>2018-08-06T11:11:50Z</time>
      </trkpt>
      <trkpt lat="43.716430" lon="10.404400">
        <ele>10.125065</ele>
        <time>2018-08-06T11:12:05Z</time>
      </trkpt>
      <trkpt lat="43.716532" lon="10.404206">
        <ele>10.146211</ele>
        <time>2018-08-07T08:34:07Z</time>
      </trkpt>
      <trkpt lat="43.717173" lon="10.404092">
        <ele>9.039158</ele>
        <time>2018-08-07T08:34:22Z</time>
      </trkpt>
      <trkpt lat="43.717889" lon="10.404083">
        <ele>8.354128</ele>
        <time>2018-08-07T08:34:37Z</time>
      </trkpt>
      <trkpt lat="43.718251" lon="10.404034">
        <ele>8.494423</ele>
        <time>2018-08-07T08:34:53Z</time>
      </trkpt>
      <trkpt lat="43.719072" lon="10.404011">
        <ele>10.167448</ele>
        <time>2018-08-07T08:35:09Z</time>
      </trkpt>
      <trkpt lat="43.719647" lon="10.403976">
        <ele>10.590582</ele>
        <time>2018-08-07T08:35:24Z</time>
      </trkpt>
      <trkpt lat="43.720048" lon="10.403908">
        <ele>10.842614</ele>
        <time>2018-08-07T08:35:39Z</time>
      </trkpt>
      <trkpt lat="43.720755" lon="10.403823">
        <ele>9.368706</ele>
        <time>2018-08-07T08:35:55Z</time>
      </trkpt>
      <trkpt lat="43.721361" lon="10.403668">
        <ele>7.661190</ele>
        <time>2018-08-07T08:36:10Z</time>
      </trkpt>
      <trkpt lat="43.721452" lon="10.402570">
        <ele>7.464969</ele>
        <time>2018-08-07T08:36:26Z</time>
      </trkpt>
      <trkpt lat="43.721652" lon="10.402129">
        <ele>7.535213</ele>
        <time>2018-08-07T08:36:42Z</time>
      </trkpt>
      <trkpt lat="43.722282" lon="10.401634">
        <ele>7.038940</ele>
        <time>2018-08-07T08:36:58Z</time>
      </trkpt>
      <trkpt lat="43.722731" lon="10.401640">
        <ele>6.458903</ele>
        <time>2018-08-07T08:37:13Z</time>
      </trkpt>
      <trkpt lat="43.723130" lon="10.400477">
        <ele>5.727815</ele>
        <time>2018-08-07T08:37:29Z</time>
      </trkpt>
      <trkpt lat="43.723593" lon="10.398602">
        <ele>5.376343</ele>
        <time>2018-08-07T08:37:44Z</time>
      </trkpt>
      <trkpt lat="43.723989" lon="10.397348">
        <ele>4.109360</ele>
        <time>2018-08-07T08:38:09Z</time>
      </trkpt>
      <trkpt lat="43.724061" lon="10.397108">
        <ele>3.774936</ele>
        <time>2018-08-07T08:38:41Z</time>
      </trkpt>
      <trkpt lat="43.724455" lon="10.395079">
        <ele>5.246681</ele>
        <time>2018-08-07T08:38:57Z</time>
      </trkpt>
      <trkpt lat="43.724824" lon="10.393147">
        <ele>3.374632</ele>
        <time>2018-08-07T08:39:13Z</time>
      </trkpt>
      <trkpt lat="43.724986" lon="10.392313">
        <ele>3.009038</ele>
        <time>2018-08-07T08:39:28Z</time>
      </trkpt>
      <trkpt lat="43.724989" lon="10.392039">
        <ele>2.998627</ele>
        <time>2018-08-07T08:39:43Z</time>
      </trkpt>
      <trkpt lat="43.724964" lon="10.391689">
        <ele>2.958856</ele>
        <time>2018-08-07T08:39:58Z</time>
      </trkpt>
      <trkpt lat="43.725241" lon="10.391068">
        <ele>2.281189</ele>
        <time>2018-08-07T08:40:14Z</time>
      </trkpt>
      <trkpt lat="43.726489" lon="10.390187">
        <ele>1.389636</ele>
        <time>2018-08-07T08:40:30Z</time>
      </trkpt>
      <trkpt lat="43.727455" lon="10.389518">
        <ele>1.000000</ele>
        <time>2018-08-07T08:40:45Z</time>
      </trkpt>
      <trkpt lat="43.728161" lon="10.389057">
        <ele>1.793091</ele>
        <time>2018-08-07T08:41:01Z</time>
      </trkpt>
      <trkpt lat="43.728340" lon="10.388891">
        <ele>1.994770</ele>
        <time>2018-08-07T08:41:18Z</time>
      </trkpt>
      <trkpt lat="43.728566" lon="10.388789">
        <ele>1.847149</ele>
        <time>2018-08-07T08:41:34Z</time>
      </trkpt>
      <trkpt lat="43.730178" lon="10.387658">
        <ele>1.362503</ele>
        <time>2018-08-07T08:41:49Z</time>
      </trkpt>
      <trkpt lat="43.732294" lon="10.386108">
        <ele>2.332369</ele>
        <time>2018-08-07T08:42:04Z</time>
      </trkpt>
      <trkpt lat="43.734526" lon="10.384342">
        <ele>1.869501</ele>
        <time>2018-08-07T08:42:20Z</time>
      </trkpt>
      <trkpt lat="43.736805" lon="10.382913">
        <ele>0.174208</ele>
        <time>2018-08-07T08:42:35Z</time>
      </trkpt>
      <trkpt lat="43.738750" lon="10.381344">
        <ele>2.000000</ele>
        <time>2018-08-07T08:42:50Z</time>
      </trkpt>
      <trkpt lat="43.740114" lon="10.379023">
        <ele>1.000000</ele>
        <time>2018-08-07T08:43:06Z</time>
      </trkpt>
      <trkpt lat="43.741312" lon="10.376240">
        <ele>1.425903</ele>
        <time>2018-08-07T08:43:22Z</time>
      </trkpt>
      <trkpt lat="43.742336" lon="10.374536">
        <ele>1.197327</ele>
        <time>2018-08-07T08:43:37Z</time>
      </trkpt>
      <trkpt lat="43.743145" lon="10.373137">
        <ele>2.063596</ele>
        <time>2018-08-07T08:43:52Z</time>
      </trkpt>
      <trkpt lat="43.743597" lon="10.372383">
        <ele>2.175259</ele>
        <time>2018-08-07T08:44:08Z</time>
      </trkpt>
      <trkpt lat="43.744139" lon="10.371539">
        <ele>1.153503</ele>
        <time>2018-08-07T08:44:24Z</time>
      </trkpt>
      <trkpt lat="43.745094" lon="10.369978">
        <ele>2.000000</ele>
        <time>2018-08-07T08:44:40Z</time>
      </trkpt>
      <trkpt lat="43.746124" lon="10.368170">
        <ele>2.000000</ele>
        <time>2018-08-07T08:44:55Z</time>
      </trkpt>
      <trkpt lat="43.747216" lon="10.366342">
        <ele>1.610870</ele>
        <time>2018-08-07T08:45:11Z</time>
      </trkpt>
      <trkpt lat="43.748541" lon="10.364186">
        <ele>1.248962</ele>
        <time>2018-08-07T08:45:27Z</time>
      </trkpt>
      <trkpt lat="43.749492" lon="10.362563">
        <ele>2.219727</ele>
        <time>2018-08-07T08:45:42Z</time>
      </trkpt>
      <trkpt lat="43.750733" lon="10.360497">
        <ele>2.121720</ele>
        <time>2018-08-07T08:45:57Z</time>
      </trkpt>
      <trkpt lat="43.751903" lon="10.358222">
        <ele>2.133301</ele>
        <time>2018-08-07T08:46:12Z</time>
      </trkpt>
      <trkpt lat="43.753559" lon="10.356029">
        <ele>1.809609</ele>
        <time>2018-08-07T08:46:28Z</time>
      </trkpt>
      <trkpt lat="43.755416" lon="10.353984">
        <ele>1.000000</ele>
        <time>2018-08-07T08:46:43Z</time>
      </trkpt>
      <trkpt lat="43.757543" lon="10.351665">
        <ele>1.998292</ele>
        <time>2018-08-07T08:46:59Z</time>
      </trkpt>
      <trkpt lat="43.759712" lon="10.349307">
        <ele>1.941954</ele>
        <time>2018-08-07T08:47:15Z</time>
      </trkpt>
      <trkpt lat="43.760708" lon="10.348216">
        <ele>2.098596</ele>
        <time>2018-08-07T08:47:30Z</time>
      </trkpt>
      <trkpt lat="43.760847" lon="10.348075">
        <ele>2.288420</ele>
        <time>2018-08-07T08:47:50Z</time>
      </trkpt>
      <trkpt lat="43.761547" lon="10.347303">
        <ele>1.657850</ele>
        <time>2018-08-07T08:48:06Z</time>
      </trkpt>
      <trkpt lat="43.761953" lon="10.346781">
        <ele>2.131800</ele>
        <time>2018-08-07T08:48:22Z</time>
      </trkpt>
      <trkpt lat="43.762355" lon="10.346095">
        <ele>2.242177</ele>
        <time>2018-08-07T08:48:38Z</time>
      </trkpt>
      <trkpt lat="43.763047" lon="10.344907">
        <ele>4.961672</ele>
        <time>2018-08-07T08:48:53Z</time>
      </trkpt>
      <trkpt lat="43.763704" lon="10.343762">
        <ele>3.112802</ele>
        <time>2018-08-07T08:49:08Z</time>
      </trkpt>
      <trkpt lat="43.764237" lon="10.342868">
        <ele>4.581123</ele>
        <time>2018-08-07T08:49:24Z</time>
      </trkpt>
      <trkpt lat="43.765048" lon="10.341506">
        <ele>3.703832</ele>
        <time>2018-08-07T08:49:40Z</time>
      </trkpt>
      <trkpt lat="43.766595" lon="10.339931">
        <ele>1.007200</ele>
        <time>2018-08-07T08:49:56Z</time>
      </trkpt>
      <trkpt lat="43.768292" lon="10.338621">
        <ele>0.935227</ele>
        <time>2018-08-07T08:50:11Z</time>
      </trkpt>
      <trkpt lat="43.770083" lon="10.337089">
        <ele>-0.086502</ele>
        <time>2018-08-07T08:50:27Z</time>
      </trkpt>
      <trkpt lat="43.772282" lon="10.335339">
        <ele>-1.438016</ele>
        <time>2018-08-07T08:50:43Z</time>
      </trkpt>
      <trkpt lat="43.774214" lon="10.333775">
        <ele>-0.586823</ele>
        <time>2018-08-07T08:50:58Z</time>
      </trkpt>
      <trkpt lat="43.776133" lon="10.332273">
        <ele>-1.734802</ele>
        <time>2018-08-07T08:51:14Z</time>
      </trkpt>
      <trkpt lat="43.777391" lon="10.331385">
        <ele>-1.888234</ele>
        <time>2018-08-07T08:51:29Z</time>
      </trkpt>
      <trkpt lat="43.778340" lon="10.330512">
        <ele>-1.620773</ele>
        <time>2018-08-07T08:51:45Z</time>
      </trkpt>
      <trkpt lat="43.780256" lon="10.328854">
        <ele>-1.671715</ele>
        <time>2018-08-07T08:52:00Z</time>
      </trkpt>
      <trkpt lat="43.782839" lon="10.326716">
        <ele>-1.501035</ele>
        <time>2018-08-07T08:52:16Z</time>
      </trkpt>
      <trkpt lat="43.785830" lon="10.324266">
        <ele>-1.115937</ele>
        <time>2018-08-07T08:52:32Z</time>
      </trkpt>
      <trkpt lat="43.788024" lon="10.322443">
        <ele>2.214557</ele>
        <time>2018-08-07T08:52:47Z</time>
      </trkpt>
      <trkpt lat="43.790183" lon="10.320660">
        <ele>2.482403</ele>
        <time>2018-08-07T08:53:03Z</time>
      </trkpt>
      <trkpt lat="43.792441" lon="10.318814">
        <ele>5.442087</ele>
        <time>2018-08-07T08:53:18Z</time>
      </trkpt>
      <trkpt lat="43.795231" lon="10.316580">
        <ele>8.513820</ele>
        <time>2018-08-07T08:53:34Z</time>
      </trkpt>
      <trkpt lat="43.797740" lon="10.314495">
        <ele>8.154053</ele>
        <time>2018-08-07T08:53:50Z</time>
      </trkpt>
      <trkpt lat="43.800469" lon="10.313234">
        <ele>6.273564</ele>
        <time>2018-08-07T08:54:05Z</time>
      </trkpt>
      <trkpt lat="43.803249" lon="10.312211">
        <ele>13.355822</ele>
        <time>2018-08-07T08:54:20Z</time>
      </trkpt>
      <trkpt lat="43.806487" lon="10.310994">
        <ele>12.229595</ele>
        <time>2018-08-07T08:54:36Z</time>
      </trkpt>
      <trkpt lat="43.809545" lon="10.309865">
        <ele>11.937263</ele>
        <time>2018-08-07T08:54:51Z</time>
      </trkpt>
      <trkpt lat="43.812652" lon="10.308750">
        <ele>8.000000</ele>
        <time>2018-08-07T08:55:06Z</time>
      </trkpt>
      <trkpt lat="43.815944" lon="10.307469">
        <ele>9.554339</ele>
        <time>2018-08-07T08:55:22Z</time>
      </trkpt>
      <trkpt lat="43.818447" lon="10.305490">
        <ele>12.323955</ele>
        <time>2018-08-07T08:55:38Z</time>
      </trkpt>
      <trkpt lat="43.820616" lon="10.304644">
        <ele>10.688873</ele>
        <time>2018-08-07T08:55:53Z</time>
      </trkpt>
      <trkpt lat="43.822406" lon="10.304452">
        <ele>7.511178</ele>
        <time>2018-08-07T08:56:08Z</time>
      </trkpt>
      <trkpt lat="43.822121" lon="10.302955">
        <ele>5.674850</ele>
        <time>2018-08-07T08:56:24Z</time>
      </trkpt>
      <trkpt lat="43.821045" lon="10.299995">
        <ele>5.967088</ele>
        <time>2018-08-07T08:56:39Z</time>
      </trkpt>
      <trkpt lat="43.821876" lon="10.297059">
        <ele>7.906132</ele>
        <time>2018-08-07T08:56:54Z</time>
      </trkpt>
      <trkpt lat="43.823912" lon="10.295226">
        <ele>4.410339</ele>
        <time>2018-08-07T08:57:10Z</time>
      </trkpt>
      <trkpt lat="43.825149" lon="10.293528">
        <ele>1.808173</ele>
        <time>2018-08-07T08:57:25Z</time>
      </trkpt>
      <trkpt lat="43.826655" lon="10.292310">
        <ele>1.996834</ele>
        <time>2018-08-07T08:57:41Z</time>
      </trkpt>
      <trkpt lat="43.827692" lon="10.291544">
        <ele>2.147552</ele>
        <time>2018-08-07T08:57:57Z</time>
      </trkpt>
      <trkpt lat="43.828412" lon="10.291126">
        <ele>2.648743</ele>
        <time>2018-08-07T08:58:12Z</time>
      </trkpt>
      <trkpt lat="43.829390" lon="10.290546">
        <ele>2.732544</ele>
        <time>2018-08-07T08:58:27Z</time>
      </trkpt>
      <trkpt lat="43.830167" lon="10.290061">
        <ele>2.029257</ele>
        <time>2018-08-07T08:58:43Z</time>
      </trkpt>
      <trkpt lat="43.831358" lon="10.289385">
        <ele>2.000000</ele>
        <time>2018-08-07T08:58:58Z</time>
      </trkpt>
      <trkpt lat="43.832923" lon="10.288494">
        <ele>2.216093</ele>
        <time>2018-08-07T08:59:13Z</time>
      </trkpt>
      <trkpt lat="43.834416" lon="10.287634">
        <ele>1.743960</ele>
        <time>2018-08-07T08:59:29Z</time>
      </trkpt>
      <trkpt lat="43.835383" lon="10.287087">
        <ele>1.500339</ele>
        <time>2018-08-07T08:59:44Z</time>
      </trkpt>
      <trkpt lat="43.837221" lon="10.285896">
        <ele>1.000000</ele>
        <time>2018-08-07T09:00:00Z</time>
      </trkpt>
      <trkpt lat="43.839170" lon="10.284626">
        <ele>-0.002320</ele>
        <time>2018-08-07T09:00:15Z</time>
      </trkpt>
      <trkpt lat="43.841421" lon="10.283209">
        <ele>1.000000</ele>
        <time>2018-08-07T09:00:30Z</time>
      </trkpt>
      <trkpt lat="43.843738" lon="10.281732">
        <ele>0.000000</ele>
        <time>2018-08-07T09:00:46Z</time>
      </trkpt>
      <trkpt lat="43.846067" lon="10.280212">
        <ele>2.137699</ele>
        <time>2018-08-07T09:01:02Z</time>
      </trkpt>
      <trkpt lat="43.848269" lon="10.278769">
        <ele>0.119333</ele>
        <time>2018-08-07T09:01:18Z</time>
      </trkpt>
      <trkpt lat="43.850150" lon="10.277597">
        <ele>2.704132</ele>
        <time>2018-08-07T09:01:33Z</time>
      </trkpt>
      <trkpt lat="43.851555" lon="10.276699">
        <ele>2.095184</ele>
        <time>2018-08-07T09:01:48Z</time>
      </trkpt>
      <trkpt lat="43.853189" lon="10.275691">
        <ele>2.170471</ele>
        <time>2018-08-07T09:02:04Z</time>
      </trkpt>
      <trkpt lat="43.854214" lon="10.275011">
        <ele>2.986420</ele>
        <time>2018-08-07T09:02:20Z</time>
      </trkpt>
      <trkpt lat="43.854632" lon="10.274736">
        <ele>2.543430</ele>
        <time>2018-08-07T09:02:35Z</time>
      </trkpt>
      <trkpt lat="43.855580" lon="10.274121">
        <ele>1.962126</ele>
        <time>2018-08-07T09:02:50Z</time>
      </trkpt>
      <trkpt lat="43.856604" lon="10.273482">
        <ele>1.178955</ele>
        <time>2018-08-07T09:03:06Z</time>
      </trkpt>
      <trkpt lat="43.858319" lon="10.272387">
        <ele>2.982666</ele>
        <time>2018-08-07T09:03:22Z</time>
      </trkpt>
      <trkpt lat="43.859750" lon="10.271470">
        <ele>1.394284</ele>
        <time>2018-08-07T09:03:37Z</time>
      </trkpt>
      <trkpt lat="43.861044" lon="10.270611">
        <ele>2.131848</ele>
        <time>2018-08-07T09:03:52Z</time>
      </trkpt>
      <trkpt lat="43.861231" lon="10.270336">
        <ele>2.027807</ele>
        <time>2018-08-07T09:04:08Z</time>
      </trkpt>
      <trkpt lat="43.862073" lon="10.269925">
        <ele>1.577271</ele>
        <time>2018-08-07T09:04:24Z</time>
      </trkpt>
      <trkpt lat="43.863207" lon="10.268619">
        <ele>3.290612</ele>
        <time>2018-08-07T09:04:39Z</time>
      </trkpt>
      <trkpt lat="43.864579" lon="10.266954">
        <ele>3.675747</ele>
        <time>2018-08-07T09:04:54Z</time>
      </trkpt>
      <trkpt lat="43.865201" lon="10.266167">
        <ele>3.455193</ele>
        <time>2018-08-07T09:05:10Z</time>
      </trkpt>
      <trkpt lat="43.865288" lon="10.266022">
        <ele>3.506201</ele>
        <time>2018-08-07T09:05:27Z</time>
      </trkpt>
      <trkpt lat="43.865438" lon="10.265851">
        <ele>3.464362</ele>
        <time>2018-08-07T09:05:58Z</time>
      </trkpt>
      <trkpt lat="43.866130" lon="10.264205">
        <ele>2.967162</ele>
        <time>2018-08-07T09:06:14Z</time>
      </trkpt>
      <trkpt lat="43.866283" lon="10.262126">
        <ele>2.837244</ele>
        <time>2018-08-07T09:06:29Z</time>
      </trkpt>
      <trkpt lat="43.866674" lon="10.261047">
        <ele>3.002250</ele>
        <time>2018-08-07T09:06:45Z</time>
      </trkpt>
      <trkpt lat="43.867297" lon="10.260200">
        <ele>1.849503</ele>
        <time>2018-08-07T09:07:00Z</time>
      </trkpt>
      <trkpt lat="43.868420" lon="10.259885">
        <ele>2.227734</ele>
        <time>2018-08-07T09:07:15Z</time>
      </trkpt>
      <trkpt lat="43.868958" lon="10.259431">
        <ele>2.920644</ele>
        <time>2018-08-07T09:07:31Z</time>
      </trkpt>
      <trkpt lat="43.869386" lon="10.258475">
        <ele>4.093475</ele>
        <time>2018-08-07T09:07:46Z</time>
      </trkpt>
      <trkpt lat="43.869746" lon="10.256882">
        <ele>4.921102</ele>
        <time>2018-08-07T09:08:02Z</time>
      </trkpt>
      <trkpt lat="43.871185" lon="10.255894">
        <ele>2.433542</ele>
        <time>2018-08-07T09:08:17Z</time>
      </trkpt>
      <trkpt lat="43.872502" lon="10.254979">
        <ele>1.972035</ele>
        <time>2018-08-07T09:08:32Z</time>
      </trkpt>
      <trkpt lat="43.873257" lon="10.254430">
        <ele>1.650569</ele>
        <time>2018-08-07T09:08:48Z</time>
      </trkpt>
      <trkpt lat="43.874249" lon="10.254977">
        <ele>2.098999</ele>
        <time>2018-08-07T09:09:03Z</time>
      </trkpt>
      <trkpt lat="43.875478" lon="10.256503">
        <ele>1.112411</ele>
        <time>2018-08-07T09:09:19Z</time>
      </trkpt>
      <trkpt lat="43.876217" lon="10.256316">
        <ele>0.694944</ele>
        <time>2018-08-07T09:09:35Z</time>
      </trkpt>
      <trkpt lat="43.877600" lon="10.255340">
        <ele>2.071169</ele>
        <time>2018-08-07T09:09:50Z</time>
      </trkpt>
      <trkpt lat="43.877941" lon="10.255127">
        <ele>2.448729</ele>
        <time>2018-08-07T09:10:07Z</time>
      </trkpt>
      <trkpt lat="43.878488" lon="10.254736">
        <ele>2.633397</ele>
        <time>2018-08-07T09:10:23Z</time>
      </trkpt>
      <trkpt lat="43.878771" lon="10.254561">
        <ele>1.704270</ele>
        <time>2018-08-07T09:10:39Z</time>
      </trkpt>
      <trkpt lat="43.880324" lon="10.253479">
        <ele>2.000000</ele>
        <time>2018-08-07T09:10:55Z</time>
      </trkpt>
      <trkpt lat="43.881441" lon="10.250980">
        <ele>2.824402</ele>
        <time>2018-08-07T09:11:11Z</time>
      </trkpt>
      <trkpt lat="43.881311" lon="10.248971">
        <ele>3.100383</ele>
        <time>2018-08-07T09:11:26Z</time>
      </trkpt>
      <trkpt lat="43.881923" lon="10.248173">
        <ele>2.884155</ele>
        <time>2018-08-07T09:11:42Z</time>
      </trkpt>
      <trkpt lat="43.883114" lon="10.247365">
        <ele>2.221208</ele>
        <time>2018-08-07T09:11:57Z</time>
      </trkpt>
      <trkpt lat="43.884060" lon="10.246624">
        <ele>2.827482</ele>
        <time>2018-08-07T09:12:13Z</time>
      </trkpt>
      <trkpt lat="43.884367" lon="10.246422">
        <ele>2.776727</ele>
        <time>2018-08-07T09:12:28Z</time>
      </trkpt>
      <trkpt lat="43.884620" lon="10.246213">
        <ele>2.751906</ele>
        <time>2018-08-07T09:12:44Z</time>
      </trkpt>
      <trkpt lat="43.885752" lon="10.245409">
        <ele>2.984028</ele>
        <time>2018-08-07T09:13:00Z</time>
      </trkpt>
      <trkpt lat="43.886953" lon="10.244526">
        <ele>2.804543</ele>
        <time>2018-08-07T09:13:16Z</time>
      </trkpt>
      <trkpt lat="43.887506" lon="10.244406">
        <ele>2.290706</ele>
        <time>2018-08-07T09:13:32Z</time>
      </trkpt>
      <trkpt lat="43.887607" lon="10.244282">
        <ele>2.230995</ele>
        <time>2018-08-07T09:20:48Z</time>
      </trkpt>
      <trkpt lat="43.887696" lon="10.244075">
        <ele>2.293125</ele>
        <time>2018-08-07T09:21:03Z</time>
      </trkpt>
      <trkpt lat="43.887922" lon="10.243829">
        <ele>2.501253</ele>
        <time>2018-08-07T09:21:18Z</time>
      </trkpt>
      <trkpt lat="43.889276" lon="10.242784">
        <ele>1.340485</ele>
        <time>2018-08-07T09:21:34Z</time>
      </trkpt>
      <trkpt lat="43.890685" lon="10.241731">
        <ele>1.758792</ele>
        <time>2018-08-07T09:21:49Z</time>
      </trkpt>
      <trkpt lat="43.891860" lon="10.241474">
        <ele>1.177090</ele>
        <time>2018-08-07T09:22:05Z</time>
      </trkpt>
      <trkpt lat="43.891794" lon="10.243870">
        <ele>1.152954</ele>
        <time>2018-08-07T09:22:20Z</time>
      </trkpt>
      <trkpt lat="43.889777" lon="10.245798">
        <ele>1.196167</ele>
        <time>2018-08-07T09:22:35Z</time>
      </trkpt>
      <trkpt lat="43.888466" lon="10.248738">
        <ele>2.836303</ele>
        <time>2018-08-07T09:22:51Z</time>
      </trkpt>
      <trkpt lat="43.888725" lon="10.252299">
        <ele>1.484491</ele>
        <time>2018-08-07T09:23:07Z</time>
      </trkpt>
      <trkpt lat="43.888457" lon="10.255752">
        <ele>1.000000</ele>
        <time>2018-08-07T09:23:22Z</time>
      </trkpt>
      <trkpt lat="43.887848" lon="10.259401">
        <ele>1.535977</ele>
        <time>2018-08-07T09:23:38Z</time>
      </trkpt>
      <trkpt lat="43.888749" lon="10.261685">
        <ele>-0.019566</ele>
        <time>2018-08-07T09:23:53Z</time>
      </trkpt>
      <trkpt lat="43.891218" lon="10.259969">
        <ele>-0.499176</ele>
        <time>2018-08-07T09:24:08Z</time>
      </trkpt>
      <trkpt lat="43.894031" lon="10.257818">
        <ele>-0.680791</ele>
        <time>2018-08-07T09:24:24Z</time>
      </trkpt>
      <trkpt lat="43.895168" lon="10.255160">
        <ele>-0.751410</ele>
        <time>2018-08-07T09:24:39Z</time>
      </trkpt>
      <trkpt lat="43.896553" lon="10.256182">
        <ele>2.269417</ele>
        <time>2018-08-07T09:24:55Z</time>
      </trkpt>
      <trkpt lat="43.896419" lon="10.258161">
        <ele>1.000000</ele>
        <time>2018-08-07T09:25:10Z</time>
      </trkpt>
      <trkpt lat="43.894329" lon="10.258661">
        <ele>0.000000</ele>
        <time>2018-08-07T09:25:25Z</time>
      </trkpt>
      <trkpt lat="43.893069" lon="10.259461">
        <ele>1.000000</ele>
        <time>2018-08-07T09:25:41Z</time>
      </trkpt>
      <trkpt lat="43.892888" lon="10.259709">
        <ele>1.000000</ele>
        <time>2018-08-07T09:25:58Z</time>
      </trkpt>
      <trkpt lat="43.892767" lon="10.259855">
        <ele>1.000000</ele>
        <time>2018-08-07T09:26:18Z</time>
      </trkpt>
      <trkpt lat="43.891334" lon="10.261563">
        <ele>-0.052424</ele>
        <time>2018-08-07T09:26:34Z</time>
      </trkpt>
      <trkpt lat="43.890377" lon="10.261117">
        <ele>0.277218</ele>
        <time>2018-08-07T09:26:50Z</time>
      </trkpt>
      <trkpt lat="43.893631" lon="10.258688">
        <ele>0.261781</ele>
        <time>2018-08-07T09:27:05Z</time>
      </trkpt>
      <trkpt lat="43.896960" lon="10.255303">
        <ele>1.459617</ele>
        <time>2018-08-07T09:27:21Z</time>
      </trkpt>
      <trkpt lat="43.900192" lon="10.251644">
        <ele>2.740443</ele>
        <time>2018-08-07T09:27:37Z</time>
      </trkpt>
      <trkpt lat="43.903462" lon="10.247944">
        <ele>2.296273</ele>
        <time>2018-08-07T09:27:53Z</time>
      </trkpt>
      <trkpt lat="43.906540" lon="10.244461">
        <ele>1.000000</ele>
        <time>2018-08-07T09:28:08Z</time>
      </trkpt>
      <trkpt lat="43.909540" lon="10.241272">
        <ele>1.738448</ele>
        <time>2018-08-07T09:28:24Z</time>
      </trkpt>
      <trkpt lat="43.913170" lon="10.237683">
        <ele>2.000000</ele>
        <time>2018-08-07T09:28:40Z</time>
      </trkpt>
      <trkpt lat="43.916410" lon="10.234600">
        <ele>-0.691772</ele>
        <time>2018-08-07T09:28:56Z</time>
      </trkpt>
      <trkpt lat="43.919311" lon="10.231783">
        <ele>1.264475</ele>
        <time>2018-08-07T09:29:12Z</time>
      </trkpt>
      <trkpt lat="43.921957" lon="10.229199">
        <ele>0.330825</ele>
        <time>2018-08-07T09:29:27Z</time>
      </trkpt>
      <trkpt lat="43.924811" lon="10.226581">
        <ele>2.997060</ele>
        <time>2018-08-07T09:29:43Z</time>
      </trkpt>
      <trkpt lat="43.927407" lon="10.224615">
        <ele>1.120153</ele>
        <time>2018-08-07T09:29:59Z</time>
      </trkpt>
      <trkpt lat="43.928314" lon="10.224622">
        <ele>2.511097</ele>
        <time>2018-08-07T09:30:14Z</time>
      </trkpt>
      <trkpt lat="43.928528" lon="10.224528">
        <ele>2.464283</ele>
        <time>2018-08-07T09:30:31Z</time>
      </trkpt>
      <trkpt lat="43.928557" lon="10.224323">
        <ele>2.355273</ele>
        <time>2018-08-07T09:34:27Z</time>
      </trkpt>
      <trkpt lat="43.929331" lon="10.223382">
        <ele>2.058777</ele>
        <time>2018-08-07T09:34:43Z</time>
      </trkpt>
      <trkpt lat="43.930667" lon="10.222215">
        <ele>1.405059</ele>
        <time>2018-08-07T09:34:59Z</time>
      </trkpt>
      <trkpt lat="43.933935" lon="10.219859">
        <ele>0.754843</ele>
        <time>2018-08-07T09:35:14Z</time>
      </trkpt>
      <trkpt lat="43.937989" lon="10.217069">
        <ele>2.392037</ele>
        <time>2018-08-07T09:35:30Z</time>
      </trkpt>
      <trkpt lat="43.942024" lon="10.214249">
        <ele>3.286438</ele>
        <time>2018-08-07T09:35:46Z</time>
      </trkpt>
      <trkpt lat="43.945942" lon="10.211243">
        <ele>4.872106</ele>
        <time>2018-08-07T09:36:02Z</time>
      </trkpt>
      <trkpt lat="43.949414" lon="10.207536">
        <ele>2.956604</ele>
        <time>2018-08-07T09:36:17Z</time>
      </trkpt>
      <trkpt lat="43.952749" lon="10.203779">
        <ele>3.075601</ele>
        <time>2018-08-07T09:36:32Z</time>
      </trkpt>
      <trkpt lat="43.956312" lon="10.199792">
        <ele>2.675359</ele>
        <time>2018-08-07T09:36:48Z</time>
      </trkpt>
      <trkpt lat="43.959860" lon="10.195794">
        <ele>2.914364</ele>
        <time>2018-08-07T09:37:04Z</time>
      </trkpt>
      <trkpt lat="43.963173" lon="10.192134">
        <ele>2.878998</ele>
        <time>2018-08-07T09:37:19Z</time>
      </trkpt>
      <trkpt lat="43.966611" lon="10.188350">
        <ele>3.026192</ele>
        <time>2018-08-07T09:37:34Z</time>
      </trkpt>
      <trkpt lat="43.969933" lon="10.184013">
        <ele>5.669994</ele>
        <time>2018-08-07T09:37:50Z</time>
      </trkpt>
      <trkpt lat="43.972631" lon="10.179347">
        <ele>3.624874</ele>
        <time>2018-08-07T09:38:05Z</time>
      </trkpt>
      <trkpt lat="43.975400" lon="10.174672">
        <ele>2.709073</ele>
        <time>2018-08-07T09:38:20Z</time>
      </trkpt>
      <trkpt lat="43.978840" lon="10.169578">
        <ele>4.487748</ele>
        <time>2018-08-07T09:38:36Z</time>
      </trkpt>
      <trkpt lat="43.982376" lon="10.164426">
        <ele>4.423790</ele>
        <time>2018-08-07T09:38:52Z</time>
      </trkpt>
      <trkpt lat="43.986156" lon="10.158980">
        <ele>1.000000</ele>
        <time>2018-08-07T09:39:08Z</time>
      </trkpt>
      <trkpt lat="43.989706" lon="10.153848">
        <ele>2.000000</ele>
        <time>2018-08-07T09:39:23Z</time>
      </trkpt>
      <trkpt lat="43.993877" lon="10.149363">
        <ele>4.457860</ele>
        <time>2018-08-07T09:39:39Z</time>
      </trkpt>
      <trkpt lat="43.997795" lon="10.146793">
        <ele>4.003201</ele>
        <time>2018-08-07T09:39:55Z</time>
      </trkpt>
      <trkpt lat="44.001381" lon="10.143750">
        <ele>3.000361</ele>
        <time>2018-08-07T09:40:10Z</time>
      </trkpt>
      <trkpt lat="44.004865" lon="10.138842">
        <ele>2.802899</ele>
        <time>2018-08-07T09:40:26Z</time>
      </trkpt>
      <trkpt lat="44.008224" lon="10.134023">
        <ele>3.695517</ele>
        <time>2018-08-07T09:40:41Z</time>
      </trkpt>
      <trkpt lat="44.011566" lon="10.129191">
        <ele>4.909077</ele>
        <time>2018-08-07T09:40:57Z</time>
      </trkpt>
      <trkpt lat="44.014467" lon="10.123716">
        <ele>5.391094</ele>
        <time>2018-08-07T09:41:13Z</time>
      </trkpt>
      <trkpt lat="44.017008" lon="10.118702">
        <ele>6.373435</ele>
        <time>2018-08-07T09:41:29Z</time>
      </trkpt>
      <trkpt lat="44.019557" lon="10.113247">
        <ele>6.260010</ele>
        <time>2018-08-07T09:41:45Z</time>
      </trkpt>
      <trkpt lat="44.020951" lon="10.107681">
        <ele>4.464226</ele>
        <time>2018-08-07T09:42:00Z</time>
      </trkpt>
      <trkpt lat="44.022341" lon="10.102064">
        <ele>2.152737</ele>
        <time>2018-08-07T09:42:16Z</time>
      </trkpt>
      <trkpt lat="44.024783" lon="10.097201">
        <ele>2.991714</ele>
        <time>2018-08-07T09:42:31Z</time>
      </trkpt>
      <trkpt lat="44.027793" lon="10.092571">
        <ele>7.120391</ele>
        <time>2018-08-07T09:42:47Z</time>
      </trkpt>
      <trkpt lat="44.030756" lon="10.087934">
        <ele>3.720341</ele>
        <time>2018-08-07T09:43:02Z</time>
      </trkpt>
      <trkpt lat="44.032904" lon="10.082013">
        <ele>4.851500</ele>
        <time>2018-08-07T09:43:18Z</time>
      </trkpt>
      <trkpt lat="44.033744" lon="10.076396">
        <ele>2.657251</ele>
        <time>2018-08-07T09:43:33Z</time>
      </trkpt>
      <trkpt lat="44.034885" lon="10.071126">
        <ele>4.676085</ele>
        <time>2018-08-07T09:43:48Z</time>
      </trkpt>
      <trkpt lat="44.037324" lon="10.065415">
        <ele>3.000692</ele>
        <time>2018-08-07T09:44:04Z</time>
      </trkpt>
      <trkpt lat="44.039622" lon="10.060235">
        <ele>4.709024</ele>
        <time>2018-08-07T09:44:19Z</time>
      </trkpt>
      <trkpt lat="44.042024" lon="10.054756">
        <ele>1.637748</ele>
        <time>2018-08-07T09:44:35Z</time>
      </trkpt>
      <trkpt lat="44.044514" lon="10.049568">
        <ele>4.215867</ele>
        <time>2018-08-07T09:44:50Z</time>
      </trkpt>
      <trkpt lat="44.047013" lon="10.044820">
        <ele>3.968649</ele>
        <time>2018-08-07T09:45:05Z</time>
      </trkpt>
      <trkpt lat="44.049620" lon="10.039949">
        <ele>1.577525</ele>
        <time>2018-08-07T09:45:20Z</time>
      </trkpt>
      <trkpt lat="44.052336" lon="10.034603">
        <ele>3.000000</ele>
        <time>2018-08-07T09:45:36Z</time>
      </trkpt>
      <trkpt lat="44.054227" lon="10.028545">
        <ele>2.163455</ele>
        <time>2018-08-07T09:45:52Z</time>
      </trkpt>
      <trkpt lat="44.055888" lon="10.022869">
        <ele>2.454399</ele>
        <time>2018-08-07T09:46:07Z</time>
      </trkpt>
      <trkpt lat="44.057499" lon="10.017296">
        <ele>1.000000</ele>
        <time>2018-08-07T09:46:22Z</time>
      </trkpt>
      <trkpt lat="44.059300" lon="10.011501">
        <ele>4.832964</ele>
        <time>2018-08-07T09:46:38Z</time>
      </trkpt>
      <trkpt lat="44.061873" lon="10.006420">
        <ele>2.926825</ele>
        <time>2018-08-07T09:46:54Z</time>
      </trkpt>
      <trkpt lat="44.064575" lon="10.001937">
        <ele>3.185657</ele>
        <time>2018-08-07T09:47:09Z</time>
      </trkpt>
      <trkpt lat="44.067203" lon="9.997547">
        <ele>1.775220</ele>
        <time>2018-08-07T09:47:25Z</time>
      </trkpt>
      <trkpt lat="44.069256" lon="9.994125">
        <ele>1.903436</ele>
        <time>2018-08-07T09:47:40Z</time>
      </trkpt>
      <trkpt lat="44.071638" lon="9.990215">
        <ele>1.267033</ele>
        <time>2018-08-07T09:47:56Z</time>
      </trkpt>
      <trkpt lat="44.074374" lon="9.985715">
        <ele>2.751015</ele>
        <time>2018-08-07T09:48:12Z</time>
      </trkpt>
      <trkpt lat="44.077389" lon="9.981285">
        <ele>3.194498</ele>
        <time>2018-08-07T09:48:27Z</time>
      </trkpt>
      <trkpt lat="44.081290" lon="9.977618">
        <ele>2.064043</ele>
        <time>2018-08-07T09:48:43Z</time>
      </trkpt>
      <trkpt lat="44.085300" lon="9.974510">
        <ele>2.805392</ele>
        <time>2018-08-07T09:48:59Z</time>
      </trkpt>
      <trkpt lat="44.089150" lon="9.971380">
        <ele>5.312744</ele>
        <time>2018-08-07T09:49:14Z</time>
      </trkpt>
      <trkpt lat="44.093012" lon="9.967361">
        <ele>4.745737</ele>
        <time>2018-08-07T09:49:30Z</time>
      </trkpt>
      <trkpt lat="44.096335" lon="9.962293">
        <ele>4.747142</ele>
        <time>2018-08-07T09:49:46Z</time>
      </trkpt>
      <trkpt lat="44.098924" lon="9.957120">
        <ele>4.000000</ele>
        <time>2018-08-07T09:50:01Z</time>
      </trkpt>
      <trkpt lat="44.101660" lon="9.951645">
        <ele>8.991069</ele>
        <time>2018-08-07T09:50:17Z</time>
      </trkpt>
      <trkpt lat="44.104805" lon="9.946933">
        <ele>8.426054</ele>
        <time>2018-08-07T09:50:33Z</time>
      </trkpt>
      <trkpt lat="44.108860" lon="9.943963">
        <ele>9.785847</ele>
        <time>2018-08-07T09:50:49Z</time>
      </trkpt>
      <trkpt lat="44.112626" lon="9.941707">
        <ele>8.000000</ele>
        <time>2018-08-07T09:51:04Z</time>
      </trkpt>
      <trkpt lat="44.115784" lon="9.939853">
        <ele>8.961530</ele>
        <time>2018-08-07T09:51:19Z</time>
      </trkpt>
      <trkpt lat="44.119385" lon="9.937759">
        <ele>10.475159</ele>
        <time>2018-08-07T09:51:34Z</time>
      </trkpt>
      <trkpt lat="44.123588" lon="9.934412">
        <ele>10.215899</ele>
        <time>2018-08-07T09:51:50Z</time>
      </trkpt>
      <trkpt lat="44.127057" lon="9.930025">
        <ele>11.073231</ele>
        <time>2018-08-07T09:52:05Z</time>
      </trkpt>
      <trkpt lat="44.130481" lon="9.925574">
        <ele>11.048296</ele>
        <time>2018-08-07T09:52:21Z</time>
      </trkpt>
      <trkpt lat="44.133771" lon="9.921360">
        <ele>8.477030</ele>
        <time>2018-08-07T09:52:36Z</time>
      </trkpt>
      <trkpt lat="44.137361" lon="9.916795">
        <ele>14.679596</ele>
        <time>2018-08-07T09:52:52Z</time>
      </trkpt>
      <trkpt lat="44.140684" lon="9.912922">
        <ele>14.498237</ele>
        <time>2018-08-07T09:53:07Z</time>
      </trkpt>
      <trkpt lat="44.144602" lon="9.909762">
        <ele>15.204693</ele>
        <time>2018-08-07T09:53:23Z</time>
      </trkpt>
      <trkpt lat="44.148631" lon="9.906608">
        <ele>14.577718</ele>
        <time>2018-08-07T09:53:39Z</time>
      </trkpt>
      <trkpt lat="44.152485" lon="9.903551">
        <ele>19.814625</ele>
        <time>2018-08-07T09:53:55Z</time>
      </trkpt>
      <trkpt lat="44.154999" lon="9.901303">
        <ele>23.871206</ele>
        <time>2018-08-07T09:54:11Z</time>
      </trkpt>
      <trkpt lat="44.154688" lon="9.903358">
        <ele>20.429741</ele>
        <time>2018-08-07T09:54:27Z</time>
      </trkpt>
      <trkpt lat="44.151540" lon="9.901892">
        <ele>19.118759</ele>
        <time>2018-08-07T09:54:43Z</time>
      </trkpt>
      <trkpt lat="44.148811" lon="9.900759">
        <ele>16.949133</ele>
        <time>2018-08-07T09:54:58Z</time>
      </trkpt>
      <trkpt lat="44.146716" lon="9.902225">
        <ele>17.172388</ele>
        <time>2018-08-07T09:55:14Z</time>
      </trkpt>
      <trkpt lat="44.145855" lon="9.903550">
        <ele>17.714508</ele>
        <time>2018-08-07T09:55:29Z</time>
      </trkpt>
      <trkpt lat="44.145777" lon="9.903712">
        <ele>17.478104</ele>
        <time>2018-08-07T09:56:23Z</time>
      </trkpt>
      <trkpt lat="44.145661" lon="9.903869">
        <ele>17.149963</ele>
        <time>2018-08-07T09:57:26Z</time>
      </trkpt>
      <trkpt lat="44.145177" lon="9.905197">
        <ele>15.212311</ele>
        <time>2018-08-07T09:57:42Z</time>
      </trkpt>
      <trkpt lat="44.145165" lon="9.906039">
        <ele>14.801414</ele>
        <time>2018-08-07T09:57:57Z</time>
      </trkpt>
      <trkpt lat="44.144192" lon="9.906471">
        <ele>15.469755</ele>
        <time>2018-08-07T09:58:12Z</time>
      </trkpt>
      <trkpt lat="44.142193" lon="9.904771">
        <ele>15.642426</ele>
        <time>2018-08-07T09:58:27Z</time>
      </trkpt>
      <trkpt lat="44.139288" lon="9.902283">
        <ele>16.868824</ele>
        <time>2018-08-07T09:58:43Z</time>
      </trkpt>
      <trkpt lat="44.136064" lon="9.899465">
        <ele>18.334396</ele>
        <time>2018-08-07T09:58:59Z</time>
      </trkpt>
      <trkpt lat="44.132761" lon="9.897468">
        <ele>26.817026</ele>
        <time>2018-08-07T09:59:15Z</time>
      </trkpt>
      <trkpt lat="44.129262" lon="9.895417">
        <ele>43.888515</ele>
        <time>2018-08-07T09:59:30Z</time>
      </trkpt>
      <trkpt lat="44.125847" lon="9.894296">
        <ele>35.069603</ele>
        <time>2018-08-07T09:59:45Z</time>
      </trkpt>
      <trkpt lat="44.117367" lon="9.886814">
        <ele>37.392262</ele>
        <time>2018-08-07T10:00:28Z</time>
      </trkpt>
      <trkpt lat="44.116358" lon="9.882262">
        <ele>20.011795</ele>
        <time>2018-08-07T10:00:44Z</time>
      </trkpt>
      <trkpt lat="44.115618" lon="9.876737">
        <ele>12.078852</ele>
        <time>2018-08-07T10:01:00Z</time>
      </trkpt>
      <trkpt lat="44.114784" lon="9.871247">
        <ele>10.319152</ele>
        <time>2018-08-07T10:01:16Z</time>
      </trkpt>
      <trkpt lat="44.115199" lon="9.865653">
        <ele>5.260651</ele>
        <time>2018-08-07T10:01:32Z</time>
      </trkpt>
      <trkpt lat="44.114045" lon="9.861350">
        <ele>7.525150</ele>
        <time>2018-08-07T10:01:47Z</time>
      </trkpt>
      <trkpt lat="44.113296" lon="9.857999">
        <ele>6.468472</ele>
        <time>2018-08-07T10:02:02Z</time>
      </trkpt>
      <trkpt lat="44.113818" lon="9.854991">
        <ele>4.993541</ele>
        <time>2018-08-07T10:02:18Z</time>
      </trkpt>
      <trkpt lat="44.113785" lon="9.852264">
        <ele>2.198448</ele>
        <time>2018-08-07T10:02:34Z</time>
      </trkpt>
      <trkpt lat="44.113722" lon="9.850199">
        <ele>2.837799</ele>
        <time>2018-08-07T10:02:50Z</time>
      </trkpt>
      <trkpt lat="44.113723" lon="9.849646">
        <ele>2.967048</ele>
        <time>2018-08-07T10:03:07Z</time>
      </trkpt>
      <trkpt lat="44.113727" lon="9.849336">
        <ele>3.291562</ele>
        <time>2018-08-07T10:03:22Z</time>
      </trkpt>
      <trkpt lat="44.113711" lon="9.847323">
        <ele>3.881287</ele>
        <time>2018-08-07T10:03:38Z</time>
      </trkpt>
      <trkpt lat="44.113715" lon="9.846438">
        <ele>2.809875</ele>
        <time>2018-08-07T10:03:54Z</time>
      </trkpt>
      <trkpt lat="44.113685" lon="9.846176">
        <ele>2.567078</ele>
        <time>2018-08-07T10:04:10Z</time>
      </trkpt>
      <trkpt lat="44.113684" lon="9.844026">
        <ele>2.638684</ele>
        <time>2018-08-07T10:04:26Z</time>
      </trkpt>
      <trkpt lat="44.113677" lon="9.841824">
        <ele>7.160899</ele>
        <time>2018-08-07T10:04:42Z</time>
      </trkpt>
      <trkpt lat="44.113628" lon="9.839251">
        <ele>4.954493</ele>
        <time>2018-08-07T10:04:58Z</time>
      </trkpt>
      <trkpt lat="44.113775" lon="9.838854">
        <ele>5.965836</ele>
        <time>2018-08-07T10:05:20Z</time>
      </trkpt>
      <trkpt lat="44.113826" lon="9.838654">
        <ele>6.387650</ele>
        <time>2018-08-07T10:06:11Z</time>
      </trkpt>
      <trkpt lat="44.113712" lon="9.837826">
        <ele>4.314927</ele>
        <time>2018-08-07T10:06:27Z</time>
      </trkpt>
      <trkpt lat="44.112986" lon="9.836951">
        <ele>4.284738</ele>
        <time>2018-08-07T10:06:42Z</time>
      </trkpt>
      <trkpt lat="44.112050" lon="9.835762">
        <ele>7.034063</ele>
        <time>2018-08-07T10:06:58Z</time>
      </trkpt>
      <trkpt lat="44.111669" lon="9.835296">
        <ele>11.793228</ele>
        <time>2018-08-07T10:07:13Z</time>
      </trkpt>
      <trkpt lat="44.110907" lon="9.834521">
        <ele>8.758560</ele>
        <time>2018-08-07T10:07:28Z</time>
      </trkpt>
      <trkpt lat="44.110770" lon="9.834343">
        <ele>8.139902</ele>
        <time>2018-08-07T10:07:50Z</time>
      </trkpt>
      <trkpt lat="44.110695" lon="9.834147">
        <ele>8.076238</ele>
        <time>2018-08-07T10:08:07Z</time>
      </trkpt>
      <trkpt lat="44.109863" lon="9.833018">
        <ele>7.503830</ele>
        <time>2018-08-07T10:08:23Z</time>
      </trkpt>
      <trkpt lat="44.108462" lon="9.831297">
        <ele>7.124041</ele>
        <time>2018-08-07T10:08:39Z</time>
      </trkpt>
      <trkpt lat="44.107298" lon="9.829863">
        <ele>6.552880</ele>
        <time>2018-08-07T10:08:54Z</time>
      </trkpt>
      <trkpt lat="44.106214" lon="9.828620">
        <ele>5.048413</ele>
        <time>2018-08-07T10:09:09Z</time>
      </trkpt>
      <trkpt lat="44.104984" lon="9.827110">
        <ele>4.917953</ele>
        <time>2018-08-07T10:09:24Z</time>
      </trkpt>
      <trkpt lat="44.103502" lon="9.825314">
        <ele>2.857029</ele>
        <time>2018-08-07T10:09:40Z</time>
      </trkpt>
      <trkpt lat="44.102728" lon="9.824371">
        <ele>0.850584</ele>
        <time>2018-08-07T10:09:55Z</time>
      </trkpt>
      <trkpt lat="44.101873" lon="9.823389">
        <ele>3.097574</ele>
        <time>2018-08-07T10:10:10Z</time>
      </trkpt>
      <trkpt lat="44.101039" lon="9.822201">
        <ele>5.382088</ele>
        <time>2018-08-07T10:10:26Z</time>
      </trkpt>
      <trkpt lat="44.101576" lon="9.821112">
        <ele>5.416790</ele>
        <time>2018-08-07T10:10:41Z</time>
      </trkpt>
      <trkpt lat="44.101723" lon="9.820737">
        <ele>5.025032</ele>
        <time>2018-08-07T10:11:13Z</time>
      </trkpt>
      <trkpt lat="44.101811" lon="9.820563">
        <ele>4.932235</ele>
        <time>2018-08-07T10:11:28Z</time>
      </trkpt>
      <trkpt lat="44.103006" lon="9.818525">
        <ele>6.567752</ele>
        <time>2018-08-07T10:11:44Z</time>
      </trkpt>
      <trkpt lat="44.103898" lon="9.817040">
        <ele>4.609131</ele>
        <time>2018-08-07T10:12:00Z</time>
      </trkpt>
      <trkpt lat="44.104761" lon="9.815425">
        <ele>6.160416</ele>
        <time>2018-08-07T10:12:15Z</time>
      </trkpt>
      <trkpt lat="44.105611" lon="9.813951">
        <ele>4.941154</ele>
        <time>2018-08-07T10:12:31Z</time>
      </trkpt>
      <trkpt lat="44.105128" lon="9.812941">
        <ele>3.329505</ele>
        <time>2018-08-07T10:12:46Z</time>
      </trkpt>
      <trkpt lat="44.103735" lon="9.811421">
        <ele>3.517578</ele>
        <time>2018-08-07T10:13:02Z</time>
      </trkpt>
      <trkpt lat="44.102240" lon="9.809785">
        <ele>1.688454</ele>
        <time>2018-08-07T10:13:18Z</time>
      </trkpt>
      <trkpt lat="44.101256" lon="9.808720">
        <ele>2.265258</ele>
        <time>2018-08-07T10:13:34Z</time>
      </trkpt>
      <trkpt lat="44.100718" lon="9.808126">
        <ele>4.208642</ele>
        <time>2018-08-07T10:13:49Z</time>
      </trkpt>
      <trkpt lat="44.099705" lon="9.808772">
        <ele>15.992777</ele>
        <time>2018-08-07T10:14:04Z</time>
      </trkpt>
      <trkpt lat="44.099038" lon="9.810022">
        <ele>3.718353</ele>
        <time>2018-08-07T10:14:20Z</time>
      </trkpt>
      <trkpt lat="44.097674" lon="9.812327">
        <ele>10.824195</ele>
        <time>2018-08-07T10:14:36Z</time>
      </trkpt>
      <trkpt lat="44.097115" lon="9.812779">
        <ele>16.175379</ele>
        <time>2018-08-07T10:14:54Z</time>
      </trkpt>
      <trkpt lat="44.097089" lon="9.812989">
        <ele>15.190906</ele>
        <time>2018-08-07T10:18:21Z</time>
      </trkpt>
      <trkpt lat="44.095831" lon="9.814047">
        <ele>24.898977</ele>
        <time>2018-08-07T10:18:37Z</time>
      </trkpt>
      <trkpt lat="44.094352" lon="9.815458">
        <ele>32.877369</ele>
        <time>2018-08-07T10:18:53Z</time>
      </trkpt>
      <trkpt lat="44.092663" lon="9.816018">
        <ele>40.637058</ele>
        <time>2018-08-07T10:19:08Z</time>
      </trkpt>
      <trkpt lat="44.091058" lon="9.813328">
        <ele>65.077095</ele>
        <time>2018-08-07T10:19:24Z</time>
      </trkpt>
      <trkpt lat="44.089018" lon="9.812855">
        <ele>80.650719</ele>
        <time>2018-08-07T10:19:40Z</time>
      </trkpt>
      <trkpt lat="44.086659" lon="9.812471">
        <ele>93.891716</ele>
        <time>2018-08-07T10:19:55Z</time>
      </trkpt>
      <trkpt lat="44.086181" lon="9.811176">
        <ele>128.989258</ele>
        <time>2018-08-07T10:20:11Z</time>
      </trkpt>
      <trkpt lat="44.088067" lon="9.812234">
        <ele>114.603157</ele>
        <time>2018-08-07T10:20:26Z</time>
      </trkpt>
      <trkpt lat="44.090138" lon="9.811206">
        <ele>135.662781</ele>
        <time>2018-08-07T10:20:41Z</time>
      </trkpt>
      <trkpt lat="44.091490" lon="9.809466">
        <ele>133.426727</ele>
        <time>2018-08-07T10:20:56Z</time>
      </trkpt>
      <trkpt lat="44.089831" lon="9.806590">
        <ele>164.371506</ele>
        <time>2018-08-07T10:21:12Z</time>
      </trkpt>
      <trkpt lat="44.089184" lon="9.803389">
        <ele>182.087601</ele>
        <time>2018-08-07T10:21:28Z</time>
      </trkpt>
      <trkpt lat="44.090605" lon="9.802438">
        <ele>191.505173</ele>
        <time>2018-08-07T10:21:44Z</time>
      </trkpt>
      <trkpt lat="44.092672" lon="9.803587">
        <ele>191.643204</ele>
        <time>2018-08-07T10:21:59Z</time>
      </trkpt>
      <trkpt lat="44.094997" lon="9.803834">
        <ele>198.595001</ele>
        <time>2018-08-07T10:22:14Z</time>
      </trkpt>
      <trkpt lat="44.095861" lon="9.801024">
        <ele>209.945847</ele>
        <time>2018-08-07T10:22:30Z</time>
      </trkpt>
      <trkpt lat="44.097016" lon="9.798860">
        <ele>226.077377</ele>
        <time>2018-08-07T10:22:46Z</time>
      </trkpt>
      <trkpt lat="44.098029" lon="9.796815">
        <ele>237.854156</ele>
        <time>2018-08-07T10:23:01Z</time>
      </trkpt>
      <trkpt lat="44.097310" lon="9.793283">
        <ele>253.751755</ele>
        <time>2018-08-07T10:23:17Z</time>
      </trkpt>
      <trkpt lat="44.097270" lon="9.789239">
        <ele>256.857056</ele>
        <time>2018-08-07T10:23:33Z</time>
      </trkpt>
      <trkpt lat="44.095246" lon="9.787159">
        <ele>290.386200</ele>
        <time>2018-08-07T10:23:48Z</time>
      </trkpt>
      <trkpt lat="44.092961" lon="9.785604">
        <ele>299.778076</ele>
        <time>2018-08-07T10:24:04Z</time>
      </trkpt>
      <trkpt lat="44.090844" lon="9.784765">
        <ele>299.235382</ele>
        <time>2018-08-07T10:24:20Z</time>
      </trkpt>
      <trkpt lat="44.090949" lon="9.781769">
        <ele>332.441040</ele>
        <time>2018-08-07T10:24:36Z</time>
      </trkpt>
      <trkpt lat="44.087780" lon="9.770235">
        <ele>327.931763</ele>
        <time>2018-08-07T10:25:27Z</time>
      </trkpt>
      <trkpt lat="44.088083" lon="9.767573">
        <ele>300.063293</ele>
        <time>2018-08-07T10:25:42Z</time>
      </trkpt>
      <trkpt lat="44.087403" lon="9.765948">
        <ele>287.567474</ele>
        <time>2018-08-07T10:25:57Z</time>
      </trkpt>
      <trkpt lat="44.088508" lon="9.763867">
        <ele>292.544312</ele>
        <time>2018-08-07T10:26:13Z</time>
      </trkpt>
      <trkpt lat="44.089672" lon="9.762604">
        <ele>285.199524</ele>
        <time>2018-08-07T10:26:29Z</time>
      </trkpt>
      <trkpt lat="44.091202" lon="9.762695">
        <ele>310.727600</ele>
        <time>2018-08-07T10:26:44Z</time>
      </trkpt>
      <trkpt lat="44.092197" lon="9.760920">
        <ele>285.419342</ele>
        <time>2018-08-07T10:26:59Z</time>
      </trkpt>
      <trkpt lat="44.093496" lon="9.759000">
        <ele>292.281830</ele>
        <time>2018-08-07T10:27:15Z</time>
      </trkpt>
      <trkpt lat="44.094519" lon="9.756025">
        <ele>316.756775</ele>
        <time>2018-08-07T10:27:37Z</time>
      </trkpt>
      <trkpt lat="44.094444" lon="9.752111">
        <ele>271.028229</ele>
        <time>2018-08-07T10:27:53Z</time>
      </trkpt>
      <trkpt lat="44.094184" lon="9.748704">
        <ele>0.000000</ele>
        <time>2018-08-07T10:28:09Z</time>
      </trkpt>
      <trkpt lat="44.094546" lon="9.745877">
        <ele>0.000000</ele>
        <time>2018-08-07T10:28:24Z</time>
      </trkpt>
      <trkpt lat="44.094420" lon="9.742739">
        <ele>0.000000</ele>
        <time>2018-08-07T10:28:39Z</time>
      </trkpt>
      <trkpt lat="44.096593" lon="9.742923">
        <ele>0.000000</ele>
        <time>2018-08-07T10:28:55Z</time>
      </trkpt>
      <trkpt lat="44.098112" lon="9.744478">
        <ele>0.000000</ele>
        <time>2018-08-07T10:29:11Z</time>
      </trkpt>
      <trkpt lat="44.098082" lon="9.747127">
        <ele>0.000000</ele>
        <time>2018-08-07T10:29:27Z</time>
      </trkpt>
      <trkpt lat="44.099551" lon="9.748930">
        <ele>0.000000</ele>
        <time>2018-08-07T10:29:42Z</time>
      </trkpt>
      <trkpt lat="44.100591" lon="9.751267">
        <ele>216.261688</ele>
        <time>2018-08-07T10:29:58Z</time>
      </trkpt>
      <trkpt lat="44.102262" lon="9.749811">
        <ele>201.847046</ele>
        <time>2018-08-07T10:30:14Z</time>
      </trkpt>
      <trkpt lat="44.101653" lon="9.747029">
        <ele>183.933411</ele>
        <time>2018-08-07T10:30:30Z</time>
      </trkpt>
      <trkpt lat="44.101850" lon="9.744359">
        <ele>188.549759</ele>
        <time>2018-08-07T10:30:46Z</time>
      </trkpt>
      <trkpt lat="44.102143" lon="9.741540">
        <ele>179.719055</ele>
        <time>2018-08-07T10:31:02Z</time>
      </trkpt>
      <trkpt lat="44.102901" lon="9.738792">
        <ele>162.353500</ele>
        <time>2018-08-07T10:31:17Z</time>
      </trkpt>
      <trkpt lat="44.105344" lon="9.737117">
        <ele>142.155945</ele>
        <time>2018-08-07T10:31:33Z</time>
      </trkpt>
      <trkpt lat="44.107180" lon="9.734561">
        <ele>209.976837</ele>
        <time>2018-08-07T10:31:48Z</time>
      </trkpt>
      <trkpt lat="44.108752" lon="9.734510">
        <ele>153.247635</ele>
        <time>2018-08-07T10:32:04Z</time>
      </trkpt>
      <trkpt lat="44.109745" lon="9.735511">
        <ele>154.984589</ele>
        <time>2018-08-07T10:32:20Z</time>
      </trkpt>
      <trkpt lat="44.110859" lon="9.734878">
        <ele>145.625000</ele>
        <time>2018-08-07T10:32:35Z</time>
      </trkpt>
      <trkpt lat="44.111749" lon="9.733319">
        <ele>160.754532</ele>
        <time>2018-08-07T10:32:50Z</time>
      </trkpt>
      <trkpt lat="44.112271" lon="9.733228">
        <ele>177.618271</ele>
        <time>2018-08-07T10:33:06Z</time>
      </trkpt>
      <trkpt lat="44.113194" lon="9.734179">
        <ele>194.437454</ele>
        <time>2018-08-07T10:33:21Z</time>
      </trkpt>
      <trkpt lat="44.113098" lon="9.735274">
        <ele>204.148895</ele>
        <time>2018-08-07T10:33:36Z</time>
      </trkpt>
      <trkpt lat="44.113595" lon="9.736890">
        <ele>223.120361</ele>
        <time>2018-08-07T10:33:52Z</time>
      </trkpt>
      <trkpt lat="44.114228" lon="9.737170">
        <ele>237.383469</ele>
        <time>2018-08-07T10:34:08Z</time>
      </trkpt>
      <trkpt lat="44.114345" lon="9.737049">
        <ele>239.134018</ele>
        <time>2018-08-07T10:34:27Z</time>
      </trkpt>
      <trkpt lat="44.114190" lon="9.737136">
        <ele>236.804962</ele>
        <time>2018-08-07T10:37:07Z</time>
      </trkpt>
      <trkpt lat="44.113652" lon="9.737799">
        <ele>238.660767</ele>
        <time>2018-08-07T10:37:22Z</time>
      </trkpt>
      <trkpt lat="44.114553" lon="9.737376">
        <ele>243.401550</ele>
        <time>2018-08-07T10:37:37Z</time>
      </trkpt>
      <trkpt lat="44.115403" lon="9.737302">
        <ele>259.564331</ele>
        <time>2018-08-07T10:37:52Z</time>
      </trkpt>
      <trkpt lat="44.116172" lon="9.736339">
        <ele>274.589294</ele>
        <time>2018-08-07T10:38:08Z</time>
      </trkpt>
      <trkpt lat="44.116609" lon="9.736101">
        <ele>285.259705</ele>
        <time>2018-08-07T10:38:23Z</time>
      </trkpt>
      <trkpt lat="44.115150" lon="9.735546">
        <ele>278.221466</ele>
        <time>2018-08-07T10:38:39Z</time>
      </trkpt>
      <trkpt lat="44.115518" lon="9.734453">
        <ele>294.313324</ele>
        <time>2018-08-07T10:38:55Z</time>
      </trkpt>
      <trkpt lat="44.116135" lon="9.732425">
        <ele>319.854797</ele>
        <time>2018-08-07T10:39:10Z</time>
      </trkpt>
      <trkpt lat="44.116564" lon="9.730416">
        <ele>343.960144</ele>
        <time>2018-08-07T10:39:25Z</time>
      </trkpt>
      <trkpt lat="44.116429" lon="9.729499">
        <ele>346.044373</ele>
        <time>2018-08-07T10:39:41Z</time>
      </trkpt>
      <trkpt lat="44.116282" lon="9.729576">
        <ele>343.705444</ele>
        <time>2018-08-07T10:40:00Z</time>
      </trkpt>
      <trkpt lat="44.116158" lon="9.729664">
        <ele>341.542053</ele>
        <time>2018-08-07T10:42:12Z</time>
      </trkpt>
      <trkpt lat="44.116041" lon="9.729557">
        <ele>340.799652</ele>
        <time>2018-08-07T10:42:35Z</time>
      </trkpt>
      <trkpt lat="44.116147" lon="9.729391">
        <ele>343.249023</ele>
        <time>2018-08-07T10:42:51Z</time>
      </trkpt>
      <trkpt lat="44.116100" lon="9.729568">
        <ele>341.458282</ele>
        <time>2018-08-07T10:44:56Z</time>
      </trkpt>
      <trkpt lat="44.116200" lon="9.729708">
        <ele>341.784760</ele>
        <time>2018-08-07T10:49:54Z</time>
      </trkpt>
      <trkpt lat="44.116150" lon="9.729525">
        <ele>342.378418</ele>
        <time>2018-08-07T10:50:22Z</time>
      </trkpt>
      <trkpt lat="44.115925" lon="9.729452">
        <ele>340.077454</ele>
        <time>2018-08-09T08:41:14Z</time>
      </trkpt>
      <trkpt lat="44.116512" lon="9.728012">
        <ele>350.482452</ele>
        <time>2018-08-09T08:41:30Z</time>
      </trkpt>
      <trkpt lat="44.116980" lon="9.726538">
        <ele>354.380066</ele>
        <time>2018-08-09T08:41:45Z</time>
      </trkpt>
      <trkpt lat="44.118266" lon="9.726155">
        <ele>374.166473</ele>
        <time>2018-08-09T08:42:01Z</time>
      </trkpt>
      <trkpt lat="44.119493" lon="9.725883">
        <ele>383.751617</ele>
        <time>2018-08-09T08:42:16Z</time>
      </trkpt>
      <trkpt lat="44.120304" lon="9.724682">
        <ele>378.257935</ele>
        <time>2018-08-09T08:42:32Z</time>
      </trkpt>
      <trkpt lat="44.120387" lon="9.723378">
        <ele>365.534271</ele>
        <time>2018-08-09T08:42:47Z</time>
      </trkpt>
      <trkpt lat="44.120693" lon="9.722720">
        <ele>369.542297</ele>
        <time>2018-08-09T08:43:02Z</time>
      </trkpt>
      <trkpt lat="44.121952" lon="9.723050">
        <ele>393.823120</ele>
        <time>2018-08-09T08:43:17Z</time>
      </trkpt>
      <trkpt lat="44.123203" lon="9.724217">
        <ele>423.302338</ele>
        <time>2018-08-09T08:43:33Z</time>
      </trkpt>
      <trkpt lat="44.124215" lon="9.725654">
        <ele>456.829773</ele>
        <time>2018-08-09T08:43:49Z</time>
      </trkpt>
      <trkpt lat="44.125162" lon="9.724732">
        <ele>445.963501</ele>
        <time>2018-08-09T08:44:04Z</time>
      </trkpt>
      <trkpt lat="44.126201" lon="9.724357">
        <ele>471.367096</ele>
        <time>2018-08-09T08:44:20Z</time>
      </trkpt>
      <trkpt lat="44.125311" lon="9.722406">
        <ele>472.416077</ele>
        <time>2018-08-09T08:44:35Z</time>
      </trkpt>
      <trkpt lat="44.125216" lon="9.720228">
        <ele>474.645111</ele>
        <time>2018-08-09T08:44:50Z</time>
      </trkpt>
      <trkpt lat="44.126637" lon="9.720827">
        <ele>501.804321</ele>
        <time>2018-08-09T08:45:06Z</time>
      </trkpt>
      <trkpt lat="44.128121" lon="9.721451">
        <ele>524.412964</ele>
        <time>2018-08-09T08:45:21Z</time>
      </trkpt>
      <trkpt lat="44.128760" lon="9.720854">
        <ele>521.739685</ele>
        <time>2018-08-09T08:45:36Z</time>
      </trkpt>
      <trkpt lat="44.129389" lon="9.719082">
        <ele>509.536865</ele>
        <time>2018-08-09T08:45:51Z</time>
      </trkpt>
      <trkpt lat="44.130894" lon="9.718307">
        <ele>521.159790</ele>
        <time>2018-08-09T08:46:06Z</time>
      </trkpt>
      <trkpt lat="44.130837" lon="9.716580">
        <ele>504.561157</ele>
        <time>2018-08-09T08:46:22Z</time>
      </trkpt>
      <trkpt lat="44.130277" lon="9.714722">
        <ele>497.495575</ele>
        <time>2018-08-09T08:46:37Z</time>
      </trkpt>
      <trkpt lat="44.131170" lon="9.713318">
        <ele>498.258972</ele>
        <time>2018-08-09T08:46:53Z</time>
      </trkpt>
      <trkpt lat="44.132051" lon="9.712530">
        <ele>502.274200</ele>
        <time>2018-08-09T08:47:08Z</time>
      </trkpt>
      <trkpt lat="44.131696" lon="9.709795">
        <ele>470.088226</ele>
        <time>2018-08-09T08:47:24Z</time>
      </trkpt>
      <trkpt lat="44.132046" lon="9.707429">
        <ele>453.775757</ele>
        <time>2018-08-09T08:47:39Z</time>
      </trkpt>
      <trkpt lat="44.132925" lon="9.706830">
        <ele>464.383850</ele>
        <time>2018-08-09T08:47:55Z</time>
      </trkpt>
      <trkpt lat="44.133690" lon="9.707996">
        <ele>479.569580</ele>
        <time>2018-08-09T08:48:11Z</time>
      </trkpt>
      <trkpt lat="44.134628" lon="9.709160">
        <ele>476.036560</ele>
        <time>2018-08-09T08:48:26Z</time>
      </trkpt>
      <trkpt lat="44.136251" lon="9.709507">
        <ele>485.582855</ele>
        <time>2018-08-09T08:48:42Z</time>
      </trkpt>
      <trkpt lat="44.136832" lon="9.708053">
        <ele>459.710327</ele>
        <time>2018-08-09T08:48:57Z</time>
      </trkpt>
      <trkpt lat="44.137961" lon="9.707770">
        <ele>480.321503</ele>
        <time>2018-08-09T08:49:12Z</time>
      </trkpt>
      <trkpt lat="44.138536" lon="9.705771">
        <ele>469.031799</ele>
        <time>2018-08-09T08:49:28Z</time>
      </trkpt>
      <trkpt lat="44.139909" lon="9.706005">
        <ele>469.640625</ele>
        <time>2018-08-09T08:49:43Z</time>
      </trkpt>
      <trkpt lat="44.141278" lon="9.706935">
        <ele>468.661499</ele>
        <time>2018-08-09T08:49:58Z</time>
      </trkpt>
      <trkpt lat="44.141870" lon="9.708993">
        <ele>477.229248</ele>
        <time>2018-08-09T08:50:14Z</time>
      </trkpt>
      <trkpt lat="44.142162" lon="9.711245">
        <ele>483.589233</ele>
        <time>2018-08-09T08:50:30Z</time>
      </trkpt>
      <trkpt lat="44.143571" lon="9.710408">
        <ele>449.739594</ele>
        <time>2018-08-09T08:50:45Z</time>
      </trkpt>
      <trkpt lat="44.144540" lon="9.712133">
        <ele>476.568359</ele>
        <time>2018-08-09T08:51:01Z</time>
      </trkpt>
      <trkpt lat="44.145683" lon="9.711590">
        <ele>470.070435</ele>
        <time>2018-08-09T08:51:17Z</time>
      </trkpt>
      <trkpt lat="44.145878" lon="9.709321">
        <ele>457.221069</ele>
        <time>2018-08-09T08:51:32Z</time>
      </trkpt>
      <trkpt lat="44.146105" lon="9.707475">
        <ele>440.411011</ele>
        <time>2018-08-09T08:51:47Z</time>
      </trkpt>
      <trkpt lat="44.147724" lon="9.707883">
        <ele>456.124420</ele>
        <time>2018-08-09T08:52:03Z</time>
      </trkpt>
      <trkpt lat="44.149129" lon="9.707490">
        <ele>456.937836</ele>
        <time>2018-08-09T08:52:18Z</time>
      </trkpt>
      <trkpt lat="44.149747" lon="9.705693">
        <ele>463.182129</ele>
        <time>2018-08-09T08:52:34Z</time>
      </trkpt>
      <trkpt lat="44.148313" lon="9.704562">
        <ele>459.993896</ele>
        <time>2018-08-09T08:52:49Z</time>
      </trkpt>
      <trkpt lat="44.148143" lon="9.702894">
        <ele>470.161194</ele>
        <time>2018-08-09T08:53:05Z</time>
      </trkpt>
      <trkpt lat="44.146966" lon="9.701624">
        <ele>446.371277</ele>
        <time>2018-08-09T08:53:21Z</time>
      </trkpt>
      <trkpt lat="44.147692" lon="9.699639">
        <ele>445.483887</ele>
        <time>2018-08-09T08:53:37Z</time>
      </trkpt>
      <trkpt lat="44.148612" lon="9.698174">
        <ele>449.420624</ele>
        <time>2018-08-09T08:53:53Z</time>
      </trkpt>
      <trkpt lat="44.148633" lon="9.696596">
        <ele>465.859131</ele>
        <time>2018-08-09T08:54:09Z</time>
      </trkpt>
      <trkpt lat="44.147496" lon="9.696369">
        <ele>442.250702</ele>
        <time>2018-08-09T08:54:24Z</time>
      </trkpt>
      <trkpt lat="44.148131" lon="9.695115">
        <ele>444.692596</ele>
        <time>2018-08-09T08:54:39Z</time>
      </trkpt>
      <trkpt lat="44.148866" lon="9.693824">
        <ele>465.499786</ele>
        <time>2018-08-09T08:54:55Z</time>
      </trkpt>
      <trkpt lat="44.148172" lon="9.692193">
        <ele>455.127106</ele>
        <time>2018-08-09T08:55:11Z</time>
      </trkpt>
      <trkpt lat="44.148207" lon="9.690799">
        <ele>457.655487</ele>
        <time>2018-08-09T08:55:26Z</time>
      </trkpt>
      <trkpt lat="44.148142" lon="9.689530">
        <ele>439.705017</ele>
        <time>2018-08-09T08:55:41Z</time>
      </trkpt>
      <trkpt lat="44.148984" lon="9.689007">
        <ele>466.147339</ele>
        <time>2018-08-09T08:55:56Z</time>
      </trkpt>
      <trkpt lat="44.149445" lon="9.687682">
        <ele>482.222168</ele>
        <time>2018-08-09T08:56:11Z</time>
      </trkpt>
      <trkpt lat="44.148863" lon="9.686813">
        <ele>471.201294</ele>
        <time>2018-08-09T08:56:26Z</time>
      </trkpt>
      <trkpt lat="44.148957" lon="9.686638">
        <ele>476.411041</ele>
        <time>2018-08-09T08:58:06Z</time>
      </trkpt>
      <trkpt lat="44.148641" lon="9.685151">
        <ele>487.483215</ele>
        <time>2018-08-09T08:58:21Z</time>
      </trkpt>
      <trkpt lat="44.147298" lon="9.684934">
        <ele>485.514160</ele>
        <time>2018-08-09T08:58:37Z</time>
      </trkpt>
      <trkpt lat="44.145895" lon="9.684153">
        <ele>484.440430</ele>
        <time>2018-08-09T08:58:52Z</time>
      </trkpt>
      <trkpt lat="44.144519" lon="9.683134">
        <ele>481.974640</ele>
        <time>2018-08-09T08:59:08Z</time>
      </trkpt>
      <trkpt lat="44.144817" lon="9.681876">
        <ele>485.379852</ele>
        <time>2018-08-09T08:59:23Z</time>
      </trkpt>
      <trkpt lat="44.146185" lon="9.681012">
        <ele>512.724976</ele>
        <time>2018-08-09T08:59:39Z</time>
      </trkpt>
      <trkpt lat="44.146721" lon="9.679410">
        <ele>519.393921</ele>
        <time>2018-08-09T08:59:54Z</time>
      </trkpt>
      <trkpt lat="44.146884" lon="9.677503">
        <ele>523.751770</ele>
        <time>2018-08-09T09:00:10Z</time>
      </trkpt>
      <trkpt lat="44.146996" lon="9.676057">
        <ele>519.989258</ele>
        <time>2018-08-09T09:00:25Z</time>
      </trkpt>
      <trkpt lat="44.148358" lon="9.676853">
        <ele>545.407227</ele>
        <time>2018-08-09T09:00:41Z</time>
      </trkpt>
      <trkpt lat="44.149556" lon="9.677858">
        <ele>567.344666</ele>
        <time>2018-08-09T09:00:57Z</time>
      </trkpt>
      <trkpt lat="44.149911" lon="9.675707">
        <ele>544.419067</ele>
        <time>2018-08-09T09:01:13Z</time>
      </trkpt>
      <trkpt lat="44.150540" lon="9.673836">
        <ele>536.662109</ele>
        <time>2018-08-09T09:01:28Z</time>
      </trkpt>
      <trkpt lat="44.151571" lon="9.672571">
        <ele>537.883545</ele>
        <time>2018-08-09T09:01:43Z</time>
      </trkpt>
      <trkpt lat="44.153231" lon="9.672454">
        <ele>553.682068</ele>
        <time>2018-08-09T09:01:59Z</time>
      </trkpt>
      <trkpt lat="44.153845" lon="9.672681">
        <ele>556.996277</ele>
        <time>2018-08-09T09:02:15Z</time>
      </trkpt>
      <trkpt lat="44.153245" lon="9.671079">
        <ele>536.812866</ele>
        <time>2018-08-09T09:02:31Z</time>
      </trkpt>
      <trkpt lat="44.153639" lon="9.669035">
        <ele>522.308411</ele>
        <time>2018-08-09T09:02:46Z</time>
      </trkpt>
      <trkpt lat="44.154924" lon="9.668697">
        <ele>521.491638</ele>
        <time>2018-08-09T09:03:02Z</time>
      </trkpt>
      <trkpt lat="44.155306" lon="9.666509">
        <ele>506.522888</ele>
        <time>2018-08-09T09:03:17Z</time>
      </trkpt>
      <trkpt lat="44.157456" lon="9.665947">
        <ele>505.073547</ele>
        <time>2018-08-09T09:03:33Z</time>
      </trkpt>
      <trkpt lat="44.159673" lon="9.665119">
        <ele>494.649231</ele>
        <time>2018-08-09T09:03:49Z</time>
      </trkpt>
      <trkpt lat="44.160988" lon="9.662921">
        <ele>475.248505</ele>
        <time>2018-08-09T09:04:05Z</time>
      </trkpt>
      <trkpt lat="44.161348" lon="9.661553">
        <ele>468.458038</ele>
        <time>2018-08-09T09:04:20Z</time>
      </trkpt>
      <trkpt lat="44.162111" lon="9.659585">
        <ele>444.763824</ele>
        <time>2018-08-09T09:04:36Z</time>
      </trkpt>
      <trkpt lat="44.163348" lon="9.659174">
        <ele>443.785461</ele>
        <time>2018-08-09T09:04:51Z</time>
      </trkpt>
      <trkpt lat="44.163688" lon="9.657064">
        <ele>420.448853</ele>
        <time>2018-08-09T09:05:07Z</time>
      </trkpt>
      <trkpt lat="44.165231" lon="9.656400">
        <ele>412.261536</ele>
        <time>2018-08-09T09:05:23Z</time>
      </trkpt>
      <trkpt lat="44.165366" lon="9.655026">
        <ele>392.211792</ele>
        <time>2018-08-09T09:05:38Z</time>
      </trkpt>
      <trkpt lat="44.164535" lon="9.653213">
        <ele>367.285583</ele>
        <time>2018-08-09T09:05:53Z</time>
      </trkpt>
      <trkpt lat="44.163749" lon="9.651814">
        <ele>353.845917</ele>
        <time>2018-08-09T09:06:08Z</time>
      </trkpt>
      <trkpt lat="44.163378" lon="9.650144">
        <ele>334.958862</ele>
        <time>2018-08-09T09:06:23Z</time>
      </trkpt>
      <trkpt lat="44.163757" lon="9.649799">
        <ele>331.069733</ele>
        <time>2018-08-09T09:06:39Z</time>
      </trkpt>
      <trkpt lat="44.164082" lon="9.649822">
        <ele>329.248718</ele>
        <time>2018-08-09T09:06:57Z</time>
      </trkpt>
      <trkpt lat="44.164199" lon="9.649944">
        <ele>331.256744</ele>
        <time>2018-08-09T09:08:13Z</time>
      </trkpt>
      <trkpt lat="44.165515" lon="9.651197">
        <ele>328.312317</ele>
        <time>2018-08-09T09:08:29Z</time>
      </trkpt>
      <trkpt lat="44.167422" lon="9.652708">
        <ele>326.001068</ele>
        <time>2018-08-09T09:08:45Z</time>
      </trkpt>
      <trkpt lat="44.169297" lon="9.651643">
        <ele>301.170441</ele>
        <time>2018-08-09T09:09:01Z</time>
      </trkpt>
      <trkpt lat="44.170492" lon="9.650270">
        <ele>288.188934</ele>
        <time>2018-08-09T09:09:16Z</time>
      </trkpt>
      <trkpt lat="44.171468" lon="9.649924">
        <ele>291.692352</ele>
        <time>2018-08-09T09:09:31Z</time>
      </trkpt>
      <trkpt lat="44.171864" lon="9.647650">
        <ele>240.188126</ele>
        <time>2018-08-09T09:09:47Z</time>
      </trkpt>
      <trkpt lat="44.172766" lon="9.647764">
        <ele>264.930054</ele>
        <time>2018-08-09T09:10:03Z</time>
      </trkpt>
      <trkpt lat="44.173391" lon="9.645555">
        <ele>224.994293</ele>
        <time>2018-08-09T09:10:19Z</time>
      </trkpt>
      <trkpt lat="44.174406" lon="9.644898">
        <ele>230.667175</ele>
        <time>2018-08-09T09:10:34Z</time>
      </trkpt>
      <trkpt lat="44.174450" lon="9.643880">
        <ele>200.988586</ele>
        <time>2018-08-09T09:10:50Z</time>
      </trkpt>
      <trkpt lat="44.173730" lon="9.644843">
        <ele>209.614166</ele>
        <time>2018-08-09T09:11:06Z</time>
      </trkpt>
      <trkpt lat="44.173410" lon="9.644499">
        <ele>191.869095</ele>
        <time>2018-08-09T09:11:22Z</time>
      </trkpt>
      <trkpt lat="44.174149" lon="9.643304">
        <ele>175.077744</ele>
        <time>2018-08-09T09:11:37Z</time>
      </trkpt>
      <trkpt lat="44.174730" lon="9.641546">
        <ele>167.470642</ele>
        <time>2018-08-09T09:11:53Z</time>
      </trkpt>
      <trkpt lat="44.174888" lon="9.640355">
        <ele>154.813416</ele>
        <time>2018-08-09T09:12:08Z</time>
      </trkpt>
      <trkpt lat="44.175231" lon="9.638342">
        <ele>130.196838</ele>
        <time>2018-08-09T09:12:24Z</time>
      </trkpt>
      <trkpt lat="44.174950" lon="9.636364">
        <ele>112.838562</ele>
        <time>2018-08-09T09:12:39Z</time>
      </trkpt>
      <trkpt lat="44.176014" lon="9.636934">
        <ele>116.469643</ele>
        <time>2018-08-09T09:12:54Z</time>
      </trkpt>
      <trkpt lat="44.175899" lon="9.635925">
        <ele>97.913086</ele>
        <time>2018-08-09T09:13:10Z</time>
      </trkpt>
      <trkpt lat="44.175207" lon="9.634666">
        <ele>90.314491</ele>
        <time>2018-08-09T09:13:25Z</time>
      </trkpt>
      <trkpt lat="44.174759" lon="9.632277">
        <ele>58.421631</ele>
        <time>2018-08-09T09:13:41Z</time>
      </trkpt>
      <trkpt lat="44.174551" lon="9.631871">
        <ele>50.349236</ele>
        <time>2018-08-09T09:13:56Z</time>
      </trkpt>
      <trkpt lat="44.173987" lon="9.633739">
        <ele>56.588970</ele>
        <time>2018-08-09T09:14:12Z</time>
      </trkpt>
      <trkpt lat="44.173267" lon="9.635117">
        <ele>48.501488</ele>
        <time>2018-08-09T09:14:27Z</time>
      </trkpt>
      <trkpt lat="44.173559" lon="9.633982">
        <ele>46.937248</ele>
        <time>2018-08-09T09:14:42Z</time>
      </trkpt>
      <trkpt lat="44.173903" lon="9.632211">
        <ele>42.717274</ele>
        <time>2018-08-09T09:14:57Z</time>
      </trkpt>
      <trkpt lat="44.174463" lon="9.630383">
        <ele>35.699657</ele>
        <time>2018-08-09T09:15:12Z</time>
      </trkpt>
      <trkpt lat="44.175258" lon="9.628986">
        <ele>31.999496</ele>
        <time>2018-08-09T09:15:28Z</time>
      </trkpt>
      <trkpt lat="44.175367" lon="9.627116">
        <ele>34.816826</ele>
        <time>2018-08-09T09:15:44Z</time>
      </trkpt>
      <trkpt lat="44.174994" lon="9.625130">
        <ele>27.611036</ele>
        <time>2018-08-09T09:16:00Z</time>
      </trkpt>
      <trkpt lat="44.175484" lon="9.623433">
        <ele>19.002151</ele>
        <time>2018-08-09T09:16:15Z</time>
      </trkpt>
      <trkpt lat="44.175742" lon="9.621908">
        <ele>13.625441</ele>
        <time>2018-08-09T09:16:30Z</time>
      </trkpt>
      <trkpt lat="44.175573" lon="9.621656">
        <ele>13.856297</ele>
        <time>2018-08-09T09:16:45Z</time>
      </trkpt>
      <trkpt lat="44.175140" lon="9.621116">
        <ele>14.240676</ele>
        <time>2018-08-09T09:17:00Z</time>
      </trkpt>
      <trkpt lat="44.174794" lon="9.620284">
        <ele>12.430824</ele>
        <time>2018-08-09T09:17:16Z</time>
      </trkpt>
      <trkpt lat="44.175457" lon="9.619426">
        <ele>13.303007</ele>
        <time>2018-08-09T09:17:31Z</time>
      </trkpt>
      <trkpt lat="44.175023" lon="9.618702">
        <ele>11.526031</ele>
        <time>2018-08-09T09:17:46Z</time>
      </trkpt>
      <trkpt lat="44.174572" lon="9.618368">
        <ele>10.505924</ele>
        <time>2018-08-09T09:18:02Z</time>
      </trkpt>
      <trkpt lat="44.174720" lon="9.618589">
        <ele>10.867678</ele>
        <time>2018-08-09T09:18:18Z</time>
      </trkpt>
      <trkpt lat="44.174860" lon="9.618640">
        <ele>11.138860</ele>
        <time>2018-08-09T09:19:40Z</time>
      </trkpt>
      <trkpt lat="44.174776" lon="9.618431">
        <ele>10.817219</ele>
        <time>2018-08-09T09:19:59Z</time>
      </trkpt>
      <trkpt lat="44.173829" lon="9.617115">
        <ele>11.610914</ele>
        <time>2018-08-09T09:20:15Z</time>
      </trkpt>
      <trkpt lat="44.173531" lon="9.615604">
        <ele>9.937973</ele>
        <time>2018-08-09T09:20:31Z</time>
      </trkpt>
      <trkpt lat="44.173445" lon="9.615394">
        <ele>9.463501</ele>
        <time>2018-08-09T09:20:48Z</time>
      </trkpt>
      <trkpt lat="44.172771" lon="9.614851">
        <ele>7.500775</ele>
        <time>2018-08-09T09:21:04Z</time>
      </trkpt>
      <trkpt lat="44.172046" lon="9.614281">
        <ele>6.937287</ele>
        <time>2018-08-09T09:21:19Z</time>
      </trkpt>
      <trkpt lat="44.171808" lon="9.613358">
        <ele>7.164518</ele>
        <time>2018-08-09T09:21:34Z</time>
      </trkpt>
      <trkpt lat="44.171614" lon="9.612337">
        <ele>6.633551</ele>
        <time>2018-08-09T09:21:49Z</time>
      </trkpt>
      <trkpt lat="44.171722" lon="9.613127">
        <ele>7.132346</ele>
        <time>2018-08-09T09:22:05Z</time>
      </trkpt>
      <trkpt lat="44.171991" lon="9.614162">
        <ele>7.001994</ele>
        <time>2018-08-09T09:22:20Z</time>
      </trkpt>
      <trkpt lat="44.171549" lon="9.614682">
        <ele>7.086988</ele>
        <time>2018-08-09T09:22:36Z</time>
      </trkpt>
      <trkpt lat="44.170601" lon="9.615466">
        <ele>10.017547</ele>
        <time>2018-08-09T09:22:51Z</time>
      </trkpt>
      <trkpt lat="44.170462" lon="9.615578">
        <ele>11.268332</ele>
        <time>2018-08-09T09:23:07Z</time>
      </trkpt>
      <trkpt lat="44.171313" lon="9.614842">
        <ele>7.344450</ele>
        <time>2018-08-09T09:23:22Z</time>
      </trkpt>
      <trkpt lat="44.171671" lon="9.614477">
        <ele>6.998145</ele>
        <time>2018-08-09T09:23:38Z</time>
      </trkpt>
      <trkpt lat="44.171451" lon="9.614061">
        <ele>7.032905</ele>
        <time>2018-08-09T09:23:54Z</time>
      </trkpt>
      <trkpt lat="44.171477" lon="9.613875">
        <ele>7.079428</ele>
        <time>2018-08-09T09:30:26Z</time>
      </trkpt>
      <trkpt lat="44.171528" lon="9.614059">
        <ele>7.021562</ele>
        <time>2018-08-09T09:30:55Z</time>
      </trkpt>
      <trkpt lat="44.171603" lon="9.614261">
        <ele>7.008689</ele>
        <time>2018-08-09T09:31:10Z</time>
      </trkpt>
      <trkpt lat="44.171611" lon="9.614495">
        <ele>7.026115</ele>
        <time>2018-08-09T09:31:25Z</time>
      </trkpt>
      <trkpt lat="44.171903" lon="9.614353">
        <ele>6.936676</ele>
        <time>2018-08-09T09:31:41Z</time>
      </trkpt>
      <trkpt lat="44.172038" lon="9.614277">
        <ele>6.941037</ele>
        <time>2018-08-09T09:35:06Z</time>
      </trkpt>
      <trkpt lat="44.172217" lon="9.614340">
        <ele>6.862528</ele>
        <time>2018-08-09T09:35:22Z</time>
      </trkpt>
      <trkpt lat="44.171992" lon="9.614697">
        <ele>6.751871</ele>
        <time>2018-08-09T09:35:41Z</time>
      </trkpt>
      <trkpt lat="44.172041" lon="9.614505">
        <ele>6.817760</ele>
        <time>2018-08-09T09:36:12Z</time>
      </trkpt>
      <trkpt lat="44.171832" lon="9.614452">
        <ele>6.932247</ele>
        <time>2018-08-09T09:37:21Z</time>
      </trkpt>
      <trkpt lat="44.171691" lon="9.614381">
        <ele>6.992584</ele>
        <time>2018-08-09T09:37:49Z</time>
      </trkpt>
      <trkpt lat="44.171829" lon="9.614331">
        <ele>6.961496</ele>
        <time>2018-08-09T09:38:16Z</time>
      </trkpt>
      <trkpt lat="44.171696" lon="9.614382">
        <ele>6.990806</ele>
        <time>2018-08-09T09:57:07Z</time>
      </trkpt>
      <trkpt lat="44.171578" lon="9.614281">
        <ele>7.014591</ele>
        <time>2018-08-09T09:57:23Z</time>
      </trkpt>
      <trkpt lat="44.171475" lon="9.614085">
        <ele>7.022605</ele>
        <time>2018-08-09T09:57:39Z</time>
      </trkpt>
      <trkpt lat="44.171394" lon="9.613919">
        <ele>7.097304</ele>
        <time>2018-08-09T09:57:55Z</time>
      </trkpt>
      <trkpt lat="44.171533" lon="9.613877">
        <ele>7.055628</ele>
        <time>2018-08-09T09:58:14Z</time>
      </trkpt>
      <trkpt lat="44.171557" lon="9.614081">
        <ele>7.013523</ele>
        <time>2018-08-09T10:02:02Z</time>
      </trkpt>
      <trkpt lat="44.171716" lon="9.614483">
        <ele>6.977538</ele>
        <time>2018-08-09T10:02:17Z</time>
      </trkpt>
      <trkpt lat="44.172000" lon="9.614247">
        <ele>6.961594</ele>
        <time>2018-08-09T10:02:32Z</time>
      </trkpt>
      <trkpt lat="44.171802" lon="9.613581">
        <ele>7.114521</ele>
        <time>2018-08-09T10:02:47Z</time>
      </trkpt>
      <trkpt lat="44.171600" lon="9.612415">
        <ele>6.812564</ele>
        <time>2018-08-09T10:03:03Z</time>
      </trkpt>
      <trkpt lat="44.171400" lon="9.611493">
        <ele>6.064714</ele>
        <time>2018-08-09T10:03:18Z</time>
      </trkpt>
      <trkpt lat="44.171257" lon="9.610828">
        <ele>7.502960</ele>
        <time>2018-08-09T10:03:34Z</time>
      </trkpt>
      <trkpt lat="44.170992" lon="9.609753">
        <ele>6.486298</ele>
        <time>2018-08-09T10:03:50Z</time>
      </trkpt>
      <trkpt lat="44.171217" lon="9.608900">
        <ele>7.288228</ele>
        <time>2018-08-09T10:04:06Z</time>
      </trkpt>
      <trkpt lat="44.172364" lon="9.608997">
        <ele>20.730253</ele>
        <time>2018-08-09T10:04:22Z</time>
      </trkpt>
      <trkpt lat="44.172298" lon="9.610907">
        <ele>15.315979</ele>
        <time>2018-08-09T10:04:37Z</time>
      </trkpt>
      <trkpt lat="44.173238" lon="9.612255">
        <ele>25.964956</ele>
        <time>2018-08-09T10:04:53Z</time>
      </trkpt>
      <trkpt lat="44.172838" lon="9.611126">
        <ele>27.815022</ele>
        <time>2018-08-09T10:05:09Z</time>
      </trkpt>
      <trkpt lat="44.173591" lon="9.612010">
        <ele>37.188618</ele>
        <time>2018-08-09T10:05:25Z</time>
      </trkpt>
      <trkpt lat="44.173191" lon="9.610852">
        <ele>43.426949</ele>
        <time>2018-08-09T10:05:40Z</time>
      </trkpt>
      <trkpt lat="44.172946" lon="9.608450">
        <ele>53.083549</ele>
        <time>2018-08-09T10:05:56Z</time>
      </trkpt>
      <trkpt lat="44.173138" lon="9.606174">
        <ele>56.729618</ele>
        <time>2018-08-09T10:06:11Z</time>
      </trkpt>
      <trkpt lat="44.174994" lon="9.605269">
        <ele>83.015572</ele>
        <time>2018-08-09T10:06:26Z</time>
      </trkpt>
      <trkpt lat="44.177450" lon="9.605234">
        <ele>108.982468</ele>
        <time>2018-08-09T10:06:42Z</time>
      </trkpt>
      <trkpt lat="44.178318" lon="9.605047">
        <ele>120.011902</ele>
        <time>2018-08-09T10:06:57Z</time>
      </trkpt>
      <trkpt lat="44.178431" lon="9.602208">
        <ele>139.076218</ele>
        <time>2018-08-09T10:07:13Z</time>
      </trkpt>
      <trkpt lat="44.178610" lon="9.600095">
        <ele>144.155045</ele>
        <time>2018-08-09T10:07:29Z</time>
      </trkpt>
      <trkpt lat="44.178498" lon="9.598670">
        <ele>163.369614</ele>
        <time>2018-08-09T10:07:44Z</time>
      </trkpt>
      <trkpt lat="44.177542" lon="9.598108">
        <ele>165.198746</ele>
        <time>2018-08-09T10:08:00Z</time>
      </trkpt>
      <trkpt lat="44.178938" lon="9.596868">
        <ele>184.920105</ele>
        <time>2018-08-09T10:08:16Z</time>
      </trkpt>
      <trkpt lat="44.179703" lon="9.595418">
        <ele>203.008087</ele>
        <time>2018-08-09T10:08:31Z</time>
      </trkpt>
      <trkpt lat="44.180767" lon="9.593483">
        <ele>219.559769</ele>
        <time>2018-08-09T10:08:47Z</time>
      </trkpt>
      <trkpt lat="44.182052" lon="9.592447">
        <ele>232.774887</ele>
        <time>2018-08-09T10:09:02Z</time>
      </trkpt>
      <trkpt lat="44.183314" lon="9.590998">
        <ele>235.554611</ele>
        <time>2018-08-09T10:09:17Z</time>
      </trkpt>
      <trkpt lat="44.184560" lon="9.592363">
        <ele>263.434204</ele>
        <time>2018-08-09T10:09:33Z</time>
      </trkpt>
      <trkpt lat="44.185866" lon="9.593608">
        <ele>274.284485</ele>
        <time>2018-08-09T10:09:49Z</time>
      </trkpt>
      <trkpt lat="44.187186" lon="9.594028">
        <ele>284.629181</ele>
        <time>2018-08-09T10:10:05Z</time>
      </trkpt>
      <trkpt lat="44.188241" lon="9.595791">
        <ele>300.356842</ele>
        <time>2018-08-09T10:10:21Z</time>
      </trkpt>
      <trkpt lat="44.189137" lon="9.596365">
        <ele>306.116058</ele>
        <time>2018-08-09T10:10:37Z</time>
      </trkpt>
      <trkpt lat="44.190462" lon="9.596515">
        <ele>323.598999</ele>
        <time>2018-08-09T10:10:52Z</time>
      </trkpt>
      <trkpt lat="44.191884" lon="9.597457">
        <ele>344.767639</ele>
        <time>2018-08-09T10:11:07Z</time>
      </trkpt>
      <trkpt lat="44.192182" lon="9.596119">
        <ele>340.949127</ele>
        <time>2018-08-09T10:11:22Z</time>
      </trkpt>
      <trkpt lat="44.192247" lon="9.596683">
        <ele>350.669952</ele>
        <time>2018-08-09T10:11:38Z</time>
      </trkpt>
      <trkpt lat="44.193552" lon="9.595236">
        <ele>378.850311</ele>
        <time>2018-08-09T10:11:54Z</time>
      </trkpt>
      <trkpt lat="44.192080" lon="9.594343">
        <ele>369.218628</ele>
        <time>2018-08-09T10:12:09Z</time>
      </trkpt>
      <trkpt lat="44.192065" lon="9.592443">
        <ele>387.416504</ele>
        <time>2018-08-09T10:12:25Z</time>
      </trkpt>
      <trkpt lat="44.193449" lon="9.591211">
        <ele>399.812042</ele>
        <time>2018-08-09T10:12:40Z</time>
      </trkpt>
      <trkpt lat="44.195306" lon="9.591874">
        <ele>421.707336</ele>
        <time>2018-08-09T10:12:56Z</time>
      </trkpt>
      <trkpt lat="44.196178" lon="9.591753">
        <ele>427.123138</ele>
        <time>2018-08-09T10:13:11Z</time>
      </trkpt>
      <trkpt lat="44.197470" lon="9.590983">
        <ele>436.112091</ele>
        <time>2018-08-09T10:13:26Z</time>
      </trkpt>
      <trkpt lat="44.198876" lon="9.589894">
        <ele>443.056213</ele>
        <time>2018-08-09T10:13:42Z</time>
      </trkpt>
      <trkpt lat="44.200002" lon="9.591498">
        <ele>476.945251</ele>
        <time>2018-08-09T10:13:58Z</time>
      </trkpt>
      <trkpt lat="44.201451" lon="9.592233">
        <ele>487.900818</ele>
        <time>2018-08-09T10:14:14Z</time>
      </trkpt>
      <trkpt lat="44.202069" lon="9.593954">
        <ele>510.588409</ele>
        <time>2018-08-09T10:14:30Z</time>
      </trkpt>
      <trkpt lat="44.202691" lon="9.594642">
        <ele>521.533447</ele>
        <time>2018-08-09T10:14:45Z</time>
      </trkpt>
      <trkpt lat="44.203637" lon="9.594619">
        <ele>536.986694</ele>
        <time>2018-08-09T10:15:01Z</time>
      </trkpt>
      <trkpt lat="44.204069" lon="9.593588">
        <ele>543.818665</ele>
        <time>2018-08-09T10:15:17Z</time>
      </trkpt>
      <trkpt lat="44.204077" lon="9.592223">
        <ele>539.388184</ele>
        <time>2018-08-09T10:15:32Z</time>
      </trkpt>
      <trkpt lat="44.205042" lon="9.591236">
        <ele>549.663330</ele>
        <time>2018-08-09T10:15:48Z</time>
      </trkpt>
      <trkpt lat="44.205451" lon="9.592000">
        <ele>560.664551</ele>
        <time>2018-08-09T10:16:03Z</time>
      </trkpt>
      <trkpt lat="44.206317" lon="9.590879">
        <ele>568.520020</ele>
        <time>2018-08-09T10:16:19Z</time>
      </trkpt>
      <trkpt lat="44.208243" lon="9.591259">
        <ele>583.674927</ele>
        <time>2018-08-09T10:16:34Z</time>
      </trkpt>
      <trkpt lat="44.209043" lon="9.591376">
        <ele>588.906921</ele>
        <time>2018-08-09T10:16:50Z</time>
      </trkpt>
      <trkpt lat="44.209956" lon="9.590817">
        <ele>598.353760</ele>
        <time>2018-08-09T10:17:05Z</time>
      </trkpt>
      <trkpt lat="44.209038" lon="9.588875">
        <ele>595.571533</ele>
        <time>2018-08-09T10:17:21Z</time>
      </trkpt>
      <trkpt lat="44.209860" lon="9.587952">
        <ele>610.063049</ele>
        <time>2018-08-09T10:17:36Z</time>
      </trkpt>
      <trkpt lat="44.211270" lon="9.587957">
        <ele>620.131226</ele>
        <time>2018-08-09T10:17:52Z</time>
      </trkpt>
      <trkpt lat="44.211991" lon="9.586839">
        <ele>622.659729</ele>
        <time>2018-08-09T10:18:07Z</time>
      </trkpt>
      <trkpt lat="44.212406" lon="9.584872">
        <ele>619.313232</ele>
        <time>2018-08-09T10:18:22Z</time>
      </trkpt>
      <trkpt lat="44.213582" lon="9.583899">
        <ele>613.383728</ele>
        <time>2018-08-09T10:18:38Z</time>
      </trkpt>
      <trkpt lat="44.215224" lon="9.584272">
        <ele>606.448242</ele>
        <time>2018-08-09T10:18:53Z</time>
      </trkpt>
      <trkpt lat="44.216398" lon="9.585351">
        <ele>609.129883</ele>
        <time>2018-08-09T10:19:09Z</time>
      </trkpt>
      <trkpt lat="44.217733" lon="9.586492">
        <ele>600.965759</ele>
        <time>2018-08-09T10:19:25Z</time>
      </trkpt>
      <trkpt lat="44.217969" lon="9.588175">
        <ele>616.270874</ele>
        <time>2018-08-09T10:19:40Z</time>
      </trkpt>
      <trkpt lat="44.219225" lon="9.587751">
        <ele>593.577881</ele>
        <time>2018-08-09T10:19:56Z</time>
      </trkpt>
      <trkpt lat="44.220524" lon="9.588330">
        <ele>599.849976</ele>
        <time>2018-08-09T10:20:11Z</time>
      </trkpt>
      <trkpt lat="44.221736" lon="9.589683">
        <ele>600.884583</ele>
        <time>2018-08-09T10:20:26Z</time>
      </trkpt>
      <trkpt lat="44.222851" lon="9.591287">
        <ele>594.336487</ele>
        <time>2018-08-09T10:20:42Z</time>
      </trkpt>
      <trkpt lat="44.224655" lon="9.590717">
        <ele>600.107178</ele>
        <time>2018-08-09T10:20:57Z</time>
      </trkpt>
      <trkpt lat="44.226430" lon="9.590171">
        <ele>598.230469</ele>
        <time>2018-08-09T10:21:12Z</time>
      </trkpt>
      <trkpt lat="44.227536" lon="9.588652">
        <ele>585.777161</ele>
        <time>2018-08-09T10:21:28Z</time>
      </trkpt>
      <trkpt lat="44.228438" lon="9.589456">
        <ele>596.038879</ele>
        <time>2018-08-09T10:21:43Z</time>
      </trkpt>
      <trkpt lat="44.229490" lon="9.589370">
        <ele>598.766846</ele>
        <time>2018-08-09T10:21:58Z</time>
      </trkpt>
      <trkpt lat="44.230490" lon="9.587906">
        <ele>590.281006</ele>
        <time>2018-08-09T10:22:14Z</time>
      </trkpt>
      <trkpt lat="44.231656" lon="9.586525">
        <ele>589.924561</ele>
        <time>2018-08-09T10:22:30Z</time>
      </trkpt>
      <trkpt lat="44.233283" lon="9.586267">
        <ele>587.226929</ele>
        <time>2018-08-09T10:22:46Z</time>
      </trkpt>
      <trkpt lat="44.234493" lon="9.585331">
        <ele>572.100037</ele>
        <time>2018-08-09T10:23:02Z</time>
      </trkpt>
      <trkpt lat="44.234767" lon="9.583593">
        <ele>570.018982</ele>
        <time>2018-08-09T10:23:18Z</time>
      </trkpt>
      <trkpt lat="44.236062" lon="9.583436">
        <ele>568.704285</ele>
        <time>2018-08-09T10:23:33Z</time>
      </trkpt>
      <trkpt lat="44.237510" lon="9.583285">
        <ele>567.844727</ele>
        <time>2018-08-09T10:23:49Z</time>
      </trkpt>
      <trkpt lat="44.238611" lon="9.581590">
        <ele>583.948853</ele>
        <time>2018-08-09T10:24:05Z</time>
      </trkpt>
      <trkpt lat="44.239848" lon="9.582343">
        <ele>584.579773</ele>
        <time>2018-08-09T10:24:21Z</time>
      </trkpt>
      <trkpt lat="44.241217" lon="9.582986">
        <ele>582.329590</ele>
        <time>2018-08-09T10:24:36Z</time>
      </trkpt>
      <trkpt lat="44.243173" lon="9.582542">
        <ele>585.077026</ele>
        <time>2018-08-09T10:24:52Z</time>
      </trkpt>
      <trkpt lat="44.244596" lon="9.581492">
        <ele>592.948120</ele>
        <time>2018-08-09T10:25:08Z</time>
      </trkpt>
      <trkpt lat="44.244441" lon="9.580519">
        <ele>596.269531</ele>
        <time>2018-08-09T10:25:24Z</time>
      </trkpt>
      <trkpt lat="44.244767" lon="9.578312">
        <ele>593.575745</ele>
        <time>2018-08-09T10:25:39Z</time>
      </trkpt>
      <trkpt lat="44.246624" lon="9.577161">
        <ele>617.434082</ele>
        <time>2018-08-09T10:25:55Z</time>
      </trkpt>
      <trkpt lat="44.247944" lon="9.575021">
        <ele>610.592041</ele>
        <time>2018-08-09T10:26:10Z</time>
      </trkpt>
      <trkpt lat="44.248899" lon="9.572979">
        <ele>624.469849</ele>
        <time>2018-08-09T10:26:25Z</time>
      </trkpt>
      <trkpt lat="44.248908" lon="9.570990">
        <ele>620.724121</ele>
        <time>2018-08-09T10:26:40Z</time>
      </trkpt>
      <trkpt lat="44.249676" lon="9.568525">
        <ele>614.513428</ele>
        <time>2018-08-09T10:26:55Z</time>
      </trkpt>
      <trkpt lat="44.250849" lon="9.567977">
        <ele>622.230530</ele>
        <time>2018-08-09T10:27:11Z</time>
      </trkpt>
      <trkpt lat="44.252085" lon="9.566207">
        <ele>621.469971</ele>
        <time>2018-08-09T10:27:26Z</time>
      </trkpt>
      <trkpt lat="44.252095" lon="9.563154">
        <ele>612.915405</ele>
        <time>2018-08-09T10:27:42Z</time>
      </trkpt>
      <trkpt lat="44.252365" lon="9.560490">
        <ele>616.842834</ele>
        <time>2018-08-09T10:27:58Z</time>
      </trkpt>
      <trkpt lat="44.252907" lon="9.558295">
        <ele>617.826416</ele>
        <time>2018-08-09T10:28:14Z</time>
      </trkpt>
      <trkpt lat="44.253808" lon="9.555579">
        <ele>596.449219</ele>
        <time>2018-08-09T10:28:29Z</time>
      </trkpt>
      <trkpt lat="44.254391" lon="9.552293">
        <ele>578.359863</ele>
        <time>2018-08-09T10:28:45Z</time>
      </trkpt>
      <trkpt lat="44.255308" lon="9.549770">
        <ele>578.294617</ele>
        <time>2018-08-09T10:29:00Z</time>
      </trkpt>
      <trkpt lat="44.253867" lon="9.548024">
        <ele>566.163025</ele>
        <time>2018-08-09T10:29:15Z</time>
      </trkpt>
      <trkpt lat="44.254427" lon="9.545394">
        <ele>572.360413</ele>
        <time>2018-08-09T10:29:30Z</time>
      </trkpt>
      <trkpt lat="44.253634" lon="9.542531">
        <ele>556.826416</ele>
        <time>2018-08-09T10:29:45Z</time>
      </trkpt>
      <trkpt lat="44.254257" lon="9.539653">
        <ele>571.521301</ele>
        <time>2018-08-09T10:30:00Z</time>
      </trkpt>
      <trkpt lat="44.253394" lon="9.537340">
        <ele>555.436218</ele>
        <time>2018-08-09T10:30:15Z</time>
      </trkpt>
      <trkpt lat="44.253823" lon="9.534329">
        <ele>553.785950</ele>
        <time>2018-08-09T10:30:31Z</time>
      </trkpt>
      <trkpt lat="44.253268" lon="9.532108">
        <ele>569.612122</ele>
        <time>2018-08-09T10:30:46Z</time>
      </trkpt>
      <trkpt lat="44.253308" lon="9.530222">
        <ele>549.036011</ele>
        <time>2018-08-09T10:31:01Z</time>
      </trkpt>
      <trkpt lat="44.252555" lon="9.529067">
        <ele>537.458862</ele>
        <time>2018-08-09T10:31:17Z</time>
      </trkpt>
      <trkpt lat="44.254286" lon="9.528865">
        <ele>522.008484</ele>
        <time>2018-08-09T10:31:33Z</time>
      </trkpt>
      <trkpt lat="44.255749" lon="9.526353">
        <ele>495.033447</ele>
        <time>2018-08-09T10:31:49Z</time>
      </trkpt>
      <trkpt lat="44.256554" lon="9.523445">
        <ele>473.670776</ele>
        <time>2018-08-09T10:32:05Z</time>
      </trkpt>
      <trkpt lat="44.257358" lon="9.520532">
        <ele>447.376617</ele>
        <time>2018-08-09T10:32:20Z</time>
      </trkpt>
      <trkpt lat="44.257888" lon="9.517299">
        <ele>427.867737</ele>
        <time>2018-08-09T10:32:36Z</time>
      </trkpt>
      <trkpt lat="44.257471" lon="9.514406">
        <ele>420.691711</ele>
        <time>2018-08-09T10:32:51Z</time>
      </trkpt>
      <trkpt lat="44.257378" lon="9.512313">
        <ele>409.842651</ele>
        <time>2018-08-09T10:33:06Z</time>
      </trkpt>
      <trkpt lat="44.258087" lon="9.509630">
        <ele>399.299957</ele>
        <time>2018-08-09T10:33:21Z</time>
      </trkpt>
      <trkpt lat="44.259116" lon="9.507042">
        <ele>401.110931</ele>
        <time>2018-08-09T10:33:37Z</time>
      </trkpt>
      <trkpt lat="44.259068" lon="9.504495">
        <ele>391.622925</ele>
        <time>2018-08-09T10:33:52Z</time>
      </trkpt>
      <trkpt lat="44.257299" lon="9.502402">
        <ele>368.838623</ele>
        <time>2018-08-09T10:34:08Z</time>
      </trkpt>
      <trkpt lat="44.257662" lon="9.499823">
        <ele>354.761841</ele>
        <time>2018-08-09T10:34:24Z</time>
      </trkpt>
      <trkpt lat="44.257642" lon="9.496927">
        <ele>336.018372</ele>
        <time>2018-08-09T10:34:39Z</time>
      </trkpt>
      <trkpt lat="44.257706" lon="9.493555">
        <ele>325.578247</ele>
        <time>2018-08-09T10:34:55Z</time>
      </trkpt>
      <trkpt lat="44.257616" lon="9.490619">
        <ele>311.375122</ele>
        <time>2018-08-09T10:35:11Z</time>
      </trkpt>
      <trkpt lat="44.257096" lon="9.487791">
        <ele>288.151733</ele>
        <time>2018-08-09T10:35:27Z</time>
      </trkpt>
      <trkpt lat="44.256636" lon="9.485568">
        <ele>284.590332</ele>
        <time>2018-08-09T10:35:42Z</time>
      </trkpt>
      <trkpt lat="44.256108" lon="9.482718">
        <ele>291.903503</ele>
        <time>2018-08-09T10:35:57Z</time>
      </trkpt>
      <trkpt lat="44.254640" lon="9.480878">
        <ele>289.979828</ele>
        <time>2018-08-09T10:36:12Z</time>
      </trkpt>
      <trkpt lat="44.255200" lon="9.478237">
        <ele>294.067261</ele>
        <time>2018-08-09T10:36:27Z</time>
      </trkpt>
      <trkpt lat="44.255833" lon="9.475735">
        <ele>309.176758</ele>
        <time>2018-08-09T10:36:43Z</time>
      </trkpt>
      <trkpt lat="44.256554" lon="9.474142">
        <ele>299.837952</ele>
        <time>2018-08-09T10:36:58Z</time>
      </trkpt>
      <trkpt lat="44.257459" lon="9.473285">
        <ele>299.497650</ele>
        <time>2018-08-09T10:37:14Z</time>
      </trkpt>
      <trkpt lat="44.258023" lon="9.471247">
        <ele>285.243439</ele>
        <time>2018-08-09T10:37:30Z</time>
      </trkpt>
      <trkpt lat="44.256671" lon="9.469167">
        <ele>312.793945</ele>
        <time>2018-08-09T10:37:45Z</time>
      </trkpt>
      <trkpt lat="44.256633" lon="9.467348">
        <ele>291.800873</ele>
        <time>2018-08-09T10:38:01Z</time>
      </trkpt>
      <trkpt lat="44.256807" lon="9.465139">
        <ele>261.518677</ele>
        <time>2018-08-09T10:38:17Z</time>
      </trkpt>
      <trkpt lat="44.255931" lon="9.463080">
        <ele>284.200073</ele>
        <time>2018-08-09T10:38:32Z</time>
      </trkpt>
      <trkpt lat="44.257300" lon="9.462118">
        <ele>285.948914</ele>
        <time>2018-08-09T10:38:48Z</time>
      </trkpt>
      <trkpt lat="44.258913" lon="9.462945">
        <ele>248.915085</ele>
        <time>2018-08-09T10:39:03Z</time>
      </trkpt>
      <trkpt lat="44.258502" lon="9.460670">
        <ele>266.026825</ele>
        <time>2018-08-09T10:39:19Z</time>
      </trkpt>
      <trkpt lat="44.259603" lon="9.459272">
        <ele>241.057053</ele>
        <time>2018-08-09T10:39:35Z</time>
      </trkpt>
      <trkpt lat="44.260104" lon="9.457267">
        <ele>246.182968</ele>
        <time>2018-08-09T10:39:51Z</time>
      </trkpt>
      <trkpt lat="44.259881" lon="9.455159">
        <ele>244.800995</ele>
        <time>2018-08-09T10:40:06Z</time>
      </trkpt>
      <trkpt lat="44.259952" lon="9.452644">
        <ele>233.727325</ele>
        <time>2018-08-09T10:40:21Z</time>
      </trkpt>
      <trkpt lat="44.261151" lon="9.451043">
        <ele>206.348511</ele>
        <time>2018-08-09T10:40:37Z</time>
      </trkpt>
      <trkpt lat="44.261756" lon="9.448174">
        <ele>195.040375</ele>
        <time>2018-08-09T10:40:53Z</time>
      </trkpt>
      <trkpt lat="44.263377" lon="9.446895">
        <ele>177.645035</ele>
        <time>2018-08-09T10:41:09Z</time>
      </trkpt>
      <trkpt lat="44.262294" lon="9.445952">
        <ele>175.499069</ele>
        <time>2018-08-09T10:41:24Z</time>
      </trkpt>
      <trkpt lat="44.260602" lon="9.446131">
        <ele>166.768021</ele>
        <time>2018-08-09T10:41:39Z</time>
      </trkpt>
      <trkpt lat="44.260929" lon="9.444871">
        <ele>155.791809</ele>
        <time>2018-08-09T10:41:55Z</time>
      </trkpt>
      <trkpt lat="44.262185" lon="9.443639">
        <ele>134.725586</ele>
        <time>2018-08-09T10:42:11Z</time>
      </trkpt>
      <trkpt lat="44.263265" lon="9.441927">
        <ele>116.637604</ele>
        <time>2018-08-09T10:42:27Z</time>
      </trkpt>
      <trkpt lat="44.264828" lon="9.440522">
        <ele>98.342606</ele>
        <time>2018-08-09T10:42:43Z</time>
      </trkpt>
      <trkpt lat="44.264840" lon="9.438592">
        <ele>85.472702</ele>
        <time>2018-08-09T10:42:58Z</time>
      </trkpt>
      <trkpt lat="44.265187" lon="9.436477">
        <ele>75.582886</ele>
        <time>2018-08-09T10:43:13Z</time>
      </trkpt>
      <trkpt lat="44.265590" lon="9.433856">
        <ele>58.784622</ele>
        <time>2018-08-09T10:43:29Z</time>
      </trkpt>
      <trkpt lat="44.265063" lon="9.432093">
        <ele>42.340179</ele>
        <time>2018-08-09T10:43:44Z</time>
      </trkpt>
      <trkpt lat="44.264575" lon="9.430312">
        <ele>32.078461</ele>
        <time>2018-08-09T10:44:00Z</time>
      </trkpt>
      <trkpt lat="44.265156" lon="9.429036">
        <ele>25.992683</ele>
        <time>2018-08-09T10:44:15Z</time>
      </trkpt>
      <trkpt lat="44.265990" lon="9.427310">
        <ele>17.193146</ele>
        <time>2018-08-09T10:44:31Z</time>
      </trkpt>
      <trkpt lat="44.266854" lon="9.425491">
        <ele>11.045502</ele>
        <time>2018-08-09T10:44:47Z</time>
      </trkpt>
      <trkpt lat="44.268021" lon="9.425222">
        <ele>13.552544</ele>
        <time>2018-08-09T10:45:02Z</time>
      </trkpt>
      <trkpt lat="44.269290" lon="9.425725">
        <ele>11.240000</ele>
        <time>2018-08-09T10:45:18Z</time>
      </trkpt>
      <trkpt lat="44.269765" lon="9.425044">
        <ele>11.305223</ele>
        <time>2018-08-09T10:45:33Z</time>
      </trkpt>
      <trkpt lat="44.269896" lon="9.424731">
        <ele>11.407822</ele>
        <time>2018-08-09T10:46:46Z</time>
      </trkpt>
      <trkpt lat="44.269822" lon="9.424897">
        <ele>11.311072</ele>
        <time>2018-08-09T10:48:08Z</time>
      </trkpt>
      <trkpt lat="44.269827" lon="9.424700">
        <ele>11.493442</ele>
        <time>2018-08-09T11:20:33Z</time>
      </trkpt>
      <trkpt lat="44.270020" lon="9.424132">
        <ele>12.022635</ele>
        <time>2018-08-09T11:20:51Z</time>
      </trkpt>
      <trkpt lat="44.270381" lon="9.423106">
        <ele>11.875519</ele>
        <time>2018-08-09T11:21:07Z</time>
      </trkpt>
      <trkpt lat="44.270925" lon="9.421658">
        <ele>11.666368</ele>
        <time>2018-08-09T11:21:23Z</time>
      </trkpt>
      <trkpt lat="44.271612" lon="9.420136">
        <ele>11.272837</ele>
        <time>2018-08-09T11:21:38Z</time>
      </trkpt>
      <trkpt lat="44.270957" lon="9.418872">
        <ele>11.545055</ele>
        <time>2018-08-09T11:21:54Z</time>
      </trkpt>
      <trkpt lat="44.270039" lon="9.417384">
        <ele>9.046600</ele>
        <time>2018-08-09T11:22:10Z</time>
      </trkpt>
      <trkpt lat="44.270569" lon="9.415728">
        <ele>8.317627</ele>
        <time>2018-08-09T11:22:25Z</time>
      </trkpt>
      <trkpt lat="44.271192" lon="9.413859">
        <ele>10.027178</ele>
        <time>2018-08-09T11:22:40Z</time>
      </trkpt>
      <trkpt lat="44.271816" lon="9.412023">
        <ele>9.420161</ele>
        <time>2018-08-09T11:22:55Z</time>
      </trkpt>
      <trkpt lat="44.272278" lon="9.410650">
        <ele>7.636508</ele>
        <time>2018-08-09T11:23:11Z</time>
      </trkpt>
      <trkpt lat="44.272555" lon="9.409774">
        <ele>7.982157</ele>
        <time>2018-08-09T11:23:27Z</time>
      </trkpt>
      <trkpt lat="44.273052" lon="9.408291">
        <ele>8.016665</ele>
        <time>2018-08-09T11:23:43Z</time>
      </trkpt>
      <trkpt lat="44.273722" lon="9.406403">
        <ele>8.768372</ele>
        <time>2018-08-09T11:23:58Z</time>
      </trkpt>
      <trkpt lat="44.274275" lon="9.404470">
        <ele>5.493805</ele>
        <time>2018-08-09T11:24:13Z</time>
      </trkpt>
      <trkpt lat="44.274338" lon="9.402378">
        <ele>5.910663</ele>
        <time>2018-08-09T11:24:29Z</time>
      </trkpt>
      <trkpt lat="44.274052" lon="9.400947">
        <ele>6.412170</ele>
        <time>2018-08-09T11:24:44Z</time>
      </trkpt>
      <trkpt lat="44.273707" lon="9.399716">
        <ele>5.928213</ele>
        <time>2018-08-09T11:25:00Z</time>
      </trkpt>
      <trkpt lat="44.273347" lon="9.398397">
        <ele>7.057378</ele>
        <time>2018-08-09T11:25:15Z</time>
      </trkpt>
      <trkpt lat="44.273136" lon="9.397032">
        <ele>6.985623</ele>
        <time>2018-08-09T11:25:31Z</time>
      </trkpt>
      <trkpt lat="44.273852" lon="9.396386">
        <ele>5.876987</ele>
        <time>2018-08-09T11:25:46Z</time>
      </trkpt>
      <trkpt lat="44.274555" lon="9.395818">
        <ele>7.379486</ele>
        <time>2018-08-09T11:26:01Z</time>
      </trkpt>
      <trkpt lat="44.275539" lon="9.395059">
        <ele>7.979295</ele>
        <time>2018-08-09T11:26:16Z</time>
      </trkpt>
      <trkpt lat="44.276890" lon="9.394080">
        <ele>7.293016</ele>
        <time>2018-08-09T11:26:32Z</time>
      </trkpt>
      <trkpt lat="44.278194" lon="9.393133">
        <ele>7.341404</ele>
        <time>2018-08-09T11:26:47Z</time>
      </trkpt>
      <trkpt lat="44.279587" lon="9.392106">
        <ele>3.624461</ele>
        <time>2018-08-09T11:27:03Z</time>
      </trkpt>
      <trkpt lat="44.280831" lon="9.391095">
        <ele>4.630355</ele>
        <time>2018-08-09T11:27:18Z</time>
      </trkpt>
      <trkpt lat="44.282011" lon="9.389253">
        <ele>22.262291</ele>
        <time>2018-08-09T11:27:34Z</time>
      </trkpt>
      <trkpt lat="44.283087" lon="9.387838">
        <ele>47.110588</ele>
        <time>2018-08-09T11:27:50Z</time>
      </trkpt>
      <trkpt lat="44.283909" lon="9.386803">
        <ele>60.079140</ele>
        <time>2018-08-09T11:28:05Z</time>
      </trkpt>
      <trkpt lat="44.285328" lon="9.383906">
        <ele>34.652584</ele>
        <time>2018-08-09T11:28:20Z</time>
      </trkpt>
      <trkpt lat="44.286309" lon="9.381795">
        <ele>28.994240</ele>
        <time>2018-08-09T11:28:36Z</time>
      </trkpt>
      <trkpt lat="44.288075" lon="9.381237">
        <ele>20.994232</ele>
        <time>2018-08-09T11:28:52Z</time>
      </trkpt>
      <trkpt lat="44.289208" lon="9.379773">
        <ele>6.395765</ele>
        <time>2018-08-09T11:29:08Z</time>
      </trkpt>
      <trkpt lat="44.290401" lon="9.378023">
        <ele>9.328249</ele>
        <time>2018-08-09T11:29:23Z</time>
      </trkpt>
      <trkpt lat="44.291744" lon="9.376328">
        <ele>15.923126</ele>
        <time>2018-08-09T11:29:38Z</time>
      </trkpt>
      <trkpt lat="44.292568" lon="9.374815">
        <ele>14.381444</ele>
        <time>2018-08-09T11:29:53Z</time>
      </trkpt>
      <trkpt lat="44.293557" lon="9.373058">
        <ele>8.754599</ele>
        <time>2018-08-09T11:30:09Z</time>
      </trkpt>
      <trkpt lat="44.294583" lon="9.371177">
        <ele>7.759662</ele>
        <time>2018-08-09T11:30:25Z</time>
      </trkpt>
      <trkpt lat="44.295427" lon="9.369489">
        <ele>4.806453</ele>
        <time>2018-08-09T11:30:41Z</time>
      </trkpt>
      <trkpt lat="44.296013" lon="9.368275">
        <ele>5.489131</ele>
        <time>2018-08-09T11:30:56Z</time>
      </trkpt>
      <trkpt lat="44.296698" lon="9.366896">
        <ele>5.805089</ele>
        <time>2018-08-09T11:31:12Z</time>
      </trkpt>
      <trkpt lat="44.297297" lon="9.365663">
        <ele>4.000000</ele>
        <time>2018-08-09T11:31:27Z</time>
      </trkpt>
      <trkpt lat="44.298143" lon="9.363886">
        <ele>4.766020</ele>
        <time>2018-08-09T11:31:42Z</time>
      </trkpt>
      <trkpt lat="44.298948" lon="9.362147">
        <ele>4.618918</ele>
        <time>2018-08-09T11:31:58Z</time>
      </trkpt>
      <trkpt lat="44.299907" lon="9.359984">
        <ele>2.982950</ele>
        <time>2018-08-09T11:32:14Z</time>
      </trkpt>
      <trkpt lat="44.300401" lon="9.358783">
        <ele>4.714304</ele>
        <time>2018-08-09T11:32:30Z</time>
      </trkpt>
      <trkpt lat="44.301398" lon="9.356542">
        <ele>5.797684</ele>
        <time>2018-08-09T11:32:46Z</time>
      </trkpt>
      <trkpt lat="44.302414" lon="9.354181">
        <ele>4.347029</ele>
        <time>2018-08-09T11:33:02Z</time>
      </trkpt>
      <trkpt lat="44.303453" lon="9.351741">
        <ele>1.597234</ele>
        <time>2018-08-09T11:33:18Z</time>
      </trkpt>
      <trkpt lat="44.304700" lon="9.349364">
        <ele>4.966461</ele>
        <time>2018-08-09T11:33:33Z</time>
      </trkpt>
      <trkpt lat="44.305803" lon="9.346913">
        <ele>6.124473</ele>
        <time>2018-08-09T11:33:49Z</time>
      </trkpt>
      <trkpt lat="44.306130" lon="9.345944">
        <ele>5.796655</ele>
        <time>2018-08-09T11:34:05Z</time>
      </trkpt>
      <trkpt lat="44.306840" lon="9.344278">
        <ele>4.369520</ele>
        <time>2018-08-09T11:34:20Z</time>
      </trkpt>
      <trkpt lat="44.307835" lon="9.343142">
        <ele>6.000000</ele>
        <time>2018-08-09T11:34:36Z</time>
      </trkpt>
      <trkpt lat="44.308911" lon="9.344101">
        <ele>5.890309</ele>
        <time>2018-08-09T11:34:51Z</time>
      </trkpt>
      <trkpt lat="44.309509" lon="9.344662">
        <ele>6.825224</ele>
        <time>2018-08-09T11:35:06Z</time>
      </trkpt>
      <trkpt lat="44.310568" lon="9.345623">
        <ele>7.415442</ele>
        <time>2018-08-09T11:35:22Z</time>
      </trkpt>
      <trkpt lat="44.312038" lon="9.346033">
        <ele>6.389811</ele>
        <time>2018-08-09T11:35:37Z</time>
      </trkpt>
      <trkpt lat="44.313512" lon="9.345698">
        <ele>4.732830</ele>
        <time>2018-08-09T11:35:53Z</time>
      </trkpt>
      <trkpt lat="44.313952" lon="9.345611">
        <ele>4.138539</ele>
        <time>2018-08-09T11:36:08Z</time>
      </trkpt>
      <trkpt lat="44.315356" lon="9.345327">
        <ele>4.030457</ele>
        <time>2018-08-09T11:36:24Z</time>
      </trkpt>
      <trkpt lat="44.316681" lon="9.345782">
        <ele>9.702927</ele>
        <time>2018-08-09T11:36:39Z</time>
      </trkpt>
      <trkpt lat="44.317283" lon="9.345228">
        <ele>5.950695</ele>
        <time>2018-08-09T11:36:55Z</time>
      </trkpt>
      <trkpt lat="44.317732" lon="9.343674">
        <ele>4.295238</ele>
        <time>2018-08-09T11:37:10Z</time>
      </trkpt>
      <trkpt lat="44.318268" lon="9.342532">
        <ele>4.696671</ele>
        <time>2018-08-09T11:37:26Z</time>
      </trkpt>
      <trkpt lat="44.318865" lon="9.340908">
        <ele>7.967793</ele>
        <time>2018-08-09T11:37:42Z</time>
      </trkpt>
      <trkpt lat="44.319990" lon="9.341259">
        <ele>10.438161</ele>
        <time>2018-08-09T11:37:58Z</time>
      </trkpt>
      <trkpt lat="44.321433" lon="9.342559">
        <ele>7.106122</ele>
        <time>2018-08-09T11:38:14Z</time>
      </trkpt>
      <trkpt lat="44.322968" lon="9.343855">
        <ele>17.021219</ele>
        <time>2018-08-09T11:38:29Z</time>
      </trkpt>
      <trkpt lat="44.324785" lon="9.344720">
        <ele>18.322266</ele>
        <time>2018-08-09T11:38:45Z</time>
      </trkpt>
      <trkpt lat="44.326976" lon="9.345745">
        <ele>11.864233</ele>
        <time>2018-08-09T11:39:01Z</time>
      </trkpt>
      <trkpt lat="44.328761" lon="9.345854">
        <ele>10.387028</ele>
        <time>2018-08-09T11:39:16Z</time>
      </trkpt>
      <trkpt lat="44.330740" lon="9.345421">
        <ele>18.115366</ele>
        <time>2018-08-09T11:39:32Z</time>
      </trkpt>
      <trkpt lat="44.332762" lon="9.345592">
        <ele>16.151344</ele>
        <time>2018-08-09T11:39:47Z</time>
      </trkpt>
      <trkpt lat="44.334479" lon="9.346131">
        <ele>13.008512</ele>
        <time>2018-08-09T11:40:03Z</time>
      </trkpt>
      <trkpt lat="44.336079" lon="9.347733">
        <ele>13.275007</ele>
        <time>2018-08-09T11:40:18Z</time>
      </trkpt>
      <trkpt lat="44.338233" lon="9.348681">
        <ele>19.426908</ele>
        <time>2018-08-09T11:40:34Z</time>
      </trkpt>
      <trkpt lat="44.340206" lon="9.349448">
        <ele>19.762394</ele>
        <time>2018-08-09T11:40:49Z</time>
      </trkpt>
      <trkpt lat="44.341401" lon="9.349511">
        <ele>23.771599</ele>
        <time>2018-08-09T11:41:05Z</time>
      </trkpt>
      <trkpt lat="44.341905" lon="9.349349">
        <ele>27.975304</ele>
        <time>2018-08-09T11:41:20Z</time>
      </trkpt>
      <trkpt lat="44.343379" lon="9.349998">
        <ele>39.624855</ele>
        <time>2018-08-09T11:41:36Z</time>
      </trkpt>
      <trkpt lat="44.345005" lon="9.349098">
        <ele>29.606695</ele>
        <time>2018-08-09T11:41:52Z</time>
      </trkpt>
      <trkpt lat="44.346695" lon="9.348202">
        <ele>20.068176</ele>
        <time>2018-08-09T11:42:08Z</time>
      </trkpt>
      <trkpt lat="44.348399" lon="9.347809">
        <ele>21.495552</ele>
        <time>2018-08-09T11:42:24Z</time>
      </trkpt>
      <trkpt lat="44.349866" lon="9.346926">
        <ele>26.604523</ele>
        <time>2018-08-09T11:42:39Z</time>
      </trkpt>
      <trkpt lat="44.350083" lon="9.344304">
        <ele>26.628750</ele>
        <time>2018-08-09T11:42:55Z</time>
      </trkpt>
      <trkpt lat="44.351102" lon="9.342929">
        <ele>26.671101</ele>
        <time>2018-08-09T11:43:11Z</time>
      </trkpt>
      <trkpt lat="44.351996" lon="9.343651">
        <ele>27.757029</ele>
        <time>2018-08-09T11:43:27Z</time>
      </trkpt>
      <trkpt lat="44.352868" lon="9.343426">
        <ele>26.490711</ele>
        <time>2018-08-09T11:43:42Z</time>
      </trkpt>
      <trkpt lat="44.354733" lon="9.343148">
        <ele>29.616734</ele>
        <time>2018-08-09T11:43:57Z</time>
      </trkpt>
      <trkpt lat="44.356996" lon="9.343285">
        <ele>36.577137</ele>
        <time>2018-08-09T11:44:12Z</time>
      </trkpt>
      <trkpt lat="44.359756" lon="9.344049">
        <ele>48.429184</ele>
        <time>2018-08-09T11:44:28Z</time>
      </trkpt>
      <trkpt lat="44.361796" lon="9.343037">
        <ele>43.626183</ele>
        <time>2018-08-09T11:44:44Z</time>
      </trkpt>
      <trkpt lat="44.362227" lon="9.340715">
        <ele>38.845238</ele>
        <time>2018-08-09T11:45:00Z</time>
      </trkpt>
      <trkpt lat="44.361912" lon="9.338305">
        <ele>46.281128</ele>
        <time>2018-08-09T11:45:15Z</time>
      </trkpt>
      <trkpt lat="44.361795" lon="9.335763">
        <ele>40.822475</ele>
        <time>2018-08-09T11:45:30Z</time>
      </trkpt>
      <trkpt lat="44.363921" lon="9.334716">
        <ele>39.270142</ele>
        <time>2018-08-09T11:45:45Z</time>
      </trkpt>
      <trkpt lat="44.365819" lon="9.333460">
        <ele>49.950134</ele>
        <time>2018-08-09T11:46:01Z</time>
      </trkpt>
      <trkpt lat="44.366470" lon="9.331099">
        <ele>37.643250</ele>
        <time>2018-08-09T11:46:16Z</time>
      </trkpt>
      <trkpt lat="44.366553" lon="9.328661">
        <ele>39.538197</ele>
        <time>2018-08-09T11:46:32Z</time>
      </trkpt>
      <trkpt lat="44.365721" lon="9.326671">
        <ele>44.056931</ele>
        <time>2018-08-09T11:46:48Z</time>
      </trkpt>
      <trkpt lat="44.365216" lon="9.324211">
        <ele>48.738945</ele>
        <time>2018-08-09T11:47:04Z</time>
      </trkpt>
      <trkpt lat="44.365000" lon="9.321183">
        <ele>43.849300</ele>
        <time>2018-08-09T11:47:19Z</time>
      </trkpt>
      <trkpt lat="44.366452" lon="9.318517">
        <ele>44.851025</ele>
        <time>2018-08-09T11:47:35Z</time>
      </trkpt>
      <trkpt lat="44.368370" lon="9.316990">
        <ele>46.851440</ele>
        <time>2018-08-09T11:47:50Z</time>
      </trkpt>
      <trkpt lat="44.370344" lon="9.315637">
        <ele>55.320107</ele>
        <time>2018-08-09T11:48:06Z</time>
      </trkpt>
      <trkpt lat="44.371631" lon="9.312989">
        <ele>44.681969</ele>
        <time>2018-08-09T11:48:21Z</time>
      </trkpt>
      <trkpt lat="44.371811" lon="9.310783">
        <ele>50.920582</ele>
        <time>2018-08-09T11:48:37Z</time>
      </trkpt>
      <trkpt lat="44.370775" lon="9.308052">
        <ele>49.096394</ele>
        <time>2018-08-09T11:48:53Z</time>
      </trkpt>
      <trkpt lat="44.371103" lon="9.305374">
        <ele>53.733681</ele>
        <time>2018-08-09T11:49:08Z</time>
      </trkpt>
      <trkpt lat="44.373028" lon="9.303726">
        <ele>52.624146</ele>
        <time>2018-08-09T11:49:24Z</time>
      </trkpt>
      <trkpt lat="44.373962" lon="9.300628">
        <ele>50.448673</ele>
        <time>2018-08-09T11:49:40Z</time>
      </trkpt>
      <trkpt lat="44.374749" lon="9.297611">
        <ele>46.928017</ele>
        <time>2018-08-09T11:49:55Z</time>
      </trkpt>
      <trkpt lat="44.376195" lon="9.294562">
        <ele>53.980850</ele>
        <time>2018-08-09T11:50:10Z</time>
      </trkpt>
      <trkpt lat="44.377663" lon="9.291568">
        <ele>62.916550</ele>
        <time>2018-08-09T11:50:25Z</time>
      </trkpt>
      <trkpt lat="44.378932" lon="9.288864">
        <ele>55.077930</ele>
        <time>2018-08-09T11:50:40Z</time>
      </trkpt>
      <trkpt lat="44.380358" lon="9.287286">
        <ele>53.107605</ele>
        <time>2018-08-09T11:50:56Z</time>
      </trkpt>
      <trkpt lat="44.381980" lon="9.285882">
        <ele>53.652924</ele>
        <time>2018-08-09T11:51:12Z</time>
      </trkpt>
      <trkpt lat="44.383701" lon="9.284031">
        <ele>54.150734</ele>
        <time>2018-08-09T11:51:27Z</time>
      </trkpt>
      <trkpt lat="44.385445" lon="9.281779">
        <ele>53.815479</ele>
        <time>2018-08-09T11:51:43Z</time>
      </trkpt>
      <trkpt lat="44.387572" lon="9.280587">
        <ele>53.879005</ele>
        <time>2018-08-09T11:51:59Z</time>
      </trkpt>
      <trkpt lat="44.389333" lon="9.278378">
        <ele>59.024239</ele>
        <time>2018-08-09T11:52:15Z</time>
      </trkpt>
      <trkpt lat="44.390724" lon="9.275762">
        <ele>62.707436</ele>
        <time>2018-08-09T11:52:31Z</time>
      </trkpt>
      <trkpt lat="44.391819" lon="9.273042">
        <ele>69.164413</ele>
        <time>2018-08-09T11:52:47Z</time>
      </trkpt>
      <trkpt lat="44.393589" lon="9.271814">
        <ele>81.919868</ele>
        <time>2018-08-09T11:53:02Z</time>
      </trkpt>
      <trkpt lat="44.394469" lon="9.269045">
        <ele>79.523338</ele>
        <time>2018-08-09T11:53:18Z</time>
      </trkpt>
      <trkpt lat="44.394889" lon="9.265891">
        <ele>72.028641</ele>
        <time>2018-08-09T11:53:33Z</time>
      </trkpt>
      <trkpt lat="44.394553" lon="9.262443">
        <ele>74.350540</ele>
        <time>2018-08-09T11:53:49Z</time>
      </trkpt>
      <trkpt lat="44.395802" lon="9.259609">
        <ele>72.111931</ele>
        <time>2018-08-09T11:54:05Z</time>
      </trkpt>
      <trkpt lat="44.396806" lon="9.259233">
        <ele>71.252106</ele>
        <time>2018-08-09T11:54:21Z</time>
      </trkpt>
      <trkpt lat="44.397606" lon="9.259305">
        <ele>72.345695</ele>
        <time>2018-08-09T11:54:37Z</time>
      </trkpt>
      <trkpt lat="44.399664" lon="9.259497">
        <ele>81.261848</ele>
        <time>2018-08-09T11:54:52Z</time>
      </trkpt>
      <trkpt lat="44.401189" lon="9.257744">
        <ele>80.622292</ele>
        <time>2018-08-09T11:55:08Z</time>
      </trkpt>
      <trkpt lat="44.400751" lon="9.255308">
        <ele>74.347359</ele>
        <time>2018-08-09T11:55:23Z</time>
      </trkpt>
      <trkpt lat="44.401642" lon="9.252738">
        <ele>77.401741</ele>
        <time>2018-08-09T11:55:39Z</time>
      </trkpt>
      <trkpt lat="44.402359" lon="9.250715">
        <ele>73.726616</ele>
        <time>2018-08-09T11:55:55Z</time>
      </trkpt>
      <trkpt lat="44.403438" lon="9.247831">
        <ele>82.731354</ele>
        <time>2018-08-09T11:56:11Z</time>
      </trkpt>
      <trkpt lat="44.404474" lon="9.245161">
        <ele>85.796242</ele>
        <time>2018-08-09T11:56:26Z</time>
      </trkpt>
      <trkpt lat="44.405576" lon="9.242260">
        <ele>88.364319</ele>
        <time>2018-08-09T11:56:42Z</time>
      </trkpt>
      <trkpt lat="44.407461" lon="9.239777">
        <ele>94.034096</ele>
        <time>2018-08-09T11:56:58Z</time>
      </trkpt>
      <trkpt lat="44.409264" lon="9.237885">
        <ele>90.732803</ele>
        <time>2018-08-09T11:57:13Z</time>
      </trkpt>
      <trkpt lat="44.409926" lon="9.236144">
        <ele>85.526260</ele>
        <time>2018-08-09T11:57:28Z</time>
      </trkpt>
      <trkpt lat="44.410333" lon="9.235363">
        <ele>91.281731</ele>
        <time>2018-08-09T11:57:44Z</time>
      </trkpt>
      <trkpt lat="44.410998" lon="9.233033">
        <ele>89.826973</ele>
        <time>2018-08-09T11:57:59Z</time>
      </trkpt>
      <trkpt lat="44.411457" lon="9.230129">
        <ele>100.719131</ele>
        <time>2018-08-09T11:58:14Z</time>
      </trkpt>
      <trkpt lat="44.411434" lon="9.226726">
        <ele>100.813568</ele>
        <time>2018-08-09T11:58:30Z</time>
      </trkpt>
      <trkpt lat="44.412103" lon="9.224645">
        <ele>108.335663</ele>
        <time>2018-08-09T11:58:45Z</time>
      </trkpt>
      <trkpt lat="44.411829" lon="9.221535">
        <ele>107.277939</ele>
        <time>2018-08-09T11:59:01Z</time>
      </trkpt>
      <trkpt lat="44.412798" lon="9.219127">
        <ele>114.301315</ele>
        <time>2018-08-09T11:59:16Z</time>
      </trkpt>
      <trkpt lat="44.414943" lon="9.218316">
        <ele>111.862892</ele>
        <time>2018-08-09T11:59:32Z</time>
      </trkpt>
      <trkpt lat="44.416932" lon="9.218242">
        <ele>108.939407</ele>
        <time>2018-08-09T11:59:48Z</time>
      </trkpt>
      <trkpt lat="44.417515" lon="9.216095">
        <ele>121.271095</ele>
        <time>2018-08-09T12:00:03Z</time>
      </trkpt>
      <trkpt lat="44.418386" lon="9.212743">
        <ele>122.662308</ele>
        <time>2018-08-09T12:00:19Z</time>
      </trkpt>
      <trkpt lat="44.418956" lon="9.211498">
        <ele>124.914902</ele>
        <time>2018-08-09T12:00:43Z</time>
      </trkpt>
      <trkpt lat="44.419820" lon="9.209633">
        <ele>125.919594</ele>
        <time>2018-08-09T12:00:59Z</time>
      </trkpt>
      <trkpt lat="44.421019" lon="9.207380">
        <ele>124.221184</ele>
        <time>2018-08-09T12:01:14Z</time>
      </trkpt>
      <trkpt lat="44.422937" lon="9.205756">
        <ele>130.719055</ele>
        <time>2018-08-09T12:01:30Z</time>
      </trkpt>
      <trkpt lat="44.424250" lon="9.203976">
        <ele>126.215775</ele>
        <time>2018-08-09T12:01:45Z</time>
      </trkpt>
      <trkpt lat="44.423870" lon="9.201723">
        <ele>132.043457</ele>
        <time>2018-08-09T12:02:00Z</time>
      </trkpt>
      <trkpt lat="44.423340" lon="9.199934">
        <ele>131.141922</ele>
        <time>2018-08-09T12:02:15Z</time>
      </trkpt>
      <trkpt lat="44.424209" lon="9.198120">
        <ele>136.356583</ele>
        <time>2018-08-09T12:02:31Z</time>
      </trkpt>
      <trkpt lat="44.425385" lon="9.196273">
        <ele>146.258469</ele>
        <time>2018-08-09T12:02:47Z</time>
      </trkpt>
      <trkpt lat="44.424942" lon="9.193784">
        <ele>142.106155</ele>
        <time>2018-08-09T12:03:02Z</time>
      </trkpt>
      <trkpt lat="44.424952" lon="9.190915">
        <ele>142.272369</ele>
        <time>2018-08-09T12:03:18Z</time>
      </trkpt>
      <trkpt lat="44.426915" lon="9.190620">
        <ele>148.676697</ele>
        <time>2018-08-09T12:03:34Z</time>
      </trkpt>
      <trkpt lat="44.428576" lon="9.190841">
        <ele>150.570740</ele>
        <time>2018-08-09T12:03:50Z</time>
      </trkpt>
      <trkpt lat="44.429406" lon="9.189116">
        <ele>150.925995</ele>
        <time>2018-08-09T12:04:05Z</time>
      </trkpt>
      <trkpt lat="44.429336" lon="9.186893">
        <ele>148.255508</ele>
        <time>2018-08-09T12:04:21Z</time>
      </trkpt>
      <trkpt lat="44.429132" lon="9.185069">
        <ele>150.633636</ele>
        <time>2018-08-09T12:04:36Z</time>
      </trkpt>
      <trkpt lat="44.429365" lon="9.182973">
        <ele>156.329468</ele>
        <time>2018-08-09T12:04:52Z</time>
      </trkpt>
      <trkpt lat="44.430544" lon="9.181894">
        <ele>156.444534</ele>
        <time>2018-08-09T12:05:07Z</time>
      </trkpt>
      <trkpt lat="44.431167" lon="9.179957">
        <ele>162.370972</ele>
        <time>2018-08-09T12:05:22Z</time>
      </trkpt>
      <trkpt lat="44.432948" lon="9.178380">
        <ele>162.545303</ele>
        <time>2018-08-09T12:05:38Z</time>
      </trkpt>
      <trkpt lat="44.432913" lon="9.176124">
        <ele>163.963699</ele>
        <time>2018-08-09T12:05:54Z</time>
      </trkpt>
      <trkpt lat="44.433140" lon="9.174004">
        <ele>179.975937</ele>
        <time>2018-08-09T12:06:09Z</time>
      </trkpt>
      <trkpt lat="44.434345" lon="9.172685">
        <ele>184.339722</ele>
        <time>2018-08-09T12:06:25Z</time>
      </trkpt>
      <trkpt lat="44.434265" lon="9.169754">
        <ele>182.058304</ele>
        <time>2018-08-09T12:06:40Z</time>
      </trkpt>
      <trkpt lat="44.435222" lon="9.165660">
        <ele>181.733917</ele>
        <time>2018-08-09T12:06:56Z</time>
      </trkpt>
      <trkpt lat="44.436727" lon="9.162931">
        <ele>188.652359</ele>
        <time>2018-08-09T12:07:11Z</time>
      </trkpt>
      <trkpt lat="44.437115" lon="9.160522">
        <ele>196.543289</ele>
        <time>2018-08-09T12:07:26Z</time>
      </trkpt>
      <trkpt lat="44.437371" lon="9.158147">
        <ele>205.340118</ele>
        <time>2018-08-09T12:07:42Z</time>
      </trkpt>
      <trkpt lat="44.436470" lon="9.156166">
        <ele>195.543350</ele>
        <time>2018-08-09T12:07:58Z</time>
      </trkpt>
      <trkpt lat="44.437768" lon="9.155652">
        <ele>202.456726</ele>
        <time>2018-08-09T12:08:13Z</time>
      </trkpt>
      <trkpt lat="44.439506" lon="9.154882">
        <ele>207.110168</ele>
        <time>2018-08-09T12:08:29Z</time>
      </trkpt>
      <trkpt lat="44.439797" lon="9.153350">
        <ele>205.661652</ele>
        <time>2018-08-09T12:08:44Z</time>
      </trkpt>
      <trkpt lat="44.439601" lon="9.151218">
        <ele>218.444458</ele>
        <time>2018-08-09T12:09:00Z</time>
      </trkpt>
      <trkpt lat="44.439977" lon="9.148712">
        <ele>216.192230</ele>
        <time>2018-08-09T12:09:16Z</time>
      </trkpt>
      <trkpt lat="44.440404" lon="9.146539">
        <ele>228.995392</ele>
        <time>2018-08-09T12:09:32Z</time>
      </trkpt>
      <trkpt lat="44.439405" lon="9.144657">
        <ele>243.063828</ele>
        <time>2018-08-09T12:09:48Z</time>
      </trkpt>
      <trkpt lat="44.439942" lon="9.142861">
        <ele>236.232895</ele>
        <time>2018-08-09T12:10:04Z</time>
      </trkpt>
      <trkpt lat="44.441418" lon="9.141806">
        <ele>227.264969</ele>
        <time>2018-08-09T12:10:19Z</time>
      </trkpt>
      <trkpt lat="44.441428" lon="9.139876">
        <ele>241.413025</ele>
        <time>2018-08-09T12:10:34Z</time>
      </trkpt>
      <trkpt lat="44.441391" lon="9.137726">
        <ele>240.710175</ele>
        <time>2018-08-09T12:10:50Z</time>
      </trkpt>
      <trkpt lat="44.440010" lon="9.134229">
        <ele>262.384796</ele>
        <time>2018-08-09T12:11:05Z</time>
      </trkpt>
      <trkpt lat="44.438256" lon="9.130355">
        <ele>281.238342</ele>
        <time>2018-08-09T12:11:20Z</time>
      </trkpt>
      <trkpt lat="44.437387" lon="9.125089">
        <ele>312.093597</ele>
        <time>2018-08-09T12:11:36Z</time>
      </trkpt>
      <trkpt lat="44.436294" lon="9.120542">
        <ele>330.178741</ele>
        <time>2018-08-09T12:11:52Z</time>
      </trkpt>
      <trkpt lat="44.434379" lon="9.116858">
        <ele>344.867706</ele>
        <time>2018-08-09T12:12:08Z</time>
      </trkpt>
      <trkpt lat="44.440373" lon="9.146250">
        <ele>227.644501</ele>
        <time>2018-08-09T12:13:17Z</time>
      </trkpt>
      <trkpt lat="44.442088" lon="9.092355">
        <ele>387.421234</ele>
        <time>2018-08-09T12:13:44Z</time>
      </trkpt>
      <trkpt lat="44.442374" lon="9.090764">
        <ele>353.458801</ele>
        <time>2018-08-09T12:14:00Z</time>
      </trkpt>
      <trkpt lat="44.441937" lon="9.087792">
        <ele>349.880432</ele>
        <time>2018-08-09T12:14:16Z</time>
      </trkpt>
      <trkpt lat="44.440614" lon="9.084283">
        <ele>333.134094</ele>
        <time>2018-08-09T12:14:32Z</time>
      </trkpt>
      <trkpt lat="44.439048" lon="9.081965">
        <ele>314.650391</ele>
        <time>2018-08-09T12:14:47Z</time>
      </trkpt>
      <trkpt lat="44.438230" lon="9.079050">
        <ele>315.075745</ele>
        <time>2018-08-09T12:15:02Z</time>
      </trkpt>
      <trkpt lat="44.439016" lon="9.077035">
        <ele>317.335693</ele>
        <time>2018-08-09T12:15:17Z</time>
      </trkpt>
      <trkpt lat="44.440087" lon="9.075534">
        <ele>293.425232</ele>
        <time>2018-08-09T12:15:33Z</time>
      </trkpt>
      <trkpt lat="44.440173" lon="9.073393">
        <ele>301.895935</ele>
        <time>2018-08-09T12:15:48Z</time>
      </trkpt>
      <trkpt lat="44.440760" lon="9.071413">
        <ele>287.673065</ele>
        <time>2018-08-09T12:16:04Z</time>
      </trkpt>
      <trkpt lat="44.441035" lon="9.069547">
        <ele>282.529236</ele>
        <time>2018-08-09T12:16:20Z</time>
      </trkpt>
      <trkpt lat="44.441381" lon="9.067616">
        <ele>276.226898</ele>
        <time>2018-08-09T12:16:35Z</time>
      </trkpt>
      <trkpt lat="44.442097" lon="9.065897">
        <ele>256.654541</ele>
        <time>2018-08-09T12:16:50Z</time>
      </trkpt>
      <trkpt lat="44.442411" lon="9.064351">
        <ele>245.627808</ele>
        <time>2018-08-09T12:17:05Z</time>
      </trkpt>
      <trkpt lat="44.442347" lon="9.061267">
        <ele>234.763626</ele>
        <time>2018-08-09T12:17:21Z</time>
      </trkpt>
      <trkpt lat="44.442556" lon="9.058116">
        <ele>222.357864</ele>
        <time>2018-08-09T12:17:36Z</time>
      </trkpt>
      <trkpt lat="44.443190" lon="9.054706">
        <ele>200.149460</ele>
        <time>2018-08-09T12:17:52Z</time>
      </trkpt>
      <trkpt lat="44.441843" lon="9.052763">
        <ele>199.111755</ele>
        <time>2018-08-09T12:18:08Z</time>
      </trkpt>
      <trkpt lat="44.441121" lon="9.050604">
        <ele>182.738815</ele>
        <time>2018-08-09T12:18:23Z</time>
      </trkpt>
      <trkpt lat="44.440505" lon="9.048231">
        <ele>165.570709</ele>
        <time>2018-08-09T12:18:39Z</time>
      </trkpt>
      <trkpt lat="44.441311" lon="9.044268">
        <ele>172.810852</ele>
        <time>2018-08-09T12:18:55Z</time>
      </trkpt>
      <trkpt lat="44.442843" lon="9.041804">
        <ele>164.104462</ele>
        <time>2018-08-09T12:19:11Z</time>
      </trkpt>
      <trkpt lat="44.444891" lon="9.039806">
        <ele>158.255966</ele>
        <time>2018-08-09T12:19:26Z</time>
      </trkpt>
      <trkpt lat="44.446848" lon="9.037801">
        <ele>176.759094</ele>
        <time>2018-08-09T12:19:41Z</time>
      </trkpt>
      <trkpt lat="44.449160" lon="9.037344">
        <ele>134.456558</ele>
        <time>2018-08-09T12:19:56Z</time>
      </trkpt>
      <trkpt lat="44.449426" lon="9.034196">
        <ele>151.446198</ele>
        <time>2018-08-09T12:20:12Z</time>
      </trkpt>
      <trkpt lat="44.451288" lon="9.032814">
        <ele>119.122780</ele>
        <time>2018-08-09T12:20:27Z</time>
      </trkpt>
      <trkpt lat="44.450130" lon="9.030439">
        <ele>140.609695</ele>
        <time>2018-08-09T12:20:43Z</time>
      </trkpt>
      <trkpt lat="44.450676" lon="9.028061">
        <ele>122.571327</ele>
        <time>2018-08-09T12:20:58Z</time>
      </trkpt>
      <trkpt lat="44.448238" lon="9.025130">
        <ele>185.050461</ele>
        <time>2018-08-09T12:21:21Z</time>
      </trkpt>
      <trkpt lat="44.448571" lon="9.020480">
        <ele>96.140266</ele>
        <time>2018-08-09T12:21:36Z</time>
      </trkpt>
      <trkpt lat="44.448820" lon="9.017004">
        <ele>84.168442</ele>
        <time>2018-08-09T12:21:51Z</time>
      </trkpt>
      <trkpt lat="44.448768" lon="9.014501">
        <ele>82.313416</ele>
        <time>2018-08-09T12:22:07Z</time>
      </trkpt>
      <trkpt lat="44.448463" lon="9.011227">
        <ele>84.529488</ele>
        <time>2018-08-09T12:22:23Z</time>
      </trkpt>
      <trkpt lat="44.448266" lon="9.010315">
        <ele>82.432266</ele>
        <time>2018-08-09T12:22:49Z</time>
      </trkpt>
      <trkpt lat="44.447829" lon="9.008513">
        <ele>83.265472</ele>
        <time>2018-08-09T12:23:04Z</time>
      </trkpt>
      <trkpt lat="44.447402" lon="9.007174">
        <ele>80.802979</ele>
        <time>2018-08-09T12:23:19Z</time>
      </trkpt>
      <trkpt lat="44.447315" lon="9.006882">
        <ele>83.918030</ele>
        <time>2018-08-09T12:23:35Z</time>
      </trkpt>
      <trkpt lat="44.446819" lon="9.004318">
        <ele>88.890182</ele>
        <time>2018-08-09T12:23:50Z</time>
      </trkpt>
      <trkpt lat="44.447056" lon="9.001530">
        <ele>73.370956</ele>
        <time>2018-08-09T12:24:06Z</time>
      </trkpt>
      <trkpt lat="44.447794" lon="8.998517">
        <ele>71.900146</ele>
        <time>2018-08-09T12:24:22Z</time>
      </trkpt>
      <trkpt lat="44.448507" lon="8.995840">
        <ele>69.045677</ele>
        <time>2018-08-09T12:24:37Z</time>
      </trkpt>
      <trkpt lat="44.449241" lon="8.993311">
        <ele>69.951096</ele>
        <time>2018-08-09T12:24:52Z</time>
      </trkpt>
      <trkpt lat="44.450883" lon="8.991471">
        <ele>80.362740</ele>
        <time>2018-08-09T12:25:08Z</time>
      </trkpt>
      <trkpt lat="44.452573" lon="8.990588">
        <ele>66.258110</ele>
        <time>2018-08-09T12:25:23Z</time>
      </trkpt>
      <trkpt lat="44.453465" lon="8.987777">
        <ele>67.922173</ele>
        <time>2018-08-09T12:25:39Z</time>
      </trkpt>
      <trkpt lat="44.453886" lon="8.984848">
        <ele>57.776024</ele>
        <time>2018-08-09T12:25:55Z</time>
      </trkpt>
      <trkpt lat="44.453333" lon="8.982028">
        <ele>53.437172</ele>
        <time>2018-08-09T12:26:11Z</time>
      </trkpt>
      <trkpt lat="44.452678" lon="8.979304">
        <ele>64.675636</ele>
        <time>2018-08-09T12:26:26Z</time>
      </trkpt>
      <trkpt lat="44.451550" lon="8.976633">
        <ele>58.261478</ele>
        <time>2018-08-09T12:26:42Z</time>
      </trkpt>
      <trkpt lat="44.450026" lon="8.974442">
        <ele>51.883587</ele>
        <time>2018-08-09T12:26:58Z</time>
      </trkpt>
      <trkpt lat="44.448607" lon="8.972678">
        <ele>46.762218</ele>
        <time>2018-08-09T12:27:13Z</time>
      </trkpt>
      <trkpt lat="44.447766" lon="8.971655">
        <ele>46.031269</ele>
        <time>2018-08-09T12:27:29Z</time>
      </trkpt>
      <trkpt lat="44.447636" lon="8.971467">
        <ele>46.066250</ele>
        <time>2018-08-09T12:27:52Z</time>
      </trkpt>
      <trkpt lat="44.446352" lon="8.969885">
        <ele>43.651436</ele>
        <time>2018-08-09T12:28:08Z</time>
      </trkpt>
      <trkpt lat="44.444742" lon="8.967742">
        <ele>41.710564</ele>
        <time>2018-08-09T12:28:24Z</time>
      </trkpt>
      <trkpt lat="44.442925" lon="8.965832">
        <ele>40.487888</ele>
        <time>2018-08-09T12:28:39Z</time>
      </trkpt>
      <trkpt lat="44.441007" lon="8.964497">
        <ele>39.336075</ele>
        <time>2018-08-09T12:28:55Z</time>
      </trkpt>
      <trkpt lat="44.440103" lon="8.964068">
        <ele>38.300537</ele>
        <time>2018-08-09T12:29:11Z</time>
      </trkpt>
      <trkpt lat="44.438953" lon="8.963676">
        <ele>37.089901</ele>
        <time>2018-08-09T12:29:26Z</time>
      </trkpt>
      <trkpt lat="44.437058" lon="8.963260">
        <ele>34.778214</ele>
        <time>2018-08-09T12:29:41Z</time>
      </trkpt>
      <trkpt lat="44.435629" lon="8.962964">
        <ele>32.461098</ele>
        <time>2018-08-09T12:29:56Z</time>
      </trkpt>
      <trkpt lat="44.434891" lon="8.962667">
        <ele>32.426636</ele>
        <time>2018-08-09T12:30:12Z</time>
      </trkpt>
      <trkpt lat="44.433377" lon="8.961574">
        <ele>30.654886</ele>
        <time>2018-08-09T12:30:27Z</time>
      </trkpt>
      <trkpt lat="44.431948" lon="8.959909">
        <ele>31.349834</ele>
        <time>2018-08-09T12:30:43Z</time>
      </trkpt>
      <trkpt lat="44.430344" lon="8.958075">
        <ele>27.165016</ele>
        <time>2018-08-09T12:30:59Z</time>
      </trkpt>
      <trkpt lat="44.430254" lon="8.957917">
        <ele>27.304062</ele>
        <time>2018-08-09T12:31:20Z</time>
      </trkpt>
      <trkpt lat="44.428956" lon="8.956237">
        <ele>29.478075</ele>
        <time>2018-08-09T12:31:36Z</time>
      </trkpt>
      <trkpt lat="44.427879" lon="8.953666">
        <ele>42.168846</ele>
        <time>2018-08-09T12:31:52Z</time>
      </trkpt>
      <trkpt lat="44.427477" lon="8.951776">
        <ele>30.693789</ele>
        <time>2018-08-09T12:32:08Z</time>
      </trkpt>
      <trkpt lat="44.427275" lon="8.950788">
        <ele>26.601040</ele>
        <time>2018-08-09T12:32:23Z</time>
      </trkpt>
      <trkpt lat="44.425936" lon="8.948700">
        <ele>25.455177</ele>
        <time>2018-08-09T12:32:38Z</time>
      </trkpt>
      <trkpt lat="44.424044" lon="8.948307">
        <ele>22.918131</ele>
        <time>2018-08-09T12:32:54Z</time>
      </trkpt>
      <trkpt lat="44.423374" lon="8.948209">
        <ele>22.133461</ele>
        <time>2018-08-09T12:33:09Z</time>
      </trkpt>
      <trkpt lat="44.421671" lon="8.947970">
        <ele>18.528202</ele>
        <time>2018-08-09T12:33:25Z</time>
      </trkpt>
      <trkpt lat="44.419850" lon="8.948296">
        <ele>19.891245</ele>
        <time>2018-08-09T12:33:41Z</time>
      </trkpt>
      <trkpt lat="44.418070" lon="8.948954">
        <ele>15.581663</ele>
        <time>2018-08-09T12:33:57Z</time>
      </trkpt>
      <trkpt lat="44.417069" lon="8.950094">
        <ele>16.311291</ele>
        <time>2018-08-09T12:34:13Z</time>
      </trkpt>
      <trkpt lat="44.416565" lon="8.949734">
        <ele>21.579479</ele>
        <time>2018-08-09T12:34:48Z</time>
      </trkpt>
      <trkpt lat="44.416416" lon="8.949661">
        <ele>25.457066</ele>
        <time>2018-08-09T12:35:29Z</time>
      </trkpt>
      <trkpt lat="44.415197" lon="8.951216">
        <ele>28.405087</ele>
        <time>2018-08-09T12:35:45Z</time>
      </trkpt>
      <trkpt lat="44.413495" lon="8.951636">
        <ele>19.460205</ele>
        <time>2018-08-09T12:36:00Z</time>
      </trkpt>
      <trkpt lat="44.412455" lon="8.951945">
        <ele>17.840364</ele>
        <time>2018-08-09T12:36:15Z</time>
      </trkpt>
      <trkpt lat="44.411345" lon="8.952208">
        <ele>16.592308</ele>
        <time>2018-08-09T12:36:30Z</time>
      </trkpt>
      <trkpt lat="44.409961" lon="8.951713">
        <ele>13.736625</ele>
        <time>2018-08-09T12:36:46Z</time>
      </trkpt>
      <trkpt lat="44.409105" lon="8.951014">
        <ele>16.450384</ele>
        <time>2018-08-09T12:37:02Z</time>
      </trkpt>
      <trkpt lat="44.409014" lon="8.950867">
        <ele>16.535034</ele>
        <time>2018-08-09T12:37:45Z</time>
      </trkpt>
      <trkpt lat="44.408166" lon="8.950121">
        <ele>14.414884</ele>
        <time>2018-08-09T12:38:00Z</time>
      </trkpt>
      <trkpt lat="44.407099" lon="8.949133">
        <ele>13.143003</ele>
        <time>2018-08-09T12:38:16Z</time>
      </trkpt>
      <trkpt lat="44.405867" lon="8.947767">
        <ele>9.093616</ele>
        <time>2018-08-09T12:38:35Z</time>
      </trkpt>
      <trkpt lat="44.404962" lon="8.947085">
        <ele>9.588825</ele>
        <time>2018-08-09T12:39:47Z</time>
      </trkpt>
      <trkpt lat="44.404611" lon="8.947263">
        <ele>10.820638</ele>
        <time>2018-08-09T12:40:04Z</time>
      </trkpt>
      <trkpt lat="44.402693" lon="8.946626">
        <ele>13.585367</ele>
        <time>2018-08-09T12:40:20Z</time>
      </trkpt>
      <trkpt lat="44.401350" lon="8.945663">
        <ele>12.721530</ele>
        <time>2018-08-09T12:40:35Z</time>
      </trkpt>
      <trkpt lat="44.401523" lon="8.945207">
        <ele>12.270545</ele>
        <time>2018-08-09T12:40:56Z</time>
      </trkpt>
      <trkpt lat="44.401668" lon="8.945131">
        <ele>12.467939</ele>
        <time>2018-08-09T12:46:13Z</time>
      </trkpt>
      <trkpt lat="44.401537" lon="8.945180">
        <ele>12.235502</ele>
        <time>2018-08-09T12:47:33Z</time>
      </trkpt>
      <trkpt lat="44.401587" lon="8.944925">
        <ele>11.770794</ele>
        <time>2018-08-09T12:49:49Z</time>
      </trkpt>
      <trkpt lat="44.401914" lon="8.943250">
        <ele>15.141345</ele>
        <time>2018-08-09T12:50:04Z</time>
      </trkpt>
      <trkpt lat="44.401328" lon="8.944264">
        <ele>12.456238</ele>
        <time>2018-08-09T12:50:19Z</time>
      </trkpt>
      <trkpt lat="44.401173" lon="8.944848">
        <ele>11.280890</ele>
        <time>2018-08-09T12:50:35Z</time>
      </trkpt>
      <trkpt lat="44.401134" lon="8.945081">
        <ele>10.825973</ele>
        <time>2018-08-09T12:50:55Z</time>
      </trkpt>
      <trkpt lat="44.400589" lon="8.945313">
        <ele>10.110394</ele>
        <time>2018-08-09T12:51:11Z</time>
      </trkpt>
      <trkpt lat="44.400294" lon="8.945208">
        <ele>10.161089</ele>
        <time>2018-08-09T12:51:26Z</time>
      </trkpt>
      <trkpt lat="44.399070" lon="8.944637">
        <ele>13.719901</ele>
        <time>2018-08-09T12:51:41Z</time>
      </trkpt>
      <trkpt lat="44.397413" lon="8.943873">
        <ele>13.656200</ele>
        <time>2018-08-09T12:51:57Z</time>
      </trkpt>
      <trkpt lat="44.396536" lon="8.942885">
        <ele>8.522950</ele>
        <time>2018-08-09T12:52:13Z</time>
      </trkpt>
      <trkpt lat="44.396859" lon="8.940828">
        <ele>18.110981</ele>
        <time>2018-08-09T12:52:28Z</time>
      </trkpt>
      <trkpt lat="44.397645" lon="8.938389">
        <ele>18.727432</ele>
        <time>2018-08-09T12:52:43Z</time>
      </trkpt>
      <trkpt lat="44.398100" lon="8.935517">
        <ele>12.413737</ele>
        <time>2018-08-09T12:52:59Z</time>
      </trkpt>
      <trkpt lat="44.399342" lon="8.933357">
        <ele>11.734318</ele>
        <time>2018-08-09T12:53:14Z</time>
      </trkpt>
      <trkpt lat="44.400993" lon="8.931911">
        <ele>14.698778</ele>
        <time>2018-08-09T12:53:29Z</time>
      </trkpt>
      <trkpt lat="44.402898" lon="8.930505">
        <ele>8.666204</ele>
        <time>2018-08-09T12:53:45Z</time>
      </trkpt>
      <trkpt lat="44.404569" lon="8.928791">
        <ele>14.079065</ele>
        <time>2018-08-09T12:54:01Z</time>
      </trkpt>
      <trkpt lat="44.406441" lon="8.927611">
        <ele>10.676368</ele>
        <time>2018-08-09T12:54:16Z</time>
      </trkpt>
      <trkpt lat="44.408533" lon="8.928214">
        <ele>7.475372</ele>
        <time>2018-08-09T12:54:32Z</time>
      </trkpt>
      <trkpt lat="44.410368" lon="8.928271">
        <ele>5.976673</ele>
        <time>2018-08-09T12:54:47Z</time>
      </trkpt>
      <trkpt lat="44.412351" lon="8.927240">
        <ele>11.696288</ele>
        <time>2018-08-09T12:55:03Z</time>
      </trkpt>
      <trkpt lat="44.413936" lon="8.925051">
        <ele>6.460948</ele>
        <time>2018-08-09T12:55:19Z</time>
      </trkpt>
      <trkpt lat="44.415161" lon="8.922659">
        <ele>10.976947</ele>
        <time>2018-08-09T12:55:35Z</time>
      </trkpt>
      <trkpt lat="44.415375" lon="8.920011">
        <ele>8.759269</ele>
        <time>2018-08-09T12:55:50Z</time>
      </trkpt>
      <trkpt lat="44.414818" lon="8.917127">
        <ele>7.309309</ele>
        <time>2018-08-09T12:56:06Z</time>
      </trkpt>
      <trkpt lat="44.414441" lon="8.914489">
        <ele>5.829100</ele>
        <time>2018-08-09T12:56:21Z</time>
      </trkpt>
      <trkpt lat="44.413492" lon="8.911916">
        <ele>3.702613</ele>
        <time>2018-08-09T12:56:37Z</time>
      </trkpt>
      <trkpt lat="44.412177" lon="8.909566">
        <ele>11.834500</ele>
        <time>2018-08-09T12:56:53Z</time>
      </trkpt>
      <trkpt lat="44.410882" lon="8.907363">
        <ele>11.953491</ele>
        <time>2018-08-09T12:57:08Z</time>
      </trkpt>
      <trkpt lat="44.410199" lon="8.904758">
        <ele>16.402775</ele>
        <time>2018-08-09T12:57:23Z</time>
      </trkpt>
      <trkpt lat="44.410262" lon="8.902132">
        <ele>29.116890</ele>
        <time>2018-08-09T12:57:39Z</time>
      </trkpt>
      <trkpt lat="44.410843" lon="8.900511">
        <ele>25.268700</ele>
        <time>2018-08-09T12:57:55Z</time>
      </trkpt>
      <trkpt lat="44.410736" lon="8.901797">
        <ele>24.766504</ele>
        <time>2018-08-09T12:58:10Z</time>
      </trkpt>
      <trkpt lat="44.410757" lon="8.902030">
        <ele>26.741461</ele>
        <time>2018-08-09T12:58:31Z</time>
      </trkpt>
      <trkpt lat="44.410601" lon="8.902845">
        <ele>29.420670</ele>
        <time>2018-08-09T12:58:47Z</time>
      </trkpt>
      <trkpt lat="44.410890" lon="8.904483">
        <ele>22.404922</ele>
        <time>2018-08-09T12:59:03Z</time>
      </trkpt>
      <trkpt lat="44.411626" lon="8.906278">
        <ele>23.348557</ele>
        <time>2018-08-09T12:59:18Z</time>
      </trkpt>
      <trkpt lat="44.411702" lon="8.906520">
        <ele>22.286682</ele>
        <time>2018-08-09T12:59:38Z</time>
      </trkpt>
      <trkpt lat="44.411390" lon="8.908030">
        <ele>12.856155</ele>
        <time>2018-08-09T12:59:54Z</time>
      </trkpt>
      <trkpt lat="44.411398" lon="8.908649">
        <ele>10.749180</ele>
        <time>2018-08-09T13:00:10Z</time>
      </trkpt>
      <trkpt lat="44.412763" lon="8.909944">
        <ele>11.171885</ele>
        <time>2018-08-09T13:00:25Z</time>
      </trkpt>
      <trkpt lat="44.413894" lon="8.912183">
        <ele>7.368933</ele>
        <time>2018-08-09T13:00:40Z</time>
      </trkpt>
      <trkpt lat="44.414931" lon="8.914726">
        <ele>8.424260</ele>
        <time>2018-08-09T13:00:56Z</time>
      </trkpt>
      <trkpt lat="44.414903" lon="8.916882">
        <ele>7.964856</ele>
        <time>2018-08-09T13:01:11Z</time>
      </trkpt>
      <trkpt lat="44.415415" lon="8.919240">
        <ele>7.626390</ele>
        <time>2018-08-09T13:01:26Z</time>
      </trkpt>
      <trkpt lat="44.415634" lon="8.920660">
        <ele>14.333635</ele>
        <time>2018-08-09T13:01:41Z</time>
      </trkpt>
      <trkpt lat="44.415653" lon="8.920906">
        <ele>15.309540</ele>
        <time>2018-08-09T13:02:03Z</time>
      </trkpt>
      <trkpt lat="44.415341" lon="8.922721">
        <ele>15.077038</ele>
        <time>2018-08-09T13:02:19Z</time>
      </trkpt>
      <trkpt lat="44.414579" lon="8.924367">
        <ele>11.887873</ele>
        <time>2018-08-09T13:02:34Z</time>
      </trkpt>
      <trkpt lat="44.413454" lon="8.925971">
        <ele>8.535629</ele>
        <time>2018-08-09T13:02:50Z</time>
      </trkpt>
      <trkpt lat="44.412533" lon="8.927249">
        <ele>12.577258</ele>
        <time>2018-08-09T13:03:05Z</time>
      </trkpt>
      <trkpt lat="44.411788" lon="8.927976">
        <ele>15.113819</ele>
        <time>2018-08-09T13:03:27Z</time>
      </trkpt>
      <trkpt lat="44.411592" lon="8.928060">
        <ele>14.625805</ele>
        <time>2018-08-09T13:03:52Z</time>
      </trkpt>
      <trkpt lat="44.410934" lon="8.928384">
        <ele>11.219602</ele>
        <time>2018-08-09T13:04:08Z</time>
      </trkpt>
      <trkpt lat="44.410792" lon="8.928388">
        <ele>9.802536</ele>
        <time>2018-08-09T13:10:29Z</time>
      </trkpt>
      <trkpt lat="44.410906" lon="8.928286">
        <ele>9.522845</ele>
        <time>2018-08-09T13:12:46Z</time>
      </trkpt>
      <trkpt lat="44.411029" lon="8.928196">
        <ele>10.152378</ele>
        <time>2018-08-09T13:13:04Z</time>
      </trkpt>
      <trkpt lat="44.411179" lon="8.928135">
        <ele>11.201061</ele>
        <time>2018-08-09T13:13:19Z</time>
      </trkpt>
      <trkpt lat="44.411418" lon="8.928021">
        <ele>12.252954</ele>
        <time>2018-08-09T13:13:36Z</time>
      </trkpt>
      <trkpt lat="44.411463" lon="8.927830">
        <ele>9.889338</ele>
        <time>2018-08-09T13:13:51Z</time>
      </trkpt>
      <trkpt lat="44.411582" lon="8.927667">
        <ele>8.257593</ele>
        <time>2018-08-09T13:14:07Z</time>
      </trkpt>
      <trkpt lat="44.411698" lon="8.927799">
        <ele>11.343665</ele>
        <time>2018-08-09T13:14:22Z</time>
      </trkpt>
      <trkpt lat="44.411644" lon="8.927977">
        <ele>13.800478</ele>
        <time>2018-08-09T13:16:09Z</time>
      </trkpt>
      <trkpt lat="44.411599" lon="8.928165">
        <ele>16.404434</ele>
        <time>2018-08-09T13:16:29Z</time>
      </trkpt>
      <trkpt lat="44.411483" lon="8.928409">
        <ele>18.254181</ele>
        <time>2018-08-09T13:16:45Z</time>
      </trkpt>
      <trkpt lat="44.411265" lon="8.928441">
        <ele>16.028038</ele>
        <time>2018-08-09T13:17:01Z</time>
      </trkpt>
      <trkpt lat="44.411117" lon="8.928346">
        <ele>12.933628</ele>
        <time>2018-08-09T13:17:20Z</time>
      </trkpt>
      <trkpt lat="44.411296" lon="8.928302">
        <ele>14.696362</ele>
        <time>2018-08-09T13:31:01Z</time>
      </trkpt>
      <trkpt lat="44.411144" lon="8.928356">
        <ele>13.425760</ele>
        <time>2018-08-09T13:31:25Z</time>
      </trkpt>
      <trkpt lat="44.411280" lon="8.928267">
        <ele>14.043625</ele>
        <time>2018-08-09T13:50:50Z</time>
      </trkpt>
      <trkpt lat="44.411144" lon="8.928337">
        <ele>13.148994</ele>
        <time>2018-08-09T13:51:11Z</time>
      </trkpt>
      <trkpt lat="44.411334" lon="8.928256">
        <ele>14.563528</ele>
        <time>2018-08-09T13:51:26Z</time>
      </trkpt>
      <trkpt lat="44.411204" lon="8.928329">
        <ele>13.845667</ele>
        <time>2018-08-09T14:11:00Z</time>
      </trkpt>
      <trkpt lat="44.411040" lon="8.928623">
        <ele>16.333187</ele>
        <time>2018-08-09T14:11:15Z</time>
      </trkpt>
      <trkpt lat="44.410893" lon="8.928559">
        <ele>13.912012</ele>
        <time>2018-08-09T14:11:30Z</time>
      </trkpt>
      <trkpt lat="44.410762" lon="8.928621">
        <ele>14.066218</ele>
        <time>2018-08-09T14:11:49Z</time>
      </trkpt>
      <trkpt lat="44.410644" lon="8.928734">
        <ele>15.443493</ele>
        <time>2018-08-09T14:12:05Z</time>
      </trkpt>
      <trkpt lat="44.410554" lon="8.928883">
        <ele>17.658945</ele>
        <time>2018-08-09T14:12:24Z</time>
      </trkpt>
      <trkpt lat="44.410411" lon="8.928877">
        <ele>16.570274</ele>
        <time>2018-08-09T14:12:40Z</time>
      </trkpt>
      <trkpt lat="44.410265" lon="8.928939">
        <ele>16.730543</ele>
        <time>2018-08-09T14:12:56Z</time>
      </trkpt>
      <trkpt lat="44.410142" lon="8.928843">
        <ele>14.135441</ele>
        <time>2018-08-09T14:13:48Z</time>
      </trkpt>
      <trkpt lat="44.410098" lon="8.928627">
        <ele>9.917296</ele>
        <time>2018-08-09T14:14:03Z</time>
      </trkpt>
      <trkpt lat="44.410106" lon="8.928363">
        <ele>5.183494</ele>
        <time>2018-08-09T14:14:19Z</time>
      </trkpt>
      <trkpt lat="44.410127" lon="8.928159">
        <ele>4.537647</ele>
        <time>2018-08-09T14:14:34Z</time>
      </trkpt>
      <trkpt lat="44.410096" lon="8.927932">
        <ele>4.187767</ele>
        <time>2018-08-09T14:14:50Z</time>
      </trkpt>
      <trkpt lat="44.410154" lon="8.927732">
        <ele>3.990911</ele>
        <time>2018-08-09T14:15:06Z</time>
      </trkpt>
      <trkpt lat="44.410286" lon="8.927622">
        <ele>3.665170</ele>
        <time>2018-08-09T14:15:22Z</time>
      </trkpt>
      <trkpt lat="44.410396" lon="8.927460">
        <ele>3.023555</ele>
        <time>2018-08-09T14:15:37Z</time>
      </trkpt>
      <trkpt lat="44.410305" lon="8.927321">
        <ele>3.132138</ele>
        <time>2018-08-09T14:17:49Z</time>
      </trkpt>
      <trkpt lat="44.410140" lon="8.927295">
        <ele>3.459669</ele>
        <time>2018-08-09T14:18:05Z</time>
      </trkpt>
      <trkpt lat="44.410074" lon="8.927115">
        <ele>3.401999</ele>
        <time>2018-08-09T14:18:21Z</time>
      </trkpt>
      <trkpt lat="44.410007" lon="8.926902">
        <ele>3.272420</ele>
        <time>2018-08-09T14:18:37Z</time>
      </trkpt>
      <trkpt lat="44.409713" lon="8.926652">
        <ele>2.388365</ele>
        <time>2018-08-09T14:18:52Z</time>
      </trkpt>
      <trkpt lat="44.409933" lon="8.926554">
        <ele>3.493066</ele>
        <time>2018-08-09T14:19:07Z</time>
      </trkpt>
      <trkpt lat="44.409785" lon="8.926248">
        <ele>4.735965</ele>
        <time>2018-08-09T14:19:23Z</time>
      </trkpt>
      <trkpt lat="44.409984" lon="8.925915">
        <ele>7.434381</ele>
        <time>2018-08-09T14:19:38Z</time>
      </trkpt>
      <trkpt lat="44.410039" lon="8.925730">
        <ele>7.350708</ele>
        <time>2018-08-09T14:22:15Z</time>
      </trkpt>
      <trkpt lat="44.409999" lon="8.925543">
        <ele>6.948307</ele>
        <time>2018-08-09T14:23:17Z</time>
      </trkpt>
      <trkpt lat="44.410037" lon="8.925734">
        <ele>7.376343</ele>
        <time>2018-08-09T14:24:25Z</time>
      </trkpt>
      <trkpt lat="44.410040" lon="8.925936">
        <ele>7.128916</ele>
        <time>2018-08-09T14:24:42Z</time>
      </trkpt>
      <trkpt lat="44.409981" lon="8.926122">
        <ele>6.193137</ele>
        <time>2018-08-09T14:24:57Z</time>
      </trkpt>
      <trkpt lat="44.409903" lon="8.926325">
        <ele>4.721198</ele>
        <time>2018-08-09T14:25:12Z</time>
      </trkpt>
      <trkpt lat="44.409852" lon="8.926563">
        <ele>3.221645</ele>
        <time>2018-08-09T14:25:28Z</time>
      </trkpt>
      <trkpt lat="44.409811" lon="8.926799">
        <ele>2.813260</ele>
        <time>2018-08-09T14:25:44Z</time>
      </trkpt>
      <trkpt lat="44.409895" lon="8.927059">
        <ele>3.396223</ele>
        <time>2018-08-09T14:26:00Z</time>
      </trkpt>
      <trkpt lat="44.410002" lon="8.927287">
        <ele>3.740665</ele>
        <time>2018-08-09T14:26:15Z</time>
      </trkpt>
      <trkpt lat="44.410016" lon="8.927523">
        <ele>3.964908</ele>
        <time>2018-08-09T14:26:30Z</time>
      </trkpt>
      <trkpt lat="44.410005" lon="8.927746">
        <ele>4.000405</ele>
        <time>2018-08-09T14:26:46Z</time>
      </trkpt>
      <trkpt lat="44.409832" lon="8.927742">
        <ele>4.319028</ele>
        <time>2018-08-09T14:27:02Z</time>
      </trkpt>
      <trkpt lat="44.409641" lon="8.927701">
        <ele>4.638290</ele>
        <time>2018-08-09T14:27:18Z</time>
      </trkpt>
      <trkpt lat="44.409473" lon="8.927649">
        <ele>4.857751</ele>
        <time>2018-08-09T14:27:33Z</time>
      </trkpt>
      <trkpt lat="44.409308" lon="8.927583">
        <ele>4.996952</ele>
        <time>2018-08-09T14:27:48Z</time>
      </trkpt>
      <trkpt lat="44.409165" lon="8.927597">
        <ele>5.234985</ele>
        <time>2018-08-09T14:28:03Z</time>
      </trkpt>
      <trkpt lat="44.408978" lon="8.927537">
        <ele>5.314514</ele>
        <time>2018-08-09T14:28:19Z</time>
      </trkpt>
      <trkpt lat="44.408845" lon="8.927443">
        <ele>5.136550</ele>
        <time>2018-08-09T14:28:35Z</time>
      </trkpt>
      <trkpt lat="44.408757" lon="8.927280">
        <ele>4.563700</ele>
        <time>2018-08-09T14:30:54Z</time>
      </trkpt>
      <trkpt lat="44.408654" lon="8.927157">
        <ele>4.221056</ele>
        <time>2018-08-09T14:31:09Z</time>
      </trkpt>
      <trkpt lat="44.408513" lon="8.927198">
        <ele>4.618330</ele>
        <time>2018-08-09T14:33:07Z</time>
      </trkpt>
      <trkpt lat="44.408347" lon="8.927074">
        <ele>4.442647</ele>
        <time>2018-08-09T14:33:22Z</time>
      </trkpt>
      <trkpt lat="44.408212" lon="8.926949">
        <ele>4.062669</ele>
        <time>2018-08-09T14:33:38Z</time>
      </trkpt>
      <trkpt lat="44.408076" lon="8.926869">
        <ele>3.888165</ele>
        <time>2018-08-09T14:33:53Z</time>
      </trkpt>
      <trkpt lat="44.407922" lon="8.926845">
        <ele>3.924365</ele>
        <time>2018-08-09T14:34:08Z</time>
      </trkpt>
      <trkpt lat="44.407780" lon="8.926765">
        <ele>3.862125</ele>
        <time>2018-08-09T14:34:24Z</time>
      </trkpt>
      <trkpt lat="44.407778" lon="8.926571">
        <ele>4.084886</ele>
        <time>2018-08-09T14:34:40Z</time>
      </trkpt>
      <trkpt lat="44.407725" lon="8.926389">
        <ele>5.034815</ele>
        <time>2018-08-09T14:34:56Z</time>
      </trkpt>
      <trkpt lat="44.407666" lon="8.926570">
        <ele>4.287155</ele>
        <time>2018-08-09T14:35:44Z</time>
      </trkpt>
      <trkpt lat="44.407521" lon="8.926710">
        <ele>4.029213</ele>
        <time>2018-08-09T14:36:00Z</time>
      </trkpt>
      <trkpt lat="44.407383" lon="8.926833">
        <ele>5.095587</ele>
        <time>2018-08-09T14:36:15Z</time>
      </trkpt>
      <trkpt lat="44.407248" lon="8.926915">
        <ele>6.146076</ele>
        <time>2018-08-09T14:36:30Z</time>
      </trkpt>
      <trkpt lat="44.407098" lon="8.927044">
        <ele>7.175201</ele>
        <time>2018-08-09T14:36:46Z</time>
      </trkpt>
      <trkpt lat="44.406973" lon="8.927188">
        <ele>7.867459</ele>
        <time>2018-08-09T14:37:01Z</time>
      </trkpt>
      <trkpt lat="44.406870" lon="8.927334">
        <ele>8.275290</ele>
        <time>2018-08-09T14:37:17Z</time>
      </trkpt>
      <trkpt lat="44.406749" lon="8.927427">
        <ele>8.755088</ele>
        <time>2018-08-09T14:38:41Z</time>
      </trkpt>
      <trkpt lat="44.406753" lon="8.927623">
        <ele>9.994438</ele>
        <time>2018-08-09T14:39:32Z</time>
      </trkpt>
      <trkpt lat="44.406741" lon="8.927815">
        <ele>12.292344</ele>
        <time>2018-08-09T14:39:47Z</time>
      </trkpt>
      <trkpt lat="44.406802" lon="8.927995">
        <ele>13.909371</ele>
        <time>2018-08-09T14:40:03Z</time>
      </trkpt>
      <trkpt lat="44.406931" lon="8.928111">
        <ele>14.131649</ele>
        <time>2018-08-09T14:40:19Z</time>
      </trkpt>
      <trkpt lat="44.407055" lon="8.928188">
        <ele>13.849178</ele>
        <time>2018-08-09T14:40:36Z</time>
      </trkpt>
      <trkpt lat="44.407213" lon="8.928225">
        <ele>12.791011</ele>
        <time>2018-08-09T14:40:51Z</time>
      </trkpt>
      <trkpt lat="44.407384" lon="8.928211">
        <ele>11.151530</ele>
        <time>2018-08-09T14:41:07Z</time>
      </trkpt>
      <trkpt lat="44.407496" lon="8.928462">
        <ele>13.348247</ele>
        <time>2018-08-09T14:41:23Z</time>
      </trkpt>
      <trkpt lat="44.407626" lon="8.928515">
        <ele>13.710950</ele>
        <time>2018-08-09T14:41:43Z</time>
      </trkpt>
      <trkpt lat="44.407817" lon="8.928657">
        <ele>15.237114</ele>
        <time>2018-08-09T14:41:58Z</time>
      </trkpt>
      <trkpt lat="44.408006" lon="8.928598">
        <ele>13.367682</ele>
        <time>2018-08-09T14:42:13Z</time>
      </trkpt>
      <trkpt lat="44.408150" lon="8.928719">
        <ele>14.525507</ele>
        <time>2018-08-09T14:42:29Z</time>
      </trkpt>
      <trkpt lat="44.408297" lon="8.928752">
        <ele>14.226620</ele>
        <time>2018-08-09T14:42:45Z</time>
      </trkpt>
      <trkpt lat="44.408297" lon="8.929260">
        <ele>21.140287</ele>
        <time>2018-08-09T14:43:01Z</time>
      </trkpt>
      <trkpt lat="44.408266" lon="8.929499">
        <ele>23.544638</ele>
        <time>2018-08-09T14:43:16Z</time>
      </trkpt>
      <trkpt lat="44.408196" lon="8.929700">
        <ele>25.691055</ele>
        <time>2018-08-09T14:43:31Z</time>
      </trkpt>
      <trkpt lat="44.408150" lon="8.929887">
        <ele>27.473286</ele>
        <time>2018-08-09T14:44:28Z</time>
      </trkpt>
      <trkpt lat="44.408054" lon="8.930025">
        <ele>28.651110</ele>
        <time>2018-08-09T14:44:54Z</time>
      </trkpt>
      <trkpt lat="44.408025" lon="8.930214">
        <ele>28.577320</ele>
        <time>2018-08-09T14:45:10Z</time>
      </trkpt>
      <trkpt lat="44.407949" lon="8.930382">
        <ele>28.674810</ele>
        <time>2018-08-09T14:45:26Z</time>
      </trkpt>
      <trkpt lat="44.407907" lon="8.930563">
        <ele>28.694202</ele>
        <time>2018-08-09T14:46:03Z</time>
      </trkpt>
      <trkpt lat="44.407785" lon="8.930692">
        <ele>29.031261</ele>
        <time>2018-08-09T14:46:27Z</time>
      </trkpt>
      <trkpt lat="44.407799" lon="8.930882">
        <ele>29.016991</ele>
        <time>2018-08-09T14:47:09Z</time>
      </trkpt>
      <trkpt lat="44.407705" lon="8.931017">
        <ele>29.647123</ele>
        <time>2018-08-09T14:47:40Z</time>
      </trkpt>
      <trkpt lat="44.407579" lon="8.931083">
        <ele>30.287376</ele>
        <time>2018-08-09T14:47:55Z</time>
      </trkpt>
      <trkpt lat="44.407536" lon="8.931262">
        <ele>30.878302</ele>
        <time>2018-08-09T14:48:14Z</time>
      </trkpt>
      <trkpt lat="44.407473" lon="8.931430">
        <ele>31.451391</ele>
        <time>2018-08-09T14:48:30Z</time>
      </trkpt>
      <trkpt lat="44.407349" lon="8.931572">
        <ele>31.813789</ele>
        <time>2018-08-09T14:48:46Z</time>
      </trkpt>
      <trkpt lat="44.407249" lon="8.931710">
        <ele>32.148865</ele>
        <time>2018-08-09T14:50:08Z</time>
      </trkpt>
      <trkpt lat="44.407123" lon="8.931885">
        <ele>32.479572</ele>
        <time>2018-08-09T14:50:24Z</time>
      </trkpt>
      <trkpt lat="44.407064" lon="8.932056">
        <ele>32.625034</ele>
        <time>2018-08-09T14:50:40Z</time>
      </trkpt>
      <trkpt lat="44.407070" lon="8.932291">
        <ele>33.038597</ele>
        <time>2018-08-09T14:50:55Z</time>
      </trkpt>
      <trkpt lat="44.407009" lon="8.932466">
        <ele>32.842537</ele>
        <time>2018-08-09T14:53:45Z</time>
      </trkpt>
      <trkpt lat="44.406916" lon="8.932623">
        <ele>32.581474</ele>
        <time>2018-08-09T14:54:00Z</time>
      </trkpt>
      <trkpt lat="44.406809" lon="8.932738">
        <ele>32.472042</ele>
        <time>2018-08-09T14:54:15Z</time>
      </trkpt>
      <trkpt lat="44.406792" lon="8.932930">
        <ele>33.450569</ele>
        <time>2018-08-09T14:54:43Z</time>
      </trkpt>
      <trkpt lat="44.406929" lon="8.933108">
        <ele>34.515377</ele>
        <time>2018-08-09T14:54:59Z</time>
      </trkpt>
      <trkpt lat="44.407037" lon="8.933310">
        <ele>35.056095</ele>
        <time>2018-08-09T14:55:15Z</time>
      </trkpt>
      <trkpt lat="44.407048" lon="8.933503">
        <ele>35.136265</ele>
        <time>2018-08-09T14:55:31Z</time>
      </trkpt>
      <trkpt lat="44.407148" lon="8.933630">
        <ele>34.677216</ele>
        <time>2018-08-09T14:56:28Z</time>
      </trkpt>
      <trkpt lat="44.407111" lon="8.933814">
        <ele>34.821117</ele>
        <time>2018-08-09T14:58:28Z</time>
      </trkpt>
      <trkpt lat="44.407013" lon="8.933668">
        <ele>35.370663</ele>
        <time>2018-08-09T15:00:39Z</time>
      </trkpt>
      <trkpt lat="44.407149" lon="8.933701">
        <ele>34.632812</ele>
        <time>2018-08-09T15:06:56Z</time>
      </trkpt>
      <trkpt lat="44.407148" lon="8.933891">
        <ele>34.529953</ele>
        <time>2018-08-09T15:08:14Z</time>
      </trkpt>
      <trkpt lat="44.407148" lon="8.933692">
        <ele>34.641792</ele>
        <time>2018-08-09T15:08:41Z</time>
      </trkpt>
      <trkpt lat="44.407144" lon="8.933992">
        <ele>34.508434</ele>
        <time>2018-08-09T15:16:22Z</time>
      </trkpt>
      <trkpt lat="44.407051" lon="8.933775">
        <ele>35.202164</ele>
        <time>2018-08-09T15:20:08Z</time>
      </trkpt>
      <trkpt lat="44.406940" lon="8.933953">
        <ele>36.112686</ele>
        <time>2018-08-09T15:20:23Z</time>
      </trkpt>
      <trkpt lat="44.406801" lon="8.934019">
        <ele>37.349472</ele>
        <time>2018-08-09T15:20:49Z</time>
      </trkpt>
      <trkpt lat="44.406645" lon="8.934040">
        <ele>38.640079</ele>
        <time>2018-08-09T15:21:04Z</time>
      </trkpt>
      <trkpt lat="44.406542" lon="8.933784">
        <ele>38.084217</ele>
        <time>2018-08-09T15:21:20Z</time>
      </trkpt>
      <trkpt lat="44.406416" lon="8.933560">
        <ele>37.582588</ele>
        <time>2018-08-09T15:21:35Z</time>
      </trkpt>
      <trkpt lat="44.406170" lon="8.933505">
        <ele>38.055645</ele>
        <time>2018-08-09T15:21:51Z</time>
      </trkpt>
      <trkpt lat="44.406107" lon="8.933674">
        <ele>39.116840</ele>
        <time>2018-08-09T15:22:18Z</time>
      </trkpt>
      <trkpt lat="44.406016" lon="8.933848">
        <ele>40.381821</ele>
        <time>2018-08-09T15:22:34Z</time>
      </trkpt>
      <trkpt lat="44.405865" lon="8.933984">
        <ele>41.768818</ele>
        <time>2018-08-09T15:22:49Z</time>
      </trkpt>
      <trkpt lat="44.405800" lon="8.934154">
        <ele>42.925575</ele>
        <time>2018-08-09T15:24:05Z</time>
      </trkpt>
      <trkpt lat="44.405751" lon="8.934338">
        <ele>41.929714</ele>
        <time>2018-08-09T15:24:47Z</time>
      </trkpt>
      <trkpt lat="44.405609" lon="8.934510">
        <ele>40.716576</ele>
        <time>2018-08-09T15:25:02Z</time>
      </trkpt>
      <trkpt lat="44.405569" lon="8.934690">
        <ele>39.459545</ele>
        <time>2018-08-09T15:25:50Z</time>
      </trkpt>
      <trkpt lat="44.405569" lon="8.934915">
        <ele>37.943184</ele>
        <time>2018-08-09T15:26:05Z</time>
      </trkpt>
      <trkpt lat="44.405523" lon="8.935104">
        <ele>37.815662</ele>
        <time>2018-08-09T15:28:12Z</time>
      </trkpt>
      <trkpt lat="44.405568" lon="8.935284">
        <ele>38.819370</ele>
        <time>2018-08-09T15:29:53Z</time>
      </trkpt>
      <trkpt lat="44.405684" lon="8.935384">
        <ele>39.353874</ele>
        <time>2018-08-09T15:30:08Z</time>
      </trkpt>
      <trkpt lat="44.405666" lon="8.935168">
        <ele>38.367321</ele>
        <time>2018-08-09T15:30:23Z</time>
      </trkpt>
      <trkpt lat="44.405882" lon="8.935128">
        <ele>38.637947</ele>
        <time>2018-08-09T15:30:39Z</time>
      </trkpt>
      <trkpt lat="44.406052" lon="8.935063">
        <ele>39.156269</ele>
        <time>2018-08-09T15:30:56Z</time>
      </trkpt>
      <trkpt lat="44.406125" lon="8.934868">
        <ele>39.747639</ele>
        <time>2018-08-09T15:31:12Z</time>
      </trkpt>
      <trkpt lat="44.406384" lon="8.934803">
        <ele>40.576611</ele>
        <time>2018-08-09T15:31:27Z</time>
      </trkpt>
      <trkpt lat="44.406577" lon="8.934691">
        <ele>40.776287</ele>
        <time>2018-08-09T15:31:43Z</time>
      </trkpt>
      <trkpt lat="44.406851" lon="8.934647">
        <ele>40.109970</ele>
        <time>2018-08-09T15:31:58Z</time>
      </trkpt>
      <trkpt lat="44.407023" lon="8.934388">
        <ele>37.398300</ele>
        <time>2018-08-09T15:32:23Z</time>
      </trkpt>
      <trkpt lat="44.407175" lon="8.934472">
        <ele>37.228851</ele>
        <time>2018-08-09T15:32:39Z</time>
      </trkpt>
      <trkpt lat="44.407307" lon="8.934412">
        <ele>35.771420</ele>
        <time>2018-08-09T15:33:32Z</time>
      </trkpt>
      <trkpt lat="44.407385" lon="8.934243">
        <ele>33.085865</ele>
        <time>2018-08-09T15:33:48Z</time>
      </trkpt>
      <trkpt lat="44.407469" lon="8.934079">
        <ele>31.591251</ele>
        <time>2018-08-09T15:34:05Z</time>
      </trkpt>
      <trkpt lat="44.407557" lon="8.933886">
        <ele>32.214767</ele>
        <time>2018-08-09T15:34:20Z</time>
      </trkpt>
      <trkpt lat="44.407696" lon="8.933909">
        <ele>32.650051</ele>
        <time>2018-08-09T15:35:13Z</time>
      </trkpt>
      <trkpt lat="44.407844" lon="8.933950">
        <ele>33.110367</ele>
        <time>2018-08-09T15:35:28Z</time>
      </trkpt>
      <trkpt lat="44.407996" lon="8.934117">
        <ele>33.453918</ele>
        <time>2018-08-09T15:35:44Z</time>
      </trkpt>
      <trkpt lat="44.408154" lon="8.934220">
        <ele>34.303703</ele>
        <time>2018-08-09T15:36:00Z</time>
      </trkpt>
      <trkpt lat="44.408305" lon="8.934309">
        <ele>34.934021</ele>
        <time>2018-08-09T15:36:15Z</time>
      </trkpt>
      <trkpt lat="44.408458" lon="8.934399">
        <ele>34.868202</ele>
        <time>2018-08-09T15:36:31Z</time>
      </trkpt>
      <trkpt lat="44.408552" lon="8.934597">
        <ele>35.017570</ele>
        <time>2018-08-09T15:36:47Z</time>
      </trkpt>
      <trkpt lat="44.408681" lon="8.934682">
        <ele>35.197880</ele>
        <time>2018-08-09T15:37:03Z</time>
      </trkpt>
      <trkpt lat="44.408868" lon="8.934697">
        <ele>35.350708</ele>
        <time>2018-08-09T15:37:18Z</time>
      </trkpt>
      <trkpt lat="44.409044" lon="8.934773">
        <ele>35.776165</ele>
        <time>2018-08-09T15:37:34Z</time>
      </trkpt>
      <trkpt lat="44.409159" lon="8.934879">
        <ele>36.404804</ele>
        <time>2018-08-09T15:38:17Z</time>
      </trkpt>
      <trkpt lat="44.409292" lon="8.934943">
        <ele>36.114864</ele>
        <time>2018-08-09T15:39:40Z</time>
      </trkpt>
      <trkpt lat="44.409447" lon="8.935009">
        <ele>35.703270</ele>
        <time>2018-08-09T15:39:55Z</time>
      </trkpt>
      <trkpt lat="44.409599" lon="8.935060">
        <ele>35.292244</ele>
        <time>2018-08-09T15:40:10Z</time>
      </trkpt>
      <trkpt lat="44.409768" lon="8.935199">
        <ele>35.520844</ele>
        <time>2018-08-09T15:40:25Z</time>
      </trkpt>
      <trkpt lat="44.409953" lon="8.935303">
        <ele>35.685493</ele>
        <time>2018-08-09T15:40:41Z</time>
      </trkpt>
      <trkpt lat="44.410141" lon="8.935130">
        <ele>33.969917</ele>
        <time>2018-08-09T15:40:57Z</time>
      </trkpt>
      <trkpt lat="44.410137" lon="8.934939">
        <ele>32.354103</ele>
        <time>2018-08-09T15:41:14Z</time>
      </trkpt>
      <trkpt lat="44.410422" lon="8.934907">
        <ele>31.657253</ele>
        <time>2018-08-09T15:41:30Z</time>
      </trkpt>
      <trkpt lat="44.410625" lon="8.934793">
        <ele>31.003939</ele>
        <time>2018-08-09T15:41:46Z</time>
      </trkpt>
      <trkpt lat="44.410718" lon="8.934647">
        <ele>30.619343</ele>
        <time>2018-08-09T15:42:24Z</time>
      </trkpt>
      <trkpt lat="44.410770" lon="8.934325">
        <ele>30.095425</ele>
        <time>2018-08-09T15:42:40Z</time>
      </trkpt>
      <trkpt lat="44.410775" lon="8.934135">
        <ele>29.987350</ele>
        <time>2018-08-09T15:43:23Z</time>
      </trkpt>
      <trkpt lat="44.410818" lon="8.933952">
        <ele>30.953520</ele>
        <time>2018-08-09T15:43:38Z</time>
      </trkpt>
      <trkpt lat="44.410854" lon="8.933763">
        <ele>32.097904</ele>
        <time>2018-08-09T15:44:15Z</time>
      </trkpt>
      <trkpt lat="44.410904" lon="8.933561">
        <ele>33.477890</ele>
        <time>2018-08-09T15:44:30Z</time>
      </trkpt>
      <trkpt lat="44.410993" lon="8.933415">
        <ele>34.926826</ele>
        <time>2018-08-09T15:44:46Z</time>
      </trkpt>
      <trkpt lat="44.411023" lon="8.933231">
        <ele>35.009521</ele>
        <time>2018-08-09T15:45:06Z</time>
      </trkpt>
      <trkpt lat="44.411044" lon="8.933043">
        <ele>34.113358</ele>
        <time>2018-08-09T15:45:33Z</time>
      </trkpt>
      <trkpt lat="44.411045" lon="8.932847">
        <ele>33.004894</ele>
        <time>2018-08-09T15:45:55Z</time>
      </trkpt>
      <trkpt lat="44.411151" lon="8.932574">
        <ele>32.461792</ele>
        <time>2018-08-09T15:46:10Z</time>
      </trkpt>
      <trkpt lat="44.411205" lon="8.932373">
        <ele>32.720459</ele>
        <time>2018-08-09T15:46:32Z</time>
      </trkpt>
      <trkpt lat="44.411295" lon="8.932108">
        <ele>33.905151</ele>
        <time>2018-08-09T15:46:47Z</time>
      </trkpt>
      <trkpt lat="44.411325" lon="8.931919">
        <ele>34.419556</ele>
        <time>2018-08-09T15:47:05Z</time>
      </trkpt>
      <trkpt lat="44.411466" lon="8.931743">
        <ele>35.978394</ele>
        <time>2018-08-09T15:47:21Z</time>
      </trkpt>
      <trkpt lat="44.411559" lon="8.931592">
        <ele>36.679798</ele>
        <time>2018-08-09T15:47:36Z</time>
      </trkpt>
      <trkpt lat="44.411415" lon="8.931542">
        <ele>35.255516</ele>
        <time>2018-08-09T15:48:34Z</time>
      </trkpt>
      <trkpt lat="44.411245" lon="8.931296">
        <ele>33.525864</ele>
        <time>2018-08-09T15:49:13Z</time>
      </trkpt>
      <trkpt lat="44.411113" lon="8.931349">
        <ele>32.676136</ele>
        <time>2018-08-09T15:49:31Z</time>
      </trkpt>
      <trkpt lat="44.410883" lon="8.931296">
        <ele>31.207108</ele>
        <time>2018-08-09T15:49:46Z</time>
      </trkpt>
      <trkpt lat="44.410769" lon="8.931163">
        <ele>30.901611</ele>
        <time>2018-08-09T15:50:02Z</time>
      </trkpt>
      <trkpt lat="44.410590" lon="8.931092">
        <ele>30.211426</ele>
        <time>2018-08-09T15:50:18Z</time>
      </trkpt>
      <trkpt lat="44.410431" lon="8.931014">
        <ele>29.635986</ele>
        <time>2018-08-09T15:50:33Z</time>
      </trkpt>
      <trkpt lat="44.410242" lon="8.931000">
        <ele>28.761719</ele>
        <time>2018-08-09T15:50:49Z</time>
      </trkpt>
      <trkpt lat="44.410111" lon="8.930916">
        <ele>28.337036</ele>
        <time>2018-08-09T15:51:05Z</time>
      </trkpt>
      <trkpt lat="44.409961" lon="8.930827">
        <ele>27.859367</ele>
        <time>2018-08-09T15:51:21Z</time>
      </trkpt>
      <trkpt lat="44.409861" lon="8.930689">
        <ele>27.557442</ele>
        <time>2018-08-09T15:51:53Z</time>
      </trkpt>
      <trkpt lat="44.409736" lon="8.930611">
        <ele>27.217613</ele>
        <time>2018-08-09T15:52:09Z</time>
      </trkpt>
      <trkpt lat="44.409636" lon="8.930444">
        <ele>27.096878</ele>
        <time>2018-08-09T15:53:52Z</time>
      </trkpt>
      <trkpt lat="44.409440" lon="8.930258">
        <ele>26.912878</ele>
        <time>2018-08-09T15:54:07Z</time>
      </trkpt>
      <trkpt lat="44.409207" lon="8.930422">
        <ele>26.084497</ele>
        <time>2018-08-09T15:54:22Z</time>
      </trkpt>
      <trkpt lat="44.409172" lon="8.930160">
        <ele>26.625753</ele>
        <time>2018-08-09T15:54:38Z</time>
      </trkpt>
      <trkpt lat="44.409161" lon="8.929886">
        <ele>25.776239</ele>
        <time>2018-08-09T15:54:54Z</time>
      </trkpt>
      <trkpt lat="44.409027" lon="8.929845">
        <ele>25.524574</ele>
        <time>2018-08-09T15:55:21Z</time>
      </trkpt>
      <trkpt lat="44.408837" lon="8.929890">
        <ele>26.259525</ele>
        <time>2018-08-09T15:55:36Z</time>
      </trkpt>
      <trkpt lat="44.408811" lon="8.929694">
        <ele>24.281281</ele>
        <time>2018-08-09T15:56:20Z</time>
      </trkpt>
      <trkpt lat="44.408791" lon="8.929405">
        <ele>21.346825</ele>
        <time>2018-08-09T15:56:35Z</time>
      </trkpt>
      <trkpt lat="44.408793" lon="8.929112">
        <ele>18.143887</ele>
        <time>2018-08-09T15:56:50Z</time>
      </trkpt>
      <trkpt lat="44.409004" lon="8.929071">
        <ele>17.108566</ele>
        <time>2018-08-09T15:57:05Z</time>
      </trkpt>
      <trkpt lat="44.409221" lon="8.929093">
        <ele>17.066870</ele>
        <time>2018-08-09T15:57:21Z</time>
      </trkpt>
      <trkpt lat="44.409424" lon="8.929068">
        <ele>16.866014</ele>
        <time>2018-08-09T15:57:36Z</time>
      </trkpt>
      <trkpt lat="44.409614" lon="8.929043">
        <ele>16.593239</ele>
        <time>2018-08-09T15:57:52Z</time>
      </trkpt>
      <trkpt lat="44.409779" lon="8.928974">
        <ele>15.512050</ele>
        <time>2018-08-09T15:58:07Z</time>
      </trkpt>
      <trkpt lat="44.409937" lon="8.928833">
        <ele>13.043075</ele>
        <time>2018-08-09T15:58:23Z</time>
      </trkpt>
      <trkpt lat="44.410070" lon="8.928684">
        <ele>10.772264</ele>
        <time>2018-08-09T15:58:38Z</time>
      </trkpt>
      <trkpt lat="44.410237" lon="8.928538">
        <ele>9.184320</ele>
        <time>2018-08-09T15:58:53Z</time>
      </trkpt>
      <trkpt lat="44.410416" lon="8.928467">
        <ele>8.974858</ele>
        <time>2018-08-09T15:59:09Z</time>
      </trkpt>
      <trkpt lat="44.410541" lon="8.928390">
        <ele>8.303282</ele>
        <time>2018-08-09T15:59:27Z</time>
      </trkpt>
      <trkpt lat="44.410676" lon="8.928368">
        <ele>8.714710</ele>
        <time>2018-08-09T15:59:43Z</time>
      </trkpt>
      <trkpt lat="44.410808" lon="8.928299">
        <ele>8.568228</ele>
        <time>2018-08-09T16:00:03Z</time>
      </trkpt>
      <trkpt lat="44.410665" lon="8.928346">
        <ele>8.229212</ele>
        <time>2018-08-09T16:09:28Z</time>
      </trkpt>
      <trkpt lat="44.410406" lon="8.928758">
        <ele>14.328056</ele>
        <time>2018-08-09T16:09:43Z</time>
      </trkpt>
      <trkpt lat="44.411104" lon="8.928584">
        <ele>16.304462</ele>
        <time>2018-08-09T16:09:59Z</time>
      </trkpt>
      <trkpt lat="44.411563" lon="8.928207">
        <ele>16.639694</ele>
        <time>2018-08-09T16:10:15Z</time>
      </trkpt>
      <trkpt lat="44.411744" lon="8.927929">
        <ele>13.934899</ele>
        <time>2018-08-09T16:10:30Z</time>
      </trkpt>
      <trkpt lat="44.412709" lon="8.927103">
        <ele>11.756107</ele>
        <time>2018-08-09T16:10:46Z</time>
      </trkpt>
      <trkpt lat="44.413716" lon="8.925659">
        <ele>8.897627</ele>
        <time>2018-08-09T16:11:02Z</time>
      </trkpt>
      <trkpt lat="44.414520" lon="8.924388">
        <ele>11.111588</ele>
        <time>2018-08-09T16:11:17Z</time>
      </trkpt>
      <trkpt lat="44.415255" lon="8.922824">
        <ele>13.718311</ele>
        <time>2018-08-09T16:11:32Z</time>
      </trkpt>
      <trkpt lat="44.415410" lon="8.922069">
        <ele>13.329255</ele>
        <time>2018-08-09T16:11:56Z</time>
      </trkpt>
      <trkpt lat="44.415622" lon="8.920900">
        <ele>15.068268</ele>
        <time>2018-08-09T16:12:12Z</time>
      </trkpt>
      <trkpt lat="44.415395" lon="8.918835">
        <ele>7.651510</ele>
        <time>2018-08-09T16:12:27Z</time>
      </trkpt>
      <trkpt lat="44.414977" lon="8.916989">
        <ele>8.125945</ele>
        <time>2018-08-09T16:12:42Z</time>
      </trkpt>
      <trkpt lat="44.414946" lon="8.915764">
        <ele>4.038593</ele>
        <time>2018-08-09T16:12:57Z</time>
      </trkpt>
      <trkpt lat="44.414997" lon="8.915560">
        <ele>4.967838</ele>
        <time>2018-08-09T16:13:46Z</time>
      </trkpt>
      <trkpt lat="44.414708" lon="8.914005">
        <ele>10.584717</ele>
        <time>2018-08-09T16:14:01Z</time>
      </trkpt>
      <trkpt lat="44.414339" lon="8.913057">
        <ele>9.467657</ele>
        <time>2018-08-09T16:14:59Z</time>
      </trkpt>
      <trkpt lat="44.413820" lon="8.911823">
        <ele>8.265316</ele>
        <time>2018-08-09T16:15:14Z</time>
      </trkpt>
      <trkpt lat="44.413120" lon="8.910295">
        <ele>9.941601</ele>
        <time>2018-08-09T16:15:30Z</time>
      </trkpt>
      <trkpt lat="44.412393" lon="8.909314">
        <ele>18.090956</ele>
        <time>2018-08-09T16:15:45Z</time>
      </trkpt>
      <trkpt lat="44.411468" lon="8.908286">
        <ele>12.425592</ele>
        <time>2018-08-09T16:16:01Z</time>
      </trkpt>
      <trkpt lat="44.411501" lon="8.908014">
        <ele>13.400586</ele>
        <time>2018-08-09T16:16:16Z</time>
      </trkpt>
      <trkpt lat="44.411872" lon="8.906803">
        <ele>24.801935</ele>
        <time>2018-08-09T16:16:31Z</time>
      </trkpt>
      <trkpt lat="44.411397" lon="8.905602">
        <ele>25.556519</ele>
        <time>2018-08-09T16:16:46Z</time>
      </trkpt>
      <trkpt lat="44.410897" lon="8.904136">
        <ele>23.016209</ele>
        <time>2018-08-09T16:17:01Z</time>
      </trkpt>
      <trkpt lat="44.410692" lon="8.903024">
        <ele>27.618584</ele>
        <time>2018-08-09T16:17:17Z</time>
      </trkpt>
      <trkpt lat="44.410719" lon="8.902769">
        <ele>29.171749</ele>
        <time>2018-08-09T16:17:55Z</time>
      </trkpt>
      <trkpt lat="44.411316" lon="8.901742">
        <ele>29.914581</ele>
        <time>2018-08-09T16:18:10Z</time>
      </trkpt>
      <trkpt lat="44.411414" lon="8.901521">
        <ele>31.085566</ele>
        <time>2018-08-09T16:18:25Z</time>
      </trkpt>
      <trkpt lat="44.411449" lon="8.901315">
        <ele>31.698866</ele>
        <time>2018-08-09T16:18:46Z</time>
      </trkpt>
      <trkpt lat="44.411425" lon="8.900837">
        <ele>31.813509</ele>
        <time>2018-08-09T16:19:02Z</time>
      </trkpt>
      <trkpt lat="44.411520" lon="8.900509">
        <ele>32.628326</ele>
        <time>2018-08-09T16:19:17Z</time>
      </trkpt>
      <trkpt lat="44.411671" lon="8.900409">
        <ele>33.997746</ele>
        <time>2018-08-09T16:19:41Z</time>
      </trkpt>
      <trkpt lat="44.413276" lon="8.900292">
        <ele>42.780109</ele>
        <time>2018-08-09T16:19:57Z</time>
      </trkpt>
      <trkpt lat="44.415037" lon="8.901692">
        <ele>46.420525</ele>
        <time>2018-08-09T16:20:12Z</time>
      </trkpt>
      <trkpt lat="44.417350" lon="8.902665">
        <ele>60.338345</ele>
        <time>2018-08-09T16:20:28Z</time>
      </trkpt>
      <trkpt lat="44.417626" lon="8.902587">
        <ele>60.972359</ele>
        <time>2018-08-09T16:20:45Z</time>
      </trkpt>
      <trkpt lat="44.417794" lon="8.902483">
        <ele>61.723484</ele>
        <time>2018-08-09T16:21:01Z</time>
      </trkpt>
      <trkpt lat="44.417922" lon="8.902384">
        <ele>64.274078</ele>
        <time>2018-08-09T16:21:21Z</time>
      </trkpt>
      <trkpt lat="44.418085" lon="8.902348">
        <ele>66.523399</ele>
        <time>2018-08-09T16:21:56Z</time>
      </trkpt>
      <trkpt lat="44.419236" lon="8.901337">
        <ele>76.334259</ele>
        <time>2018-08-09T16:22:11Z</time>
      </trkpt>
      <trkpt lat="44.420921" lon="8.899440">
        <ele>112.828560</ele>
        <time>2018-08-09T16:22:27Z</time>
      </trkpt>
      <trkpt lat="44.422601" lon="8.894550">
        <ele>66.300682</ele>
        <time>2018-08-09T16:22:43Z</time>
      </trkpt>
      <trkpt lat="44.425047" lon="8.894470">
        <ele>70.019524</ele>
        <time>2018-08-09T16:22:58Z</time>
      </trkpt>
      <trkpt lat="44.426838" lon="8.896963">
        <ele>75.012177</ele>
        <time>2018-08-09T16:23:14Z</time>
      </trkpt>
      <trkpt lat="44.428124" lon="8.899522">
        <ele>132.192017</ele>
        <time>2018-08-09T16:23:29Z</time>
      </trkpt>
      <trkpt lat="44.431398" lon="8.900126">
        <ele>94.860794</ele>
        <time>2018-08-09T16:23:44Z</time>
      </trkpt>
      <trkpt lat="44.434446" lon="8.900309">
        <ele>78.219131</ele>
        <time>2018-08-09T16:24:01Z</time>
      </trkpt>
      <trkpt lat="44.437731" lon="8.901254">
        <ele>59.879807</ele>
        <time>2018-08-09T16:24:17Z</time>
      </trkpt>
      <trkpt lat="44.440474" lon="8.903377">
        <ele>70.208694</ele>
        <time>2018-08-09T16:24:33Z</time>
      </trkpt>
      <trkpt lat="44.443187" lon="8.903920">
        <ele>44.520477</ele>
        <time>2018-08-09T16:24:48Z</time>
      </trkpt>
      <trkpt lat="44.446302" lon="8.903834">
        <ele>94.851547</ele>
        <time>2018-08-09T16:25:04Z</time>
      </trkpt>
      <trkpt lat="44.452352" lon="8.903822">
        <ele>88.833405</ele>
        <time>2018-08-09T16:25:32Z</time>
      </trkpt>
      <trkpt lat="44.455529" lon="8.903918">
        <ele>64.965004</ele>
        <time>2018-08-09T16:25:48Z</time>
      </trkpt>
      <trkpt lat="44.458399" lon="8.904742">
        <ele>86.964569</ele>
        <time>2018-08-09T16:26:03Z</time>
      </trkpt>
      <trkpt lat="44.466245" lon="8.903137">
        <ele>52.602680</ele>
        <time>2018-08-09T16:26:35Z</time>
      </trkpt>
      <trkpt lat="44.466913" lon="8.907202">
        <ele>80.951218</ele>
        <time>2018-08-09T16:26:50Z</time>
      </trkpt>
      <trkpt lat="44.467609" lon="8.908110">
        <ele>97.834480</ele>
        <time>2018-08-09T16:27:06Z</time>
      </trkpt>
      <trkpt lat="44.468064" lon="8.907748">
        <ele>82.725533</ele>
        <time>2018-08-09T16:27:22Z</time>
      </trkpt>
      <trkpt lat="44.468019" lon="8.906571">
        <ele>58.903900</ele>
        <time>2018-08-09T16:27:37Z</time>
      </trkpt>
      <trkpt lat="44.467055" lon="8.906493">
        <ele>62.578751</ele>
        <time>2018-08-09T16:27:53Z</time>
      </trkpt>
      <trkpt lat="44.466944" lon="8.906351">
        <ele>62.060841</ele>
        <time>2018-08-09T16:28:09Z</time>
      </trkpt>
      <trkpt lat="44.466806" lon="8.906352">
        <ele>63.137810</ele>
        <time>2018-08-09T16:28:46Z</time>
      </trkpt>
      <trkpt lat="44.465500" lon="8.905808">
        <ele>62.002968</ele>
        <time>2018-08-09T16:29:02Z</time>
      </trkpt>
      <trkpt lat="44.464834" lon="8.905136">
        <ele>61.746284</ele>
        <time>2018-08-09T16:29:17Z</time>
      </trkpt>
      <trkpt lat="44.464791" lon="8.904928">
        <ele>59.967995</ele>
        <time>2018-08-09T16:32:08Z</time>
      </trkpt>
      <trkpt lat="44.465231" lon="8.904753">
        <ele>55.341331</ele>
        <time>2018-08-09T16:32:24Z</time>
      </trkpt>
      <trkpt lat="44.465349" lon="8.905334">
        <ele>59.159454</ele>
        <time>2018-08-09T16:32:39Z</time>
      </trkpt>
      <trkpt lat="44.465462" lon="8.905454">
        <ele>59.528336</ele>
        <time>2018-08-09T16:36:37Z</time>
      </trkpt>
      <trkpt lat="44.465564" lon="8.905295">
        <ele>57.751469</ele>
        <time>2018-08-09T16:36:54Z</time>
      </trkpt>
      <trkpt lat="44.465145" lon="8.904524">
        <ele>54.467079</ele>
        <time>2018-08-09T16:37:10Z</time>
      </trkpt>
      <trkpt lat="44.464462" lon="8.904379">
        <ele>58.720818</ele>
        <time>2018-08-09T16:37:25Z</time>
      </trkpt>
      <trkpt lat="44.465147" lon="8.905870">
        <ele>66.654564</ele>
        <time>2018-08-09T16:37:40Z</time>
      </trkpt>
      <trkpt lat="44.465988" lon="8.906365">
        <ele>70.392151</ele>
        <time>2018-08-09T16:37:56Z</time>
      </trkpt>
      <trkpt lat="44.466150" lon="8.906461">
        <ele>70.818047</ele>
        <time>2018-08-09T16:38:12Z</time>
      </trkpt>
      <trkpt lat="44.466662" lon="8.906660">
        <ele>67.981873</ele>
        <time>2018-08-09T16:38:27Z</time>
      </trkpt>
      <trkpt lat="44.468037" lon="8.906665">
        <ele>59.349503</ele>
        <time>2018-08-09T16:38:43Z</time>
      </trkpt>
      <trkpt lat="44.467268" lon="8.907045">
        <ele>70.351196</ele>
        <time>2018-08-09T16:38:59Z</time>
      </trkpt>
      <trkpt lat="44.464994" lon="8.905918">
        <ele>69.708382</ele>
        <time>2018-08-09T16:39:14Z</time>
      </trkpt>
      <trkpt lat="44.463548" lon="8.903629">
        <ele>73.840530</ele>
        <time>2018-08-09T16:39:30Z</time>
      </trkpt>
      <trkpt lat="44.462018" lon="8.902586">
        <ele>71.715561</ele>
        <time>2018-08-09T16:39:45Z</time>
      </trkpt>
      <trkpt lat="44.459716" lon="8.903192">
        <ele>68.185272</ele>
        <time>2018-08-09T16:40:02Z</time>
      </trkpt>
      <trkpt lat="44.457284" lon="8.904193">
        <ele>58.329178</ele>
        <time>2018-08-09T16:40:18Z</time>
      </trkpt>
      <trkpt lat="44.454965" lon="8.902384">
        <ele>66.041679</ele>
        <time>2018-08-09T16:40:34Z</time>
      </trkpt>
      <trkpt lat="44.454547" lon="8.898542">
        <ele>52.434574</ele>
        <time>2018-08-09T16:40:50Z</time>
      </trkpt>
      <trkpt lat="44.452828" lon="8.896095">
        <ele>54.314022</ele>
        <time>2018-08-09T16:41:05Z</time>
      </trkpt>
      <trkpt lat="44.450874" lon="8.895952">
        <ele>57.872505</ele>
        <time>2018-08-09T16:41:20Z</time>
      </trkpt>
      <trkpt lat="44.448948" lon="8.896213">
        <ele>57.195705</ele>
        <time>2018-08-09T16:41:35Z</time>
      </trkpt>
      <trkpt lat="44.446496" lon="8.896737">
        <ele>56.738987</ele>
        <time>2018-08-09T16:41:50Z</time>
      </trkpt>
      <trkpt lat="44.444280" lon="8.896601">
        <ele>56.506557</ele>
        <time>2018-08-09T16:42:06Z</time>
      </trkpt>
      <trkpt lat="44.442899" lon="8.894184">
        <ele>46.072571</ele>
        <time>2018-08-09T16:42:22Z</time>
      </trkpt>
      <trkpt lat="44.441016" lon="8.892982">
        <ele>50.707664</ele>
        <time>2018-08-09T16:42:38Z</time>
      </trkpt>
      <trkpt lat="44.438800" lon="8.893467">
        <ele>45.710896</ele>
        <time>2018-08-09T16:42:54Z</time>
      </trkpt>
      <trkpt lat="44.436687" lon="8.894947">
        <ele>28.865440</ele>
        <time>2018-08-09T16:43:10Z</time>
      </trkpt>
      <trkpt lat="44.433876" lon="8.896075">
        <ele>58.030510</ele>
        <time>2018-08-09T16:43:31Z</time>
      </trkpt>
      <trkpt lat="44.430903" lon="8.897746">
        <ele>68.847366</ele>
        <time>2018-08-09T16:43:52Z</time>
      </trkpt>
      <trkpt lat="44.429046" lon="8.897852">
        <ele>84.689438</ele>
        <time>2018-08-09T16:44:08Z</time>
      </trkpt>
      <trkpt lat="44.427311" lon="8.898230">
        <ele>82.594093</ele>
        <time>2018-08-09T16:44:24Z</time>
      </trkpt>
      <trkpt lat="44.426605" lon="8.895566">
        <ele>60.303242</ele>
        <time>2018-08-09T16:44:39Z</time>
      </trkpt>
      <trkpt lat="44.425099" lon="8.894258">
        <ele>61.089134</ele>
        <time>2018-08-09T16:44:55Z</time>
      </trkpt>
      <trkpt lat="44.424264" lon="8.892742">
        <ele>38.888836</ele>
        <time>2018-08-09T16:45:11Z</time>
      </trkpt>
      <trkpt lat="44.425084" lon="8.890787">
        <ele>16.793280</ele>
        <time>2018-08-09T16:45:27Z</time>
      </trkpt>
      <trkpt lat="44.426398" lon="8.887801">
        <ele>14.387851</ele>
        <time>2018-08-09T16:45:42Z</time>
      </trkpt>
      <trkpt lat="44.427941" lon="8.883998">
        <ele>16.115009</ele>
        <time>2018-08-09T16:45:58Z</time>
      </trkpt>
      <trkpt lat="44.426377" lon="8.876980">
        <ele>132.267715</ele>
        <time>2018-08-09T16:46:24Z</time>
      </trkpt>
      <trkpt lat="44.424185" lon="8.869512">
        <ele>77.278946</ele>
        <time>2018-08-09T16:46:47Z</time>
      </trkpt>
      <trkpt lat="44.426030" lon="8.862609">
        <ele>109.494720</ele>
        <time>2018-08-09T16:47:18Z</time>
      </trkpt>
      <trkpt lat="44.428974" lon="8.858217">
        <ele>18.881359</ele>
        <time>2018-08-09T16:47:33Z</time>
      </trkpt>
      <trkpt lat="44.430045" lon="8.853900">
        <ele>24.183790</ele>
        <time>2018-08-09T16:47:48Z</time>
      </trkpt>
      <trkpt lat="44.430997" lon="8.849377">
        <ele>55.993179</ele>
        <time>2018-08-09T16:48:03Z</time>
      </trkpt>
      <trkpt lat="44.430448" lon="8.844718">
        <ele>45.514755</ele>
        <time>2018-08-09T16:48:19Z</time>
      </trkpt>
      <trkpt lat="44.430675" lon="8.839016">
        <ele>47.465057</ele>
        <time>2018-08-09T16:48:37Z</time>
      </trkpt>
      <trkpt lat="44.430204" lon="8.836493">
        <ele>54.586327</ele>
        <time>2018-08-09T16:48:52Z</time>
      </trkpt>
      <trkpt lat="44.429547" lon="8.831971">
        <ele>65.329018</ele>
        <time>2018-08-09T16:49:08Z</time>
      </trkpt>
      <trkpt lat="44.429591" lon="8.827379">
        <ele>60.243576</ele>
        <time>2018-08-09T16:49:23Z</time>
      </trkpt>
      <trkpt lat="44.429220" lon="8.823939">
        <ele>33.889244</ele>
        <time>2018-08-09T16:49:39Z</time>
      </trkpt>
      <trkpt lat="44.430315" lon="8.819940">
        <ele>18.927155</ele>
        <time>2018-08-09T16:49:55Z</time>
      </trkpt>
      <trkpt lat="44.432204" lon="8.809490">
        <ele>79.049271</ele>
        <time>2018-08-09T16:50:34Z</time>
      </trkpt>
      <trkpt lat="44.431748" lon="8.803812">
        <ele>123.715576</ele>
        <time>2018-08-09T16:50:50Z</time>
      </trkpt>
      <trkpt lat="44.432734" lon="8.794877">
        <ele>81.026367</ele>
        <time>2018-08-09T16:51:13Z</time>
      </trkpt>
      <trkpt lat="44.432830" lon="8.789768">
        <ele>52.804405</ele>
        <time>2018-08-09T16:51:28Z</time>
      </trkpt>
      <trkpt lat="44.431210" lon="8.784735">
        <ele>65.715050</ele>
        <time>2018-08-09T16:51:44Z</time>
      </trkpt>
      <trkpt lat="44.429856" lon="8.778973">
        <ele>40.050972</ele>
        <time>2018-08-09T16:52:05Z</time>
      </trkpt>
      <trkpt lat="44.430314" lon="8.772517">
        <ele>35.850494</ele>
        <time>2018-08-09T16:52:20Z</time>
      </trkpt>
      <trkpt lat="44.429920" lon="8.767852">
        <ele>16.092106</ele>
        <time>2018-08-09T16:52:35Z</time>
      </trkpt>
      <trkpt lat="44.430457" lon="8.762628">
        <ele>24.669403</ele>
        <time>2018-08-09T16:52:51Z</time>
      </trkpt>
      <trkpt lat="44.430257" lon="8.757446">
        <ele>37.763123</ele>
        <time>2018-08-09T16:53:07Z</time>
      </trkpt>
      <trkpt lat="44.431960" lon="8.752192">
        <ele>45.317238</ele>
        <time>2018-08-09T16:53:23Z</time>
      </trkpt>
      <trkpt lat="44.434007" lon="8.747666">
        <ele>24.147738</ele>
        <time>2018-08-09T16:53:38Z</time>
      </trkpt>
      <trkpt lat="44.433550" lon="8.741157">
        <ele>107.108894</ele>
        <time>2018-08-09T16:53:57Z</time>
      </trkpt>
      <trkpt lat="44.428530" lon="8.740193">
        <ele>80.286583</ele>
        <time>2018-08-09T16:54:13Z</time>
      </trkpt>
      <trkpt lat="44.425847" lon="8.735981">
        <ele>84.900742</ele>
        <time>2018-08-09T16:54:28Z</time>
      </trkpt>
      <trkpt lat="44.422336" lon="8.728900">
        <ele>108.249817</ele>
        <time>2018-08-09T16:54:52Z</time>
      </trkpt>
      <trkpt lat="44.419543" lon="8.724478">
        <ele>114.606003</ele>
        <time>2018-08-09T16:55:07Z</time>
      </trkpt>
      <trkpt lat="44.420493" lon="8.716366">
        <ele>110.819855</ele>
        <time>2018-08-09T16:55:27Z</time>
      </trkpt>
      <trkpt lat="44.418068" lon="8.710692">
        <ele>117.629684</ele>
        <time>2018-08-09T16:55:43Z</time>
      </trkpt>
      <trkpt lat="44.416102" lon="8.704845">
        <ele>61.026199</ele>
        <time>2018-08-09T16:55:59Z</time>
      </trkpt>
      <trkpt lat="44.414751" lon="8.699428">
        <ele>133.110962</ele>
        <time>2018-08-09T16:56:15Z</time>
      </trkpt>
      <trkpt lat="44.411534" lon="8.695722">
        <ele>95.426926</ele>
        <time>2018-08-09T16:56:30Z</time>
      </trkpt>
      <trkpt lat="44.410223" lon="8.689970">
        <ele>79.098640</ele>
        <time>2018-08-09T16:56:45Z</time>
      </trkpt>
      <trkpt lat="44.408968" lon="8.684256">
        <ele>41.225056</ele>
        <time>2018-08-09T16:57:01Z</time>
      </trkpt>
      <trkpt lat="44.407392" lon="8.678113">
        <ele>66.543365</ele>
        <time>2018-08-09T16:57:17Z</time>
      </trkpt>
      <trkpt lat="44.404569" lon="8.672751">
        <ele>57.440323</ele>
        <time>2018-08-09T16:57:33Z</time>
      </trkpt>
      <trkpt lat="44.402147" lon="8.667856">
        <ele>62.586353</ele>
        <time>2018-08-09T16:57:48Z</time>
      </trkpt>
      <trkpt lat="44.398541" lon="8.661675">
        <ele>54.902435</ele>
        <time>2018-08-09T16:58:08Z</time>
      </trkpt>
      <trkpt lat="44.395901" lon="8.654513">
        <ele>118.593567</ele>
        <time>2018-08-09T16:58:28Z</time>
      </trkpt>
      <trkpt lat="44.393962" lon="8.646945">
        <ele>99.213753</ele>
        <time>2018-08-09T16:58:48Z</time>
      </trkpt>
      <trkpt lat="44.393679" lon="8.641344">
        <ele>86.884262</ele>
        <time>2018-08-09T16:59:03Z</time>
      </trkpt>
      <trkpt lat="44.391323" lon="8.633534">
        <ele>78.251801</ele>
        <time>2018-08-09T16:59:25Z</time>
      </trkpt>
      <trkpt lat="44.387104" lon="8.626205">
        <ele>66.634689</ele>
        <time>2018-08-09T16:59:47Z</time>
      </trkpt>
      <trkpt lat="44.384035" lon="8.622323">
        <ele>39.184261</ele>
        <time>2018-08-09T17:00:02Z</time>
      </trkpt>
      <trkpt lat="44.379456" lon="8.621455">
        <ele>73.374207</ele>
        <time>2018-08-09T17:00:19Z</time>
      </trkpt>
      <trkpt lat="44.375173" lon="8.621663">
        <ele>73.086891</ele>
        <time>2018-08-09T17:00:34Z</time>
      </trkpt>
      <trkpt lat="44.372237" lon="8.618164">
        <ele>79.696915</ele>
        <time>2018-08-09T17:00:50Z</time>
      </trkpt>
      <trkpt lat="44.369991" lon="8.613269">
        <ele>84.034607</ele>
        <time>2018-08-09T17:01:05Z</time>
      </trkpt>
      <trkpt lat="44.368932" lon="8.606776">
        <ele>85.910851</ele>
        <time>2018-08-09T17:01:21Z</time>
      </trkpt>
      <trkpt lat="44.366816" lon="8.601141">
        <ele>91.123108</ele>
        <time>2018-08-09T17:01:36Z</time>
      </trkpt>
      <trkpt lat="44.364428" lon="8.588873">
        <ele>88.212227</ele>
        <time>2018-08-09T17:02:08Z</time>
      </trkpt>
      <trkpt lat="44.365269" lon="8.582219">
        <ele>110.317200</ele>
        <time>2018-08-09T17:02:24Z</time>
      </trkpt>
      <trkpt lat="44.367765" lon="8.573826">
        <ele>37.566689</ele>
        <time>2018-08-09T17:02:48Z</time>
      </trkpt>
      <trkpt lat="44.362197" lon="8.564420">
        <ele>71.548813</ele>
        <time>2018-08-09T17:03:22Z</time>
      </trkpt>
      <trkpt lat="44.356753" lon="8.562655">
        <ele>36.387886</ele>
        <time>2018-08-09T17:03:37Z</time>
      </trkpt>
      <trkpt lat="44.353035" lon="8.559754">
        <ele>52.467216</ele>
        <time>2018-08-09T17:03:52Z</time>
      </trkpt>
      <trkpt lat="44.349417" lon="8.554475">
        <ele>61.474155</ele>
        <time>2018-08-09T17:04:13Z</time>
      </trkpt>
      <trkpt lat="44.348998" lon="8.549747">
        <ele>44.919384</ele>
        <time>2018-08-09T17:04:29Z</time>
      </trkpt>
      <trkpt lat="44.348507" lon="8.544684">
        <ele>41.212318</ele>
        <time>2018-08-09T17:04:45Z</time>
      </trkpt>
      <trkpt lat="44.345191" lon="8.540218">
        <ele>43.134235</ele>
        <time>2018-08-09T17:05:04Z</time>
      </trkpt>
      <trkpt lat="44.341325" lon="8.536584">
        <ele>76.687126</ele>
        <time>2018-08-09T17:05:21Z</time>
      </trkpt>
      <trkpt lat="44.338684" lon="8.531780">
        <ele>49.351536</ele>
        <time>2018-08-09T17:05:37Z</time>
      </trkpt>
      <trkpt lat="44.336519" lon="8.525704">
        <ele>57.182949</ele>
        <time>2018-08-09T17:05:56Z</time>
      </trkpt>
      <trkpt lat="44.336314" lon="8.517021">
        <ele>19.044275</ele>
        <time>2018-08-09T17:06:16Z</time>
      </trkpt>
      <trkpt lat="44.334909" lon="8.511239">
        <ele>9.377594</ele>
        <time>2018-08-09T17:06:32Z</time>
      </trkpt>
      <trkpt lat="44.335067" lon="8.505511">
        <ele>4.386475</ele>
        <time>2018-08-09T17:06:47Z</time>
      </trkpt>
      <trkpt lat="44.333743" lon="8.500756">
        <ele>36.870689</ele>
        <time>2018-08-09T17:07:05Z</time>
      </trkpt>
      <trkpt lat="44.329124" lon="8.496844">
        <ele>84.689545</ele>
        <time>2018-08-09T17:07:21Z</time>
      </trkpt>
      <trkpt lat="44.325916" lon="8.492805">
        <ele>73.256798</ele>
        <time>2018-08-09T17:07:37Z</time>
      </trkpt>
      <trkpt lat="44.323208" lon="8.487978">
        <ele>73.814941</ele>
        <time>2018-08-09T17:07:52Z</time>
      </trkpt>
      <trkpt lat="44.321520" lon="8.482853">
        <ele>74.439423</ele>
        <time>2018-08-09T17:08:08Z</time>
      </trkpt>
      <trkpt lat="44.319092" lon="8.478968">
        <ele>61.976093</ele>
        <time>2018-08-09T17:08:23Z</time>
      </trkpt>
      <trkpt lat="44.318581" lon="8.473915">
        <ele>44.823242</ele>
        <time>2018-08-09T17:08:38Z</time>
      </trkpt>
      <trkpt lat="44.316218" lon="8.469992">
        <ele>33.939079</ele>
        <time>2018-08-09T17:08:54Z</time>
      </trkpt>
      <trkpt lat="44.312591" lon="8.467937">
        <ele>54.109623</ele>
        <time>2018-08-09T17:09:10Z</time>
      </trkpt>
      <trkpt lat="44.308870" lon="8.465641">
        <ele>60.869614</ele>
        <time>2018-08-09T17:09:25Z</time>
      </trkpt>
      <trkpt lat="44.305805" lon="8.461469">
        <ele>63.586578</ele>
        <time>2018-08-09T17:09:40Z</time>
      </trkpt>
      <trkpt lat="44.304438" lon="8.455719">
        <ele>49.203629</ele>
        <time>2018-08-09T17:09:55Z</time>
      </trkpt>
      <trkpt lat="44.303511" lon="8.450421">
        <ele>30.548874</ele>
        <time>2018-08-09T17:10:10Z</time>
      </trkpt>
      <trkpt lat="44.300859" lon="8.446872">
        <ele>46.807297</ele>
        <time>2018-08-09T17:10:26Z</time>
      </trkpt>
      <trkpt lat="44.297087" lon="8.446222">
        <ele>39.695213</ele>
        <time>2018-08-09T17:10:42Z</time>
      </trkpt>
      <trkpt lat="44.293549" lon="8.446259">
        <ele>40.515213</ele>
        <time>2018-08-09T17:10:57Z</time>
      </trkpt>
      <trkpt lat="44.290583" lon="8.444701">
        <ele>43.898525</ele>
        <time>2018-08-09T17:11:13Z</time>
      </trkpt>
      <trkpt lat="44.288782" lon="8.441113">
        <ele>23.515507</ele>
        <time>2018-08-09T17:11:29Z</time>
      </trkpt>
      <trkpt lat="44.287649" lon="8.438073">
        <ele>25.701288</ele>
        <time>2018-08-09T17:11:44Z</time>
      </trkpt>
      <trkpt lat="44.288042" lon="8.438692">
        <ele>26.444416</ele>
        <time>2018-08-09T17:12:00Z</time>
      </trkpt>
      <trkpt lat="44.286829" lon="8.440537">
        <ele>19.421875</ele>
        <time>2018-08-09T17:12:15Z</time>
      </trkpt>
      <trkpt lat="44.286767" lon="8.441317">
        <ele>21.083000</ele>
        <time>2018-08-09T17:12:50Z</time>
      </trkpt>
      <trkpt lat="44.286776" lon="8.441521">
        <ele>21.784584</ele>
        <time>2018-08-09T17:13:22Z</time>
      </trkpt>
      <trkpt lat="44.286813" lon="8.441715">
        <ele>22.514254</ele>
        <time>2018-08-09T17:13:48Z</time>
      </trkpt>
      <trkpt lat="44.286542" lon="8.443592">
        <ele>26.714041</ele>
        <time>2018-08-09T17:14:04Z</time>
      </trkpt>
      <trkpt lat="44.287004" lon="8.445408">
        <ele>23.055075</ele>
        <time>2018-08-09T17:14:20Z</time>
      </trkpt>
      <trkpt lat="44.287226" lon="8.445856">
        <ele>20.887756</ele>
        <time>2018-08-09T17:14:35Z</time>
      </trkpt>
      <trkpt lat="44.288266" lon="8.447707">
        <ele>20.279470</ele>
        <time>2018-08-09T17:14:51Z</time>
      </trkpt>
      <trkpt lat="44.289378" lon="8.449201">
        <ele>15.205593</ele>
        <time>2018-08-09T17:15:06Z</time>
      </trkpt>
      <trkpt lat="44.291104" lon="8.450435">
        <ele>17.157513</ele>
        <time>2018-08-09T17:15:22Z</time>
      </trkpt>
      <trkpt lat="44.292876" lon="8.451009">
        <ele>10.578979</ele>
        <time>2018-08-09T17:15:37Z</time>
      </trkpt>
      <trkpt lat="44.293635" lon="8.452098">
        <ele>8.650683</ele>
        <time>2018-08-09T17:15:53Z</time>
      </trkpt>
      <trkpt lat="44.293503" lon="8.452888">
        <ele>8.258730</ele>
        <time>2018-08-09T17:16:08Z</time>
      </trkpt>
      <trkpt lat="44.294137" lon="8.453815">
        <ele>9.547984</ele>
        <time>2018-08-09T17:16:24Z</time>
      </trkpt>
      <trkpt lat="44.295017" lon="8.454954">
        <ele>9.144012</ele>
        <time>2018-08-09T17:16:39Z</time>
      </trkpt>
      <trkpt lat="44.295952" lon="8.456547">
        <ele>8.020529</ele>
        <time>2018-08-09T17:16:54Z</time>
      </trkpt>
      <trkpt lat="44.296946" lon="8.458280">
        <ele>9.559119</ele>
        <time>2018-08-09T17:17:09Z</time>
      </trkpt>
      <trkpt lat="44.297947" lon="8.460066">
        <ele>9.000000</ele>
        <time>2018-08-09T17:17:25Z</time>
      </trkpt>
      <trkpt lat="44.298484" lon="8.461534">
        <ele>9.512864</ele>
        <time>2018-08-09T17:17:41Z</time>
      </trkpt>
      <trkpt lat="44.298640" lon="8.461990">
        <ele>10.245856</ele>
        <time>2018-08-09T17:17:56Z</time>
      </trkpt>
      <trkpt lat="44.298733" lon="8.462697">
        <ele>10.570464</ele>
        <time>2018-08-09T17:18:11Z</time>
      </trkpt>
      <trkpt lat="44.299160" lon="8.464037">
        <ele>8.470535</ele>
        <time>2018-08-09T17:18:27Z</time>
      </trkpt>
      <trkpt lat="44.300068" lon="8.465628">
        <ele>9.423955</ele>
        <time>2018-08-09T17:18:42Z</time>
      </trkpt>
      <trkpt lat="44.300930" lon="8.467065">
        <ele>10.488250</ele>
        <time>2018-08-09T17:18:57Z</time>
      </trkpt>
      <trkpt lat="44.301829" lon="8.468614">
        <ele>10.987013</ele>
        <time>2018-08-09T17:19:13Z</time>
      </trkpt>
      <trkpt lat="44.302477" lon="8.468904">
        <ele>11.595613</ele>
        <time>2018-08-09T17:19:29Z</time>
      </trkpt>
      <trkpt lat="44.302646" lon="8.469647">
        <ele>13.596994</ele>
        <time>2018-08-09T17:19:45Z</time>
      </trkpt>
      <trkpt lat="44.302600" lon="8.469986">
        <ele>14.204124</ele>
        <time>2018-08-09T17:20:01Z</time>
      </trkpt>
      <trkpt lat="44.302750" lon="8.471030">
        <ele>15.550941</ele>
        <time>2018-08-09T17:20:16Z</time>
      </trkpt>
      <trkpt lat="44.303106" lon="8.472829">
        <ele>11.419470</ele>
        <time>2018-08-09T17:20:31Z</time>
      </trkpt>
      <trkpt lat="44.303309" lon="8.474236">
        <ele>14.072090</ele>
        <time>2018-08-09T17:20:47Z</time>
      </trkpt>
      <trkpt lat="44.303175" lon="8.474150">
        <ele>12.876247</ele>
        <time>2018-08-09T17:21:03Z</time>
      </trkpt>
      <trkpt lat="44.302823" lon="8.473818">
        <ele>11.350836</ele>
        <time>2018-08-09T17:21:19Z</time>
      </trkpt>
      <trkpt lat="44.302826" lon="8.474020">
        <ele>10.773090</ele>
        <time>2018-08-09T17:21:57Z</time>
      </trkpt>
      <trkpt lat="44.302904" lon="8.474218">
        <ele>11.033300</ele>
        <time>2018-08-09T17:23:18Z</time>
      </trkpt>
      <trkpt lat="44.302909" lon="8.474064">
        <ele>11.196370</ele>
        <time>2018-08-10T07:56:44Z</time>
      </trkpt>
      <trkpt lat="44.303199" lon="8.474133">
        <ele>13.057166</ele>
        <time>2018-08-10T07:58:11Z</time>
      </trkpt>
      <trkpt lat="44.303368" lon="8.474064">
        <ele>14.062866</ele>
        <time>2018-08-10T07:58:27Z</time>
      </trkpt>
      <trkpt lat="44.303201" lon="8.473192">
        <ele>12.995854</ele>
        <time>2018-08-10T07:58:43Z</time>
      </trkpt>
      <trkpt lat="44.302901" lon="8.471605">
        <ele>13.737091</ele>
        <time>2018-08-10T07:58:59Z</time>
      </trkpt>
      <trkpt lat="44.302678" lon="8.470314">
        <ele>15.020050</ele>
        <time>2018-08-10T07:59:15Z</time>
      </trkpt>
      <trkpt lat="44.302708" lon="8.469030">
        <ele>13.658184</ele>
        <time>2018-08-10T07:59:31Z</time>
      </trkpt>
      <trkpt lat="44.301990" lon="8.468715">
        <ele>11.140625</ele>
        <time>2018-08-10T07:59:46Z</time>
      </trkpt>
      <trkpt lat="44.300773" lon="8.466695">
        <ele>9.962250</ele>
        <time>2018-08-10T08:00:02Z</time>
      </trkpt>
      <trkpt lat="44.299329" lon="8.464328">
        <ele>8.664474</ele>
        <time>2018-08-10T08:00:18Z</time>
      </trkpt>
      <trkpt lat="44.298718" lon="8.462965">
        <ele>10.033113</ele>
        <time>2018-08-10T08:00:33Z</time>
      </trkpt>
      <trkpt lat="44.298957" lon="8.462416">
        <ele>11.918840</ele>
        <time>2018-08-10T08:00:49Z</time>
      </trkpt>
      <trkpt lat="44.298195" lon="8.460533">
        <ele>9.000000</ele>
        <time>2018-08-10T08:01:05Z</time>
      </trkpt>
      <trkpt lat="44.297403" lon="8.458913">
        <ele>9.035581</ele>
        <time>2018-08-10T08:01:20Z</time>
      </trkpt>
      <trkpt lat="44.296530" lon="8.457434">
        <ele>8.150845</ele>
        <time>2018-08-10T08:01:35Z</time>
      </trkpt>
      <trkpt lat="44.296353" lon="8.456449">
        <ele>8.162794</ele>
        <time>2018-08-10T08:01:51Z</time>
      </trkpt>
      <trkpt lat="44.295398" lon="8.455492">
        <ele>8.214126</ele>
        <time>2018-08-10T08:02:07Z</time>
      </trkpt>
      <trkpt lat="44.294424" lon="8.453944">
        <ele>10.351379</ele>
        <time>2018-08-10T08:02:23Z</time>
      </trkpt>
      <trkpt lat="44.293492" lon="8.451796">
        <ele>8.678043</ele>
        <time>2018-08-10T08:02:39Z</time>
      </trkpt>
      <trkpt lat="44.291626" lon="8.450478">
        <ele>15.639960</ele>
        <time>2018-08-10T08:02:54Z</time>
      </trkpt>
      <trkpt lat="44.289570" lon="8.449283">
        <ele>16.600613</ele>
        <time>2018-08-10T08:03:09Z</time>
      </trkpt>
      <trkpt lat="44.287922" lon="8.446947">
        <ele>21.715458</ele>
        <time>2018-08-10T08:03:25Z</time>
      </trkpt>
      <trkpt lat="44.287181" lon="8.445194">
        <ele>24.149014</ele>
        <time>2018-08-10T08:03:40Z</time>
      </trkpt>
      <trkpt lat="44.287012" lon="8.443186">
        <ele>25.896299</ele>
        <time>2018-08-10T08:03:56Z</time>
      </trkpt>
      <trkpt lat="44.287001" lon="8.442575">
        <ele>25.455074</ele>
        <time>2018-08-10T08:04:12Z</time>
      </trkpt>
      <trkpt lat="44.287007" lon="8.442384">
        <ele>25.048717</ele>
        <time>2018-08-10T08:04:31Z</time>
      </trkpt>
      <trkpt lat="44.287028" lon="8.441938">
        <ele>23.704151</ele>
        <time>2018-08-10T08:04:46Z</time>
      </trkpt>
      <trkpt lat="44.287035" lon="8.441747">
        <ele>23.130735</ele>
        <time>2018-08-10T08:05:22Z</time>
      </trkpt>
      <trkpt lat="44.287049" lon="8.441558">
        <ele>22.645378</ele>
        <time>2018-08-10T08:06:00Z</time>
      </trkpt>
      <trkpt lat="44.286998" lon="8.441378">
        <ele>22.031570</ele>
        <time>2018-08-10T08:06:20Z</time>
      </trkpt>
      <trkpt lat="44.287186" lon="8.439858">
        <ele>20.536596</ele>
        <time>2018-08-10T08:06:36Z</time>
      </trkpt>
      <trkpt lat="44.288497" lon="8.441188">
        <ele>23.508959</ele>
        <time>2018-08-10T08:06:51Z</time>
      </trkpt>
      <trkpt lat="44.289255" lon="8.443551">
        <ele>37.275948</ele>
        <time>2018-08-10T08:07:06Z</time>
      </trkpt>
      <trkpt lat="44.289156" lon="8.442446">
        <ele>29.601345</ele>
        <time>2018-08-10T08:07:22Z</time>
      </trkpt>
      <trkpt lat="44.290520" lon="8.440317">
        <ele>37.894485</ele>
        <time>2018-08-10T08:07:37Z</time>
      </trkpt>
      <trkpt lat="44.292162" lon="8.436865">
        <ele>60.340256</ele>
        <time>2018-08-10T08:07:52Z</time>
      </trkpt>
      <trkpt lat="44.294464" lon="8.433571">
        <ele>70.845154</ele>
        <time>2018-08-10T08:08:07Z</time>
      </trkpt>
      <trkpt lat="44.296684" lon="8.429406">
        <ele>94.389420</ele>
        <time>2018-08-10T08:08:22Z</time>
      </trkpt>
      <trkpt lat="44.299493" lon="8.425728">
        <ele>112.252007</ele>
        <time>2018-08-10T08:08:37Z</time>
      </trkpt>
      <trkpt lat="44.304460" lon="8.413456">
        <ele>135.901184</ele>
        <time>2018-08-10T08:09:17Z</time>
      </trkpt>
      <trkpt lat="44.306772" lon="8.408562">
        <ele>126.960510</ele>
        <time>2018-08-10T08:09:33Z</time>
      </trkpt>
      <trkpt lat="44.309429" lon="8.403928">
        <ele>132.833450</ele>
        <time>2018-08-10T08:09:48Z</time>
      </trkpt>
      <trkpt lat="44.311888" lon="8.399176">
        <ele>166.816833</ele>
        <time>2018-08-10T08:10:03Z</time>
      </trkpt>
      <trkpt lat="44.314724" lon="8.394766">
        <ele>190.676270</ele>
        <time>2018-08-10T08:10:18Z</time>
      </trkpt>
      <trkpt lat="44.317803" lon="8.390039">
        <ele>193.334412</ele>
        <time>2018-08-10T08:10:34Z</time>
      </trkpt>
      <trkpt lat="44.320439" lon="8.385462">
        <ele>214.038025</ele>
        <time>2018-08-10T08:10:50Z</time>
      </trkpt>
      <trkpt lat="44.321497" lon="8.380037">
        <ele>222.103729</ele>
        <time>2018-08-10T08:11:06Z</time>
      </trkpt>
      <trkpt lat="44.323771" lon="8.375116">
        <ele>233.839844</ele>
        <time>2018-08-10T08:11:22Z</time>
      </trkpt>
      <trkpt lat="44.325407" lon="8.369712">
        <ele>246.878052</ele>
        <time>2018-08-10T08:11:38Z</time>
      </trkpt>
      <trkpt lat="44.328938" lon="8.366873">
        <ele>264.141907</ele>
        <time>2018-08-10T08:11:54Z</time>
      </trkpt>
      <trkpt lat="44.332589" lon="8.367289">
        <ele>270.947418</ele>
        <time>2018-08-10T08:12:09Z</time>
      </trkpt>
      <trkpt lat="44.334830" lon="8.371738">
        <ele>313.297729</ele>
        <time>2018-08-10T08:12:25Z</time>
      </trkpt>
      <trkpt lat="44.335152" lon="8.376564">
        <ele>347.902344</ele>
        <time>2018-08-10T08:12:40Z</time>
      </trkpt>
      <trkpt lat="44.338015" lon="8.379319">
        <ele>315.787689</ele>
        <time>2018-08-10T08:12:56Z</time>
      </trkpt>
      <trkpt lat="44.341850" lon="8.378377">
        <ele>312.139801</ele>
        <time>2018-08-10T08:13:12Z</time>
      </trkpt>
      <trkpt lat="44.343724" lon="8.373994">
        <ele>340.212463</ele>
        <time>2018-08-10T08:13:27Z</time>
      </trkpt>
      <trkpt lat="44.345248" lon="8.369364">
        <ele>348.893951</ele>
        <time>2018-08-10T08:13:42Z</time>
      </trkpt>
      <trkpt lat="44.345144" lon="8.364166">
        <ele>367.922272</ele>
        <time>2018-08-10T08:13:58Z</time>
      </trkpt>
      <trkpt lat="44.344663" lon="8.361917">
        <ele>364.721649</ele>
        <time>2018-08-10T08:14:13Z</time>
      </trkpt>
      <trkpt lat="44.344139" lon="8.359585">
        <ele>383.769470</ele>
        <time>2018-08-10T08:14:29Z</time>
      </trkpt>
      <trkpt lat="44.343209" lon="8.355700">
        <ele>381.046448</ele>
        <time>2018-08-10T08:14:44Z</time>
      </trkpt>
      <trkpt lat="44.342086" lon="8.350397">
        <ele>405.872620</ele>
        <time>2018-08-10T08:15:00Z</time>
      </trkpt>
      <trkpt lat="44.341017" lon="8.345266">
        <ele>445.367065</ele>
        <time>2018-08-10T08:15:16Z</time>
      </trkpt>
      <trkpt lat="44.339539" lon="8.329371">
        <ele>410.413666</ele>
        <time>2018-08-10T08:15:59Z</time>
      </trkpt>
      <trkpt lat="44.342707" lon="8.326545">
        <ele>401.566284</ele>
        <time>2018-08-10T08:16:15Z</time>
      </trkpt>
      <trkpt lat="44.345347" lon="8.323804">
        <ele>396.412994</ele>
        <time>2018-08-10T08:16:31Z</time>
      </trkpt>
      <trkpt lat="44.346750" lon="8.320571">
        <ele>399.684631</ele>
        <time>2018-08-10T08:16:46Z</time>
      </trkpt>
      <trkpt lat="44.347489" lon="8.316258">
        <ele>392.039520</ele>
        <time>2018-08-10T08:17:01Z</time>
      </trkpt>
      <trkpt lat="44.349886" lon="8.312854">
        <ele>401.403931</ele>
        <time>2018-08-10T08:17:17Z</time>
      </trkpt>
      <trkpt lat="44.349000" lon="8.308209">
        <ele>404.076721</ele>
        <time>2018-08-10T08:17:32Z</time>
      </trkpt>
      <trkpt lat="44.346934" lon="8.303781">
        <ele>405.342102</ele>
        <time>2018-08-10T08:17:47Z</time>
      </trkpt>
      <trkpt lat="44.345039" lon="8.299181">
        <ele>394.730988</ele>
        <time>2018-08-10T08:18:02Z</time>
      </trkpt>
      <trkpt lat="44.344013" lon="8.293911">
        <ele>420.605774</ele>
        <time>2018-08-10T08:18:19Z</time>
      </trkpt>
      <trkpt lat="44.344603" lon="8.287634">
        <ele>434.021606</ele>
        <time>2018-08-10T08:18:37Z</time>
      </trkpt>
      <trkpt lat="44.345157" lon="8.281668">
        <ele>367.570923</ele>
        <time>2018-08-10T08:18:52Z</time>
      </trkpt>
      <trkpt lat="44.345712" lon="8.275625">
        <ele>398.695770</ele>
        <time>2018-08-10T08:19:07Z</time>
      </trkpt>
      <trkpt lat="44.346214" lon="8.269841">
        <ele>429.825562</ele>
        <time>2018-08-10T08:19:23Z</time>
      </trkpt>
      <trkpt lat="44.346035" lon="8.264432">
        <ele>473.625427</ele>
        <time>2018-08-10T08:19:38Z</time>
      </trkpt>
      <trkpt lat="44.346055" lon="8.257569">
        <ele>483.514374</ele>
        <time>2018-08-10T08:19:56Z</time>
      </trkpt>
      <trkpt lat="44.347812" lon="8.251999">
        <ele>468.478943</ele>
        <time>2018-08-10T08:20:12Z</time>
      </trkpt>
      <trkpt lat="44.350239" lon="8.246712">
        <ele>437.803131</ele>
        <time>2018-08-10T08:20:28Z</time>
      </trkpt>
      <trkpt lat="44.352460" lon="8.241862">
        <ele>499.850372</ele>
        <time>2018-08-10T08:20:43Z</time>
      </trkpt>
      <trkpt lat="44.355763" lon="8.234619">
        <ele>579.281128</ele>
        <time>2018-08-10T08:21:06Z</time>
      </trkpt>
      <trkpt lat="44.357650" lon="8.229411">
        <ele>528.376526</ele>
        <time>2018-08-10T08:21:22Z</time>
      </trkpt>
      <trkpt lat="44.357023" lon="8.223338">
        <ele>515.864563</ele>
        <time>2018-08-10T08:21:38Z</time>
      </trkpt>
      <trkpt lat="44.356512" lon="8.218208">
        <ele>510.624451</ele>
        <time>2018-08-10T08:21:53Z</time>
      </trkpt>
      <trkpt lat="44.355871" lon="8.208855">
        <ele>497.649109</ele>
        <time>2018-08-10T08:22:21Z</time>
      </trkpt>
      <trkpt lat="44.355604" lon="8.203014">
        <ele>524.647400</ele>
        <time>2018-08-10T08:22:37Z</time>
      </trkpt>
      <trkpt lat="44.356179" lon="8.197924">
        <ele>501.187927</ele>
        <time>2018-08-10T08:22:52Z</time>
      </trkpt>
      <trkpt lat="44.356652" lon="8.191834">
        <ele>480.468994</ele>
        <time>2018-08-10T08:23:08Z</time>
      </trkpt>
      <trkpt lat="44.356895" lon="8.184001">
        <ele>528.299500</ele>
        <time>2018-08-10T08:23:29Z</time>
      </trkpt>
      <trkpt lat="44.357041" lon="8.177833">
        <ele>526.106323</ele>
        <time>2018-08-10T08:23:46Z</time>
      </trkpt>
      <trkpt lat="44.357580" lon="8.171654">
        <ele>522.832153</ele>
        <time>2018-08-10T08:24:02Z</time>
      </trkpt>
      <trkpt lat="44.359161" lon="8.166069">
        <ele>560.573242</ele>
        <time>2018-08-10T08:24:18Z</time>
      </trkpt>
      <trkpt lat="44.360121" lon="8.161237">
        <ele>577.368042</ele>
        <time>2018-08-10T08:24:33Z</time>
      </trkpt>
      <trkpt lat="44.360391" lon="8.156265">
        <ele>592.942139</ele>
        <time>2018-08-10T08:24:49Z</time>
      </trkpt>
      <trkpt lat="44.358422" lon="8.151566">
        <ele>649.797607</ele>
        <time>2018-08-10T08:25:07Z</time>
      </trkpt>
      <trkpt lat="44.357991" lon="8.146204">
        <ele>632.626465</ele>
        <time>2018-08-10T08:25:23Z</time>
      </trkpt>
      <trkpt lat="44.361020" lon="8.143443">
        <ele>644.687805</ele>
        <time>2018-08-10T08:25:39Z</time>
      </trkpt>
      <trkpt lat="44.363234" lon="8.140003">
        <ele>643.738770</ele>
        <time>2018-08-10T08:25:54Z</time>
      </trkpt>
      <trkpt lat="44.364272" lon="8.135688">
        <ele>658.970459</ele>
        <time>2018-08-10T08:26:09Z</time>
      </trkpt>
      <trkpt lat="44.364452" lon="8.131289">
        <ele>678.202454</ele>
        <time>2018-08-10T08:26:24Z</time>
      </trkpt>
      <trkpt lat="44.366181" lon="8.127286">
        <ele>728.183044</ele>
        <time>2018-08-10T08:26:39Z</time>
      </trkpt>
      <trkpt lat="44.368710" lon="8.121978">
        <ele>660.324890</ele>
        <time>2018-08-10T08:26:55Z</time>
      </trkpt>
      <trkpt lat="44.372138" lon="8.120269">
        <ele>634.537964</ele>
        <time>2018-08-10T08:27:11Z</time>
      </trkpt>
      <trkpt lat="44.375072" lon="8.117331">
        <ele>612.467957</ele>
        <time>2018-08-10T08:27:26Z</time>
      </trkpt>
      <trkpt lat="44.377049" lon="8.112486">
        <ele>609.466614</ele>
        <time>2018-08-10T08:27:42Z</time>
      </trkpt>
      <trkpt lat="44.376599" lon="8.107237">
        <ele>597.266663</ele>
        <time>2018-08-10T08:27:58Z</time>
      </trkpt>
      <trkpt lat="44.373796" lon="8.104204">
        <ele>575.285645</ele>
        <time>2018-08-10T08:28:14Z</time>
      </trkpt>
      <trkpt lat="44.370024" lon="8.102951">
        <ele>540.532104</ele>
        <time>2018-08-10T08:28:29Z</time>
      </trkpt>
      <trkpt lat="44.367605" lon="8.098997">
        <ele>546.288086</ele>
        <time>2018-08-10T08:28:45Z</time>
      </trkpt>
      <trkpt lat="44.366316" lon="8.094976">
        <ele>518.773071</ele>
        <time>2018-08-10T08:29:00Z</time>
      </trkpt>
      <trkpt lat="44.369246" lon="8.094083">
        <ele>525.236938</ele>
        <time>2018-08-10T08:29:15Z</time>
      </trkpt>
      <trkpt lat="44.371977" lon="8.096180">
        <ele>509.165344</ele>
        <time>2018-08-10T08:29:30Z</time>
      </trkpt>
      <trkpt lat="44.373947" lon="8.092608">
        <ele>487.754181</ele>
        <time>2018-08-10T08:29:45Z</time>
      </trkpt>
      <trkpt lat="44.373918" lon="8.087433">
        <ele>466.583435</ele>
        <time>2018-08-10T08:30:01Z</time>
      </trkpt>
      <trkpt lat="44.373739" lon="8.082190">
        <ele>462.832214</ele>
        <time>2018-08-10T08:30:17Z</time>
      </trkpt>
      <trkpt lat="44.373695" lon="8.079102">
        <ele>462.963745</ele>
        <time>2018-08-10T08:30:32Z</time>
      </trkpt>
      <trkpt lat="44.373828" lon="8.078335">
        <ele>463.158997</ele>
        <time>2018-08-10T08:30:47Z</time>
      </trkpt>
      <trkpt lat="44.373694" lon="8.078231">
        <ele>461.905762</ele>
        <time>2018-08-10T08:53:43Z</time>
      </trkpt>
      <trkpt lat="44.373618" lon="8.077998">
        <ele>460.988770</ele>
        <time>2018-08-10T08:53:58Z</time>
      </trkpt>
      <trkpt lat="44.372966" lon="8.075594">
        <ele>457.998199</ele>
        <time>2018-08-10T08:54:14Z</time>
      </trkpt>
      <trkpt lat="44.372231" lon="8.070787">
        <ele>452.972870</ele>
        <time>2018-08-10T08:54:29Z</time>
      </trkpt>
      <trkpt lat="44.372374" lon="8.064809">
        <ele>443.057617</ele>
        <time>2018-08-10T08:54:45Z</time>
      </trkpt>
      <trkpt lat="44.372768" lon="8.058713">
        <ele>448.699829</ele>
        <time>2018-08-10T08:55:01Z</time>
      </trkpt>
      <trkpt lat="44.373352" lon="8.052921">
        <ele>449.426788</ele>
        <time>2018-08-10T08:55:16Z</time>
      </trkpt>
      <trkpt lat="44.373952" lon="8.047065">
        <ele>443.988831</ele>
        <time>2018-08-10T08:55:31Z</time>
      </trkpt>
      <trkpt lat="44.373572" lon="8.041069">
        <ele>438.464111</ele>
        <time>2018-08-10T08:55:47Z</time>
      </trkpt>
      <trkpt lat="44.370838" lon="8.036678">
        <ele>418.116852</ele>
        <time>2018-08-10T08:56:02Z</time>
      </trkpt>
      <trkpt lat="44.369901" lon="8.030965">
        <ele>438.530426</ele>
        <time>2018-08-10T08:56:18Z</time>
      </trkpt>
      <trkpt lat="44.372438" lon="8.025855">
        <ele>422.274963</ele>
        <time>2018-08-10T08:56:34Z</time>
      </trkpt>
      <trkpt lat="44.375177" lon="8.021263">
        <ele>421.574158</ele>
        <time>2018-08-10T08:56:49Z</time>
      </trkpt>
      <trkpt lat="44.378495" lon="8.017457">
        <ele>417.051086</ele>
        <time>2018-08-10T08:57:04Z</time>
      </trkpt>
      <trkpt lat="44.382144" lon="8.013777">
        <ele>419.389893</ele>
        <time>2018-08-10T08:57:20Z</time>
      </trkpt>
      <trkpt lat="44.385604" lon="8.010113">
        <ele>430.663147</ele>
        <time>2018-08-10T08:57:35Z</time>
      </trkpt>
      <trkpt lat="44.388544" lon="8.005517">
        <ele>436.766113</ele>
        <time>2018-08-10T08:57:51Z</time>
      </trkpt>
      <trkpt lat="44.390343" lon="8.000091">
        <ele>426.763855</ele>
        <time>2018-08-10T08:58:06Z</time>
      </trkpt>
      <trkpt lat="44.392159" lon="7.994558">
        <ele>430.915283</ele>
        <time>2018-08-10T08:58:21Z</time>
      </trkpt>
      <trkpt lat="44.394115" lon="7.988582">
        <ele>427.433960</ele>
        <time>2018-08-10T08:58:37Z</time>
      </trkpt>
      <trkpt lat="44.396072" lon="7.982689">
        <ele>420.590118</ele>
        <time>2018-08-10T08:58:53Z</time>
      </trkpt>
      <trkpt lat="44.398050" lon="7.977295">
        <ele>422.113586</ele>
        <time>2018-08-10T08:59:09Z</time>
      </trkpt>
      <trkpt lat="44.401123" lon="7.974415">
        <ele>420.312866</ele>
        <time>2018-08-10T08:59:24Z</time>
      </trkpt>
      <trkpt lat="44.404422" lon="7.971788">
        <ele>404.531677</ele>
        <time>2018-08-10T08:59:39Z</time>
      </trkpt>
      <trkpt lat="44.407329" lon="7.969471">
        <ele>400.000000</ele>
        <time>2018-08-10T08:59:54Z</time>
      </trkpt>
      <trkpt lat="44.409800" lon="7.967003">
        <ele>399.187653</ele>
        <time>2018-08-10T09:00:09Z</time>
      </trkpt>
      <trkpt lat="44.411439" lon="7.963215">
        <ele>362.944397</ele>
        <time>2018-08-10T09:00:24Z</time>
      </trkpt>
      <trkpt lat="44.411679" lon="7.958252">
        <ele>379.710999</ele>
        <time>2018-08-10T09:00:40Z</time>
      </trkpt>
      <trkpt lat="44.410389" lon="7.953428">
        <ele>358.677338</ele>
        <time>2018-08-10T09:00:55Z</time>
      </trkpt>
      <trkpt lat="44.408642" lon="7.947925">
        <ele>408.029633</ele>
        <time>2018-08-10T09:01:11Z</time>
      </trkpt>
      <trkpt lat="44.406850" lon="7.941991">
        <ele>415.947632</ele>
        <time>2018-08-10T09:01:27Z</time>
      </trkpt>
      <trkpt lat="44.405063" lon="7.936237">
        <ele>418.742859</ele>
        <time>2018-08-10T09:01:43Z</time>
      </trkpt>
      <trkpt lat="44.403704" lon="7.931332">
        <ele>423.484650</ele>
        <time>2018-08-10T09:01:58Z</time>
      </trkpt>
      <trkpt lat="44.403945" lon="7.925136">
        <ele>419.081512</ele>
        <time>2018-08-10T09:02:14Z</time>
      </trkpt>
      <trkpt lat="44.406237" lon="7.919981">
        <ele>414.759705</ele>
        <time>2018-08-10T09:02:30Z</time>
      </trkpt>
      <trkpt lat="44.408950" lon="7.915173">
        <ele>406.776855</ele>
        <time>2018-08-10T09:02:46Z</time>
      </trkpt>
      <trkpt lat="44.411833" lon="7.910157">
        <ele>417.265045</ele>
        <time>2018-08-10T09:03:02Z</time>
      </trkpt>
      <trkpt lat="44.413852" lon="7.904654">
        <ele>426.845917</ele>
        <time>2018-08-10T09:03:18Z</time>
      </trkpt>
      <trkpt lat="44.415078" lon="7.899444">
        <ele>408.530548</ele>
        <time>2018-08-10T09:03:33Z</time>
      </trkpt>
      <trkpt lat="44.417122" lon="7.894640">
        <ele>422.632568</ele>
        <time>2018-08-10T09:03:48Z</time>
      </trkpt>
      <trkpt lat="44.420138" lon="7.890404">
        <ele>416.837585</ele>
        <time>2018-08-10T09:04:04Z</time>
      </trkpt>
      <trkpt lat="44.423027" lon="7.886786">
        <ele>412.574951</ele>
        <time>2018-08-10T09:04:19Z</time>
      </trkpt>
      <trkpt lat="44.423477" lon="7.881127">
        <ele>419.525970</ele>
        <time>2018-08-10T09:04:35Z</time>
      </trkpt>
      <trkpt lat="44.420957" lon="7.875872">
        <ele>440.567993</ele>
        <time>2018-08-10T09:04:52Z</time>
      </trkpt>
      <trkpt lat="44.418740" lon="7.870979">
        <ele>387.983246</ele>
        <time>2018-08-10T09:05:08Z</time>
      </trkpt>
      <trkpt lat="44.417479" lon="7.866378">
        <ele>340.000000</ele>
        <time>2018-08-10T09:05:23Z</time>
      </trkpt>
      <trkpt lat="44.417816" lon="7.861374">
        <ele>354.705261</ele>
        <time>2018-08-10T09:05:39Z</time>
      </trkpt>
      <trkpt lat="44.420676" lon="7.858011">
        <ele>368.286041</ele>
        <time>2018-08-10T09:05:55Z</time>
      </trkpt>
      <trkpt lat="44.424065" lon="7.855945">
        <ele>380.000000</ele>
        <time>2018-08-10T09:06:11Z</time>
      </trkpt>
      <trkpt lat="44.426972" lon="7.854177">
        <ele>380.000000</ele>
        <time>2018-08-10T09:06:26Z</time>
      </trkpt>
      <trkpt lat="44.429282" lon="7.852641">
        <ele>371.088318</ele>
        <time>2018-08-10T09:06:41Z</time>
      </trkpt>
      <trkpt lat="44.432584" lon="7.850668">
        <ele>380.578552</ele>
        <time>2018-08-10T09:06:57Z</time>
      </trkpt>
      <trkpt lat="44.435401" lon="7.849052">
        <ele>386.100037</ele>
        <time>2018-08-10T09:07:12Z</time>
      </trkpt>
      <trkpt lat="44.439064" lon="7.846893">
        <ele>393.605408</ele>
        <time>2018-08-10T09:07:28Z</time>
      </trkpt>
      <trkpt lat="44.442571" lon="7.844779">
        <ele>391.616028</ele>
        <time>2018-08-10T09:07:43Z</time>
      </trkpt>
      <trkpt lat="44.446368" lon="7.842503">
        <ele>393.070374</ele>
        <time>2018-08-10T09:07:59Z</time>
      </trkpt>
      <trkpt lat="44.450053" lon="7.840308">
        <ele>380.431274</ele>
        <time>2018-08-10T09:08:14Z</time>
      </trkpt>
      <trkpt lat="44.454070" lon="7.838194">
        <ele>308.164703</ele>
        <time>2018-08-10T09:08:30Z</time>
      </trkpt>
      <trkpt lat="44.457824" lon="7.836275">
        <ele>335.983154</ele>
        <time>2018-08-10T09:08:45Z</time>
      </trkpt>
      <trkpt lat="44.461668" lon="7.834313">
        <ele>369.825562</ele>
        <time>2018-08-10T09:09:01Z</time>
      </trkpt>
      <trkpt lat="44.465574" lon="7.832300">
        <ele>377.763611</ele>
        <time>2018-08-10T09:09:16Z</time>
      </trkpt>
      <trkpt lat="44.469565" lon="7.830250">
        <ele>402.022522</ele>
        <time>2018-08-10T09:09:31Z</time>
      </trkpt>
      <trkpt lat="44.474081" lon="7.827975">
        <ele>405.326904</ele>
        <time>2018-08-10T09:09:47Z</time>
      </trkpt>
      <trkpt lat="44.477874" lon="7.825457">
        <ele>404.655151</ele>
        <time>2018-08-10T09:10:02Z</time>
      </trkpt>
      <trkpt lat="44.481636" lon="7.822814">
        <ele>413.599976</ele>
        <time>2018-08-10T09:10:17Z</time>
      </trkpt>
      <trkpt lat="44.485360" lon="7.820235">
        <ele>416.000000</ele>
        <time>2018-08-10T09:10:32Z</time>
      </trkpt>
      <trkpt lat="44.488734" lon="7.819345">
        <ele>415.377930</ele>
        <time>2018-08-10T09:10:48Z</time>
      </trkpt>
      <trkpt lat="44.490108" lon="7.816550">
        <ele>417.139893</ele>
        <time>2018-08-10T09:11:04Z</time>
      </trkpt>
      <trkpt lat="44.487138" lon="7.815702">
        <ele>417.434692</ele>
        <time>2018-08-10T09:11:20Z</time>
      </trkpt>
      <trkpt lat="44.485247" lon="7.811695">
        <ele>419.000000</ele>
        <time>2018-08-10T09:11:36Z</time>
      </trkpt>
      <trkpt lat="44.484598" lon="7.806402">
        <ele>420.000000</ele>
        <time>2018-08-10T09:11:52Z</time>
      </trkpt>
      <trkpt lat="44.483248" lon="7.801088">
        <ele>420.000000</ele>
        <time>2018-08-10T09:12:08Z</time>
      </trkpt>
      <trkpt lat="44.481014" lon="7.796506">
        <ele>420.000000</ele>
        <time>2018-08-10T09:12:24Z</time>
      </trkpt>
      <trkpt lat="44.478169" lon="7.793004">
        <ele>420.000000</ele>
        <time>2018-08-10T09:12:39Z</time>
      </trkpt>
      <trkpt lat="44.474739" lon="7.789613">
        <ele>420.000000</ele>
        <time>2018-08-10T09:12:55Z</time>
      </trkpt>
      <trkpt lat="44.471893" lon="7.785456">
        <ele>420.000000</ele>
        <time>2018-08-10T09:13:11Z</time>
      </trkpt>
      <trkpt lat="44.469877" lon="7.780749">
        <ele>416.312592</ele>
        <time>2018-08-10T09:13:26Z</time>
      </trkpt>
      <trkpt lat="44.468587" lon="7.775213">
        <ele>398.177856</ele>
        <time>2018-08-10T09:13:42Z</time>
      </trkpt>
      <trkpt lat="44.468239" lon="7.769704">
        <ele>396.113159</ele>
        <time>2018-08-10T09:13:58Z</time>
      </trkpt>
      <trkpt lat="44.468740" lon="7.764047">
        <ele>395.511658</ele>
        <time>2018-08-10T09:14:14Z</time>
      </trkpt>
      <trkpt lat="44.469321" lon="7.758216">
        <ele>395.000000</ele>
        <time>2018-08-10T09:14:30Z</time>
      </trkpt>
      <trkpt lat="44.469644" lon="7.752668">
        <ele>395.000000</ele>
        <time>2018-08-10T09:14:45Z</time>
      </trkpt>
      <trkpt lat="44.469911" lon="7.746922">
        <ele>394.000000</ele>
        <time>2018-08-10T09:15:01Z</time>
      </trkpt>
      <trkpt lat="44.470162" lon="7.741357">
        <ele>395.000000</ele>
        <time>2018-08-10T09:15:16Z</time>
      </trkpt>
      <trkpt lat="44.470217" lon="7.735460">
        <ele>395.856354</ele>
        <time>2018-08-10T09:15:32Z</time>
      </trkpt>
      <trkpt lat="44.469726" lon="7.729766">
        <ele>397.092407</ele>
        <time>2018-08-10T09:15:48Z</time>
      </trkpt>
      <trkpt lat="44.469219" lon="7.723990">
        <ele>398.000000</ele>
        <time>2018-08-10T09:16:04Z</time>
      </trkpt>
      <trkpt lat="44.469300" lon="7.718089">
        <ele>400.000000</ele>
        <time>2018-08-10T09:16:20Z</time>
      </trkpt>
      <trkpt lat="44.470420" lon="7.712265">
        <ele>405.422058</ele>
        <time>2018-08-10T09:16:36Z</time>
      </trkpt>
      <trkpt lat="44.472056" lon="7.706737">
        <ele>409.533264</ele>
        <time>2018-08-10T09:16:52Z</time>
      </trkpt>
      <trkpt lat="44.473748" lon="7.701279">
        <ele>408.502808</ele>
        <time>2018-08-10T09:17:08Z</time>
      </trkpt>
      <trkpt lat="44.475430" lon="7.696007">
        <ele>407.484497</ele>
        <time>2018-08-10T09:17:24Z</time>
      </trkpt>
      <trkpt lat="44.476782" lon="7.690952">
        <ele>404.004639</ele>
        <time>2018-08-10T09:17:39Z</time>
      </trkpt>
      <trkpt lat="44.477129" lon="7.685545">
        <ele>401.291016</ele>
        <time>2018-08-10T09:17:54Z</time>
      </trkpt>
      <trkpt lat="44.476014" lon="7.680163">
        <ele>379.735229</ele>
        <time>2018-08-10T09:18:09Z</time>
      </trkpt>
      <trkpt lat="44.473432" lon="7.675344">
        <ele>371.589233</ele>
        <time>2018-08-10T09:18:25Z</time>
      </trkpt>
      <trkpt lat="44.470410" lon="7.671021">
        <ele>372.858337</ele>
        <time>2018-08-10T09:18:41Z</time>
      </trkpt>
      <trkpt lat="44.467472" lon="7.667030">
        <ele>374.082062</ele>
        <time>2018-08-10T09:18:57Z</time>
      </trkpt>
      <trkpt lat="44.464306" lon="7.663621">
        <ele>377.178589</ele>
        <time>2018-08-10T09:19:12Z</time>
      </trkpt>
      <trkpt lat="44.460927" lon="7.659875">
        <ele>379.753662</ele>
        <time>2018-08-10T09:19:28Z</time>
      </trkpt>
      <trkpt lat="44.457895" lon="7.655492">
        <ele>396.264038</ele>
        <time>2018-08-10T09:19:44Z</time>
      </trkpt>
      <trkpt lat="44.455019" lon="7.651077">
        <ele>394.538086</ele>
        <time>2018-08-10T09:20:00Z</time>
      </trkpt>
      <trkpt lat="44.452555" lon="7.647017">
        <ele>393.640686</ele>
        <time>2018-08-10T09:20:15Z</time>
      </trkpt>
      <trkpt lat="44.450066" lon="7.642565">
        <ele>395.763794</ele>
        <time>2018-08-10T09:20:30Z</time>
      </trkpt>
      <trkpt lat="44.447579" lon="7.638152">
        <ele>402.320953</ele>
        <time>2018-08-10T09:20:45Z</time>
      </trkpt>
      <trkpt lat="44.444638" lon="7.633929">
        <ele>410.016479</ele>
        <time>2018-08-10T09:21:01Z</time>
      </trkpt>
      <trkpt lat="44.442175" lon="7.629922">
        <ele>414.076721</ele>
        <time>2018-08-10T09:21:16Z</time>
      </trkpt>
      <trkpt lat="44.439872" lon="7.625600">
        <ele>415.028076</ele>
        <time>2018-08-10T09:21:31Z</time>
      </trkpt>
      <trkpt lat="44.437594" lon="7.621328">
        <ele>417.368774</ele>
        <time>2018-08-10T09:21:46Z</time>
      </trkpt>
      <trkpt lat="44.435477" lon="7.617363">
        <ele>421.806030</ele>
        <time>2018-08-10T09:22:01Z</time>
      </trkpt>
      <trkpt lat="44.433409" lon="7.613548">
        <ele>433.984558</ele>
        <time>2018-08-10T09:22:17Z</time>
      </trkpt>
      <trkpt lat="44.431949" lon="7.610170">
        <ele>433.527039</ele>
        <time>2018-08-10T09:22:32Z</time>
      </trkpt>
      <trkpt lat="44.431376" lon="7.609005">
        <ele>434.629639</ele>
        <time>2018-08-10T09:22:47Z</time>
      </trkpt>
      <trkpt lat="44.431278" lon="7.608855">
        <ele>434.757935</ele>
        <time>2018-08-10T09:24:35Z</time>
      </trkpt>
      <trkpt lat="44.430048" lon="7.606588">
        <ele>435.884399</ele>
        <time>2018-08-10T09:24:51Z</time>
      </trkpt>
      <trkpt lat="44.428325" lon="7.602261">
        <ele>439.016296</ele>
        <time>2018-08-10T09:25:07Z</time>
      </trkpt>
      <trkpt lat="44.426618" lon="7.597206">
        <ele>439.391022</ele>
        <time>2018-08-10T09:25:23Z</time>
      </trkpt>
      <trkpt lat="44.425470" lon="7.592641">
        <ele>445.572815</ele>
        <time>2018-08-10T09:25:39Z</time>
      </trkpt>
      <trkpt lat="44.424351" lon="7.589134">
        <ele>451.597046</ele>
        <time>2018-08-10T09:25:55Z</time>
      </trkpt>
      <trkpt lat="44.421589" lon="7.591079">
        <ele>457.574371</ele>
        <time>2018-08-10T09:26:10Z</time>
      </trkpt>
      <trkpt lat="44.418851" lon="7.594113">
        <ele>471.071533</ele>
        <time>2018-08-10T09:26:25Z</time>
      </trkpt>
      <trkpt lat="44.415925" lon="7.596411">
        <ele>480.966125</ele>
        <time>2018-08-10T09:26:41Z</time>
      </trkpt>
      <trkpt lat="44.414849" lon="7.596824">
        <ele>483.181427</ele>
        <time>2018-08-10T09:26:57Z</time>
      </trkpt>
      <trkpt lat="44.412924" lon="7.595354">
        <ele>486.982727</ele>
        <time>2018-08-10T09:27:13Z</time>
      </trkpt>
      <trkpt lat="44.410368" lon="7.593389">
        <ele>492.528534</ele>
        <time>2018-08-10T09:27:29Z</time>
      </trkpt>
      <trkpt lat="44.408459" lon="7.591515">
        <ele>498.004242</ele>
        <time>2018-08-10T09:27:44Z</time>
      </trkpt>
      <trkpt lat="44.408142" lon="7.591187">
        <ele>498.805298</ele>
        <time>2018-08-10T09:28:01Z</time>
      </trkpt>
      <trkpt lat="44.407970" lon="7.591048">
        <ele>499.178558</ele>
        <time>2018-08-10T09:38:15Z</time>
      </trkpt>
      <trkpt lat="44.406108" lon="7.589190">
        <ele>500.000000</ele>
        <time>2018-08-10T09:38:31Z</time>
      </trkpt>
      <trkpt lat="44.403494" lon="7.586845">
        <ele>500.000000</ele>
        <time>2018-08-10T09:38:46Z</time>
      </trkpt>
      <trkpt lat="44.400478" lon="7.584126">
        <ele>500.000000</ele>
        <time>2018-08-10T09:39:02Z</time>
      </trkpt>
      <trkpt lat="44.398137" lon="7.581955">
        <ele>500.235931</ele>
        <time>2018-08-10T09:39:17Z</time>
      </trkpt>
      <trkpt lat="44.397163" lon="7.581008">
        <ele>501.807800</ele>
        <time>2018-08-10T09:39:32Z</time>
      </trkpt>
      <trkpt lat="44.395121" lon="7.579164">
        <ele>510.566681</ele>
        <time>2018-08-10T09:39:48Z</time>
      </trkpt>
      <trkpt lat="44.392883" lon="7.576550">
        <ele>518.877075</ele>
        <time>2018-08-10T09:40:04Z</time>
      </trkpt>
      <trkpt lat="44.391329" lon="7.574946">
        <ele>519.276001</ele>
        <time>2018-08-10T09:40:19Z</time>
      </trkpt>
      <trkpt lat="44.390197" lon="7.573460">
        <ele>517.714417</ele>
        <time>2018-08-10T09:40:35Z</time>
      </trkpt>
      <trkpt lat="44.388454" lon="7.570866">
        <ele>516.755066</ele>
        <time>2018-08-10T09:40:51Z</time>
      </trkpt>
      <trkpt lat="44.386175" lon="7.568402">
        <ele>519.459229</ele>
        <time>2018-08-10T09:41:06Z</time>
      </trkpt>
      <trkpt lat="44.384558" lon="7.566403">
        <ele>515.046326</ele>
        <time>2018-08-10T09:41:21Z</time>
      </trkpt>
      <trkpt lat="44.383555" lon="7.564417">
        <ele>513.034851</ele>
        <time>2018-08-10T09:41:36Z</time>
      </trkpt>
      <trkpt lat="44.382934" lon="7.561310">
        <ele>510.529114</ele>
        <time>2018-08-10T09:41:52Z</time>
      </trkpt>
      <trkpt lat="44.382277" lon="7.560278">
        <ele>510.868103</ele>
        <time>2018-08-10T09:42:07Z</time>
      </trkpt>
      <trkpt lat="44.380920" lon="7.559194">
        <ele>512.824951</ele>
        <time>2018-08-10T09:42:23Z</time>
      </trkpt>
      <trkpt lat="44.380517" lon="7.558761">
        <ele>513.574280</ele>
        <time>2018-08-10T09:43:24Z</time>
      </trkpt>
      <trkpt lat="44.380384" lon="7.558691">
        <ele>513.770752</ele>
        <time>2018-08-10T09:50:29Z</time>
      </trkpt>
      <trkpt lat="44.378843" lon="7.557491">
        <ele>516.155579</ele>
        <time>2018-08-10T09:50:45Z</time>
      </trkpt>
      <trkpt lat="44.376489" lon="7.555641">
        <ele>518.195801</ele>
        <time>2018-08-10T09:51:01Z</time>
      </trkpt>
      <trkpt lat="44.373584" lon="7.553984">
        <ele>525.178650</ele>
        <time>2018-08-10T09:51:17Z</time>
      </trkpt>
      <trkpt lat="44.370715" lon="7.552989">
        <ele>532.012024</ele>
        <time>2018-08-10T09:51:33Z</time>
      </trkpt>
      <trkpt lat="44.367391" lon="7.551921">
        <ele>539.566101</ele>
        <time>2018-08-10T09:51:49Z</time>
      </trkpt>
      <trkpt lat="44.364112" lon="7.550844">
        <ele>545.222961</ele>
        <time>2018-08-10T09:52:05Z</time>
      </trkpt>
      <trkpt lat="44.360456" lon="7.549647">
        <ele>554.480713</ele>
        <time>2018-08-10T09:52:21Z</time>
      </trkpt>
      <trkpt lat="44.357232" lon="7.548608">
        <ele>559.866089</ele>
        <time>2018-08-10T09:52:36Z</time>
      </trkpt>
      <trkpt lat="44.354271" lon="7.547643">
        <ele>562.046143</ele>
        <time>2018-08-10T09:52:51Z</time>
      </trkpt>
      <trkpt lat="44.351039" lon="7.546650">
        <ele>565.752625</ele>
        <time>2018-08-10T09:53:06Z</time>
      </trkpt>
      <trkpt lat="44.347688" lon="7.546022">
        <ele>573.548828</ele>
        <time>2018-08-10T09:53:22Z</time>
      </trkpt>
      <trkpt lat="44.344427" lon="7.545583">
        <ele>578.300293</ele>
        <time>2018-08-10T09:53:38Z</time>
      </trkpt>
      <trkpt lat="44.341397" lon="7.545159">
        <ele>579.000000</ele>
        <time>2018-08-10T09:53:53Z</time>
      </trkpt>
      <trkpt lat="44.338883" lon="7.544322">
        <ele>580.000000</ele>
        <time>2018-08-10T09:54:09Z</time>
      </trkpt>
      <trkpt lat="44.338301" lon="7.543956">
        <ele>580.059204</ele>
        <time>2018-08-10T09:54:25Z</time>
      </trkpt>
      <trkpt lat="44.337948" lon="7.543529">
        <ele>581.168945</ele>
        <time>2018-08-10T09:54:41Z</time>
      </trkpt>
      <trkpt lat="44.336693" lon="7.540721">
        <ele>588.070923</ele>
        <time>2018-08-10T09:54:57Z</time>
      </trkpt>
      <trkpt lat="44.336529" lon="7.536969">
        <ele>592.027893</ele>
        <time>2018-08-10T09:55:12Z</time>
      </trkpt>
      <trkpt lat="44.336658" lon="7.533916">
        <ele>594.329834</ele>
        <time>2018-08-10T09:55:27Z</time>
      </trkpt>
      <trkpt lat="44.336768" lon="7.531478">
        <ele>595.955505</ele>
        <time>2018-08-10T09:55:43Z</time>
      </trkpt>
      <trkpt lat="44.336221" lon="7.527912">
        <ele>596.099487</ele>
        <time>2018-08-10T09:55:59Z</time>
      </trkpt>
      <trkpt lat="44.335116" lon="7.525205">
        <ele>594.968262</ele>
        <time>2018-08-10T09:56:15Z</time>
      </trkpt>
      <trkpt lat="44.333987" lon="7.522467">
        <ele>595.430298</ele>
        <time>2018-08-10T09:56:30Z</time>
      </trkpt>
      <trkpt lat="44.332945" lon="7.520071">
        <ele>598.397095</ele>
        <time>2018-08-10T09:56:45Z</time>
      </trkpt>
      <trkpt lat="44.331928" lon="7.517584">
        <ele>599.717957</ele>
        <time>2018-08-10T09:57:00Z</time>
      </trkpt>
      <trkpt lat="44.331307" lon="7.516403">
        <ele>601.429810</ele>
        <time>2018-08-10T09:57:16Z</time>
      </trkpt>
      <trkpt lat="44.329597" lon="7.514062">
        <ele>609.355164</ele>
        <time>2018-08-10T09:57:31Z</time>
      </trkpt>
      <trkpt lat="44.327658" lon="7.510569">
        <ele>615.054749</ele>
        <time>2018-08-10T09:57:46Z</time>
      </trkpt>
      <trkpt lat="44.327175" lon="7.506189">
        <ele>605.799622</ele>
        <time>2018-08-10T09:58:02Z</time>
      </trkpt>
      <trkpt lat="44.325885" lon="7.503342">
        <ele>605.088562</ele>
        <time>2018-08-10T09:58:18Z</time>
      </trkpt>
      <trkpt lat="44.323787" lon="7.501427">
        <ele>608.037231</ele>
        <time>2018-08-10T09:58:34Z</time>
      </trkpt>
      <trkpt lat="44.321175" lon="7.499347">
        <ele>610.308777</ele>
        <time>2018-08-10T09:58:49Z</time>
      </trkpt>
      <trkpt lat="44.321365" lon="7.496010">
        <ele>624.182312</ele>
        <time>2018-08-10T09:59:05Z</time>
      </trkpt>
      <trkpt lat="44.319986" lon="7.492687">
        <ele>637.000000</ele>
        <time>2018-08-10T09:59:20Z</time>
      </trkpt>
      <trkpt lat="44.317882" lon="7.488954">
        <ele>638.000000</ele>
        <time>2018-08-10T09:59:35Z</time>
      </trkpt>
      <trkpt lat="44.316664" lon="7.487046">
        <ele>638.000000</ele>
        <time>2018-08-10T09:59:51Z</time>
      </trkpt>
      <trkpt lat="44.315198" lon="7.487921">
        <ele>638.000000</ele>
        <time>2018-08-10T10:00:07Z</time>
      </trkpt>
      <trkpt lat="44.313347" lon="7.490290">
        <ele>640.219360</ele>
        <time>2018-08-10T10:00:23Z</time>
      </trkpt>
      <trkpt lat="44.311905" lon="7.493724">
        <ele>646.858765</ele>
        <time>2018-08-10T10:00:38Z</time>
      </trkpt>
      <trkpt lat="44.310313" lon="7.497547">
        <ele>660.312805</ele>
        <time>2018-08-10T10:00:54Z</time>
      </trkpt>
      <trkpt lat="44.309515" lon="7.501080">
        <ele>663.940308</ele>
        <time>2018-08-10T10:01:09Z</time>
      </trkpt>
      <trkpt lat="44.308450" lon="7.504654">
        <ele>664.861328</ele>
        <time>2018-08-10T10:01:25Z</time>
      </trkpt>
      <trkpt lat="44.306791" lon="7.507442">
        <ele>658.277344</ele>
        <time>2018-08-10T10:01:41Z</time>
      </trkpt>
      <trkpt lat="44.304534" lon="7.510737">
        <ele>660.663940</ele>
        <time>2018-08-10T10:01:56Z</time>
      </trkpt>
      <trkpt lat="44.302544" lon="7.514337">
        <ele>662.860840</ele>
        <time>2018-08-10T10:02:12Z</time>
      </trkpt>
      <trkpt lat="44.300138" lon="7.516170">
        <ele>670.085999</ele>
        <time>2018-08-10T10:02:27Z</time>
      </trkpt>
      <trkpt lat="44.299490" lon="7.516279">
        <ele>668.794983</ele>
        <time>2018-08-10T10:02:53Z</time>
      </trkpt>
      <trkpt lat="44.299317" lon="7.516383">
        <ele>668.579102</ele>
        <time>2018-08-10T10:04:42Z</time>
      </trkpt>
      <trkpt lat="44.297090" lon="7.516211">
        <ele>668.583435</ele>
        <time>2018-08-10T10:04:58Z</time>
      </trkpt>
      <trkpt lat="44.293805" lon="7.517036">
        <ele>672.135559</ele>
        <time>2018-08-10T10:05:14Z</time>
      </trkpt>
      <trkpt lat="44.290300" lon="7.518691">
        <ele>674.499573</ele>
        <time>2018-08-10T10:05:30Z</time>
      </trkpt>
      <trkpt lat="44.286692" lon="7.519332">
        <ele>677.000000</ele>
        <time>2018-08-10T10:05:45Z</time>
      </trkpt>
      <trkpt lat="44.283061" lon="7.518088">
        <ele>694.124207</ele>
        <time>2018-08-10T10:06:01Z</time>
      </trkpt>
      <trkpt lat="44.279768" lon="7.517546">
        <ele>702.765503</ele>
        <time>2018-08-10T10:06:16Z</time>
      </trkpt>
      <trkpt lat="44.276104" lon="7.518338">
        <ele>718.351074</ele>
        <time>2018-08-10T10:06:32Z</time>
      </trkpt>
      <trkpt lat="44.272511" lon="7.519060">
        <ele>720.152893</ele>
        <time>2018-08-10T10:06:47Z</time>
      </trkpt>
      <trkpt lat="44.268726" lon="7.518839">
        <ele>734.615601</ele>
        <time>2018-08-10T10:07:02Z</time>
      </trkpt>
      <trkpt lat="44.265036" lon="7.518141">
        <ele>747.237549</ele>
        <time>2018-08-10T10:07:18Z</time>
      </trkpt>
      <trkpt lat="44.263563" lon="7.518888">
        <ele>740.483276</ele>
        <time>2018-08-10T10:07:33Z</time>
      </trkpt>
      <trkpt lat="44.261223" lon="7.519139">
        <ele>757.676270</ele>
        <time>2018-08-10T10:07:49Z</time>
      </trkpt>
      <trkpt lat="44.260164" lon="7.522268">
        <ele>766.295654</ele>
        <time>2018-08-10T10:08:05Z</time>
      </trkpt>
      <trkpt lat="44.258254" lon="7.524323">
        <ele>763.929688</ele>
        <time>2018-08-10T10:08:21Z</time>
      </trkpt>
      <trkpt lat="44.255944" lon="7.525936">
        <ele>761.518921</ele>
        <time>2018-08-10T10:08:37Z</time>
      </trkpt>
      <trkpt lat="44.254572" lon="7.528289">
        <ele>762.843079</ele>
        <time>2018-08-10T10:08:52Z</time>
      </trkpt>
      <trkpt lat="44.252157" lon="7.529991">
        <ele>777.806580</ele>
        <time>2018-08-10T10:09:07Z</time>
      </trkpt>
      <trkpt lat="44.250043" lon="7.531638">
        <ele>781.901123</ele>
        <time>2018-08-10T10:09:23Z</time>
      </trkpt>
      <trkpt lat="44.248686" lon="7.532085">
        <ele>783.223999</ele>
        <time>2018-08-10T10:09:38Z</time>
      </trkpt>
      <trkpt lat="44.247200" lon="7.531842">
        <ele>781.697632</ele>
        <time>2018-08-10T10:09:53Z</time>
      </trkpt>
      <trkpt lat="44.245908" lon="7.532297">
        <ele>796.148865</ele>
        <time>2018-08-10T10:10:09Z</time>
      </trkpt>
      <trkpt lat="44.244793" lon="7.532770">
        <ele>798.324219</ele>
        <time>2018-08-10T10:10:24Z</time>
      </trkpt>
      <trkpt lat="44.243703" lon="7.533333">
        <ele>798.999756</ele>
        <time>2018-08-10T10:10:40Z</time>
      </trkpt>
      <trkpt lat="44.242748" lon="7.535089">
        <ele>799.107300</ele>
        <time>2018-08-10T10:10:55Z</time>
      </trkpt>
      <trkpt lat="44.241338" lon="7.537328">
        <ele>800.000000</ele>
        <time>2018-08-10T10:11:10Z</time>
      </trkpt>
      <trkpt lat="44.239438" lon="7.540006">
        <ele>807.094849</ele>
        <time>2018-08-10T10:11:26Z</time>
      </trkpt>
      <trkpt lat="44.237177" lon="7.543802">
        <ele>820.957764</ele>
        <time>2018-08-10T10:11:42Z</time>
      </trkpt>
      <trkpt lat="44.234865" lon="7.546869">
        <ele>828.498108</ele>
        <time>2018-08-10T10:11:58Z</time>
      </trkpt>
      <trkpt lat="44.233414" lon="7.549623">
        <ele>841.514404</ele>
        <time>2018-08-10T10:12:13Z</time>
      </trkpt>
      <trkpt lat="44.231675" lon="7.553176">
        <ele>855.763428</ele>
        <time>2018-08-10T10:12:29Z</time>
      </trkpt>
      <trkpt lat="44.229732" lon="7.556122">
        <ele>868.612854</ele>
        <time>2018-08-10T10:12:44Z</time>
      </trkpt>
      <trkpt lat="44.228385" lon="7.559723">
        <ele>876.669128</ele>
        <time>2018-08-10T10:13:00Z</time>
      </trkpt>
      <trkpt lat="44.227489" lon="7.562635">
        <ele>877.198853</ele>
        <time>2018-08-10T10:13:16Z</time>
      </trkpt>
      <trkpt lat="44.224665" lon="7.564084">
        <ele>890.626099</ele>
        <time>2018-08-10T10:13:32Z</time>
      </trkpt>
      <trkpt lat="44.222281" lon="7.566881">
        <ele>900.000000</ele>
        <time>2018-08-10T10:13:48Z</time>
      </trkpt>
      <trkpt lat="44.219217" lon="7.569123">
        <ele>916.775391</ele>
        <time>2018-08-10T10:14:04Z</time>
      </trkpt>
      <trkpt lat="44.216210" lon="7.570889">
        <ele>941.685791</ele>
        <time>2018-08-10T10:14:19Z</time>
      </trkpt>
      <trkpt lat="44.213234" lon="7.572265">
        <ele>958.435669</ele>
        <time>2018-08-10T10:14:34Z</time>
      </trkpt>
      <trkpt lat="44.210186" lon="7.572216">
        <ele>968.552551</ele>
        <time>2018-08-10T10:14:50Z</time>
      </trkpt>
      <trkpt lat="44.207466" lon="7.574291">
        <ele>981.023376</ele>
        <time>2018-08-10T10:15:06Z</time>
      </trkpt>
      <trkpt lat="44.205159" lon="7.574967">
        <ele>980.115356</ele>
        <time>2018-08-10T10:15:21Z</time>
      </trkpt>
      <trkpt lat="44.203515" lon="7.573765">
        <ele>996.257690</ele>
        <time>2018-08-10T10:15:36Z</time>
      </trkpt>
      <trkpt lat="44.201610" lon="7.574411">
        <ele>1009.255737</ele>
        <time>2018-08-10T10:15:52Z</time>
      </trkpt>
      <trkpt lat="44.199714" lon="7.575004">
        <ele>1009.960693</ele>
        <time>2018-08-10T10:16:07Z</time>
      </trkpt>
      <trkpt lat="44.198229" lon="7.575018">
        <ele>1015.979736</ele>
        <time>2018-08-10T10:16:22Z</time>
      </trkpt>
      <trkpt lat="44.195884" lon="7.574732">
        <ele>1016.888611</ele>
        <time>2018-08-10T10:16:38Z</time>
      </trkpt>
      <trkpt lat="44.194249" lon="7.572539">
        <ele>1043.401489</ele>
        <time>2018-08-10T10:16:54Z</time>
      </trkpt>
      <trkpt lat="44.192207" lon="7.570458">
        <ele>1048.703857</ele>
        <time>2018-08-10T10:17:09Z</time>
      </trkpt>
      <trkpt lat="44.189953" lon="7.568265">
        <ele>1048.194092</ele>
        <time>2018-08-10T10:17:25Z</time>
      </trkpt>
      <trkpt lat="44.188707" lon="7.566006">
        <ele>1069.583252</ele>
        <time>2018-08-10T10:17:41Z</time>
      </trkpt>
      <trkpt lat="44.187313" lon="7.564045">
        <ele>1079.198608</ele>
        <time>2018-08-10T10:17:56Z</time>
      </trkpt>
      <trkpt lat="44.186332" lon="7.562300">
        <ele>1100.510376</ele>
        <time>2018-08-10T10:18:11Z</time>
      </trkpt>
      <trkpt lat="44.185207" lon="7.563074">
        <ele>1094.404297</ele>
        <time>2018-08-10T10:18:27Z</time>
      </trkpt>
      <trkpt lat="44.185402" lon="7.563492">
        <ele>1089.840332</ele>
        <time>2018-08-10T10:18:43Z</time>
      </trkpt>
      <trkpt lat="44.183692" lon="7.561701">
        <ele>1132.332153</ele>
        <time>2018-08-10T10:18:58Z</time>
      </trkpt>
      <trkpt lat="44.183415" lon="7.561184">
        <ele>1139.610718</ele>
        <time>2018-08-10T10:19:14Z</time>
      </trkpt>
      <trkpt lat="44.183144" lon="7.561408">
        <ele>1144.636841</ele>
        <time>2018-08-10T10:19:29Z</time>
      </trkpt>
      <trkpt lat="44.182989" lon="7.562450">
        <ele>1147.212402</ele>
        <time>2018-08-10T10:19:45Z</time>
      </trkpt>
      <trkpt lat="44.182255" lon="7.560696">
        <ele>1167.818115</ele>
        <time>2018-08-10T10:20:01Z</time>
      </trkpt>
      <trkpt lat="44.181907" lon="7.560906">
        <ele>1179.661987</ele>
        <time>2018-08-10T10:20:17Z</time>
      </trkpt>
      <trkpt lat="44.181887" lon="7.563668">
        <ele>1191.931641</ele>
        <time>2018-08-10T10:20:32Z</time>
      </trkpt>
      <trkpt lat="44.180521" lon="7.565494">
        <ele>1222.714966</ele>
        <time>2018-08-10T10:20:47Z</time>
      </trkpt>
      <trkpt lat="44.179027" lon="7.566803">
        <ele>1245.865234</ele>
        <time>2018-08-10T10:21:03Z</time>
      </trkpt>
      <trkpt lat="44.179994" lon="7.564164">
        <ele>1257.213867</ele>
        <time>2018-08-10T10:21:19Z</time>
      </trkpt>
      <trkpt lat="44.180612" lon="7.562978">
        <ele>1242.269531</ele>
        <time>2018-08-10T10:21:34Z</time>
      </trkpt>
      <trkpt lat="44.179112" lon="7.565104">
        <ele>1277.938599</ele>
        <time>2018-08-10T10:21:49Z</time>
      </trkpt>
      <trkpt lat="44.177029" lon="7.567202">
        <ele>1281.928223</ele>
        <time>2018-08-10T10:22:04Z</time>
      </trkpt>
      <trkpt lat="44.175089" lon="7.568314">
        <ele>1275.007080</ele>
        <time>2018-08-10T10:22:20Z</time>
      </trkpt>
      <trkpt lat="44.173215" lon="7.568507">
        <ele>1286.127075</ele>
        <time>2018-08-10T10:22:35Z</time>
      </trkpt>
      <trkpt lat="44.171871" lon="7.569785">
        <ele>1277.029053</ele>
        <time>2018-08-10T10:22:51Z</time>
      </trkpt>
      <trkpt lat="44.171425" lon="7.570087">
        <ele>1277.442627</ele>
        <time>2018-08-10T10:23:07Z</time>
      </trkpt>
      <trkpt lat="44.170784" lon="7.570396">
        <ele>1280.300171</ele>
        <time>2018-08-10T10:23:22Z</time>
      </trkpt>
      <trkpt lat="44.169766" lon="7.570644">
        <ele>1291.310791</ele>
        <time>2018-08-10T10:23:37Z</time>
      </trkpt>
      <trkpt lat="44.169540" lon="7.570692">
        <ele>1294.430054</ele>
        <time>2018-08-10T10:26:49Z</time>
      </trkpt>
      <trkpt lat="44.169364" lon="7.570771">
        <ele>1296.018188</ele>
        <time>2018-08-10T10:28:01Z</time>
      </trkpt>
      <trkpt lat="44.168083" lon="7.571498">
        <ele>1312.012695</ele>
        <time>2018-08-10T10:28:16Z</time>
      </trkpt>
      <trkpt lat="44.166521" lon="7.571129">
        <ele>1358.015747</ele>
        <time>2018-08-10T10:28:32Z</time>
      </trkpt>
      <trkpt lat="44.138456" lon="7.569961">
        <ele>1256.262329</ele>
        <time>2018-08-10T10:31:27Z</time>
      </trkpt>
      <trkpt lat="44.138277" lon="7.568604">
        <ele>1258.273560</ele>
        <time>2018-08-10T10:31:43Z</time>
      </trkpt>
      <trkpt lat="44.138300" lon="7.568940">
        <ele>1257.260010</ele>
        <time>2018-08-10T10:31:59Z</time>
      </trkpt>
      <trkpt lat="44.137266" lon="7.567649">
        <ele>1240.190186</ele>
        <time>2018-08-10T10:32:15Z</time>
      </trkpt>
      <trkpt lat="44.137337" lon="7.567923">
        <ele>1239.322998</ele>
        <time>2018-08-10T10:32:30Z</time>
      </trkpt>
      <trkpt lat="44.137136" lon="7.568145">
        <ele>1232.688477</ele>
        <time>2018-08-10T10:32:46Z</time>
      </trkpt>
      <trkpt lat="44.135879" lon="7.567081">
        <ele>1253.653564</ele>
        <time>2018-08-10T10:33:01Z</time>
      </trkpt>
      <trkpt lat="44.134261" lon="7.567657">
        <ele>1192.500732</ele>
        <time>2018-08-10T10:33:17Z</time>
      </trkpt>
      <trkpt lat="44.131754" lon="7.566458">
        <ele>1196.965332</ele>
        <time>2018-08-10T10:33:33Z</time>
      </trkpt>
      <trkpt lat="44.130506" lon="7.564839">
        <ele>1200.896606</ele>
        <time>2018-08-10T10:33:49Z</time>
      </trkpt>
      <trkpt lat="44.128731" lon="7.562670">
        <ele>1190.410156</ele>
        <time>2018-08-10T10:34:05Z</time>
      </trkpt>
      <trkpt lat="44.126834" lon="7.562968">
        <ele>1170.454590</ele>
        <time>2018-08-10T10:34:21Z</time>
      </trkpt>
      <trkpt lat="44.128821" lon="7.563245">
        <ele>1179.302612</ele>
        <time>2018-08-10T10:34:36Z</time>
      </trkpt>
      <trkpt lat="44.127668" lon="7.563625">
        <ele>1158.439209</ele>
        <time>2018-08-10T10:34:51Z</time>
      </trkpt>
      <trkpt lat="44.129472" lon="7.565066">
        <ele>1155.488647</ele>
        <time>2018-08-10T10:35:06Z</time>
      </trkpt>
      <trkpt lat="44.129984" lon="7.566577">
        <ele>1123.844971</ele>
        <time>2018-08-10T10:35:21Z</time>
      </trkpt>
      <trkpt lat="44.128609" lon="7.566500">
        <ele>1110.666016</ele>
        <time>2018-08-10T10:35:37Z</time>
      </trkpt>
      <trkpt lat="44.126569" lon="7.567027">
        <ele>1140.844971</ele>
        <time>2018-08-10T10:35:53Z</time>
      </trkpt>
      <trkpt lat="44.124483" lon="7.567230">
        <ele>1091.449463</ele>
        <time>2018-08-10T10:36:09Z</time>
      </trkpt>
      <trkpt lat="44.122020" lon="7.567307">
        <ele>1057.089844</ele>
        <time>2018-08-10T10:36:24Z</time>
      </trkpt>
      <trkpt lat="44.119861" lon="7.566681">
        <ele>1014.657104</ele>
        <time>2018-08-10T10:36:39Z</time>
      </trkpt>
      <trkpt lat="44.117492" lon="7.566228">
        <ele>993.144043</ele>
        <time>2018-08-10T10:36:55Z</time>
      </trkpt>
      <trkpt lat="44.115413" lon="7.564877">
        <ele>992.600464</ele>
        <time>2018-08-10T10:37:10Z</time>
      </trkpt>
      <trkpt lat="44.114270" lon="7.565339">
        <ele>979.441956</ele>
        <time>2018-08-10T10:37:25Z</time>
      </trkpt>
      <trkpt lat="44.114358" lon="7.566110">
        <ele>968.448669</ele>
        <time>2018-08-10T10:37:41Z</time>
      </trkpt>
      <trkpt lat="44.112781" lon="7.565429">
        <ele>951.579773</ele>
        <time>2018-08-10T10:37:56Z</time>
      </trkpt>
      <trkpt lat="44.110597" lon="7.566266">
        <ele>936.545288</ele>
        <time>2018-08-10T10:38:12Z</time>
      </trkpt>
      <trkpt lat="44.109808" lon="7.568990">
        <ele>936.879517</ele>
        <time>2018-08-10T10:38:28Z</time>
      </trkpt>
      <trkpt lat="44.108006" lon="7.570514">
        <ele>938.175659</ele>
        <time>2018-08-10T10:38:44Z</time>
      </trkpt>
      <trkpt lat="44.106431" lon="7.572612">
        <ele>929.437134</ele>
        <time>2018-08-10T10:38:59Z</time>
      </trkpt>
      <trkpt lat="44.104244" lon="7.574036">
        <ele>923.407471</ele>
        <time>2018-08-10T10:39:15Z</time>
      </trkpt>
      <trkpt lat="44.102822" lon="7.575835">
        <ele>928.899780</ele>
        <time>2018-08-10T10:39:31Z</time>
      </trkpt>
      <trkpt lat="44.102795" lon="7.578590">
        <ele>918.251282</ele>
        <time>2018-08-10T10:39:46Z</time>
      </trkpt>
      <trkpt lat="44.102859" lon="7.581026">
        <ele>924.723633</ele>
        <time>2018-08-10T10:40:02Z</time>
      </trkpt>
      <trkpt lat="44.102133" lon="7.583423">
        <ele>903.028564</ele>
        <time>2018-08-10T10:40:17Z</time>
      </trkpt>
      <trkpt lat="44.101660" lon="7.585676">
        <ele>893.718323</ele>
        <time>2018-08-10T10:40:33Z</time>
      </trkpt>
      <trkpt lat="44.100408" lon="7.586923">
        <ele>879.912964</ele>
        <time>2018-08-10T10:40:48Z</time>
      </trkpt>
      <trkpt lat="44.098465" lon="7.588542">
        <ele>880.077576</ele>
        <time>2018-08-10T10:41:06Z</time>
      </trkpt>
      <trkpt lat="44.095768" lon="7.589216">
        <ele>888.947876</ele>
        <time>2018-08-10T10:41:22Z</time>
      </trkpt>
      <trkpt lat="44.093507" lon="7.590385">
        <ele>873.814575</ele>
        <time>2018-08-10T10:41:37Z</time>
      </trkpt>
      <trkpt lat="44.091530" lon="7.591924">
        <ele>854.426331</ele>
        <time>2018-08-10T10:41:53Z</time>
      </trkpt>
      <trkpt lat="44.090455" lon="7.592639">
        <ele>856.300659</ele>
        <time>2018-08-10T10:42:09Z</time>
      </trkpt>
      <trkpt lat="44.089218" lon="7.593138">
        <ele>861.456909</ele>
        <time>2018-08-10T10:42:25Z</time>
      </trkpt>
      <trkpt lat="44.088114" lon="7.593569">
        <ele>838.386719</ele>
        <time>2018-08-10T10:42:40Z</time>
      </trkpt>
      <trkpt lat="44.086858" lon="7.593585">
        <ele>816.376892</ele>
        <time>2018-08-10T10:42:56Z</time>
      </trkpt>
      <trkpt lat="44.085422" lon="7.593775">
        <ele>793.428589</ele>
        <time>2018-08-10T10:43:12Z</time>
      </trkpt>
      <trkpt lat="44.083951" lon="7.593499">
        <ele>791.350281</ele>
        <time>2018-08-10T10:43:27Z</time>
      </trkpt>
      <trkpt lat="44.083517" lon="7.594278">
        <ele>780.676270</ele>
        <time>2018-08-10T10:43:43Z</time>
      </trkpt>
      <trkpt lat="44.082823" lon="7.595157">
        <ele>780.000000</ele>
        <time>2018-08-10T10:43:58Z</time>
      </trkpt>
      <trkpt lat="44.081686" lon="7.596348">
        <ele>780.000000</ele>
        <time>2018-08-10T10:44:14Z</time>
      </trkpt>
      <trkpt lat="44.079796" lon="7.598123">
        <ele>780.061829</ele>
        <time>2018-08-10T10:44:29Z</time>
      </trkpt>
      <trkpt lat="44.077772" lon="7.598650">
        <ele>780.000000</ele>
        <time>2018-08-10T10:44:45Z</time>
      </trkpt>
      <trkpt lat="44.075783" lon="7.599071">
        <ele>780.000000</ele>
        <time>2018-08-10T10:45:00Z</time>
      </trkpt>
      <trkpt lat="44.073871" lon="7.598588">
        <ele>780.108643</ele>
        <time>2018-08-10T10:45:15Z</time>
      </trkpt>
      <trkpt lat="44.072908" lon="7.596405">
        <ele>781.536255</ele>
        <time>2018-08-10T10:45:31Z</time>
      </trkpt>
      <trkpt lat="44.070962" lon="7.594061">
        <ele>780.000000</ele>
        <time>2018-08-10T10:45:47Z</time>
      </trkpt>
      <trkpt lat="44.070607" lon="7.590938">
        <ele>780.000000</ele>
        <time>2018-08-10T10:46:02Z</time>
      </trkpt>
      <trkpt lat="44.070282" lon="7.588643">
        <ele>810.915771</ele>
        <time>2018-08-10T10:46:17Z</time>
      </trkpt>
      <trkpt lat="44.068544" lon="7.589391">
        <ele>789.673706</ele>
        <time>2018-08-10T10:46:32Z</time>
      </trkpt>
      <trkpt lat="44.066709" lon="7.589557">
        <ele>779.744751</ele>
        <time>2018-08-10T10:46:47Z</time>
      </trkpt>
      <trkpt lat="44.064469" lon="7.589237">
        <ele>767.498291</ele>
        <time>2018-08-10T10:47:02Z</time>
      </trkpt>
      <trkpt lat="44.062123" lon="7.588422">
        <ele>741.891968</ele>
        <time>2018-08-10T10:47:18Z</time>
      </trkpt>
      <trkpt lat="44.060086" lon="7.587939">
        <ele>700.069885</ele>
        <time>2018-08-10T10:47:34Z</time>
      </trkpt>
      <trkpt lat="44.058886" lon="7.586820">
        <ele>712.810547</ele>
        <time>2018-08-10T10:47:50Z</time>
      </trkpt>
      <trkpt lat="44.057765" lon="7.586122">
        <ele>718.608765</ele>
        <time>2018-08-10T10:48:05Z</time>
      </trkpt>
      <trkpt lat="44.056380" lon="7.586877">
        <ele>680.239380</ele>
        <time>2018-08-10T10:48:21Z</time>
      </trkpt>
      <trkpt lat="44.056069" lon="7.587567">
        <ele>666.930969</ele>
        <time>2018-08-10T10:48:36Z</time>
      </trkpt>
      <trkpt lat="44.055606" lon="7.588446">
        <ele>657.050415</ele>
        <time>2018-08-10T10:48:52Z</time>
      </trkpt>
      <trkpt lat="44.054466" lon="7.588815">
        <ele>651.645325</ele>
        <time>2018-08-10T10:49:08Z</time>
      </trkpt>
      <trkpt lat="44.053158" lon="7.588952">
        <ele>647.617920</ele>
        <time>2018-08-10T10:49:23Z</time>
      </trkpt>
      <trkpt lat="44.051833" lon="7.588839">
        <ele>650.267700</ele>
        <time>2018-08-10T10:49:39Z</time>
      </trkpt>
      <trkpt lat="44.050722" lon="7.588391">
        <ele>656.194885</ele>
        <time>2018-08-10T10:49:54Z</time>
      </trkpt>
      <trkpt lat="44.049320" lon="7.587522">
        <ele>664.553711</ele>
        <time>2018-08-10T10:50:10Z</time>
      </trkpt>
      <trkpt lat="44.047464" lon="7.586372">
        <ele>687.279907</ele>
        <time>2018-08-10T10:50:25Z</time>
      </trkpt>
      <trkpt lat="44.044830" lon="7.586210">
        <ele>657.563171</ele>
        <time>2018-08-10T10:50:41Z</time>
      </trkpt>
      <trkpt lat="44.042623" lon="7.584931">
        <ele>658.457886</ele>
        <time>2018-08-10T10:50:56Z</time>
      </trkpt>
      <trkpt lat="44.040259" lon="7.583267">
        <ele>720.864258</ele>
        <time>2018-08-10T10:51:11Z</time>
      </trkpt>
      <trkpt lat="44.037760" lon="7.581995">
        <ele>718.112183</ele>
        <time>2018-08-10T10:51:27Z</time>
      </trkpt>
      <trkpt lat="44.036203" lon="7.580016">
        <ele>691.398804</ele>
        <time>2018-08-10T10:51:42Z</time>
      </trkpt>
      <trkpt lat="44.033658" lon="7.579869">
        <ele>674.394165</ele>
        <time>2018-08-10T10:51:58Z</time>
      </trkpt>
      <trkpt lat="44.032160" lon="7.581896">
        <ele>601.642151</ele>
        <time>2018-08-10T10:52:13Z</time>
      </trkpt>
      <trkpt lat="44.030224" lon="7.580851">
        <ele>575.118347</ele>
        <time>2018-08-10T10:52:29Z</time>
      </trkpt>
      <trkpt lat="44.030313" lon="7.577859">
        <ele>592.058289</ele>
        <time>2018-08-10T10:52:45Z</time>
      </trkpt>
      <trkpt lat="44.028698" lon="7.577141">
        <ele>595.725037</ele>
        <time>2018-08-10T10:53:01Z</time>
      </trkpt>
      <trkpt lat="44.027095" lon="7.574857">
        <ele>591.944397</ele>
        <time>2018-08-10T10:53:17Z</time>
      </trkpt>
      <trkpt lat="44.024849" lon="7.572893">
        <ele>563.639099</ele>
        <time>2018-08-10T10:53:33Z</time>
      </trkpt>
      <trkpt lat="44.023647" lon="7.570413">
        <ele>583.607300</ele>
        <time>2018-08-10T10:53:48Z</time>
      </trkpt>
      <trkpt lat="44.021571" lon="7.569133">
        <ele>564.575684</ele>
        <time>2018-08-10T10:54:03Z</time>
      </trkpt>
      <trkpt lat="44.021075" lon="7.566341">
        <ele>526.545227</ele>
        <time>2018-08-10T10:54:19Z</time>
      </trkpt>
      <trkpt lat="44.019292" lon="7.564666">
        <ele>574.343506</ele>
        <time>2018-08-10T10:54:34Z</time>
      </trkpt>
      <trkpt lat="44.016911" lon="7.563886">
        <ele>543.824951</ele>
        <time>2018-08-10T10:54:49Z</time>
      </trkpt>
      <trkpt lat="44.014598" lon="7.561863">
        <ele>540.555542</ele>
        <time>2018-08-10T10:55:05Z</time>
      </trkpt>
      <trkpt lat="44.013014" lon="7.559314">
        <ele>487.417969</ele>
        <time>2018-08-10T10:55:20Z</time>
      </trkpt>
      <trkpt lat="44.010845" lon="7.557909">
        <ele>459.021942</ele>
        <time>2018-08-10T10:55:36Z</time>
      </trkpt>
      <trkpt lat="44.009366" lon="7.555848">
        <ele>473.510712</ele>
        <time>2018-08-10T10:55:52Z</time>
      </trkpt>
      <trkpt lat="44.007317" lon="7.554848">
        <ele>459.492523</ele>
        <time>2018-08-10T10:56:07Z</time>
      </trkpt>
      <trkpt lat="44.005889" lon="7.554871">
        <ele>443.650879</ele>
        <time>2018-08-10T10:56:22Z</time>
      </trkpt>
      <trkpt lat="44.004864" lon="7.554560">
        <ele>433.024231</ele>
        <time>2018-08-10T10:56:37Z</time>
      </trkpt>
      <trkpt lat="44.004034" lon="7.554369">
        <ele>425.735901</ele>
        <time>2018-08-10T10:56:53Z</time>
      </trkpt>
      <trkpt lat="44.003853" lon="7.554271">
        <ele>424.992798</ele>
        <time>2018-08-10T10:57:09Z</time>
      </trkpt>
      <trkpt lat="44.003102" lon="7.553889">
        <ele>423.772125</ele>
        <time>2018-08-10T10:57:25Z</time>
      </trkpt>
      <trkpt lat="44.001944" lon="7.553099">
        <ele>428.451660</ele>
        <time>2018-08-10T10:57:41Z</time>
      </trkpt>
      <trkpt lat="44.000988" lon="7.552633">
        <ele>429.340057</ele>
        <time>2018-08-10T10:57:57Z</time>
      </trkpt>
      <trkpt lat="44.000132" lon="7.552085">
        <ele>436.248230</ele>
        <time>2018-08-10T10:58:13Z</time>
      </trkpt>
      <trkpt lat="43.999333" lon="7.551436">
        <ele>435.153137</ele>
        <time>2018-08-10T10:58:28Z</time>
      </trkpt>
      <trkpt lat="43.999298" lon="7.551255">
        <ele>439.408386</ele>
        <time>2018-08-10T11:00:08Z</time>
      </trkpt>
      <trkpt lat="43.998175" lon="7.550332">
        <ele>444.518188</ele>
        <time>2018-08-10T11:00:24Z</time>
      </trkpt>
      <trkpt lat="43.995999" lon="7.549573">
        <ele>431.630432</ele>
        <time>2018-08-10T11:00:40Z</time>
      </trkpt>
      <trkpt lat="43.993909" lon="7.549391">
        <ele>411.872803</ele>
        <time>2018-08-10T11:00:55Z</time>
      </trkpt>
      <trkpt lat="43.992184" lon="7.547315">
        <ele>402.564728</ele>
        <time>2018-08-10T11:01:11Z</time>
      </trkpt>
      <trkpt lat="43.990235" lon="7.546610">
        <ele>418.264648</ele>
        <time>2018-08-10T11:01:27Z</time>
      </trkpt>
      <trkpt lat="43.988198" lon="7.547367">
        <ele>389.516937</ele>
        <time>2018-08-10T11:01:42Z</time>
      </trkpt>
      <trkpt lat="43.986150" lon="7.546574">
        <ele>408.125641</ele>
        <time>2018-08-10T11:01:57Z</time>
      </trkpt>
      <trkpt lat="43.984191" lon="7.546173">
        <ele>448.345978</ele>
        <time>2018-08-10T11:02:13Z</time>
      </trkpt>
      <trkpt lat="43.980394" lon="7.544957">
        <ele>384.330505</ele>
        <time>2018-08-10T11:02:35Z</time>
      </trkpt>
      <trkpt lat="43.978222" lon="7.544124">
        <ele>435.847900</ele>
        <time>2018-08-10T11:02:50Z</time>
      </trkpt>
      <trkpt lat="43.975476" lon="7.540807">
        <ele>350.135498</ele>
        <time>2018-08-10T11:03:11Z</time>
      </trkpt>
      <trkpt lat="43.973325" lon="7.538979">
        <ele>361.083954</ele>
        <time>2018-08-10T11:03:27Z</time>
      </trkpt>
      <trkpt lat="43.971102" lon="7.537770">
        <ele>349.581543</ele>
        <time>2018-08-10T11:03:43Z</time>
      </trkpt>
      <trkpt lat="43.969625" lon="7.534608">
        <ele>349.813965</ele>
        <time>2018-08-10T11:03:58Z</time>
      </trkpt>
      <trkpt lat="43.968290" lon="7.530264">
        <ele>328.713287</ele>
        <time>2018-08-10T11:04:13Z</time>
      </trkpt>
      <trkpt lat="43.965973" lon="7.525960">
        <ele>337.326874</ele>
        <time>2018-08-10T11:04:29Z</time>
      </trkpt>
      <trkpt lat="43.962837" lon="7.523605">
        <ele>331.101013</ele>
        <time>2018-08-10T11:04:44Z</time>
      </trkpt>
      <trkpt lat="43.959522" lon="7.522115">
        <ele>323.087708</ele>
        <time>2018-08-10T11:05:00Z</time>
      </trkpt>
      <trkpt lat="43.958125" lon="7.521020">
        <ele>322.019501</ele>
        <time>2018-08-10T11:05:15Z</time>
      </trkpt>
      <trkpt lat="43.956158" lon="7.520865">
        <ele>304.970856</ele>
        <time>2018-08-10T11:05:31Z</time>
      </trkpt>
      <trkpt lat="43.954380" lon="7.520144">
        <ele>304.428833</ele>
        <time>2018-08-10T11:05:46Z</time>
      </trkpt>
      <trkpt lat="43.952532" lon="7.519339">
        <ele>308.939819</ele>
        <time>2018-08-10T11:06:02Z</time>
      </trkpt>
      <trkpt lat="43.950918" lon="7.518478">
        <ele>319.167389</ele>
        <time>2018-08-10T11:06:17Z</time>
      </trkpt>
      <trkpt lat="43.949860" lon="7.517432">
        <ele>341.246155</ele>
        <time>2018-08-10T11:06:33Z</time>
      </trkpt>
      <trkpt lat="43.951587" lon="7.517257">
        <ele>354.683197</ele>
        <time>2018-08-10T11:06:49Z</time>
      </trkpt>
      <trkpt lat="43.953209" lon="7.516063">
        <ele>364.757111</ele>
        <time>2018-08-10T11:07:05Z</time>
      </trkpt>
      <trkpt lat="43.954066" lon="7.514664">
        <ele>380.478455</ele>
        <time>2018-08-10T11:07:21Z</time>
      </trkpt>
      <trkpt lat="43.953795" lon="7.514707">
        <ele>392.600403</ele>
        <time>2018-08-10T11:07:37Z</time>
      </trkpt>
      <trkpt lat="43.951903" lon="7.515605">
        <ele>403.741455</ele>
        <time>2018-08-10T11:07:53Z</time>
      </trkpt>
      <trkpt lat="43.949904" lon="7.515242">
        <ele>415.926758</ele>
        <time>2018-08-10T11:08:08Z</time>
      </trkpt>
      <trkpt lat="43.949288" lon="7.513888">
        <ele>418.742249</ele>
        <time>2018-08-10T11:08:24Z</time>
      </trkpt>
      <trkpt lat="43.948133" lon="7.512547">
        <ele>435.898682</ele>
        <time>2018-08-10T11:08:39Z</time>
      </trkpt>
      <trkpt lat="43.946435" lon="7.511204">
        <ele>454.599396</ele>
        <time>2018-08-10T11:08:54Z</time>
      </trkpt>
      <trkpt lat="43.944372" lon="7.509800">
        <ele>469.142456</ele>
        <time>2018-08-10T11:09:09Z</time>
      </trkpt>
      <trkpt lat="43.942958" lon="7.508020">
        <ele>474.652222</ele>
        <time>2018-08-10T11:09:25Z</time>
      </trkpt>
      <trkpt lat="43.942411" lon="7.505225">
        <ele>474.107727</ele>
        <time>2018-08-10T11:09:41Z</time>
      </trkpt>
      <trkpt lat="43.942671" lon="7.502304">
        <ele>491.499237</ele>
        <time>2018-08-10T11:09:56Z</time>
      </trkpt>
      <trkpt lat="43.943129" lon="7.499047">
        <ele>517.251404</ele>
        <time>2018-08-10T11:10:12Z</time>
      </trkpt>
      <trkpt lat="43.943656" lon="7.496374">
        <ele>523.612488</ele>
        <time>2018-08-10T11:10:27Z</time>
      </trkpt>
      <trkpt lat="43.943930" lon="7.493225">
        <ele>555.166687</ele>
        <time>2018-08-10T11:10:42Z</time>
      </trkpt>
      <trkpt lat="43.943614" lon="7.490819">
        <ele>578.557617</ele>
        <time>2018-08-10T11:10:57Z</time>
      </trkpt>
      <trkpt lat="43.942583" lon="7.492536">
        <ele>568.667419</ele>
        <time>2018-08-10T11:11:13Z</time>
      </trkpt>
      <trkpt lat="43.940838" lon="7.492252">
        <ele>596.609619</ele>
        <time>2018-08-10T11:11:28Z</time>
      </trkpt>
      <trkpt lat="43.939231" lon="7.490383">
        <ele>608.064575</ele>
        <time>2018-08-10T11:11:44Z</time>
      </trkpt>
      <trkpt lat="43.938448" lon="7.487650">
        <ele>625.269287</ele>
        <time>2018-08-10T11:12:00Z</time>
      </trkpt>
      <trkpt lat="43.937198" lon="7.485632">
        <ele>634.373657</ele>
        <time>2018-08-10T11:12:15Z</time>
      </trkpt>
      <trkpt lat="43.937134" lon="7.482720">
        <ele>633.192139</ele>
        <time>2018-08-10T11:12:31Z</time>
      </trkpt>
      <trkpt lat="43.938444" lon="7.479981">
        <ele>664.773682</ele>
        <time>2018-08-10T11:12:47Z</time>
      </trkpt>
      <trkpt lat="43.937681" lon="7.478607">
        <ele>704.322510</ele>
        <time>2018-08-10T11:13:03Z</time>
      </trkpt>
      <trkpt lat="43.935996" lon="7.479307">
        <ele>704.351746</ele>
        <time>2018-08-10T11:13:18Z</time>
      </trkpt>
      <trkpt lat="43.935031" lon="7.479537">
        <ele>715.896240</ele>
        <time>2018-08-10T11:13:34Z</time>
      </trkpt>
      <trkpt lat="43.933773" lon="7.478455">
        <ele>737.955200</ele>
        <time>2018-08-10T11:13:50Z</time>
      </trkpt>
      <trkpt lat="43.933493" lon="7.478111">
        <ele>747.733521</ele>
        <time>2018-08-10T11:14:05Z</time>
      </trkpt>
      <trkpt lat="43.932485" lon="7.478135">
        <ele>756.577942</ele>
        <time>2018-08-10T11:14:20Z</time>
      </trkpt>
      <trkpt lat="43.930544" lon="7.477595">
        <ele>765.693604</ele>
        <time>2018-08-10T11:14:36Z</time>
      </trkpt>
      <trkpt lat="43.929032" lon="7.475290">
        <ele>789.955444</ele>
        <time>2018-08-10T11:14:51Z</time>
      </trkpt>
      <trkpt lat="43.926774" lon="7.474956">
        <ele>817.458313</ele>
        <time>2018-08-10T11:15:07Z</time>
      </trkpt>
      <trkpt lat="43.926019" lon="7.475164">
        <ele>828.657471</ele>
        <time>2018-08-10T11:15:23Z</time>
      </trkpt>
      <trkpt lat="43.927706" lon="7.474096">
        <ele>836.615234</ele>
        <time>2018-08-10T11:15:38Z</time>
      </trkpt>
      <trkpt lat="43.927093" lon="7.473639">
        <ele>868.702637</ele>
        <time>2018-08-10T11:15:54Z</time>
      </trkpt>
      <trkpt lat="43.925340" lon="7.474287">
        <ele>883.957092</ele>
        <time>2018-08-10T11:16:09Z</time>
      </trkpt>
      <trkpt lat="43.924289" lon="7.476458">
        <ele>875.712036</ele>
        <time>2018-08-10T11:16:24Z</time>
      </trkpt>
      <trkpt lat="43.924165" lon="7.476108">
        <ele>882.656982</ele>
        <time>2018-08-10T11:16:51Z</time>
      </trkpt>
      <trkpt lat="43.923311" lon="7.474754">
        <ele>883.908386</ele>
        <time>2018-08-10T11:17:07Z</time>
      </trkpt>
      <trkpt lat="43.923241" lon="7.475058">
        <ele>876.861084</ele>
        <time>2018-08-10T11:17:23Z</time>
      </trkpt>
      <trkpt lat="43.922730" lon="7.476507">
        <ele>850.573547</ele>
        <time>2018-08-10T11:17:38Z</time>
      </trkpt>
      <trkpt lat="43.922335" lon="7.476394">
        <ele>842.974609</ele>
        <time>2018-08-10T11:17:53Z</time>
      </trkpt>
      <trkpt lat="43.921743" lon="7.474807">
        <ele>830.660828</ele>
        <time>2018-08-10T11:18:08Z</time>
      </trkpt>
      <trkpt lat="43.921408" lon="7.472194">
        <ele>843.372314</ele>
        <time>2018-08-10T11:18:23Z</time>
      </trkpt>
      <trkpt lat="43.920559" lon="7.473376">
        <ele>830.454346</ele>
        <time>2018-08-10T11:18:38Z</time>
      </trkpt>
      <trkpt lat="43.918121" lon="7.475356">
        <ele>815.320923</ele>
        <time>2018-08-10T11:18:54Z</time>
      </trkpt>
      <trkpt lat="43.915671" lon="7.476475">
        <ele>802.911865</ele>
        <time>2018-08-10T11:19:09Z</time>
      </trkpt>
      <trkpt lat="43.914176" lon="7.479530">
        <ele>781.483826</ele>
        <time>2018-08-10T11:19:25Z</time>
      </trkpt>
      <trkpt lat="43.913520" lon="7.482411">
        <ele>771.736816</ele>
        <time>2018-08-10T11:19:40Z</time>
      </trkpt>
      <trkpt lat="43.911563" lon="7.481847">
        <ele>756.055725</ele>
        <time>2018-08-10T11:19:56Z</time>
      </trkpt>
      <trkpt lat="43.911216" lon="7.478749">
        <ele>754.520203</ele>
        <time>2018-08-10T11:20:12Z</time>
      </trkpt>
      <trkpt lat="43.909620" lon="7.478413">
        <ele>760.858398</ele>
        <time>2018-08-10T11:20:27Z</time>
      </trkpt>
      <trkpt lat="43.907474" lon="7.477420">
        <ele>743.533508</ele>
        <time>2018-08-10T11:20:43Z</time>
      </trkpt>
      <trkpt lat="43.907384" lon="7.475170">
        <ele>693.772888</ele>
        <time>2018-08-10T11:20:58Z</time>
      </trkpt>
      <trkpt lat="43.907340" lon="7.473567">
        <ele>725.668823</ele>
        <time>2018-08-10T11:21:13Z</time>
      </trkpt>
      <trkpt lat="43.904787" lon="7.474668">
        <ele>710.906494</ele>
        <time>2018-08-10T11:21:29Z</time>
      </trkpt>
      <trkpt lat="43.903383" lon="7.474487">
        <ele>663.014832</ele>
        <time>2018-08-10T11:21:45Z</time>
      </trkpt>
      <trkpt lat="43.901988" lon="7.473138">
        <ele>623.887329</ele>
        <time>2018-08-10T11:22:00Z</time>
      </trkpt>
      <trkpt lat="43.899347" lon="7.473791">
        <ele>622.294006</ele>
        <time>2018-08-10T11:22:16Z</time>
      </trkpt>
      <trkpt lat="43.897422" lon="7.472909">
        <ele>604.433533</ele>
        <time>2018-08-10T11:22:31Z</time>
      </trkpt>
      <trkpt lat="43.898718" lon="7.472910">
        <ele>599.284912</ele>
        <time>2018-08-10T11:22:47Z</time>
      </trkpt>
      <trkpt lat="43.897372" lon="7.472418">
        <ele>585.477417</ele>
        <time>2018-08-10T11:23:02Z</time>
      </trkpt>
      <trkpt lat="43.895298" lon="7.472145">
        <ele>560.605103</ele>
        <time>2018-08-10T11:23:17Z</time>
      </trkpt>
      <trkpt lat="43.892945" lon="7.472517">
        <ele>550.473755</ele>
        <time>2018-08-10T11:23:32Z</time>
      </trkpt>
      <trkpt lat="43.893491" lon="7.472238">
        <ele>547.012329</ele>
        <time>2018-08-10T11:23:47Z</time>
      </trkpt>
      <trkpt lat="43.892375" lon="7.472418">
        <ele>536.913696</ele>
        <time>2018-08-10T11:24:03Z</time>
      </trkpt>
      <trkpt lat="43.890835" lon="7.473245">
        <ele>520.186890</ele>
        <time>2018-08-10T11:24:18Z</time>
      </trkpt>
      <trkpt lat="43.892234" lon="7.471939">
        <ele>518.519775</ele>
        <time>2018-08-10T11:24:34Z</time>
      </trkpt>
      <trkpt lat="43.893114" lon="7.470994">
        <ele>506.302643</ele>
        <time>2018-08-10T11:24:49Z</time>
      </trkpt>
      <trkpt lat="43.891390" lon="7.471804">
        <ele>495.327148</ele>
        <time>2018-08-10T11:25:05Z</time>
      </trkpt>
      <trkpt lat="43.889685" lon="7.473059">
        <ele>480.349670</ele>
        <time>2018-08-10T11:25:21Z</time>
      </trkpt>
      <trkpt lat="43.888211" lon="7.475003">
        <ele>476.784546</ele>
        <time>2018-08-10T11:25:37Z</time>
      </trkpt>
      <trkpt lat="43.887972" lon="7.475929">
        <ele>477.419922</ele>
        <time>2018-08-10T11:25:53Z</time>
      </trkpt>
      <trkpt lat="43.888016" lon="7.476228">
        <ele>478.644562</ele>
        <time>2018-08-10T11:26:09Z</time>
      </trkpt>
      <trkpt lat="43.887823" lon="7.475300">
        <ele>466.414551</ele>
        <time>2018-08-10T11:26:25Z</time>
      </trkpt>
      <trkpt lat="43.887763" lon="7.476315">
        <ele>468.583893</ele>
        <time>2018-08-10T11:26:40Z</time>
      </trkpt>
      <trkpt lat="43.887511" lon="7.476105">
        <ele>459.443787</ele>
        <time>2018-08-10T11:26:55Z</time>
      </trkpt>
      <trkpt lat="43.887901" lon="7.474158">
        <ele>450.882629</ele>
        <time>2018-08-10T11:27:11Z</time>
      </trkpt>
      <trkpt lat="43.886979" lon="7.475775">
        <ele>440.699463</ele>
        <time>2018-08-10T11:27:26Z</time>
      </trkpt>
      <trkpt lat="43.886730" lon="7.475215">
        <ele>426.334229</ele>
        <time>2018-08-10T11:27:41Z</time>
      </trkpt>
      <trkpt lat="43.887596" lon="7.472740">
        <ele>412.576355</ele>
        <time>2018-08-10T11:27:56Z</time>
      </trkpt>
      <trkpt lat="43.888801" lon="7.469950">
        <ele>395.617279</ele>
        <time>2018-08-10T11:28:12Z</time>
      </trkpt>
      <trkpt lat="43.889160" lon="7.467103">
        <ele>430.794006</ele>
        <time>2018-08-10T11:28:28Z</time>
      </trkpt>
      <trkpt lat="43.887664" lon="7.468255">
        <ele>410.400513</ele>
        <time>2018-08-10T11:28:44Z</time>
      </trkpt>
      <trkpt lat="43.886265" lon="7.469690">
        <ele>389.254333</ele>
        <time>2018-08-10T11:28:59Z</time>
      </trkpt>
      <trkpt lat="43.884601" lon="7.470175">
        <ele>378.197021</ele>
        <time>2018-08-10T11:29:15Z</time>
      </trkpt>
      <trkpt lat="43.883586" lon="7.468260">
        <ele>380.324677</ele>
        <time>2018-08-10T11:29:30Z</time>
      </trkpt>
      <trkpt lat="43.882266" lon="7.466376">
        <ele>369.724823</ele>
        <time>2018-08-10T11:29:45Z</time>
      </trkpt>
      <trkpt lat="43.881603" lon="7.464116">
        <ele>368.203247</ele>
        <time>2018-08-10T11:30:01Z</time>
      </trkpt>
      <trkpt lat="43.880521" lon="7.462322">
        <ele>357.365845</ele>
        <time>2018-08-10T11:30:17Z</time>
      </trkpt>
      <trkpt lat="43.879939" lon="7.460677">
        <ele>350.032318</ele>
        <time>2018-08-10T11:30:32Z</time>
      </trkpt>
      <trkpt lat="43.879548" lon="7.458188">
        <ele>349.525848</ele>
        <time>2018-08-10T11:30:48Z</time>
      </trkpt>
      <trkpt lat="43.878988" lon="7.455469">
        <ele>348.879974</ele>
        <time>2018-08-10T11:31:03Z</time>
      </trkpt>
      <trkpt lat="43.878458" lon="7.453255">
        <ele>345.818298</ele>
        <time>2018-08-10T11:31:18Z</time>
      </trkpt>
      <trkpt lat="43.878050" lon="7.451519">
        <ele>345.859436</ele>
        <time>2018-08-10T11:31:33Z</time>
      </trkpt>
      <trkpt lat="43.877878" lon="7.451143">
        <ele>345.147644</ele>
        <time>2018-08-10T11:32:52Z</time>
      </trkpt>
      <trkpt lat="43.877583" lon="7.450210">
        <ele>345.019836</ele>
        <time>2018-08-10T11:33:08Z</time>
      </trkpt>
      <trkpt lat="43.877755" lon="7.449061">
        <ele>348.526703</ele>
        <time>2018-08-10T11:33:24Z</time>
      </trkpt>
      <trkpt lat="43.877854" lon="7.447994">
        <ele>351.490662</ele>
        <time>2018-08-10T11:33:40Z</time>
      </trkpt>
      <trkpt lat="43.877947" lon="7.447304">
        <ele>352.879761</ele>
        <time>2018-08-10T11:33:55Z</time>
      </trkpt>
      <trkpt lat="43.878500" lon="7.447343">
        <ele>354.547913</ele>
        <time>2018-08-10T11:34:10Z</time>
      </trkpt>
      <trkpt lat="43.878650" lon="7.446534">
        <ele>356.377563</ele>
        <time>2018-08-10T11:34:26Z</time>
      </trkpt>
      <trkpt lat="43.878473" lon="7.447087">
        <ele>354.584106</ele>
        <time>2018-08-10T11:34:42Z</time>
      </trkpt>
      <trkpt lat="43.878019" lon="7.447291">
        <ele>352.968689</ele>
        <time>2018-08-10T11:34:57Z</time>
      </trkpt>
      <trkpt lat="43.878087" lon="7.446946">
        <ele>353.565002</ele>
        <time>2018-08-10T11:35:12Z</time>
      </trkpt>
      <trkpt lat="43.878001" lon="7.447149">
        <ele>353.190735</ele>
        <time>2018-08-10T11:35:29Z</time>
      </trkpt>
      <trkpt lat="43.877819" lon="7.447525">
        <ele>352.335205</ele>
        <time>2018-08-10T11:35:44Z</time>
      </trkpt>
      <trkpt lat="43.877917" lon="7.448273">
        <ele>351.110229</ele>
        <time>2018-08-10T11:36:00Z</time>
      </trkpt>
      <trkpt lat="43.877899" lon="7.448084">
        <ele>351.412903</ele>
        <time>2018-08-10T11:42:50Z</time>
      </trkpt>
      <trkpt lat="43.877838" lon="7.447915">
        <ele>351.610535</ele>
        <time>2018-08-10T11:45:36Z</time>
      </trkpt>
      <trkpt lat="43.877833" lon="7.447692">
        <ele>352.030212</ele>
        <time>2018-08-10T11:45:51Z</time>
      </trkpt>
      <trkpt lat="43.877901" lon="7.447860">
        <ele>351.824768</ele>
        <time>2018-08-10T11:46:40Z</time>
      </trkpt>
      <trkpt lat="43.877955" lon="7.448036">
        <ele>351.609863</ele>
        <time>2018-08-10T11:47:27Z</time>
      </trkpt>
      <trkpt lat="43.877856" lon="7.448171">
        <ele>351.159485</ele>
        <time>2018-08-10T13:01:27Z</time>
      </trkpt>
      <trkpt lat="43.877844" lon="7.447957">
        <ele>351.541687</ele>
        <time>2018-08-10T13:10:18Z</time>
      </trkpt>
      <trkpt lat="43.877880" lon="7.448240">
        <ele>351.084473</ele>
        <time>2018-08-10T13:10:33Z</time>
      </trkpt>
      <trkpt lat="43.877856" lon="7.448028">
        <ele>351.430573</ele>
        <time>2018-08-10T13:17:38Z</time>
      </trkpt>
      <trkpt lat="43.877840" lon="7.447075">
        <ele>353.218872</ele>
        <time>2018-08-10T13:17:54Z</time>
      </trkpt>
      <trkpt lat="43.877994" lon="7.445171">
        <ele>356.525726</ele>
        <time>2018-08-10T13:18:09Z</time>
      </trkpt>
      <trkpt lat="43.878055" lon="7.443200">
        <ele>361.378601</ele>
        <time>2018-08-10T13:18:25Z</time>
      </trkpt>
      <trkpt lat="43.877594" lon="7.444373">
        <ele>359.948029</ele>
        <time>2018-08-10T13:18:40Z</time>
      </trkpt>
      <trkpt lat="43.876693" lon="7.443611">
        <ele>372.707611</ele>
        <time>2018-08-10T13:18:56Z</time>
      </trkpt>
      <trkpt lat="43.875522" lon="7.443874">
        <ele>394.254089</ele>
        <time>2018-08-10T13:19:11Z</time>
      </trkpt>
      <trkpt lat="43.874880" lon="7.446027">
        <ele>404.054810</ele>
        <time>2018-08-10T13:19:26Z</time>
      </trkpt>
      <trkpt lat="43.873286" lon="7.444809">
        <ele>424.621613</ele>
        <time>2018-08-10T13:19:42Z</time>
      </trkpt>
      <trkpt lat="43.871541" lon="7.443344">
        <ele>439.795837</ele>
        <time>2018-08-10T13:19:58Z</time>
      </trkpt>
      <trkpt lat="43.869435" lon="7.443433">
        <ele>454.290344</ele>
        <time>2018-08-10T13:20:14Z</time>
      </trkpt>
      <trkpt lat="43.867051" lon="7.442287">
        <ele>474.129761</ele>
        <time>2018-08-10T13:20:30Z</time>
      </trkpt>
      <trkpt lat="43.865509" lon="7.442547">
        <ele>462.661743</ele>
        <time>2018-08-10T13:20:45Z</time>
      </trkpt>
      <trkpt lat="43.863828" lon="7.442697">
        <ele>481.305969</ele>
        <time>2018-08-10T13:21:01Z</time>
      </trkpt>
      <trkpt lat="43.862207" lon="7.442710">
        <ele>495.329468</ele>
        <time>2018-08-10T13:21:16Z</time>
      </trkpt>
      <trkpt lat="43.860465" lon="7.442488">
        <ele>511.860718</ele>
        <time>2018-08-10T13:21:32Z</time>
      </trkpt>
      <trkpt lat="43.858957" lon="7.442938">
        <ele>508.000641</ele>
        <time>2018-08-10T13:21:47Z</time>
      </trkpt>
      <trkpt lat="43.857792" lon="7.441035">
        <ele>525.987244</ele>
        <time>2018-08-10T13:22:02Z</time>
      </trkpt>
      <trkpt lat="43.856948" lon="7.438971">
        <ele>529.813782</ele>
        <time>2018-08-10T13:22:18Z</time>
      </trkpt>
      <trkpt lat="43.856636" lon="7.436558">
        <ele>532.004639</ele>
        <time>2018-08-10T13:22:34Z</time>
      </trkpt>
      <trkpt lat="43.856795" lon="7.433850">
        <ele>532.880066</ele>
        <time>2018-08-10T13:22:50Z</time>
      </trkpt>
      <trkpt lat="43.857485" lon="7.431699">
        <ele>549.906250</ele>
        <time>2018-08-10T13:23:05Z</time>
      </trkpt>
      <trkpt lat="43.857493" lon="7.430016">
        <ele>577.434448</ele>
        <time>2018-08-10T13:23:21Z</time>
      </trkpt>
      <trkpt lat="43.858061" lon="7.429626">
        <ele>589.243591</ele>
        <time>2018-08-10T13:23:37Z</time>
      </trkpt>
      <trkpt lat="43.858432" lon="7.431215">
        <ele>582.493164</ele>
        <time>2018-08-10T13:23:52Z</time>
      </trkpt>
      <trkpt lat="43.859010" lon="7.430129">
        <ele>593.335876</ele>
        <time>2018-08-10T13:24:08Z</time>
      </trkpt>
      <trkpt lat="43.858495" lon="7.428843">
        <ele>610.842529</ele>
        <time>2018-08-10T13:24:23Z</time>
      </trkpt>
      <trkpt lat="43.859728" lon="7.429196">
        <ele>621.183960</ele>
        <time>2018-08-10T13:24:39Z</time>
      </trkpt>
      <trkpt lat="43.859803" lon="7.430282">
        <ele>617.836792</ele>
        <time>2018-08-10T13:24:54Z</time>
      </trkpt>
      <trkpt lat="43.859822" lon="7.428164">
        <ele>643.377319</ele>
        <time>2018-08-10T13:25:09Z</time>
      </trkpt>
      <trkpt lat="43.860054" lon="7.427964">
        <ele>650.130310</ele>
        <time>2018-08-10T13:25:24Z</time>
      </trkpt>
      <trkpt lat="43.861003" lon="7.427057">
        <ele>663.816284</ele>
        <time>2018-08-10T13:25:40Z</time>
      </trkpt>
      <trkpt lat="43.861436" lon="7.426487">
        <ele>669.003540</ele>
        <time>2018-08-10T13:25:55Z</time>
      </trkpt>
      <trkpt lat="43.859691" lon="7.427131">
        <ele>672.918701</ele>
        <time>2018-08-10T13:26:11Z</time>
      </trkpt>
      <trkpt lat="43.860671" lon="7.426489">
        <ele>686.769531</ele>
        <time>2018-08-10T13:26:26Z</time>
      </trkpt>
      <trkpt lat="43.860280" lon="7.426627">
        <ele>687.413757</ele>
        <time>2018-08-10T13:26:41Z</time>
      </trkpt>
      <trkpt lat="43.861272" lon="7.425694">
        <ele>696.654663</ele>
        <time>2018-08-10T13:26:57Z</time>
      </trkpt>
      <trkpt lat="43.861944" lon="7.423054">
        <ele>710.497681</ele>
        <time>2018-08-10T13:27:13Z</time>
      </trkpt>
      <trkpt lat="43.862558" lon="7.421153">
        <ele>738.599731</ele>
        <time>2018-08-10T13:27:29Z</time>
      </trkpt>
      <trkpt lat="43.864135" lon="7.421513">
        <ele>747.397034</ele>
        <time>2018-08-10T13:27:45Z</time>
      </trkpt>
      <trkpt lat="43.865225" lon="7.421878">
        <ele>747.210449</ele>
        <time>2018-08-10T13:28:01Z</time>
      </trkpt>
      <trkpt lat="43.865954" lon="7.422746">
        <ele>750.605957</ele>
        <time>2018-08-10T13:28:17Z</time>
      </trkpt>
      <trkpt lat="43.865899" lon="7.422213">
        <ele>761.318909</ele>
        <time>2018-08-10T13:28:32Z</time>
      </trkpt>
      <trkpt lat="43.867173" lon="7.422043">
        <ele>767.867065</ele>
        <time>2018-08-10T13:28:48Z</time>
      </trkpt>
      <trkpt lat="43.866610" lon="7.422031">
        <ele>773.365662</ele>
        <time>2018-08-10T13:29:04Z</time>
      </trkpt>
      <trkpt lat="43.868119" lon="7.420933">
        <ele>783.013428</ele>
        <time>2018-08-10T13:29:20Z</time>
      </trkpt>
      <trkpt lat="43.868903" lon="7.420164">
        <ele>789.138611</ele>
        <time>2018-08-10T13:29:35Z</time>
      </trkpt>
      <trkpt lat="43.868491" lon="7.420213">
        <ele>795.491699</ele>
        <time>2018-08-10T13:29:51Z</time>
      </trkpt>
      <trkpt lat="43.870135" lon="7.418543">
        <ele>809.815918</ele>
        <time>2018-08-10T13:30:06Z</time>
      </trkpt>
      <trkpt lat="43.872147" lon="7.416505">
        <ele>820.884766</ele>
        <time>2018-08-10T13:30:22Z</time>
      </trkpt>
      <trkpt lat="43.872113" lon="7.413278">
        <ele>829.810791</ele>
        <time>2018-08-10T13:30:37Z</time>
      </trkpt>
      <trkpt lat="43.871923" lon="7.410752">
        <ele>857.519287</ele>
        <time>2018-08-10T13:30:53Z</time>
      </trkpt>
      <trkpt lat="43.871547" lon="7.407881">
        <ele>885.856995</ele>
        <time>2018-08-10T13:31:09Z</time>
      </trkpt>
      <trkpt lat="43.870732" lon="7.405767">
        <ele>903.834167</ele>
        <time>2018-08-10T13:31:24Z</time>
      </trkpt>
      <trkpt lat="43.872003" lon="7.406969">
        <ele>909.042053</ele>
        <time>2018-08-10T13:31:39Z</time>
      </trkpt>
      <trkpt lat="43.873453" lon="7.407392">
        <ele>919.606628</ele>
        <time>2018-08-10T13:31:55Z</time>
      </trkpt>
      <trkpt lat="43.873533" lon="7.407874">
        <ele>916.525391</ele>
        <time>2018-08-10T13:32:10Z</time>
      </trkpt>
      <trkpt lat="43.873622" lon="7.408284">
        <ele>916.675110</ele>
        <time>2018-08-10T13:32:26Z</time>
      </trkpt>
      <trkpt lat="43.873843" lon="7.408224">
        <ele>927.893250</ele>
        <time>2018-08-10T13:32:41Z</time>
      </trkpt>
      <trkpt lat="43.873829" lon="7.405672">
        <ele>972.028198</ele>
        <time>2018-08-10T13:32:56Z</time>
      </trkpt>
      <trkpt lat="43.872506" lon="7.404981">
        <ele>958.180847</ele>
        <time>2018-08-10T13:33:12Z</time>
      </trkpt>
      <trkpt lat="43.872923" lon="7.402072">
        <ele>991.015503</ele>
        <time>2018-08-10T13:33:28Z</time>
      </trkpt>
      <trkpt lat="43.872497" lon="7.399838">
        <ele>1001.652649</ele>
        <time>2018-08-10T13:33:44Z</time>
      </trkpt>
      <trkpt lat="43.873006" lon="7.398435">
        <ele>994.808044</ele>
        <time>2018-08-10T13:34:00Z</time>
      </trkpt>
      <trkpt lat="43.874046" lon="7.396408">
        <ele>986.514648</ele>
        <time>2018-08-10T13:34:16Z</time>
      </trkpt>
      <trkpt lat="43.873461" lon="7.394308">
        <ele>988.678101</ele>
        <time>2018-08-10T13:34:31Z</time>
      </trkpt>
      <trkpt lat="43.872168" lon="7.392966">
        <ele>975.862183</ele>
        <time>2018-08-10T13:34:47Z</time>
      </trkpt>
      <trkpt lat="43.870331" lon="7.391236">
        <ele>963.434448</ele>
        <time>2018-08-10T13:35:03Z</time>
      </trkpt>
      <trkpt lat="43.868305" lon="7.390150">
        <ele>940.982971</ele>
        <time>2018-08-10T13:35:18Z</time>
      </trkpt>
      <trkpt lat="43.867433" lon="7.388572">
        <ele>897.904602</ele>
        <time>2018-08-10T13:35:34Z</time>
      </trkpt>
      <trkpt lat="43.868541" lon="7.386212">
        <ele>903.886841</ele>
        <time>2018-08-10T13:35:49Z</time>
      </trkpt>
      <trkpt lat="43.868780" lon="7.383926">
        <ele>872.027893</ele>
        <time>2018-08-10T13:36:05Z</time>
      </trkpt>
      <trkpt lat="43.868864" lon="7.381896">
        <ele>882.337585</ele>
        <time>2018-08-10T13:36:21Z</time>
      </trkpt>
      <trkpt lat="43.866950" lon="7.380320">
        <ele>862.997192</ele>
        <time>2018-08-10T13:36:36Z</time>
      </trkpt>
      <trkpt lat="43.866329" lon="7.380180">
        <ele>843.767822</ele>
        <time>2018-08-10T13:36:52Z</time>
      </trkpt>
      <trkpt lat="43.866575" lon="7.380645">
        <ele>838.653198</ele>
        <time>2018-08-10T13:37:07Z</time>
      </trkpt>
      <trkpt lat="43.866276" lon="7.380664">
        <ele>824.721558</ele>
        <time>2018-08-10T13:37:23Z</time>
      </trkpt>
      <trkpt lat="43.866117" lon="7.380718">
        <ele>816.095947</ele>
        <time>2018-08-10T13:37:39Z</time>
      </trkpt>
      <trkpt lat="43.866406" lon="7.381424">
        <ele>802.520447</ele>
        <time>2018-08-10T13:37:54Z</time>
      </trkpt>
      <trkpt lat="43.865864" lon="7.381007">
        <ele>796.761230</ele>
        <time>2018-08-10T13:38:10Z</time>
      </trkpt>
      <trkpt lat="43.865483" lon="7.379972">
        <ele>794.202515</ele>
        <time>2018-08-10T13:38:26Z</time>
      </trkpt>
      <trkpt lat="43.864528" lon="7.377708">
        <ele>747.572693</ele>
        <time>2018-08-10T13:38:42Z</time>
      </trkpt>
      <trkpt lat="43.864243" lon="7.377726">
        <ele>734.082153</ele>
        <time>2018-08-10T13:38:57Z</time>
      </trkpt>
      <trkpt lat="43.864945" lon="7.379998">
        <ele>750.677856</ele>
        <time>2018-08-10T13:39:12Z</time>
      </trkpt>
      <trkpt lat="43.865038" lon="7.381344">
        <ele>726.374573</ele>
        <time>2018-08-10T13:39:28Z</time>
      </trkpt>
      <trkpt lat="43.864095" lon="7.379009">
        <ele>724.032776</ele>
        <time>2018-08-10T13:39:43Z</time>
      </trkpt>
      <trkpt lat="43.863466" lon="7.377293">
        <ele>694.568420</ele>
        <time>2018-08-10T13:39:59Z</time>
      </trkpt>
      <trkpt lat="43.863316" lon="7.377176">
        <ele>685.736206</ele>
        <time>2018-08-10T13:40:14Z</time>
      </trkpt>
      <trkpt lat="43.864134" lon="7.375319">
        <ele>680.172913</ele>
        <time>2018-08-10T13:40:30Z</time>
      </trkpt>
      <trkpt lat="43.862956" lon="7.376964">
        <ele>670.773315</ele>
        <time>2018-08-10T13:40:45Z</time>
      </trkpt>
      <trkpt lat="43.863566" lon="7.375753">
        <ele>668.674561</ele>
        <time>2018-08-10T13:41:01Z</time>
      </trkpt>
      <trkpt lat="43.862619" lon="7.376290">
        <ele>664.005615</ele>
        <time>2018-08-10T13:41:17Z</time>
      </trkpt>
      <trkpt lat="43.860945" lon="7.376922">
        <ele>642.272217</ele>
        <time>2018-08-10T13:41:33Z</time>
      </trkpt>
      <trkpt lat="43.860829" lon="7.377592">
        <ele>627.913025</ele>
        <time>2018-08-10T13:41:48Z</time>
      </trkpt>
      <trkpt lat="43.859341" lon="7.376663">
        <ele>653.499451</ele>
        <time>2018-08-10T13:42:04Z</time>
      </trkpt>
      <trkpt lat="43.857459" lon="7.377585">
        <ele>639.043396</ele>
        <time>2018-08-10T13:42:19Z</time>
      </trkpt>
      <trkpt lat="43.855951" lon="7.376233">
        <ele>580.213257</ele>
        <time>2018-08-10T13:42:35Z</time>
      </trkpt>
      <trkpt lat="43.856164" lon="7.374144">
        <ele>601.068481</ele>
        <time>2018-08-10T13:42:51Z</time>
      </trkpt>
      <trkpt lat="43.854558" lon="7.371845">
        <ele>591.196167</ele>
        <time>2018-08-10T13:43:06Z</time>
      </trkpt>
      <trkpt lat="43.853492" lon="7.370907">
        <ele>571.167725</ele>
        <time>2018-08-10T13:43:22Z</time>
      </trkpt>
      <trkpt lat="43.854149" lon="7.372202">
        <ele>554.648376</ele>
        <time>2018-08-10T13:43:37Z</time>
      </trkpt>
      <trkpt lat="43.852517" lon="7.370315">
        <ele>540.981628</ele>
        <time>2018-08-10T13:43:53Z</time>
      </trkpt>
      <trkpt lat="43.850773" lon="7.368666">
        <ele>503.370972</ele>
        <time>2018-08-10T13:44:08Z</time>
      </trkpt>
      <trkpt lat="43.849653" lon="7.366528">
        <ele>483.992981</ele>
        <time>2018-08-10T13:44:24Z</time>
      </trkpt>
      <trkpt lat="43.849882" lon="7.367586">
        <ele>480.487488</ele>
        <time>2018-08-10T13:44:39Z</time>
      </trkpt>
      <trkpt lat="43.849387" lon="7.365487">
        <ele>473.704712</ele>
        <time>2018-08-10T13:44:55Z</time>
      </trkpt>
      <trkpt lat="43.848187" lon="7.364894">
        <ele>446.793610</ele>
        <time>2018-08-10T13:45:11Z</time>
      </trkpt>
      <trkpt lat="43.848169" lon="7.363047">
        <ele>447.905396</ele>
        <time>2018-08-10T13:45:26Z</time>
      </trkpt>
      <trkpt lat="43.847277" lon="7.361950">
        <ele>438.820007</ele>
        <time>2018-08-10T13:45:42Z</time>
      </trkpt>
      <trkpt lat="43.846343" lon="7.360143">
        <ele>438.927032</ele>
        <time>2018-08-10T13:45:57Z</time>
      </trkpt>
      <trkpt lat="43.844378" lon="7.358957">
        <ele>411.199432</ele>
        <time>2018-08-10T13:46:13Z</time>
      </trkpt>
      <trkpt lat="43.842697" lon="7.357572">
        <ele>407.928589</ele>
        <time>2018-08-10T13:46:29Z</time>
      </trkpt>
      <trkpt lat="43.840648" lon="7.356245">
        <ele>389.478485</ele>
        <time>2018-08-10T13:46:44Z</time>
      </trkpt>
      <trkpt lat="43.838834" lon="7.355259">
        <ele>383.584839</ele>
        <time>2018-08-10T13:47:00Z</time>
      </trkpt>
      <trkpt lat="43.837323" lon="7.355224">
        <ele>378.532043</ele>
        <time>2018-08-10T13:47:15Z</time>
      </trkpt>
      <trkpt lat="43.836961" lon="7.355134">
        <ele>375.090027</ele>
        <time>2018-08-10T13:47:31Z</time>
      </trkpt>
      <trkpt lat="43.835999" lon="7.354329">
        <ele>363.368225</ele>
        <time>2018-08-10T13:47:47Z</time>
      </trkpt>
      <trkpt lat="43.835109" lon="7.353367">
        <ele>379.498596</ele>
        <time>2018-08-10T13:48:03Z</time>
      </trkpt>
      <trkpt lat="43.833913" lon="7.354331">
        <ele>372.986206</ele>
        <time>2018-08-10T13:48:19Z</time>
      </trkpt>
      <trkpt lat="43.832646" lon="7.353185">
        <ele>379.964874</ele>
        <time>2018-08-10T13:48:34Z</time>
      </trkpt>
      <trkpt lat="43.830922" lon="7.351461">
        <ele>396.676666</ele>
        <time>2018-08-10T13:48:50Z</time>
      </trkpt>
      <trkpt lat="43.828598" lon="7.350539">
        <ele>400.394379</ele>
        <time>2018-08-10T13:49:05Z</time>
      </trkpt>
      <trkpt lat="43.826562" lon="7.350257">
        <ele>411.222900</ele>
        <time>2018-08-10T13:49:21Z</time>
      </trkpt>
      <trkpt lat="43.825038" lon="7.350962">
        <ele>408.921600</ele>
        <time>2018-08-10T13:49:37Z</time>
      </trkpt>
      <trkpt lat="43.823203" lon="7.352031">
        <ele>401.760803</ele>
        <time>2018-08-10T13:49:52Z</time>
      </trkpt>
      <trkpt lat="43.821121" lon="7.353003">
        <ele>389.138123</ele>
        <time>2018-08-10T13:50:08Z</time>
      </trkpt>
      <trkpt lat="43.821097" lon="7.352602">
        <ele>373.798218</ele>
        <time>2018-08-10T13:50:23Z</time>
      </trkpt>
      <trkpt lat="43.820230" lon="7.353977">
        <ele>393.412842</ele>
        <time>2018-08-10T13:50:39Z</time>
      </trkpt>
      <trkpt lat="43.820577" lon="7.352072">
        <ele>347.203461</ele>
        <time>2018-08-10T13:50:55Z</time>
      </trkpt>
      <trkpt lat="43.820352" lon="7.352533">
        <ele>351.769287</ele>
        <time>2018-08-10T13:51:10Z</time>
      </trkpt>
      <trkpt lat="43.818702" lon="7.353796">
        <ele>345.377777</ele>
        <time>2018-08-10T13:51:25Z</time>
      </trkpt>
      <trkpt lat="43.816240" lon="7.354418">
        <ele>295.056030</ele>
        <time>2018-08-10T13:51:41Z</time>
      </trkpt>
      <trkpt lat="43.813959" lon="7.356101">
        <ele>273.733826</ele>
        <time>2018-08-10T13:51:57Z</time>
      </trkpt>
      <trkpt lat="43.811390" lon="7.356819">
        <ele>245.193695</ele>
        <time>2018-08-10T13:52:12Z</time>
      </trkpt>
      <trkpt lat="43.809201" lon="7.357188">
        <ele>240.078461</ele>
        <time>2018-08-10T13:52:27Z</time>
      </trkpt>
      <trkpt lat="43.806385" lon="7.356666">
        <ele>223.316345</ele>
        <time>2018-08-10T13:52:43Z</time>
      </trkpt>
      <trkpt lat="43.803637" lon="7.355907">
        <ele>216.570694</ele>
        <time>2018-08-10T13:52:59Z</time>
      </trkpt>
      <trkpt lat="43.800787" lon="7.355130">
        <ele>201.888672</ele>
        <time>2018-08-10T13:53:15Z</time>
      </trkpt>
      <trkpt lat="43.798702" lon="7.354743">
        <ele>200.000000</ele>
        <time>2018-08-10T13:53:31Z</time>
      </trkpt>
      <trkpt lat="43.796060" lon="7.353986">
        <ele>189.268585</ele>
        <time>2018-08-10T13:53:47Z</time>
      </trkpt>
      <trkpt lat="43.793902" lon="7.353170">
        <ele>180.267853</ele>
        <time>2018-08-10T13:54:02Z</time>
      </trkpt>
      <trkpt lat="43.792485" lon="7.351677">
        <ele>180.000000</ele>
        <time>2018-08-10T13:54:18Z</time>
      </trkpt>
      <trkpt lat="43.790308" lon="7.350234">
        <ele>178.443268</ele>
        <time>2018-08-10T13:54:34Z</time>
      </trkpt>
      <trkpt lat="43.788939" lon="7.347817">
        <ele>162.529251</ele>
        <time>2018-08-10T13:54:49Z</time>
      </trkpt>
      <trkpt lat="43.787759" lon="7.345875">
        <ele>155.576889</ele>
        <time>2018-08-10T13:55:04Z</time>
      </trkpt>
      <trkpt lat="43.786838" lon="7.343798">
        <ele>141.885315</ele>
        <time>2018-08-10T13:55:20Z</time>
      </trkpt>
      <trkpt lat="43.786032" lon="7.342834">
        <ele>140.000000</ele>
        <time>2018-08-10T13:55:36Z</time>
      </trkpt>
      <trkpt lat="43.784958" lon="7.341851">
        <ele>140.011108</ele>
        <time>2018-08-10T13:55:51Z</time>
      </trkpt>
      <trkpt lat="43.783872" lon="7.340622">
        <ele>140.327484</ele>
        <time>2018-08-10T13:56:07Z</time>
      </trkpt>
      <trkpt lat="43.783208" lon="7.339666">
        <ele>139.849121</ele>
        <time>2018-08-10T13:56:22Z</time>
      </trkpt>
      <trkpt lat="43.782246" lon="7.339098">
        <ele>138.587067</ele>
        <time>2018-08-10T13:56:38Z</time>
      </trkpt>
      <trkpt lat="43.781765" lon="7.338386">
        <ele>136.354324</ele>
        <time>2018-08-10T13:56:53Z</time>
      </trkpt>
      <trkpt lat="43.781479" lon="7.337965">
        <ele>134.916183</ele>
        <time>2018-08-10T13:57:09Z</time>
      </trkpt>
      <trkpt lat="43.781496" lon="7.337778">
        <ele>134.393585</ele>
        <time>2018-08-10T13:57:28Z</time>
      </trkpt>
      <trkpt lat="43.780612" lon="7.337383">
        <ele>130.997620</ele>
        <time>2018-08-10T13:57:44Z</time>
      </trkpt>
      <trkpt lat="43.778122" lon="7.337233">
        <ele>125.598206</ele>
        <time>2018-08-10T13:58:00Z</time>
      </trkpt>
      <trkpt lat="43.774894" lon="7.335548">
        <ele>119.673218</ele>
        <time>2018-08-10T13:58:16Z</time>
      </trkpt>
      <trkpt lat="43.772889" lon="7.332040">
        <ele>119.273277</ele>
        <time>2018-08-10T13:58:31Z</time>
      </trkpt>
      <trkpt lat="43.767841" lon="7.324980">
        <ele>111.460205</ele>
        <time>2018-08-10T13:59:09Z</time>
      </trkpt>
      <trkpt lat="43.765350" lon="7.322171">
        <ele>101.416313</ele>
        <time>2018-08-10T13:59:25Z</time>
      </trkpt>
      <trkpt lat="43.763036" lon="7.320878">
        <ele>97.927963</ele>
        <time>2018-08-10T13:59:40Z</time>
      </trkpt>
      <trkpt lat="43.761994" lon="7.319548">
        <ele>96.606308</ele>
        <time>2018-08-10T13:59:55Z</time>
      </trkpt>
      <trkpt lat="43.760614" lon="7.318290">
        <ele>95.565498</ele>
        <time>2018-08-10T14:00:10Z</time>
      </trkpt>
      <trkpt lat="43.758385" lon="7.317509">
        <ele>92.927536</ele>
        <time>2018-08-10T14:00:26Z</time>
      </trkpt>
      <trkpt lat="43.755566" lon="7.318732">
        <ele>91.097160</ele>
        <time>2018-08-10T14:00:42Z</time>
      </trkpt>
      <trkpt lat="43.752681" lon="7.318595">
        <ele>89.308952</ele>
        <time>2018-08-10T14:00:58Z</time>
      </trkpt>
      <trkpt lat="43.749981" lon="7.318063">
        <ele>79.293640</ele>
        <time>2018-08-10T14:01:13Z</time>
      </trkpt>
      <trkpt lat="43.747670" lon="7.316566">
        <ele>77.446472</ele>
        <time>2018-08-10T14:01:28Z</time>
      </trkpt>
      <trkpt lat="43.746318" lon="7.313435">
        <ele>87.636688</ele>
        <time>2018-08-10T14:01:44Z</time>
      </trkpt>
      <trkpt lat="43.744962" lon="7.310076">
        <ele>89.281944</ele>
        <time>2018-08-10T14:01:59Z</time>
      </trkpt>
      <trkpt lat="43.742862" lon="7.308548">
        <ele>74.404160</ele>
        <time>2018-08-10T14:02:15Z</time>
      </trkpt>
      <trkpt lat="43.741784" lon="7.308858">
        <ele>67.444908</ele>
        <time>2018-08-10T14:02:30Z</time>
      </trkpt>
      <trkpt lat="43.741207" lon="7.308971">
        <ele>62.529217</ele>
        <time>2018-08-10T14:02:46Z</time>
      </trkpt>
      <trkpt lat="43.740977" lon="7.310125">
        <ele>60.051533</ele>
        <time>2018-08-10T14:03:02Z</time>
      </trkpt>
      <trkpt lat="43.739149" lon="7.309653">
        <ele>58.407532</ele>
        <time>2018-08-10T14:03:18Z</time>
      </trkpt>
      <trkpt lat="43.737038" lon="7.308119">
        <ele>57.446106</ele>
        <time>2018-08-10T14:03:34Z</time>
      </trkpt>
      <trkpt lat="43.735417" lon="7.305741">
        <ele>56.000977</ele>
        <time>2018-08-10T14:03:50Z</time>
      </trkpt>
      <trkpt lat="43.734538" lon="7.302539">
        <ele>54.445129</ele>
        <time>2018-08-10T14:04:06Z</time>
      </trkpt>
      <trkpt lat="43.734165" lon="7.299438">
        <ele>52.003399</ele>
        <time>2018-08-10T14:04:21Z</time>
      </trkpt>
      <trkpt lat="43.733652" lon="7.295429">
        <ele>52.097206</ele>
        <time>2018-08-10T14:04:37Z</time>
      </trkpt>
      <trkpt lat="43.733054" lon="7.291441">
        <ele>51.752354</ele>
        <time>2018-08-10T14:04:52Z</time>
      </trkpt>
      <trkpt lat="43.731830" lon="7.287671">
        <ele>49.088200</ele>
        <time>2018-08-10T14:05:08Z</time>
      </trkpt>
      <trkpt lat="43.730546" lon="7.284432">
        <ele>47.525375</ele>
        <time>2018-08-10T14:05:23Z</time>
      </trkpt>
      <trkpt lat="43.728160" lon="7.283388">
        <ele>41.791664</ele>
        <time>2018-08-10T14:05:39Z</time>
      </trkpt>
      <trkpt lat="43.726061" lon="7.285997">
        <ele>45.188507</ele>
        <time>2018-08-10T14:05:54Z</time>
      </trkpt>
      <trkpt lat="43.724126" lon="7.288157">
        <ele>36.903564</ele>
        <time>2018-08-10T14:06:10Z</time>
      </trkpt>
      <trkpt lat="43.723006" lon="7.288658">
        <ele>34.756817</ele>
        <time>2018-08-10T14:06:25Z</time>
      </trkpt>
      <trkpt lat="43.723008" lon="7.289191">
        <ele>35.655857</ele>
        <time>2018-08-10T14:07:29Z</time>
      </trkpt>
      <trkpt lat="43.722940" lon="7.289858">
        <ele>36.796574</ele>
        <time>2018-08-10T14:07:45Z</time>
      </trkpt>
      <trkpt lat="43.723021" lon="7.289705">
        <ele>36.673798</ele>
        <time>2018-08-10T14:08:02Z</time>
      </trkpt>
      <trkpt lat="43.723042" lon="7.289132">
        <ele>35.593426</ele>
        <time>2018-08-10T14:08:17Z</time>
      </trkpt>
      <trkpt lat="43.723027" lon="7.288020">
        <ele>34.541397</ele>
        <time>2018-08-10T14:08:32Z</time>
      </trkpt>
      <trkpt lat="43.723147" lon="7.287540">
        <ele>34.978569</ele>
        <time>2018-08-10T14:08:48Z</time>
      </trkpt>
      <trkpt lat="43.723183" lon="7.287217">
        <ele>35.339539</ele>
        <time>2018-08-10T14:09:03Z</time>
      </trkpt>
      <trkpt lat="43.723262" lon="7.286568">
        <ele>36.118530</ele>
        <time>2018-08-10T14:09:19Z</time>
      </trkpt>
      <trkpt lat="43.723427" lon="7.284958">
        <ele>38.156219</ele>
        <time>2018-08-10T14:09:35Z</time>
      </trkpt>
      <trkpt lat="43.723043" lon="7.284154">
        <ele>39.015228</ele>
        <time>2018-08-10T14:09:51Z</time>
      </trkpt>
      <trkpt lat="43.721800" lon="7.283843">
        <ele>38.875885</ele>
        <time>2018-08-10T14:10:06Z</time>
      </trkpt>
      <trkpt lat="43.720162" lon="7.283668">
        <ele>37.469421</ele>
        <time>2018-08-10T14:10:22Z</time>
      </trkpt>
      <trkpt lat="43.719369" lon="7.283543">
        <ele>35.980347</ele>
        <time>2018-08-10T14:10:37Z</time>
      </trkpt>
      <trkpt lat="43.718302" lon="7.282237">
        <ele>36.470066</ele>
        <time>2018-08-10T14:10:53Z</time>
      </trkpt>
      <trkpt lat="43.717383" lon="7.281544">
        <ele>34.780838</ele>
        <time>2018-08-10T14:11:08Z</time>
      </trkpt>
      <trkpt lat="43.717196" lon="7.281479">
        <ele>34.013847</ele>
        <time>2018-08-10T14:11:45Z</time>
      </trkpt>
      <trkpt lat="43.716009" lon="7.281263">
        <ele>31.252092</ele>
        <time>2018-08-10T14:12:01Z</time>
      </trkpt>
      <trkpt lat="43.714943" lon="7.281559">
        <ele>28.456299</ele>
        <time>2018-08-10T14:12:17Z</time>
      </trkpt>
      <trkpt lat="43.713386" lon="7.282561">
        <ele>24.847557</ele>
        <time>2018-08-10T14:12:32Z</time>
      </trkpt>
      <trkpt lat="43.711898" lon="7.282844">
        <ele>21.191727</ele>
        <time>2018-08-10T14:12:48Z</time>
      </trkpt>
      <trkpt lat="43.711437" lon="7.282907">
        <ele>20.370672</ele>
        <time>2018-08-10T14:13:08Z</time>
      </trkpt>
      <trkpt lat="43.710445" lon="7.282655">
        <ele>20.000000</ele>
        <time>2018-08-10T14:13:24Z</time>
      </trkpt>
      <trkpt lat="43.708955" lon="7.282170">
        <ele>19.846714</ele>
        <time>2018-08-10T14:13:40Z</time>
      </trkpt>
      <trkpt lat="43.707485" lon="7.281681">
        <ele>18.946033</ele>
        <time>2018-08-10T14:13:55Z</time>
      </trkpt>
      <trkpt lat="43.706275" lon="7.281946">
        <ele>16.842649</ele>
        <time>2018-08-10T14:14:11Z</time>
      </trkpt>
      <trkpt lat="43.705970" lon="7.282867">
        <ele>15.723816</ele>
        <time>2018-08-10T14:14:27Z</time>
      </trkpt>
      <trkpt lat="43.705900" lon="7.283126">
        <ele>15.328674</ele>
        <time>2018-08-10T14:14:48Z</time>
      </trkpt>
      <trkpt lat="43.705284" lon="7.285112">
        <ele>12.117085</ele>
        <time>2018-08-10T14:15:03Z</time>
      </trkpt>
      <trkpt lat="43.704739" lon="7.286988">
        <ele>11.192530</ele>
        <time>2018-08-10T14:15:19Z</time>
      </trkpt>
      <trkpt lat="43.704585" lon="7.287365">
        <ele>11.757772</ele>
        <time>2018-08-10T14:15:39Z</time>
      </trkpt>
      <trkpt lat="43.704536" lon="7.287617">
        <ele>12.140442</ele>
        <time>2018-08-10T14:15:58Z</time>
      </trkpt>
      <trkpt lat="43.704321" lon="7.288310">
        <ele>12.971985</ele>
        <time>2018-08-10T14:16:14Z</time>
      </trkpt>
      <trkpt lat="43.703979" lon="7.288695">
        <ele>13.208099</ele>
        <time>2018-08-10T14:16:30Z</time>
      </trkpt>
      <trkpt lat="43.703164" lon="7.288271">
        <ele>11.662149</ele>
        <time>2018-08-10T14:16:45Z</time>
      </trkpt>
      <trkpt lat="43.701999" lon="7.287570">
        <ele>9.533831</ele>
        <time>2018-08-10T14:17:00Z</time>
      </trkpt>
      <trkpt lat="43.700879" lon="7.286865">
        <ele>6.754625</ele>
        <time>2018-08-10T14:17:16Z</time>
      </trkpt>
      <trkpt lat="43.699836" lon="7.286655">
        <ele>5.970504</ele>
        <time>2018-08-10T14:17:32Z</time>
      </trkpt>
      <trkpt lat="43.699695" lon="7.286562">
        <ele>5.701928</ele>
        <time>2018-08-10T14:18:09Z</time>
      </trkpt>
      <trkpt lat="43.698812" lon="7.286457">
        <ele>5.139791</ele>
        <time>2018-08-10T14:18:24Z</time>
      </trkpt>
      <trkpt lat="43.698498" lon="7.285754">
        <ele>2.292297</ele>
        <time>2018-08-10T14:18:40Z</time>
      </trkpt>
      <trkpt lat="43.698555" lon="7.285528">
        <ele>2.631439</ele>
        <time>2018-08-10T14:19:10Z</time>
      </trkpt>
      <trkpt lat="43.698691" lon="7.284163">
        <ele>8.591670</ele>
        <time>2018-08-10T14:19:25Z</time>
      </trkpt>
      <trkpt lat="43.698120" lon="7.283732">
        <ele>12.917349</ele>
        <time>2018-08-10T14:19:41Z</time>
      </trkpt>
      <trkpt lat="43.697929" lon="7.283645">
        <ele>14.452024</ele>
        <time>2018-08-10T14:20:27Z</time>
      </trkpt>
      <trkpt lat="43.697550" lon="7.283609">
        <ele>16.477484</ele>
        <time>2018-08-10T14:20:48Z</time>
      </trkpt>
      <trkpt lat="43.697152" lon="7.283539">
        <ele>19.417297</ele>
        <time>2018-08-10T14:21:04Z</time>
      </trkpt>
      <trkpt lat="43.696750" lon="7.283337">
        <ele>24.440760</ele>
        <time>2018-08-10T14:21:19Z</time>
      </trkpt>
      <trkpt lat="43.697245" lon="7.283071">
        <ele>25.281101</ele>
        <time>2018-08-10T14:21:34Z</time>
      </trkpt>
      <trkpt lat="43.697747" lon="7.282827">
        <ele>24.486494</ele>
        <time>2018-08-10T14:21:50Z</time>
      </trkpt>
      <trkpt lat="43.698460" lon="7.283055">
        <ele>16.733234</ele>
        <time>2018-08-10T14:22:05Z</time>
      </trkpt>
      <trkpt lat="43.698606" lon="7.283084">
        <ele>15.814486</ele>
        <time>2018-08-10T14:22:48Z</time>
      </trkpt>
      <trkpt lat="43.699005" lon="7.283086">
        <ele>13.941284</ele>
        <time>2018-08-10T14:23:03Z</time>
      </trkpt>
      <trkpt lat="43.699119" lon="7.283187">
        <ele>12.904129</ele>
        <time>2018-08-12T09:22:08Z</time>
      </trkpt>
      <trkpt lat="43.699279" lon="7.283073">
        <ele>12.040620</ele>
        <time>2018-08-12T09:22:37Z</time>
      </trkpt>
      <trkpt lat="43.699854" lon="7.282217">
        <ele>7.162242</ele>
        <time>2018-08-12T09:22:53Z</time>
      </trkpt>
      <trkpt lat="43.700014" lon="7.281962">
        <ele>5.016907</ele>
        <time>2018-08-12T09:23:08Z</time>
      </trkpt>
      <trkpt lat="43.700737" lon="7.280719">
        <ele>6.783796</ele>
        <time>2018-08-12T09:23:23Z</time>
      </trkpt>
      <trkpt lat="43.701271" lon="7.279338">
        <ele>8.050049</ele>
        <time>2018-08-12T09:23:39Z</time>
      </trkpt>
      <trkpt lat="43.701370" lon="7.279149">
        <ele>8.294528</ele>
        <time>2018-08-12T09:23:56Z</time>
      </trkpt>
      <trkpt lat="43.702373" lon="7.279839">
        <ele>9.847290</ele>
        <time>2018-08-12T09:24:12Z</time>
      </trkpt>
      <trkpt lat="43.702484" lon="7.279949">
        <ele>9.980408</ele>
        <time>2018-08-12T09:24:29Z</time>
      </trkpt>
      <trkpt lat="43.702612" lon="7.280050">
        <ele>10.877747</ele>
        <time>2018-08-12T09:24:50Z</time>
      </trkpt>
      <trkpt lat="43.703525" lon="7.280673">
        <ele>16.466772</ele>
        <time>2018-08-12T09:25:06Z</time>
      </trkpt>
      <trkpt lat="43.704553" lon="7.281385">
        <ele>16.801666</ele>
        <time>2018-08-12T09:25:21Z</time>
      </trkpt>
      <trkpt lat="43.705598" lon="7.282117">
        <ele>16.307213</ele>
        <time>2018-08-12T09:25:37Z</time>
      </trkpt>
      <trkpt lat="43.706219" lon="7.282539">
        <ele>16.416840</ele>
        <time>2018-08-12T09:25:52Z</time>
      </trkpt>
      <trkpt lat="43.707055" lon="7.282894">
        <ele>16.993317</ele>
        <time>2018-08-12T09:26:08Z</time>
      </trkpt>
      <trkpt lat="43.707400" lon="7.281822">
        <ele>18.594925</ele>
        <time>2018-08-12T09:26:23Z</time>
      </trkpt>
      <trkpt lat="43.706985" lon="7.280376">
        <ele>19.802032</ele>
        <time>2018-08-12T09:26:38Z</time>
      </trkpt>
      <trkpt lat="43.707025" lon="7.278144">
        <ele>34.525112</ele>
        <time>2018-08-12T09:26:53Z</time>
      </trkpt>
      <trkpt lat="43.707650" lon="7.274550">
        <ele>60.000000</ele>
        <time>2018-08-12T09:27:14Z</time>
      </trkpt>
      <trkpt lat="43.707991" lon="7.270651">
        <ele>28.561340</ele>
        <time>2018-08-12T09:27:32Z</time>
      </trkpt>
      <trkpt lat="43.707814" lon="7.268317">
        <ele>19.000000</ele>
        <time>2018-08-12T09:27:48Z</time>
      </trkpt>
      <trkpt lat="43.706286" lon="7.265237">
        <ele>15.827454</ele>
        <time>2018-08-12T09:28:03Z</time>
      </trkpt>
      <trkpt lat="43.705376" lon="7.260684">
        <ele>16.450867</ele>
        <time>2018-08-12T09:28:19Z</time>
      </trkpt>
      <trkpt lat="43.703128" lon="7.256932">
        <ele>16.921352</ele>
        <time>2018-08-12T09:28:35Z</time>
      </trkpt>
      <trkpt lat="43.701146" lon="7.253263">
        <ele>19.459839</ele>
        <time>2018-08-12T09:28:51Z</time>
      </trkpt>
      <trkpt lat="43.699857" lon="7.250475">
        <ele>27.472059</ele>
        <time>2018-08-12T09:29:06Z</time>
      </trkpt>
      <trkpt lat="43.698466" lon="7.248508">
        <ele>34.724468</ele>
        <time>2018-08-12T09:29:21Z</time>
      </trkpt>
      <trkpt lat="43.696555" lon="7.247503">
        <ele>37.326584</ele>
        <time>2018-08-12T09:29:37Z</time>
      </trkpt>
      <trkpt lat="43.694605" lon="7.246101">
        <ele>22.929039</ele>
        <time>2018-08-12T09:29:53Z</time>
      </trkpt>
      <trkpt lat="43.693074" lon="7.244147">
        <ele>17.097036</ele>
        <time>2018-08-12T09:30:08Z</time>
      </trkpt>
      <trkpt lat="43.691484" lon="7.242045">
        <ele>15.993652</ele>
        <time>2018-08-12T09:30:24Z</time>
      </trkpt>
      <trkpt lat="43.689960" lon="7.239975">
        <ele>9.867004</ele>
        <time>2018-08-12T09:30:40Z</time>
      </trkpt>
      <trkpt lat="43.688362" lon="7.237900">
        <ele>9.107361</ele>
        <time>2018-08-12T09:30:55Z</time>
      </trkpt>
      <trkpt lat="43.686633" lon="7.235609">
        <ele>7.456360</ele>
        <time>2018-08-12T09:31:10Z</time>
      </trkpt>
      <trkpt lat="43.684660" lon="7.233468">
        <ele>7.699493</ele>
        <time>2018-08-12T09:31:26Z</time>
      </trkpt>
      <trkpt lat="43.682989" lon="7.231568">
        <ele>8.531250</ele>
        <time>2018-08-12T09:31:41Z</time>
      </trkpt>
      <trkpt lat="43.682186" lon="7.230307">
        <ele>11.519653</ele>
        <time>2018-08-12T09:31:56Z</time>
      </trkpt>
      <trkpt lat="43.681787" lon="7.229997">
        <ele>12.155884</ele>
        <time>2018-08-12T09:32:11Z</time>
      </trkpt>
      <trkpt lat="43.681580" lon="7.230875">
        <ele>8.593994</ele>
        <time>2018-08-12T09:32:31Z</time>
      </trkpt>
      <trkpt lat="43.681444" lon="7.231296">
        <ele>6.241943</ele>
        <time>2018-08-12T09:32:46Z</time>
      </trkpt>
      <trkpt lat="43.681075" lon="7.231512">
        <ele>4.320068</ele>
        <time>2018-08-12T09:33:02Z</time>
      </trkpt>
      <trkpt lat="43.679799" lon="7.230479">
        <ele>5.792145</ele>
        <time>2018-08-12T09:33:18Z</time>
      </trkpt>
      <trkpt lat="43.679268" lon="7.230081">
        <ele>5.951996</ele>
        <time>2018-08-12T09:33:34Z</time>
      </trkpt>
      <trkpt lat="43.678040" lon="7.229183">
        <ele>5.596055</ele>
        <time>2018-08-12T09:33:50Z</time>
      </trkpt>
      <trkpt lat="43.676805" lon="7.228428">
        <ele>7.605957</ele>
        <time>2018-08-12T09:34:05Z</time>
      </trkpt>
      <trkpt lat="43.675337" lon="7.227598">
        <ele>7.217437</ele>
        <time>2018-08-12T09:34:21Z</time>
      </trkpt>
      <trkpt lat="43.673453" lon="7.226517">
        <ele>6.501953</ele>
        <time>2018-08-12T09:34:37Z</time>
      </trkpt>
      <trkpt lat="43.671815" lon="7.225012">
        <ele>7.164001</ele>
        <time>2018-08-12T09:34:52Z</time>
      </trkpt>
      <trkpt lat="43.670291" lon="7.222933">
        <ele>9.480438</ele>
        <time>2018-08-12T09:35:08Z</time>
      </trkpt>
      <trkpt lat="43.669454" lon="7.221782">
        <ele>10.861237</ele>
        <time>2018-08-12T09:35:23Z</time>
      </trkpt>
      <trkpt lat="43.669172" lon="7.221394">
        <ele>11.327240</ele>
        <time>2018-08-12T09:35:45Z</time>
      </trkpt>
      <trkpt lat="43.669053" lon="7.221252">
        <ele>11.497528</ele>
        <time>2018-08-12T09:36:18Z</time>
      </trkpt>
      <trkpt lat="43.667985" lon="7.219602">
        <ele>14.173866</ele>
        <time>2018-08-12T09:36:34Z</time>
      </trkpt>
      <trkpt lat="43.667232" lon="7.217510">
        <ele>16.987640</ele>
        <time>2018-08-12T09:36:50Z</time>
      </trkpt>
      <trkpt lat="43.666894" lon="7.215223">
        <ele>19.732727</ele>
        <time>2018-08-12T09:37:06Z</time>
      </trkpt>
      <trkpt lat="43.666548" lon="7.212696">
        <ele>14.774349</ele>
        <time>2018-08-12T09:37:21Z</time>
      </trkpt>
      <trkpt lat="43.666429" lon="7.211578">
        <ele>12.325211</ele>
        <time>2018-08-12T09:37:36Z</time>
      </trkpt>
      <trkpt lat="43.666405" lon="7.211370">
        <ele>11.822372</ele>
        <time>2018-08-12T09:38:00Z</time>
      </trkpt>
      <trkpt lat="43.666086" lon="7.208937">
        <ele>6.847733</ele>
        <time>2018-08-12T09:38:16Z</time>
      </trkpt>
      <trkpt lat="43.665755" lon="7.206129">
        <ele>2.812622</ele>
        <time>2018-08-12T09:38:31Z</time>
      </trkpt>
      <trkpt lat="43.665373" lon="7.203494">
        <ele>1.447144</ele>
        <time>2018-08-12T09:38:47Z</time>
      </trkpt>
      <trkpt lat="43.664540" lon="7.200707">
        <ele>1.000000</ele>
        <time>2018-08-12T09:39:02Z</time>
      </trkpt>
      <trkpt lat="43.663540" lon="7.198024">
        <ele>1.742249</ele>
        <time>2018-08-12T09:39:17Z</time>
      </trkpt>
      <trkpt lat="43.662221" lon="7.195235">
        <ele>8.435638</ele>
        <time>2018-08-12T09:39:33Z</time>
      </trkpt>
      <trkpt lat="43.660678" lon="7.192590">
        <ele>10.910409</ele>
        <time>2018-08-12T09:39:48Z</time>
      </trkpt>
      <trkpt lat="43.659255" lon="7.190126">
        <ele>8.361330</ele>
        <time>2018-08-12T09:40:03Z</time>
      </trkpt>
      <trkpt lat="43.658426" lon="7.186636">
        <ele>9.477438</ele>
        <time>2018-08-12T09:40:19Z</time>
      </trkpt>
      <trkpt lat="43.657790" lon="7.183944">
        <ele>7.737366</ele>
        <time>2018-08-12T09:40:34Z</time>
      </trkpt>
      <trkpt lat="43.657003" lon="7.181214">
        <ele>4.615479</ele>
        <time>2018-08-12T09:40:50Z</time>
      </trkpt>
      <trkpt lat="43.656673" lon="7.179016">
        <ele>3.029376</ele>
        <time>2018-08-12T09:41:05Z</time>
      </trkpt>
      <trkpt lat="43.656588" lon="7.176254">
        <ele>4.756690</ele>
        <time>2018-08-12T09:41:21Z</time>
      </trkpt>
      <trkpt lat="43.657002" lon="7.173490">
        <ele>4.993149</ele>
        <time>2018-08-12T09:41:37Z</time>
      </trkpt>
      <trkpt lat="43.657842" lon="7.170635">
        <ele>3.544685</ele>
        <time>2018-08-12T09:41:53Z</time>
      </trkpt>
      <trkpt lat="43.657794" lon="7.168493">
        <ele>3.742597</ele>
        <time>2018-08-12T09:42:09Z</time>
      </trkpt>
      <trkpt lat="43.657731" lon="7.167819">
        <ele>4.004881</ele>
        <time>2018-08-12T09:42:35Z</time>
      </trkpt>
      <trkpt lat="43.657422" lon="7.166348">
        <ele>4.297389</ele>
        <time>2018-08-12T09:42:51Z</time>
      </trkpt>
      <trkpt lat="43.656879" lon="7.164682">
        <ele>3.399597</ele>
        <time>2018-08-12T09:43:07Z</time>
      </trkpt>
      <trkpt lat="43.656322" lon="7.163029">
        <ele>3.124313</ele>
        <time>2018-08-12T09:43:22Z</time>
      </trkpt>
      <trkpt lat="43.655667" lon="7.161334">
        <ele>3.280067</ele>
        <time>2018-08-12T09:43:37Z</time>
      </trkpt>
      <trkpt lat="43.655084" lon="7.159677">
        <ele>2.651355</ele>
        <time>2018-08-12T09:43:53Z</time>
      </trkpt>
      <trkpt lat="43.654992" lon="7.159407">
        <ele>2.714720</ele>
        <time>2018-08-12T09:44:17Z</time>
      </trkpt>
      <trkpt lat="43.654570" lon="7.158396">
        <ele>2.045495</ele>
        <time>2018-08-12T09:44:33Z</time>
      </trkpt>
      <trkpt lat="43.654028" lon="7.157202">
        <ele>2.345253</ele>
        <time>2018-08-12T09:44:48Z</time>
      </trkpt>
      <trkpt lat="43.653348" lon="7.155942">
        <ele>1.035889</ele>
        <time>2018-08-12T09:45:03Z</time>
      </trkpt>
      <trkpt lat="43.652594" lon="7.154697">
        <ele>2.364014</ele>
        <time>2018-08-12T09:45:18Z</time>
      </trkpt>
      <trkpt lat="43.651841" lon="7.153634">
        <ele>2.848923</ele>
        <time>2018-08-12T09:45:33Z</time>
      </trkpt>
      <trkpt lat="43.650979" lon="7.152514">
        <ele>2.333649</ele>
        <time>2018-08-12T09:45:49Z</time>
      </trkpt>
      <trkpt lat="43.650890" lon="7.152347">
        <ele>2.490950</ele>
        <time>2018-08-12T09:46:24Z</time>
      </trkpt>
      <trkpt lat="43.650032" lon="7.150961">
        <ele>2.922043</ele>
        <time>2018-08-12T09:46:39Z</time>
      </trkpt>
      <trkpt lat="43.648846" lon="7.149815">
        <ele>2.538373</ele>
        <time>2018-08-12T09:46:54Z</time>
      </trkpt>
      <trkpt lat="43.648358" lon="7.149284">
        <ele>2.751741</ele>
        <time>2018-08-12T09:47:13Z</time>
      </trkpt>
      <trkpt lat="43.647444" lon="7.148346">
        <ele>2.840106</ele>
        <time>2018-08-12T09:47:29Z</time>
      </trkpt>
      <trkpt lat="43.646341" lon="7.147290">
        <ele>2.568145</ele>
        <time>2018-08-12T09:47:44Z</time>
      </trkpt>
      <trkpt lat="43.645280" lon="7.146288">
        <ele>2.790115</ele>
        <time>2018-08-12T09:47:59Z</time>
      </trkpt>
      <trkpt lat="43.644434" lon="7.144866">
        <ele>3.102232</ele>
        <time>2018-08-12T09:48:14Z</time>
      </trkpt>
      <trkpt lat="43.644287" lon="7.144762">
        <ele>2.654399</ele>
        <time>2018-08-12T09:48:45Z</time>
      </trkpt>
      <trkpt lat="43.643240" lon="7.144142">
        <ele>2.168042</ele>
        <time>2018-08-12T09:49:00Z</time>
      </trkpt>
      <trkpt lat="43.642087" lon="7.142859">
        <ele>4.568817</ele>
        <time>2018-08-12T09:49:16Z</time>
      </trkpt>
      <trkpt lat="43.641835" lon="7.142574">
        <ele>4.910599</ele>
        <time>2018-08-12T09:50:06Z</time>
      </trkpt>
      <trkpt lat="43.641097" lon="7.141555">
        <ele>4.175679</ele>
        <time>2018-08-12T09:50:21Z</time>
      </trkpt>
      <trkpt lat="43.640405" lon="7.140151">
        <ele>5.305588</ele>
        <time>2018-08-12T09:50:37Z</time>
      </trkpt>
      <trkpt lat="43.640263" lon="7.140143">
        <ele>5.143707</ele>
        <time>2018-08-12T09:50:57Z</time>
      </trkpt>
      <trkpt lat="43.639680" lon="7.138773">
        <ele>6.088486</ele>
        <time>2018-08-12T09:51:13Z</time>
      </trkpt>
      <trkpt lat="43.639585" lon="7.138600">
        <ele>6.182480</ele>
        <time>2018-08-12T09:52:04Z</time>
      </trkpt>
      <trkpt lat="43.638840" lon="7.136991">
        <ele>6.437958</ele>
        <time>2018-08-12T09:52:19Z</time>
      </trkpt>
      <trkpt lat="43.637745" lon="7.134953">
        <ele>10.151755</ele>
        <time>2018-08-12T09:52:35Z</time>
      </trkpt>
      <trkpt lat="43.637002" lon="7.132762">
        <ele>15.263580</ele>
        <time>2018-08-12T09:52:51Z</time>
      </trkpt>
      <trkpt lat="43.637469" lon="7.133277">
        <ele>15.091141</ele>
        <time>2018-08-12T09:53:07Z</time>
      </trkpt>
      <trkpt lat="43.635965" lon="7.133526">
        <ele>9.854584</ele>
        <time>2018-08-12T09:53:22Z</time>
      </trkpt>
      <trkpt lat="43.634459" lon="7.133768">
        <ele>11.254791</ele>
        <time>2018-08-12T09:53:38Z</time>
      </trkpt>
      <trkpt lat="43.632862" lon="7.134380">
        <ele>9.921844</ele>
        <time>2018-08-12T09:53:53Z</time>
      </trkpt>
      <trkpt lat="43.631499" lon="7.134571">
        <ele>7.724143</ele>
        <time>2018-08-12T09:54:09Z</time>
      </trkpt>
      <trkpt lat="43.631345" lon="7.134546">
        <ele>7.494945</ele>
        <time>2018-08-12T09:54:30Z</time>
      </trkpt>
      <trkpt lat="43.630275" lon="7.134058">
        <ele>6.590302</ele>
        <time>2018-08-12T09:54:45Z</time>
      </trkpt>
      <trkpt lat="43.629764" lon="7.133806">
        <ele>6.582428</ele>
        <time>2018-08-12T09:55:35Z</time>
      </trkpt>
      <trkpt lat="43.628706" lon="7.133332">
        <ele>5.896556</ele>
        <time>2018-08-12T09:55:51Z</time>
      </trkpt>
      <trkpt lat="43.627891" lon="7.132943">
        <ele>5.405029</ele>
        <time>2018-08-12T09:56:06Z</time>
      </trkpt>
      <trkpt lat="43.626684" lon="7.132352">
        <ele>5.198898</ele>
        <time>2018-08-12T09:56:22Z</time>
      </trkpt>
      <trkpt lat="43.625308" lon="7.131696">
        <ele>3.703354</ele>
        <time>2018-08-12T09:56:37Z</time>
      </trkpt>
      <trkpt lat="43.623234" lon="7.130757">
        <ele>2.000000</ele>
        <time>2018-08-12T09:56:53Z</time>
      </trkpt>
      <trkpt lat="43.621002" lon="7.129833">
        <ele>2.361777</ele>
        <time>2018-08-12T09:57:09Z</time>
      </trkpt>
      <trkpt lat="43.618783" lon="7.129052">
        <ele>2.137634</ele>
        <time>2018-08-12T09:57:24Z</time>
      </trkpt>
      <trkpt lat="43.616743" lon="7.128380">
        <ele>3.887604</ele>
        <time>2018-08-12T09:57:39Z</time>
      </trkpt>
      <trkpt lat="43.614789" lon="7.127726">
        <ele>4.474945</ele>
        <time>2018-08-12T09:57:55Z</time>
      </trkpt>
      <trkpt lat="43.613703" lon="7.127258">
        <ele>3.734268</ele>
        <time>2018-08-12T09:58:11Z</time>
      </trkpt>
      <trkpt lat="43.612643" lon="7.126620">
        <ele>3.227554</ele>
        <time>2018-08-12T09:58:27Z</time>
      </trkpt>
      <trkpt lat="43.612156" lon="7.126370">
        <ele>3.355881</ele>
        <time>2018-08-12T09:58:42Z</time>
      </trkpt>
      <trkpt lat="43.610966" lon="7.125863">
        <ele>3.123566</ele>
        <time>2018-08-12T09:58:58Z</time>
      </trkpt>
      <trkpt lat="43.609689" lon="7.125247">
        <ele>1.185325</ele>
        <time>2018-08-12T09:59:13Z</time>
      </trkpt>
      <trkpt lat="43.608305" lon="7.124573">
        <ele>3.605743</ele>
        <time>2018-08-12T09:59:28Z</time>
      </trkpt>
      <trkpt lat="43.607715" lon="7.124274">
        <ele>6.098801</ele>
        <time>2018-08-12T09:59:43Z</time>
      </trkpt>
      <trkpt lat="43.608369" lon="7.124673">
        <ele>3.101575</ele>
        <time>2018-08-12T09:59:59Z</time>
      </trkpt>
      <trkpt lat="43.609876" lon="7.125413">
        <ele>1.422550</ele>
        <time>2018-08-12T10:00:15Z</time>
      </trkpt>
      <trkpt lat="43.610786" lon="7.125843">
        <ele>2.930893</ele>
        <time>2018-08-12T10:00:36Z</time>
      </trkpt>
      <trkpt lat="43.611089" lon="7.126033">
        <ele>3.067413</ele>
        <time>2018-08-12T10:00:59Z</time>
      </trkpt>
      <trkpt lat="43.611264" lon="7.126470">
        <ele>2.753098</ele>
        <time>2018-08-12T10:01:15Z</time>
      </trkpt>
      <trkpt lat="43.610009" lon="7.126228">
        <ele>1.537292</ele>
        <time>2018-08-12T10:01:30Z</time>
      </trkpt>
      <trkpt lat="43.608332" lon="7.125801">
        <ele>1.038521</ele>
        <time>2018-08-12T10:01:45Z</time>
      </trkpt>
      <trkpt lat="43.606517" lon="7.125573">
        <ele>3.240397</ele>
        <time>2018-08-12T10:02:01Z</time>
      </trkpt>
      <trkpt lat="43.604886" lon="7.125543">
        <ele>5.559387</ele>
        <time>2018-08-12T10:02:16Z</time>
      </trkpt>
      <trkpt lat="43.603528" lon="7.125533">
        <ele>3.954834</ele>
        <time>2018-08-12T10:02:32Z</time>
      </trkpt>
      <trkpt lat="43.602471" lon="7.125515">
        <ele>3.763641</ele>
        <time>2018-08-12T10:02:48Z</time>
      </trkpt>
      <trkpt lat="43.601389" lon="7.125509">
        <ele>3.648337</ele>
        <time>2018-08-12T10:03:03Z</time>
      </trkpt>
      <trkpt lat="43.600249" lon="7.125484">
        <ele>3.713996</ele>
        <time>2018-08-12T10:03:18Z</time>
      </trkpt>
      <trkpt lat="43.598896" lon="7.125456">
        <ele>3.905670</ele>
        <time>2018-08-12T10:03:33Z</time>
      </trkpt>
      <trkpt lat="43.597295" lon="7.125421">
        <ele>3.990753</ele>
        <time>2018-08-12T10:03:49Z</time>
      </trkpt>
      <trkpt lat="43.595890" lon="7.125391">
        <ele>4.061188</ele>
        <time>2018-08-12T10:04:04Z</time>
      </trkpt>
      <trkpt lat="43.594244" lon="7.125348">
        <ele>2.636231</ele>
        <time>2018-08-12T10:04:20Z</time>
      </trkpt>
      <trkpt lat="43.593041" lon="7.125231">
        <ele>3.445007</ele>
        <time>2018-08-12T10:04:35Z</time>
      </trkpt>
      <trkpt lat="43.592077" lon="7.124808">
        <ele>3.953156</ele>
        <time>2018-08-12T10:04:52Z</time>
      </trkpt>
      <trkpt lat="43.590823" lon="7.124343">
        <ele>3.563934</ele>
        <time>2018-08-12T10:05:07Z</time>
      </trkpt>
      <trkpt lat="43.589499" lon="7.123752">
        <ele>3.091141</ele>
        <time>2018-08-12T10:05:23Z</time>
      </trkpt>
      <trkpt lat="43.588859" lon="7.122323">
        <ele>5.495945</ele>
        <time>2018-08-12T10:05:39Z</time>
      </trkpt>
      <trkpt lat="43.588116" lon="7.121594">
        <ele>4.563904</ele>
        <time>2018-08-12T10:05:54Z</time>
      </trkpt>
      <trkpt lat="43.586987" lon="7.120969">
        <ele>5.251014</ele>
        <time>2018-08-12T10:06:10Z</time>
      </trkpt>
      <trkpt lat="43.586116" lon="7.120825">
        <ele>6.040527</ele>
        <time>2018-08-12T10:06:25Z</time>
      </trkpt>
      <trkpt lat="43.585215" lon="7.121070">
        <ele>5.815615</ele>
        <time>2018-08-12T10:06:40Z</time>
      </trkpt>
      <trkpt lat="43.584510" lon="7.121571">
        <ele>5.451835</ele>
        <time>2018-08-12T10:06:56Z</time>
      </trkpt>
      <trkpt lat="43.584222" lon="7.122109">
        <ele>5.267104</ele>
        <time>2018-08-12T10:07:12Z</time>
      </trkpt>
      <trkpt lat="43.584014" lon="7.123452">
        <ele>3.224915</ele>
        <time>2018-08-12T10:07:27Z</time>
      </trkpt>
      <trkpt lat="43.583973" lon="7.124959">
        <ele>1.293058</ele>
        <time>2018-08-12T10:07:43Z</time>
      </trkpt>
      <trkpt lat="43.583835" lon="7.126327">
        <ele>1.000000</ele>
        <time>2018-08-12T10:07:58Z</time>
      </trkpt>
      <trkpt lat="43.583879" lon="7.126616">
        <ele>1.000000</ele>
        <time>2018-08-12T10:08:14Z</time>
      </trkpt>
      <trkpt lat="43.583980" lon="7.126748">
        <ele>1.000000</ele>
        <time>2018-08-12T10:08:48Z</time>
      </trkpt>
      <trkpt lat="43.583955" lon="7.126937">
        <ele>1.000000</ele>
        <time>2018-08-12T10:14:05Z</time>
      </trkpt>
      <trkpt lat="43.583954" lon="7.126737">
        <ele>1.000000</ele>
        <time>2018-08-12T10:37:07Z</time>
      </trkpt>
      <trkpt lat="43.583847" lon="7.126607">
        <ele>1.000000</ele>
        <time>2018-08-12T10:37:24Z</time>
      </trkpt>
      <trkpt lat="43.583881" lon="7.125852">
        <ele>1.000000</ele>
        <time>2018-08-12T10:37:40Z</time>
      </trkpt>
      <trkpt lat="43.584017" lon="7.124580">
        <ele>1.773040</ele>
        <time>2018-08-12T10:37:56Z</time>
      </trkpt>
      <trkpt lat="43.584104" lon="7.123315">
        <ele>3.194183</ele>
        <time>2018-08-12T10:38:11Z</time>
      </trkpt>
      <trkpt lat="43.584448" lon="7.122115">
        <ele>4.421677</ele>
        <time>2018-08-12T10:38:27Z</time>
      </trkpt>
      <trkpt lat="43.584453" lon="7.121128">
        <ele>6.829643</ele>
        <time>2018-08-12T10:38:42Z</time>
      </trkpt>
      <trkpt lat="43.585085" lon="7.120336">
        <ele>8.212636</ele>
        <time>2018-08-12T10:38:58Z</time>
      </trkpt>
      <trkpt lat="43.585286" lon="7.120098">
        <ele>9.026268</ele>
        <time>2018-08-12T10:39:13Z</time>
      </trkpt>
      <trkpt lat="43.584842" lon="7.119672">
        <ele>10.106734</ele>
        <time>2018-08-12T10:39:29Z</time>
      </trkpt>
      <trkpt lat="43.583728" lon="7.119460">
        <ele>11.007483</ele>
        <time>2018-08-12T10:39:45Z</time>
      </trkpt>
      <trkpt lat="43.584348" lon="7.118282">
        <ele>12.571300</ele>
        <time>2018-08-12T10:40:01Z</time>
      </trkpt>
      <trkpt lat="43.585149" lon="7.118163">
        <ele>15.186043</ele>
        <time>2018-08-12T10:40:16Z</time>
      </trkpt>
      <trkpt lat="43.585216" lon="7.116875">
        <ele>18.593468</ele>
        <time>2018-08-12T10:40:32Z</time>
      </trkpt>
      <trkpt lat="43.585518" lon="7.115282">
        <ele>19.863831</ele>
        <time>2018-08-12T10:40:48Z</time>
      </trkpt>
      <trkpt lat="43.585616" lon="7.114604">
        <ele>19.991388</ele>
        <time>2018-08-12T10:41:12Z</time>
      </trkpt>
      <trkpt lat="43.585936" lon="7.113056">
        <ele>20.247257</ele>
        <time>2018-08-12T10:41:28Z</time>
      </trkpt>
      <trkpt lat="43.586778" lon="7.111379">
        <ele>20.561901</ele>
        <time>2018-08-12T10:41:44Z</time>
      </trkpt>
      <trkpt lat="43.588139" lon="7.110112">
        <ele>20.610064</ele>
        <time>2018-08-12T10:41:59Z</time>
      </trkpt>
      <trkpt lat="43.590122" lon="7.110157">
        <ele>37.144756</ele>
        <time>2018-08-12T10:42:15Z</time>
      </trkpt>
      <trkpt lat="43.590377" lon="7.107745">
        <ele>38.742943</ele>
        <time>2018-08-12T10:42:30Z</time>
      </trkpt>
      <trkpt lat="43.590569" lon="7.106585">
        <ele>39.714043</ele>
        <time>2018-08-12T10:42:46Z</time>
      </trkpt>
      <trkpt lat="43.591408" lon="7.105624">
        <ele>40.000000</ele>
        <time>2018-08-12T10:43:02Z</time>
      </trkpt>
      <trkpt lat="43.592110" lon="7.103659">
        <ele>41.387203</ele>
        <time>2018-08-12T10:43:18Z</time>
      </trkpt>
      <trkpt lat="43.592888" lon="7.101488">
        <ele>50.495605</ele>
        <time>2018-08-12T10:43:33Z</time>
      </trkpt>
      <trkpt lat="43.593696" lon="7.099122">
        <ele>58.900616</ele>
        <time>2018-08-12T10:43:49Z</time>
      </trkpt>
      <trkpt lat="43.594166" lon="7.096733">
        <ele>59.999916</ele>
        <time>2018-08-12T10:44:05Z</time>
      </trkpt>
      <trkpt lat="43.594283" lon="7.094207">
        <ele>66.599121</ele>
        <time>2018-08-12T10:44:20Z</time>
      </trkpt>
      <trkpt lat="43.594608" lon="7.093183">
        <ele>76.024353</ele>
        <time>2018-08-12T10:44:59Z</time>
      </trkpt>
      <trkpt lat="43.595405" lon="7.092112">
        <ele>83.883774</ele>
        <time>2018-08-12T10:45:15Z</time>
      </trkpt>
      <trkpt lat="43.595881" lon="7.091328">
        <ele>87.460373</ele>
        <time>2018-08-12T10:45:30Z</time>
      </trkpt>
      <trkpt lat="43.596174" lon="7.090588">
        <ele>91.042648</ele>
        <time>2018-08-12T10:45:48Z</time>
      </trkpt>
      <trkpt lat="43.596850" lon="7.089858">
        <ele>91.667999</ele>
        <time>2018-08-12T10:46:03Z</time>
      </trkpt>
      <trkpt lat="43.598187" lon="7.088012">
        <ele>81.844612</ele>
        <time>2018-08-12T10:46:19Z</time>
      </trkpt>
      <trkpt lat="43.599078" lon="7.086884">
        <ele>78.794807</ele>
        <time>2018-08-12T10:46:34Z</time>
      </trkpt>
      <trkpt lat="43.599899" lon="7.085957">
        <ele>80.729568</ele>
        <time>2018-08-12T10:46:49Z</time>
      </trkpt>
      <trkpt lat="43.601624" lon="7.083915">
        <ele>93.584152</ele>
        <time>2018-08-12T10:47:05Z</time>
      </trkpt>
      <trkpt lat="43.602438" lon="7.081521">
        <ele>95.386894</ele>
        <time>2018-08-12T10:47:21Z</time>
      </trkpt>
      <trkpt lat="43.602111" lon="7.078869">
        <ele>99.673668</ele>
        <time>2018-08-12T10:47:37Z</time>
      </trkpt>
      <trkpt lat="43.601942" lon="7.075813">
        <ele>108.758392</ele>
        <time>2018-08-12T10:47:53Z</time>
      </trkpt>
      <trkpt lat="43.602779" lon="7.073280">
        <ele>115.756958</ele>
        <time>2018-08-12T10:48:09Z</time>
      </trkpt>
      <trkpt lat="43.603449" lon="7.070637">
        <ele>118.172089</ele>
        <time>2018-08-12T10:48:24Z</time>
      </trkpt>
      <trkpt lat="43.604610" lon="7.068938">
        <ele>99.518929</ele>
        <time>2018-08-12T10:48:40Z</time>
      </trkpt>
      <trkpt lat="43.605010" lon="7.066978">
        <ele>92.321976</ele>
        <time>2018-08-12T10:48:55Z</time>
      </trkpt>
      <trkpt lat="43.605012" lon="7.066550">
        <ele>92.213524</ele>
        <time>2018-08-12T10:49:11Z</time>
      </trkpt>
      <trkpt lat="43.604984" lon="7.066333">
        <ele>92.881386</ele>
        <time>2018-08-12T10:50:49Z</time>
      </trkpt>
      <trkpt lat="43.604303" lon="7.064544">
        <ele>97.687263</ele>
        <time>2018-08-12T10:51:04Z</time>
      </trkpt>
      <trkpt lat="43.602936" lon="7.061018">
        <ele>102.703758</ele>
        <time>2018-08-12T10:51:20Z</time>
      </trkpt>
      <trkpt lat="43.601134" lon="7.057098">
        <ele>127.920532</ele>
        <time>2018-08-12T10:51:35Z</time>
      </trkpt>
      <trkpt lat="43.598174" lon="7.052429">
        <ele>140.207489</ele>
        <time>2018-08-12T10:51:51Z</time>
      </trkpt>
      <trkpt lat="43.595412" lon="7.047342">
        <ele>146.953430</ele>
        <time>2018-08-12T10:52:07Z</time>
      </trkpt>
      <trkpt lat="43.594437" lon="7.042016">
        <ele>156.836304</ele>
        <time>2018-08-12T10:52:22Z</time>
      </trkpt>
      <trkpt lat="43.592816" lon="7.037878">
        <ele>161.928436</ele>
        <time>2018-08-12T10:52:37Z</time>
      </trkpt>
      <trkpt lat="43.592230" lon="7.036563">
        <ele>163.034607</ele>
        <time>2018-08-12T10:52:53Z</time>
      </trkpt>
      <trkpt lat="43.592080" lon="7.036304">
        <ele>163.072205</ele>
        <time>2018-08-12T10:53:09Z</time>
      </trkpt>
      <trkpt lat="43.592000" lon="7.036147">
        <ele>163.092834</ele>
        <time>2018-08-12T11:01:10Z</time>
      </trkpt>
      <trkpt lat="43.591766" lon="7.036111">
        <ele>161.889954</ele>
        <time>2018-08-12T11:01:25Z</time>
      </trkpt>
      <trkpt lat="43.591507" lon="7.035841">
        <ele>161.602478</ele>
        <time>2018-08-12T11:01:41Z</time>
      </trkpt>
      <trkpt lat="43.591386" lon="7.035725">
        <ele>161.715790</ele>
        <time>2018-08-12T11:02:37Z</time>
      </trkpt>
      <trkpt lat="43.590901" lon="7.035458">
        <ele>160.723755</ele>
        <time>2018-08-12T11:02:52Z</time>
      </trkpt>
      <trkpt lat="43.589161" lon="7.033508">
        <ele>169.394302</ele>
        <time>2018-08-12T11:03:08Z</time>
      </trkpt>
      <trkpt lat="43.586518" lon="7.030168">
        <ele>189.174576</ele>
        <time>2018-08-12T11:03:24Z</time>
      </trkpt>
      <trkpt lat="43.584690" lon="7.025629">
        <ele>212.047745</ele>
        <time>2018-08-12T11:03:39Z</time>
      </trkpt>
      <trkpt lat="43.582937" lon="7.020731">
        <ele>171.599304</ele>
        <time>2018-08-12T11:03:55Z</time>
      </trkpt>
      <trkpt lat="43.581683" lon="7.016741">
        <ele>179.024353</ele>
        <time>2018-08-12T11:04:10Z</time>
      </trkpt>
      <trkpt lat="43.583189" lon="7.012907">
        <ele>157.718842</ele>
        <time>2018-08-12T11:04:25Z</time>
      </trkpt>
      <trkpt lat="43.585682" lon="7.009255">
        <ele>153.608459</ele>
        <time>2018-08-12T11:04:41Z</time>
      </trkpt>
      <trkpt lat="43.586156" lon="7.004067">
        <ele>121.704781</ele>
        <time>2018-08-12T11:04:57Z</time>
      </trkpt>
      <trkpt lat="43.585933" lon="6.998509">
        <ele>98.516541</ele>
        <time>2018-08-12T11:05:13Z</time>
      </trkpt>
      <trkpt lat="43.584585" lon="6.993601">
        <ele>81.807098</ele>
        <time>2018-08-12T11:05:28Z</time>
      </trkpt>
      <trkpt lat="43.581382" lon="6.989919">
        <ele>72.576050</ele>
        <time>2018-08-12T11:05:44Z</time>
      </trkpt>
      <trkpt lat="43.578926" lon="6.986175">
        <ele>60.118259</ele>
        <time>2018-08-12T11:05:59Z</time>
      </trkpt>
      <trkpt lat="43.576855" lon="6.981022">
        <ele>60.000000</ele>
        <time>2018-08-12T11:06:15Z</time>
      </trkpt>
      <trkpt lat="43.574006" lon="6.976769">
        <ele>60.000000</ele>
        <time>2018-08-12T11:06:30Z</time>
      </trkpt>
      <trkpt lat="43.569897" lon="6.974052">
        <ele>43.556698</ele>
        <time>2018-08-12T11:06:46Z</time>
      </trkpt>
      <trkpt lat="43.565393" lon="6.973144">
        <ele>39.880283</ele>
        <time>2018-08-12T11:07:01Z</time>
      </trkpt>
      <trkpt lat="43.561526" lon="6.969573">
        <ele>20.000000</ele>
        <time>2018-08-12T11:07:17Z</time>
      </trkpt>
      <trkpt lat="43.559268" lon="6.964472">
        <ele>18.566177</ele>
        <time>2018-08-12T11:07:32Z</time>
      </trkpt>
      <trkpt lat="43.557509" lon="6.959354">
        <ele>20.000000</ele>
        <time>2018-08-12T11:07:47Z</time>
      </trkpt>
      <trkpt lat="43.557985" lon="6.953583">
        <ele>13.299194</ele>
        <time>2018-08-12T11:08:02Z</time>
      </trkpt>
      <trkpt lat="43.557137" lon="6.947942">
        <ele>7.529907</ele>
        <time>2018-08-12T11:08:18Z</time>
      </trkpt>
      <trkpt lat="43.553946" lon="6.944847">
        <ele>5.000000</ele>
        <time>2018-08-12T11:08:33Z</time>
      </trkpt>
      <trkpt lat="43.549817" lon="6.944643">
        <ele>4.000000</ele>
        <time>2018-08-12T11:08:49Z</time>
      </trkpt>
      <trkpt lat="43.546561" lon="6.942150">
        <ele>6.966492</ele>
        <time>2018-08-12T11:09:04Z</time>
      </trkpt>
      <trkpt lat="43.543275" lon="6.938688">
        <ele>12.574585</ele>
        <time>2018-08-12T11:09:19Z</time>
      </trkpt>
      <trkpt lat="43.541017" lon="6.933622">
        <ele>16.509266</ele>
        <time>2018-08-12T11:09:35Z</time>
      </trkpt>
      <trkpt lat="43.541268" lon="6.928164">
        <ele>26.429380</ele>
        <time>2018-08-12T11:09:50Z</time>
      </trkpt>
      <trkpt lat="43.540920" lon="6.922604">
        <ele>51.185326</ele>
        <time>2018-08-12T11:10:05Z</time>
      </trkpt>
      <trkpt lat="43.538941" lon="6.916787">
        <ele>40.716103</ele>
        <time>2018-08-12T11:10:21Z</time>
      </trkpt>
      <trkpt lat="43.537426" lon="6.910122">
        <ele>31.465672</ele>
        <time>2018-08-12T11:10:37Z</time>
      </trkpt>
      <trkpt lat="43.535913" lon="6.903582">
        <ele>45.300159</ele>
        <time>2018-08-12T11:10:53Z</time>
      </trkpt>
      <trkpt lat="43.535769" lon="6.896683">
        <ele>22.733006</ele>
        <time>2018-08-12T11:11:09Z</time>
      </trkpt>
      <trkpt lat="43.535837" lon="6.890212">
        <ele>46.842186</ele>
        <time>2018-08-12T11:11:25Z</time>
      </trkpt>
      <trkpt lat="43.535230" lon="6.884310">
        <ele>71.793167</ele>
        <time>2018-08-12T11:11:40Z</time>
      </trkpt>
      <trkpt lat="43.533837" lon="6.878198">
        <ele>95.749565</ele>
        <time>2018-08-12T11:11:56Z</time>
      </trkpt>
      <trkpt lat="43.533836" lon="6.872009">
        <ele>82.683075</ele>
        <time>2018-08-12T11:12:12Z</time>
      </trkpt>
      <trkpt lat="43.535400" lon="6.866462">
        <ele>114.124298</ele>
        <time>2018-08-12T11:12:27Z</time>
      </trkpt>
      <trkpt lat="43.537012" lon="6.860542">
        <ele>101.523727</ele>
        <time>2018-08-12T11:12:43Z</time>
      </trkpt>
      <trkpt lat="43.539303" lon="6.856044">
        <ele>152.769760</ele>
        <time>2018-08-12T11:12:58Z</time>
      </trkpt>
      <trkpt lat="43.539816" lon="6.850412">
        <ele>171.551300</ele>
        <time>2018-08-12T11:13:14Z</time>
      </trkpt>
      <trkpt lat="43.537970" lon="6.845538">
        <ele>184.096252</ele>
        <time>2018-08-12T11:13:29Z</time>
      </trkpt>
      <trkpt lat="43.538189" lon="6.839546">
        <ele>215.059052</ele>
        <time>2018-08-12T11:13:45Z</time>
      </trkpt>
      <trkpt lat="43.542217" lon="6.836319">
        <ele>228.559479</ele>
        <time>2018-08-12T11:14:01Z</time>
      </trkpt>
      <trkpt lat="43.545786" lon="6.832797">
        <ele>199.380127</ele>
        <time>2018-08-12T11:14:17Z</time>
      </trkpt>
      <trkpt lat="43.546102" lon="6.827391">
        <ele>198.793518</ele>
        <time>2018-08-12T11:14:32Z</time>
      </trkpt>
      <trkpt lat="43.543218" lon="6.822797">
        <ele>206.988770</ele>
        <time>2018-08-12T11:14:48Z</time>
      </trkpt>
      <trkpt lat="43.543271" lon="6.817211">
        <ele>192.354462</ele>
        <time>2018-08-12T11:15:03Z</time>
      </trkpt>
      <trkpt lat="43.544650" lon="6.811688">
        <ele>180.918427</ele>
        <time>2018-08-12T11:15:19Z</time>
      </trkpt>
      <trkpt lat="43.546160" lon="6.805857">
        <ele>176.663498</ele>
        <time>2018-08-12T11:15:35Z</time>
      </trkpt>
      <trkpt lat="43.548168" lon="6.800495">
        <ele>165.213989</ele>
        <time>2018-08-12T11:15:51Z</time>
      </trkpt>
      <trkpt lat="43.547987" lon="6.794645">
        <ele>166.337006</ele>
        <time>2018-08-12T11:16:07Z</time>
      </trkpt>
      <trkpt lat="43.545448" lon="6.788788">
        <ele>159.301208</ele>
        <time>2018-08-12T11:16:23Z</time>
      </trkpt>
      <trkpt lat="43.541527" lon="6.784750">
        <ele>179.357498</ele>
        <time>2018-08-12T11:16:39Z</time>
      </trkpt>
      <trkpt lat="43.537107" lon="6.781955">
        <ele>176.799286</ele>
        <time>2018-08-12T11:16:55Z</time>
      </trkpt>
      <trkpt lat="43.532616" lon="6.782380">
        <ele>155.270264</ele>
        <time>2018-08-12T11:17:10Z</time>
      </trkpt>
      <trkpt lat="43.527849" lon="6.782030">
        <ele>173.390808</ele>
        <time>2018-08-12T11:17:26Z</time>
      </trkpt>
      <trkpt lat="43.524298" lon="6.778880">
        <ele>174.455170</ele>
        <time>2018-08-12T11:17:41Z</time>
      </trkpt>
      <trkpt lat="43.521485" lon="6.773750">
        <ele>158.900116</ele>
        <time>2018-08-12T11:17:57Z</time>
      </trkpt>
      <trkpt lat="43.517167" lon="6.770933">
        <ele>137.637436</ele>
        <time>2018-08-12T11:18:13Z</time>
      </trkpt>
      <trkpt lat="43.514313" lon="6.766265">
        <ele>124.989372</ele>
        <time>2018-08-12T11:18:28Z</time>
      </trkpt>
      <trkpt lat="43.511023" lon="6.761746">
        <ele>69.176109</ele>
        <time>2018-08-12T11:18:44Z</time>
      </trkpt>
      <trkpt lat="43.506749" lon="6.759067">
        <ele>50.264786</ele>
        <time>2018-08-12T11:19:00Z</time>
      </trkpt>
      <trkpt lat="43.502919" lon="6.756782">
        <ele>39.931194</ele>
        <time>2018-08-12T11:19:15Z</time>
      </trkpt>
      <trkpt lat="43.498497" lon="6.755029">
        <ele>40.126831</ele>
        <time>2018-08-12T11:19:31Z</time>
      </trkpt>
      <trkpt lat="43.496080" lon="6.750656">
        <ele>67.147484</ele>
        <time>2018-08-12T11:19:46Z</time>
      </trkpt>
      <trkpt lat="43.493713" lon="6.744769">
        <ele>36.150101</ele>
        <time>2018-08-12T11:20:02Z</time>
      </trkpt>
      <trkpt lat="43.490233" lon="6.740749">
        <ele>31.069225</ele>
        <time>2018-08-12T11:20:18Z</time>
      </trkpt>
      <trkpt lat="43.485832" lon="6.739310">
        <ele>37.137257</ele>
        <time>2018-08-12T11:20:34Z</time>
      </trkpt>
      <trkpt lat="43.481521" lon="6.739497">
        <ele>52.865437</ele>
        <time>2018-08-12T11:20:50Z</time>
      </trkpt>
      <trkpt lat="43.477759" lon="6.742184">
        <ele>29.757812</ele>
        <time>2018-08-12T11:21:05Z</time>
      </trkpt>
      <trkpt lat="43.473836" lon="6.740682">
        <ele>21.893764</ele>
        <time>2018-08-12T11:21:20Z</time>
      </trkpt>
      <trkpt lat="43.471012" lon="6.736368">
        <ele>24.648907</ele>
        <time>2018-08-12T11:21:36Z</time>
      </trkpt>
      <trkpt lat="43.469694" lon="6.731710">
        <ele>20.947937</ele>
        <time>2018-08-12T11:21:52Z</time>
      </trkpt>
      <trkpt lat="43.469112" lon="6.729423">
        <ele>27.177517</ele>
        <time>2018-08-12T11:22:08Z</time>
      </trkpt>
      <trkpt lat="43.468998" lon="6.729134">
        <ele>29.721718</ele>
        <time>2018-08-12T11:22:33Z</time>
      </trkpt>
      <trkpt lat="43.468386" lon="6.726954">
        <ele>44.463009</ele>
        <time>2018-08-12T11:22:49Z</time>
      </trkpt>
      <trkpt lat="43.464494" lon="6.717816">
        <ele>27.893433</ele>
        <time>2018-08-12T11:23:17Z</time>
      </trkpt>
      <trkpt lat="43.461574" lon="6.712788">
        <ele>20.000000</ele>
        <time>2018-08-12T11:23:32Z</time>
      </trkpt>
      <trkpt lat="43.458641" lon="6.707651">
        <ele>20.483253</ele>
        <time>2018-08-12T11:23:47Z</time>
      </trkpt>
      <trkpt lat="43.457445" lon="6.701417">
        <ele>21.000000</ele>
        <time>2018-08-12T11:24:02Z</time>
      </trkpt>
      <trkpt lat="43.457682" lon="6.694429">
        <ele>23.149340</ele>
        <time>2018-08-12T11:24:18Z</time>
      </trkpt>
      <trkpt lat="43.459296" lon="6.688179">
        <ele>28.000586</ele>
        <time>2018-08-12T11:24:33Z</time>
      </trkpt>
      <trkpt lat="43.462146" lon="6.682136">
        <ele>20.000000</ele>
        <time>2018-08-12T11:24:49Z</time>
      </trkpt>
      <trkpt lat="43.464747" lon="6.676554">
        <ele>21.627678</ele>
        <time>2018-08-12T11:25:04Z</time>
      </trkpt>
      <trkpt lat="43.466605" lon="6.670114">
        <ele>25.050903</ele>
        <time>2018-08-12T11:25:20Z</time>
      </trkpt>
      <trkpt lat="43.467399" lon="6.663251">
        <ele>20.878906</ele>
        <time>2018-08-12T11:25:36Z</time>
      </trkpt>
      <trkpt lat="43.467085" lon="6.656736">
        <ele>20.501953</ele>
        <time>2018-08-12T11:25:51Z</time>
      </trkpt>
      <trkpt lat="43.466006" lon="6.650352">
        <ele>20.000000</ele>
        <time>2018-08-12T11:26:06Z</time>
      </trkpt>
      <trkpt lat="43.464888" lon="6.643734">
        <ele>19.000000</ele>
        <time>2018-08-12T11:26:22Z</time>
      </trkpt>
      <trkpt lat="43.464406" lon="6.637121">
        <ele>19.287354</ele>
        <time>2018-08-12T11:26:38Z</time>
      </trkpt>
      <trkpt lat="43.464389" lon="6.630610">
        <ele>20.392799</ele>
        <time>2018-08-12T11:26:54Z</time>
      </trkpt>
      <trkpt lat="43.464152" lon="6.624360">
        <ele>39.768555</ele>
        <time>2018-08-12T11:27:09Z</time>
      </trkpt>
      <trkpt lat="43.462914" lon="6.617846">
        <ele>21.647751</ele>
        <time>2018-08-12T11:27:25Z</time>
      </trkpt>
      <trkpt lat="43.460745" lon="6.611819">
        <ele>19.817505</ele>
        <time>2018-08-12T11:27:41Z</time>
      </trkpt>
      <trkpt lat="43.459028" lon="6.605408">
        <ele>19.074730</ele>
        <time>2018-08-12T11:27:57Z</time>
      </trkpt>
      <trkpt lat="43.459679" lon="6.598536">
        <ele>22.238909</ele>
        <time>2018-08-12T11:28:13Z</time>
      </trkpt>
      <trkpt lat="43.461137" lon="6.591895">
        <ele>16.831196</ele>
        <time>2018-08-12T11:28:29Z</time>
      </trkpt>
      <trkpt lat="43.462589" lon="6.585341">
        <ele>17.484863</ele>
        <time>2018-08-12T11:28:45Z</time>
      </trkpt>
      <trkpt lat="43.463942" lon="6.578812">
        <ele>19.810661</ele>
        <time>2018-08-12T11:29:01Z</time>
      </trkpt>
      <trkpt lat="43.464646" lon="6.572287">
        <ele>29.138580</ele>
        <time>2018-08-12T11:29:17Z</time>
      </trkpt>
      <trkpt lat="43.464139" lon="6.566040">
        <ele>19.081751</ele>
        <time>2018-08-12T11:29:32Z</time>
      </trkpt>
      <trkpt lat="43.461986" lon="6.559879">
        <ele>41.054062</ele>
        <time>2018-08-12T11:29:48Z</time>
      </trkpt>
      <trkpt lat="43.459302" lon="6.554095">
        <ele>35.190144</ele>
        <time>2018-08-12T11:30:04Z</time>
      </trkpt>
      <trkpt lat="43.457379" lon="6.548414">
        <ele>29.891052</ele>
        <time>2018-08-12T11:30:19Z</time>
      </trkpt>
      <trkpt lat="43.456135" lon="6.542129">
        <ele>31.721252</ele>
        <time>2018-08-12T11:30:35Z</time>
      </trkpt>
      <trkpt lat="43.456139" lon="6.535636">
        <ele>44.922802</ele>
        <time>2018-08-12T11:30:51Z</time>
      </trkpt>
      <trkpt lat="43.455976" lon="6.529372">
        <ele>48.138062</ele>
        <time>2018-08-12T11:31:06Z</time>
      </trkpt>
      <trkpt lat="43.453243" lon="6.523629">
        <ele>60.115562</ele>
        <time>2018-08-12T11:31:22Z</time>
      </trkpt>
      <trkpt lat="43.451832" lon="6.516986">
        <ele>74.527687</ele>
        <time>2018-08-12T11:31:37Z</time>
      </trkpt>
      <trkpt lat="43.452015" lon="6.509785">
        <ele>60.000000</ele>
        <time>2018-08-12T11:31:53Z</time>
      </trkpt>
      <trkpt lat="43.450787" lon="6.502865">
        <ele>72.057632</ele>
        <time>2018-08-12T11:32:09Z</time>
      </trkpt>
      <trkpt lat="43.447579" lon="6.496885">
        <ele>58.142918</ele>
        <time>2018-08-12T11:32:25Z</time>
      </trkpt>
      <trkpt lat="43.444380" lon="6.491598">
        <ele>48.409286</ele>
        <time>2018-08-12T11:32:40Z</time>
      </trkpt>
      <trkpt lat="43.442365" lon="6.485078">
        <ele>43.838013</ele>
        <time>2018-08-12T11:32:56Z</time>
      </trkpt>
      <trkpt lat="43.441245" lon="6.478458">
        <ele>48.861511</ele>
        <time>2018-08-12T11:33:11Z</time>
      </trkpt>
      <trkpt lat="43.439578" lon="6.471652">
        <ele>55.011719</ele>
        <time>2018-08-12T11:33:27Z</time>
      </trkpt>
      <trkpt lat="43.435913" lon="6.467546">
        <ele>59.356213</ele>
        <time>2018-08-12T11:33:42Z</time>
      </trkpt>
      <trkpt lat="43.430868" lon="6.466573">
        <ele>59.000000</ele>
        <time>2018-08-12T11:33:58Z</time>
      </trkpt>
      <trkpt lat="43.426337" lon="6.467884">
        <ele>71.271896</ele>
        <time>2018-08-12T11:34:13Z</time>
      </trkpt>
      <trkpt lat="43.421665" lon="6.467555">
        <ele>74.656570</ele>
        <time>2018-08-12T11:34:29Z</time>
      </trkpt>
      <trkpt lat="43.417884" lon="6.463799">
        <ele>80.631744</ele>
        <time>2018-08-12T11:34:45Z</time>
      </trkpt>
      <trkpt lat="43.416318" lon="6.458276">
        <ele>103.623337</ele>
        <time>2018-08-12T11:35:00Z</time>
      </trkpt>
      <trkpt lat="43.415134" lon="6.451951">
        <ele>98.369301</ele>
        <time>2018-08-12T11:35:16Z</time>
      </trkpt>
      <trkpt lat="43.413581" lon="6.446080">
        <ele>76.170013</ele>
        <time>2018-08-12T11:35:31Z</time>
      </trkpt>
      <trkpt lat="43.414469" lon="6.439365">
        <ele>79.280174</ele>
        <time>2018-08-12T11:35:47Z</time>
      </trkpt>
      <trkpt lat="43.414325" lon="6.431800">
        <ele>73.411697</ele>
        <time>2018-08-12T11:36:03Z</time>
      </trkpt>
      <trkpt lat="43.412382" lon="6.424899">
        <ele>61.037506</ele>
        <time>2018-08-12T11:36:18Z</time>
      </trkpt>
      <trkpt lat="43.409528" lon="6.418794">
        <ele>67.012726</ele>
        <time>2018-08-12T11:36:33Z</time>
      </trkpt>
      <trkpt lat="43.406572" lon="6.412999">
        <ele>74.508156</ele>
        <time>2018-08-12T11:36:49Z</time>
      </trkpt>
      <trkpt lat="43.403962" lon="6.407593">
        <ele>79.615845</ele>
        <time>2018-08-12T11:37:04Z</time>
      </trkpt>
      <trkpt lat="43.402929" lon="6.401191">
        <ele>85.057129</ele>
        <time>2018-08-12T11:37:19Z</time>
      </trkpt>
      <trkpt lat="43.402525" lon="6.393776">
        <ele>90.557556</ele>
        <time>2018-08-12T11:37:35Z</time>
      </trkpt>
      <trkpt lat="43.402133" lon="6.386437">
        <ele>96.645638</ele>
        <time>2018-08-12T11:37:51Z</time>
      </trkpt>
      <trkpt lat="43.401999" lon="6.379842">
        <ele>98.873535</ele>
        <time>2018-08-12T11:38:06Z</time>
      </trkpt>
      <trkpt lat="43.401796" lon="6.373931">
        <ele>101.289223</ele>
        <time>2018-08-12T11:38:21Z</time>
      </trkpt>
      <trkpt lat="43.401471" lon="6.368177">
        <ele>104.483002</ele>
        <time>2018-08-12T11:38:37Z</time>
      </trkpt>
      <trkpt lat="43.400875" lon="6.363595">
        <ele>109.786804</ele>
        <time>2018-08-12T11:38:52Z</time>
      </trkpt>
      <trkpt lat="43.400734" lon="6.359917">
        <ele>114.862061</ele>
        <time>2018-08-12T11:39:08Z</time>
      </trkpt>
      <trkpt lat="43.397746" lon="6.358865">
        <ele>108.953033</ele>
        <time>2018-08-12T11:39:24Z</time>
      </trkpt>
      <trkpt lat="43.394930" lon="6.355761">
        <ele>106.995491</ele>
        <time>2018-08-12T11:39:39Z</time>
      </trkpt>
      <trkpt lat="43.391178" lon="6.353986">
        <ele>102.975403</ele>
        <time>2018-08-12T11:39:55Z</time>
      </trkpt>
      <trkpt lat="43.387808" lon="6.356922">
        <ele>97.924927</ele>
        <time>2018-08-12T11:40:10Z</time>
      </trkpt>
      <trkpt lat="43.384000" lon="6.358905">
        <ele>119.292046</ele>
        <time>2018-08-12T11:40:25Z</time>
      </trkpt>
      <trkpt lat="43.379924" lon="6.356708">
        <ele>116.444702</ele>
        <time>2018-08-12T11:40:40Z</time>
      </trkpt>
      <trkpt lat="43.377471" lon="6.351539">
        <ele>139.391937</ele>
        <time>2018-08-12T11:40:55Z</time>
      </trkpt>
      <trkpt lat="43.373983" lon="6.347021">
        <ele>134.523804</ele>
        <time>2018-08-12T11:41:11Z</time>
      </trkpt>
      <trkpt lat="43.369418" lon="6.343987">
        <ele>124.154327</ele>
        <time>2018-08-12T11:41:26Z</time>
      </trkpt>
      <trkpt lat="43.364914" lon="6.341053">
        <ele>122.590157</ele>
        <time>2018-08-12T11:41:41Z</time>
      </trkpt>
      <trkpt lat="43.360305" lon="6.338011">
        <ele>120.619797</ele>
        <time>2018-08-12T11:41:57Z</time>
      </trkpt>
      <trkpt lat="43.356030" lon="6.334974">
        <ele>119.065468</ele>
        <time>2018-08-12T11:42:12Z</time>
      </trkpt>
      <trkpt lat="43.351997" lon="6.331297">
        <ele>127.207275</ele>
        <time>2018-08-12T11:42:27Z</time>
      </trkpt>
      <trkpt lat="43.347888" lon="6.327152">
        <ele>135.952026</ele>
        <time>2018-08-12T11:42:43Z</time>
      </trkpt>
      <trkpt lat="43.344507" lon="6.323912">
        <ele>137.123779</ele>
        <time>2018-08-12T11:42:58Z</time>
      </trkpt>
      <trkpt lat="43.343128" lon="6.322114">
        <ele>135.103104</ele>
        <time>2018-08-12T11:43:14Z</time>
      </trkpt>
      <trkpt lat="43.342879" lon="6.322127">
        <ele>134.659164</ele>
        <time>2018-08-12T11:43:31Z</time>
      </trkpt>
      <trkpt lat="43.342738" lon="6.322153">
        <ele>134.405090</ele>
        <time>2018-08-12T12:04:42Z</time>
      </trkpt>
      <trkpt lat="43.341874" lon="6.321541">
        <ele>133.399658</ele>
        <time>2018-08-12T12:04:58Z</time>
      </trkpt>
      <trkpt lat="43.339351" lon="6.319500">
        <ele>130.041290</ele>
        <time>2018-08-12T12:05:13Z</time>
      </trkpt>
      <trkpt lat="43.335707" lon="6.316292">
        <ele>128.298920</ele>
        <time>2018-08-12T12:05:29Z</time>
      </trkpt>
      <trkpt lat="43.332092" lon="6.312216">
        <ele>126.211670</ele>
        <time>2018-08-12T12:05:45Z</time>
      </trkpt>
      <trkpt lat="43.328961" lon="6.307269">
        <ele>133.277740</ele>
        <time>2018-08-12T12:06:01Z</time>
      </trkpt>
      <trkpt lat="43.325764" lon="6.302800">
        <ele>138.250946</ele>
        <time>2018-08-12T12:06:16Z</time>
      </trkpt>
      <trkpt lat="43.321662" lon="6.299090">
        <ele>158.912949</ele>
        <time>2018-08-12T12:06:31Z</time>
      </trkpt>
      <trkpt lat="43.317255" lon="6.296609">
        <ele>168.423706</ele>
        <time>2018-08-12T12:06:46Z</time>
      </trkpt>
      <trkpt lat="43.313111" lon="6.292743">
        <ele>193.776917</ele>
        <time>2018-08-12T12:07:02Z</time>
      </trkpt>
      <trkpt lat="43.309490" lon="6.288349">
        <ele>211.449219</ele>
        <time>2018-08-12T12:07:17Z</time>
      </trkpt>
      <trkpt lat="43.307064" lon="6.282721">
        <ele>201.384125</ele>
        <time>2018-08-12T12:07:32Z</time>
      </trkpt>
      <trkpt lat="43.305583" lon="6.276723">
        <ele>214.012634</ele>
        <time>2018-08-12T12:07:47Z</time>
      </trkpt>
      <trkpt lat="43.303471" lon="6.270652">
        <ele>230.882065</ele>
        <time>2018-08-12T12:08:03Z</time>
      </trkpt>
      <trkpt lat="43.300069" lon="6.265769">
        <ele>229.370483</ele>
        <time>2018-08-12T12:08:19Z</time>
      </trkpt>
      <trkpt lat="43.296106" lon="6.262362">
        <ele>232.599487</ele>
        <time>2018-08-12T12:08:34Z</time>
      </trkpt>
      <trkpt lat="43.292518" lon="6.257565">
        <ele>218.573227</ele>
        <time>2018-08-12T12:08:50Z</time>
      </trkpt>
      <trkpt lat="43.290227" lon="6.251544">
        <ele>199.107513</ele>
        <time>2018-08-12T12:09:06Z</time>
      </trkpt>
      <trkpt lat="43.288927" lon="6.245516">
        <ele>195.491058</ele>
        <time>2018-08-12T12:09:21Z</time>
      </trkpt>
      <trkpt lat="43.288662" lon="6.238928">
        <ele>180.987396</ele>
        <time>2018-08-12T12:09:37Z</time>
      </trkpt>
      <trkpt lat="43.288972" lon="6.232633">
        <ele>160.366791</ele>
        <time>2018-08-12T12:09:52Z</time>
      </trkpt>
      <trkpt lat="43.289250" lon="6.226217">
        <ele>163.327423</ele>
        <time>2018-08-12T12:10:08Z</time>
      </trkpt>
      <trkpt lat="43.289543" lon="6.220013">
        <ele>164.989532</ele>
        <time>2018-08-12T12:10:23Z</time>
      </trkpt>
      <trkpt lat="43.289848" lon="6.213472">
        <ele>160.000000</ele>
        <time>2018-08-12T12:10:39Z</time>
      </trkpt>
      <trkpt lat="43.290412" lon="6.207030">
        <ele>169.172455</ele>
        <time>2018-08-12T12:10:55Z</time>
      </trkpt>
      <trkpt lat="43.291193" lon="6.200756">
        <ele>171.398849</ele>
        <time>2018-08-12T12:11:11Z</time>
      </trkpt>
      <trkpt lat="43.290147" lon="6.195030">
        <ele>161.711411</ele>
        <time>2018-08-12T12:11:26Z</time>
      </trkpt>
      <trkpt lat="43.287104" lon="6.190407">
        <ele>160.232147</ele>
        <time>2018-08-12T12:11:42Z</time>
      </trkpt>
      <trkpt lat="43.282967" lon="6.188357">
        <ele>149.320007</ele>
        <time>2018-08-12T12:11:58Z</time>
      </trkpt>
      <trkpt lat="43.278549" lon="6.187276">
        <ele>130.917221</ele>
        <time>2018-08-12T12:12:13Z</time>
      </trkpt>
      <trkpt lat="43.273967" lon="6.185227">
        <ele>132.469376</ele>
        <time>2018-08-12T12:12:29Z</time>
      </trkpt>
      <trkpt lat="43.270951" lon="6.180586">
        <ele>139.481781</ele>
        <time>2018-08-12T12:12:45Z</time>
      </trkpt>
      <trkpt lat="43.270176" lon="6.174149">
        <ele>170.492950</ele>
        <time>2018-08-12T12:13:01Z</time>
      </trkpt>
      <trkpt lat="43.270667" lon="6.168041">
        <ele>116.848831</ele>
        <time>2018-08-12T12:13:16Z</time>
      </trkpt>
      <trkpt lat="43.269377" lon="6.161870">
        <ele>107.261581</ele>
        <time>2018-08-12T12:13:32Z</time>
      </trkpt>
      <trkpt lat="43.268053" lon="6.155967">
        <ele>109.167709</ele>
        <time>2018-08-12T12:13:48Z</time>
      </trkpt>
      <trkpt lat="43.266767" lon="6.150347">
        <ele>111.704803</ele>
        <time>2018-08-12T12:14:03Z</time>
      </trkpt>
      <trkpt lat="43.265094" lon="6.144548">
        <ele>111.225952</ele>
        <time>2018-08-12T12:14:19Z</time>
      </trkpt>
      <trkpt lat="43.263487" lon="6.139075">
        <ele>109.389107</ele>
        <time>2018-08-12T12:14:34Z</time>
      </trkpt>
      <trkpt lat="43.261761" lon="6.133207">
        <ele>106.226807</ele>
        <time>2018-08-12T12:14:50Z</time>
      </trkpt>
      <trkpt lat="43.259776" lon="6.127608">
        <ele>100.861053</ele>
        <time>2018-08-12T12:15:06Z</time>
      </trkpt>
      <trkpt lat="43.258247" lon="6.123694">
        <ele>98.000000</ele>
        <time>2018-08-12T12:15:22Z</time>
      </trkpt>
      <trkpt lat="43.257864" lon="6.122711">
        <ele>98.000000</ele>
        <time>2018-08-12T12:15:42Z</time>
      </trkpt>
      <trkpt lat="43.257813" lon="6.122527">
        <ele>98.000000</ele>
        <time>2018-08-12T12:16:17Z</time>
      </trkpt>
      <trkpt lat="43.256663" lon="6.120480">
        <ele>95.991394</ele>
        <time>2018-08-12T12:16:33Z</time>
      </trkpt>
      <trkpt lat="43.254989" lon="6.116507">
        <ele>91.974426</ele>
        <time>2018-08-12T12:16:48Z</time>
      </trkpt>
      <trkpt lat="43.253658" lon="6.111202">
        <ele>93.730026</ele>
        <time>2018-08-12T12:17:04Z</time>
      </trkpt>
      <trkpt lat="43.252618" lon="6.105235">
        <ele>97.859955</ele>
        <time>2018-08-12T12:17:20Z</time>
      </trkpt>
      <trkpt lat="43.251508" lon="6.099744">
        <ele>102.614716</ele>
        <time>2018-08-12T12:17:35Z</time>
      </trkpt>
      <trkpt lat="43.248836" lon="6.095209">
        <ele>115.849304</ele>
        <time>2018-08-12T12:17:51Z</time>
      </trkpt>
      <trkpt lat="43.246129" lon="6.090901">
        <ele>120.911560</ele>
        <time>2018-08-12T12:18:06Z</time>
      </trkpt>
      <trkpt lat="43.243681" lon="6.086329">
        <ele>127.797806</ele>
        <time>2018-08-12T12:18:21Z</time>
      </trkpt>
      <trkpt lat="43.239454" lon="6.084432">
        <ele>128.708740</ele>
        <time>2018-08-12T12:18:37Z</time>
      </trkpt>
      <trkpt lat="43.235375" lon="6.083503">
        <ele>122.696960</ele>
        <time>2018-08-12T12:18:52Z</time>
      </trkpt>
      <trkpt lat="43.231455" lon="6.080961">
        <ele>122.631668</ele>
        <time>2018-08-12T12:19:08Z</time>
      </trkpt>
      <trkpt lat="43.227975" lon="6.077996">
        <ele>120.744110</ele>
        <time>2018-08-12T12:19:23Z</time>
      </trkpt>
      <trkpt lat="43.225399" lon="6.073142">
        <ele>119.598648</ele>
        <time>2018-08-12T12:19:39Z</time>
      </trkpt>
      <trkpt lat="43.221993" lon="6.069271">
        <ele>126.718071</ele>
        <time>2018-08-12T12:19:55Z</time>
      </trkpt>
      <trkpt lat="43.218533" lon="6.065925">
        <ele>133.560837</ele>
        <time>2018-08-12T12:20:10Z</time>
      </trkpt>
      <trkpt lat="43.214584" lon="6.062836">
        <ele>119.084747</ele>
        <time>2018-08-12T12:20:26Z</time>
      </trkpt>
      <trkpt lat="43.211048" lon="6.059131">
        <ele>110.456337</ele>
        <time>2018-08-12T12:20:42Z</time>
      </trkpt>
      <trkpt lat="43.209180" lon="6.054219">
        <ele>109.974030</ele>
        <time>2018-08-12T12:20:57Z</time>
      </trkpt>
      <trkpt lat="43.206483" lon="6.049559">
        <ele>105.399178</ele>
        <time>2018-08-12T12:21:13Z</time>
      </trkpt>
      <trkpt lat="43.202597" lon="6.047755">
        <ele>94.927071</ele>
        <time>2018-08-12T12:21:28Z</time>
      </trkpt>
      <trkpt lat="43.199104" lon="6.044635">
        <ele>89.212585</ele>
        <time>2018-08-12T12:21:44Z</time>
      </trkpt>
      <trkpt lat="43.196297" lon="6.041308">
        <ele>85.541977</ele>
        <time>2018-08-12T12:21:59Z</time>
      </trkpt>
      <trkpt lat="43.192792" lon="6.038299">
        <ele>80.419189</ele>
        <time>2018-08-12T12:22:15Z</time>
      </trkpt>
      <trkpt lat="43.189429" lon="6.036962">
        <ele>92.708542</ele>
        <time>2018-08-12T12:22:30Z</time>
      </trkpt>
      <trkpt lat="43.186159" lon="6.040319">
        <ele>108.938797</ele>
        <time>2018-08-12T12:22:46Z</time>
      </trkpt>
      <trkpt lat="43.183065" lon="6.043860">
        <ele>89.291878</ele>
        <time>2018-08-12T12:23:02Z</time>
      </trkpt>
      <trkpt lat="43.179522" lon="6.046414">
        <ele>82.237465</ele>
        <time>2018-08-12T12:23:17Z</time>
      </trkpt>
      <trkpt lat="43.175886" lon="6.048257">
        <ele>74.548813</ele>
        <time>2018-08-12T12:23:32Z</time>
      </trkpt>
      <trkpt lat="43.172092" lon="6.049668">
        <ele>65.396698</ele>
        <time>2018-08-12T12:23:47Z</time>
      </trkpt>
      <trkpt lat="43.167992" lon="6.051216">
        <ele>66.081993</ele>
        <time>2018-08-12T12:24:03Z</time>
      </trkpt>
      <trkpt lat="43.163680" lon="6.051048">
        <ele>62.900017</ele>
        <time>2018-08-12T12:24:19Z</time>
      </trkpt>
      <trkpt lat="43.160347" lon="6.048102">
        <ele>64.392731</ele>
        <time>2018-08-12T12:24:34Z</time>
      </trkpt>
      <trkpt lat="43.157446" lon="6.044623">
        <ele>63.709122</ele>
        <time>2018-08-12T12:24:49Z</time>
      </trkpt>
      <trkpt lat="43.154580" lon="6.041283">
        <ele>64.956032</ele>
        <time>2018-08-12T12:25:04Z</time>
      </trkpt>
      <trkpt lat="43.151702" lon="6.037920">
        <ele>61.590279</ele>
        <time>2018-08-12T12:25:19Z</time>
      </trkpt>
      <trkpt lat="43.148471" lon="6.034120">
        <ele>53.221512</ele>
        <time>2018-08-12T12:25:35Z</time>
      </trkpt>
      <trkpt lat="43.145546" lon="6.030386">
        <ele>51.502712</ele>
        <time>2018-08-12T12:25:50Z</time>
      </trkpt>
      <trkpt lat="43.144029" lon="6.025320">
        <ele>52.119415</ele>
        <time>2018-08-12T12:26:05Z</time>
      </trkpt>
      <trkpt lat="43.143724" lon="6.019569">
        <ele>55.406662</ele>
        <time>2018-08-12T12:26:21Z</time>
      </trkpt>
      <trkpt lat="43.143502" lon="6.014236">
        <ele>56.523476</ele>
        <time>2018-08-12T12:26:36Z</time>
      </trkpt>
      <trkpt lat="43.142870" lon="6.009302">
        <ele>61.426163</ele>
        <time>2018-08-12T12:26:51Z</time>
      </trkpt>
      <trkpt lat="43.141720" lon="6.004722">
        <ele>64.026779</ele>
        <time>2018-08-12T12:27:07Z</time>
      </trkpt>
      <trkpt lat="43.140694" lon="6.000468">
        <ele>58.739338</ele>
        <time>2018-08-12T12:27:22Z</time>
      </trkpt>
      <trkpt lat="43.138926" lon="5.996758">
        <ele>59.968292</ele>
        <time>2018-08-12T12:27:38Z</time>
      </trkpt>
      <trkpt lat="43.136397" lon="5.993498">
        <ele>58.746391</ele>
        <time>2018-08-12T12:27:53Z</time>
      </trkpt>
      <trkpt lat="43.134735" lon="5.988636">
        <ele>57.409134</ele>
        <time>2018-08-12T12:28:08Z</time>
      </trkpt>
      <trkpt lat="43.133174" lon="5.983675">
        <ele>54.203041</ele>
        <time>2018-08-12T12:28:23Z</time>
      </trkpt>
      <trkpt lat="43.130835" lon="5.979358">
        <ele>44.779633</ele>
        <time>2018-08-12T12:28:39Z</time>
      </trkpt>
      <trkpt lat="43.128034" lon="5.975548">
        <ele>35.878540</ele>
        <time>2018-08-12T12:28:55Z</time>
      </trkpt>
      <trkpt lat="43.125736" lon="5.972112">
        <ele>29.479742</ele>
        <time>2018-08-12T12:29:10Z</time>
      </trkpt>
      <trkpt lat="43.124872" lon="5.967948">
        <ele>21.952431</ele>
        <time>2018-08-12T12:29:25Z</time>
      </trkpt>
      <trkpt lat="43.124331" lon="5.963930">
        <ele>15.219604</ele>
        <time>2018-08-12T12:29:40Z</time>
      </trkpt>
      <trkpt lat="43.123633" lon="5.959956">
        <ele>18.620121</ele>
        <time>2018-08-12T12:29:55Z</time>
      </trkpt>
      <trkpt lat="43.122276" lon="5.955828">
        <ele>10.286631</ele>
        <time>2018-08-12T12:30:11Z</time>
      </trkpt>
      <trkpt lat="43.121061" lon="5.952154">
        <ele>7.756250</ele>
        <time>2018-08-12T12:30:26Z</time>
      </trkpt>
      <trkpt lat="43.120285" lon="5.948845">
        <ele>7.701233</ele>
        <time>2018-08-12T12:30:41Z</time>
      </trkpt>
      <trkpt lat="43.120301" lon="5.947386">
        <ele>6.187334</ele>
        <time>2018-08-12T12:31:35Z</time>
      </trkpt>
      <trkpt lat="43.120706" lon="5.945086">
        <ele>4.666554</ele>
        <time>2018-08-12T12:31:51Z</time>
      </trkpt>
      <trkpt lat="43.121282" lon="5.942410">
        <ele>11.820038</ele>
        <time>2018-08-12T12:32:06Z</time>
      </trkpt>
      <trkpt lat="43.121418" lon="5.941748">
        <ele>13.182671</ele>
        <time>2018-08-12T12:32:24Z</time>
      </trkpt>
      <trkpt lat="43.122089" lon="5.940271">
        <ele>14.847244</ele>
        <time>2018-08-12T12:32:40Z</time>
      </trkpt>
      <trkpt lat="43.122486" lon="5.939433">
        <ele>14.886738</ele>
        <time>2018-08-12T12:32:56Z</time>
      </trkpt>
      <trkpt lat="43.122257" lon="5.939125">
        <ele>13.025681</ele>
        <time>2018-08-12T12:33:12Z</time>
      </trkpt>
      <trkpt lat="43.121367" lon="5.938552">
        <ele>10.131330</ele>
        <time>2018-08-12T12:33:27Z</time>
      </trkpt>
      <trkpt lat="43.121640" lon="5.936927">
        <ele>13.352666</ele>
        <time>2018-08-12T12:33:43Z</time>
      </trkpt>
      <trkpt lat="43.120762" lon="5.936024">
        <ele>15.220691</ele>
        <time>2018-08-12T12:33:59Z</time>
      </trkpt>
      <trkpt lat="43.119632" lon="5.935407">
        <ele>11.343477</ele>
        <time>2018-08-12T12:34:14Z</time>
      </trkpt>
      <trkpt lat="43.119179" lon="5.935046">
        <ele>7.390608</ele>
        <time>2018-08-12T12:34:30Z</time>
      </trkpt>
      <trkpt lat="43.119045" lon="5.934891">
        <ele>6.445923</ele>
        <time>2018-08-12T12:35:02Z</time>
      </trkpt>
      <trkpt lat="43.119163" lon="5.934403">
        <ele>5.557312</ele>
        <time>2018-08-12T12:35:18Z</time>
      </trkpt>
      <trkpt lat="43.119284" lon="5.934015">
        <ele>5.561523</ele>
        <time>2018-08-12T12:35:33Z</time>
      </trkpt>
      <trkpt lat="43.120019" lon="5.932618">
        <ele>8.234314</ele>
        <time>2018-08-12T12:35:49Z</time>
      </trkpt>
      <trkpt lat="43.120763" lon="5.931167">
        <ele>6.047470</ele>
        <time>2018-08-12T12:36:05Z</time>
      </trkpt>
      <trkpt lat="43.120954" lon="5.931003">
        <ele>6.236864</ele>
        <time>2018-08-12T12:36:22Z</time>
      </trkpt>
      <trkpt lat="43.121108" lon="5.931070">
        <ele>7.870497</ele>
        <time>2018-08-12T12:36:38Z</time>
      </trkpt>
      <trkpt lat="43.121063" lon="5.931251">
        <ele>8.526175</ele>
        <time>2018-08-12T12:37:23Z</time>
      </trkpt>
      <trkpt lat="43.121081" lon="5.931068">
        <ele>7.644871</ele>
        <time>2018-08-12T12:39:18Z</time>
      </trkpt>
      <trkpt lat="43.121022" lon="5.931269">
        <ele>8.355618</ele>
        <time>2018-08-12T12:39:53Z</time>
      </trkpt>
      <trkpt lat="43.120984" lon="5.931483">
        <ele>9.417523</ele>
        <time>2018-08-12T12:40:25Z</time>
      </trkpt>
      <trkpt lat="43.121024" lon="5.931297">
        <ele>8.530113</ele>
        <time>2018-08-12T12:40:55Z</time>
      </trkpt>
      <trkpt lat="43.120915" lon="5.931418">
        <ele>8.649139</ele>
        <time>2018-08-12T12:43:12Z</time>
      </trkpt>
      <trkpt lat="43.120978" lon="5.931250">
        <ele>7.958689</ele>
        <time>2018-08-12T12:43:47Z</time>
      </trkpt>
      <trkpt lat="43.120821" lon="5.931150">
        <ele>6.219986</ele>
        <time>2018-08-12T12:44:18Z</time>
      </trkpt>
      <trkpt lat="43.120688" lon="5.931105">
        <ele>5.260533</ele>
        <time>2018-08-12T12:44:41Z</time>
      </trkpt>
      <trkpt lat="43.120535" lon="5.931097">
        <ele>4.489126</ele>
        <time>2018-08-12T12:44:56Z</time>
      </trkpt>
      <trkpt lat="43.120400" lon="5.931101">
        <ele>3.865413</ele>
        <time>2018-08-12T12:45:11Z</time>
      </trkpt>
      <trkpt lat="43.120320" lon="5.931263">
        <ele>4.294691</ele>
        <time>2018-08-12T12:45:27Z</time>
      </trkpt>
      <trkpt lat="43.120243" lon="5.931419">
        <ele>4.601044</ele>
        <time>2018-08-12T12:45:48Z</time>
      </trkpt>
      <trkpt lat="43.120157" lon="5.931632">
        <ele>4.979424</ele>
        <time>2018-08-12T12:46:04Z</time>
      </trkpt>
      <trkpt lat="43.120101" lon="5.931811">
        <ele>5.382595</ele>
        <time>2018-08-12T12:46:19Z</time>
      </trkpt>
      <trkpt lat="43.120024" lon="5.931982">
        <ele>5.663201</ele>
        <time>2018-08-12T12:46:35Z</time>
      </trkpt>
      <trkpt lat="43.119926" lon="5.932163">
        <ele>6.007994</ele>
        <time>2018-08-12T12:46:51Z</time>
      </trkpt>
      <trkpt lat="43.119874" lon="5.932347">
        <ele>6.560982</ele>
        <time>2018-08-12T12:47:08Z</time>
      </trkpt>
      <trkpt lat="43.119924" lon="5.932527">
        <ele>7.580011</ele>
        <time>2018-08-12T12:47:34Z</time>
      </trkpt>
      <trkpt lat="43.119906" lon="5.932717">
        <ele>7.723763</ele>
        <time>2018-08-12T12:47:53Z</time>
      </trkpt>
      <trkpt lat="43.119778" lon="5.932888">
        <ele>7.256191</ele>
        <time>2018-08-12T12:48:09Z</time>
      </trkpt>
      <trkpt lat="43.119667" lon="5.933006">
        <ele>6.849576</ele>
        <time>2018-08-12T12:48:25Z</time>
      </trkpt>
      <trkpt lat="43.119589" lon="5.933158">
        <ele>6.711782</ele>
        <time>2018-08-12T12:48:51Z</time>
      </trkpt>
      <trkpt lat="43.119542" lon="5.933334">
        <ele>6.802124</ele>
        <time>2018-08-12T12:49:12Z</time>
      </trkpt>
      <trkpt lat="43.119554" lon="5.933520">
        <ele>6.861267</ele>
        <time>2018-08-12T12:49:57Z</time>
      </trkpt>
      <trkpt lat="43.119676" lon="5.933641">
        <ele>7.445679</ele>
        <time>2018-08-12T12:50:12Z</time>
      </trkpt>
      <trkpt lat="43.119795" lon="5.933750">
        <ele>8.014160</ele>
        <time>2018-08-12T12:50:27Z</time>
      </trkpt>
      <trkpt lat="43.119947" lon="5.933855">
        <ele>8.747620</ele>
        <time>2018-08-12T12:50:43Z</time>
      </trkpt>
      <trkpt lat="43.120075" lon="5.933926">
        <ele>9.426290</ele>
        <time>2018-08-12T12:50:58Z</time>
      </trkpt>
      <trkpt lat="43.119947" lon="5.933852">
        <ele>8.745605</ele>
        <time>2018-08-12T12:51:40Z</time>
      </trkpt>
      <trkpt lat="43.119784" lon="5.933762">
        <ele>7.965454</ele>
        <time>2018-08-12T12:51:55Z</time>
      </trkpt>
      <trkpt lat="43.119594" lon="5.933772">
        <ele>7.052551</ele>
        <time>2018-08-12T12:52:10Z</time>
      </trkpt>
      <trkpt lat="43.119624" lon="5.933555">
        <ele>7.193970</ele>
        <time>2018-08-12T12:52:25Z</time>
      </trkpt>
      <trkpt lat="43.119487" lon="5.933515">
        <ele>6.537415</ele>
        <time>2018-08-12T12:53:25Z</time>
      </trkpt>
      <trkpt lat="43.119346" lon="5.933482">
        <ele>5.862061</ele>
        <time>2018-08-12T12:53:41Z</time>
      </trkpt>
      <trkpt lat="43.119345" lon="5.933290">
        <ele>5.766302</ele>
        <time>2018-08-12T12:54:02Z</time>
      </trkpt>
      <trkpt lat="43.119438" lon="5.933150">
        <ele>5.935808</ele>
        <time>2018-08-12T12:54:28Z</time>
      </trkpt>
      <trkpt lat="43.119583" lon="5.932982">
        <ele>6.363843</ele>
        <time>2018-08-12T12:54:43Z</time>
      </trkpt>
      <trkpt lat="43.119661" lon="5.932832">
        <ele>6.527905</ele>
        <time>2018-08-12T12:55:13Z</time>
      </trkpt>
      <trkpt lat="43.119787" lon="5.932680">
        <ele>6.994284</ele>
        <time>2018-08-12T12:55:28Z</time>
      </trkpt>
      <trkpt lat="43.119757" lon="5.932497">
        <ele>6.528700</ele>
        <time>2018-08-12T12:56:22Z</time>
      </trkpt>
      <trkpt lat="43.119871" lon="5.932357">
        <ele>6.595408</ele>
        <time>2018-08-12T12:56:43Z</time>
      </trkpt>
      <trkpt lat="43.119916" lon="5.932552">
        <ele>7.563220</ele>
        <time>2018-08-12T12:57:52Z</time>
      </trkpt>
      <trkpt lat="43.119863" lon="5.932781">
        <ele>7.569172</ele>
        <time>2018-08-12T12:58:08Z</time>
      </trkpt>
      <trkpt lat="43.119782" lon="5.932932">
        <ele>7.344172</ele>
        <time>2018-08-12T12:58:24Z</time>
      </trkpt>
      <trkpt lat="43.119670" lon="5.933059">
        <ele>6.958687</ele>
        <time>2018-08-12T12:59:03Z</time>
      </trkpt>
      <trkpt lat="43.119645" lon="5.933245">
        <ele>7.144327</ele>
        <time>2018-08-12T13:32:05Z</time>
      </trkpt>
      <trkpt lat="43.119571" lon="5.933413">
        <ele>6.941345</ele>
        <time>2018-08-12T13:32:26Z</time>
      </trkpt>
      <trkpt lat="43.119453" lon="5.933530">
        <ele>6.373230</ele>
        <time>2018-08-12T13:47:29Z</time>
      </trkpt>
      <trkpt lat="43.119334" lon="5.933427">
        <ele>5.802917</ele>
        <time>2018-08-12T13:47:48Z</time>
      </trkpt>
      <trkpt lat="43.119395" lon="5.933249">
        <ele>5.920524</ele>
        <time>2018-08-12T13:48:05Z</time>
      </trkpt>
      <trkpt lat="43.119469" lon="5.933080">
        <ele>5.953669</ele>
        <time>2018-08-12T13:48:23Z</time>
      </trkpt>
      <trkpt lat="43.119547" lon="5.932924">
        <ele>6.069808</ele>
        <time>2018-08-12T13:48:38Z</time>
      </trkpt>
      <trkpt lat="43.119635" lon="5.932751">
        <ele>6.240029</ele>
        <time>2018-08-12T13:48:54Z</time>
      </trkpt>
      <trkpt lat="43.119761" lon="5.932815">
        <ele>7.053554</ele>
        <time>2018-08-12T13:49:54Z</time>
      </trkpt>
      <trkpt lat="43.119747" lon="5.932630">
        <ele>6.686771</ele>
        <time>2018-08-12T13:55:11Z</time>
      </trkpt>
      <trkpt lat="43.119808" lon="5.932463">
        <ele>6.692461</ele>
        <time>2018-08-12T13:55:30Z</time>
      </trkpt>
      <trkpt lat="43.119942" lon="5.932514">
        <ele>7.669857</ele>
        <time>2018-08-12T13:55:50Z</time>
      </trkpt>
      <trkpt lat="43.120071" lon="5.932408">
        <ele>7.915142</ele>
        <time>2018-08-12T13:56:05Z</time>
      </trkpt>
      <trkpt lat="43.120188" lon="5.932302">
        <ele>8.060871</ele>
        <time>2018-08-12T13:56:32Z</time>
      </trkpt>
      <trkpt lat="43.120295" lon="5.932119">
        <ele>7.912993</ele>
        <time>2018-08-12T13:56:48Z</time>
      </trkpt>
      <trkpt lat="43.120443" lon="5.931995">
        <ele>8.345360</ele>
        <time>2018-08-12T13:57:03Z</time>
      </trkpt>
      <trkpt lat="43.120573" lon="5.931946">
        <ele>9.006886</ele>
        <time>2018-08-12T13:57:19Z</time>
      </trkpt>
      <trkpt lat="43.120660" lon="5.931719">
        <ele>8.901881</ele>
        <time>2018-08-12T13:57:35Z</time>
      </trkpt>
      <trkpt lat="43.120653" lon="5.931430">
        <ele>7.179386</ele>
        <time>2018-08-12T13:57:50Z</time>
      </trkpt>
      <trkpt lat="43.120777" lon="5.931272">
        <ele>6.848007</ele>
        <time>2018-08-12T13:58:06Z</time>
      </trkpt>
      <trkpt lat="43.120922" lon="5.931181">
        <ele>7.129921</ele>
        <time>2018-08-12T13:58:22Z</time>
      </trkpt>
      <trkpt lat="43.121059" lon="5.931237">
        <ele>8.411942</ele>
        <time>2018-08-12T13:59:53Z</time>
      </trkpt>
      <trkpt lat="43.120934" lon="5.931166">
        <ele>7.122155</ele>
        <time>2018-08-12T14:04:46Z</time>
      </trkpt>
      <trkpt lat="43.120970" lon="5.930944">
        <ele>6.000809</ele>
        <time>2018-08-12T14:05:02Z</time>
      </trkpt>
      <trkpt lat="43.121369" lon="5.930180">
        <ele>7.629876</ele>
        <time>2018-08-12T14:05:17Z</time>
      </trkpt>
      <trkpt lat="43.122196" lon="5.928960">
        <ele>5.113528</ele>
        <time>2018-08-12T14:05:33Z</time>
      </trkpt>
      <trkpt lat="43.123214" lon="5.929792">
        <ele>10.928285</ele>
        <time>2018-08-12T14:05:48Z</time>
      </trkpt>
      <trkpt lat="43.123812" lon="5.929655">
        <ele>13.112765</ele>
        <time>2018-08-12T14:06:04Z</time>
      </trkpt>
      <trkpt lat="43.124256" lon="5.928750">
        <ele>12.767742</ele>
        <time>2018-08-12T14:06:19Z</time>
      </trkpt>
      <trkpt lat="43.124543" lon="5.928132">
        <ele>13.105093</ele>
        <time>2018-08-12T14:06:35Z</time>
      </trkpt>
      <trkpt lat="43.125549" lon="5.928448">
        <ele>16.676294</ele>
        <time>2018-08-12T14:06:51Z</time>
      </trkpt>
      <trkpt lat="43.126035" lon="5.927132">
        <ele>16.336977</ele>
        <time>2018-08-12T14:07:06Z</time>
      </trkpt>
      <trkpt lat="43.126463" lon="5.924808">
        <ele>12.235504</ele>
        <time>2018-08-12T14:07:22Z</time>
      </trkpt>
      <trkpt lat="43.126865" lon="5.922273">
        <ele>11.429929</ele>
        <time>2018-08-12T14:07:38Z</time>
      </trkpt>
      <trkpt lat="43.127170" lon="5.920378">
        <ele>12.390126</ele>
        <time>2018-08-12T14:07:54Z</time>
      </trkpt>
      <trkpt lat="43.127331" lon="5.917422">
        <ele>13.060364</ele>
        <time>2018-08-12T14:08:10Z</time>
      </trkpt>
      <trkpt lat="43.127092" lon="5.913914">
        <ele>6.658861</ele>
        <time>2018-08-12T14:08:25Z</time>
      </trkpt>
      <trkpt lat="43.126490" lon="5.909730">
        <ele>6.925437</ele>
        <time>2018-08-12T14:08:41Z</time>
      </trkpt>
      <trkpt lat="43.124998" lon="5.905743">
        <ele>8.889863</ele>
        <time>2018-08-12T14:08:57Z</time>
      </trkpt>
      <trkpt lat="43.124849" lon="5.901077">
        <ele>17.699120</ele>
        <time>2018-08-12T14:09:13Z</time>
      </trkpt>
      <trkpt lat="43.126312" lon="5.896148">
        <ele>17.565077</ele>
        <time>2018-08-12T14:09:29Z</time>
      </trkpt>
      <trkpt lat="43.126690" lon="5.890682">
        <ele>12.936301</ele>
        <time>2018-08-12T14:09:44Z</time>
      </trkpt>
      <trkpt lat="43.126242" lon="5.884799">
        <ele>20.496490</ele>
        <time>2018-08-12T14:10:00Z</time>
      </trkpt>
      <trkpt lat="43.125828" lon="5.879458">
        <ele>23.025255</ele>
        <time>2018-08-12T14:10:15Z</time>
      </trkpt>
      <trkpt lat="43.125136" lon="5.874226">
        <ele>19.278332</ele>
        <time>2018-08-12T14:10:30Z</time>
      </trkpt>
      <trkpt lat="43.122877" lon="5.869489">
        <ele>32.147594</ele>
        <time>2018-08-12T14:10:45Z</time>
      </trkpt>
      <trkpt lat="43.120110" lon="5.864830">
        <ele>29.920479</ele>
        <time>2018-08-12T14:11:01Z</time>
      </trkpt>
      <trkpt lat="43.119621" lon="5.858755">
        <ele>18.262207</ele>
        <time>2018-08-12T14:11:17Z</time>
      </trkpt>
      <trkpt lat="43.119998" lon="5.853155">
        <ele>27.779785</ele>
        <time>2018-08-12T14:11:32Z</time>
      </trkpt>
      <trkpt lat="43.120316" lon="5.847311">
        <ele>24.026009</ele>
        <time>2018-08-12T14:11:48Z</time>
      </trkpt>
      <trkpt lat="43.120698" lon="5.841405">
        <ele>19.487610</ele>
        <time>2018-08-12T14:12:04Z</time>
      </trkpt>
      <trkpt lat="43.121183" lon="5.835592">
        <ele>18.512836</ele>
        <time>2018-08-12T14:12:19Z</time>
      </trkpt>
      <trkpt lat="43.122399" lon="5.829925">
        <ele>17.899084</ele>
        <time>2018-08-12T14:12:34Z</time>
      </trkpt>
      <trkpt lat="43.125745" lon="5.825325">
        <ele>18.780273</ele>
        <time>2018-08-12T14:12:50Z</time>
      </trkpt>
      <trkpt lat="43.128099" lon="5.820173">
        <ele>28.764076</ele>
        <time>2018-08-12T14:13:05Z</time>
      </trkpt>
      <trkpt lat="43.130737" lon="5.814936">
        <ele>33.091141</ele>
        <time>2018-08-12T14:13:21Z</time>
      </trkpt>
      <trkpt lat="43.134179" lon="5.810483">
        <ele>44.473698</ele>
        <time>2018-08-12T14:13:37Z</time>
      </trkpt>
      <trkpt lat="43.137071" lon="5.805385">
        <ele>66.162766</ele>
        <time>2018-08-12T14:13:53Z</time>
      </trkpt>
      <trkpt lat="43.139254" lon="5.800225">
        <ele>78.683487</ele>
        <time>2018-08-12T14:14:08Z</time>
      </trkpt>
      <trkpt lat="43.140915" lon="5.794930">
        <ele>76.062286</ele>
        <time>2018-08-12T14:14:23Z</time>
      </trkpt>
      <trkpt lat="43.142522" lon="5.790024">
        <ele>94.647499</ele>
        <time>2018-08-12T14:14:39Z</time>
      </trkpt>
      <trkpt lat="43.143762" lon="5.788175">
        <ele>89.691902</ele>
        <time>2018-08-12T14:14:55Z</time>
      </trkpt>
      <trkpt lat="43.143893" lon="5.788045">
        <ele>89.835213</ele>
        <time>2018-08-12T14:20:36Z</time>
      </trkpt>
      <trkpt lat="43.144031" lon="5.787934">
        <ele>90.264183</ele>
        <time>2018-08-12T14:30:33Z</time>
      </trkpt>
      <trkpt lat="43.144408" lon="5.786831">
        <ele>83.146164</ele>
        <time>2018-08-12T14:30:49Z</time>
      </trkpt>
      <trkpt lat="43.145649" lon="5.783529">
        <ele>72.540001</ele>
        <time>2018-08-12T14:31:05Z</time>
      </trkpt>
      <trkpt lat="43.146483" lon="5.777750">
        <ele>54.390911</ele>
        <time>2018-08-12T14:31:21Z</time>
      </trkpt>
      <trkpt lat="43.146574" lon="5.773338">
        <ele>36.341171</ele>
        <time>2018-08-12T14:31:36Z</time>
      </trkpt>
      <trkpt lat="43.146652" lon="5.772094">
        <ele>33.987926</ele>
        <time>2018-08-12T14:31:51Z</time>
      </trkpt>
      <trkpt lat="43.146656" lon="5.771834">
        <ele>32.778008</ele>
        <time>2018-08-12T14:32:29Z</time>
      </trkpt>
      <trkpt lat="43.147464" lon="5.768333">
        <ele>26.528276</ele>
        <time>2018-08-12T14:32:45Z</time>
      </trkpt>
      <trkpt lat="43.150998" lon="5.765320">
        <ele>27.408722</ele>
        <time>2018-08-12T14:33:01Z</time>
      </trkpt>
      <trkpt lat="43.155426" lon="5.765670">
        <ele>33.136414</ele>
        <time>2018-08-12T14:33:16Z</time>
      </trkpt>
      <trkpt lat="43.160136" lon="5.767606">
        <ele>40.764149</ele>
        <time>2018-08-12T14:33:32Z</time>
      </trkpt>
      <trkpt lat="43.165049" lon="5.767191">
        <ele>42.659771</ele>
        <time>2018-08-12T14:33:48Z</time>
      </trkpt>
      <trkpt lat="43.169535" lon="5.769914">
        <ele>60.500656</ele>
        <time>2018-08-12T14:34:04Z</time>
      </trkpt>
      <trkpt lat="43.174123" lon="5.770022">
        <ele>51.869312</ele>
        <time>2018-08-12T14:34:19Z</time>
      </trkpt>
      <trkpt lat="43.178945" lon="5.769825">
        <ele>53.258850</ele>
        <time>2018-08-12T14:34:35Z</time>
      </trkpt>
      <trkpt lat="43.183370" lon="5.769732">
        <ele>58.723190</ele>
        <time>2018-08-12T14:34:50Z</time>
      </trkpt>
      <trkpt lat="43.187786" lon="5.767725">
        <ele>62.882568</ele>
        <time>2018-08-12T14:35:06Z</time>
      </trkpt>
      <trkpt lat="43.191287" lon="5.764651">
        <ele>67.368317</ele>
        <time>2018-08-12T14:35:21Z</time>
      </trkpt>
      <trkpt lat="43.195478" lon="5.762483">
        <ele>85.002487</ele>
        <time>2018-08-12T14:35:37Z</time>
      </trkpt>
      <trkpt lat="43.199028" lon="5.758912">
        <ele>85.153214</ele>
        <time>2018-08-12T14:35:53Z</time>
      </trkpt>
      <trkpt lat="43.200812" lon="5.753257">
        <ele>86.105560</ele>
        <time>2018-08-12T14:36:09Z</time>
      </trkpt>
      <trkpt lat="43.202285" lon="5.747429">
        <ele>87.342316</ele>
        <time>2018-08-12T14:36:25Z</time>
      </trkpt>
      <trkpt lat="43.202938" lon="5.741965">
        <ele>92.369415</ele>
        <time>2018-08-12T14:36:40Z</time>
      </trkpt>
      <trkpt lat="43.202859" lon="5.735826">
        <ele>88.683228</ele>
        <time>2018-08-12T14:36:56Z</time>
      </trkpt>
      <trkpt lat="43.202431" lon="5.729128">
        <ele>70.538383</ele>
        <time>2018-08-12T14:37:12Z</time>
      </trkpt>
      <trkpt lat="43.200970" lon="5.722889">
        <ele>61.718109</ele>
        <time>2018-08-12T14:37:28Z</time>
      </trkpt>
      <trkpt lat="43.199298" lon="5.717285">
        <ele>67.182381</ele>
        <time>2018-08-12T14:37:43Z</time>
      </trkpt>
      <trkpt lat="43.197967" lon="5.711469">
        <ele>65.253944</ele>
        <time>2018-08-12T14:37:58Z</time>
      </trkpt>
      <trkpt lat="43.196827" lon="5.705185">
        <ele>65.398209</ele>
        <time>2018-08-12T14:38:14Z</time>
      </trkpt>
      <trkpt lat="43.195751" lon="5.699098">
        <ele>69.384644</ele>
        <time>2018-08-12T14:38:30Z</time>
      </trkpt>
      <trkpt lat="43.194700" lon="5.693201">
        <ele>66.641388</ele>
        <time>2018-08-12T14:38:45Z</time>
      </trkpt>
      <trkpt lat="43.193645" lon="5.687036">
        <ele>68.360992</ele>
        <time>2018-08-12T14:39:01Z</time>
      </trkpt>
      <trkpt lat="43.192909" lon="5.681319">
        <ele>85.187256</ele>
        <time>2018-08-12T14:39:16Z</time>
      </trkpt>
      <trkpt lat="43.192891" lon="5.674965">
        <ele>67.272606</ele>
        <time>2018-08-12T14:39:32Z</time>
      </trkpt>
      <trkpt lat="43.193390" lon="5.668625">
        <ele>71.925156</ele>
        <time>2018-08-12T14:39:48Z</time>
      </trkpt>
      <trkpt lat="43.192654" lon="5.662403">
        <ele>60.925491</ele>
        <time>2018-08-12T14:40:04Z</time>
      </trkpt>
      <trkpt lat="43.191848" lon="5.656333">
        <ele>73.235901</ele>
        <time>2018-08-12T14:40:20Z</time>
      </trkpt>
      <trkpt lat="43.193899" lon="5.650756">
        <ele>58.257988</ele>
        <time>2018-08-12T14:40:36Z</time>
      </trkpt>
      <trkpt lat="43.196240" lon="5.645117">
        <ele>63.440228</ele>
        <time>2018-08-12T14:40:52Z</time>
      </trkpt>
      <trkpt lat="43.198019" lon="5.639546">
        <ele>86.203850</ele>
        <time>2018-08-12T14:41:07Z</time>
      </trkpt>
      <trkpt lat="43.200381" lon="5.634805">
        <ele>80.261780</ele>
        <time>2018-08-12T14:41:22Z</time>
      </trkpt>
      <trkpt lat="43.204679" lon="5.632300">
        <ele>78.902573</ele>
        <time>2018-08-12T14:41:38Z</time>
      </trkpt>
      <trkpt lat="43.208783" lon="5.629194">
        <ele>64.237762</ele>
        <time>2018-08-12T14:41:54Z</time>
      </trkpt>
      <trkpt lat="43.209926" lon="5.623143">
        <ele>72.649994</ele>
        <time>2018-08-12T14:42:10Z</time>
      </trkpt>
      <trkpt lat="43.208168" lon="5.617118">
        <ele>84.289894</ele>
        <time>2018-08-12T14:42:26Z</time>
      </trkpt>
      <trkpt lat="43.206145" lon="5.611195">
        <ele>82.299416</ele>
        <time>2018-08-12T14:42:42Z</time>
      </trkpt>
      <trkpt lat="43.204158" lon="5.605264">
        <ele>86.416908</ele>
        <time>2018-08-12T14:42:58Z</time>
      </trkpt>
      <trkpt lat="43.203344" lon="5.599423">
        <ele>97.397209</ele>
        <time>2018-08-12T14:43:13Z</time>
      </trkpt>
      <trkpt lat="43.203897" lon="5.594088">
        <ele>122.341049</ele>
        <time>2018-08-12T14:43:29Z</time>
      </trkpt>
      <trkpt lat="43.205099" lon="5.591280">
        <ele>130.802765</ele>
        <time>2018-08-12T14:43:45Z</time>
      </trkpt>
      <trkpt lat="43.205208" lon="5.590980">
        <ele>132.081284</ele>
        <time>2018-08-12T14:44:00Z</time>
      </trkpt>
      <trkpt lat="43.205327" lon="5.590704">
        <ele>132.768585</ele>
        <time>2018-08-12T14:44:44Z</time>
      </trkpt>
      <trkpt lat="43.206680" lon="5.587582">
        <ele>132.102173</ele>
        <time>2018-08-12T14:45:00Z</time>
      </trkpt>
      <trkpt lat="43.209705" lon="5.584113">
        <ele>154.805038</ele>
        <time>2018-08-12T14:45:15Z</time>
      </trkpt>
      <trkpt lat="43.214085" lon="5.582189">
        <ele>173.716019</ele>
        <time>2018-08-12T14:45:31Z</time>
      </trkpt>
      <trkpt lat="43.218305" lon="5.581565">
        <ele>199.174042</ele>
        <time>2018-08-12T14:45:46Z</time>
      </trkpt>
      <trkpt lat="43.222107" lon="5.581465">
        <ele>215.459991</ele>
        <time>2018-08-12T14:46:01Z</time>
      </trkpt>
      <trkpt lat="43.223880" lon="5.583716">
        <ele>229.629181</ele>
        <time>2018-08-12T14:46:17Z</time>
      </trkpt>
      <trkpt lat="43.224081" lon="5.582877">
        <ele>221.490372</ele>
        <time>2018-08-12T14:46:33Z</time>
      </trkpt>
      <trkpt lat="43.223096" lon="5.580698">
        <ele>212.010345</ele>
        <time>2018-08-12T14:46:49Z</time>
      </trkpt>
      <trkpt lat="43.222200" lon="5.579927">
        <ele>206.724121</ele>
        <time>2018-08-12T14:47:04Z</time>
      </trkpt>
      <trkpt lat="43.223072" lon="5.578954">
        <ele>204.144318</ele>
        <time>2018-08-12T14:47:20Z</time>
      </trkpt>
      <trkpt lat="43.222219" lon="5.576720">
        <ele>196.071915</ele>
        <time>2018-08-12T14:47:36Z</time>
      </trkpt>
      <trkpt lat="43.222619" lon="5.574097">
        <ele>179.271042</ele>
        <time>2018-08-12T14:47:51Z</time>
      </trkpt>
      <trkpt lat="43.222560" lon="5.571358">
        <ele>166.588379</ele>
        <time>2018-08-12T14:48:06Z</time>
      </trkpt>
      <trkpt lat="43.221792" lon="5.569079">
        <ele>148.547379</ele>
        <time>2018-08-12T14:48:21Z</time>
      </trkpt>
      <trkpt lat="43.220437" lon="5.567685">
        <ele>138.843048</ele>
        <time>2018-08-12T14:48:36Z</time>
      </trkpt>
      <trkpt lat="43.218858" lon="5.566626">
        <ele>130.193008</ele>
        <time>2018-08-12T14:48:52Z</time>
      </trkpt>
      <trkpt lat="43.218786" lon="5.564212">
        <ele>116.745911</ele>
        <time>2018-08-12T14:49:07Z</time>
      </trkpt>
      <trkpt lat="43.218170" lon="5.561706">
        <ele>104.141754</ele>
        <time>2018-08-12T14:49:23Z</time>
      </trkpt>
      <trkpt lat="43.217490" lon="5.559793">
        <ele>93.939468</ele>
        <time>2018-08-12T14:49:39Z</time>
      </trkpt>
      <trkpt lat="43.216656" lon="5.557805">
        <ele>85.753609</ele>
        <time>2018-08-12T14:49:54Z</time>
      </trkpt>
      <trkpt lat="43.215940" lon="5.555436">
        <ele>71.069809</ele>
        <time>2018-08-12T14:50:10Z</time>
      </trkpt>
      <trkpt lat="43.215588" lon="5.552852">
        <ele>61.611534</ele>
        <time>2018-08-12T14:50:26Z</time>
      </trkpt>
      <trkpt lat="43.216077" lon="5.550706">
        <ele>48.799858</ele>
        <time>2018-08-12T14:50:42Z</time>
      </trkpt>
      <trkpt lat="43.216874" lon="5.550372">
        <ele>42.596741</ele>
        <time>2018-08-12T14:50:58Z</time>
      </trkpt>
      <trkpt lat="43.217370" lon="5.549149">
        <ele>42.879532</ele>
        <time>2018-08-12T14:51:14Z</time>
      </trkpt>
      <trkpt lat="43.216343" lon="5.548027">
        <ele>31.710258</ele>
        <time>2018-08-12T14:51:30Z</time>
      </trkpt>
      <trkpt lat="43.215674" lon="5.547058">
        <ele>27.227636</ele>
        <time>2018-08-12T14:51:45Z</time>
      </trkpt>
      <trkpt lat="43.215505" lon="5.545215">
        <ele>27.858450</ele>
        <time>2018-08-12T14:52:01Z</time>
      </trkpt>
      <trkpt lat="43.215317" lon="5.543742">
        <ele>21.775707</ele>
        <time>2018-08-12T14:52:17Z</time>
      </trkpt>
      <trkpt lat="43.216250" lon="5.542886">
        <ele>28.168583</ele>
        <time>2018-08-12T14:52:32Z</time>
      </trkpt>
      <trkpt lat="43.217499" lon="5.542170">
        <ele>31.820179</ele>
        <time>2018-08-12T14:52:48Z</time>
      </trkpt>
      <trkpt lat="43.217820" lon="5.541001">
        <ele>31.115791</ele>
        <time>2018-08-12T14:53:04Z</time>
      </trkpt>
      <trkpt lat="43.218313" lon="5.539572">
        <ele>34.794209</ele>
        <time>2018-08-12T14:53:20Z</time>
      </trkpt>
      <trkpt lat="43.217897" lon="5.539029">
        <ele>32.396255</ele>
        <time>2018-08-12T14:53:36Z</time>
      </trkpt>
      <trkpt lat="43.217115" lon="5.538522">
        <ele>26.577658</ele>
        <time>2018-08-12T14:53:51Z</time>
      </trkpt>
      <trkpt lat="43.216320" lon="5.538352">
        <ele>19.872929</ele>
        <time>2018-08-12T14:54:06Z</time>
      </trkpt>
      <trkpt lat="43.216067" lon="5.538622">
        <ele>17.859701</ele>
        <time>2018-08-12T14:54:23Z</time>
      </trkpt>
      <trkpt lat="43.215802" lon="5.538812">
        <ele>16.273987</ele>
        <time>2018-08-12T14:54:39Z</time>
      </trkpt>
      <trkpt lat="43.215171" lon="5.539324">
        <ele>12.703426</ele>
        <time>2018-08-12T14:54:54Z</time>
      </trkpt>
      <trkpt lat="43.214917" lon="5.539532">
        <ele>11.699799</ele>
        <time>2018-08-12T14:55:09Z</time>
      </trkpt>
      <trkpt lat="43.214795" lon="5.539624">
        <ele>11.263092</ele>
        <time>2018-08-12T14:55:33Z</time>
      </trkpt>
      <trkpt lat="43.214855" lon="5.539802">
        <ele>11.477783</ele>
        <time>2018-08-12T14:56:20Z</time>
      </trkpt>
      <trkpt lat="43.214779" lon="5.539644">
        <ele>11.204407</ele>
        <time>2018-08-12T15:02:29Z</time>
      </trkpt>
      <trkpt lat="43.214649" lon="5.539582">
        <ele>10.734741</ele>
        <time>2018-08-12T15:02:44Z</time>
      </trkpt>
      <trkpt lat="43.214568" lon="5.539395">
        <ele>10.444977</ele>
        <time>2018-08-12T15:03:00Z</time>
      </trkpt>
      <trkpt lat="43.214468" lon="5.539236">
        <ele>10.085541</ele>
        <time>2018-08-12T15:03:15Z</time>
      </trkpt>
      <trkpt lat="43.214382" lon="5.539034">
        <ele>9.581633</ele>
        <time>2018-08-12T15:03:31Z</time>
      </trkpt>
      <trkpt lat="43.214352" lon="5.538795">
        <ele>9.073874</ele>
        <time>2018-08-12T15:03:47Z</time>
      </trkpt>
      <trkpt lat="43.214326" lon="5.538613">
        <ele>8.626040</ele>
        <time>2018-08-12T15:04:33Z</time>
      </trkpt>
      <trkpt lat="43.214230" lon="5.538482">
        <ele>7.769938</ele>
        <time>2018-08-12T15:04:57Z</time>
      </trkpt>
      <trkpt lat="43.214115" lon="5.538603">
        <ele>7.625394</ele>
        <time>2018-08-12T15:05:27Z</time>
      </trkpt>
      <trkpt lat="43.213949" lon="5.538667">
        <ele>7.748092</ele>
        <time>2018-08-12T15:05:43Z</time>
      </trkpt>
      <trkpt lat="43.213697" lon="5.538680">
        <ele>7.738591</ele>
        <time>2018-08-12T15:06:05Z</time>
      </trkpt>
      <trkpt lat="43.214179" lon="5.538306">
        <ele>6.992493</ele>
        <time>2018-08-12T15:06:22Z</time>
      </trkpt>
      <trkpt lat="43.214024" lon="5.538238">
        <ele>6.464366</ele>
        <time>2018-08-12T15:06:38Z</time>
      </trkpt>
      <trkpt lat="43.213913" lon="5.538119">
        <ele>5.843870</ele>
        <time>2018-08-12T15:07:10Z</time>
      </trkpt>
      <trkpt lat="43.213796" lon="5.537978">
        <ele>5.087383</ele>
        <time>2018-08-12T15:07:25Z</time>
      </trkpt>
      <trkpt lat="43.213697" lon="5.537831">
        <ele>4.287508</ele>
        <time>2018-08-12T15:07:42Z</time>
      </trkpt>
      <trkpt lat="43.213603" lon="5.537637">
        <ele>3.250206</ele>
        <time>2018-08-12T15:07:57Z</time>
      </trkpt>
      <trkpt lat="43.213474" lon="5.537528">
        <ele>2.468715</ele>
        <time>2018-08-12T15:08:12Z</time>
      </trkpt>
      <trkpt lat="43.213350" lon="5.537452">
        <ele>1.981526</ele>
        <time>2018-08-12T15:08:31Z</time>
      </trkpt>
      <trkpt lat="43.213464" lon="5.537563">
        <ele>2.604465</ele>
        <time>2018-08-12T15:10:29Z</time>
      </trkpt>
      <trkpt lat="43.213577" lon="5.537670">
        <ele>3.339382</ele>
        <time>2018-08-12T15:10:44Z</time>
      </trkpt>
      <trkpt lat="43.213676" lon="5.537819">
        <ele>4.196709</ele>
        <time>2018-08-12T15:10:59Z</time>
      </trkpt>
      <trkpt lat="43.213760" lon="5.537966">
        <ele>4.973055</ele>
        <time>2018-08-12T15:11:15Z</time>
      </trkpt>
      <trkpt lat="43.213834" lon="5.538140">
        <ele>5.810881</ele>
        <time>2018-08-12T15:11:32Z</time>
      </trkpt>
      <trkpt lat="43.213957" lon="5.538268">
        <ele>6.494877</ele>
        <time>2018-08-12T15:11:47Z</time>
      </trkpt>
      <trkpt lat="43.214087" lon="5.538336">
        <ele>6.912527</ele>
        <time>2018-08-12T15:12:09Z</time>
      </trkpt>
      <trkpt lat="43.214224" lon="5.538367">
        <ele>7.488798</ele>
        <time>2018-08-12T15:24:33Z</time>
      </trkpt>
      <trkpt lat="43.214170" lon="5.538162">
        <ele>6.407288</ele>
        <time>2018-08-12T15:26:56Z</time>
      </trkpt>
      <trkpt lat="43.214216" lon="5.538340">
        <ele>7.372531</ele>
        <time>2018-08-12T15:36:13Z</time>
      </trkpt>
      <trkpt lat="43.214234" lon="5.538579">
        <ele>8.003863</ele>
        <time>2018-08-12T15:36:28Z</time>
      </trkpt>
      <trkpt lat="43.214316" lon="5.538730">
        <ele>8.771620</ele>
        <time>2018-08-12T15:36:45Z</time>
      </trkpt>
      <trkpt lat="43.214427" lon="5.538876">
        <ele>9.565219</ele>
        <time>2018-08-12T15:37:00Z</time>
      </trkpt>
      <trkpt lat="43.214488" lon="5.539092">
        <ele>10.082059</ele>
        <time>2018-08-12T15:37:16Z</time>
      </trkpt>
      <trkpt lat="43.214513" lon="5.539275">
        <ele>10.246124</ele>
        <time>2018-08-12T15:37:32Z</time>
      </trkpt>
      <trkpt lat="43.214618" lon="5.539392">
        <ele>10.625244</ele>
        <time>2018-08-12T15:37:48Z</time>
      </trkpt>
      <trkpt lat="43.214710" lon="5.539532">
        <ele>10.957306</ele>
        <time>2018-08-12T15:38:03Z</time>
      </trkpt>
      <trkpt lat="43.214806" lon="5.539668">
        <ele>11.300720</ele>
        <time>2018-08-12T15:38:35Z</time>
      </trkpt>
      <trkpt lat="43.214919" lon="5.539798">
        <ele>11.710052</ele>
        <time>2018-08-12T15:45:04Z</time>
      </trkpt>
      <trkpt lat="43.215053" lon="5.540193">
        <ele>12.092300</ele>
        <time>2018-08-12T15:45:19Z</time>
      </trkpt>
      <trkpt lat="43.215060" lon="5.541369">
        <ele>13.595349</ele>
        <time>2018-08-12T15:45:34Z</time>
      </trkpt>
      <trkpt lat="43.215134" lon="5.542865">
        <ele>17.085823</ele>
        <time>2018-08-12T15:45:50Z</time>
      </trkpt>
      <trkpt lat="43.215200" lon="5.543917">
        <ele>20.533745</ele>
        <time>2018-08-12T15:46:06Z</time>
      </trkpt>
      <trkpt lat="43.216150" lon="5.542943">
        <ele>27.421520</ele>
        <time>2018-08-12T15:46:22Z</time>
      </trkpt>
      <trkpt lat="43.217378" lon="5.542293">
        <ele>31.916765</ele>
        <time>2018-08-12T15:46:37Z</time>
      </trkpt>
      <trkpt lat="43.217549" lon="5.541599">
        <ele>27.634792</ele>
        <time>2018-08-12T15:46:53Z</time>
      </trkpt>
      <trkpt lat="43.218187" lon="5.540540">
        <ele>35.086704</ele>
        <time>2018-08-12T15:47:09Z</time>
      </trkpt>
      <trkpt lat="43.219344" lon="5.541439">
        <ele>52.007412</ele>
        <time>2018-08-12T15:47:25Z</time>
      </trkpt>
      <trkpt lat="43.220448" lon="5.542697">
        <ele>69.065155</ele>
        <time>2018-08-12T15:47:41Z</time>
      </trkpt>
      <trkpt lat="43.221680" lon="5.543430">
        <ele>79.185013</ele>
        <time>2018-08-12T15:47:57Z</time>
      </trkpt>
      <trkpt lat="43.221734" lon="5.543650">
        <ele>81.956200</ele>
        <time>2018-08-12T15:48:20Z</time>
      </trkpt>
      <trkpt lat="43.221857" lon="5.543755">
        <ele>83.795219</ele>
        <time>2018-08-12T15:48:39Z</time>
      </trkpt>
      <trkpt lat="43.223059" lon="5.544189">
        <ele>89.520142</ele>
        <time>2018-08-12T15:48:55Z</time>
      </trkpt>
      <trkpt lat="43.223724" lon="5.544412">
        <ele>91.388191</ele>
        <time>2018-08-12T15:49:11Z</time>
      </trkpt>
      <trkpt lat="43.224359" lon="5.543123">
        <ele>94.214432</ele>
        <time>2018-08-12T15:49:27Z</time>
      </trkpt>
      <trkpt lat="43.225514" lon="5.541569">
        <ele>92.630524</ele>
        <time>2018-08-12T15:49:42Z</time>
      </trkpt>
      <trkpt lat="43.226411" lon="5.539690">
        <ele>94.222397</ele>
        <time>2018-08-12T15:49:57Z</time>
      </trkpt>
      <trkpt lat="43.226413" lon="5.538471">
        <ele>107.500435</ele>
        <time>2018-08-12T15:50:13Z</time>
      </trkpt>
      <trkpt lat="43.225961" lon="5.537097">
        <ele>113.033524</ele>
        <time>2018-08-12T15:50:28Z</time>
      </trkpt>
      <trkpt lat="43.225020" lon="5.534429">
        <ele>131.557663</ele>
        <time>2018-08-12T15:50:44Z</time>
      </trkpt>
      <trkpt lat="43.225263" lon="5.532387">
        <ele>134.776978</ele>
        <time>2018-08-12T15:50:59Z</time>
      </trkpt>
      <trkpt lat="43.227034" lon="5.531398">
        <ele>154.561615</ele>
        <time>2018-08-12T15:51:15Z</time>
      </trkpt>
      <trkpt lat="43.229218" lon="5.528817">
        <ele>179.440338</ele>
        <time>2018-08-12T15:51:31Z</time>
      </trkpt>
      <trkpt lat="43.230283" lon="5.525222">
        <ele>205.710419</ele>
        <time>2018-08-12T15:51:46Z</time>
      </trkpt>
      <trkpt lat="43.230731" lon="5.521266">
        <ele>215.615784</ele>
        <time>2018-08-12T15:52:02Z</time>
      </trkpt>
      <trkpt lat="43.232236" lon="5.518000">
        <ele>233.653412</ele>
        <time>2018-08-12T15:52:17Z</time>
      </trkpt>
      <trkpt lat="43.232939" lon="5.514391">
        <ele>237.299011</ele>
        <time>2018-08-12T15:52:33Z</time>
      </trkpt>
      <trkpt lat="43.234890" lon="5.512051">
        <ele>229.060669</ele>
        <time>2018-08-12T15:52:48Z</time>
      </trkpt>
      <trkpt lat="43.236076" lon="5.508427">
        <ele>227.617203</ele>
        <time>2018-08-12T15:53:04Z</time>
      </trkpt>
      <trkpt lat="43.237053" lon="5.504363">
        <ele>230.736847</ele>
        <time>2018-08-12T15:53:20Z</time>
      </trkpt>
      <trkpt lat="43.237256" lon="5.501038">
        <ele>235.822937</ele>
        <time>2018-08-12T15:53:36Z</time>
      </trkpt>
      <trkpt lat="43.237301" lon="5.499298">
        <ele>237.403778</ele>
        <time>2018-08-12T15:53:51Z</time>
      </trkpt>
      <trkpt lat="43.237428" lon="5.497495">
        <ele>241.347183</ele>
        <time>2018-08-12T15:54:07Z</time>
      </trkpt>
      <trkpt lat="43.237725" lon="5.494399">
        <ele>246.072891</ele>
        <time>2018-08-12T15:54:23Z</time>
      </trkpt>
      <trkpt lat="43.238234" lon="5.491209">
        <ele>251.455017</ele>
        <time>2018-08-12T15:54:38Z</time>
      </trkpt>
      <trkpt lat="43.238893" lon="5.487619">
        <ele>260.591766</ele>
        <time>2018-08-12T15:54:54Z</time>
      </trkpt>
      <trkpt lat="43.239012" lon="5.483930">
        <ele>265.902588</ele>
        <time>2018-08-12T15:55:10Z</time>
      </trkpt>
      <trkpt lat="43.238784" lon="5.480167">
        <ele>251.750275</ele>
        <time>2018-08-12T15:55:25Z</time>
      </trkpt>
      <trkpt lat="43.239023" lon="5.476335">
        <ele>265.416382</ele>
        <time>2018-08-12T15:55:40Z</time>
      </trkpt>
      <trkpt lat="43.238927" lon="5.472244">
        <ele>270.804810</ele>
        <time>2018-08-12T15:55:56Z</time>
      </trkpt>
      <trkpt lat="43.238478" lon="5.468322">
        <ele>286.849548</ele>
        <time>2018-08-12T15:56:12Z</time>
      </trkpt>
      <trkpt lat="43.239734" lon="5.465517">
        <ele>300.716492</ele>
        <time>2018-08-12T15:56:27Z</time>
      </trkpt>
      <trkpt lat="43.239574" lon="5.462141">
        <ele>311.742188</ele>
        <time>2018-08-12T15:56:43Z</time>
      </trkpt>
      <trkpt lat="43.240868" lon="5.459782">
        <ele>327.868469</ele>
        <time>2018-08-12T15:56:59Z</time>
      </trkpt>
      <trkpt lat="43.240267" lon="5.457632">
        <ele>329.559448</ele>
        <time>2018-08-12T15:57:14Z</time>
      </trkpt>
      <trkpt lat="43.240106" lon="5.457004">
        <ele>327.381195</ele>
        <time>2018-08-12T15:57:30Z</time>
      </trkpt>
      <trkpt lat="43.240257" lon="5.456947">
        <ele>329.286682</ele>
        <time>2018-08-12T15:57:59Z</time>
      </trkpt>
      <trkpt lat="43.240119" lon="5.456906">
        <ele>327.515503</ele>
        <time>2018-08-12T16:00:38Z</time>
      </trkpt>
      <trkpt lat="43.239956" lon="5.456942">
        <ele>325.698425</ele>
        <time>2018-08-12T16:00:53Z</time>
      </trkpt>
      <trkpt lat="43.239820" lon="5.457000">
        <ele>324.832275</ele>
        <time>2018-08-12T16:01:09Z</time>
      </trkpt>
      <trkpt lat="43.239666" lon="5.457011">
        <ele>323.857361</ele>
        <time>2018-08-12T16:01:24Z</time>
      </trkpt>
      <trkpt lat="43.239521" lon="5.456936">
        <ele>322.721008</ele>
        <time>2018-08-12T16:01:40Z</time>
      </trkpt>
      <trkpt lat="43.239419" lon="5.456814">
        <ele>321.610413</ele>
        <time>2018-08-12T16:01:55Z</time>
      </trkpt>
      <trkpt lat="43.239301" lon="5.456668">
        <ele>320.135437</ele>
        <time>2018-08-12T16:02:11Z</time>
      </trkpt>
      <trkpt lat="43.239209" lon="5.456525">
        <ele>317.246002</ele>
        <time>2018-08-12T16:02:26Z</time>
      </trkpt>
      <trkpt lat="43.239298" lon="5.456668">
        <ele>320.111328</ele>
        <time>2018-08-12T16:14:26Z</time>
      </trkpt>
      <trkpt lat="43.239391" lon="5.456804">
        <ele>321.364807</ele>
        <time>2018-08-12T16:14:43Z</time>
      </trkpt>
      <trkpt lat="43.239502" lon="5.456947">
        <ele>322.622223</ele>
        <time>2018-08-12T16:14:58Z</time>
      </trkpt>
      <trkpt lat="43.239651" lon="5.456989">
        <ele>323.716797</ele>
        <time>2018-08-12T16:15:13Z</time>
      </trkpt>
      <trkpt lat="43.239812" lon="5.457003">
        <ele>324.782898</ele>
        <time>2018-08-12T16:15:29Z</time>
      </trkpt>
      <trkpt lat="43.239958" lon="5.456935">
        <ele>325.710541</ele>
        <time>2018-08-12T16:15:45Z</time>
      </trkpt>
      <trkpt lat="43.240099" lon="5.456951">
        <ele>327.269348</ele>
        <time>2018-08-12T16:16:02Z</time>
      </trkpt>
      <trkpt lat="43.240230" lon="5.456901">
        <ele>328.913788</ele>
        <time>2018-08-12T16:16:19Z</time>
      </trkpt>
      <trkpt lat="43.240299" lon="5.457112">
        <ele>329.970398</ele>
        <time>2018-08-12T16:19:45Z</time>
      </trkpt>
      <trkpt lat="43.240272" lon="5.457673">
        <ele>329.556671</ele>
        <time>2018-08-12T16:20:53Z</time>
      </trkpt>
      <trkpt lat="43.239921" lon="5.455779">
        <ele>321.392731</ele>
        <time>2018-08-12T16:21:09Z</time>
      </trkpt>
      <trkpt lat="43.240042" lon="5.452661">
        <ele>304.966217</ele>
        <time>2018-08-12T16:21:25Z</time>
      </trkpt>
      <trkpt lat="43.240802" lon="5.452367">
        <ele>293.861847</ele>
        <time>2018-08-12T16:21:40Z</time>
      </trkpt>
      <trkpt lat="43.242556" lon="5.452976">
        <ele>292.774414</ele>
        <time>2018-08-12T16:21:55Z</time>
      </trkpt>
      <trkpt lat="43.242432" lon="5.450016">
        <ele>278.488464</ele>
        <time>2018-08-12T16:22:11Z</time>
      </trkpt>
      <trkpt lat="43.242531" lon="5.447880">
        <ele>264.929688</ele>
        <time>2018-08-12T16:22:27Z</time>
      </trkpt>
      <trkpt lat="43.242938" lon="5.445858">
        <ele>242.792343</ele>
        <time>2018-08-12T16:22:43Z</time>
      </trkpt>
      <trkpt lat="43.244347" lon="5.445537">
        <ele>233.808868</ele>
        <time>2018-08-12T16:22:58Z</time>
      </trkpt>
      <trkpt lat="43.246151" lon="5.445805">
        <ele>209.834137</ele>
        <time>2018-08-12T16:23:14Z</time>
      </trkpt>
      <trkpt lat="43.246646" lon="5.447900">
        <ele>213.605591</ele>
        <time>2018-08-12T16:23:29Z</time>
      </trkpt>
      <trkpt lat="43.246950" lon="5.450152">
        <ele>201.041016</ele>
        <time>2018-08-12T16:23:44Z</time>
      </trkpt>
      <trkpt lat="43.246907" lon="5.452882">
        <ele>188.861359</ele>
        <time>2018-08-12T16:23:59Z</time>
      </trkpt>
      <trkpt lat="43.246581" lon="5.455562">
        <ele>178.690887</ele>
        <time>2018-08-12T16:24:15Z</time>
      </trkpt>
      <trkpt lat="43.247555" lon="5.455391">
        <ele>170.341766</ele>
        <time>2018-08-12T16:24:31Z</time>
      </trkpt>
      <trkpt lat="43.248558" lon="5.453699">
        <ele>160.498779</ele>
        <time>2018-08-12T16:24:46Z</time>
      </trkpt>
      <trkpt lat="43.249108" lon="5.451650">
        <ele>148.888992</ele>
        <time>2018-08-12T16:25:01Z</time>
      </trkpt>
      <trkpt lat="43.249508" lon="5.449370">
        <ele>144.103134</ele>
        <time>2018-08-12T16:25:17Z</time>
      </trkpt>
      <trkpt lat="43.249847" lon="5.446890">
        <ele>138.549683</ele>
        <time>2018-08-12T16:25:33Z</time>
      </trkpt>
      <trkpt lat="43.249504" lon="5.444411">
        <ele>125.935776</ele>
        <time>2018-08-12T16:25:48Z</time>
      </trkpt>
      <trkpt lat="43.248981" lon="5.442205">
        <ele>117.253105</ele>
        <time>2018-08-12T16:26:04Z</time>
      </trkpt>
      <trkpt lat="43.248903" lon="5.442043">
        <ele>117.047333</ele>
        <time>2018-08-12T16:26:21Z</time>
      </trkpt>
      <trkpt lat="43.248692" lon="5.439324">
        <ele>114.410843</ele>
        <time>2018-08-12T16:26:37Z</time>
      </trkpt>
      <trkpt lat="43.248212" lon="5.436410">
        <ele>102.171669</ele>
        <time>2018-08-12T16:26:52Z</time>
      </trkpt>
      <trkpt lat="43.247011" lon="5.435093">
        <ele>94.403992</ele>
        <time>2018-08-12T16:27:08Z</time>
      </trkpt>
      <trkpt lat="43.246621" lon="5.434519">
        <ele>93.930061</ele>
        <time>2018-08-12T16:27:23Z</time>
      </trkpt>
      <trkpt lat="43.246367" lon="5.432484">
        <ele>94.007172</ele>
        <time>2018-08-12T16:27:39Z</time>
      </trkpt>
      <trkpt lat="43.245963" lon="5.430214">
        <ele>93.222733</ele>
        <time>2018-08-12T16:27:55Z</time>
      </trkpt>
      <trkpt lat="43.245190" lon="5.428357">
        <ele>86.395035</ele>
        <time>2018-08-12T16:28:10Z</time>
      </trkpt>
      <trkpt lat="43.245160" lon="5.427038">
        <ele>83.945267</ele>
        <time>2018-08-12T16:28:26Z</time>
      </trkpt>
      <trkpt lat="43.246237" lon="5.425129">
        <ele>79.839989</ele>
        <time>2018-08-12T16:28:42Z</time>
      </trkpt>
      <trkpt lat="43.247187" lon="5.424345">
        <ele>83.246330</ele>
        <time>2018-08-12T16:28:58Z</time>
      </trkpt>
      <trkpt lat="43.248710" lon="5.423273">
        <ele>83.481308</ele>
        <time>2018-08-12T16:29:13Z</time>
      </trkpt>
      <trkpt lat="43.249395" lon="5.422700">
        <ele>88.281166</ele>
        <time>2018-08-12T16:29:29Z</time>
      </trkpt>
      <trkpt lat="43.250662" lon="5.422093">
        <ele>90.798767</ele>
        <time>2018-08-12T16:29:44Z</time>
      </trkpt>
      <trkpt lat="43.252118" lon="5.421956">
        <ele>76.007874</ele>
        <time>2018-08-12T16:30:00Z</time>
      </trkpt>
      <trkpt lat="43.252871" lon="5.421905">
        <ele>75.022827</ele>
        <time>2018-08-12T16:30:15Z</time>
      </trkpt>
      <trkpt lat="43.253733" lon="5.421332">
        <ele>74.815186</ele>
        <time>2018-08-12T16:30:31Z</time>
      </trkpt>
      <trkpt lat="43.254443" lon="5.420649">
        <ele>76.069633</ele>
        <time>2018-08-12T16:30:47Z</time>
      </trkpt>
      <trkpt lat="43.255920" lon="5.419995">
        <ele>69.786201</ele>
        <time>2018-08-12T16:31:02Z</time>
      </trkpt>
      <trkpt lat="43.257083" lon="5.419077">
        <ele>68.731354</ele>
        <time>2018-08-12T16:31:18Z</time>
      </trkpt>
      <trkpt lat="43.257530" lon="5.418340">
        <ele>65.030571</ele>
        <time>2018-08-12T16:31:34Z</time>
      </trkpt>
      <trkpt lat="43.258712" lon="5.417264">
        <ele>62.368629</ele>
        <time>2018-08-12T16:31:50Z</time>
      </trkpt>
      <trkpt lat="43.259749" lon="5.416253">
        <ele>56.866146</ele>
        <time>2018-08-12T16:32:06Z</time>
      </trkpt>
      <trkpt lat="43.260431" lon="5.415622">
        <ele>54.132591</ele>
        <time>2018-08-12T16:32:21Z</time>
      </trkpt>
      <trkpt lat="43.261545" lon="5.414673">
        <ele>50.932991</ele>
        <time>2018-08-12T16:32:36Z</time>
      </trkpt>
      <trkpt lat="43.262547" lon="5.412960">
        <ele>43.124393</ele>
        <time>2018-08-12T16:32:52Z</time>
      </trkpt>
      <trkpt lat="43.262970" lon="5.411716">
        <ele>39.943420</ele>
        <time>2018-08-12T16:33:07Z</time>
      </trkpt>
      <trkpt lat="43.263847" lon="5.410402">
        <ele>32.647739</ele>
        <time>2018-08-12T16:33:23Z</time>
      </trkpt>
      <trkpt lat="43.264424" lon="5.409806">
        <ele>30.530407</ele>
        <time>2018-08-12T16:33:38Z</time>
      </trkpt>
      <trkpt lat="43.265623" lon="5.408692">
        <ele>30.000000</ele>
        <time>2018-08-12T16:33:54Z</time>
      </trkpt>
      <trkpt lat="43.267232" lon="5.407933">
        <ele>28.720531</ele>
        <time>2018-08-12T16:34:09Z</time>
      </trkpt>
      <trkpt lat="43.268134" lon="5.406731">
        <ele>26.654591</ele>
        <time>2018-08-12T16:34:25Z</time>
      </trkpt>
      <trkpt lat="43.268327" lon="5.405729">
        <ele>23.490072</ele>
        <time>2018-08-12T16:34:41Z</time>
      </trkpt>
      <trkpt lat="43.268603" lon="5.404274">
        <ele>17.653790</ele>
        <time>2018-08-12T16:34:57Z</time>
      </trkpt>
      <trkpt lat="43.268646" lon="5.404026">
        <ele>17.016701</ele>
        <time>2018-08-12T16:35:44Z</time>
      </trkpt>
      <trkpt lat="43.269643" lon="5.402863">
        <ele>14.584747</ele>
        <time>2018-08-12T16:36:00Z</time>
      </trkpt>
      <trkpt lat="43.271359" lon="5.401920">
        <ele>13.357254</ele>
        <time>2018-08-12T16:36:16Z</time>
      </trkpt>
      <trkpt lat="43.272981" lon="5.400849">
        <ele>16.867928</ele>
        <time>2018-08-12T16:36:32Z</time>
      </trkpt>
      <trkpt lat="43.274600" lon="5.399903">
        <ele>18.207596</ele>
        <time>2018-08-12T16:36:47Z</time>
      </trkpt>
      <trkpt lat="43.276082" lon="5.399484">
        <ele>18.030701</ele>
        <time>2018-08-12T16:37:02Z</time>
      </trkpt>
      <trkpt lat="43.276759" lon="5.399280">
        <ele>19.095972</ele>
        <time>2018-08-12T16:37:18Z</time>
      </trkpt>
      <trkpt lat="43.276908" lon="5.399230">
        <ele>19.267818</ele>
        <time>2018-08-12T16:37:50Z</time>
      </trkpt>
      <trkpt lat="43.278260" lon="5.399236">
        <ele>19.080978</ele>
        <time>2018-08-12T16:38:06Z</time>
      </trkpt>
      <trkpt lat="43.279690" lon="5.399344">
        <ele>22.213196</ele>
        <time>2018-08-12T16:38:21Z</time>
      </trkpt>
      <trkpt lat="43.281397" lon="5.399495">
        <ele>22.819580</ele>
        <time>2018-08-12T16:38:36Z</time>
      </trkpt>
      <trkpt lat="43.283011" lon="5.399589">
        <ele>24.994354</ele>
        <time>2018-08-12T16:38:52Z</time>
      </trkpt>
      <trkpt lat="43.283317" lon="5.398860">
        <ele>25.020050</ele>
        <time>2018-08-12T16:39:07Z</time>
      </trkpt>
      <trkpt lat="43.282873" lon="5.396787">
        <ele>26.623226</ele>
        <time>2018-08-12T16:39:22Z</time>
      </trkpt>
      <trkpt lat="43.282717" lon="5.394245">
        <ele>26.795044</ele>
        <time>2018-08-12T16:39:37Z</time>
      </trkpt>
      <trkpt lat="43.282741" lon="5.393438">
        <ele>27.382183</ele>
        <time>2018-08-12T16:39:55Z</time>
      </trkpt>
      <trkpt lat="43.282730" lon="5.393234">
        <ele>27.869770</ele>
        <time>2018-08-12T16:40:15Z</time>
      </trkpt>
      <trkpt lat="43.282744" lon="5.393002">
        <ele>29.387892</ele>
        <time>2018-08-12T16:40:50Z</time>
      </trkpt>
      <trkpt lat="43.291222" lon="5.365987">
        <ele>13.548260</ele>
        <time>2018-08-12T16:43:29Z</time>
      </trkpt>
      <trkpt lat="43.293377" lon="5.364955">
        <ele>0.790983</ele>
        <time>2018-08-12T16:43:49Z</time>
      </trkpt>
      <trkpt lat="43.297135" lon="5.363632">
        <ele>16.473913</ele>
        <time>2018-08-12T16:44:18Z</time>
      </trkpt>
      <trkpt lat="43.310401" lon="5.368616">
        <ele>8.255606</ele>
        <time>2018-08-12T16:46:03Z</time>
      </trkpt>
      <trkpt lat="43.312103" lon="5.368262">
        <ele>5.005865</ele>
        <time>2018-08-12T16:46:19Z</time>
      </trkpt>
      <trkpt lat="43.311969" lon="5.367430">
        <ele>4.972674</ele>
        <time>2018-08-12T16:46:38Z</time>
      </trkpt>
      <trkpt lat="43.311933" lon="5.367248">
        <ele>4.558868</ele>
        <time>2018-08-12T16:48:40Z</time>
      </trkpt>
      <trkpt lat="43.310821" lon="5.367194">
        <ele>5.482421</ele>
        <time>2018-08-12T16:48:56Z</time>
      </trkpt>
      <trkpt lat="43.309441" lon="5.366973">
        <ele>6.385633</ele>
        <time>2018-08-12T16:49:11Z</time>
      </trkpt>
      <trkpt lat="43.309366" lon="5.366703">
        <ele>6.922848</ele>
        <time>2018-08-12T16:49:49Z</time>
      </trkpt>
      <trkpt lat="43.307852" lon="5.366158">
        <ele>6.623878</ele>
        <time>2018-08-12T16:50:05Z</time>
      </trkpt>
      <trkpt lat="43.306404" lon="5.365695">
        <ele>11.444458</ele>
        <time>2018-08-12T16:50:20Z</time>
      </trkpt>
      <trkpt lat="43.305764" lon="5.365464">
        <ele>10.845126</ele>
        <time>2018-08-12T16:50:35Z</time>
      </trkpt>
      <trkpt lat="43.305623" lon="5.365463">
        <ele>10.497861</ele>
        <time>2018-08-12T16:50:59Z</time>
      </trkpt>
      <trkpt lat="43.305502" lon="5.365562">
        <ele>10.849747</ele>
        <time>2018-08-12T16:51:34Z</time>
      </trkpt>
      <trkpt lat="43.304180" lon="5.365119">
        <ele>8.435952</ele>
        <time>2018-08-12T16:51:49Z</time>
      </trkpt>
      <trkpt lat="43.303339" lon="5.365102">
        <ele>12.096095</ele>
        <time>2018-08-12T16:52:05Z</time>
      </trkpt>
      <trkpt lat="43.303060" lon="5.366477">
        <ele>16.418762</ele>
        <time>2018-08-12T16:52:20Z</time>
      </trkpt>
      <trkpt lat="43.302729" lon="5.368088">
        <ele>19.818102</ele>
        <time>2018-08-12T16:52:35Z</time>
      </trkpt>
      <trkpt lat="43.302657" lon="5.368591">
        <ele>20.940359</ele>
        <time>2018-08-12T16:52:51Z</time>
      </trkpt>
      <trkpt lat="43.302058" lon="5.369371">
        <ele>23.690708</ele>
        <time>2018-08-12T16:53:07Z</time>
      </trkpt>
      <trkpt lat="43.301758" lon="5.369658">
        <ele>25.337219</ele>
        <time>2018-08-12T16:53:23Z</time>
      </trkpt>
      <trkpt lat="43.301588" lon="5.369810">
        <ele>26.191786</ele>
        <time>2018-08-12T16:53:38Z</time>
      </trkpt>
      <trkpt lat="43.300326" lon="5.370818">
        <ele>28.460121</ele>
        <time>2018-08-12T16:53:54Z</time>
      </trkpt>
      <trkpt lat="43.299333" lon="5.371462">
        <ele>26.030466</ele>
        <time>2018-08-12T16:54:10Z</time>
      </trkpt>
      <trkpt lat="43.298152" lon="5.370836">
        <ele>19.389605</ele>
        <time>2018-08-12T16:54:26Z</time>
      </trkpt>
      <trkpt lat="43.297758" lon="5.371264">
        <ele>14.982513</ele>
        <time>2018-08-12T16:54:41Z</time>
      </trkpt>
      <trkpt lat="43.297021" lon="5.371683">
        <ele>11.197427</ele>
        <time>2018-08-12T16:54:56Z</time>
      </trkpt>
      <trkpt lat="43.296600" lon="5.371837">
        <ele>8.819320</ele>
        <time>2018-08-12T16:55:12Z</time>
      </trkpt>
      <trkpt lat="43.296442" lon="5.371784">
        <ele>7.320327</ele>
        <time>2018-08-12T16:55:27Z</time>
      </trkpt>
      <trkpt lat="43.300017" lon="5.365740">
        <ele>19.007893</ele>
        <time>2018-08-13T13:35:31Z</time>
      </trkpt>
      <trkpt lat="43.300302" lon="5.365826">
        <ele>17.187706</ele>
        <time>2018-08-13T13:35:47Z</time>
      </trkpt>
      <trkpt lat="43.301134" lon="5.366006">
        <ele>14.163953</ele>
        <time>2018-08-13T13:36:03Z</time>
      </trkpt>
      <trkpt lat="43.302320" lon="5.366330">
        <ele>15.822930</ele>
        <time>2018-08-13T13:36:19Z</time>
      </trkpt>
      <trkpt lat="43.302527" lon="5.366350">
        <ele>16.449371</ele>
        <time>2018-08-13T13:36:44Z</time>
      </trkpt>
      <trkpt lat="43.302682" lon="5.366381">
        <ele>16.412201</ele>
        <time>2018-08-13T13:37:01Z</time>
      </trkpt>
      <trkpt lat="43.303596" lon="5.366693">
        <ele>16.390827</ele>
        <time>2018-08-13T13:37:17Z</time>
      </trkpt>
      <trkpt lat="43.303998" lon="5.366817">
        <ele>15.440516</ele>
        <time>2018-08-13T13:37:32Z</time>
      </trkpt>
      <trkpt lat="43.304336" lon="5.366849">
        <ele>14.027139</ele>
        <time>2018-08-13T13:38:23Z</time>
      </trkpt>
      <trkpt lat="43.304809" lon="5.367077">
        <ele>11.523613</ele>
        <time>2018-08-13T13:38:39Z</time>
      </trkpt>
      <trkpt lat="43.304956" lon="5.367150">
        <ele>10.814837</ele>
        <time>2018-08-13T13:38:58Z</time>
      </trkpt>
      <trkpt lat="43.305079" lon="5.367072">
        <ele>10.728821</ele>
        <time>2018-08-13T13:39:39Z</time>
      </trkpt>
      <trkpt lat="43.305849" lon="5.367304">
        <ele>12.029661</ele>
        <time>2018-08-13T13:39:56Z</time>
      </trkpt>
      <trkpt lat="43.305975" lon="5.367431">
        <ele>12.165834</ele>
        <time>2018-08-13T13:40:57Z</time>
      </trkpt>
      <trkpt lat="43.307195" lon="5.367795">
        <ele>12.201652</ele>
        <time>2018-08-13T13:41:13Z</time>
      </trkpt>
      <trkpt lat="43.307494" lon="5.367782">
        <ele>10.393062</ele>
        <time>2018-08-13T13:41:29Z</time>
      </trkpt>
      <trkpt lat="43.307575" lon="5.368145">
        <ele>12.207508</ele>
        <time>2018-08-13T13:41:44Z</time>
      </trkpt>
      <trkpt lat="43.308887" lon="5.368296">
        <ele>11.150101</ele>
        <time>2018-08-13T13:42:00Z</time>
      </trkpt>
      <trkpt lat="43.309803" lon="5.368570">
        <ele>9.699860</ele>
        <time>2018-08-13T13:42:15Z</time>
      </trkpt>
      <trkpt lat="43.311690" lon="5.368613">
        <ele>6.959687</ele>
        <time>2018-08-13T13:42:31Z</time>
      </trkpt>
      <trkpt lat="43.313606" lon="5.367709">
        <ele>6.083284</ele>
        <time>2018-08-13T13:42:47Z</time>
      </trkpt>
      <trkpt lat="43.315214" lon="5.366240">
        <ele>5.982300</ele>
        <time>2018-08-13T13:43:03Z</time>
      </trkpt>
      <trkpt lat="43.316722" lon="5.364482">
        <ele>4.921358</ele>
        <time>2018-08-13T13:43:18Z</time>
      </trkpt>
      <trkpt lat="43.318646" lon="5.363477">
        <ele>6.310904</ele>
        <time>2018-08-13T13:43:34Z</time>
      </trkpt>
      <trkpt lat="43.320600" lon="5.364250">
        <ele>6.215541</ele>
        <time>2018-08-13T13:43:49Z</time>
      </trkpt>
      <trkpt lat="43.322567" lon="5.364049">
        <ele>8.555000</ele>
        <time>2018-08-13T13:44:05Z</time>
      </trkpt>
      <trkpt lat="43.324357" lon="5.362378">
        <ele>10.290878</ele>
        <time>2018-08-13T13:44:21Z</time>
      </trkpt>
      <trkpt lat="43.326264" lon="5.360063">
        <ele>12.589417</ele>
        <time>2018-08-13T13:44:36Z</time>
      </trkpt>
      <trkpt lat="43.328399" lon="5.357068">
        <ele>14.029644</ele>
        <time>2018-08-13T13:44:52Z</time>
      </trkpt>
      <trkpt lat="43.331117" lon="5.354484">
        <ele>8.614929</ele>
        <time>2018-08-13T13:45:07Z</time>
      </trkpt>
      <trkpt lat="43.334692" lon="5.354016">
        <ele>8.871628</ele>
        <time>2018-08-13T13:45:23Z</time>
      </trkpt>
      <trkpt lat="43.336757" lon="5.350792">
        <ele>11.552037</ele>
        <time>2018-08-13T13:45:38Z</time>
      </trkpt>
      <trkpt lat="43.339805" lon="5.348527">
        <ele>7.918625</ele>
        <time>2018-08-13T13:45:54Z</time>
      </trkpt>
      <trkpt lat="43.343403" lon="5.347450">
        <ele>8.536820</ele>
        <time>2018-08-13T13:46:10Z</time>
      </trkpt>
      <trkpt lat="43.346634" lon="5.345275">
        <ele>7.572144</ele>
        <time>2018-08-13T13:46:25Z</time>
      </trkpt>
      <trkpt lat="43.350043" lon="5.346646">
        <ele>22.786697</ele>
        <time>2018-08-13T13:46:41Z</time>
      </trkpt>
      <trkpt lat="43.352912" lon="5.348544">
        <ele>33.613029</ele>
        <time>2018-08-13T13:46:57Z</time>
      </trkpt>
      <trkpt lat="43.355981" lon="5.346886">
        <ele>40.568844</ele>
        <time>2018-08-13T13:47:12Z</time>
      </trkpt>
      <trkpt lat="43.358942" lon="5.344276">
        <ele>48.518234</ele>
        <time>2018-08-13T13:47:28Z</time>
      </trkpt>
      <trkpt lat="43.361692" lon="5.342314">
        <ele>52.684277</ele>
        <time>2018-08-13T13:47:44Z</time>
      </trkpt>
      <trkpt lat="43.364679" lon="5.339804">
        <ele>65.681953</ele>
        <time>2018-08-13T13:48:00Z</time>
      </trkpt>
      <trkpt lat="43.366139" lon="5.335629">
        <ele>77.424652</ele>
        <time>2018-08-13T13:48:16Z</time>
      </trkpt>
      <trkpt lat="43.366498" lon="5.330874">
        <ele>97.858490</ele>
        <time>2018-08-13T13:48:32Z</time>
      </trkpt>
      <trkpt lat="43.368265" lon="5.326615">
        <ele>123.376495</ele>
        <time>2018-08-13T13:48:47Z</time>
      </trkpt>
      <trkpt lat="43.370334" lon="5.322479">
        <ele>146.843018</ele>
        <time>2018-08-13T13:49:02Z</time>
      </trkpt>
      <trkpt lat="43.373851" lon="5.319864">
        <ele>159.111740</ele>
        <time>2018-08-13T13:49:18Z</time>
      </trkpt>
      <trkpt lat="43.377610" lon="5.317963">
        <ele>180.192413</ele>
        <time>2018-08-13T13:49:33Z</time>
      </trkpt>
      <trkpt lat="43.381534" lon="5.315263">
        <ele>207.371674</ele>
        <time>2018-08-13T13:49:49Z</time>
      </trkpt>
      <trkpt lat="43.385111" lon="5.311678">
        <ele>225.361938</ele>
        <time>2018-08-13T13:50:05Z</time>
      </trkpt>
      <trkpt lat="43.387361" lon="5.306506">
        <ele>237.867523</ele>
        <time>2018-08-13T13:50:21Z</time>
      </trkpt>
      <trkpt lat="43.390302" lon="5.302753">
        <ele>221.823776</ele>
        <time>2018-08-13T13:50:36Z</time>
      </trkpt>
      <trkpt lat="43.393715" lon="5.299650">
        <ele>204.252014</ele>
        <time>2018-08-13T13:50:52Z</time>
      </trkpt>
      <trkpt lat="43.397608" lon="5.298364">
        <ele>164.627579</ele>
        <time>2018-08-13T13:51:08Z</time>
      </trkpt>
      <trkpt lat="43.399639" lon="5.294561">
        <ele>128.953156</ele>
        <time>2018-08-13T13:51:23Z</time>
      </trkpt>
      <trkpt lat="43.398949" lon="5.289785">
        <ele>127.672791</ele>
        <time>2018-08-13T13:51:38Z</time>
      </trkpt>
      <trkpt lat="43.396770" lon="5.285182">
        <ele>131.611694</ele>
        <time>2018-08-13T13:51:53Z</time>
      </trkpt>
      <trkpt lat="43.393874" lon="5.280253">
        <ele>137.394104</ele>
        <time>2018-08-13T13:52:09Z</time>
      </trkpt>
      <trkpt lat="43.392196" lon="5.274775">
        <ele>121.326965</ele>
        <time>2018-08-13T13:52:25Z</time>
      </trkpt>
      <trkpt lat="43.391530" lon="5.269672">
        <ele>118.330055</ele>
        <time>2018-08-13T13:52:40Z</time>
      </trkpt>
      <trkpt lat="43.391470" lon="5.264474">
        <ele>112.053238</ele>
        <time>2018-08-13T13:52:55Z</time>
      </trkpt>
      <trkpt lat="43.391621" lon="5.258688">
        <ele>102.054535</ele>
        <time>2018-08-13T13:53:11Z</time>
      </trkpt>
      <trkpt lat="43.391648" lon="5.253043">
        <ele>95.945908</ele>
        <time>2018-08-13T13:53:26Z</time>
      </trkpt>
      <trkpt lat="43.390191" lon="5.247268">
        <ele>89.165611</ele>
        <time>2018-08-13T13:53:42Z</time>
      </trkpt>
      <trkpt lat="43.387605" lon="5.242777">
        <ele>90.236084</ele>
        <time>2018-08-13T13:53:57Z</time>
      </trkpt>
      <trkpt lat="43.385204" lon="5.237938">
        <ele>89.910416</ele>
        <time>2018-08-13T13:54:13Z</time>
      </trkpt>
      <trkpt lat="43.384054" lon="5.232605">
        <ele>86.139221</ele>
        <time>2018-08-13T13:54:28Z</time>
      </trkpt>
      <trkpt lat="43.382381" lon="5.227201">
        <ele>72.207916</ele>
        <time>2018-08-13T13:54:44Z</time>
      </trkpt>
      <trkpt lat="43.380374" lon="5.222476">
        <ele>70.523163</ele>
        <time>2018-08-13T13:54:59Z</time>
      </trkpt>
      <trkpt lat="43.380378" lon="5.216743">
        <ele>65.823303</ele>
        <time>2018-08-13T13:55:14Z</time>
      </trkpt>
      <trkpt lat="43.380921" lon="5.210728">
        <ele>59.629425</ele>
        <time>2018-08-13T13:55:30Z</time>
      </trkpt>
      <trkpt lat="43.379386" lon="5.205159">
        <ele>65.501060</ele>
        <time>2018-08-13T13:55:46Z</time>
      </trkpt>
      <trkpt lat="43.376321" lon="5.200703">
        <ele>76.747818</ele>
        <time>2018-08-13T13:56:02Z</time>
      </trkpt>
      <trkpt lat="43.374111" lon="5.196008">
        <ele>71.187836</ele>
        <time>2018-08-13T13:56:17Z</time>
      </trkpt>
      <trkpt lat="43.373163" lon="5.190570">
        <ele>59.641075</ele>
        <time>2018-08-13T13:56:32Z</time>
      </trkpt>
      <trkpt lat="43.373375" lon="5.184199">
        <ele>50.784592</ele>
        <time>2018-08-13T13:56:48Z</time>
      </trkpt>
      <trkpt lat="43.374602" lon="5.178604">
        <ele>56.022606</ele>
        <time>2018-08-13T13:57:03Z</time>
      </trkpt>
      <trkpt lat="43.377040" lon="5.172937">
        <ele>62.288284</ele>
        <time>2018-08-13T13:57:19Z</time>
      </trkpt>
      <trkpt lat="43.378866" lon="5.167373">
        <ele>74.551369</ele>
        <time>2018-08-13T13:57:34Z</time>
      </trkpt>
      <trkpt lat="43.380259" lon="5.161069">
        <ele>69.775589</ele>
        <time>2018-08-13T13:57:50Z</time>
      </trkpt>
      <trkpt lat="43.382475" lon="5.155410">
        <ele>66.398857</ele>
        <time>2018-08-13T13:58:06Z</time>
      </trkpt>
      <trkpt lat="43.385142" lon="5.150557">
        <ele>52.703003</ele>
        <time>2018-08-13T13:58:21Z</time>
      </trkpt>
      <trkpt lat="43.387608" lon="5.145078">
        <ele>47.399345</ele>
        <time>2018-08-13T13:58:37Z</time>
      </trkpt>
      <trkpt lat="43.389232" lon="5.139426">
        <ele>46.382404</ele>
        <time>2018-08-13T13:58:52Z</time>
      </trkpt>
      <trkpt lat="43.391299" lon="5.133693">
        <ele>30.966732</ele>
        <time>2018-08-13T13:59:08Z</time>
      </trkpt>
      <trkpt lat="43.393614" lon="5.128728">
        <ele>24.946630</ele>
        <time>2018-08-13T13:59:23Z</time>
      </trkpt>
      <trkpt lat="43.396244" lon="5.124211">
        <ele>10.906382</ele>
        <time>2018-08-13T13:59:39Z</time>
      </trkpt>
      <trkpt lat="43.399322" lon="5.119941">
        <ele>2.928471</ele>
        <time>2018-08-13T13:59:55Z</time>
      </trkpt>
      <trkpt lat="43.402023" lon="5.116115">
        <ele>4.419885</ele>
        <time>2018-08-13T14:00:10Z</time>
      </trkpt>
      <trkpt lat="43.403111" lon="5.110908">
        <ele>3.910049</ele>
        <time>2018-08-13T14:00:27Z</time>
      </trkpt>
      <trkpt lat="43.401918" lon="5.105612">
        <ele>5.443916</ele>
        <time>2018-08-13T14:00:43Z</time>
      </trkpt>
      <trkpt lat="43.400450" lon="5.100584">
        <ele>12.218876</ele>
        <time>2018-08-13T14:00:59Z</time>
      </trkpt>
      <trkpt lat="43.399777" lon="5.095322">
        <ele>16.000000</ele>
        <time>2018-08-13T14:01:14Z</time>
      </trkpt>
      <trkpt lat="43.399115" lon="5.089813">
        <ele>9.580231</ele>
        <time>2018-08-13T14:01:29Z</time>
      </trkpt>
      <trkpt lat="43.398671" lon="5.084310">
        <ele>12.984226</ele>
        <time>2018-08-13T14:01:44Z</time>
      </trkpt>
      <trkpt lat="43.398305" lon="5.078884">
        <ele>16.726976</ele>
        <time>2018-08-13T14:01:59Z</time>
      </trkpt>
      <trkpt lat="43.397643" lon="5.073132">
        <ele>25.114441</ele>
        <time>2018-08-13T14:02:15Z</time>
      </trkpt>
      <trkpt lat="43.395733" lon="5.068176">
        <ele>48.401833</ele>
        <time>2018-08-13T14:02:31Z</time>
      </trkpt>
      <trkpt lat="43.394090" lon="5.062990">
        <ele>52.167667</ele>
        <time>2018-08-13T14:02:47Z</time>
      </trkpt>
      <trkpt lat="43.394089" lon="5.057300">
        <ele>53.691277</ele>
        <time>2018-08-13T14:03:03Z</time>
      </trkpt>
      <trkpt lat="43.394479" lon="5.051974">
        <ele>33.709702</ele>
        <time>2018-08-13T14:03:18Z</time>
      </trkpt>
      <trkpt lat="43.396621" lon="5.047987">
        <ele>27.982914</ele>
        <time>2018-08-13T14:03:33Z</time>
      </trkpt>
      <trkpt lat="43.398507" lon="5.045857">
        <ele>26.756319</ele>
        <time>2018-08-13T14:03:49Z</time>
      </trkpt>
      <trkpt lat="43.400277" lon="5.044303">
        <ele>5.771419</ele>
        <time>2018-08-13T14:04:05Z</time>
      </trkpt>
      <trkpt lat="43.402037" lon="5.042832">
        <ele>0.000000</ele>
        <time>2018-08-13T14:04:20Z</time>
      </trkpt>
      <trkpt lat="43.403852" lon="5.041311">
        <ele>7.148028</ele>
        <time>2018-08-13T14:04:35Z</time>
      </trkpt>
      <trkpt lat="43.405975" lon="5.039525">
        <ele>24.953226</ele>
        <time>2018-08-13T14:04:51Z</time>
      </trkpt>
      <trkpt lat="43.408372" lon="5.037287">
        <ele>28.675056</ele>
        <time>2018-08-13T14:05:06Z</time>
      </trkpt>
      <trkpt lat="43.410353" lon="5.034018">
        <ele>21.053974</ele>
        <time>2018-08-13T14:05:21Z</time>
      </trkpt>
      <trkpt lat="43.411468" lon="5.029891">
        <ele>18.915779</ele>
        <time>2018-08-13T14:05:37Z</time>
      </trkpt>
      <trkpt lat="43.411913" lon="5.025698">
        <ele>19.438763</ele>
        <time>2018-08-13T14:05:52Z</time>
      </trkpt>
      <trkpt lat="43.412589" lon="5.020468">
        <ele>23.685963</ele>
        <time>2018-08-13T14:06:08Z</time>
      </trkpt>
      <trkpt lat="43.413229" lon="5.014952">
        <ele>26.618841</ele>
        <time>2018-08-13T14:06:24Z</time>
      </trkpt>
      <trkpt lat="43.413439" lon="5.009715">
        <ele>13.951818</ele>
        <time>2018-08-13T14:06:40Z</time>
      </trkpt>
      <trkpt lat="43.413705" lon="5.004202">
        <ele>13.278019</ele>
        <time>2018-08-13T14:06:56Z</time>
      </trkpt>
      <trkpt lat="43.413580" lon="4.999779">
        <ele>19.180952</ele>
        <time>2018-08-13T14:07:18Z</time>
      </trkpt>
      <trkpt lat="43.413555" lon="4.991694">
        <ele>30.242619</ele>
        <time>2018-08-13T14:07:34Z</time>
      </trkpt>
      <trkpt lat="43.414835" lon="4.986750">
        <ele>29.892830</ele>
        <time>2018-08-13T14:07:50Z</time>
      </trkpt>
      <trkpt lat="43.416384" lon="4.982697">
        <ele>24.858643</ele>
        <time>2018-08-13T14:08:05Z</time>
      </trkpt>
      <trkpt lat="43.418786" lon="4.979813">
        <ele>20.017221</ele>
        <time>2018-08-13T14:08:21Z</time>
      </trkpt>
      <trkpt lat="43.420988" lon="4.978036">
        <ele>17.377457</ele>
        <time>2018-08-13T14:08:37Z</time>
      </trkpt>
      <trkpt lat="43.423412" lon="4.975661">
        <ele>10.758153</ele>
        <time>2018-08-13T14:08:53Z</time>
      </trkpt>
      <trkpt lat="43.425641" lon="4.973124">
        <ele>2.634071</ele>
        <time>2018-08-13T14:09:08Z</time>
      </trkpt>
      <trkpt lat="43.427099" lon="4.968819">
        <ele>3.700636</ele>
        <time>2018-08-13T14:09:24Z</time>
      </trkpt>
      <trkpt lat="43.427853" lon="4.964406">
        <ele>2.669188</ele>
        <time>2018-08-13T14:09:40Z</time>
      </trkpt>
      <trkpt lat="43.428594" lon="4.959678">
        <ele>1.000000</ele>
        <time>2018-08-13T14:09:56Z</time>
      </trkpt>
      <trkpt lat="43.429306" lon="4.955440">
        <ele>1.166755</ele>
        <time>2018-08-13T14:10:11Z</time>
      </trkpt>
      <trkpt lat="43.430015" lon="4.951164">
        <ele>2.367477</ele>
        <time>2018-08-13T14:10:27Z</time>
      </trkpt>
      <trkpt lat="43.430474" lon="4.948369">
        <ele>2.106621</ele>
        <time>2018-08-13T14:10:42Z</time>
      </trkpt>
      <trkpt lat="43.431040" lon="4.945579">
        <ele>4.096575</ele>
        <time>2018-08-13T14:10:57Z</time>
      </trkpt>
      <trkpt lat="43.432424" lon="4.943023">
        <ele>2.285744</ele>
        <time>2018-08-13T14:11:12Z</time>
      </trkpt>
      <trkpt lat="43.434482" lon="4.941680">
        <ele>2.388013</ele>
        <time>2018-08-13T14:11:27Z</time>
      </trkpt>
      <trkpt lat="43.437658" lon="4.940977">
        <ele>1.902187</ele>
        <time>2018-08-13T14:11:43Z</time>
      </trkpt>
      <trkpt lat="43.440980" lon="4.940267">
        <ele>1.816895</ele>
        <time>2018-08-13T14:11:59Z</time>
      </trkpt>
      <trkpt lat="43.444286" lon="4.939296">
        <ele>2.055429</ele>
        <time>2018-08-13T14:12:15Z</time>
      </trkpt>
      <trkpt lat="43.447184" lon="4.937739">
        <ele>3.270823</ele>
        <time>2018-08-13T14:12:31Z</time>
      </trkpt>
      <trkpt lat="43.449465" lon="4.936280">
        <ele>3.761202</ele>
        <time>2018-08-13T14:12:46Z</time>
      </trkpt>
      <trkpt lat="43.450738" lon="4.935617">
        <ele>3.229736</ele>
        <time>2018-08-13T14:13:02Z</time>
      </trkpt>
      <trkpt lat="43.451648" lon="4.933165">
        <ele>3.754150</ele>
        <time>2018-08-13T14:13:18Z</time>
      </trkpt>
      <trkpt lat="43.453341" lon="4.929976">
        <ele>4.934591</ele>
        <time>2018-08-13T14:13:33Z</time>
      </trkpt>
      <trkpt lat="43.455611" lon="4.926772">
        <ele>4.606384</ele>
        <time>2018-08-13T14:13:48Z</time>
      </trkpt>
      <trkpt lat="43.457722" lon="4.924271">
        <ele>3.840737</ele>
        <time>2018-08-13T14:14:03Z</time>
      </trkpt>
      <trkpt lat="43.460106" lon="4.921384">
        <ele>3.633311</ele>
        <time>2018-08-13T14:14:18Z</time>
      </trkpt>
      <trkpt lat="43.461480" lon="4.919978">
        <ele>4.808782</ele>
        <time>2018-08-13T14:14:34Z</time>
      </trkpt>
      <trkpt lat="43.462123" lon="4.919015">
        <ele>5.269958</ele>
        <time>2018-08-13T14:14:49Z</time>
      </trkpt>
      <trkpt lat="43.464393" lon="4.916415">
        <ele>-1.195041</ele>
        <time>2018-08-13T14:15:04Z</time>
      </trkpt>
      <trkpt lat="43.467173" lon="4.913552">
        <ele>1.974137</ele>
        <time>2018-08-13T14:15:19Z</time>
      </trkpt>
      <trkpt lat="43.469885" lon="4.910416">
        <ele>6.209731</ele>
        <time>2018-08-13T14:15:35Z</time>
      </trkpt>
      <trkpt lat="43.470646" lon="4.909048">
        <ele>5.418015</ele>
        <time>2018-08-13T14:15:50Z</time>
      </trkpt>
      <trkpt lat="43.471100" lon="4.908203">
        <ele>5.156006</ele>
        <time>2018-08-13T14:16:05Z</time>
      </trkpt>
      <trkpt lat="43.471261" lon="4.907802">
        <ele>5.637573</ele>
        <time>2018-08-13T14:16:20Z</time>
      </trkpt>
      <trkpt lat="43.471555" lon="4.907209">
        <ele>5.557419</ele>
        <time>2018-08-13T14:16:36Z</time>
      </trkpt>
      <trkpt lat="43.471832" lon="4.906644">
        <ele>4.807249</ele>
        <time>2018-08-13T14:16:52Z</time>
      </trkpt>
      <trkpt lat="43.472246" lon="4.905849">
        <ele>4.986856</ele>
        <time>2018-08-13T14:17:07Z</time>
      </trkpt>
      <trkpt lat="43.472651" lon="4.905081">
        <ele>7.708862</ele>
        <time>2018-08-13T14:17:23Z</time>
      </trkpt>
      <trkpt lat="43.473213" lon="4.904126">
        <ele>9.908930</ele>
        <time>2018-08-13T14:17:39Z</time>
      </trkpt>
      <trkpt lat="43.473768" lon="4.903241">
        <ele>7.589905</ele>
        <time>2018-08-13T14:17:55Z</time>
      </trkpt>
      <trkpt lat="43.474215" lon="4.902551">
        <ele>7.776047</ele>
        <time>2018-08-13T14:18:10Z</time>
      </trkpt>
      <trkpt lat="43.474606" lon="4.901990">
        <ele>6.452295</ele>
        <time>2018-08-13T14:18:26Z</time>
      </trkpt>
      <trkpt lat="43.474896" lon="4.901542">
        <ele>6.256015</ele>
        <time>2018-08-13T14:18:41Z</time>
      </trkpt>
      <trkpt lat="43.475000" lon="4.901392">
        <ele>6.329550</ele>
        <time>2018-08-13T14:18:56Z</time>
      </trkpt>
      <trkpt lat="43.475354" lon="4.900889">
        <ele>6.536862</ele>
        <time>2018-08-13T14:19:12Z</time>
      </trkpt>
      <trkpt lat="43.475719" lon="4.900364">
        <ele>6.622847</ele>
        <time>2018-08-13T14:19:27Z</time>
      </trkpt>
      <trkpt lat="43.476036" lon="4.899930">
        <ele>6.979474</ele>
        <time>2018-08-13T14:19:42Z</time>
      </trkpt>
      <trkpt lat="43.476478" lon="4.899360">
        <ele>6.406513</ele>
        <time>2018-08-13T14:19:58Z</time>
      </trkpt>
      <trkpt lat="43.476628" lon="4.899137">
        <ele>5.976135</ele>
        <time>2018-08-13T14:20:13Z</time>
      </trkpt>
      <trkpt lat="43.477070" lon="4.898574">
        <ele>5.750318</ele>
        <time>2018-08-13T14:20:28Z</time>
      </trkpt>
      <trkpt lat="43.477450" lon="4.898063">
        <ele>7.124077</ele>
        <time>2018-08-13T14:20:44Z</time>
      </trkpt>
      <trkpt lat="43.477544" lon="4.897923">
        <ele>7.493125</ele>
        <time>2018-08-13T14:20:59Z</time>
      </trkpt>
      <trkpt lat="43.477944" lon="4.897386">
        <ele>7.476335</ele>
        <time>2018-08-13T14:21:15Z</time>
      </trkpt>
      <trkpt lat="43.478229" lon="4.896947">
        <ele>7.622334</ele>
        <time>2018-08-13T14:21:30Z</time>
      </trkpt>
      <trkpt lat="43.478614" lon="4.896088">
        <ele>7.896976</ele>
        <time>2018-08-13T14:21:46Z</time>
      </trkpt>
      <trkpt lat="43.478720" lon="4.895784">
        <ele>7.972393</ele>
        <time>2018-08-13T14:22:01Z</time>
      </trkpt>
      <trkpt lat="43.479002" lon="4.895143">
        <ele>7.334543</ele>
        <time>2018-08-13T14:22:17Z</time>
      </trkpt>
      <trkpt lat="43.479376" lon="4.894560">
        <ele>6.695476</ele>
        <time>2018-08-13T14:22:33Z</time>
      </trkpt>
      <trkpt lat="43.480033" lon="4.894010">
        <ele>4.930115</ele>
        <time>2018-08-13T14:22:48Z</time>
      </trkpt>
      <trkpt lat="43.480970" lon="4.893463">
        <ele>7.875742</ele>
        <time>2018-08-13T14:23:04Z</time>
      </trkpt>
      <trkpt lat="43.481916" lon="4.892528">
        <ele>11.582196</ele>
        <time>2018-08-13T14:23:19Z</time>
      </trkpt>
      <trkpt lat="43.483020" lon="4.891116">
        <ele>6.217782</ele>
        <time>2018-08-13T14:23:35Z</time>
      </trkpt>
      <trkpt lat="43.484193" lon="4.889596">
        <ele>7.528388</ele>
        <time>2018-08-13T14:23:51Z</time>
      </trkpt>
      <trkpt lat="43.485150" lon="4.888395">
        <ele>5.803299</ele>
        <time>2018-08-13T14:24:06Z</time>
      </trkpt>
      <trkpt lat="43.485740" lon="4.887627">
        <ele>6.857666</ele>
        <time>2018-08-13T14:24:22Z</time>
      </trkpt>
      <trkpt lat="43.486150" lon="4.886760">
        <ele>8.278258</ele>
        <time>2018-08-13T14:24:38Z</time>
      </trkpt>
      <trkpt lat="43.487165" lon="4.886190">
        <ele>5.452211</ele>
        <time>2018-08-13T14:24:54Z</time>
      </trkpt>
      <trkpt lat="43.488826" lon="4.883901">
        <ele>5.084561</ele>
        <time>2018-08-13T14:25:10Z</time>
      </trkpt>
      <trkpt lat="43.490988" lon="4.881084">
        <ele>6.325008</ele>
        <time>2018-08-13T14:25:25Z</time>
      </trkpt>
      <trkpt lat="43.493601" lon="4.878206">
        <ele>6.097870</ele>
        <time>2018-08-13T14:25:41Z</time>
      </trkpt>
      <trkpt lat="43.496301" lon="4.874659">
        <ele>6.530396</ele>
        <time>2018-08-13T14:25:56Z</time>
      </trkpt>
      <trkpt lat="43.499297" lon="4.870740">
        <ele>7.156311</ele>
        <time>2018-08-13T14:26:12Z</time>
      </trkpt>
      <trkpt lat="43.502191" lon="4.866921">
        <ele>8.933716</ele>
        <time>2018-08-13T14:26:27Z</time>
      </trkpt>
      <trkpt lat="43.505424" lon="4.862769">
        <ele>8.147435</ele>
        <time>2018-08-13T14:26:43Z</time>
      </trkpt>
      <trkpt lat="43.508437" lon="4.858998">
        <ele>7.822795</ele>
        <time>2018-08-13T14:26:59Z</time>
      </trkpt>
      <trkpt lat="43.511928" lon="4.854654">
        <ele>7.183343</ele>
        <time>2018-08-13T14:27:15Z</time>
      </trkpt>
      <trkpt lat="43.515470" lon="4.850147">
        <ele>6.557752</ele>
        <time>2018-08-13T14:27:31Z</time>
      </trkpt>
      <trkpt lat="43.518970" lon="4.845809">
        <ele>7.043960</ele>
        <time>2018-08-13T14:27:47Z</time>
      </trkpt>
      <trkpt lat="43.522355" lon="4.841615">
        <ele>7.051198</ele>
        <time>2018-08-13T14:28:02Z</time>
      </trkpt>
      <trkpt lat="43.525407" lon="4.837696">
        <ele>6.000000</ele>
        <time>2018-08-13T14:28:17Z</time>
      </trkpt>
      <trkpt lat="43.528386" lon="4.833949">
        <ele>7.016450</ele>
        <time>2018-08-13T14:28:33Z</time>
      </trkpt>
      <trkpt lat="43.530716" lon="4.830953">
        <ele>6.982673</ele>
        <time>2018-08-13T14:28:49Z</time>
      </trkpt>
      <trkpt lat="43.533133" lon="4.827776">
        <ele>6.663518</ele>
        <time>2018-08-13T14:29:04Z</time>
      </trkpt>
      <trkpt lat="43.535999" lon="4.824087">
        <ele>4.801758</ele>
        <time>2018-08-13T14:29:19Z</time>
      </trkpt>
      <trkpt lat="43.539559" lon="4.819498">
        <ele>6.210472</ele>
        <time>2018-08-13T14:29:35Z</time>
      </trkpt>
      <trkpt lat="43.543527" lon="4.814812">
        <ele>6.368237</ele>
        <time>2018-08-13T14:29:51Z</time>
      </trkpt>
      <trkpt lat="43.547132" lon="4.811657">
        <ele>3.565031</ele>
        <time>2018-08-13T14:30:06Z</time>
      </trkpt>
      <trkpt lat="43.550792" lon="4.808538">
        <ele>3.344666</ele>
        <time>2018-08-13T14:30:22Z</time>
      </trkpt>
      <trkpt lat="43.554264" lon="4.805313">
        <ele>2.681229</ele>
        <time>2018-08-13T14:30:37Z</time>
      </trkpt>
      <trkpt lat="43.557730" lon="4.801699">
        <ele>5.265187</ele>
        <time>2018-08-13T14:30:53Z</time>
      </trkpt>
      <trkpt lat="43.560892" lon="4.798015">
        <ele>5.053463</ele>
        <time>2018-08-13T14:31:08Z</time>
      </trkpt>
      <trkpt lat="43.563904" lon="4.794309">
        <ele>6.170959</ele>
        <time>2018-08-13T14:31:23Z</time>
      </trkpt>
      <trkpt lat="43.566749" lon="4.790848">
        <ele>5.900940</ele>
        <time>2018-08-13T14:31:38Z</time>
      </trkpt>
      <trkpt lat="43.569943" lon="4.786836">
        <ele>7.686914</ele>
        <time>2018-08-13T14:31:54Z</time>
      </trkpt>
      <trkpt lat="43.572715" lon="4.783477">
        <ele>9.299822</ele>
        <time>2018-08-13T14:32:09Z</time>
      </trkpt>
      <trkpt lat="43.575466" lon="4.779946">
        <ele>11.404890</ele>
        <time>2018-08-13T14:32:25Z</time>
      </trkpt>
      <trkpt lat="43.577634" lon="4.775540">
        <ele>10.104071</ele>
        <time>2018-08-13T14:32:40Z</time>
      </trkpt>
      <trkpt lat="43.579926" lon="4.770807">
        <ele>10.997177</ele>
        <time>2018-08-13T14:32:56Z</time>
      </trkpt>
      <trkpt lat="43.583047" lon="4.767196">
        <ele>10.218457</ele>
        <time>2018-08-13T14:33:12Z</time>
      </trkpt>
      <trkpt lat="43.586535" lon="4.765022">
        <ele>9.000000</ele>
        <time>2018-08-13T14:33:27Z</time>
      </trkpt>
      <trkpt lat="43.589977" lon="4.762707">
        <ele>15.354060</ele>
        <time>2018-08-13T14:33:43Z</time>
      </trkpt>
      <trkpt lat="43.592821" lon="4.761388">
        <ele>12.824768</ele>
        <time>2018-08-13T14:33:59Z</time>
      </trkpt>
      <trkpt lat="43.596159" lon="4.761166">
        <ele>18.383667</ele>
        <time>2018-08-13T14:34:15Z</time>
      </trkpt>
      <trkpt lat="43.599931" lon="4.761835">
        <ele>19.781733</ele>
        <time>2018-08-13T14:34:31Z</time>
      </trkpt>
      <trkpt lat="43.603712" lon="4.761833">
        <ele>19.454651</ele>
        <time>2018-08-13T14:34:46Z</time>
      </trkpt>
      <trkpt lat="43.607927" lon="4.761153">
        <ele>20.024048</ele>
        <time>2018-08-13T14:35:02Z</time>
      </trkpt>
      <trkpt lat="43.611859" lon="4.758309">
        <ele>18.179949</ele>
        <time>2018-08-13T14:35:18Z</time>
      </trkpt>
      <trkpt lat="43.615455" lon="4.754660">
        <ele>17.508387</ele>
        <time>2018-08-13T14:35:34Z</time>
      </trkpt>
      <trkpt lat="43.618954" lon="4.751738">
        <ele>17.191681</ele>
        <time>2018-08-13T14:35:49Z</time>
      </trkpt>
      <trkpt lat="43.623027" lon="4.749776">
        <ele>12.269114</ele>
        <time>2018-08-13T14:36:05Z</time>
      </trkpt>
      <trkpt lat="43.626919" lon="4.747961">
        <ele>8.385895</ele>
        <time>2018-08-13T14:36:21Z</time>
      </trkpt>
      <trkpt lat="43.630797" lon="4.747721">
        <ele>11.659603</ele>
        <time>2018-08-13T14:36:37Z</time>
      </trkpt>
      <trkpt lat="43.633793" lon="4.745016">
        <ele>9.467712</ele>
        <time>2018-08-13T14:36:53Z</time>
      </trkpt>
      <trkpt lat="43.634454" lon="4.740928">
        <ele>7.344788</ele>
        <time>2018-08-13T14:37:08Z</time>
      </trkpt>
      <trkpt lat="43.635616" lon="4.737093">
        <ele>6.334175</ele>
        <time>2018-08-13T14:37:23Z</time>
      </trkpt>
      <trkpt lat="43.637551" lon="4.732274">
        <ele>6.077276</ele>
        <time>2018-08-13T14:37:39Z</time>
      </trkpt>
      <trkpt lat="43.638938" lon="4.726625">
        <ele>6.125427</ele>
        <time>2018-08-13T14:37:55Z</time>
      </trkpt>
      <trkpt lat="43.640424" lon="4.719980">
        <ele>6.516407</ele>
        <time>2018-08-13T14:38:13Z</time>
      </trkpt>
      <trkpt lat="43.642558" lon="4.710920">
        <ele>8.980429</ele>
        <time>2018-08-13T14:38:38Z</time>
      </trkpt>
      <trkpt lat="43.643901" lon="4.704916">
        <ele>7.753654</ele>
        <time>2018-08-13T14:38:54Z</time>
      </trkpt>
      <trkpt lat="43.645238" lon="4.699086">
        <ele>8.502865</ele>
        <time>2018-08-13T14:39:10Z</time>
      </trkpt>
      <trkpt lat="43.646394" lon="4.694060">
        <ele>10.216736</ele>
        <time>2018-08-13T14:39:25Z</time>
      </trkpt>
      <trkpt lat="43.647599" lon="4.688793">
        <ele>12.789673</ele>
        <time>2018-08-13T14:39:41Z</time>
      </trkpt>
      <trkpt lat="43.648805" lon="4.683538">
        <ele>14.803394</ele>
        <time>2018-08-13T14:39:57Z</time>
      </trkpt>
      <trkpt lat="43.649961" lon="4.678535">
        <ele>16.779591</ele>
        <time>2018-08-13T14:40:12Z</time>
      </trkpt>
      <trkpt lat="43.651257" lon="4.672948">
        <ele>15.091064</ele>
        <time>2018-08-13T14:40:28Z</time>
      </trkpt>
      <trkpt lat="43.652573" lon="4.667315">
        <ele>12.068312</ele>
        <time>2018-08-13T14:40:44Z</time>
      </trkpt>
      <trkpt lat="43.653841" lon="4.661754">
        <ele>13.000000</ele>
        <time>2018-08-13T14:40:59Z</time>
      </trkpt>
      <trkpt lat="43.655153" lon="4.656034">
        <ele>12.186787</ele>
        <time>2018-08-13T14:41:15Z</time>
      </trkpt>
      <trkpt lat="43.656950" lon="4.650876">
        <ele>12.864907</ele>
        <time>2018-08-13T14:41:30Z</time>
      </trkpt>
      <trkpt lat="43.658913" lon="4.645739">
        <ele>15.807850</ele>
        <time>2018-08-13T14:41:46Z</time>
      </trkpt>
      <trkpt lat="43.660756" lon="4.640933">
        <ele>6.222486</ele>
        <time>2018-08-13T14:42:02Z</time>
      </trkpt>
      <trkpt lat="43.662476" lon="4.636739">
        <ele>3.112829</ele>
        <time>2018-08-13T14:42:17Z</time>
      </trkpt>
      <trkpt lat="43.664711" lon="4.632860">
        <ele>4.455378</ele>
        <time>2018-08-13T14:42:33Z</time>
      </trkpt>
      <trkpt lat="43.666499" lon="4.629921">
        <ele>5.672693</ele>
        <time>2018-08-13T14:42:48Z</time>
      </trkpt>
      <trkpt lat="43.667594" lon="4.628172">
        <ele>5.612671</ele>
        <time>2018-08-13T14:43:03Z</time>
      </trkpt>
      <trkpt lat="43.668534" lon="4.626847">
        <ele>3.457825</ele>
        <time>2018-08-13T14:43:19Z</time>
      </trkpt>
      <trkpt lat="43.669987" lon="4.625035">
        <ele>5.056693</ele>
        <time>2018-08-13T14:43:34Z</time>
      </trkpt>
      <trkpt lat="43.671752" lon="4.623063">
        <ele>6.060214</ele>
        <time>2018-08-13T14:43:50Z</time>
      </trkpt>
      <trkpt lat="43.673546" lon="4.620943">
        <ele>7.189884</ele>
        <time>2018-08-13T14:44:06Z</time>
      </trkpt>
      <trkpt lat="43.675154" lon="4.618951">
        <ele>9.883518</ele>
        <time>2018-08-13T14:44:20Z</time>
      </trkpt>
      <trkpt lat="43.676619" lon="4.617044">
        <ele>6.806795</ele>
        <time>2018-08-13T14:44:36Z</time>
      </trkpt>
      <trkpt lat="43.678031" lon="4.613825">
        <ele>7.977342</ele>
        <time>2018-08-13T14:44:52Z</time>
      </trkpt>
      <trkpt lat="43.678452" lon="4.608942">
        <ele>3.680090</ele>
        <time>2018-08-13T14:45:08Z</time>
      </trkpt>
      <trkpt lat="43.679914" lon="4.603873">
        <ele>4.596514</ele>
        <time>2018-08-13T14:45:24Z</time>
      </trkpt>
      <trkpt lat="43.681635" lon="4.598915">
        <ele>4.659119</ele>
        <time>2018-08-13T14:45:40Z</time>
      </trkpt>
      <trkpt lat="43.682908" lon="4.593737">
        <ele>4.241649</ele>
        <time>2018-08-13T14:45:55Z</time>
      </trkpt>
      <trkpt lat="43.683309" lon="4.587495">
        <ele>4.005127</ele>
        <time>2018-08-13T14:46:11Z</time>
      </trkpt>
      <trkpt lat="43.683207" lon="4.581354">
        <ele>2.188943</ele>
        <time>2018-08-13T14:46:27Z</time>
      </trkpt>
      <trkpt lat="43.683178" lon="4.575413">
        <ele>2.403094</ele>
        <time>2018-08-13T14:46:42Z</time>
      </trkpt>
      <trkpt lat="43.683128" lon="4.569568">
        <ele>3.754150</ele>
        <time>2018-08-13T14:46:58Z</time>
      </trkpt>
      <trkpt lat="43.683084" lon="4.564383">
        <ele>2.518188</ele>
        <time>2018-08-13T14:47:13Z</time>
      </trkpt>
      <trkpt lat="43.683064" lon="4.559204">
        <ele>4.280000</ele>
        <time>2018-08-13T14:47:28Z</time>
      </trkpt>
      <trkpt lat="43.683683" lon="4.553600">
        <ele>3.554782</ele>
        <time>2018-08-13T14:47:44Z</time>
      </trkpt>
      <trkpt lat="43.685732" lon="4.549214">
        <ele>4.828104</ele>
        <time>2018-08-13T14:48:00Z</time>
      </trkpt>
      <trkpt lat="43.688423" lon="4.546448">
        <ele>2.686672</ele>
        <time>2018-08-13T14:48:15Z</time>
      </trkpt>
      <trkpt lat="43.690150" lon="4.545258">
        <ele>3.071472</ele>
        <time>2018-08-13T14:48:31Z</time>
      </trkpt>
      <trkpt lat="43.690364" lon="4.545091">
        <ele>3.672974</ele>
        <time>2018-08-13T14:48:47Z</time>
      </trkpt>
      <trkpt lat="43.690483" lon="4.544946">
        <ele>3.962675</ele>
        <time>2018-08-13T14:49:02Z</time>
      </trkpt>
      <trkpt lat="43.691025" lon="4.544428">
        <ele>3.011054</ele>
        <time>2018-08-13T14:49:18Z</time>
      </trkpt>
      <trkpt lat="43.693754" lon="4.542017">
        <ele>2.217515</ele>
        <time>2018-08-13T14:49:34Z</time>
      </trkpt>
      <trkpt lat="43.697813" lon="4.538662">
        <ele>3.000000</ele>
        <time>2018-08-13T14:49:50Z</time>
      </trkpt>
      <trkpt lat="43.701984" lon="4.534864">
        <ele>4.704537</ele>
        <time>2018-08-13T14:50:06Z</time>
      </trkpt>
      <trkpt lat="43.705220" lon="4.530277">
        <ele>5.892750</ele>
        <time>2018-08-13T14:50:21Z</time>
      </trkpt>
      <trkpt lat="43.708221" lon="4.524930">
        <ele>5.585975</ele>
        <time>2018-08-13T14:50:37Z</time>
      </trkpt>
      <trkpt lat="43.710254" lon="4.519334">
        <ele>3.354275</ele>
        <time>2018-08-13T14:50:52Z</time>
      </trkpt>
      <trkpt lat="43.713114" lon="4.514262">
        <ele>3.886169</ele>
        <time>2018-08-13T14:51:08Z</time>
      </trkpt>
      <trkpt lat="43.716862" lon="4.511031">
        <ele>2.944311</ele>
        <time>2018-08-13T14:51:23Z</time>
      </trkpt>
      <trkpt lat="43.720909" lon="4.508269">
        <ele>3.853451</ele>
        <time>2018-08-13T14:51:38Z</time>
      </trkpt>
      <trkpt lat="43.724722" lon="4.504274">
        <ele>5.332382</ele>
        <time>2018-08-13T14:51:54Z</time>
      </trkpt>
      <trkpt lat="43.728113" lon="4.499884">
        <ele>3.786402</ele>
        <time>2018-08-13T14:52:10Z</time>
      </trkpt>
      <trkpt lat="43.730049" lon="4.494566">
        <ele>1.451400</ele>
        <time>2018-08-13T14:52:25Z</time>
      </trkpt>
      <trkpt lat="43.730443" lon="4.488289">
        <ele>0.000000</ele>
        <time>2018-08-13T14:52:41Z</time>
      </trkpt>
      <trkpt lat="43.730934" lon="4.482437">
        <ele>0.981737</ele>
        <time>2018-08-13T14:52:56Z</time>
      </trkpt>
      <trkpt lat="43.731946" lon="4.476343">
        <ele>1.388733</ele>
        <time>2018-08-13T14:53:12Z</time>
      </trkpt>
      <trkpt lat="43.733217" lon="4.470260">
        <ele>5.912852</ele>
        <time>2018-08-13T14:53:28Z</time>
      </trkpt>
      <trkpt lat="43.735412" lon="4.464905">
        <ele>20.273062</ele>
        <time>2018-08-13T14:53:44Z</time>
      </trkpt>
      <trkpt lat="43.738211" lon="4.460445">
        <ele>56.383354</ele>
        <time>2018-08-13T14:53:59Z</time>
      </trkpt>
      <trkpt lat="43.740207" lon="4.456013">
        <ele>67.784485</ele>
        <time>2018-08-13T14:54:15Z</time>
      </trkpt>
      <trkpt lat="43.741575" lon="4.450425">
        <ele>67.144928</ele>
        <time>2018-08-13T14:54:31Z</time>
      </trkpt>
      <trkpt lat="43.743003" lon="4.444861">
        <ele>72.490059</ele>
        <time>2018-08-13T14:54:46Z</time>
      </trkpt>
      <trkpt lat="43.745423" lon="4.439405">
        <ele>69.207397</ele>
        <time>2018-08-13T14:55:02Z</time>
      </trkpt>
      <trkpt lat="43.748477" lon="4.434965">
        <ele>72.325790</ele>
        <time>2018-08-13T14:55:17Z</time>
      </trkpt>
      <trkpt lat="43.752294" lon="4.431162">
        <ele>73.209015</ele>
        <time>2018-08-13T14:55:33Z</time>
      </trkpt>
      <trkpt lat="43.756460" lon="4.428289">
        <ele>84.950638</ele>
        <time>2018-08-13T14:55:48Z</time>
      </trkpt>
      <trkpt lat="43.760999" lon="4.425287">
        <ele>89.014626</ele>
        <time>2018-08-13T14:56:03Z</time>
      </trkpt>
      <trkpt lat="43.765216" lon="4.422551">
        <ele>89.945877</ele>
        <time>2018-08-13T14:56:19Z</time>
      </trkpt>
      <trkpt lat="43.769603" lon="4.419925">
        <ele>88.132446</ele>
        <time>2018-08-13T14:56:35Z</time>
      </trkpt>
      <trkpt lat="43.774090" lon="4.418100">
        <ele>89.521568</ele>
        <time>2018-08-13T14:56:50Z</time>
      </trkpt>
      <trkpt lat="43.778584" lon="4.415532">
        <ele>86.324387</ele>
        <time>2018-08-13T14:57:06Z</time>
      </trkpt>
      <trkpt lat="43.781461" lon="4.411625">
        <ele>83.751823</ele>
        <time>2018-08-13T14:57:21Z</time>
      </trkpt>
      <trkpt lat="43.783489" lon="4.407054">
        <ele>80.086769</ele>
        <time>2018-08-13T14:57:37Z</time>
      </trkpt>
      <trkpt lat="43.786232" lon="4.402809">
        <ele>70.822105</ele>
        <time>2018-08-13T14:57:52Z</time>
      </trkpt>
      <trkpt lat="43.790211" lon="4.399046">
        <ele>52.998062</ele>
        <time>2018-08-13T14:58:08Z</time>
      </trkpt>
      <trkpt lat="43.793952" lon="4.394795">
        <ele>37.040039</ele>
        <time>2018-08-13T14:58:24Z</time>
      </trkpt>
      <trkpt lat="43.796438" lon="4.389789">
        <ele>32.618828</ele>
        <time>2018-08-13T14:58:39Z</time>
      </trkpt>
      <trkpt lat="43.798710" lon="4.384620">
        <ele>30.641235</ele>
        <time>2018-08-13T14:58:54Z</time>
      </trkpt>
      <trkpt lat="43.801857" lon="4.380254">
        <ele>27.247843</ele>
        <time>2018-08-13T14:59:10Z</time>
      </trkpt>
      <trkpt lat="43.804654" lon="4.377259">
        <ele>28.471134</ele>
        <time>2018-08-13T14:59:26Z</time>
      </trkpt>
      <trkpt lat="43.807223" lon="4.375833">
        <ele>29.334839</ele>
        <time>2018-08-13T14:59:41Z</time>
      </trkpt>
      <trkpt lat="43.807525" lon="4.374562">
        <ele>29.875114</ele>
        <time>2018-08-13T14:59:57Z</time>
      </trkpt>
      <trkpt lat="43.807539" lon="4.374321">
        <ele>29.297762</ele>
        <time>2018-08-13T15:00:36Z</time>
      </trkpt>
      <trkpt lat="43.807586" lon="4.372342">
        <ele>26.147846</ele>
        <time>2018-08-13T15:00:52Z</time>
      </trkpt>
      <trkpt lat="43.807806" lon="4.372005">
        <ele>26.079994</ele>
        <time>2018-08-13T15:01:07Z</time>
      </trkpt>
      <trkpt lat="43.809377" lon="4.372018">
        <ele>26.819582</ele>
        <time>2018-08-13T15:01:23Z</time>
      </trkpt>
      <trkpt lat="43.810557" lon="4.371589">
        <ele>28.605644</ele>
        <time>2018-08-13T15:01:38Z</time>
      </trkpt>
      <trkpt lat="43.810720" lon="4.371542">
        <ele>28.734444</ele>
        <time>2018-08-13T15:01:58Z</time>
      </trkpt>
      <trkpt lat="43.812315" lon="4.370831">
        <ele>29.780760</ele>
        <time>2018-08-13T15:02:14Z</time>
      </trkpt>
      <trkpt lat="43.814142" lon="4.369735">
        <ele>29.329197</ele>
        <time>2018-08-13T15:02:30Z</time>
      </trkpt>
      <trkpt lat="43.815623" lon="4.368045">
        <ele>28.769987</ele>
        <time>2018-08-13T15:02:45Z</time>
      </trkpt>
      <trkpt lat="43.817381" lon="4.366770">
        <ele>31.520096</ele>
        <time>2018-08-13T15:03:00Z</time>
      </trkpt>
      <trkpt lat="43.817861" lon="4.366422">
        <ele>32.559795</ele>
        <time>2018-08-13T15:03:19Z</time>
      </trkpt>
      <trkpt lat="43.818030" lon="4.366332">
        <ele>32.890930</ele>
        <time>2018-08-13T15:03:58Z</time>
      </trkpt>
      <trkpt lat="43.819742" lon="4.365802">
        <ele>35.355614</ele>
        <time>2018-08-13T15:04:13Z</time>
      </trkpt>
      <trkpt lat="43.821562" lon="4.365338">
        <ele>34.205833</ele>
        <time>2018-08-13T15:04:29Z</time>
      </trkpt>
      <trkpt lat="43.822396" lon="4.366085">
        <ele>34.962372</ele>
        <time>2018-08-13T15:04:45Z</time>
      </trkpt>
      <trkpt lat="43.822880" lon="4.367213">
        <ele>35.712952</ele>
        <time>2018-08-13T15:05:00Z</time>
      </trkpt>
      <trkpt lat="43.823138" lon="4.367643">
        <ele>35.347107</ele>
        <time>2018-08-13T15:05:16Z</time>
      </trkpt>
      <trkpt lat="43.823864" lon="4.369077">
        <ele>35.324650</ele>
        <time>2018-08-13T15:05:31Z</time>
      </trkpt>
      <trkpt lat="43.824094" lon="4.369840">
        <ele>33.471924</ele>
        <time>2018-08-13T15:05:46Z</time>
      </trkpt>
      <trkpt lat="43.825409" lon="4.371565">
        <ele>36.325069</ele>
        <time>2018-08-13T15:06:02Z</time>
      </trkpt>
      <trkpt lat="43.826625" lon="4.373611">
        <ele>37.667084</ele>
        <time>2018-08-13T15:06:17Z</time>
      </trkpt>
      <trkpt lat="43.826746" lon="4.373779">
        <ele>37.693310</ele>
        <time>2018-08-13T15:06:35Z</time>
      </trkpt>
      <trkpt lat="43.827043" lon="4.374316">
        <ele>37.192322</ele>
        <time>2018-08-13T15:06:51Z</time>
      </trkpt>
      <trkpt lat="43.827326" lon="4.375018">
        <ele>36.100590</ele>
        <time>2018-08-13T15:07:08Z</time>
      </trkpt>
      <trkpt lat="43.827476" lon="4.374892">
        <ele>36.255043</ele>
        <time>2018-08-13T15:07:37Z</time>
      </trkpt>
      <trkpt lat="43.828213" lon="4.373460">
        <ele>38.951691</ele>
        <time>2018-08-13T15:07:53Z</time>
      </trkpt>
      <trkpt lat="43.829151" lon="4.371894">
        <ele>38.005054</ele>
        <time>2018-08-13T15:08:08Z</time>
      </trkpt>
      <trkpt lat="43.830273" lon="4.369972">
        <ele>37.723022</ele>
        <time>2018-08-13T15:08:24Z</time>
      </trkpt>
      <trkpt lat="43.831372" lon="4.368839">
        <ele>39.646423</ele>
        <time>2018-08-13T15:08:40Z</time>
      </trkpt>
      <trkpt lat="43.832519" lon="4.368248">
        <ele>42.781631</ele>
        <time>2018-08-13T15:08:55Z</time>
      </trkpt>
      <trkpt lat="43.832990" lon="4.368044">
        <ele>42.534386</ele>
        <time>2018-08-13T15:09:17Z</time>
      </trkpt>
      <trkpt lat="43.833115" lon="4.367936">
        <ele>42.715580</ele>
        <time>2018-08-13T15:10:03Z</time>
      </trkpt>
      <trkpt lat="43.833795" lon="4.367408">
        <ele>43.988121</ele>
        <time>2018-08-13T15:10:19Z</time>
      </trkpt>
      <trkpt lat="43.834901" lon="4.366482">
        <ele>44.129303</ele>
        <time>2018-08-13T15:10:34Z</time>
      </trkpt>
      <trkpt lat="43.834728" lon="4.365739">
        <ele>45.112915</ele>
        <time>2018-08-13T15:10:49Z</time>
      </trkpt>
      <trkpt lat="43.834595" lon="4.365346">
        <ele>45.585052</ele>
        <time>2018-08-13T15:11:10Z</time>
      </trkpt>
      <trkpt lat="43.834518" lon="4.365192">
        <ele>45.769928</ele>
        <time>2018-08-13T15:12:17Z</time>
      </trkpt>
      <trkpt lat="43.835040" lon="4.364744">
        <ele>46.694538</ele>
        <time>2018-08-13T15:12:32Z</time>
      </trkpt>
      <trkpt lat="43.835300" lon="4.364546">
        <ele>47.614128</ele>
        <time>2018-08-13T15:12:47Z</time>
      </trkpt>
      <trkpt lat="43.835451" lon="4.364601">
        <ele>47.781349</ele>
        <time>2018-08-13T15:13:03Z</time>
      </trkpt>
      <trkpt lat="43.834752" lon="4.370195">
        <ele>42.531189</ele>
        <time>2018-08-14T09:56:59Z</time>
      </trkpt>
      <trkpt lat="43.834615" lon="4.370325">
        <ele>42.853180</ele>
        <time>2018-08-14T09:57:32Z</time>
      </trkpt>
      <trkpt lat="43.833816" lon="4.370985">
        <ele>42.869587</ele>
        <time>2018-08-14T09:57:47Z</time>
      </trkpt>
      <trkpt lat="43.833262" lon="4.371540">
        <ele>41.152374</ele>
        <time>2018-08-14T09:58:02Z</time>
      </trkpt>
      <trkpt lat="43.832456" lon="4.372482">
        <ele>40.893677</ele>
        <time>2018-08-14T09:58:18Z</time>
      </trkpt>
      <trkpt lat="43.831716" lon="4.373539">
        <ele>39.336189</ele>
        <time>2018-08-14T09:58:34Z</time>
      </trkpt>
      <trkpt lat="43.831223" lon="4.374545">
        <ele>38.723267</ele>
        <time>2018-08-14T09:58:50Z</time>
      </trkpt>
      <trkpt lat="43.830587" lon="4.375442">
        <ele>37.861382</ele>
        <time>2018-08-14T09:59:05Z</time>
      </trkpt>
      <trkpt lat="43.829910" lon="4.375379">
        <ele>37.455322</ele>
        <time>2018-08-14T09:59:20Z</time>
      </trkpt>
      <trkpt lat="43.829013" lon="4.374168">
        <ele>36.001495</ele>
        <time>2018-08-14T09:59:36Z</time>
      </trkpt>
      <trkpt lat="43.828383" lon="4.373351">
        <ele>38.763264</ele>
        <time>2018-08-14T09:59:51Z</time>
      </trkpt>
      <trkpt lat="43.828247" lon="4.373321">
        <ele>39.310810</ele>
        <time>2018-08-14T10:00:16Z</time>
      </trkpt>
      <trkpt lat="43.827620" lon="4.374266">
        <ele>37.524956</ele>
        <time>2018-08-14T10:00:32Z</time>
      </trkpt>
      <trkpt lat="43.827494" lon="4.374371">
        <ele>37.504280</ele>
        <time>2018-08-14T10:01:10Z</time>
      </trkpt>
      <trkpt lat="43.826421" lon="4.373069">
        <ele>38.129997</ele>
        <time>2018-08-14T10:01:26Z</time>
      </trkpt>
      <trkpt lat="43.825009" lon="4.370651">
        <ele>35.216583</ele>
        <time>2018-08-14T10:01:42Z</time>
      </trkpt>
      <trkpt lat="43.824150" lon="4.369086">
        <ele>35.018402</ele>
        <time>2018-08-14T10:01:57Z</time>
      </trkpt>
      <trkpt lat="43.823002" lon="4.366954">
        <ele>35.274559</ele>
        <time>2018-08-14T10:02:13Z</time>
      </trkpt>
      <trkpt lat="43.822412" lon="4.365800">
        <ele>35.031498</ele>
        <time>2018-08-14T10:02:28Z</time>
      </trkpt>
      <trkpt lat="43.822153" lon="4.364711">
        <ele>35.716427</ele>
        <time>2018-08-14T10:02:43Z</time>
      </trkpt>
      <trkpt lat="43.821395" lon="4.363003">
        <ele>35.151173</ele>
        <time>2018-08-14T10:02:59Z</time>
      </trkpt>
      <trkpt lat="43.821270" lon="4.362653">
        <ele>34.960575</ele>
        <time>2018-08-14T10:03:14Z</time>
      </trkpt>
      <trkpt lat="43.820683" lon="4.360491">
        <ele>36.798702</ele>
        <time>2018-08-14T10:03:29Z</time>
      </trkpt>
      <trkpt lat="43.820347" lon="4.358319">
        <ele>35.885315</ele>
        <time>2018-08-14T10:03:45Z</time>
      </trkpt>
      <trkpt lat="43.819846" lon="4.356380">
        <ele>36.139305</ele>
        <time>2018-08-14T10:04:01Z</time>
      </trkpt>
      <trkpt lat="43.819435" lon="4.353511">
        <ele>35.972015</ele>
        <time>2018-08-14T10:04:17Z</time>
      </trkpt>
      <trkpt lat="43.819155" lon="4.352159">
        <ele>35.400581</ele>
        <time>2018-08-14T10:04:32Z</time>
      </trkpt>
      <trkpt lat="43.817679" lon="4.352789">
        <ele>34.000000</ele>
        <time>2018-08-14T10:04:48Z</time>
      </trkpt>
      <trkpt lat="43.817009" lon="4.352952">
        <ele>33.461082</ele>
        <time>2018-08-14T10:05:14Z</time>
      </trkpt>
      <trkpt lat="43.815630" lon="4.353227">
        <ele>32.755554</ele>
        <time>2018-08-14T10:05:30Z</time>
      </trkpt>
      <trkpt lat="43.814365" lon="4.353335">
        <ele>31.238352</ele>
        <time>2018-08-14T10:05:46Z</time>
      </trkpt>
      <trkpt lat="43.813290" lon="4.354274">
        <ele>31.968973</ele>
        <time>2018-08-14T10:06:02Z</time>
      </trkpt>
      <trkpt lat="43.811534" lon="4.354515">
        <ele>32.018211</ele>
        <time>2018-08-14T10:06:17Z</time>
      </trkpt>
      <trkpt lat="43.810003" lon="4.354461">
        <ele>27.357418</ele>
        <time>2018-08-14T10:06:33Z</time>
      </trkpt>
      <trkpt lat="43.808112" lon="4.354281">
        <ele>28.092896</ele>
        <time>2018-08-14T10:06:49Z</time>
      </trkpt>
      <trkpt lat="43.805608" lon="4.354422">
        <ele>24.259434</ele>
        <time>2018-08-14T10:07:04Z</time>
      </trkpt>
      <trkpt lat="43.802902" lon="4.353996">
        <ele>26.597393</ele>
        <time>2018-08-14T10:07:19Z</time>
      </trkpt>
      <trkpt lat="43.799853" lon="4.353453">
        <ele>24.478329</ele>
        <time>2018-08-14T10:07:35Z</time>
      </trkpt>
      <trkpt lat="43.796853" lon="4.352430">
        <ele>24.140137</ele>
        <time>2018-08-14T10:07:51Z</time>
      </trkpt>
      <trkpt lat="43.794024" lon="4.351929">
        <ele>23.828735</ele>
        <time>2018-08-14T10:08:06Z</time>
      </trkpt>
      <trkpt lat="43.792523" lon="4.349918">
        <ele>22.972412</ele>
        <time>2018-08-14T10:08:21Z</time>
      </trkpt>
      <trkpt lat="43.791244" lon="4.349942">
        <ele>23.541370</ele>
        <time>2018-08-14T10:08:37Z</time>
      </trkpt>
      <trkpt lat="43.789285" lon="4.351104">
        <ele>24.278551</ele>
        <time>2018-08-14T10:08:52Z</time>
      </trkpt>
      <trkpt lat="43.787446" lon="4.352769">
        <ele>26.848305</ele>
        <time>2018-08-14T10:09:07Z</time>
      </trkpt>
      <trkpt lat="43.785155" lon="4.353971">
        <ele>24.814026</ele>
        <time>2018-08-14T10:09:22Z</time>
      </trkpt>
      <trkpt lat="43.783904" lon="4.354618">
        <ele>24.713032</ele>
        <time>2018-08-14T10:09:38Z</time>
      </trkpt>
      <trkpt lat="43.783747" lon="4.355248">
        <ele>25.651159</ele>
        <time>2018-08-14T10:09:54Z</time>
      </trkpt>
      <trkpt lat="43.783061" lon="4.353843">
        <ele>24.988544</ele>
        <time>2018-08-14T10:10:10Z</time>
      </trkpt>
      <trkpt lat="43.781412" lon="4.350970">
        <ele>25.725176</ele>
        <time>2018-08-14T10:10:26Z</time>
      </trkpt>
      <trkpt lat="43.779805" lon="4.347682">
        <ele>28.899672</ele>
        <time>2018-08-14T10:10:42Z</time>
      </trkpt>
      <trkpt lat="43.778748" lon="4.344210">
        <ele>25.561462</ele>
        <time>2018-08-14T10:10:57Z</time>
      </trkpt>
      <trkpt lat="43.777837" lon="4.340404">
        <ele>23.676147</ele>
        <time>2018-08-14T10:11:13Z</time>
      </trkpt>
      <trkpt lat="43.776250" lon="4.337182">
        <ele>23.617222</ele>
        <time>2018-08-14T10:11:28Z</time>
      </trkpt>
      <trkpt lat="43.774417" lon="4.334503">
        <ele>23.102112</ele>
        <time>2018-08-14T10:11:44Z</time>
      </trkpt>
      <trkpt lat="43.772575" lon="4.331632">
        <ele>22.862152</ele>
        <time>2018-08-14T10:11:59Z</time>
      </trkpt>
      <trkpt lat="43.771014" lon="4.328562">
        <ele>22.114685</ele>
        <time>2018-08-14T10:12:14Z</time>
      </trkpt>
      <trkpt lat="43.769876" lon="4.326274">
        <ele>21.148499</ele>
        <time>2018-08-14T10:12:29Z</time>
      </trkpt>
      <trkpt lat="43.768822" lon="4.324927">
        <ele>21.826904</ele>
        <time>2018-08-14T10:12:44Z</time>
      </trkpt>
      <trkpt lat="43.766877" lon="4.322251">
        <ele>23.122267</ele>
        <time>2018-08-14T10:13:00Z</time>
      </trkpt>
      <trkpt lat="43.765089" lon="4.319397">
        <ele>22.646450</ele>
        <time>2018-08-14T10:13:15Z</time>
      </trkpt>
      <trkpt lat="43.762636" lon="4.316807">
        <ele>21.027496</ele>
        <time>2018-08-14T10:13:31Z</time>
      </trkpt>
      <trkpt lat="43.760610" lon="4.313958">
        <ele>20.317223</ele>
        <time>2018-08-14T10:13:46Z</time>
      </trkpt>
      <trkpt lat="43.758867" lon="4.311477">
        <ele>21.504715</ele>
        <time>2018-08-14T10:14:02Z</time>
      </trkpt>
      <trkpt lat="43.757463" lon="4.310637">
        <ele>22.257814</ele>
        <time>2018-08-14T10:14:17Z</time>
      </trkpt>
      <trkpt lat="43.755060" lon="4.309334">
        <ele>20.000000</ele>
        <time>2018-08-14T10:14:33Z</time>
      </trkpt>
      <trkpt lat="43.752539" lon="4.308073">
        <ele>18.952942</ele>
        <time>2018-08-14T10:14:48Z</time>
      </trkpt>
      <trkpt lat="43.751380" lon="4.306727">
        <ele>20.441832</ele>
        <time>2018-08-14T10:15:03Z</time>
      </trkpt>
      <trkpt lat="43.749578" lon="4.304437">
        <ele>21.172943</ele>
        <time>2018-08-14T10:15:19Z</time>
      </trkpt>
      <trkpt lat="43.747084" lon="4.301944">
        <ele>23.331120</ele>
        <time>2018-08-14T10:15:35Z</time>
      </trkpt>
      <trkpt lat="43.744890" lon="4.299130">
        <ele>20.559126</ele>
        <time>2018-08-14T10:15:50Z</time>
      </trkpt>
      <trkpt lat="43.742926" lon="4.296004">
        <ele>19.666512</ele>
        <time>2018-08-14T10:16:05Z</time>
      </trkpt>
      <trkpt lat="43.740889" lon="4.292701">
        <ele>20.241425</ele>
        <time>2018-08-14T10:16:21Z</time>
      </trkpt>
      <trkpt lat="43.739103" lon="4.289160">
        <ele>19.082973</ele>
        <time>2018-08-14T10:16:37Z</time>
      </trkpt>
      <trkpt lat="43.737991" lon="4.285426">
        <ele>18.123079</ele>
        <time>2018-08-14T10:16:52Z</time>
      </trkpt>
      <trkpt lat="43.736933" lon="4.281400">
        <ele>17.577654</ele>
        <time>2018-08-14T10:17:08Z</time>
      </trkpt>
      <trkpt lat="43.734936" lon="4.277844">
        <ele>16.567017</ele>
        <time>2018-08-14T10:17:23Z</time>
      </trkpt>
      <trkpt lat="43.732653" lon="4.274307">
        <ele>17.631958</ele>
        <time>2018-08-14T10:17:39Z</time>
      </trkpt>
      <trkpt lat="43.729777" lon="4.271892">
        <ele>17.735296</ele>
        <time>2018-08-14T10:17:55Z</time>
      </trkpt>
      <trkpt lat="43.726550" lon="4.270634">
        <ele>19.826572</ele>
        <time>2018-08-14T10:18:11Z</time>
      </trkpt>
      <trkpt lat="43.723291" lon="4.269863">
        <ele>17.793184</ele>
        <time>2018-08-14T10:18:27Z</time>
      </trkpt>
      <trkpt lat="43.720387" lon="4.269400">
        <ele>16.764198</ele>
        <time>2018-08-14T10:18:42Z</time>
      </trkpt>
      <trkpt lat="43.717927" lon="4.270883">
        <ele>15.428467</ele>
        <time>2018-08-14T10:18:58Z</time>
      </trkpt>
      <trkpt lat="43.716620" lon="4.271415">
        <ele>17.234240</ele>
        <time>2018-08-14T10:19:13Z</time>
      </trkpt>
      <trkpt lat="43.714363" lon="4.270191">
        <ele>13.518624</ele>
        <time>2018-08-14T10:19:29Z</time>
      </trkpt>
      <trkpt lat="43.712439" lon="4.267304">
        <ele>12.620492</ele>
        <time>2018-08-14T10:19:45Z</time>
      </trkpt>
      <trkpt lat="43.711496" lon="4.265324">
        <ele>12.593842</ele>
        <time>2018-08-14T10:20:01Z</time>
      </trkpt>
      <trkpt lat="43.710292" lon="4.264380">
        <ele>11.677872</ele>
        <time>2018-08-14T10:20:16Z</time>
      </trkpt>
      <trkpt lat="43.708132" lon="4.262724">
        <ele>10.750427</ele>
        <time>2018-08-14T10:20:32Z</time>
      </trkpt>
      <trkpt lat="43.706201" lon="4.261352">
        <ele>11.210844</ele>
        <time>2018-08-14T10:20:47Z</time>
      </trkpt>
      <trkpt lat="43.704501" lon="4.259529">
        <ele>9.921898</ele>
        <time>2018-08-14T10:21:02Z</time>
      </trkpt>
      <trkpt lat="43.702457" lon="4.257169">
        <ele>9.895874</ele>
        <time>2018-08-14T10:21:18Z</time>
      </trkpt>
      <trkpt lat="43.700182" lon="4.254437">
        <ele>9.132507</ele>
        <time>2018-08-14T10:21:34Z</time>
      </trkpt>
      <trkpt lat="43.697275" lon="4.253860">
        <ele>7.532033</ele>
        <time>2018-08-14T10:21:50Z</time>
      </trkpt>
      <trkpt lat="43.694550" lon="4.252413">
        <ele>6.056194</ele>
        <time>2018-08-14T10:22:06Z</time>
      </trkpt>
      <trkpt lat="43.691807" lon="4.251887">
        <ele>8.515173</ele>
        <time>2018-08-14T10:22:22Z</time>
      </trkpt>
      <trkpt lat="43.689265" lon="4.251057">
        <ele>6.473579</ele>
        <time>2018-08-14T10:22:37Z</time>
      </trkpt>
      <trkpt lat="43.687985" lon="4.250590">
        <ele>5.162964</ele>
        <time>2018-08-14T10:22:52Z</time>
      </trkpt>
      <trkpt lat="43.687365" lon="4.247554">
        <ele>8.708740</ele>
        <time>2018-08-14T10:23:08Z</time>
      </trkpt>
      <trkpt lat="43.688245" lon="4.244391">
        <ele>9.037429</ele>
        <time>2018-08-14T10:23:23Z</time>
      </trkpt>
      <trkpt lat="43.688975" lon="4.240865">
        <ele>6.316823</ele>
        <time>2018-08-14T10:23:39Z</time>
      </trkpt>
      <trkpt lat="43.687838" lon="4.237382">
        <ele>8.915796</ele>
        <time>2018-08-14T10:23:55Z</time>
      </trkpt>
      <trkpt lat="43.687195" lon="4.233874">
        <ele>6.917511</ele>
        <time>2018-08-14T10:24:11Z</time>
      </trkpt>
      <trkpt lat="43.687106" lon="4.231733">
        <ele>6.970408</ele>
        <time>2018-08-14T10:24:26Z</time>
      </trkpt>
      <trkpt lat="43.687222" lon="4.228388">
        <ele>4.087897</ele>
        <time>2018-08-14T10:24:42Z</time>
      </trkpt>
      <trkpt lat="43.687156" lon="4.224660">
        <ele>5.592102</ele>
        <time>2018-08-14T10:24:58Z</time>
      </trkpt>
      <trkpt lat="43.687598" lon="4.220895">
        <ele>5.367226</ele>
        <time>2018-08-14T10:25:14Z</time>
      </trkpt>
      <trkpt lat="43.687833" lon="4.217376">
        <ele>5.548187</ele>
        <time>2018-08-14T10:25:29Z</time>
      </trkpt>
      <trkpt lat="43.688224" lon="4.215195">
        <ele>6.134269</ele>
        <time>2018-08-14T10:25:44Z</time>
      </trkpt>
      <trkpt lat="43.687234" lon="4.215288">
        <ele>5.999125</ele>
        <time>2018-08-14T10:26:00Z</time>
      </trkpt>
      <trkpt lat="43.684799" lon="4.215604">
        <ele>5.000000</ele>
        <time>2018-08-14T10:26:15Z</time>
      </trkpt>
      <trkpt lat="43.682431" lon="4.214189">
        <ele>6.915370</ele>
        <time>2018-08-14T10:26:31Z</time>
      </trkpt>
      <trkpt lat="43.680846" lon="4.212710">
        <ele>4.527971</ele>
        <time>2018-08-14T10:26:47Z</time>
      </trkpt>
      <trkpt lat="43.678513" lon="4.210840">
        <ele>4.773091</ele>
        <time>2018-08-14T10:27:03Z</time>
      </trkpt>
      <trkpt lat="43.675696" lon="4.210296">
        <ele>4.106205</ele>
        <time>2018-08-14T10:27:18Z</time>
      </trkpt>
      <trkpt lat="43.672818" lon="4.211224">
        <ele>4.850784</ele>
        <time>2018-08-14T10:27:33Z</time>
      </trkpt>
      <trkpt lat="43.670970" lon="4.211915">
        <ele>4.000000</ele>
        <time>2018-08-14T10:27:48Z</time>
      </trkpt>
      <trkpt lat="43.668626" lon="4.212300">
        <ele>3.408249</ele>
        <time>2018-08-14T10:28:04Z</time>
      </trkpt>
      <trkpt lat="43.665742" lon="4.211278">
        <ele>3.643707</ele>
        <time>2018-08-14T10:28:19Z</time>
      </trkpt>
      <trkpt lat="43.663168" lon="4.208876">
        <ele>3.697906</ele>
        <time>2018-08-14T10:28:34Z</time>
      </trkpt>
      <trkpt lat="43.660730" lon="4.206196">
        <ele>6.801758</ele>
        <time>2018-08-14T10:28:49Z</time>
      </trkpt>
      <trkpt lat="43.658397" lon="4.204077">
        <ele>4.908309</ele>
        <time>2018-08-14T10:29:05Z</time>
      </trkpt>
      <trkpt lat="43.657177" lon="4.203253">
        <ele>3.611877</ele>
        <time>2018-08-14T10:29:20Z</time>
      </trkpt>
      <trkpt lat="43.654516" lon="4.201716">
        <ele>4.000000</ele>
        <time>2018-08-14T10:29:36Z</time>
      </trkpt>
      <trkpt lat="43.651536" lon="4.199993">
        <ele>4.001302</ele>
        <time>2018-08-14T10:29:51Z</time>
      </trkpt>
      <trkpt lat="43.648025" lon="4.197931">
        <ele>4.000000</ele>
        <time>2018-08-14T10:30:07Z</time>
      </trkpt>
      <trkpt lat="43.645030" lon="4.196503">
        <ele>4.782070</ele>
        <time>2018-08-14T10:30:23Z</time>
      </trkpt>
      <trkpt lat="43.642363" lon="4.195313">
        <ele>6.583294</ele>
        <time>2018-08-14T10:30:39Z</time>
      </trkpt>
      <trkpt lat="43.640729" lon="4.194598">
        <ele>6.296144</ele>
        <time>2018-08-14T10:30:54Z</time>
      </trkpt>
      <trkpt lat="43.638434" lon="4.192762">
        <ele>5.396962</ele>
        <time>2018-08-14T10:31:10Z</time>
      </trkpt>
      <trkpt lat="43.635456" lon="4.190489">
        <ele>3.210697</ele>
        <time>2018-08-14T10:31:26Z</time>
      </trkpt>
      <trkpt lat="43.632020" lon="4.189803">
        <ele>2.863886</ele>
        <time>2018-08-14T10:31:42Z</time>
      </trkpt>
      <trkpt lat="43.628980" lon="4.190227">
        <ele>1.918980</ele>
        <time>2018-08-14T10:31:57Z</time>
      </trkpt>
      <trkpt lat="43.626719" lon="4.190675">
        <ele>2.178579</ele>
        <time>2018-08-14T10:32:13Z</time>
      </trkpt>
      <trkpt lat="43.623918" lon="4.190903">
        <ele>1.975119</ele>
        <time>2018-08-14T10:32:28Z</time>
      </trkpt>
      <trkpt lat="43.620810" lon="4.191371">
        <ele>1.018306</ele>
        <time>2018-08-14T10:32:43Z</time>
      </trkpt>
      <trkpt lat="43.617856" lon="4.192087">
        <ele>1.784722</ele>
        <time>2018-08-14T10:32:58Z</time>
      </trkpt>
      <trkpt lat="43.615900" lon="4.192376">
        <ele>1.000000</ele>
        <time>2018-08-14T10:33:14Z</time>
      </trkpt>
      <trkpt lat="43.613170" lon="4.192596">
        <ele>1.288524</ele>
        <time>2018-08-14T10:33:29Z</time>
      </trkpt>
      <trkpt lat="43.609740" lon="4.193152">
        <ele>0.512656</ele>
        <time>2018-08-14T10:33:45Z</time>
      </trkpt>
      <trkpt lat="43.606457" lon="4.193673">
        <ele>0.701976</ele>
        <time>2018-08-14T10:34:00Z</time>
      </trkpt>
      <trkpt lat="43.603198" lon="4.194173">
        <ele>1.166976</ele>
        <time>2018-08-14T10:34:15Z</time>
      </trkpt>
      <trkpt lat="43.599803" lon="4.194800">
        <ele>0.632731</ele>
        <time>2018-08-14T10:34:30Z</time>
      </trkpt>
      <trkpt lat="43.596510" lon="4.195672">
        <ele>1.151455</ele>
        <time>2018-08-14T10:34:45Z</time>
      </trkpt>
      <trkpt lat="43.593070" lon="4.196007">
        <ele>-1.315674</ele>
        <time>2018-08-14T10:35:01Z</time>
      </trkpt>
      <trkpt lat="43.589668" lon="4.195950">
        <ele>1.915689</ele>
        <time>2018-08-14T10:35:17Z</time>
      </trkpt>
      <trkpt lat="43.586386" lon="4.196492">
        <ele>3.049096</ele>
        <time>2018-08-14T10:35:33Z</time>
      </trkpt>
      <trkpt lat="43.583250" lon="4.197274">
        <ele>3.755695</ele>
        <time>2018-08-14T10:35:48Z</time>
      </trkpt>
      <trkpt lat="43.580296" lon="4.197769">
        <ele>2.322205</ele>
        <time>2018-08-14T10:36:03Z</time>
      </trkpt>
      <trkpt lat="43.577976" lon="4.197671">
        <ele>1.000000</ele>
        <time>2018-08-14T10:36:18Z</time>
      </trkpt>
      <trkpt lat="43.577041" lon="4.198282">
        <ele>1.000000</ele>
        <time>2018-08-14T10:36:34Z</time>
      </trkpt>
      <trkpt lat="43.576828" lon="4.198201">
        <ele>1.000000</ele>
        <time>2018-08-14T10:36:51Z</time>
      </trkpt>
      <trkpt lat="43.576957" lon="4.198267">
        <ele>1.000000</ele>
        <time>2018-08-14T10:38:52Z</time>
      </trkpt>
      <trkpt lat="43.576794" lon="4.198431">
        <ele>1.000000</ele>
        <time>2018-08-14T10:39:07Z</time>
      </trkpt>
      <trkpt lat="43.576477" lon="4.198381">
        <ele>1.214036</ele>
        <time>2018-08-14T10:39:22Z</time>
      </trkpt>
      <trkpt lat="43.576038" lon="4.197861">
        <ele>1.327013</ele>
        <time>2018-08-14T10:39:37Z</time>
      </trkpt>
      <trkpt lat="43.575253" lon="4.197023">
        <ele>1.000000</ele>
        <time>2018-08-14T10:39:53Z</time>
      </trkpt>
      <trkpt lat="43.574234" lon="4.195955">
        <ele>1.000000</ele>
        <time>2018-08-14T10:40:08Z</time>
      </trkpt>
      <trkpt lat="43.573664" lon="4.195276">
        <ele>1.265264</ele>
        <time>2018-08-14T10:40:23Z</time>
      </trkpt>
      <trkpt lat="43.572699" lon="4.194171">
        <ele>1.998738</ele>
        <time>2018-08-14T10:40:38Z</time>
      </trkpt>
      <trkpt lat="43.571790" lon="4.192948">
        <ele>1.537689</ele>
        <time>2018-08-14T10:40:53Z</time>
      </trkpt>
      <trkpt lat="43.570852" lon="4.191620">
        <ele>2.054385</ele>
        <time>2018-08-14T10:41:09Z</time>
      </trkpt>
      <trkpt lat="43.570390" lon="4.191465">
        <ele>1.710266</ele>
        <time>2018-08-14T10:41:24Z</time>
      </trkpt>
      <trkpt lat="43.570095" lon="4.191777">
        <ele>1.114075</ele>
        <time>2018-08-14T10:41:39Z</time>
      </trkpt>
      <trkpt lat="43.569710" lon="4.192082">
        <ele>1.519964</ele>
        <time>2018-08-14T10:41:55Z</time>
      </trkpt>
      <trkpt lat="43.569285" lon="4.191887">
        <ele>1.680725</ele>
        <time>2018-08-14T10:42:11Z</time>
      </trkpt>
      <trkpt lat="43.568946" lon="4.191635">
        <ele>1.793030</ele>
        <time>2018-08-14T10:42:26Z</time>
      </trkpt>
      <trkpt lat="43.568493" lon="4.191124">
        <ele>3.426697</ele>
        <time>2018-08-14T10:42:42Z</time>
      </trkpt>
      <trkpt lat="43.568435" lon="4.190953">
        <ele>3.633789</ele>
        <time>2018-08-14T10:43:09Z</time>
      </trkpt>
      <trkpt lat="43.568707" lon="4.190305">
        <ele>1.385040</ele>
        <time>2018-08-14T10:43:25Z</time>
      </trkpt>
      <trkpt lat="43.569071" lon="4.189739">
        <ele>-0.690673</ele>
        <time>2018-08-14T10:43:40Z</time>
      </trkpt>
      <trkpt lat="43.568879" lon="4.189673">
        <ele>-0.100097</ele>
        <time>2018-08-14T10:43:56Z</time>
      </trkpt>
      <trkpt lat="43.568830" lon="4.189977">
        <ele>0.202266</ele>
        <time>2018-08-14T10:44:11Z</time>
      </trkpt>
      <trkpt lat="43.568598" lon="4.190153">
        <ele>1.415558</ele>
        <time>2018-08-14T10:44:32Z</time>
      </trkpt>
      <trkpt lat="43.568545" lon="4.190325">
        <ele>2.019318</ele>
        <time>2018-08-14T10:48:44Z</time>
      </trkpt>
      <trkpt lat="43.568486" lon="4.190513">
        <ele>2.681854</ele>
        <time>2018-08-14T10:49:00Z</time>
      </trkpt>
      <trkpt lat="43.568405" lon="4.190686">
        <ele>3.389099</ele>
        <time>2018-08-14T10:49:15Z</time>
      </trkpt>
      <trkpt lat="43.568339" lon="4.190854">
        <ele>3.978760</ele>
        <time>2018-08-14T10:49:32Z</time>
      </trkpt>
      <trkpt lat="43.568262" lon="4.191012">
        <ele>4.152132</ele>
        <time>2018-08-14T10:49:52Z</time>
      </trkpt>
      <trkpt lat="43.568133" lon="4.191066">
        <ele>4.413515</ele>
        <time>2018-08-14T10:50:17Z</time>
      </trkpt>
      <trkpt lat="43.568031" lon="4.190921">
        <ele>4.686464</ele>
        <time>2018-08-14T10:50:32Z</time>
      </trkpt>
      <trkpt lat="43.567833" lon="4.190833">
        <ele>5.199887</ele>
        <time>2018-08-14T10:50:47Z</time>
      </trkpt>
      <trkpt lat="43.567738" lon="4.190698">
        <ele>5.451390</ele>
        <time>2018-08-14T10:51:29Z</time>
      </trkpt>
      <trkpt lat="43.567626" lon="4.190593">
        <ele>5.854181</ele>
        <time>2018-08-14T10:52:00Z</time>
      </trkpt>
      <trkpt lat="43.567499" lon="4.190531">
        <ele>6.363555</ele>
        <time>2018-08-14T10:52:20Z</time>
      </trkpt>
      <trkpt lat="43.567374" lon="4.190455">
        <ele>6.536638</ele>
        <time>2018-08-14T10:52:37Z</time>
      </trkpt>
      <trkpt lat="43.567251" lon="4.190375">
        <ele>6.684259</ele>
        <time>2018-08-14T10:52:59Z</time>
      </trkpt>
      <trkpt lat="43.567145" lon="4.190261">
        <ele>6.820691</ele>
        <time>2018-08-14T10:53:22Z</time>
      </trkpt>
      <trkpt lat="43.567014" lon="4.190216">
        <ele>6.892134</ele>
        <time>2018-08-14T10:53:45Z</time>
      </trkpt>
      <trkpt lat="43.566877" lon="4.190144">
        <ele>6.956334</ele>
        <time>2018-08-14T10:54:10Z</time>
      </trkpt>
      <trkpt lat="43.566990" lon="4.190254">
        <ele>6.881911</ele>
        <time>2018-08-14T10:58:33Z</time>
      </trkpt>
      <trkpt lat="43.567110" lon="4.190354">
        <ele>6.774333</ele>
        <time>2018-08-14T10:58:51Z</time>
      </trkpt>
      <trkpt lat="43.567239" lon="4.190421">
        <ele>6.653216</ele>
        <time>2018-08-14T10:59:18Z</time>
      </trkpt>
      <trkpt lat="43.567370" lon="4.190501">
        <ele>6.492178</ele>
        <time>2018-08-14T11:00:07Z</time>
      </trkpt>
      <trkpt lat="43.567490" lon="4.190597">
        <ele>6.291991</ele>
        <time>2018-08-14T11:00:23Z</time>
      </trkpt>
      <trkpt lat="43.567591" lon="4.190723">
        <ele>5.870170</ele>
        <time>2018-08-14T11:00:42Z</time>
      </trkpt>
      <trkpt lat="43.567735" lon="4.190783">
        <ele>5.445068</ele>
        <time>2018-08-14T11:00:59Z</time>
      </trkpt>
      <trkpt lat="43.567923" lon="4.190843">
        <ele>4.979732</ele>
        <time>2018-08-14T11:01:15Z</time>
      </trkpt>
      <trkpt lat="43.568035" lon="4.190953">
        <ele>4.665102</ele>
        <time>2018-08-14T11:01:36Z</time>
      </trkpt>
      <trkpt lat="43.568180" lon="4.190994">
        <ele>4.333280</ele>
        <time>2018-08-14T11:01:51Z</time>
      </trkpt>
      <trkpt lat="43.568290" lon="4.190868">
        <ele>4.102094</ele>
        <time>2018-08-14T11:02:17Z</time>
      </trkpt>
      <trkpt lat="43.568370" lon="4.190698">
        <ele>3.541718</ele>
        <time>2018-08-14T11:02:32Z</time>
      </trkpt>
      <trkpt lat="43.568416" lon="4.190497">
        <ele>2.893677</ele>
        <time>2018-08-14T11:02:48Z</time>
      </trkpt>
      <trkpt lat="43.568449" lon="4.190312">
        <ele>2.332581</ele>
        <time>2018-08-14T11:03:04Z</time>
      </trkpt>
      <trkpt lat="43.568560" lon="4.190205">
        <ele>1.675049</ele>
        <time>2018-08-14T11:04:56Z</time>
      </trkpt>
      <trkpt lat="43.568610" lon="4.190401">
        <ele>1.965820</ele>
        <time>2018-08-14T11:08:31Z</time>
      </trkpt>
      <trkpt lat="43.568509" lon="4.190603">
        <ele>2.813477</ele>
        <time>2018-08-14T11:08:46Z</time>
      </trkpt>
      <trkpt lat="43.568183" lon="4.191204">
        <ele>4.279651</ele>
        <time>2018-08-14T11:09:02Z</time>
      </trkpt>
      <trkpt lat="43.568417" lon="4.191113">
        <ele>3.700073</ele>
        <time>2018-08-14T11:09:18Z</time>
      </trkpt>
      <trkpt lat="43.568651" lon="4.190431">
        <ele>1.890381</ele>
        <time>2018-08-14T11:09:33Z</time>
      </trkpt>
      <trkpt lat="43.569143" lon="4.189337">
        <ele>-0.937700</ele>
        <time>2018-08-14T11:09:48Z</time>
      </trkpt>
      <trkpt lat="43.569091" lon="4.188501">
        <ele>0.633482</ele>
        <time>2018-08-14T11:10:04Z</time>
      </trkpt>
      <trkpt lat="43.569139" lon="4.188676">
        <ele>0.204948</ele>
        <time>2018-08-14T11:10:22Z</time>
      </trkpt>
      <trkpt lat="43.569053" lon="4.189439">
        <ele>-0.681954</ele>
        <time>2018-08-14T11:10:37Z</time>
      </trkpt>
      <trkpt lat="43.568917" lon="4.189440">
        <ele>-0.303155</ele>
        <time>2018-08-14T11:10:54Z</time>
      </trkpt>
      <trkpt lat="43.567743" lon="4.188614">
        <ele>1.952868</ele>
        <time>2018-08-14T11:11:10Z</time>
      </trkpt>
      <trkpt lat="43.566201" lon="4.187516">
        <ele>0.722766</ele>
        <time>2018-08-14T11:11:25Z</time>
      </trkpt>
      <trkpt lat="43.565049" lon="4.186420">
        <ele>0.964878</ele>
        <time>2018-08-14T11:11:41Z</time>
      </trkpt>
      <trkpt lat="43.564806" lon="4.186213">
        <ele>1.000000</ele>
        <time>2018-08-14T11:11:56Z</time>
      </trkpt>
      <trkpt lat="43.564745" lon="4.186973">
        <ele>1.560821</ele>
        <time>2018-08-14T11:12:12Z</time>
      </trkpt>
      <trkpt lat="43.564855" lon="4.187135">
        <ele>1.638075</ele>
        <time>2018-08-14T11:12:30Z</time>
      </trkpt>
      <trkpt lat="43.565215" lon="4.187592">
        <ele>2.110046</ele>
        <time>2018-08-14T11:12:46Z</time>
      </trkpt>
      <trkpt lat="43.564768" lon="4.188595">
        <ele>1.912673</ele>
        <time>2018-08-14T11:13:01Z</time>
      </trkpt>
      <trkpt lat="43.564181" lon="4.189800">
        <ele>2.523791</ele>
        <time>2018-08-14T11:13:17Z</time>
      </trkpt>
      <trkpt lat="43.563505" lon="4.191234">
        <ele>-1.392931</ele>
        <time>2018-08-14T11:13:33Z</time>
      </trkpt>
      <trkpt lat="43.562989" lon="4.192368">
        <ele>1.218923</ele>
        <time>2018-08-14T11:13:49Z</time>
      </trkpt>
      <trkpt lat="43.563630" lon="4.193334">
        <ele>2.000000</ele>
        <time>2018-08-14T11:14:04Z</time>
      </trkpt>
      <trkpt lat="43.564561" lon="4.194359">
        <ele>2.727520</ele>
        <time>2018-08-14T11:14:19Z</time>
      </trkpt>
      <trkpt lat="43.564661" lon="4.194568">
        <ele>2.615041</ele>
        <time>2018-08-14T11:14:35Z</time>
      </trkpt>
      <trkpt lat="43.564629" lon="4.194363">
        <ele>2.848258</ele>
        <time>2018-08-14T11:17:04Z</time>
      </trkpt>
      <trkpt lat="43.564052" lon="4.193723">
        <ele>2.000000</ele>
        <time>2018-08-14T11:17:19Z</time>
      </trkpt>
      <trkpt lat="43.563355" lon="4.192940">
        <ele>1.552977</ele>
        <time>2018-08-14T11:17:35Z</time>
      </trkpt>
      <trkpt lat="43.563021" lon="4.192337">
        <ele>1.015378</ele>
        <time>2018-08-14T11:17:51Z</time>
      </trkpt>
      <trkpt lat="43.563437" lon="4.191456">
        <ele>-1.536025</ele>
        <time>2018-08-14T11:18:06Z</time>
      </trkpt>
      <trkpt lat="43.563810" lon="4.190658">
        <ele>0.037933</ele>
        <time>2018-08-14T11:18:22Z</time>
      </trkpt>
      <trkpt lat="43.564282" lon="4.189674">
        <ele>2.271626</ele>
        <time>2018-08-14T11:18:37Z</time>
      </trkpt>
      <trkpt lat="43.564688" lon="4.188815">
        <ele>1.783361</ele>
        <time>2018-08-14T11:18:53Z</time>
      </trkpt>
      <trkpt lat="43.565281" lon="4.187603">
        <ele>2.123413</ele>
        <time>2018-08-14T11:19:09Z</time>
      </trkpt>
      <trkpt lat="43.565149" lon="4.187221">
        <ele>1.725001</ele>
        <time>2018-08-14T11:19:24Z</time>
      </trkpt>
      <trkpt lat="43.564775" lon="4.186576">
        <ele>1.000000</ele>
        <time>2018-08-14T11:19:39Z</time>
      </trkpt>
      <trkpt lat="43.564882" lon="4.186355">
        <ele>1.000000</ele>
        <time>2018-08-14T11:19:58Z</time>
      </trkpt>
      <trkpt lat="43.563990" lon="4.185843">
        <ele>0.995131</ele>
        <time>2018-08-14T11:20:13Z</time>
      </trkpt>
      <trkpt lat="43.562025" lon="4.185265">
        <ele>-0.363281</ele>
        <time>2018-08-14T11:20:29Z</time>
      </trkpt>
      <trkpt lat="43.560220" lon="4.184451">
        <ele>1.000000</ele>
        <time>2018-08-14T11:20:44Z</time>
      </trkpt>
      <trkpt lat="43.558586" lon="4.183229">
        <ele>-0.037856</ele>
        <time>2018-08-14T11:21:00Z</time>
      </trkpt>
      <trkpt lat="43.557747" lon="4.182527">
        <ele>1.000000</ele>
        <time>2018-08-14T11:21:16Z</time>
      </trkpt>
      <trkpt lat="43.557234" lon="4.182604">
        <ele>1.403845</ele>
        <time>2018-08-14T11:21:32Z</time>
      </trkpt>
      <trkpt lat="43.557565" lon="4.182917">
        <ele>1.000000</ele>
        <time>2018-08-14T11:21:48Z</time>
      </trkpt>
      <trkpt lat="43.557795" lon="4.183180">
        <ele>1.000000</ele>
        <time>2018-08-14T11:22:03Z</time>
      </trkpt>
      <trkpt lat="43.557943" lon="4.183594">
        <ele>-0.166030</ele>
        <time>2018-08-14T11:22:19Z</time>
      </trkpt>
      <trkpt lat="43.557917" lon="4.183778">
        <ele>-0.266926</ele>
        <time>2018-08-14T11:30:24Z</time>
      </trkpt>
      <trkpt lat="43.557925" lon="4.183575">
        <ele>-0.148045</ele>
        <time>2018-08-14T11:30:42Z</time>
      </trkpt>
      <trkpt lat="43.557683" lon="4.183017">
        <ele>1.000000</ele>
        <time>2018-08-14T11:30:57Z</time>
      </trkpt>
      <trkpt lat="43.557332" lon="4.182611">
        <ele>1.308429</ele>
        <time>2018-08-14T11:31:13Z</time>
      </trkpt>
      <trkpt lat="43.557238" lon="4.182751">
        <ele>1.520195</ele>
        <time>2018-08-14T11:32:55Z</time>
      </trkpt>
      <trkpt lat="43.557563" lon="4.183147">
        <ele>1.000000</ele>
        <time>2018-08-14T11:33:10Z</time>
      </trkpt>
      <trkpt lat="43.557458" lon="4.183277">
        <ele>1.935917</ele>
        <time>2018-08-14T11:35:04Z</time>
      </trkpt>
      <trkpt lat="43.557241" lon="4.183022">
        <ele>1.742181</ele>
        <time>2018-08-14T11:35:19Z</time>
      </trkpt>
      <trkpt lat="43.557743" lon="4.183147">
        <ele>1.000000</ele>
        <time>2018-08-14T11:35:34Z</time>
      </trkpt>
      <trkpt lat="43.557919" lon="4.183591">
        <ele>-0.155187</ele>
        <time>2018-08-14T11:35:50Z</time>
      </trkpt>
      <trkpt lat="43.557881" lon="4.183394">
        <ele>-0.033187</ele>
        <time>2018-08-14T11:38:49Z</time>
      </trkpt>
      <trkpt lat="43.557762" lon="4.183308">
        <ele>1.000000</ele>
        <time>2018-08-14T11:39:04Z</time>
      </trkpt>
      <trkpt lat="43.557627" lon="4.183240">
        <ele>1.000000</ele>
        <time>2018-08-14T11:39:29Z</time>
      </trkpt>
      <trkpt lat="43.557609" lon="4.183427">
        <ele>-0.014700</ele>
        <time>2018-08-14T11:45:55Z</time>
      </trkpt>
      <trkpt lat="43.557476" lon="4.183394">
        <ele>1.997870</ele>
        <time>2018-08-14T12:05:22Z</time>
      </trkpt>
      <trkpt lat="43.557334" lon="4.183381">
        <ele>1.988699</ele>
        <time>2018-08-14T12:06:08Z</time>
      </trkpt>
      <trkpt lat="43.557434" lon="4.183506">
        <ele>1.983669</ele>
        <time>2018-08-14T12:15:49Z</time>
      </trkpt>
      <trkpt lat="43.557274" lon="4.183536">
        <ele>1.934210</ele>
        <time>2018-08-14T12:18:02Z</time>
      </trkpt>
      <trkpt lat="43.557491" lon="4.183693">
        <ele>1.995236</ele>
        <time>2018-08-14T12:18:18Z</time>
      </trkpt>
      <trkpt lat="43.557683" lon="4.184341">
        <ele>-0.336711</ele>
        <time>2018-08-14T12:18:33Z</time>
      </trkpt>
      <trkpt lat="43.557617" lon="4.185057">
        <ele>-0.620834</ele>
        <time>2018-08-14T12:18:48Z</time>
      </trkpt>
      <trkpt lat="43.557155" lon="4.185672">
        <ele>0.773413</ele>
        <time>2018-08-14T12:19:04Z</time>
      </trkpt>
      <trkpt lat="43.556516" lon="4.186102">
        <ele>1.000000</ele>
        <time>2018-08-14T12:19:19Z</time>
      </trkpt>
      <trkpt lat="43.555913" lon="4.186854">
        <ele>1.000000</ele>
        <time>2018-08-14T12:19:35Z</time>
      </trkpt>
      <trkpt lat="43.555475" lon="4.187541">
        <ele>0.851547</ele>
        <time>2018-08-14T12:19:51Z</time>
      </trkpt>
      <trkpt lat="43.554822" lon="4.187435">
        <ele>0.410516</ele>
        <time>2018-08-14T12:20:06Z</time>
      </trkpt>
      <trkpt lat="43.554159" lon="4.187181">
        <ele>-0.848240</ele>
        <time>2018-08-14T12:20:21Z</time>
      </trkpt>
      <trkpt lat="43.553583" lon="4.186729">
        <ele>1.424838</ele>
        <time>2018-08-14T12:20:36Z</time>
      </trkpt>
      <trkpt lat="43.553180" lon="4.186184">
        <ele>1.602224</ele>
        <time>2018-08-14T12:20:52Z</time>
      </trkpt>
      <trkpt lat="43.552502" lon="4.186147">
        <ele>-0.240366</ele>
        <time>2018-08-14T12:21:08Z</time>
      </trkpt>
      <trkpt lat="43.551646" lon="4.186351">
        <ele>3.006017</ele>
        <time>2018-08-14T12:21:24Z</time>
      </trkpt>
      <trkpt lat="43.550902" lon="4.186540">
        <ele>3.638438</ele>
        <time>2018-08-14T12:21:39Z</time>
      </trkpt>
      <trkpt lat="43.550128" lon="4.186726">
        <ele>3.631886</ele>
        <time>2018-08-14T12:21:55Z</time>
      </trkpt>
      <trkpt lat="43.549598" lon="4.187172">
        <ele>-1.468381</ele>
        <time>2018-08-14T12:22:10Z</time>
      </trkpt>
      <trkpt lat="43.549567" lon="4.187354">
        <ele>-1.525971</ele>
        <time>2018-08-14T12:22:32Z</time>
      </trkpt>
      <trkpt lat="43.549604" lon="4.187754">
        <ele>-1.475220</ele>
        <time>2018-08-14T12:22:47Z</time>
      </trkpt>
      <trkpt lat="43.549934" lon="4.188496">
        <ele>-1.079224</ele>
        <time>2018-08-14T12:23:03Z</time>
      </trkpt>
      <trkpt lat="43.550365" lon="4.189277">
        <ele>2.727073</ele>
        <time>2018-08-14T12:23:18Z</time>
      </trkpt>
      <trkpt lat="43.550824" lon="4.190057">
        <ele>-1.010986</ele>
        <time>2018-08-14T12:23:34Z</time>
      </trkpt>
      <trkpt lat="43.551267" lon="4.190828">
        <ele>-1.003411</ele>
        <time>2018-08-14T12:23:49Z</time>
      </trkpt>
      <trkpt lat="43.551607" lon="4.191463">
        <ele>-1.755966</ele>
        <time>2018-08-14T12:24:04Z</time>
      </trkpt>
      <trkpt lat="43.551702" lon="4.191641">
        <ele>-2.012421</ele>
        <time>2018-08-14T12:24:20Z</time>
      </trkpt>
      <trkpt lat="43.551674" lon="4.191833">
        <ele>-1.811604</ele>
        <time>2018-08-14T12:25:19Z</time>
      </trkpt>
      <trkpt lat="43.551291" lon="4.192208">
        <ele>-1.643062</ele>
        <time>2018-08-14T12:25:34Z</time>
      </trkpt>
      <trkpt lat="43.550795" lon="4.192689">
        <ele>-2.000000</ele>
        <time>2018-08-14T12:25:49Z</time>
      </trkpt>
      <trkpt lat="43.550220" lon="4.193233">
        <ele>-2.000000</ele>
        <time>2018-08-14T12:26:04Z</time>
      </trkpt>
      <trkpt lat="43.549676" lon="4.193794">
        <ele>-2.000000</ele>
        <time>2018-08-14T12:26:19Z</time>
      </trkpt>
      <trkpt lat="43.548999" lon="4.194402">
        <ele>-2.000000</ele>
        <time>2018-08-14T12:26:35Z</time>
      </trkpt>
      <trkpt lat="43.548378" lon="4.195010">
        <ele>-2.000000</ele>
        <time>2018-08-14T12:26:51Z</time>
      </trkpt>
      <trkpt lat="43.547771" lon="4.195640">
        <ele>-2.000000</ele>
        <time>2018-08-14T12:27:07Z</time>
      </trkpt>
      <trkpt lat="43.547219" lon="4.196185">
        <ele>-2.000000</ele>
        <time>2018-08-14T12:27:22Z</time>
      </trkpt>
      <trkpt lat="43.546580" lon="4.196679">
        <ele>-2.000000</ele>
        <time>2018-08-14T12:27:37Z</time>
      </trkpt>
      <trkpt lat="43.546057" lon="4.197293">
        <ele>-2.000000</ele>
        <time>2018-08-14T12:27:53Z</time>
      </trkpt>
      <trkpt lat="43.545576" lon="4.197751">
        <ele>-2.000000</ele>
        <time>2018-08-14T12:28:08Z</time>
      </trkpt>
      <trkpt lat="43.544960" lon="4.198336">
        <ele>-2.000000</ele>
        <time>2018-08-14T12:28:24Z</time>
      </trkpt>
      <trkpt lat="43.544380" lon="4.198923">
        <ele>-2.000000</ele>
        <time>2018-08-14T12:28:39Z</time>
      </trkpt>
      <trkpt lat="43.543723" lon="4.199548">
        <ele>-2.000000</ele>
        <time>2018-08-14T12:28:55Z</time>
      </trkpt>
      <trkpt lat="43.543034" lon="4.200179">
        <ele>-2.000000</ele>
        <time>2018-08-14T12:29:10Z</time>
      </trkpt>
      <trkpt lat="43.542355" lon="4.200844">
        <ele>-2.000000</ele>
        <time>2018-08-14T12:29:26Z</time>
      </trkpt>
      <trkpt lat="43.541811" lon="4.201447">
        <ele>-2.000000</ele>
        <time>2018-08-14T12:29:41Z</time>
      </trkpt>
      <trkpt lat="43.541105" lon="4.202103">
        <ele>-2.000000</ele>
        <time>2018-08-14T12:29:57Z</time>
      </trkpt>
      <trkpt lat="43.540494" lon="4.202693">
        <ele>-2.000000</ele>
        <time>2018-08-14T12:30:12Z</time>
      </trkpt>
      <trkpt lat="43.539921" lon="4.203319">
        <ele>-2.000000</ele>
        <time>2018-08-14T12:30:28Z</time>
      </trkpt>
      <trkpt lat="43.539297" lon="4.203888">
        <ele>-2.000000</ele>
        <time>2018-08-14T12:30:43Z</time>
      </trkpt>
      <trkpt lat="43.538668" lon="4.204466">
        <ele>-2.000000</ele>
        <time>2018-08-14T12:30:58Z</time>
      </trkpt>
      <trkpt lat="43.538057" lon="4.205039">
        <ele>-1.953445</ele>
        <time>2018-08-14T12:31:14Z</time>
      </trkpt>
      <trkpt lat="43.537727" lon="4.205663">
        <ele>-1.204498</ele>
        <time>2018-08-14T12:31:29Z</time>
      </trkpt>
      <trkpt lat="43.537744" lon="4.205848">
        <ele>-0.987906</ele>
        <time>2018-08-14T12:32:11Z</time>
      </trkpt>
      <trkpt lat="43.537482" lon="4.206536">
        <ele>-0.177628</ele>
        <time>2018-08-14T12:32:26Z</time>
      </trkpt>
      <trkpt lat="43.536991" lon="4.207193">
        <ele>-0.610229</ele>
        <time>2018-08-14T12:32:41Z</time>
      </trkpt>
      <trkpt lat="43.536518" lon="4.207729">
        <ele>-0.191462</ele>
        <time>2018-08-14T12:32:56Z</time>
      </trkpt>
      <trkpt lat="43.536056" lon="4.207538">
        <ele>0.490104</ele>
        <time>2018-08-14T12:33:12Z</time>
      </trkpt>
      <trkpt lat="43.535821" lon="4.206664">
        <ele>-2.000000</ele>
        <time>2018-08-14T12:33:27Z</time>
      </trkpt>
      <trkpt lat="43.535534" lon="4.205806">
        <ele>-2.000000</ele>
        <time>2018-08-14T12:33:43Z</time>
      </trkpt>
      <trkpt lat="43.535245" lon="4.204971">
        <ele>-2.000000</ele>
        <time>2018-08-14T12:33:58Z</time>
      </trkpt>
      <trkpt lat="43.534998" lon="4.204215">
        <ele>-2.000000</ele>
        <time>2018-08-14T12:34:13Z</time>
      </trkpt>
      <trkpt lat="43.534771" lon="4.203394">
        <ele>-2.000000</ele>
        <time>2018-08-14T12:34:29Z</time>
      </trkpt>
      <trkpt lat="43.534622" lon="4.202493">
        <ele>-2.000000</ele>
        <time>2018-08-14T12:34:44Z</time>
      </trkpt>
      <trkpt lat="43.534579" lon="4.201579">
        <ele>-2.000000</ele>
        <time>2018-08-14T12:34:59Z</time>
      </trkpt>
      <trkpt lat="43.534655" lon="4.200657">
        <ele>-2.000000</ele>
        <time>2018-08-14T12:35:14Z</time>
      </trkpt>
      <trkpt lat="43.534874" lon="4.199651">
        <ele>-2.000000</ele>
        <time>2018-08-14T12:35:30Z</time>
      </trkpt>
      <trkpt lat="43.535338" lon="4.198701">
        <ele>-2.000000</ele>
        <time>2018-08-14T12:35:46Z</time>
      </trkpt>
      <trkpt lat="43.535830" lon="4.197919">
        <ele>-2.000000</ele>
        <time>2018-08-14T12:36:01Z</time>
      </trkpt>
      <trkpt lat="43.536398" lon="4.197283">
        <ele>-2.000000</ele>
        <time>2018-08-14T12:36:16Z</time>
      </trkpt>
      <trkpt lat="43.536881" lon="4.196660">
        <ele>-2.000000</ele>
        <time>2018-08-14T12:36:31Z</time>
      </trkpt>
      <trkpt lat="43.537451" lon="4.196054">
        <ele>-2.000000</ele>
        <time>2018-08-14T12:36:47Z</time>
      </trkpt>
      <trkpt lat="43.537972" lon="4.195478">
        <ele>-2.000000</ele>
        <time>2018-08-14T12:37:02Z</time>
      </trkpt>
      <trkpt lat="43.538487" lon="4.194941">
        <ele>-1.274223</ele>
        <time>2018-08-14T12:37:17Z</time>
      </trkpt>
      <trkpt lat="43.539052" lon="4.194372">
        <ele>0.898242</ele>
        <time>2018-08-14T12:37:33Z</time>
      </trkpt>
      <trkpt lat="43.539656" lon="4.193730">
        <ele>-1.019574</ele>
        <time>2018-08-14T12:37:49Z</time>
      </trkpt>
      <trkpt lat="43.540183" lon="4.193095">
        <ele>-0.780151</ele>
        <time>2018-08-14T12:38:04Z</time>
      </trkpt>
      <trkpt lat="43.540757" lon="4.192452">
        <ele>0.827265</ele>
        <time>2018-08-14T12:38:20Z</time>
      </trkpt>
      <trkpt lat="43.541335" lon="4.191838">
        <ele>1.000000</ele>
        <time>2018-08-14T12:38:36Z</time>
      </trkpt>
      <trkpt lat="43.541867" lon="4.191249">
        <ele>0.239192</ele>
        <time>2018-08-14T12:38:51Z</time>
      </trkpt>
      <trkpt lat="43.542421" lon="4.190626">
        <ele>-0.320201</ele>
        <time>2018-08-14T12:39:07Z</time>
      </trkpt>
      <trkpt lat="43.542974" lon="4.190048">
        <ele>-0.406394</ele>
        <time>2018-08-14T12:39:22Z</time>
      </trkpt>
      <trkpt lat="43.543498" lon="4.189462">
        <ele>0.000000</ele>
        <time>2018-08-14T12:39:37Z</time>
      </trkpt>
      <trkpt lat="43.543944" lon="4.188940">
        <ele>1.000000</ele>
        <time>2018-08-14T12:39:52Z</time>
      </trkpt>
      <trkpt lat="43.544579" lon="4.188301">
        <ele>0.960946</ele>
        <time>2018-08-14T12:40:08Z</time>
      </trkpt>
      <trkpt lat="43.544935" lon="4.187536">
        <ele>0.850976</ele>
        <time>2018-08-14T12:40:23Z</time>
      </trkpt>
      <trkpt lat="43.544795" lon="4.186619">
        <ele>1.246053</ele>
        <time>2018-08-14T12:40:39Z</time>
      </trkpt>
      <trkpt lat="43.544747" lon="4.185837">
        <ele>1.000427</ele>
        <time>2018-08-14T12:40:55Z</time>
      </trkpt>
      <trkpt lat="43.545066" lon="4.184981">
        <ele>1.922853</ele>
        <time>2018-08-14T12:41:11Z</time>
      </trkpt>
      <trkpt lat="43.545241" lon="4.184199">
        <ele>1.988925</ele>
        <time>2018-08-14T12:41:26Z</time>
      </trkpt>
      <trkpt lat="43.545318" lon="4.183847">
        <ele>1.323915</ele>
        <time>2018-08-14T12:41:41Z</time>
      </trkpt>
      <trkpt lat="43.545352" lon="4.183640">
        <ele>0.834701</ele>
        <time>2018-08-14T12:43:39Z</time>
      </trkpt>
      <trkpt lat="43.545436" lon="4.183086">
        <ele>0.264090</ele>
        <time>2018-08-14T12:43:54Z</time>
      </trkpt>
      <trkpt lat="43.545716" lon="4.182462">
        <ele>0.921551</ele>
        <time>2018-08-14T12:44:09Z</time>
      </trkpt>
      <trkpt lat="43.546289" lon="4.182637">
        <ele>-1.791745</ele>
        <time>2018-08-14T12:44:24Z</time>
      </trkpt>
      <trkpt lat="43.546899" lon="4.182803">
        <ele>-3.079834</ele>
        <time>2018-08-14T12:44:39Z</time>
      </trkpt>
      <trkpt lat="43.547625" lon="4.183030">
        <ele>-1.214752</ele>
        <time>2018-08-14T12:44:55Z</time>
      </trkpt>
      <trkpt lat="43.548243" lon="4.183234">
        <ele>-0.228058</ele>
        <time>2018-08-14T12:45:10Z</time>
      </trkpt>
      <trkpt lat="43.548466" lon="4.182690">
        <ele>-0.931381</ele>
        <time>2018-08-14T12:45:26Z</time>
      </trkpt>
      <trkpt lat="43.548604" lon="4.181911">
        <ele>-1.801912</ele>
        <time>2018-08-14T12:45:41Z</time>
      </trkpt>
      <trkpt lat="43.548666" lon="4.181122">
        <ele>-1.081475</ele>
        <time>2018-08-14T12:45:56Z</time>
      </trkpt>
      <trkpt lat="43.548365" lon="4.180610">
        <ele>0.859910</ele>
        <time>2018-08-14T12:46:12Z</time>
      </trkpt>
      <trkpt lat="43.548620" lon="4.180491">
        <ele>-0.235895</ele>
        <time>2018-08-14T12:46:34Z</time>
      </trkpt>
      <trkpt lat="43.548749" lon="4.180550">
        <ele>-0.826466</ele>
        <time>2018-08-14T12:47:28Z</time>
      </trkpt>
      <trkpt lat="43.548853" lon="4.180671">
        <ele>-1.373866</ele>
        <time>2018-08-14T12:48:28Z</time>
      </trkpt>
      <trkpt lat="43.548816" lon="4.180854">
        <ele>-1.332020</ele>
        <time>2018-08-14T12:48:52Z</time>
      </trkpt>
      <trkpt lat="43.548682" lon="4.180819">
        <ele>-0.664208</ele>
        <time>2018-08-14T12:52:22Z</time>
      </trkpt>
      <trkpt lat="43.548734" lon="4.180640">
        <ele>-0.811238</ele>
        <time>2018-08-14T12:58:17Z</time>
      </trkpt>
      <trkpt lat="43.548859" lon="4.180715">
        <ele>-1.432992</ele>
        <time>2018-08-14T12:58:39Z</time>
      </trkpt>
      <trkpt lat="43.548829" lon="4.180907">
        <ele>-1.436137</ele>
        <time>2018-08-14T12:59:08Z</time>
      </trkpt>
      <trkpt lat="43.548729" lon="4.181096">
        <ele>-1.246890</ele>
        <time>2018-08-14T12:59:23Z</time>
      </trkpt>
      <trkpt lat="43.548841" lon="4.180989">
        <ele>-1.543214</ele>
        <time>2018-08-14T13:01:17Z</time>
      </trkpt>
      <trkpt lat="43.548865" lon="4.180774">
        <ele>-1.506050</ele>
        <time>2018-08-14T13:01:33Z</time>
      </trkpt>
      <trkpt lat="43.548789" lon="4.180600">
        <ele>-1.032568</ele>
        <time>2018-08-14T13:01:49Z</time>
      </trkpt>
      <trkpt lat="43.548651" lon="4.180538">
        <ele>-0.389426</ele>
        <time>2018-08-14T13:02:04Z</time>
      </trkpt>
      <trkpt lat="43.548792" lon="4.180543">
        <ele>-1.008345</ele>
        <time>2018-08-14T13:04:14Z</time>
      </trkpt>
      <trkpt lat="43.548821" lon="4.181012">
        <ele>-1.483473</ele>
        <time>2018-08-14T13:04:29Z</time>
      </trkpt>
      <trkpt lat="43.548617" lon="4.181724">
        <ele>-1.954417</ele>
        <time>2018-08-14T13:04:44Z</time>
      </trkpt>
      <trkpt lat="43.548504" lon="4.182500">
        <ele>-1.205064</ele>
        <time>2018-08-14T13:04:59Z</time>
      </trkpt>
      <trkpt lat="43.548498" lon="4.183272">
        <ele>-0.270554</ele>
        <time>2018-08-14T13:05:15Z</time>
      </trkpt>
      <trkpt lat="43.548102" lon="4.183703">
        <ele>-0.598511</ele>
        <time>2018-08-14T13:05:30Z</time>
      </trkpt>
      <trkpt lat="43.547456" lon="4.183871">
        <ele>-1.071705</ele>
        <time>2018-08-14T13:05:46Z</time>
      </trkpt>
      <trkpt lat="43.546902" lon="4.184009">
        <ele>-1.852980</ele>
        <time>2018-08-14T13:06:01Z</time>
      </trkpt>
      <trkpt lat="43.546311" lon="4.184144">
        <ele>-1.174240</ele>
        <time>2018-08-14T13:06:16Z</time>
      </trkpt>
      <trkpt lat="43.545753" lon="4.184334">
        <ele>1.818835</ele>
        <time>2018-08-14T13:06:31Z</time>
      </trkpt>
      <trkpt lat="43.545227" lon="4.184513">
        <ele>1.887146</ele>
        <time>2018-08-14T13:06:47Z</time>
      </trkpt>
      <trkpt lat="43.544990" lon="4.185129">
        <ele>1.845383</ele>
        <time>2018-08-14T13:07:02Z</time>
      </trkpt>
      <trkpt lat="43.544754" lon="4.185911">
        <ele>1.010729</ele>
        <time>2018-08-14T13:07:18Z</time>
      </trkpt>
      <trkpt lat="43.544894" lon="4.186606">
        <ele>1.572039</ele>
        <time>2018-08-14T13:07:33Z</time>
      </trkpt>
      <trkpt lat="43.545254" lon="4.187161">
        <ele>1.587762</ele>
        <time>2018-08-14T13:07:49Z</time>
      </trkpt>
      <trkpt lat="43.545287" lon="4.186854">
        <ele>1.852635</ele>
        <time>2018-08-14T13:08:08Z</time>
      </trkpt>
      <trkpt lat="43.545423" lon="4.186859">
        <ele>1.886399</ele>
        <time>2018-08-14T13:08:27Z</time>
      </trkpt>
      <trkpt lat="43.545588" lon="4.186828">
        <ele>1.943100</ele>
        <time>2018-08-14T13:08:43Z</time>
      </trkpt>
      <trkpt lat="43.545727" lon="4.186804">
        <ele>1.978992</ele>
        <time>2018-08-14T13:09:01Z</time>
      </trkpt>
      <trkpt lat="43.545854" lon="4.186736">
        <ele>1.969485</ele>
        <time>2018-08-14T13:09:24Z</time>
      </trkpt>
      <trkpt lat="43.545991" lon="4.186713">
        <ele>1.779141</ele>
        <time>2018-08-14T13:09:45Z</time>
      </trkpt>
      <trkpt lat="43.546132" lon="4.186691">
        <ele>1.609454</ele>
        <time>2018-08-14T13:10:02Z</time>
      </trkpt>
      <trkpt lat="43.546270" lon="4.186673">
        <ele>1.464994</ele>
        <time>2018-08-14T13:10:18Z</time>
      </trkpt>
      <trkpt lat="43.546132" lon="4.186722">
        <ele>1.570499</ele>
        <time>2018-08-14T13:16:05Z</time>
      </trkpt>
      <trkpt lat="43.545976" lon="4.186754">
        <ele>1.774369</ele>
        <time>2018-08-14T13:16:21Z</time>
      </trkpt>
      <trkpt lat="43.545833" lon="4.186787">
        <ele>1.999877</ele>
        <time>2018-08-14T13:16:37Z</time>
      </trkpt>
      <trkpt lat="43.545687" lon="4.186833">
        <ele>1.964941</ele>
        <time>2018-08-14T13:16:52Z</time>
      </trkpt>
      <trkpt lat="43.545513" lon="4.186872">
        <ele>1.905365</ele>
        <time>2018-08-14T13:17:08Z</time>
      </trkpt>
      <trkpt lat="43.545347" lon="4.186840">
        <ele>1.878261</ele>
        <time>2018-08-14T13:17:23Z</time>
      </trkpt>
      <trkpt lat="43.545238" lon="4.186702">
        <ele>1.969599</ele>
        <time>2018-08-14T13:21:16Z</time>
      </trkpt>
      <trkpt lat="43.545115" lon="4.186945">
        <ele>1.712104</ele>
        <time>2018-08-14T13:21:32Z</time>
      </trkpt>
      <trkpt lat="43.545503" lon="4.187716">
        <ele>1.000000</ele>
        <time>2018-08-14T13:21:48Z</time>
      </trkpt>
      <trkpt lat="43.545987" lon="4.187782">
        <ele>-0.368042</ele>
        <time>2018-08-14T13:22:03Z</time>
      </trkpt>
      <trkpt lat="43.546594" lon="4.187515">
        <ele>-1.826538</ele>
        <time>2018-08-14T13:22:19Z</time>
      </trkpt>
      <trkpt lat="43.547242" lon="4.187335">
        <ele>-1.407059</ele>
        <time>2018-08-14T13:22:34Z</time>
      </trkpt>
      <trkpt lat="43.547949" lon="4.187133">
        <ele>-1.355930</ele>
        <time>2018-08-14T13:22:50Z</time>
      </trkpt>
      <trkpt lat="43.548542" lon="4.186963">
        <ele>-1.679343</ele>
        <time>2018-08-14T13:23:05Z</time>
      </trkpt>
      <trkpt lat="43.549175" lon="4.186807">
        <ele>-2.803687</ele>
        <time>2018-08-14T13:23:21Z</time>
      </trkpt>
      <trkpt lat="43.549776" lon="4.186645">
        <ele>0.672261</ele>
        <time>2018-08-14T13:23:37Z</time>
      </trkpt>
      <trkpt lat="43.550392" lon="4.186521">
        <ele>3.651184</ele>
        <time>2018-08-14T13:23:52Z</time>
      </trkpt>
      <trkpt lat="43.551029" lon="4.186361">
        <ele>3.204799</ele>
        <time>2018-08-14T13:24:08Z</time>
      </trkpt>
      <trkpt lat="43.551731" lon="4.186240">
        <ele>2.765033</ele>
        <time>2018-08-14T13:24:23Z</time>
      </trkpt>
      <trkpt lat="43.552492" lon="4.185992">
        <ele>-0.587044</ele>
        <time>2018-08-14T13:24:39Z</time>
      </trkpt>
      <trkpt lat="43.553112" lon="4.185961">
        <ele>1.283089</ele>
        <time>2018-08-14T13:24:54Z</time>
      </trkpt>
      <trkpt lat="43.553347" lon="4.186375">
        <ele>1.989365</ele>
        <time>2018-08-14T13:25:10Z</time>
      </trkpt>
      <trkpt lat="43.553708" lon="4.187026">
        <ele>0.018159</ele>
        <time>2018-08-14T13:25:25Z</time>
      </trkpt>
      <trkpt lat="43.554294" lon="4.187272">
        <ele>-0.845243</ele>
        <time>2018-08-14T13:25:40Z</time>
      </trkpt>
      <trkpt lat="43.554999" lon="4.187482">
        <ele>0.996057</ele>
        <time>2018-08-14T13:25:56Z</time>
      </trkpt>
      <trkpt lat="43.555465" lon="4.187522">
        <ele>0.921219</ele>
        <time>2018-08-14T13:26:11Z</time>
      </trkpt>
      <trkpt lat="43.555597" lon="4.187469">
        <ele>1.000000</ele>
        <time>2018-08-14T13:27:16Z</time>
      </trkpt>
      <trkpt lat="43.555834" lon="4.187026">
        <ele>1.000000</ele>
        <time>2018-08-14T13:27:32Z</time>
      </trkpt>
      <trkpt lat="43.556152" lon="4.186475">
        <ele>1.000000</ele>
        <time>2018-08-14T13:27:47Z</time>
      </trkpt>
      <trkpt lat="43.556674" lon="4.185969">
        <ele>1.830981</ele>
        <time>2018-08-14T13:28:03Z</time>
      </trkpt>
      <trkpt lat="43.557291" lon="4.185595">
        <ele>0.570950</ele>
        <time>2018-08-14T13:28:18Z</time>
      </trkpt>
      <trkpt lat="43.557651" lon="4.184776">
        <ele>-0.647712</ele>
        <time>2018-08-14T13:28:34Z</time>
      </trkpt>
      <trkpt lat="43.557595" lon="4.184030">
        <ele>-0.095505</ele>
        <time>2018-08-14T13:28:50Z</time>
      </trkpt>
      <trkpt lat="43.557610" lon="4.183817">
        <ele>-0.076463</ele>
        <time>2018-08-14T13:29:11Z</time>
      </trkpt>
      <trkpt lat="43.557645" lon="4.183627">
        <ele>-0.061357</ele>
        <time>2018-08-14T13:29:44Z</time>
      </trkpt>
      <trkpt lat="43.557707" lon="4.183457">
        <ele>-0.036866</ele>
        <time>2018-08-14T13:30:08Z</time>
      </trkpt>
      <trkpt lat="43.557622" lon="4.183311">
        <ele>1.000000</ele>
        <time>2018-08-14T13:33:32Z</time>
      </trkpt>
      <trkpt lat="43.557530" lon="4.183454">
        <ele>-0.005247</ele>
        <time>2018-08-14T13:33:47Z</time>
      </trkpt>
      <trkpt lat="43.557599" lon="4.183292">
        <ele>1.000000</ele>
        <time>2018-08-14T13:59:07Z</time>
      </trkpt>
      <trkpt lat="43.557763" lon="4.183324">
        <ele>1.000000</ele>
        <time>2018-08-14T13:59:23Z</time>
      </trkpt>
      <trkpt lat="43.557924" lon="4.183366">
        <ele>-0.019808</ele>
        <time>2018-08-14T13:59:39Z</time>
      </trkpt>
      <trkpt lat="43.557975" lon="4.183544">
        <ele>-0.144191</ele>
        <time>2018-08-14T13:59:55Z</time>
      </trkpt>
      <trkpt lat="43.557970" lon="4.183351">
        <ele>-0.012102</ele>
        <time>2018-08-14T14:12:21Z</time>
      </trkpt>
      <trkpt lat="43.557416" lon="4.182772">
        <ele>1.393771</ele>
        <time>2018-08-14T14:12:36Z</time>
      </trkpt>
      <trkpt lat="43.557779" lon="4.182625">
        <ele>1.000000</ele>
        <time>2018-08-14T14:12:52Z</time>
      </trkpt>
      <trkpt lat="43.558617" lon="4.183272">
        <ele>-0.025145</ele>
        <time>2018-08-14T14:13:08Z</time>
      </trkpt>
      <trkpt lat="43.557467" lon="4.181893">
        <ele>1.010862</ele>
        <time>2018-08-14T14:13:24Z</time>
      </trkpt>
      <trkpt lat="43.556260" lon="4.179757">
        <ele>-2.024780</ele>
        <time>2018-08-14T14:13:39Z</time>
      </trkpt>
      <trkpt lat="43.555088" lon="4.177667">
        <ele>0.597577</ele>
        <time>2018-08-14T14:13:55Z</time>
      </trkpt>
      <trkpt lat="43.553635" lon="4.174702">
        <ele>-0.078170</ele>
        <time>2018-08-14T14:14:11Z</time>
      </trkpt>
      <trkpt lat="43.552253" lon="4.171453">
        <ele>2.324695</ele>
        <time>2018-08-14T14:14:27Z</time>
      </trkpt>
      <trkpt lat="43.550784" lon="4.167974">
        <ele>2.413969</ele>
        <time>2018-08-14T14:14:42Z</time>
      </trkpt>
      <trkpt lat="43.549264" lon="4.164390">
        <ele>1.000000</ele>
        <time>2018-08-14T14:14:58Z</time>
      </trkpt>
      <trkpt lat="43.547809" lon="4.160957">
        <ele>-1.315321</ele>
        <time>2018-08-14T14:15:13Z</time>
      </trkpt>
      <trkpt lat="43.546284" lon="4.157488">
        <ele>0.984216</ele>
        <time>2018-08-14T14:15:28Z</time>
      </trkpt>
      <trkpt lat="43.544727" lon="4.153971">
        <ele>-2.148130</ele>
        <time>2018-08-14T14:15:43Z</time>
      </trkpt>
      <trkpt lat="43.543365" lon="4.150862">
        <ele>-1.925049</ele>
        <time>2018-08-14T14:15:59Z</time>
      </trkpt>
      <trkpt lat="43.542924" lon="4.149748">
        <ele>-0.436922</ele>
        <time>2018-08-14T14:16:14Z</time>
      </trkpt>
      <trkpt lat="43.542443" lon="4.148688">
        <ele>0.942189</ele>
        <time>2018-08-14T14:16:29Z</time>
      </trkpt>
      <trkpt lat="43.542059" lon="4.147807">
        <ele>1.000000</ele>
        <time>2018-08-14T14:16:44Z</time>
      </trkpt>
      <trkpt lat="43.541356" lon="4.146219">
        <ele>-0.010088</ele>
        <time>2018-08-14T14:16:59Z</time>
      </trkpt>
      <trkpt lat="43.540905" lon="4.145302">
        <ele>-0.644854</ele>
        <time>2018-08-14T14:17:15Z</time>
      </trkpt>
      <trkpt lat="43.540496" lon="4.144500">
        <ele>-0.594849</ele>
        <time>2018-08-14T14:17:36Z</time>
      </trkpt>
      <trkpt lat="43.540162" lon="4.143792">
        <ele>0.786180</ele>
        <time>2018-08-14T14:17:52Z</time>
      </trkpt>
      <trkpt lat="43.540159" lon="4.143043">
        <ele>1.000000</ele>
        <time>2018-08-14T14:18:07Z</time>
      </trkpt>
      <trkpt lat="43.541228" lon="4.142040">
        <ele>0.442239</ele>
        <time>2018-08-14T14:18:22Z</time>
      </trkpt>
      <trkpt lat="43.542990" lon="4.140529">
        <ele>-0.231340</ele>
        <time>2018-08-14T14:18:38Z</time>
      </trkpt>
      <trkpt lat="43.545297" lon="4.139620">
        <ele>2.512647</ele>
        <time>2018-08-14T14:18:54Z</time>
      </trkpt>
      <trkpt lat="43.547387" lon="4.140002">
        <ele>-0.007278</ele>
        <time>2018-08-14T14:19:09Z</time>
      </trkpt>
      <trkpt lat="43.549262" lon="4.140706">
        <ele>4.930481</ele>
        <time>2018-08-14T14:19:24Z</time>
      </trkpt>
      <trkpt lat="43.550559" lon="4.140235">
        <ele>1.574509</ele>
        <time>2018-08-14T14:19:39Z</time>
      </trkpt>
      <trkpt lat="43.551058" lon="4.139663">
        <ele>1.890741</ele>
        <time>2018-08-14T14:19:55Z</time>
      </trkpt>
      <trkpt lat="43.550373" lon="4.138846">
        <ele>0.655397</ele>
        <time>2018-08-14T14:20:10Z</time>
      </trkpt>
      <trkpt lat="43.549541" lon="4.136136">
        <ele>1.636459</ele>
        <time>2018-08-14T14:20:25Z</time>
      </trkpt>
      <trkpt lat="43.549404" lon="4.133637">
        <ele>3.132154</ele>
        <time>2018-08-14T14:20:41Z</time>
      </trkpt>
      <trkpt lat="43.551692" lon="4.132694">
        <ele>1.256512</ele>
        <time>2018-08-14T14:20:57Z</time>
      </trkpt>
      <trkpt lat="43.553300" lon="4.130743">
        <ele>1.970795</ele>
        <time>2018-08-14T14:21:13Z</time>
      </trkpt>
      <trkpt lat="43.552552" lon="4.127662">
        <ele>1.880133</ele>
        <time>2018-08-14T14:21:29Z</time>
      </trkpt>
      <trkpt lat="43.551234" lon="4.124715">
        <ele>2.986536</ele>
        <time>2018-08-14T14:21:44Z</time>
      </trkpt>
      <trkpt lat="43.550421" lon="4.120747">
        <ele>4.702998</ele>
        <time>2018-08-14T14:22:00Z</time>
      </trkpt>
      <trkpt lat="43.551287" lon="4.118114">
        <ele>6.376040</ele>
        <time>2018-08-14T14:22:15Z</time>
      </trkpt>
      <trkpt lat="43.552056" lon="4.115212">
        <ele>2.525116</ele>
        <time>2018-08-14T14:22:31Z</time>
      </trkpt>
      <trkpt lat="43.553207" lon="4.111786">
        <ele>2.000000</ele>
        <time>2018-08-14T14:22:46Z</time>
      </trkpt>
      <trkpt lat="43.554431" lon="4.109076">
        <ele>1.716893</ele>
        <time>2018-08-14T14:23:02Z</time>
      </trkpt>
      <trkpt lat="43.554883" lon="4.107548">
        <ele>2.000000</ele>
        <time>2018-08-14T14:23:18Z</time>
      </trkpt>
      <trkpt lat="43.555446" lon="4.104641">
        <ele>2.799839</ele>
        <time>2018-08-14T14:23:33Z</time>
      </trkpt>
      <trkpt lat="43.556263" lon="4.101489">
        <ele>2.752939</ele>
        <time>2018-08-14T14:23:48Z</time>
      </trkpt>
      <trkpt lat="43.556930" lon="4.099908">
        <ele>5.648843</ele>
        <time>2018-08-14T14:24:04Z</time>
      </trkpt>
      <trkpt lat="43.558271" lon="4.098785">
        <ele>4.000000</ele>
        <time>2018-08-14T14:24:20Z</time>
      </trkpt>
      <trkpt lat="43.560037" lon="4.097460">
        <ele>4.038803</ele>
        <time>2018-08-14T14:24:36Z</time>
      </trkpt>
      <trkpt lat="43.561496" lon="4.096300">
        <ele>4.096098</ele>
        <time>2018-08-14T14:24:52Z</time>
      </trkpt>
      <trkpt lat="43.563021" lon="4.094734">
        <ele>5.954863</ele>
        <time>2018-08-14T14:25:07Z</time>
      </trkpt>
      <trkpt lat="43.563379" lon="4.091804">
        <ele>4.467907</ele>
        <time>2018-08-14T14:25:22Z</time>
      </trkpt>
      <trkpt lat="43.563585" lon="4.088549">
        <ele>7.835022</ele>
        <time>2018-08-14T14:25:38Z</time>
      </trkpt>
      <trkpt lat="43.563753" lon="4.086118">
        <ele>5.335640</ele>
        <time>2018-08-14T14:25:54Z</time>
      </trkpt>
      <trkpt lat="43.563761" lon="4.085863">
        <ele>5.009689</ele>
        <time>2018-08-14T14:27:17Z</time>
      </trkpt>
      <trkpt lat="43.564010" lon="4.083014">
        <ele>7.391083</ele>
        <time>2018-08-14T14:27:33Z</time>
      </trkpt>
      <trkpt lat="43.564535" lon="4.080544">
        <ele>5.442261</ele>
        <time>2018-08-14T14:27:49Z</time>
      </trkpt>
      <trkpt lat="43.564519" lon="4.080343">
        <ele>5.423401</ele>
        <time>2018-08-14T14:28:23Z</time>
      </trkpt>
      <trkpt lat="43.563757" lon="4.079784">
        <ele>6.869176</ele>
        <time>2018-08-14T14:28:38Z</time>
      </trkpt>
      <trkpt lat="43.562965" lon="4.080166">
        <ele>7.115723</ele>
        <time>2018-08-14T14:28:54Z</time>
      </trkpt>
      <trkpt lat="43.562470" lon="4.079964">
        <ele>6.272700</ele>
        <time>2018-08-14T14:29:09Z</time>
      </trkpt>
      <trkpt lat="43.561492" lon="4.077687">
        <ele>6.851246</ele>
        <time>2018-08-14T14:29:25Z</time>
      </trkpt>
      <trkpt lat="43.561343" lon="4.077297">
        <ele>6.034812</ele>
        <time>2018-08-14T14:30:28Z</time>
      </trkpt>
      <trkpt lat="43.561379" lon="4.074981">
        <ele>4.014802</ele>
        <time>2018-08-14T14:30:44Z</time>
      </trkpt>
      <trkpt lat="43.561561" lon="4.072242">
        <ele>4.253784</ele>
        <time>2018-08-14T14:30:59Z</time>
      </trkpt>
      <trkpt lat="43.561536" lon="4.072044">
        <ele>4.313354</ele>
        <time>2018-08-14T14:31:22Z</time>
      </trkpt>
      <trkpt lat="43.561574" lon="4.071771">
        <ele>4.221436</ele>
        <time>2018-08-14T14:32:11Z</time>
      </trkpt>
      <trkpt lat="43.561789" lon="4.068955">
        <ele>5.598724</ele>
        <time>2018-08-14T14:32:27Z</time>
      </trkpt>
      <trkpt lat="43.561994" lon="4.065749">
        <ele>5.900129</ele>
        <time>2018-08-14T14:32:43Z</time>
      </trkpt>
      <trkpt lat="43.562138" lon="4.063709">
        <ele>5.956923</ele>
        <time>2018-08-14T14:32:58Z</time>
      </trkpt>
      <trkpt lat="43.562173" lon="4.063437">
        <ele>5.704874</ele>
        <time>2018-08-14T14:33:26Z</time>
      </trkpt>
      <trkpt lat="43.562394" lon="4.060880">
        <ele>5.929398</ele>
        <time>2018-08-14T14:33:42Z</time>
      </trkpt>
      <trkpt lat="43.561548" lon="4.058552">
        <ele>3.225129</ele>
        <time>2018-08-14T14:33:57Z</time>
      </trkpt>
      <trkpt lat="43.559993" lon="4.057806">
        <ele>3.257226</ele>
        <time>2018-08-14T14:34:13Z</time>
      </trkpt>
      <trkpt lat="43.558771" lon="4.057421">
        <ele>2.089847</ele>
        <time>2018-08-14T14:34:29Z</time>
      </trkpt>
      <trkpt lat="43.558385" lon="4.056275">
        <ele>3.434956</ele>
        <time>2018-08-14T14:34:44Z</time>
      </trkpt>
      <trkpt lat="43.558372" lon="4.054896">
        <ele>2.787730</ele>
        <time>2018-08-14T14:35:00Z</time>
      </trkpt>
      <trkpt lat="43.558353" lon="4.053759">
        <ele>1.988016</ele>
        <time>2018-08-14T14:35:15Z</time>
      </trkpt>
      <trkpt lat="43.558343" lon="4.053089">
        <ele>2.602990</ele>
        <time>2018-08-14T14:35:30Z</time>
      </trkpt>
      <trkpt lat="43.558291" lon="4.051672">
        <ele>5.988393</ele>
        <time>2018-08-14T14:35:46Z</time>
      </trkpt>
      <trkpt lat="43.558277" lon="4.051449">
        <ele>6.000000</ele>
        <time>2018-08-14T14:36:31Z</time>
      </trkpt>
      <trkpt lat="43.558134" lon="4.049935">
        <ele>5.701552</ele>
        <time>2018-08-14T14:36:47Z</time>
      </trkpt>
      <trkpt lat="43.557993" lon="4.048290">
        <ele>4.151692</ele>
        <time>2018-08-14T14:37:03Z</time>
      </trkpt>
      <trkpt lat="43.557848" lon="4.046641">
        <ele>2.466345</ele>
        <time>2018-08-14T14:37:18Z</time>
      </trkpt>
      <trkpt lat="43.557836" lon="4.046377">
        <ele>2.959169</ele>
        <time>2018-08-14T14:37:34Z</time>
      </trkpt>
      <trkpt lat="43.557717" lon="4.044900">
        <ele>1.578917</ele>
        <time>2018-08-14T14:37:50Z</time>
      </trkpt>
      <trkpt lat="43.557593" lon="4.043300">
        <ele>2.964626</ele>
        <time>2018-08-14T14:38:05Z</time>
      </trkpt>
      <trkpt lat="43.557479" lon="4.041688">
        <ele>2.926540</ele>
        <time>2018-08-14T14:38:20Z</time>
      </trkpt>
      <trkpt lat="43.557375" lon="4.040130">
        <ele>3.590722</ele>
        <time>2018-08-14T14:38:36Z</time>
      </trkpt>
      <trkpt lat="43.557300" lon="4.039041">
        <ele>4.278748</ele>
        <time>2018-08-14T14:38:51Z</time>
      </trkpt>
      <trkpt lat="43.557234" lon="4.038152">
        <ele>3.826412</ele>
        <time>2018-08-14T14:39:06Z</time>
      </trkpt>
      <trkpt lat="43.557143" lon="4.036867">
        <ele>2.171777</ele>
        <time>2018-08-14T14:39:22Z</time>
      </trkpt>
      <trkpt lat="43.557042" lon="4.035265">
        <ele>3.143533</ele>
        <time>2018-08-14T14:39:37Z</time>
      </trkpt>
      <trkpt lat="43.557566" lon="4.033871">
        <ele>2.028214</ele>
        <time>2018-08-14T14:39:53Z</time>
      </trkpt>
      <trkpt lat="43.558277" lon="4.033140">
        <ele>2.700008</ele>
        <time>2018-08-14T14:40:08Z</time>
      </trkpt>
      <trkpt lat="43.559011" lon="4.032413">
        <ele>3.579942</ele>
        <time>2018-08-14T14:40:23Z</time>
      </trkpt>
      <trkpt lat="43.560323" lon="4.030456">
        <ele>1.000000</ele>
        <time>2018-08-14T14:40:39Z</time>
      </trkpt>
      <trkpt lat="43.558945" lon="4.028105">
        <ele>2.871973</ele>
        <time>2018-08-14T14:40:54Z</time>
      </trkpt>
      <trkpt lat="43.558194" lon="4.024332">
        <ele>1.365021</ele>
        <time>2018-08-14T14:41:09Z</time>
      </trkpt>
      <trkpt lat="43.557222" lon="4.018626">
        <ele>1.549365</ele>
        <time>2018-08-14T14:41:24Z</time>
      </trkpt>
      <trkpt lat="43.556019" lon="4.013201">
        <ele>1.331116</ele>
        <time>2018-08-14T14:41:39Z</time>
      </trkpt>
      <trkpt lat="43.554617" lon="4.007895">
        <ele>2.564615</ele>
        <time>2018-08-14T14:41:54Z</time>
      </trkpt>
      <trkpt lat="43.553335" lon="4.003207">
        <ele>1.000000</ele>
        <time>2018-08-14T14:42:10Z</time>
      </trkpt>
      <trkpt lat="43.552564" lon="3.998117">
        <ele>1.296288</ele>
        <time>2018-08-14T14:42:25Z</time>
      </trkpt>
      <trkpt lat="43.552324" lon="3.993332">
        <ele>-0.573703</ele>
        <time>2018-08-14T14:42:41Z</time>
      </trkpt>
      <trkpt lat="43.551257" lon="3.989406">
        <ele>1.286621</ele>
        <time>2018-08-14T14:42:57Z</time>
      </trkpt>
      <trkpt lat="43.549635" lon="3.985441">
        <ele>2.231878</ele>
        <time>2018-08-14T14:43:13Z</time>
      </trkpt>
      <trkpt lat="43.549678" lon="3.980750">
        <ele>3.286682</ele>
        <time>2018-08-14T14:43:29Z</time>
      </trkpt>
      <trkpt lat="43.550950" lon="3.976710">
        <ele>3.268572</ele>
        <time>2018-08-14T14:43:45Z</time>
      </trkpt>
      <trkpt lat="43.551173" lon="3.972521">
        <ele>0.807925</ele>
        <time>2018-08-14T14:44:00Z</time>
      </trkpt>
      <trkpt lat="43.552796" lon="3.968954">
        <ele>2.735713</ele>
        <time>2018-08-14T14:44:16Z</time>
      </trkpt>
      <trkpt lat="43.555468" lon="3.966417">
        <ele>3.577759</ele>
        <time>2018-08-14T14:44:31Z</time>
      </trkpt>
      <trkpt lat="43.558048" lon="3.964021">
        <ele>0.956506</ele>
        <time>2018-08-14T14:44:46Z</time>
      </trkpt>
      <trkpt lat="43.560816" lon="3.961535">
        <ele>2.017844</ele>
        <time>2018-08-14T14:45:02Z</time>
      </trkpt>
      <trkpt lat="43.564134" lon="3.958788">
        <ele>2.079224</ele>
        <time>2018-08-14T14:45:18Z</time>
      </trkpt>
      <trkpt lat="43.566950" lon="3.956539">
        <ele>3.611179</ele>
        <time>2018-08-14T14:45:33Z</time>
      </trkpt>
      <trkpt lat="43.570302" lon="3.955824">
        <ele>2.286865</ele>
        <time>2018-08-14T14:45:49Z</time>
      </trkpt>
      <trkpt lat="43.573334" lon="3.953757">
        <ele>2.507776</ele>
        <time>2018-08-14T14:46:04Z</time>
      </trkpt>
      <trkpt lat="43.575570" lon="3.950324">
        <ele>1.351151</ele>
        <time>2018-08-14T14:46:19Z</time>
      </trkpt>
      <trkpt lat="43.578207" lon="3.946861">
        <ele>1.000000</ele>
        <time>2018-08-14T14:46:35Z</time>
      </trkpt>
      <trkpt lat="43.580927" lon="3.944107">
        <ele>4.007971</ele>
        <time>2018-08-14T14:46:50Z</time>
      </trkpt>
      <trkpt lat="43.583785" lon="3.941936">
        <ele>6.646850</ele>
        <time>2018-08-14T14:47:05Z</time>
      </trkpt>
      <trkpt lat="43.586866" lon="3.940628">
        <ele>8.239014</ele>
        <time>2018-08-14T14:47:21Z</time>
      </trkpt>
      <trkpt lat="43.589779" lon="3.940211">
        <ele>11.296641</ele>
        <time>2018-08-14T14:47:36Z</time>
      </trkpt>
      <trkpt lat="43.592811" lon="3.940302">
        <ele>12.838786</ele>
        <time>2018-08-14T14:47:52Z</time>
      </trkpt>
      <trkpt lat="43.595336" lon="3.940355">
        <ele>15.425659</ele>
        <time>2018-08-14T14:48:07Z</time>
      </trkpt>
      <trkpt lat="43.598599" lon="3.939972">
        <ele>21.614910</ele>
        <time>2018-08-14T14:48:23Z</time>
      </trkpt>
      <trkpt lat="43.601650" lon="3.938731">
        <ele>32.864166</ele>
        <time>2018-08-14T14:48:38Z</time>
      </trkpt>
      <trkpt lat="43.604184" lon="3.936779">
        <ele>36.575974</ele>
        <time>2018-08-14T14:48:53Z</time>
      </trkpt>
      <trkpt lat="43.606485" lon="3.934010">
        <ele>43.760033</ele>
        <time>2018-08-14T14:49:09Z</time>
      </trkpt>
      <trkpt lat="43.607638" lon="3.932002">
        <ele>45.569805</ele>
        <time>2018-08-14T14:49:24Z</time>
      </trkpt>
      <trkpt lat="43.607931" lon="3.931141">
        <ele>45.225471</ele>
        <time>2018-08-14T14:49:40Z</time>
      </trkpt>
      <trkpt lat="43.608526" lon="3.929625">
        <ele>42.781128</ele>
        <time>2018-08-14T14:49:56Z</time>
      </trkpt>
      <trkpt lat="43.607865" lon="3.929156">
        <ele>41.445129</ele>
        <time>2018-08-14T14:50:11Z</time>
      </trkpt>
      <trkpt lat="43.607528" lon="3.929572">
        <ele>41.989681</ele>
        <time>2018-08-14T14:50:26Z</time>
      </trkpt>
      <trkpt lat="43.607201" lon="3.930665">
        <ele>43.656532</ele>
        <time>2018-08-14T14:50:41Z</time>
      </trkpt>
      <trkpt lat="43.605335" lon="3.930226">
        <ele>39.933289</ele>
        <time>2018-08-14T14:50:56Z</time>
      </trkpt>
      <trkpt lat="43.603619" lon="3.926342">
        <ele>29.866661</ele>
        <time>2018-08-14T14:51:12Z</time>
      </trkpt>
      <trkpt lat="43.601655" lon="3.921548">
        <ele>24.870464</ele>
        <time>2018-08-14T14:51:28Z</time>
      </trkpt>
      <trkpt lat="43.599736" lon="3.917326">
        <ele>24.536222</ele>
        <time>2018-08-14T14:51:44Z</time>
      </trkpt>
      <trkpt lat="43.597923" lon="3.913488">
        <ele>24.334263</ele>
        <time>2018-08-14T14:51:59Z</time>
      </trkpt>
      <trkpt lat="43.596091" lon="3.909672">
        <ele>12.495268</ele>
        <time>2018-08-14T14:52:14Z</time>
      </trkpt>
      <trkpt lat="43.594221" lon="3.905998">
        <ele>14.774768</ele>
        <time>2018-08-14T14:52:29Z</time>
      </trkpt>
      <trkpt lat="43.592237" lon="3.902063">
        <ele>13.552483</ele>
        <time>2018-08-14T14:52:45Z</time>
      </trkpt>
      <trkpt lat="43.590322" lon="3.898371">
        <ele>11.431274</ele>
        <time>2018-08-14T14:53:00Z</time>
      </trkpt>
      <trkpt lat="43.587959" lon="3.894516">
        <ele>12.231099</ele>
        <time>2018-08-14T14:53:16Z</time>
      </trkpt>
      <trkpt lat="43.585575" lon="3.891272">
        <ele>9.620312</ele>
        <time>2018-08-14T14:53:31Z</time>
      </trkpt>
      <trkpt lat="43.583010" lon="3.887862">
        <ele>11.109085</ele>
        <time>2018-08-14T14:53:47Z</time>
      </trkpt>
      <trkpt lat="43.580624" lon="3.884666">
        <ele>10.952003</ele>
        <time>2018-08-14T14:54:02Z</time>
      </trkpt>
      <trkpt lat="43.578127" lon="3.881331">
        <ele>11.652868</ele>
        <time>2018-08-14T14:54:18Z</time>
      </trkpt>
      <trkpt lat="43.575671" lon="3.877959">
        <ele>6.963208</ele>
        <time>2018-08-14T14:54:34Z</time>
      </trkpt>
      <trkpt lat="43.573824" lon="3.874650">
        <ele>16.502445</ele>
        <time>2018-08-14T14:54:50Z</time>
      </trkpt>
      <trkpt lat="43.572625" lon="3.871023">
        <ele>19.722109</ele>
        <time>2018-08-14T14:55:05Z</time>
      </trkpt>
      <trkpt lat="43.571893" lon="3.867203">
        <ele>16.713379</ele>
        <time>2018-08-14T14:55:21Z</time>
      </trkpt>
      <trkpt lat="43.571382" lon="3.863251">
        <ele>17.348061</ele>
        <time>2018-08-14T14:55:36Z</time>
      </trkpt>
      <trkpt lat="43.570830" lon="3.859100">
        <ele>12.087652</ele>
        <time>2018-08-14T14:55:51Z</time>
      </trkpt>
      <trkpt lat="43.570109" lon="3.854831">
        <ele>14.822089</ele>
        <time>2018-08-14T14:56:07Z</time>
      </trkpt>
      <trkpt lat="43.569257" lon="3.850915">
        <ele>22.892063</ele>
        <time>2018-08-14T14:56:22Z</time>
      </trkpt>
      <trkpt lat="43.568339" lon="3.846725">
        <ele>20.935890</ele>
        <time>2018-08-14T14:56:38Z</time>
      </trkpt>
      <trkpt lat="43.567434" lon="3.842734">
        <ele>21.395157</ele>
        <time>2018-08-14T14:56:53Z</time>
      </trkpt>
      <trkpt lat="43.566345" lon="3.838946">
        <ele>25.010756</ele>
        <time>2018-08-14T14:57:08Z</time>
      </trkpt>
      <trkpt lat="43.564993" lon="3.835151">
        <ele>31.849049</ele>
        <time>2018-08-14T14:57:24Z</time>
      </trkpt>
      <trkpt lat="43.563575" lon="3.832370">
        <ele>31.739502</ele>
        <time>2018-08-14T14:57:40Z</time>
      </trkpt>
      <trkpt lat="43.562407" lon="3.830353">
        <ele>32.507225</ele>
        <time>2018-08-14T14:57:55Z</time>
      </trkpt>
      <trkpt lat="43.562108" lon="3.829871">
        <ele>34.816727</ele>
        <time>2018-08-14T14:58:11Z</time>
      </trkpt>
      <trkpt lat="43.561988" lon="3.829774">
        <ele>35.229736</ele>
        <time>2018-08-14T14:59:35Z</time>
      </trkpt>
      <trkpt lat="43.561885" lon="3.829647">
        <ele>35.436890</ele>
        <time>2018-08-14T15:00:45Z</time>
      </trkpt>
      <trkpt lat="43.560694" lon="3.827848">
        <ele>30.652998</ele>
        <time>2018-08-14T15:01:00Z</time>
      </trkpt>
      <trkpt lat="43.558277" lon="3.825239">
        <ele>28.889076</ele>
        <time>2018-08-14T15:01:16Z</time>
      </trkpt>
      <trkpt lat="43.555181" lon="3.822250">
        <ele>21.633762</ele>
        <time>2018-08-14T15:01:32Z</time>
      </trkpt>
      <trkpt lat="43.552673" lon="3.818005">
        <ele>15.558393</ele>
        <time>2018-08-14T15:01:48Z</time>
      </trkpt>
      <trkpt lat="43.551244" lon="3.812867">
        <ele>27.602173</ele>
        <time>2018-08-14T15:02:03Z</time>
      </trkpt>
      <trkpt lat="43.550842" lon="3.807580">
        <ele>44.745529</ele>
        <time>2018-08-14T15:02:19Z</time>
      </trkpt>
      <trkpt lat="43.550184" lon="3.802592">
        <ele>42.520676</ele>
        <time>2018-08-14T15:02:34Z</time>
      </trkpt>
      <trkpt lat="43.548619" lon="3.797883">
        <ele>45.422974</ele>
        <time>2018-08-14T15:02:50Z</time>
      </trkpt>
      <trkpt lat="43.548075" lon="3.795924">
        <ele>47.757565</ele>
        <time>2018-08-14T15:03:05Z</time>
      </trkpt>
      <trkpt lat="43.548076" lon="3.795539">
        <ele>47.446636</ele>
        <time>2018-08-14T15:03:20Z</time>
      </trkpt>
      <trkpt lat="43.548051" lon="3.795340">
        <ele>47.269920</ele>
        <time>2018-08-14T15:07:00Z</time>
      </trkpt>
      <trkpt lat="43.547883" lon="3.795283">
        <ele>47.155849</ele>
        <time>2018-08-14T15:11:12Z</time>
      </trkpt>
      <trkpt lat="43.547199" lon="3.794846">
        <ele>46.513855</ele>
        <time>2018-08-14T15:11:28Z</time>
      </trkpt>
      <trkpt lat="43.546373" lon="3.794331">
        <ele>46.519619</ele>
        <time>2018-08-14T15:11:44Z</time>
      </trkpt>
      <trkpt lat="43.544599" lon="3.792041">
        <ele>46.898415</ele>
        <time>2018-08-14T15:11:59Z</time>
      </trkpt>
      <trkpt lat="43.542089" lon="3.788477">
        <ele>48.144531</ele>
        <time>2018-08-14T15:12:14Z</time>
      </trkpt>
      <trkpt lat="43.539544" lon="3.784995">
        <ele>51.989059</ele>
        <time>2018-08-14T15:12:29Z</time>
      </trkpt>
      <trkpt lat="43.536359" lon="3.781663">
        <ele>53.845825</ele>
        <time>2018-08-14T15:12:45Z</time>
      </trkpt>
      <trkpt lat="43.533369" lon="3.778331">
        <ele>53.822811</ele>
        <time>2018-08-14T15:13:01Z</time>
      </trkpt>
      <trkpt lat="43.530738" lon="3.774197">
        <ele>56.905823</ele>
        <time>2018-08-14T15:13:17Z</time>
      </trkpt>
      <trkpt lat="43.528193" lon="3.769995">
        <ele>64.013832</ele>
        <time>2018-08-14T15:13:33Z</time>
      </trkpt>
      <trkpt lat="43.525876" lon="3.765903">
        <ele>57.025547</ele>
        <time>2018-08-14T15:13:49Z</time>
      </trkpt>
      <trkpt lat="43.523765" lon="3.761838">
        <ele>56.970520</ele>
        <time>2018-08-14T15:14:05Z</time>
      </trkpt>
      <trkpt lat="43.521711" lon="3.757709">
        <ele>62.577995</ele>
        <time>2018-08-14T15:14:20Z</time>
      </trkpt>
      <trkpt lat="43.518904" lon="3.752344">
        <ele>69.507301</ele>
        <time>2018-08-14T15:14:36Z</time>
      </trkpt>
      <trkpt lat="43.515421" lon="3.748145">
        <ele>73.297577</ele>
        <time>2018-08-14T15:14:52Z</time>
      </trkpt>
      <trkpt lat="43.511732" lon="3.744618">
        <ele>83.970551</ele>
        <time>2018-08-14T15:15:08Z</time>
      </trkpt>
      <trkpt lat="43.508591" lon="3.740492">
        <ele>87.024918</ele>
        <time>2018-08-14T15:15:23Z</time>
      </trkpt>
      <trkpt lat="43.505619" lon="3.735430">
        <ele>81.577942</ele>
        <time>2018-08-14T15:15:39Z</time>
      </trkpt>
      <trkpt lat="43.502636" lon="3.730377">
        <ele>80.372063</ele>
        <time>2018-08-14T15:15:55Z</time>
      </trkpt>
      <trkpt lat="43.499442" lon="3.725752">
        <ele>80.582153</ele>
        <time>2018-08-14T15:16:11Z</time>
      </trkpt>
      <trkpt lat="43.496078" lon="3.721952">
        <ele>73.487183</ele>
        <time>2018-08-14T15:16:26Z</time>
      </trkpt>
      <trkpt lat="43.492539" lon="3.718194">
        <ele>62.968941</ele>
        <time>2018-08-14T15:16:42Z</time>
      </trkpt>
      <trkpt lat="43.489560" lon="3.713915">
        <ele>52.351753</ele>
        <time>2018-08-14T15:16:57Z</time>
      </trkpt>
      <trkpt lat="43.487550" lon="3.709207">
        <ele>46.597099</ele>
        <time>2018-08-14T15:17:12Z</time>
      </trkpt>
      <trkpt lat="43.486410" lon="3.704526">
        <ele>35.574806</ele>
        <time>2018-08-14T15:17:27Z</time>
      </trkpt>
      <trkpt lat="43.485459" lon="3.699195">
        <ele>20.617859</ele>
        <time>2018-08-14T15:17:43Z</time>
      </trkpt>
      <trkpt lat="43.484566" lon="3.694632">
        <ele>20.174097</ele>
        <time>2018-08-14T15:17:59Z</time>
      </trkpt>
      <trkpt lat="43.483366" lon="3.690497">
        <ele>27.466196</ele>
        <time>2018-08-14T15:18:15Z</time>
      </trkpt>
      <trkpt lat="43.482226" lon="3.686390">
        <ele>22.785622</ele>
        <time>2018-08-14T15:18:31Z</time>
      </trkpt>
      <trkpt lat="43.481956" lon="3.683230">
        <ele>25.819397</ele>
        <time>2018-08-14T15:18:47Z</time>
      </trkpt>
      <trkpt lat="43.479824" lon="3.684046">
        <ele>20.357206</ele>
        <time>2018-08-14T15:19:03Z</time>
      </trkpt>
      <trkpt lat="43.477931" lon="3.684762">
        <ele>16.820158</ele>
        <time>2018-08-14T15:19:18Z</time>
      </trkpt>
      <trkpt lat="43.477523" lon="3.684936">
        <ele>17.456854</ele>
        <time>2018-08-14T15:19:33Z</time>
      </trkpt>
      <trkpt lat="43.477305" lon="3.685068">
        <ele>18.154453</ele>
        <time>2018-08-14T15:20:20Z</time>
      </trkpt>
      <trkpt lat="43.475942" lon="3.685694">
        <ele>19.029068</ele>
        <time>2018-08-14T15:20:36Z</time>
      </trkpt>
      <trkpt lat="43.473823" lon="3.684805">
        <ele>9.376648</ele>
        <time>2018-08-14T15:20:52Z</time>
      </trkpt>
      <trkpt lat="43.472137" lon="3.682234">
        <ele>4.563782</ele>
        <time>2018-08-14T15:21:08Z</time>
      </trkpt>
      <trkpt lat="43.471009" lon="3.678210">
        <ele>3.476591</ele>
        <time>2018-08-14T15:21:23Z</time>
      </trkpt>
      <trkpt lat="43.469187" lon="3.674586">
        <ele>5.045551</ele>
        <time>2018-08-14T15:21:39Z</time>
      </trkpt>
      <trkpt lat="43.467399" lon="3.671416">
        <ele>-0.120667</ele>
        <time>2018-08-14T15:21:54Z</time>
      </trkpt>
      <trkpt lat="43.465223" lon="3.668590">
        <ele>2.102418</ele>
        <time>2018-08-14T15:22:09Z</time>
      </trkpt>
      <trkpt lat="43.462591" lon="3.666040">
        <ele>3.449163</ele>
        <time>2018-08-14T15:22:25Z</time>
      </trkpt>
      <trkpt lat="43.459797" lon="3.663363">
        <ele>16.761475</ele>
        <time>2018-08-14T15:22:40Z</time>
      </trkpt>
      <trkpt lat="43.456903" lon="3.660656">
        <ele>33.561035</ele>
        <time>2018-08-14T15:22:56Z</time>
      </trkpt>
      <trkpt lat="43.454810" lon="3.657284">
        <ele>21.830868</ele>
        <time>2018-08-14T15:23:12Z</time>
      </trkpt>
      <trkpt lat="43.453849" lon="3.655198">
        <ele>23.088917</ele>
        <time>2018-08-14T15:23:27Z</time>
      </trkpt>
      <trkpt lat="43.453602" lon="3.654544">
        <ele>24.317627</ele>
        <time>2018-08-14T15:23:50Z</time>
      </trkpt>
      <trkpt lat="43.453497" lon="3.654361">
        <ele>24.407166</ele>
        <time>2018-08-14T15:25:22Z</time>
      </trkpt>
      <trkpt lat="43.452577" lon="3.652491">
        <ele>19.069500</ele>
        <time>2018-08-14T15:25:38Z</time>
      </trkpt>
      <trkpt lat="43.451172" lon="3.649430">
        <ele>14.654360</ele>
        <time>2018-08-14T15:25:53Z</time>
      </trkpt>
      <trkpt lat="43.449820" lon="3.646548">
        <ele>10.995056</ele>
        <time>2018-08-14T15:26:08Z</time>
      </trkpt>
      <trkpt lat="43.449273" lon="3.645409">
        <ele>9.482208</ele>
        <time>2018-08-14T15:26:23Z</time>
      </trkpt>
      <trkpt lat="43.448543" lon="3.643824">
        <ele>13.122702</ele>
        <time>2018-08-14T15:26:39Z</time>
      </trkpt>
      <trkpt lat="43.447170" lon="3.640889">
        <ele>16.273623</ele>
        <time>2018-08-14T15:26:54Z</time>
      </trkpt>
      <trkpt lat="43.445802" lon="3.637089">
        <ele>18.760742</ele>
        <time>2018-08-14T15:27:09Z</time>
      </trkpt>
      <trkpt lat="43.444394" lon="3.633396">
        <ele>19.492027</ele>
        <time>2018-08-14T15:27:24Z</time>
      </trkpt>
      <trkpt lat="43.442233" lon="3.629800">
        <ele>6.762312</ele>
        <time>2018-08-14T15:27:40Z</time>
      </trkpt>
      <trkpt lat="43.440099" lon="3.626262">
        <ele>4.965145</ele>
        <time>2018-08-14T15:27:56Z</time>
      </trkpt>
      <trkpt lat="43.438228" lon="3.623149">
        <ele>7.317322</ele>
        <time>2018-08-14T15:28:11Z</time>
      </trkpt>
      <trkpt lat="43.436412" lon="3.620119">
        <ele>2.809333</ele>
        <time>2018-08-14T15:28:27Z</time>
      </trkpt>
      <trkpt lat="43.435575" lon="3.618447">
        <ele>4.706828</ele>
        <time>2018-08-14T15:28:42Z</time>
      </trkpt>
      <trkpt lat="43.434427" lon="3.616794">
        <ele>4.570507</ele>
        <time>2018-08-14T15:28:57Z</time>
      </trkpt>
      <trkpt lat="43.433241" lon="3.614824">
        <ele>3.251681</ele>
        <time>2018-08-14T15:29:13Z</time>
      </trkpt>
      <trkpt lat="43.432895" lon="3.614263">
        <ele>3.013907</ele>
        <time>2018-08-14T15:29:28Z</time>
      </trkpt>
      <trkpt lat="43.432149" lon="3.612968">
        <ele>2.184428</ele>
        <time>2018-08-14T15:29:43Z</time>
      </trkpt>
      <trkpt lat="43.431777" lon="3.612387">
        <ele>2.750056</ele>
        <time>2018-08-14T15:29:59Z</time>
      </trkpt>
      <trkpt lat="43.431083" lon="3.611183">
        <ele>3.106096</ele>
        <time>2018-08-14T15:30:15Z</time>
      </trkpt>
      <trkpt lat="43.430746" lon="3.610647">
        <ele>3.671509</ele>
        <time>2018-08-14T15:30:31Z</time>
      </trkpt>
      <trkpt lat="43.430222" lon="3.609744">
        <ele>2.184213</ele>
        <time>2018-08-14T15:30:47Z</time>
      </trkpt>
      <trkpt lat="43.430003" lon="3.608908">
        <ele>2.619694</ele>
        <time>2018-08-14T15:31:03Z</time>
      </trkpt>
      <trkpt lat="43.429379" lon="3.608287">
        <ele>4.899649</ele>
        <time>2018-08-14T15:31:19Z</time>
      </trkpt>
      <trkpt lat="43.428971" lon="3.607669">
        <ele>8.237002</ele>
        <time>2018-08-14T15:31:35Z</time>
      </trkpt>
      <trkpt lat="43.428817" lon="3.607405">
        <ele>9.923773</ele>
        <time>2018-08-14T15:31:50Z</time>
      </trkpt>
      <trkpt lat="43.428332" lon="3.606601">
        <ele>13.001517</ele>
        <time>2018-08-14T15:32:06Z</time>
      </trkpt>
      <trkpt lat="43.427711" lon="3.605537">
        <ele>13.180207</ele>
        <time>2018-08-14T15:32:22Z</time>
      </trkpt>
      <trkpt lat="43.427944" lon="3.604187">
        <ele>13.088745</ele>
        <time>2018-08-14T15:32:38Z</time>
      </trkpt>
      <trkpt lat="43.428911" lon="3.602030">
        <ele>15.083277</ele>
        <time>2018-08-14T15:32:53Z</time>
      </trkpt>
      <trkpt lat="43.429339" lon="3.601094">
        <ele>14.987482</ele>
        <time>2018-08-14T15:33:16Z</time>
      </trkpt>
      <trkpt lat="43.430247" lon="3.599018">
        <ele>19.170357</ele>
        <time>2018-08-14T15:33:32Z</time>
      </trkpt>
      <trkpt lat="43.431233" lon="3.596958">
        <ele>19.935759</ele>
        <time>2018-08-14T15:33:47Z</time>
      </trkpt>
      <trkpt lat="43.432399" lon="3.594172">
        <ele>24.647310</ele>
        <time>2018-08-14T15:34:03Z</time>
      </trkpt>
      <trkpt lat="43.433875" lon="3.590859">
        <ele>23.353287</ele>
        <time>2018-08-14T15:34:18Z</time>
      </trkpt>
      <trkpt lat="43.435264" lon="3.587720">
        <ele>17.930656</ele>
        <time>2018-08-14T15:34:33Z</time>
      </trkpt>
      <trkpt lat="43.437087" lon="3.583586">
        <ele>7.997182</ele>
        <time>2018-08-14T15:34:49Z</time>
      </trkpt>
      <trkpt lat="43.438748" lon="3.579870">
        <ele>16.186207</ele>
        <time>2018-08-14T15:35:05Z</time>
      </trkpt>
      <trkpt lat="43.439828" lon="3.577626">
        <ele>14.119699</ele>
        <time>2018-08-14T15:35:20Z</time>
      </trkpt>
      <trkpt lat="43.439899" lon="3.576682">
        <ele>14.000000</ele>
        <time>2018-08-14T15:35:35Z</time>
      </trkpt>
      <trkpt lat="43.437945" lon="3.574650">
        <ele>16.700979</ele>
        <time>2018-08-14T15:35:51Z</time>
      </trkpt>
      <trkpt lat="43.435822" lon="3.572048">
        <ele>19.980778</ele>
        <time>2018-08-14T15:36:06Z</time>
      </trkpt>
      <trkpt lat="43.433367" lon="3.569025">
        <ele>23.162725</ele>
        <time>2018-08-14T15:36:22Z</time>
      </trkpt>
      <trkpt lat="43.430835" lon="3.565800">
        <ele>31.958565</ele>
        <time>2018-08-14T15:36:38Z</time>
      </trkpt>
      <trkpt lat="43.428849" lon="3.562117">
        <ele>21.906029</ele>
        <time>2018-08-14T15:36:53Z</time>
      </trkpt>
      <trkpt lat="43.426998" lon="3.558339">
        <ele>19.594177</ele>
        <time>2018-08-14T15:37:08Z</time>
      </trkpt>
      <trkpt lat="43.425274" lon="3.554795">
        <ele>12.648375</ele>
        <time>2018-08-14T15:37:24Z</time>
      </trkpt>
      <trkpt lat="43.423585" lon="3.551341">
        <ele>11.663827</ele>
        <time>2018-08-14T15:37:39Z</time>
      </trkpt>
      <trkpt lat="43.421320" lon="3.548779">
        <ele>11.347321</ele>
        <time>2018-08-14T15:37:54Z</time>
      </trkpt>
      <trkpt lat="43.418530" lon="3.547249">
        <ele>16.708801</ele>
        <time>2018-08-14T15:38:09Z</time>
      </trkpt>
      <trkpt lat="43.415297" lon="3.545468">
        <ele>18.956392</ele>
        <time>2018-08-14T15:38:25Z</time>
      </trkpt>
      <trkpt lat="43.412151" lon="3.543978">
        <ele>15.394666</ele>
        <time>2018-08-14T15:38:41Z</time>
      </trkpt>
      <trkpt lat="43.408956" lon="3.542468">
        <ele>13.514040</ele>
        <time>2018-08-14T15:38:57Z</time>
      </trkpt>
      <trkpt lat="43.406063" lon="3.541113">
        <ele>7.849023</ele>
        <time>2018-08-14T15:39:12Z</time>
      </trkpt>
      <trkpt lat="43.403227" lon="3.539773">
        <ele>11.748373</ele>
        <time>2018-08-14T15:39:27Z</time>
      </trkpt>
      <trkpt lat="43.399873" lon="3.539023">
        <ele>15.915285</ele>
        <time>2018-08-14T15:39:43Z</time>
      </trkpt>
      <trkpt lat="43.396578" lon="3.538534">
        <ele>12.056690</ele>
        <time>2018-08-14T15:39:59Z</time>
      </trkpt>
      <trkpt lat="43.393372" lon="3.538059">
        <ele>15.234631</ele>
        <time>2018-08-14T15:40:15Z</time>
      </trkpt>
      <trkpt lat="43.390563" lon="3.537579">
        <ele>19.646267</ele>
        <time>2018-08-14T15:40:30Z</time>
      </trkpt>
      <trkpt lat="43.390366" lon="3.535829">
        <ele>19.874107</ele>
        <time>2018-08-14T15:40:46Z</time>
      </trkpt>
      <trkpt lat="43.391608" lon="3.532512">
        <ele>18.885962</ele>
        <time>2018-08-14T15:41:02Z</time>
      </trkpt>
      <trkpt lat="43.392993" lon="3.528808">
        <ele>14.657624</ele>
        <time>2018-08-14T15:41:17Z</time>
      </trkpt>
      <trkpt lat="43.394377" lon="3.525077">
        <ele>10.643837</ele>
        <time>2018-08-14T15:41:32Z</time>
      </trkpt>
      <trkpt lat="43.394195" lon="3.520958">
        <ele>13.121058</ele>
        <time>2018-08-14T15:41:48Z</time>
      </trkpt>
      <trkpt lat="43.393007" lon="3.516509">
        <ele>17.120453</ele>
        <time>2018-08-14T15:42:04Z</time>
      </trkpt>
      <trkpt lat="43.391843" lon="3.512181">
        <ele>40.586304</ele>
        <time>2018-08-14T15:42:20Z</time>
      </trkpt>
      <trkpt lat="43.391859" lon="3.508172">
        <ele>41.425308</ele>
        <time>2018-08-14T15:42:36Z</time>
      </trkpt>
      <trkpt lat="43.391991" lon="3.505773">
        <ele>40.271835</ele>
        <time>2018-08-14T15:42:51Z</time>
      </trkpt>
      <trkpt lat="43.391999" lon="3.503945">
        <ele>36.132751</ele>
        <time>2018-08-14T15:43:07Z</time>
      </trkpt>
      <trkpt lat="43.391989" lon="3.502325">
        <ele>35.386597</ele>
        <time>2018-08-14T15:43:22Z</time>
      </trkpt>
      <trkpt lat="43.391926" lon="3.500401">
        <ele>35.124432</ele>
        <time>2018-08-14T15:43:38Z</time>
      </trkpt>
      <trkpt lat="43.391779" lon="3.498914">
        <ele>35.057907</ele>
        <time>2018-08-14T15:43:54Z</time>
      </trkpt>
      <trkpt lat="43.391605" lon="3.497354">
        <ele>35.182697</ele>
        <time>2018-08-14T15:44:10Z</time>
      </trkpt>
      <trkpt lat="43.391443" lon="3.495812">
        <ele>35.238472</ele>
        <time>2018-08-14T15:44:25Z</time>
      </trkpt>
      <trkpt lat="43.390782" lon="3.493632">
        <ele>35.834137</ele>
        <time>2018-08-14T15:44:40Z</time>
      </trkpt>
      <trkpt lat="43.390091" lon="3.491255">
        <ele>35.050476</ele>
        <time>2018-08-14T15:44:56Z</time>
      </trkpt>
      <trkpt lat="43.389467" lon="3.489123">
        <ele>31.242275</ele>
        <time>2018-08-14T15:45:11Z</time>
      </trkpt>
      <trkpt lat="43.388448" lon="3.485753">
        <ele>22.945309</ele>
        <time>2018-08-14T15:45:27Z</time>
      </trkpt>
      <trkpt lat="43.387338" lon="3.482075">
        <ele>21.421864</ele>
        <time>2018-08-14T15:45:43Z</time>
      </trkpt>
      <trkpt lat="43.386304" lon="3.478646">
        <ele>21.755573</ele>
        <time>2018-08-14T15:45:59Z</time>
      </trkpt>
      <trkpt lat="43.385711" lon="3.476192">
        <ele>22.797075</ele>
        <time>2018-08-14T15:46:15Z</time>
      </trkpt>
      <trkpt lat="43.385309" lon="3.473962">
        <ele>17.984791</ele>
        <time>2018-08-14T15:46:30Z</time>
      </trkpt>
      <trkpt lat="43.384949" lon="3.472029">
        <ele>14.088191</ele>
        <time>2018-08-14T15:46:46Z</time>
      </trkpt>
      <trkpt lat="43.384561" lon="3.469949">
        <ele>15.342563</ele>
        <time>2018-08-14T15:47:02Z</time>
      </trkpt>
      <trkpt lat="43.384131" lon="3.467789">
        <ele>12.387966</ele>
        <time>2018-08-14T15:47:17Z</time>
      </trkpt>
      <trkpt lat="43.383229" lon="3.466065">
        <ele>14.631438</ele>
        <time>2018-08-14T15:47:33Z</time>
      </trkpt>
      <trkpt lat="43.383678" lon="3.465160">
        <ele>14.093479</ele>
        <time>2018-08-14T15:47:49Z</time>
      </trkpt>
      <trkpt lat="43.384067" lon="3.463679">
        <ele>12.357422</ele>
        <time>2018-08-14T15:48:04Z</time>
      </trkpt>
      <trkpt lat="43.384142" lon="3.462687">
        <ele>10.562160</ele>
        <time>2018-08-14T15:48:20Z</time>
      </trkpt>
      <trkpt lat="43.384187" lon="3.460478">
        <ele>8.555708</ele>
        <time>2018-08-14T15:48:35Z</time>
      </trkpt>
      <trkpt lat="43.383850" lon="3.457206">
        <ele>7.513574</ele>
        <time>2018-08-14T15:48:51Z</time>
      </trkpt>
      <trkpt lat="43.382973" lon="3.453195">
        <ele>8.655986</ele>
        <time>2018-08-14T15:49:07Z</time>
      </trkpt>
      <trkpt lat="43.383666" lon="3.450147">
        <ele>6.378357</ele>
        <time>2018-08-14T15:49:22Z</time>
      </trkpt>
      <trkpt lat="43.384082" lon="3.446754">
        <ele>8.984373</ele>
        <time>2018-08-14T15:49:38Z</time>
      </trkpt>
      <trkpt lat="43.385659" lon="3.443353">
        <ele>8.771509</ele>
        <time>2018-08-14T15:49:53Z</time>
      </trkpt>
      <trkpt lat="43.386987" lon="3.439491">
        <ele>8.704709</ele>
        <time>2018-08-14T15:50:08Z</time>
      </trkpt>
      <trkpt lat="43.388165" lon="3.436050">
        <ele>9.739929</ele>
        <time>2018-08-14T15:50:24Z</time>
      </trkpt>
      <trkpt lat="43.388861" lon="3.433936">
        <ele>14.120017</ele>
        <time>2018-08-14T15:50:39Z</time>
      </trkpt>
      <trkpt lat="43.390591" lon="3.431196">
        <ele>19.148182</ele>
        <time>2018-08-14T15:50:55Z</time>
      </trkpt>
      <trkpt lat="43.391864" lon="3.428140">
        <ele>24.173103</ele>
        <time>2018-08-14T15:51:11Z</time>
      </trkpt>
      <trkpt lat="43.393053" lon="3.425523">
        <ele>29.874855</ele>
        <time>2018-08-14T15:51:26Z</time>
      </trkpt>
      <trkpt lat="43.394074" lon="3.423138">
        <ele>32.749352</ele>
        <time>2018-08-14T15:51:41Z</time>
      </trkpt>
      <trkpt lat="43.395067" lon="3.421050">
        <ele>31.640490</ele>
        <time>2018-08-14T15:51:57Z</time>
      </trkpt>
      <trkpt lat="43.394896" lon="3.419017">
        <ele>22.694159</ele>
        <time>2018-08-14T15:52:13Z</time>
      </trkpt>
      <trkpt lat="43.394241" lon="3.416902">
        <ele>18.382494</ele>
        <time>2018-08-14T15:52:29Z</time>
      </trkpt>
      <trkpt lat="43.395520" lon="3.415894">
        <ele>17.210999</ele>
        <time>2018-08-14T15:52:45Z</time>
      </trkpt>
      <trkpt lat="43.395420" lon="3.415278">
        <ele>17.007385</ele>
        <time>2018-08-14T15:53:00Z</time>
      </trkpt>
      <trkpt lat="43.395174" lon="3.414874">
        <ele>16.235645</ele>
        <time>2018-08-14T15:53:22Z</time>
      </trkpt>
      <trkpt lat="43.394756" lon="3.414098">
        <ele>15.058126</ele>
        <time>2018-08-14T15:53:38Z</time>
      </trkpt>
      <trkpt lat="43.393986" lon="3.411297">
        <ele>13.087828</ele>
        <time>2018-08-14T15:53:54Z</time>
      </trkpt>
      <trkpt lat="43.393071" lon="3.408229">
        <ele>12.638704</ele>
        <time>2018-08-14T15:54:09Z</time>
      </trkpt>
      <trkpt lat="43.391974" lon="3.405320">
        <ele>13.020974</ele>
        <time>2018-08-14T15:54:24Z</time>
      </trkpt>
      <trkpt lat="43.390926" lon="3.401959">
        <ele>14.739954</ele>
        <time>2018-08-14T15:54:40Z</time>
      </trkpt>
      <trkpt lat="43.389932" lon="3.398606">
        <ele>15.726013</ele>
        <time>2018-08-14T15:54:56Z</time>
      </trkpt>
      <trkpt lat="43.389020" lon="3.395537">
        <ele>16.886860</ele>
        <time>2018-08-14T15:55:11Z</time>
      </trkpt>
      <trkpt lat="43.387968" lon="3.391951">
        <ele>20.658478</ele>
        <time>2018-08-14T15:55:27Z</time>
      </trkpt>
      <trkpt lat="43.387004" lon="3.388487">
        <ele>26.520771</ele>
        <time>2018-08-14T15:55:42Z</time>
      </trkpt>
      <trkpt lat="43.386401" lon="3.385441">
        <ele>29.106781</ele>
        <time>2018-08-14T15:55:57Z</time>
      </trkpt>
      <trkpt lat="43.387677" lon="3.382714">
        <ele>30.906639</ele>
        <time>2018-08-14T15:56:13Z</time>
      </trkpt>
      <trkpt lat="43.389287" lon="3.380002">
        <ele>29.999437</ele>
        <time>2018-08-14T15:56:29Z</time>
      </trkpt>
      <trkpt lat="43.390916" lon="3.377417">
        <ele>27.800049</ele>
        <time>2018-08-14T15:56:45Z</time>
      </trkpt>
      <trkpt lat="43.392271" lon="3.375353">
        <ele>26.855843</ele>
        <time>2018-08-14T15:57:00Z</time>
      </trkpt>
      <trkpt lat="43.393031" lon="3.374277">
        <ele>28.610870</ele>
        <time>2018-08-14T15:57:15Z</time>
      </trkpt>
      <trkpt lat="43.393833" lon="3.372483">
        <ele>33.011959</ele>
        <time>2018-08-14T15:57:30Z</time>
      </trkpt>
      <trkpt lat="43.394466" lon="3.370739">
        <ele>34.072777</ele>
        <time>2018-08-14T15:57:45Z</time>
      </trkpt>
      <trkpt lat="43.395374" lon="3.368218">
        <ele>39.740234</ele>
        <time>2018-08-14T15:58:01Z</time>
      </trkpt>
      <trkpt lat="43.396307" lon="3.366200">
        <ele>38.742798</ele>
        <time>2018-08-14T15:58:17Z</time>
      </trkpt>
      <trkpt lat="43.397037" lon="3.363901">
        <ele>31.718861</ele>
        <time>2018-08-14T15:58:32Z</time>
      </trkpt>
      <trkpt lat="43.397444" lon="3.361682">
        <ele>32.250275</ele>
        <time>2018-08-14T15:58:48Z</time>
      </trkpt>
      <trkpt lat="43.398264" lon="3.359218">
        <ele>28.312134</ele>
        <time>2018-08-14T15:59:03Z</time>
      </trkpt>
      <trkpt lat="43.398392" lon="3.356767">
        <ele>25.871618</ele>
        <time>2018-08-14T15:59:19Z</time>
      </trkpt>
      <trkpt lat="43.398513" lon="3.353322">
        <ele>24.802740</ele>
        <time>2018-08-14T15:59:34Z</time>
      </trkpt>
      <trkpt lat="43.398552" lon="3.349403">
        <ele>28.531273</ele>
        <time>2018-08-14T15:59:50Z</time>
      </trkpt>
      <trkpt lat="43.400149" lon="3.345441">
        <ele>28.990013</ele>
        <time>2018-08-14T16:00:05Z</time>
      </trkpt>
      <trkpt lat="43.400548" lon="3.341387">
        <ele>30.121170</ele>
        <time>2018-08-14T16:00:21Z</time>
      </trkpt>
      <trkpt lat="43.398335" lon="3.337395">
        <ele>30.129213</ele>
        <time>2018-08-14T16:00:37Z</time>
      </trkpt>
      <trkpt lat="43.397047" lon="3.335768">
        <ele>32.254639</ele>
        <time>2018-08-14T16:00:52Z</time>
      </trkpt>
      <trkpt lat="43.398634" lon="3.334135">
        <ele>34.042999</ele>
        <time>2018-08-14T16:01:08Z</time>
      </trkpt>
      <trkpt lat="43.399679" lon="3.333157">
        <ele>35.211884</ele>
        <time>2018-08-14T16:01:24Z</time>
      </trkpt>
      <trkpt lat="43.397851" lon="3.330359">
        <ele>33.840267</ele>
        <time>2018-08-14T16:01:40Z</time>
      </trkpt>
      <trkpt lat="43.395547" lon="3.326528">
        <ele>44.906361</ele>
        <time>2018-08-14T16:01:56Z</time>
      </trkpt>
      <trkpt lat="43.393339" lon="3.322569">
        <ele>48.724873</ele>
        <time>2018-08-14T16:02:11Z</time>
      </trkpt>
      <trkpt lat="43.391040" lon="3.318925">
        <ele>56.145607</ele>
        <time>2018-08-14T16:02:27Z</time>
      </trkpt>
      <trkpt lat="43.389047" lon="3.316033">
        <ele>59.274727</ele>
        <time>2018-08-14T16:02:42Z</time>
      </trkpt>
      <trkpt lat="43.387548" lon="3.313967">
        <ele>63.283653</ele>
        <time>2018-08-14T16:02:58Z</time>
      </trkpt>
      <trkpt lat="43.385357" lon="3.310733">
        <ele>51.733124</ele>
        <time>2018-08-14T16:03:14Z</time>
      </trkpt>
      <trkpt lat="43.383194" lon="3.307002">
        <ele>37.167477</ele>
        <time>2018-08-14T16:03:30Z</time>
      </trkpt>
      <trkpt lat="43.381048" lon="3.303265">
        <ele>39.651913</ele>
        <time>2018-08-14T16:03:46Z</time>
      </trkpt>
      <trkpt lat="43.379058" lon="3.299789">
        <ele>46.801853</ele>
        <time>2018-08-14T16:04:02Z</time>
      </trkpt>
      <trkpt lat="43.377791" lon="3.295807">
        <ele>48.124756</ele>
        <time>2018-08-14T16:04:17Z</time>
      </trkpt>
      <trkpt lat="43.377085" lon="3.291282">
        <ele>48.191391</ele>
        <time>2018-08-14T16:04:32Z</time>
      </trkpt>
      <trkpt lat="43.376304" lon="3.286619">
        <ele>44.111927</ele>
        <time>2018-08-14T16:04:48Z</time>
      </trkpt>
      <trkpt lat="43.374252" lon="3.282551">
        <ele>39.788895</ele>
        <time>2018-08-14T16:05:04Z</time>
      </trkpt>
      <trkpt lat="43.372261" lon="3.278987">
        <ele>35.487274</ele>
        <time>2018-08-14T16:05:19Z</time>
      </trkpt>
      <trkpt lat="43.370098" lon="3.275119">
        <ele>37.890678</ele>
        <time>2018-08-14T16:05:35Z</time>
      </trkpt>
      <trkpt lat="43.368287" lon="3.270912">
        <ele>51.472015</ele>
        <time>2018-08-14T16:05:51Z</time>
      </trkpt>
      <trkpt lat="43.366519" lon="3.266777">
        <ele>64.639336</ele>
        <time>2018-08-14T16:06:07Z</time>
      </trkpt>
      <trkpt lat="43.364755" lon="3.263468">
        <ele>78.805527</ele>
        <time>2018-08-14T16:06:22Z</time>
      </trkpt>
      <trkpt lat="43.363778" lon="3.259455">
        <ele>76.186676</ele>
        <time>2018-08-14T16:06:38Z</time>
      </trkpt>
      <trkpt lat="43.363089" lon="3.256944">
        <ele>77.885574</ele>
        <time>2018-08-14T16:06:53Z</time>
      </trkpt>
      <trkpt lat="43.362708" lon="3.255554">
        <ele>79.336891</ele>
        <time>2018-08-14T16:07:08Z</time>
      </trkpt>
      <trkpt lat="43.361717" lon="3.252506">
        <ele>80.369629</ele>
        <time>2018-08-14T16:07:24Z</time>
      </trkpt>
      <trkpt lat="43.361331" lon="3.249925">
        <ele>82.338013</ele>
        <time>2018-08-14T16:07:40Z</time>
      </trkpt>
      <trkpt lat="43.360261" lon="3.248240">
        <ele>85.147614</ele>
        <time>2018-08-14T16:07:56Z</time>
      </trkpt>
      <trkpt lat="43.359514" lon="3.246248">
        <ele>74.610016</ele>
        <time>2018-08-14T16:08:11Z</time>
      </trkpt>
      <trkpt lat="43.358254" lon="3.243942">
        <ele>73.538513</ele>
        <time>2018-08-14T16:08:27Z</time>
      </trkpt>
      <trkpt lat="43.357262" lon="3.241944">
        <ele>75.525200</ele>
        <time>2018-08-14T16:08:42Z</time>
      </trkpt>
      <trkpt lat="43.356417" lon="3.240238">
        <ele>79.714417</ele>
        <time>2018-08-14T16:08:58Z</time>
      </trkpt>
      <trkpt lat="43.355510" lon="3.239850">
        <ele>77.837830</ele>
        <time>2018-08-14T16:09:14Z</time>
      </trkpt>
      <trkpt lat="43.354024" lon="3.239459">
        <ele>72.897865</ele>
        <time>2018-08-14T16:09:29Z</time>
      </trkpt>
      <trkpt lat="43.352388" lon="3.239381">
        <ele>70.608459</ele>
        <time>2018-08-14T16:09:45Z</time>
      </trkpt>
      <trkpt lat="43.351077" lon="3.239400">
        <ele>68.305756</ele>
        <time>2018-08-14T16:10:01Z</time>
      </trkpt>
      <trkpt lat="43.350915" lon="3.239378">
        <ele>67.943237</ele>
        <time>2018-08-14T16:10:38Z</time>
      </trkpt>
      <trkpt lat="43.350027" lon="3.239314">
        <ele>64.121796</ele>
        <time>2018-08-14T16:10:53Z</time>
      </trkpt>
      <trkpt lat="43.349854" lon="3.239370">
        <ele>63.824402</ele>
        <time>2018-08-14T16:16:05Z</time>
      </trkpt>
      <trkpt lat="43.348558" lon="3.239297">
        <ele>61.150970</ele>
        <time>2018-08-14T16:16:21Z</time>
      </trkpt>
      <trkpt lat="43.348090" lon="3.239575">
        <ele>61.471710</ele>
        <time>2018-08-14T16:16:37Z</time>
      </trkpt>
      <trkpt lat="43.348082" lon="3.239383">
        <ele>60.779846</ele>
        <time>2018-08-14T16:17:02Z</time>
      </trkpt>
      <trkpt lat="43.347963" lon="3.239274">
        <ele>60.386627</ele>
        <time>2018-08-14T16:17:33Z</time>
      </trkpt>
      <trkpt lat="43.346319" lon="3.239008">
        <ele>56.796749</ele>
        <time>2018-08-14T16:17:48Z</time>
      </trkpt>
      <trkpt lat="43.345898" lon="3.238907">
        <ele>55.781582</ele>
        <time>2018-08-14T16:19:01Z</time>
      </trkpt>
      <trkpt lat="43.345530" lon="3.239317">
        <ele>53.662643</ele>
        <time>2018-08-14T16:19:16Z</time>
      </trkpt>
      <trkpt lat="43.346195" lon="3.241788">
        <ele>51.749851</ele>
        <time>2018-08-14T16:19:31Z</time>
      </trkpt>
      <trkpt lat="43.347319" lon="3.243662">
        <ele>53.426201</ele>
        <time>2018-08-14T16:19:46Z</time>
      </trkpt>
      <trkpt lat="43.347541" lon="3.244507">
        <ele>52.300869</ele>
        <time>2018-08-14T16:20:02Z</time>
      </trkpt>
      <trkpt lat="43.348159" lon="3.247096">
        <ele>54.305389</ele>
        <time>2018-08-14T16:20:17Z</time>
      </trkpt>
      <trkpt lat="43.347814" lon="3.250026">
        <ele>59.816711</ele>
        <time>2018-08-14T16:20:33Z</time>
      </trkpt>
      <trkpt lat="43.347543" lon="3.251777">
        <ele>62.750046</ele>
        <time>2018-08-14T16:20:49Z</time>
      </trkpt>
      <trkpt lat="43.347349" lon="3.252573">
        <ele>61.165085</ele>
        <time>2018-08-14T16:21:05Z</time>
      </trkpt>
      <trkpt lat="43.347040" lon="3.253768">
        <ele>60.244949</ele>
        <time>2018-08-14T16:21:20Z</time>
      </trkpt>
      <trkpt lat="43.345636" lon="3.256604">
        <ele>54.444511</ele>
        <time>2018-08-14T16:21:35Z</time>
      </trkpt>
      <trkpt lat="43.343741" lon="3.260137">
        <ele>45.059341</ele>
        <time>2018-08-14T16:21:50Z</time>
      </trkpt>
      <trkpt lat="43.342065" lon="3.263392">
        <ele>46.019989</ele>
        <time>2018-08-14T16:22:05Z</time>
      </trkpt>
      <trkpt lat="43.340767" lon="3.267027">
        <ele>44.306622</ele>
        <time>2018-08-14T16:22:21Z</time>
      </trkpt>
      <trkpt lat="43.339854" lon="3.270505">
        <ele>41.000000</ele>
        <time>2018-08-14T16:22:36Z</time>
      </trkpt>
      <trkpt lat="43.338732" lon="3.274049">
        <ele>32.085297</ele>
        <time>2018-08-14T16:22:51Z</time>
      </trkpt>
      <trkpt lat="43.337088" lon="3.277547">
        <ele>28.292591</ele>
        <time>2018-08-14T16:23:06Z</time>
      </trkpt>
      <trkpt lat="43.335435" lon="3.279850">
        <ele>31.333776</ele>
        <time>2018-08-14T16:23:22Z</time>
      </trkpt>
      <trkpt lat="43.335176" lon="3.279965">
        <ele>31.193302</ele>
        <time>2018-08-14T16:23:42Z</time>
      </trkpt>
      <trkpt lat="43.334782" lon="3.280391">
        <ele>31.869467</ele>
        <time>2018-08-14T16:23:58Z</time>
      </trkpt>
      <trkpt lat="43.336155" lon="3.281197">
        <ele>34.186401</ele>
        <time>2018-08-14T16:24:14Z</time>
      </trkpt>
      <trkpt lat="43.337429" lon="3.281008">
        <ele>39.970833</ele>
        <time>2018-08-14T16:24:30Z</time>
      </trkpt>
      <trkpt lat="43.340153" lon="3.279799">
        <ele>40.645267</ele>
        <time>2018-08-14T16:24:45Z</time>
      </trkpt>
      <trkpt lat="43.343226" lon="3.279209">
        <ele>42.094078</ele>
        <time>2018-08-14T16:25:00Z</time>
      </trkpt>
      <trkpt lat="43.346084" lon="3.280059">
        <ele>50.112911</ele>
        <time>2018-08-14T16:25:16Z</time>
      </trkpt>
      <trkpt lat="43.346169" lon="3.282693">
        <ele>55.099533</ele>
        <time>2018-08-14T16:25:31Z</time>
      </trkpt>
      <trkpt lat="43.344789" lon="3.285346">
        <ele>52.516823</ele>
        <time>2018-08-14T16:25:46Z</time>
      </trkpt>
      <trkpt lat="43.344428" lon="3.286052">
        <ele>50.447330</ele>
        <time>2018-08-14T16:26:02Z</time>
      </trkpt>
      <trkpt lat="43.343728" lon="3.287372">
        <ele>48.554520</ele>
        <time>2018-08-14T16:26:18Z</time>
      </trkpt>
      <trkpt lat="43.342134" lon="3.290698">
        <ele>43.794022</ele>
        <time>2018-08-14T16:26:33Z</time>
      </trkpt>
      <trkpt lat="43.340171" lon="3.294608">
        <ele>41.566486</ele>
        <time>2018-08-14T16:26:49Z</time>
      </trkpt>
      <trkpt lat="43.338194" lon="3.292497">
        <ele>41.177090</ele>
        <time>2018-08-14T16:27:04Z</time>
      </trkpt>
      <trkpt lat="43.335959" lon="3.287606">
        <ele>37.405060</ele>
        <time>2018-08-14T16:27:20Z</time>
      </trkpt>
      <trkpt lat="43.333036" lon="3.283009">
        <ele>32.079453</ele>
        <time>2018-08-14T16:27:36Z</time>
      </trkpt>
      <trkpt lat="43.329869" lon="3.278593">
        <ele>20.695181</ele>
        <time>2018-08-14T16:27:52Z</time>
      </trkpt>
      <trkpt lat="43.326728" lon="3.274180">
        <ele>16.900677</ele>
        <time>2018-08-14T16:28:08Z</time>
      </trkpt>
      <trkpt lat="43.323886" lon="3.270207">
        <ele>12.323834</ele>
        <time>2018-08-14T16:28:23Z</time>
      </trkpt>
      <trkpt lat="43.321065" lon="3.266262">
        <ele>11.077198</ele>
        <time>2018-08-14T16:28:38Z</time>
      </trkpt>
      <trkpt lat="43.318147" lon="3.262171">
        <ele>9.586262</ele>
        <time>2018-08-14T16:28:54Z</time>
      </trkpt>
      <trkpt lat="43.315240" lon="3.258061">
        <ele>11.427795</ele>
        <time>2018-08-14T16:29:10Z</time>
      </trkpt>
      <trkpt lat="43.312359" lon="3.253705">
        <ele>8.114653</ele>
        <time>2018-08-14T16:29:26Z</time>
      </trkpt>
      <trkpt lat="43.309732" lon="3.248755">
        <ele>9.016948</ele>
        <time>2018-08-14T16:29:42Z</time>
      </trkpt>
      <trkpt lat="43.307600" lon="3.243395">
        <ele>8.138281</ele>
        <time>2018-08-14T16:29:58Z</time>
      </trkpt>
      <trkpt lat="43.305902" lon="3.237610">
        <ele>14.000000</ele>
        <time>2018-08-14T16:30:14Z</time>
      </trkpt>
      <trkpt lat="43.304807" lon="3.231870">
        <ele>36.137371</ele>
        <time>2018-08-14T16:30:30Z</time>
      </trkpt>
      <trkpt lat="43.304087" lon="3.226518">
        <ele>39.352242</ele>
        <time>2018-08-14T16:30:45Z</time>
      </trkpt>
      <trkpt lat="43.303424" lon="3.220891">
        <ele>40.924911</ele>
        <time>2018-08-14T16:31:01Z</time>
      </trkpt>
      <trkpt lat="43.302450" lon="3.215674">
        <ele>37.902565</ele>
        <time>2018-08-14T16:31:16Z</time>
      </trkpt>
      <trkpt lat="43.300971" lon="3.210334">
        <ele>45.992970</ele>
        <time>2018-08-14T16:31:32Z</time>
      </trkpt>
      <trkpt lat="43.299057" lon="3.205500">
        <ele>49.376907</ele>
        <time>2018-08-14T16:31:47Z</time>
      </trkpt>
      <trkpt lat="43.296669" lon="3.200812">
        <ele>37.968155</ele>
        <time>2018-08-14T16:32:03Z</time>
      </trkpt>
      <trkpt lat="43.294231" lon="3.197110">
        <ele>41.143059</ele>
        <time>2018-08-14T16:32:18Z</time>
      </trkpt>
      <trkpt lat="43.290881" lon="3.193058">
        <ele>34.513340</ele>
        <time>2018-08-14T16:32:34Z</time>
      </trkpt>
      <trkpt lat="43.287396" lon="3.189859">
        <ele>31.318203</ele>
        <time>2018-08-14T16:32:50Z</time>
      </trkpt>
      <trkpt lat="43.283943" lon="3.187458">
        <ele>19.962812</ele>
        <time>2018-08-14T16:33:05Z</time>
      </trkpt>
      <trkpt lat="43.280063" lon="3.185348">
        <ele>23.557022</ele>
        <time>2018-08-14T16:33:21Z</time>
      </trkpt>
      <trkpt lat="43.276332" lon="3.183378">
        <ele>37.913807</ele>
        <time>2018-08-14T16:33:36Z</time>
      </trkpt>
      <trkpt lat="43.272448" lon="3.181059">
        <ele>47.237007</ele>
        <time>2018-08-14T16:33:51Z</time>
      </trkpt>
      <trkpt lat="43.268874" lon="3.178453">
        <ele>52.283302</ele>
        <time>2018-08-14T16:34:06Z</time>
      </trkpt>
      <trkpt lat="43.265299" lon="3.175011">
        <ele>42.084976</ele>
        <time>2018-08-14T16:34:22Z</time>
      </trkpt>
      <trkpt lat="43.262296" lon="3.171306">
        <ele>36.888794</ele>
        <time>2018-08-14T16:34:37Z</time>
      </trkpt>
      <trkpt lat="43.259266" lon="3.167046">
        <ele>31.033232</ele>
        <time>2018-08-14T16:34:53Z</time>
      </trkpt>
      <trkpt lat="43.256456" lon="3.163076">
        <ele>18.327698</ele>
        <time>2018-08-14T16:35:08Z</time>
      </trkpt>
      <trkpt lat="43.253280" lon="3.159265">
        <ele>6.684919</ele>
        <time>2018-08-14T16:35:24Z</time>
      </trkpt>
      <trkpt lat="43.250279" lon="3.156026">
        <ele>6.000000</ele>
        <time>2018-08-14T16:35:39Z</time>
      </trkpt>
      <trkpt lat="43.247003" lon="3.152551">
        <ele>6.523976</ele>
        <time>2018-08-14T16:35:55Z</time>
      </trkpt>
      <trkpt lat="43.243718" lon="3.149020">
        <ele>5.949848</ele>
        <time>2018-08-14T16:36:11Z</time>
      </trkpt>
      <trkpt lat="43.240122" lon="3.145126">
        <ele>17.833569</ele>
        <time>2018-08-14T16:36:27Z</time>
      </trkpt>
      <trkpt lat="43.237051" lon="3.140923">
        <ele>28.069014</ele>
        <time>2018-08-14T16:36:43Z</time>
      </trkpt>
      <trkpt lat="43.234660" lon="3.136304">
        <ele>29.415192</ele>
        <time>2018-08-14T16:36:59Z</time>
      </trkpt>
      <trkpt lat="43.232861" lon="3.131448">
        <ele>29.959076</ele>
        <time>2018-08-14T16:37:15Z</time>
      </trkpt>
      <trkpt lat="43.231630" lon="3.126483">
        <ele>31.666992</ele>
        <time>2018-08-14T16:37:31Z</time>
      </trkpt>
      <trkpt lat="43.230899" lon="3.121419">
        <ele>41.521942</ele>
        <time>2018-08-14T16:37:46Z</time>
      </trkpt>
      <trkpt lat="43.230257" lon="3.115873">
        <ele>51.203026</ele>
        <time>2018-08-14T16:38:02Z</time>
      </trkpt>
      <trkpt lat="43.229605" lon="3.110443">
        <ele>48.898438</ele>
        <time>2018-08-14T16:38:17Z</time>
      </trkpt>
      <trkpt lat="43.228262" lon="3.105120">
        <ele>49.718582</ele>
        <time>2018-08-14T16:38:33Z</time>
      </trkpt>
      <trkpt lat="43.226195" lon="3.100536">
        <ele>50.417831</ele>
        <time>2018-08-14T16:38:48Z</time>
      </trkpt>
      <trkpt lat="43.223214" lon="3.096427">
        <ele>40.053387</ele>
        <time>2018-08-14T16:39:04Z</time>
      </trkpt>
      <trkpt lat="43.219884" lon="3.093546">
        <ele>31.858320</ele>
        <time>2018-08-14T16:39:19Z</time>
      </trkpt>
      <trkpt lat="43.215965" lon="3.091474">
        <ele>29.694937</ele>
        <time>2018-08-14T16:39:35Z</time>
      </trkpt>
      <trkpt lat="43.212252" lon="3.089708">
        <ele>29.860352</ele>
        <time>2018-08-14T16:39:50Z</time>
      </trkpt>
      <trkpt lat="43.208836" lon="3.087257">
        <ele>43.116241</ele>
        <time>2018-08-14T16:40:05Z</time>
      </trkpt>
      <trkpt lat="43.205338" lon="3.083710">
        <ele>44.181252</ele>
        <time>2018-08-14T16:40:21Z</time>
      </trkpt>
      <trkpt lat="43.202007" lon="3.080511">
        <ele>42.250381</ele>
        <time>2018-08-14T16:40:36Z</time>
      </trkpt>
      <trkpt lat="43.198711" lon="3.077440">
        <ele>28.269993</ele>
        <time>2018-08-14T16:40:51Z</time>
      </trkpt>
      <trkpt lat="43.195368" lon="3.073770">
        <ele>11.627895</ele>
        <time>2018-08-14T16:41:07Z</time>
      </trkpt>
      <trkpt lat="43.192359" lon="3.069766">
        <ele>10.180813</ele>
        <time>2018-08-14T16:41:23Z</time>
      </trkpt>
      <trkpt lat="43.189640" lon="3.065465">
        <ele>12.989990</ele>
        <time>2018-08-14T16:41:38Z</time>
      </trkpt>
      <trkpt lat="43.187121" lon="3.060546">
        <ele>4.454498</ele>
        <time>2018-08-14T16:41:54Z</time>
      </trkpt>
      <trkpt lat="43.185062" lon="3.055584">
        <ele>5.551353</ele>
        <time>2018-08-14T16:42:10Z</time>
      </trkpt>
      <trkpt lat="43.183451" lon="3.050862">
        <ele>3.723011</ele>
        <time>2018-08-14T16:42:25Z</time>
      </trkpt>
      <trkpt lat="43.181546" lon="3.045677">
        <ele>3.866713</ele>
        <time>2018-08-14T16:42:41Z</time>
      </trkpt>
      <trkpt lat="43.179320" lon="3.040650">
        <ele>4.734109</ele>
        <time>2018-08-14T16:42:57Z</time>
      </trkpt>
      <trkpt lat="43.177205" lon="3.035968">
        <ele>5.047493</ele>
        <time>2018-08-14T16:43:13Z</time>
      </trkpt>
      <trkpt lat="43.175614" lon="3.031698">
        <ele>7.754619</ele>
        <time>2018-08-14T16:43:28Z</time>
      </trkpt>
      <trkpt lat="43.174413" lon="3.027861">
        <ele>5.660583</ele>
        <time>2018-08-14T16:43:43Z</time>
      </trkpt>
      <trkpt lat="43.173079" lon="3.023333">
        <ele>3.306049</ele>
        <time>2018-08-14T16:43:59Z</time>
      </trkpt>
      <trkpt lat="43.171763" lon="3.018959">
        <ele>5.134081</ele>
        <time>2018-08-14T16:44:14Z</time>
      </trkpt>
      <trkpt lat="43.170468" lon="3.014607">
        <ele>5.118054</ele>
        <time>2018-08-14T16:44:29Z</time>
      </trkpt>
      <trkpt lat="43.169126" lon="3.010071">
        <ele>7.000000</ele>
        <time>2018-08-14T16:44:45Z</time>
      </trkpt>
      <trkpt lat="43.167823" lon="3.005712">
        <ele>7.887058</ele>
        <time>2018-08-14T16:45:01Z</time>
      </trkpt>
      <trkpt lat="43.166521" lon="3.001308">
        <ele>7.840882</ele>
        <time>2018-08-14T16:45:16Z</time>
      </trkpt>
      <trkpt lat="43.164899" lon="2.996862">
        <ele>12.999281</ele>
        <time>2018-08-14T16:45:32Z</time>
      </trkpt>
      <trkpt lat="43.163567" lon="2.993363">
        <ele>18.974792</ele>
        <time>2018-08-14T16:45:48Z</time>
      </trkpt>
      <trkpt lat="43.164421" lon="2.990759">
        <ele>20.577539</ele>
        <time>2018-08-14T16:46:03Z</time>
      </trkpt>
      <trkpt lat="43.164617" lon="2.990288">
        <ele>19.450203</ele>
        <time>2018-08-14T16:46:26Z</time>
      </trkpt>
      <trkpt lat="43.164702" lon="2.990117">
        <ele>18.946709</ele>
        <time>2018-08-14T16:46:58Z</time>
      </trkpt>
      <trkpt lat="43.165474" lon="2.988943">
        <ele>15.195328</ele>
        <time>2018-08-14T16:47:14Z</time>
      </trkpt>
      <trkpt lat="43.165764" lon="2.987322">
        <ele>12.862565</ele>
        <time>2018-08-14T16:47:29Z</time>
      </trkpt>
      <trkpt lat="43.166700" lon="2.985942">
        <ele>13.954970</ele>
        <time>2018-08-14T16:47:45Z</time>
      </trkpt>
      <trkpt lat="43.166617" lon="2.986985">
        <ele>13.221655</ele>
        <time>2018-08-14T16:48:00Z</time>
      </trkpt>
      <trkpt lat="43.165349" lon="2.986172">
        <ele>11.612892</ele>
        <time>2018-08-14T16:48:15Z</time>
      </trkpt>
      <trkpt lat="43.163684" lon="2.984971">
        <ele>12.231580</ele>
        <time>2018-08-14T16:48:31Z</time>
      </trkpt>
      <trkpt lat="43.161780" lon="2.983612">
        <ele>11.560166</ele>
        <time>2018-08-14T16:48:47Z</time>
      </trkpt>
      <trkpt lat="43.159626" lon="2.982555">
        <ele>9.904693</ele>
        <time>2018-08-14T16:49:02Z</time>
      </trkpt>
      <trkpt lat="43.157293" lon="2.981540">
        <ele>9.653674</ele>
        <time>2018-08-14T16:49:18Z</time>
      </trkpt>
      <trkpt lat="43.156136" lon="2.981160">
        <ele>10.930548</ele>
        <time>2018-08-14T16:49:34Z</time>
      </trkpt>
      <trkpt lat="43.153606" lon="2.980113">
        <ele>12.503239</ele>
        <time>2018-08-14T16:49:49Z</time>
      </trkpt>
      <trkpt lat="43.150715" lon="2.978787">
        <ele>16.545404</ele>
        <time>2018-08-14T16:50:04Z</time>
      </trkpt>
      <trkpt lat="43.147770" lon="2.977089">
        <ele>14.150854</ele>
        <time>2018-08-14T16:50:19Z</time>
      </trkpt>
      <trkpt lat="43.145476" lon="2.975727">
        <ele>22.309504</ele>
        <time>2018-08-14T16:50:35Z</time>
      </trkpt>
      <trkpt lat="43.144129" lon="2.974934">
        <ele>25.113770</ele>
        <time>2018-08-14T16:50:51Z</time>
      </trkpt>
      <trkpt lat="43.141617" lon="2.973393">
        <ele>26.906818</ele>
        <time>2018-08-14T16:51:07Z</time>
      </trkpt>
      <trkpt lat="43.139096" lon="2.971543">
        <ele>30.032804</ele>
        <time>2018-08-14T16:51:23Z</time>
      </trkpt>
      <trkpt lat="43.137063" lon="2.968825">
        <ele>32.260834</ele>
        <time>2018-08-14T16:51:38Z</time>
      </trkpt>
      <trkpt lat="43.134705" lon="2.966360">
        <ele>27.934280</ele>
        <time>2018-08-14T16:51:54Z</time>
      </trkpt>
      <trkpt lat="43.132521" lon="2.964359">
        <ele>33.494160</ele>
        <time>2018-08-14T16:52:09Z</time>
      </trkpt>
      <trkpt lat="43.130317" lon="2.962362">
        <ele>35.316971</ele>
        <time>2018-08-14T16:52:25Z</time>
      </trkpt>
      <trkpt lat="43.128968" lon="2.960861">
        <ele>34.921265</ele>
        <time>2018-08-14T16:52:40Z</time>
      </trkpt>
      <trkpt lat="43.128812" lon="2.960870">
        <ele>35.657288</ele>
        <time>2018-08-14T16:53:29Z</time>
      </trkpt>
      <trkpt lat="43.126998" lon="2.959403">
        <ele>37.316040</ele>
        <time>2018-08-14T16:53:45Z</time>
      </trkpt>
      <trkpt lat="43.124153" lon="2.956906">
        <ele>33.277954</ele>
        <time>2018-08-14T16:54:01Z</time>
      </trkpt>
      <trkpt lat="43.121671" lon="2.954783">
        <ele>34.266644</ele>
        <time>2018-08-14T16:54:16Z</time>
      </trkpt>
      <trkpt lat="43.120245" lon="2.953897">
        <ele>38.375542</ele>
        <time>2018-08-14T16:54:31Z</time>
      </trkpt>
      <trkpt lat="43.119486" lon="2.953421">
        <ele>39.556091</ele>
        <time>2018-08-14T16:54:47Z</time>
      </trkpt>
      <trkpt lat="43.118057" lon="2.952482">
        <ele>38.706055</ele>
        <time>2018-08-14T16:55:02Z</time>
      </trkpt>
      <trkpt lat="43.117265" lon="2.951976">
        <ele>42.282104</ele>
        <time>2018-08-14T16:55:24Z</time>
      </trkpt>
      <trkpt lat="43.116953" lon="2.952286">
        <ele>42.652660</ele>
        <time>2018-08-14T16:55:40Z</time>
      </trkpt>
      <trkpt lat="43.116599" lon="2.952714">
        <ele>42.283127</ele>
        <time>2018-08-14T16:55:55Z</time>
      </trkpt>
      <trkpt lat="43.116578" lon="2.952907">
        <ele>41.705547</ele>
        <time>2018-08-14T16:56:55Z</time>
      </trkpt>
      <trkpt lat="43.116977" lon="2.953286">
        <ele>40.698723</ele>
        <time>2018-08-14T16:57:10Z</time>
      </trkpt>
      <trkpt lat="43.117324" lon="2.953577">
        <ele>39.503448</ele>
        <time>2018-08-14T16:58:11Z</time>
      </trkpt>
      <trkpt lat="43.117234" lon="2.954350">
        <ele>36.498718</ele>
        <time>2018-08-14T16:58:27Z</time>
      </trkpt>
      <trkpt lat="43.116635" lon="2.954222">
        <ele>36.510441</ele>
        <time>2018-08-14T16:58:43Z</time>
      </trkpt>
      <trkpt lat="43.116477" lon="2.953225">
        <ele>40.406792</ele>
        <time>2018-08-14T16:58:59Z</time>
      </trkpt>
      <trkpt lat="43.116562" lon="2.952888">
        <ele>41.699715</ele>
        <time>2018-08-14T16:59:15Z</time>
      </trkpt>
      <trkpt lat="43.116677" lon="2.952562">
        <ele>42.815727</ele>
        <time>2018-08-14T16:59:31Z</time>
      </trkpt>
      <trkpt lat="43.11668" lon="2.95256">
        <ele>0.0</ele>
      </trkpt>
      <trkpt lat="43.11671" lon="2.95248">
        <ele>0.0</ele>
      </trkpt>
      <trkpt lat="43.11681" lon="2.95231">
        <ele>0.0</ele>
      </trkpt>
      <trkpt lat="43.1169" lon="2.95217">
        <ele>0.0</ele>
      </trkpt>
      <trkpt lat="43.11698" lon="2.95225">
        <ele>0.0</ele>
      </trkpt>
      <trkpt lat="43.11701" lon="2.95227">
        <ele>0.0</ele>
      </trkpt>
      <trkpt lat="43.11704" lon="2.95227">
        <ele>0.0</ele>
      </trkpt>
      <trkpt lat="43.11707" lon="2.95225">
        <ele>0.0</ele>
      </trkpt>
      <trkpt lat="43.1171" lon="2.95221">
        <ele>0.0</ele>
      </trkpt>
      <trkpt lat="43.11711" lon="2.95219">
        <ele>0.0</ele>
      </trkpt>
      <trkpt lat="43.11718" lon="2.95206">
        <ele>0.0</ele>
      </trkpt>
      <trkpt lat="43.1172" lon="2.95201">
        <ele>0.0</ele>
      </trkpt>
      <trkpt lat="43.11723" lon="2.95195">
        <ele>0.0</ele>
      </trkpt>
      <trkpt lat="43.11748" lon="2.95211">
        <ele>0.0</ele>
      </trkpt>
      <trkpt lat="43.1178" lon="2.95232">
        <ele>0.0</ele>
      </trkpt>
      <trkpt lat="43.11813" lon="2.95254">
        <ele>0.0</ele>
      </trkpt>
      <trkpt lat="43.11846" lon="2.95276">
        <ele>0.0</ele>
      </trkpt>
      <trkpt lat="43.1186" lon="2.95285">
        <ele>0.0</ele>
      </trkpt>
      <trkpt lat="43.11878" lon="2.95297">
        <ele>0.0</ele>
      </trkpt>
      <trkpt lat="43.11925" lon="2.95328">
        <ele>0.0</ele>
      </trkpt>
      <trkpt lat="43.11938" lon="2.95336">
        <ele>0.0</ele>
      </trkpt>
      <trkpt lat="43.11968" lon="2.95355">
        <ele>0.0</ele>
      </trkpt>
      <trkpt lat="43.11968" lon="2.95356">
        <ele>0.0</ele>
      </trkpt>
      <trkpt lat="43.11974" lon="2.95359">
        <ele>0.0</ele>
      </trkpt>
      <trkpt lat="43.1199" lon="2.95371">
        <ele>0.0</ele>
      </trkpt>
      <trkpt lat="43.12004" lon="2.9538">
        <ele>0.0</ele>
      </trkpt>
      <trkpt lat="43.12015" lon="2.95386">
        <ele>0.0</ele>
      </trkpt>
      <trkpt lat="43.12031" lon="2.95396">
        <ele>0.0</ele>
      </trkpt>
      <trkpt lat="43.12113" lon="2.95447">
        <ele>0.0</ele>
      </trkpt>
      <trkpt lat="43.12153" lon="2.95472">
        <ele>0.0</ele>
      </trkpt>
      <trkpt lat="43.12186" lon="2.95494">
        <ele>0.0</ele>
      </trkpt>
      <trkpt lat="43.12189" lon="2.95497">
        <ele>0.0</ele>
      </trkpt>
      <trkpt lat="43.122" lon="2.95504">
        <ele>0.0</ele>
      </trkpt>
      <trkpt lat="43.12217" lon="2.95517">
        <ele>0.0</ele>
      </trkpt>
      <trkpt lat="43.12285" lon="2.95578">
        <ele>0.0</ele>
      </trkpt>
      <trkpt lat="43.12308" lon="2.95598">
        <ele>0.0</ele>
      </trkpt>
      <trkpt lat="43.12381" lon="2.95663">
        <ele>0.0</ele>
      </trkpt>
      <trkpt lat="43.12409" lon="2.95687">
        <ele>0.0</ele>
      </trkpt>
      <trkpt lat="43.12417" lon="2.95695">
        <ele>0.0</ele>
      </trkpt>
      <trkpt lat="43.1242" lon="2.95698">
        <ele>0.0</ele>
      </trkpt>
      <trkpt lat="43.12423" lon="2.957">
        <ele>0.0</ele>
      </trkpt>
      <trkpt lat="43.12431" lon="2.95707">
        <ele>0.0</ele>
      </trkpt>
      <trkpt lat="43.12465" lon="2.95737">
        <ele>0.0</ele>
      </trkpt>
      <trkpt lat="43.12508" lon="2.95775">
        <ele>0.0</ele>
      </trkpt>
      <trkpt lat="43.12521" lon="2.95787">
        <ele>0.0</ele>
      </trkpt>
      <trkpt lat="43.12589" lon="2.95847">
        <ele>0.0</ele>
      </trkpt>
      <trkpt lat="43.12636" lon="2.9589">
        <ele>0.0</ele>
      </trkpt>
      <trkpt lat="43.12655" lon="2.95906">
        <ele>0.0</ele>
      </trkpt>
      <trkpt lat="43.12674" lon="2.95926">
        <ele>0.0</ele>
      </trkpt>
      <trkpt lat="43.12718" lon="2.95968">
        <ele>0.0</ele>
      </trkpt>
      <trkpt lat="43.12724" lon="2.95973">
        <ele>0.0</ele>
      </trkpt>
      <trkpt lat="43.12736" lon="2.95983">
        <ele>0.0</ele>
      </trkpt>
      <trkpt lat="43.12753" lon="2.95998">
        <ele>0.0</ele>
      </trkpt>
      <trkpt lat="43.12785" lon="2.96026">
        <ele>0.0</ele>
      </trkpt>
      <trkpt lat="43.12803" lon="2.96043">
        <ele>0.0</ele>
      </trkpt>
      <trkpt lat="43.12818" lon="2.96056">
        <ele>0.0</ele>
      </trkpt>
      <trkpt lat="43.12828" lon="2.96065">
        <ele>0.0</ele>
      </trkpt>
      <trkpt lat="43.12839" lon="2.96075">
        <ele>0.0</ele>
      </trkpt>
      <trkpt lat="43.12863" lon="2.96095">
        <ele>0.0</ele>
      </trkpt>
      <trkpt lat="43.1287" lon="2.96101">
        <ele>0.0</ele>
      </trkpt>
      <trkpt lat="43.12887" lon="2.96117">
        <ele>0.0</ele>
      </trkpt>
      <trkpt lat="43.12923" lon="2.96148">
        <ele>0.0</ele>
      </trkpt>
      <trkpt lat="43.12941" lon="2.96165">
        <ele>0.0</ele>
      </trkpt>
      <trkpt lat="43.12954" lon="2.96177">
        <ele>0.0</ele>
      </trkpt>
      <trkpt lat="43.12968" lon="2.96189">
        <ele>0.0</ele>
      </trkpt>
      <trkpt lat="43.13" lon="2.96218">
        <ele>0.0</ele>
      </trkpt>
      <trkpt lat="43.13007" lon="2.96224">
        <ele>0.0</ele>
      </trkpt>
      <trkpt lat="43.13011" lon="2.96227">
        <ele>0.0</ele>
      </trkpt>
      <trkpt lat="43.13013" lon="2.96228">
        <ele>0.0</ele>
      </trkpt>
      <trkpt lat="43.13019" lon="2.96231">
        <ele>0.0</ele>
      </trkpt>
      <trkpt lat="43.13039" lon="2.96248">
        <ele>0.0</ele>
      </trkpt>
      <trkpt lat="43.13057" lon="2.96265">
        <ele>0.0</ele>
      </trkpt>
      <trkpt lat="43.1309" lon="2.96297">
        <ele>0.0</ele>
      </trkpt>
      <trkpt lat="43.13116" lon="2.96321">
        <ele>0.0</ele>
      </trkpt>
      <trkpt lat="43.13146" lon="2.96348">
        <ele>0.0</ele>
      </trkpt>
      <trkpt lat="43.13195" lon="2.96393">
        <ele>0.0</ele>
      </trkpt>
      <trkpt lat="43.13211" lon="2.96408">
        <ele>0.0</ele>
      </trkpt>
      <trkpt lat="43.13249" lon="2.96442">
        <ele>0.0</ele>
      </trkpt>
      <trkpt lat="43.13268" lon="2.96459">
        <ele>0.0</ele>
      </trkpt>
      <trkpt lat="43.1329" lon="2.9648">
        <ele>0.0</ele>
      </trkpt>
      <trkpt lat="43.13339" lon="2.96524">
        <ele>0.0</ele>
      </trkpt>
      <trkpt lat="43.13341" lon="2.96525">
        <ele>0.0</ele>
      </trkpt>
      <trkpt lat="43.13348" lon="2.96532">
        <ele>0.0</ele>
      </trkpt>
      <trkpt lat="43.13376" lon="2.96557">
        <ele>0.0</ele>
      </trkpt>
      <trkpt lat="43.13411" lon="2.96591">
        <ele>0.0</ele>
      </trkpt>
      <trkpt lat="43.13439" lon="2.96616">
        <ele>0.0</ele>
      </trkpt>
      <trkpt lat="43.13467" lon="2.96642">
        <ele>0.0</ele>
      </trkpt>
      <trkpt lat="43.13514" lon="2.96686">
        <ele>0.0</ele>
      </trkpt>
      <trkpt lat="43.13547" lon="2.96717">
        <ele>0.0</ele>
      </trkpt>
      <trkpt lat="43.13582" lon="2.96749">
        <ele>0.0</ele>
      </trkpt>
      <trkpt lat="43.1362" lon="2.96786">
        <ele>0.0</ele>
      </trkpt>
      <trkpt lat="43.13632" lon="2.96798">
        <ele>0.0</ele>
      </trkpt>
      <trkpt lat="43.13641" lon="2.96808">
        <ele>0.0</ele>
      </trkpt>
      <trkpt lat="43.13664" lon="2.96836">
        <ele>0.0</ele>
      </trkpt>
      <trkpt lat="43.13673" lon="2.9685">
        <ele>0.0</ele>
      </trkpt>
      <trkpt lat="43.13685" lon="2.96867">
        <ele>0.0</ele>
      </trkpt>
      <trkpt lat="43.13719" lon="2.96912">
        <ele>0.0</ele>
      </trkpt>
      <trkpt lat="43.13752" lon="2.96957">
        <ele>0.0</ele>
      </trkpt>
      <trkpt lat="43.13824" lon="2.97052">
        <ele>0.0</ele>
      </trkpt>
      <trkpt lat="43.1383" lon="2.9706">
        <ele>0.0</ele>
      </trkpt>
      <trkpt lat="43.13846" lon="2.9708">
        <ele>0.0</ele>
      </trkpt>
      <trkpt lat="43.13848" lon="2.97084">
        <ele>0.0</ele>
      </trkpt>
      <trkpt lat="43.13854" lon="2.97091">
        <ele>0.0</ele>
      </trkpt>
      <trkpt lat="43.13872" lon="2.97114">
        <ele>0.0</ele>
      </trkpt>
      <trkpt lat="43.13894" lon="2.97143">
        <ele>0.0</ele>
      </trkpt>
      <trkpt lat="43.13895" lon="2.97144">
        <ele>0.0</ele>
      </trkpt>
      <trkpt lat="43.13898" lon="2.97148">
        <ele>0.0</ele>
      </trkpt>
      <trkpt lat="43.13901" lon="2.97153">
        <ele>0.0</ele>
      </trkpt>
      <trkpt lat="43.13909" lon="2.97162">
        <ele>0.0</ele>
      </trkpt>
      <trkpt lat="43.13927" lon="2.97184">
        <ele>0.0</ele>
      </trkpt>
      <trkpt lat="43.13941" lon="2.97198">
        <ele>0.0</ele>
      </trkpt>
      <trkpt lat="43.13954" lon="2.9721">
        <ele>0.0</ele>
      </trkpt>
      <trkpt lat="43.13972" lon="2.97224">
        <ele>0.0</ele>
      </trkpt>
      <trkpt lat="43.14003" lon="2.97245">
        <ele>0.0</ele>
      </trkpt>
      <trkpt lat="43.14015" lon="2.97253">
        <ele>0.0</ele>
      </trkpt>
      <trkpt lat="43.14033" lon="2.97264">
        <ele>0.0</ele>
      </trkpt>
      <trkpt lat="43.14054" lon="2.97278">
        <ele>0.0</ele>
      </trkpt>
      <trkpt lat="43.14107" lon="2.97309">
        <ele>0.0</ele>
      </trkpt>
      <trkpt lat="43.14115" lon="2.97311">
        <ele>0.0</ele>
      </trkpt>
      <trkpt lat="43.14212" lon="2.97371">
        <ele>0.0</ele>
      </trkpt>
      <trkpt lat="43.14322" lon="2.9744">
        <ele>0.0</ele>
      </trkpt>
      <trkpt lat="43.14355" lon="2.9746">
        <ele>0.0</ele>
      </trkpt>
      <trkpt lat="43.1439" lon="2.97483">
        <ele>0.0</ele>
      </trkpt>
      <trkpt lat="43.14407" lon="2.97493">
        <ele>0.0</ele>
      </trkpt>
      <trkpt lat="43.14417" lon="2.975">
        <ele>0.0</ele>
      </trkpt>
      <trkpt lat="43.14427" lon="2.97506">
        <ele>0.0</ele>
      </trkpt>
      <trkpt lat="43.14437" lon="2.97513">
        <ele>0.0</ele>
      </trkpt>
      <trkpt lat="43.14446" lon="2.97518">
        <ele>0.0</ele>
      </trkpt>
      <trkpt lat="43.14456" lon="2.97527">
        <ele>0.0</ele>
      </trkpt>
      <trkpt lat="43.14463" lon="2.97534">
        <ele>0.0</ele>
      </trkpt>
      <trkpt lat="43.14475" lon="2.97546">
        <ele>0.0</ele>
      </trkpt>
      <trkpt lat="43.1448" lon="2.97552">
        <ele>0.0</ele>
      </trkpt>
      <trkpt lat="43.14486" lon="2.97559">
        <ele>0.0</ele>
      </trkpt>
      <trkpt lat="43.14486" lon="2.97562">
        <ele>0.0</ele>
      </trkpt>
      <trkpt lat="43.14486" lon="2.97564">
        <ele>0.0</ele>
      </trkpt>
      <trkpt lat="43.14486" lon="2.97566">
        <ele>0.0</ele>
      </trkpt>
      <trkpt lat="43.14487" lon="2.97568">
        <ele>0.0</ele>
      </trkpt>
      <trkpt lat="43.14487" lon="2.9757">
        <ele>0.0</ele>
      </trkpt>
      <trkpt lat="43.14488" lon="2.97572">
        <ele>0.0</ele>
      </trkpt>
      <trkpt lat="43.14489" lon="2.97574">
        <ele>0.0</ele>
      </trkpt>
      <trkpt lat="43.1449" lon="2.97576">
        <ele>0.0</ele>
      </trkpt>
      <trkpt lat="43.14491" lon="2.97585">
        <ele>0.0</ele>
      </trkpt>
      <trkpt lat="43.14491" lon="2.97593">
        <ele>0.0</ele>
      </trkpt>
      <trkpt lat="43.1449" lon="2.97602">
        <ele>0.0</ele>
      </trkpt>
      <trkpt lat="43.14485" lon="2.97628">
        <ele>0.0</ele>
      </trkpt>
      <trkpt lat="43.14482" lon="2.97639">
        <ele>0.0</ele>
      </trkpt>
      <trkpt lat="43.14478" lon="2.97654">
        <ele>0.0</ele>
      </trkpt>
      <trkpt lat="43.14477" lon="2.97658">
        <ele>0.0</ele>
      </trkpt>
      <trkpt lat="43.14477" lon="2.97664">
        <ele>0.0</ele>
      </trkpt>
      <trkpt lat="43.14477" lon="2.9767">
        <ele>0.0</ele>
      </trkpt>
      <trkpt lat="43.14478" lon="2.97673">
        <ele>0.0</ele>
      </trkpt>
      <trkpt lat="43.14479" lon="2.97676">
        <ele>0.0</ele>
      </trkpt>
      <trkpt lat="43.14481" lon="2.9768">
        <ele>0.0</ele>
      </trkpt>
      <trkpt lat="43.14484" lon="2.97684">
        <ele>0.0</ele>
      </trkpt>
      <trkpt lat="43.14491" lon="2.97689">
        <ele>0.0</ele>
      </trkpt>
      <trkpt lat="43.14498" lon="2.97693">
        <ele>0.0</ele>
      </trkpt>
      <trkpt lat="43.14506" lon="2.97698">
        <ele>0.0</ele>
      </trkpt>
      <trkpt lat="43.14514" lon="2.97703">
        <ele>0.0</ele>
      </trkpt>
      <trkpt lat="43.14524" lon="2.97708">
        <ele>0.0</ele>
      </trkpt>
      <trkpt lat="43.14533" lon="2.97714">
        <ele>0.0</ele>
      </trkpt>
      <trkpt lat="43.14544" lon="2.9772">
        <ele>0.0</ele>
      </trkpt>
      <trkpt lat="43.14554" lon="2.97725">
        <ele>0.0</ele>
      </trkpt>
      <trkpt lat="43.14573" lon="2.97737">
        <ele>0.0</ele>
      </trkpt>
      <trkpt lat="43.14583" lon="2.97742">
        <ele>0.0</ele>
      </trkpt>
      <trkpt lat="43.14591" lon="2.97747">
        <ele>0.0</ele>
      </trkpt>
      <trkpt lat="43.14598" lon="2.97751">
        <ele>0.0</ele>
      </trkpt>
      <trkpt lat="43.1461" lon="2.97758">
        <ele>0.0</ele>
      </trkpt>
      <trkpt lat="43.14613" lon="2.9776">
        <ele>0.0</ele>
      </trkpt>
      <trkpt lat="43.14616" lon="2.97764">
        <ele>0.0</ele>
      </trkpt>
      <trkpt lat="43.14617" lon="2.97768">
        <ele>0.0</ele>
      </trkpt>
      <trkpt lat="43.14618" lon="2.97771">
        <ele>0.0</ele>
      </trkpt>
      <trkpt lat="43.14619" lon="2.97777">
        <ele>0.0</ele>
      </trkpt>
      <trkpt lat="43.14619" lon="2.97785">
        <ele>0.0</ele>
      </trkpt>
      <trkpt lat="43.14618" lon="2.97793">
        <ele>0.0</ele>
      </trkpt>
      <trkpt lat="43.14615" lon="2.9781">
        <ele>0.0</ele>
      </trkpt>
      <trkpt lat="43.1461" lon="2.97829">
        <ele>0.0</ele>
      </trkpt>
      <trkpt lat="43.14607" lon="2.9784">
        <ele>0.0</ele>
      </trkpt>
      <trkpt lat="43.14602" lon="2.97859">
        <ele>0.0</ele>
      </trkpt>
      <trkpt lat="43.14593" lon="2.97903">
        <ele>0.0</ele>
      </trkpt>
      <trkpt lat="43.14585" lon="2.97934">
        <ele>0.0</ele>
      </trkpt>
      <trkpt lat="43.14585" lon="2.97936">
        <ele>0.0</ele>
      </trkpt>
      <trkpt lat="43.14575" lon="2.97975">
        <ele>0.0</ele>
      </trkpt>
      <trkpt lat="43.14568" lon="2.97999">
        <ele>0.0</ele>
      </trkpt>
      <trkpt lat="43.14565" lon="2.98009">
        <ele>0.0</ele>
      </trkpt>
      <trkpt lat="43.14561" lon="2.98018">
        <ele>0.0</ele>
      </trkpt>
      <trkpt lat="43.14554" lon="2.98035">
        <ele>0.0</ele>
      </trkpt>
      <trkpt lat="43.1454" lon="2.98063">
        <ele>0.0</ele>
      </trkpt>
      <trkpt lat="43.14528" lon="2.98085">
        <ele>0.0</ele>
      </trkpt>
      <trkpt lat="43.14519" lon="2.98102">
        <ele>0.0</ele>
      </trkpt>
      <trkpt lat="43.1451" lon="2.98119">
        <ele>0.0</ele>
      </trkpt>
      <trkpt lat="43.14504" lon="2.98128">
        <ele>0.0</ele>
      </trkpt>
      <trkpt lat="43.14474" lon="2.98178">
        <ele>0.0</ele>
      </trkpt>
      <trkpt lat="43.14469" lon="2.98184">
        <ele>0.0</ele>
      </trkpt>
      <trkpt lat="43.14465" lon="2.9819">
        <ele>0.0</ele>
      </trkpt>
      <trkpt lat="43.14457" lon="2.982">
        <ele>0.0</ele>
      </trkpt>
      <trkpt lat="43.1445" lon="2.98211">
        <ele>0.0</ele>
      </trkpt>
      <trkpt lat="43.1445" lon="2.98212">
        <ele>0.0</ele>
      </trkpt>
      <trkpt lat="43.14437" lon="2.98238">
        <ele>0.0</ele>
      </trkpt>
      <trkpt lat="43.14415" lon="2.98298">
        <ele>0.0</ele>
      </trkpt>
      <trkpt lat="43.1441" lon="2.98314">
        <ele>0.0</ele>
      </trkpt>
      <trkpt lat="43.14407" lon="2.98323">
        <ele>0.0</ele>
      </trkpt>
      <trkpt lat="43.14403" lon="2.98331">
        <ele>0.0</ele>
      </trkpt>
      <trkpt lat="43.14401" lon="2.98332">
        <ele>0.0</ele>
      </trkpt>
      <trkpt lat="43.14394" lon="2.98338">
        <ele>0.0</ele>
      </trkpt>
      <trkpt lat="43.14389" lon="2.98341">
        <ele>0.0</ele>
      </trkpt>
      <trkpt lat="43.14385" lon="2.98343">
        <ele>0.0</ele>
      </trkpt>
      <trkpt lat="43.14382" lon="2.98343">
        <ele>0.0</ele>
      </trkpt>
      <trkpt lat="43.14379" lon="2.98343">
        <ele>0.0</ele>
      </trkpt>
      <trkpt lat="43.14373" lon="2.98342">
        <ele>0.0</ele>
      </trkpt>
      <trkpt lat="43.14367" lon="2.9834">
        <ele>0.0</ele>
      </trkpt>
      <trkpt lat="43.1432" lon="2.98324">
        <ele>0.0</ele>
      </trkpt>
      <trkpt lat="43.14312" lon="2.9832">
        <ele>0.0</ele>
      </trkpt>
      <trkpt lat="43.14304" lon="2.98316">
        <ele>0.0</ele>
      </trkpt>
      <trkpt lat="43.14298" lon="2.98311">
        <ele>0.0</ele>
      </trkpt>
      <trkpt lat="43.14294" lon="2.98308">
        <ele>0.0</ele>
      </trkpt>
      <trkpt lat="43.1429" lon="2.98305">
        <ele>0.0</ele>
      </trkpt>
      <trkpt lat="43.14288" lon="2.98303">
        <ele>0.0</ele>
      </trkpt>
      <trkpt lat="43.14279" lon="2.98295">
        <ele>0.0</ele>
      </trkpt>
      <trkpt lat="43.14234" lon="2.98249">
        <ele>0.0</ele>
      </trkpt>
      <trkpt lat="43.14177" lon="2.98187">
        <ele>0.0</ele>
      </trkpt>
      <trkpt lat="43.14154" lon="2.98164">
        <ele>0.0</ele>
      </trkpt>
      <trkpt lat="43.14128" lon="2.98142">
        <ele>0.0</ele>
      </trkpt>
      <trkpt lat="43.14061" lon="2.98082">
        <ele>0.0</ele>
      </trkpt>
      <trkpt lat="43.13975" lon="2.98003">
        <ele>0.0</ele>
      </trkpt>
      <trkpt lat="43.13931" lon="2.97966">
        <ele>0.0</ele>
      </trkpt>
      <trkpt lat="43.13916" lon="2.97957">
        <ele>0.0</ele>
      </trkpt>
      <trkpt lat="43.13915" lon="2.97957">
        <ele>0.0</ele>
      </trkpt>
      <trkpt lat="43.13903" lon="2.97953">
        <ele>0.0</ele>
      </trkpt>
      <trkpt lat="43.13893" lon="2.97952">
        <ele>0.0</ele>
      </trkpt>
      <trkpt lat="43.13884" lon="2.97951">
        <ele>0.0</ele>
      </trkpt>
      <trkpt lat="43.13874" lon="2.97953">
        <ele>0.0</ele>
      </trkpt>
      <trkpt lat="43.13864" lon="2.97956">
        <ele>0.0</ele>
      </trkpt>
      <trkpt lat="43.13854" lon="2.97961">
        <ele>0.0</ele>
      </trkpt>
      <trkpt lat="43.13844" lon="2.97968">
        <ele>0.0</ele>
      </trkpt>
      <trkpt lat="43.13836" lon="2.97975">
        <ele>0.0</ele>
      </trkpt>
      <trkpt lat="43.13834" lon="2.97977">
        <ele>0.0</ele>
      </trkpt>
      <trkpt lat="43.13829" lon="2.97981">
        <ele>0.0</ele>
      </trkpt>
      <trkpt lat="43.13822" lon="2.9799">
        <ele>0.0</ele>
      </trkpt>
      <trkpt lat="43.13817" lon="2.98001">
        <ele>0.0</ele>
      </trkpt>
      <trkpt lat="43.13806" lon="2.98027">
        <ele>0.0</ele>
      </trkpt>
      <trkpt lat="43.13795" lon="2.98061">
        <ele>0.0</ele>
      </trkpt>
      <trkpt lat="43.13788" lon="2.98073">
        <ele>0.0</ele>
      </trkpt>
      <trkpt lat="43.13782" lon="2.98083">
        <ele>0.0</ele>
      </trkpt>
      <trkpt lat="43.13774" lon="2.98093">
        <ele>0.0</ele>
      </trkpt>
      <trkpt lat="43.13767" lon="2.98101">
        <ele>0.0</ele>
      </trkpt>
      <trkpt lat="43.13757" lon="2.98107">
        <ele>0.0</ele>
      </trkpt>
      <trkpt lat="43.13727" lon="2.98122">
        <ele>0.0</ele>
      </trkpt>
      <trkpt lat="43.13716" lon="2.98128">
        <ele>0.0</ele>
      </trkpt>
      <trkpt lat="43.13708" lon="2.98135">
        <ele>0.0</ele>
      </trkpt>
      <trkpt lat="43.13698" lon="2.98142">
        <ele>0.0</ele>
      </trkpt>
      <trkpt lat="43.1369" lon="2.98151">
        <ele>0.0</ele>
      </trkpt>
      <trkpt lat="43.13674" lon="2.98174">
        <ele>0.0</ele>
      </trkpt>
      <trkpt lat="43.13662" lon="2.98192">
        <ele>0.0</ele>
      </trkpt>
      <trkpt lat="43.13648" lon="2.98214">
        <ele>0.0</ele>
      </trkpt>
      <trkpt lat="43.13637" lon="2.98229">
        <ele>0.0</ele>
      </trkpt>
      <trkpt lat="43.13633" lon="2.98236">
        <ele>0.0</ele>
      </trkpt>
      <trkpt lat="43.13632" lon="2.98238">
        <ele>0.0</ele>
      </trkpt>
      <trkpt lat="43.13624" lon="2.98251">
        <ele>0.0</ele>
      </trkpt>
      <trkpt lat="43.13616" lon="2.98267">
        <ele>0.0</ele>
      </trkpt>
      <trkpt lat="43.13609" lon="2.98279">
        <ele>0.0</ele>
      </trkpt>
      <trkpt lat="43.13602" lon="2.98289">
        <ele>0.0</ele>
      </trkpt>
      <trkpt lat="43.13593" lon="2.98301">
        <ele>0.0</ele>
      </trkpt>
      <trkpt lat="43.13579" lon="2.98316">
        <ele>0.0</ele>
      </trkpt>
      <trkpt lat="43.13552" lon="2.98339">
        <ele>0.0</ele>
      </trkpt>
      <trkpt lat="43.13528" lon="2.98369">
        <ele>0.0</ele>
      </trkpt>
      <trkpt lat="43.1352" lon="2.98378">
        <ele>0.0</ele>
      </trkpt>
      <trkpt lat="43.13504" lon="2.98404">
        <ele>0.0</ele>
      </trkpt>
      <trkpt lat="43.13493" lon="2.9842">
        <ele>0.0</ele>
      </trkpt>
      <trkpt lat="43.13477" lon="2.98443">
        <ele>0.0</ele>
      </trkpt>
      <trkpt lat="43.13466" lon="2.98457">
        <ele>0.0</ele>
      </trkpt>
      <trkpt lat="43.1341" lon="2.98507">
        <ele>0.0</ele>
      </trkpt>
      <trkpt lat="43.13396" lon="2.9852">
        <ele>0.0</ele>
      </trkpt>
      <trkpt lat="43.13386" lon="2.98533">
        <ele>0.0</ele>
      </trkpt>
      <trkpt lat="43.13369" lon="2.98554">
        <ele>0.0</ele>
      </trkpt>
      <trkpt lat="43.13353" lon="2.98576">
        <ele>0.0</ele>
      </trkpt>
      <trkpt lat="43.13344" lon="2.98588">
        <ele>0.0</ele>
      </trkpt>
      <trkpt lat="43.13336" lon="2.98595">
        <ele>0.0</ele>
      </trkpt>
      <trkpt lat="43.13331" lon="2.98599">
        <ele>0.0</ele>
      </trkpt>
      <trkpt lat="43.13325" lon="2.98603">
        <ele>0.0</ele>
      </trkpt>
      <trkpt lat="43.13316" lon="2.98606">
        <ele>0.0</ele>
      </trkpt>
      <trkpt lat="43.13312" lon="2.98608">
        <ele>0.0</ele>
      </trkpt>
      <trkpt lat="43.13302" lon="2.98611">
        <ele>0.0</ele>
      </trkpt>
      <trkpt lat="43.13289" lon="2.98612">
        <ele>0.0</ele>
      </trkpt>
      <trkpt lat="43.13281" lon="2.98612">
        <ele>0.0</ele>
      </trkpt>
      <trkpt lat="43.13268" lon="2.98612">
        <ele>0.0</ele>
      </trkpt>
      <trkpt lat="43.13253" lon="2.98609">
        <ele>0.0</ele>
      </trkpt>
      <trkpt lat="43.13232" lon="2.98605">
        <ele>0.0</ele>
      </trkpt>
      <trkpt lat="43.13217" lon="2.98599">
        <ele>0.0</ele>
      </trkpt>
      <trkpt lat="43.13199" lon="2.98591">
        <ele>0.0</ele>
      </trkpt>
      <trkpt lat="43.13185" lon="2.98584">
        <ele>0.0</ele>
      </trkpt>
      <trkpt lat="43.13166" lon="2.98577">
        <ele>0.0</ele>
      </trkpt>
      <trkpt lat="43.13147" lon="2.9857">
        <ele>0.0</ele>
      </trkpt>
      <trkpt lat="43.1313" lon="2.98564">
        <ele>0.0</ele>
      </trkpt>
      <trkpt lat="43.13119" lon="2.98562">
        <ele>0.0</ele>
      </trkpt>
      <trkpt lat="43.1311" lon="2.98561">
        <ele>0.0</ele>
      </trkpt>
      <trkpt lat="43.13098" lon="2.98562">
        <ele>0.0</ele>
      </trkpt>
      <trkpt lat="43.13089" lon="2.98564">
        <ele>0.0</ele>
      </trkpt>
      <trkpt lat="43.13084" lon="2.98565">
        <ele>0.0</ele>
      </trkpt>
      <trkpt lat="43.13071" lon="2.98569">
        <ele>0.0</ele>
      </trkpt>
      <trkpt lat="43.13057" lon="2.98574">
        <ele>0.0</ele>
      </trkpt>
      <trkpt lat="43.13045" lon="2.98579">
        <ele>0.0</ele>
      </trkpt>
      <trkpt lat="43.13023" lon="2.98589">
        <ele>0.0</ele>
      </trkpt>
      <trkpt lat="43.12954" lon="2.98623">
        <ele>0.0</ele>
      </trkpt>
      <trkpt lat="43.1291" lon="2.98648">
        <ele>0.0</ele>
      </trkpt>
      <trkpt lat="43.12863" lon="2.98674">
        <ele>0.0</ele>
      </trkpt>
      <trkpt lat="43.12843" lon="2.98683">
        <ele>0.0</ele>
      </trkpt>
      <trkpt lat="43.12831" lon="2.98688">
        <ele>0.0</ele>
      </trkpt>
      <trkpt lat="43.12816" lon="2.9869">
        <ele>0.0</ele>
      </trkpt>
      <trkpt lat="43.12787" lon="2.98693">
        <ele>0.0</ele>
      </trkpt>
      <trkpt lat="43.1277" lon="2.98695">
        <ele>0.0</ele>
      </trkpt>
      <trkpt lat="43.1275" lon="2.98697">
        <ele>0.0</ele>
      </trkpt>
      <trkpt lat="43.12729" lon="2.98697">
        <ele>0.0</ele>
      </trkpt>
      <trkpt lat="43.12719" lon="2.98697">
        <ele>0.0</ele>
      </trkpt>
      <trkpt lat="43.12701" lon="2.98696">
        <ele>0.0</ele>
      </trkpt>
      <trkpt lat="43.12664" lon="2.98692">
        <ele>0.0</ele>
      </trkpt>
      <trkpt lat="43.1265" lon="2.98692">
        <ele>0.0</ele>
      </trkpt>
      <trkpt lat="43.12634" lon="2.98694">
        <ele>0.0</ele>
      </trkpt>
      <trkpt lat="43.1258" lon="2.98705">
        <ele>0.0</ele>
      </trkpt>
      <trkpt lat="43.12557" lon="2.98711">
        <ele>0.0</ele>
      </trkpt>
      <trkpt lat="43.12542" lon="2.98717">
        <ele>0.0</ele>
      </trkpt>
      <trkpt lat="43.12503" lon="2.98741">
        <ele>0.0</ele>
      </trkpt>
      <trkpt lat="43.12462" lon="2.98766">
        <ele>0.0</ele>
      </trkpt>
      <trkpt lat="43.12449" lon="2.98776">
        <ele>0.0</ele>
      </trkpt>
      <trkpt lat="43.1244" lon="2.98785">
        <ele>0.0</ele>
      </trkpt>
      <trkpt lat="43.12433" lon="2.98793">
        <ele>0.0</ele>
      </trkpt>
      <trkpt lat="43.12422" lon="2.98826">
        <ele>0.0</ele>
      </trkpt>
      <trkpt lat="43.12418" lon="2.9884">
        <ele>0.0</ele>
      </trkpt>
      <trkpt lat="43.12414" lon="2.98857">
        <ele>0.0</ele>
      </trkpt>
      <trkpt lat="43.12418" lon="2.98863">
        <ele>0.0</ele>
      </trkpt>
      <trkpt lat="43.12419" lon="2.98864">
        <ele>0.0</ele>
      </trkpt>
      <trkpt lat="43.12419" lon="2.98865">
        <ele>0.0</ele>
      </trkpt>
      <trkpt lat="43.1242" lon="2.98867">
        <ele>0.0</ele>
      </trkpt>
      <trkpt lat="43.1242" lon="2.98868">
        <ele>0.0</ele>
      </trkpt>
      <trkpt lat="43.12419" lon="2.98886">
        <ele>0.0</ele>
      </trkpt>
      <trkpt lat="43.12418" lon="2.98921">
        <ele>0.0</ele>
      </trkpt>
      <trkpt lat="43.12421" lon="2.98941">
        <ele>0.0</ele>
      </trkpt>
      <trkpt lat="43.12425" lon="2.98956">
        <ele>0.0</ele>
      </trkpt>
      <trkpt lat="43.12428" lon="2.98968">
        <ele>0.0</ele>
      </trkpt>
      <trkpt lat="43.12438" lon="2.98998">
        <ele>0.0</ele>
      </trkpt>
      <trkpt lat="43.12461" lon="2.99052">
        <ele>0.0</ele>
      </trkpt>
      <trkpt lat="43.12476" lon="2.99087">
        <ele>0.0</ele>
      </trkpt>
      <trkpt lat="43.12478" lon="2.99096">
        <ele>0.0</ele>
      </trkpt>
      <trkpt lat="43.12479" lon="2.99102">
        <ele>0.0</ele>
      </trkpt>
      <trkpt lat="43.1248" lon="2.9911">
        <ele>0.0</ele>
      </trkpt>
      <trkpt lat="43.1248" lon="2.99125">
        <ele>0.0</ele>
      </trkpt>
      <trkpt lat="43.12478" lon="2.99195">
        <ele>0.0</ele>
      </trkpt>
      <trkpt lat="43.12477" lon="2.99242">
        <ele>0.0</ele>
      </trkpt>
      <trkpt lat="43.12477" lon="2.99261">
        <ele>0.0</ele>
      </trkpt>
      <trkpt lat="43.12478" lon="2.99282">
        <ele>0.0</ele>
      </trkpt>
      <trkpt lat="43.12482" lon="2.9931">
        <ele>0.0</ele>
      </trkpt>
      <trkpt lat="43.12486" lon="2.99324">
        <ele>0.0</ele>
      </trkpt>
      <trkpt lat="43.12489" lon="2.99334">
        <ele>0.0</ele>
      </trkpt>
      <trkpt lat="43.12498" lon="2.99356">
        <ele>0.0</ele>
      </trkpt>
      <trkpt lat="43.12503" lon="2.99368">
        <ele>0.0</ele>
      </trkpt>
      <trkpt lat="43.12508" lon="2.99383">
        <ele>0.0</ele>
      </trkpt>
      <trkpt lat="43.12511" lon="2.99393">
        <ele>0.0</ele>
      </trkpt>
      <trkpt lat="43.12512" lon="2.99398">
        <ele>0.0</ele>
      </trkpt>
      <trkpt lat="43.12513" lon="2.99405">
        <ele>0.0</ele>
      </trkpt>
      <trkpt lat="43.12514" lon="2.99412">
        <ele>0.0</ele>
      </trkpt>
      <trkpt lat="43.12515" lon="2.99418">
        <ele>0.0</ele>
      </trkpt>
      <trkpt lat="43.12515" lon="2.99422">
        <ele>0.0</ele>
      </trkpt>
      <trkpt lat="43.12515" lon="2.99426">
        <ele>0.0</ele>
      </trkpt>
      <trkpt lat="43.12514" lon="2.99431">
        <ele>0.0</ele>
      </trkpt>
      <trkpt lat="43.12513" lon="2.99437">
        <ele>0.0</ele>
      </trkpt>
      <trkpt lat="43.12511" lon="2.99441">
        <ele>0.0</ele>
      </trkpt>
      <trkpt lat="43.12509" lon="2.99445">
        <ele>0.0</ele>
      </trkpt>
      <trkpt lat="43.12506" lon="2.99448">
        <ele>0.0</ele>
      </trkpt>
      <trkpt lat="43.12501" lon="2.99451">
        <ele>0.0</ele>
      </trkpt>
      <trkpt lat="43.12498" lon="2.99453">
        <ele>0.0</ele>
      </trkpt>
      <trkpt lat="43.12492" lon="2.99454">
        <ele>0.0</ele>
      </trkpt>
      <trkpt lat="43.12485" lon="2.99454">
        <ele>0.0</ele>
      </trkpt>
      <trkpt lat="43.12477" lon="2.99454">
        <ele>0.0</ele>
      </trkpt>
      <trkpt lat="43.12463" lon="2.99451">
        <ele>0.0</ele>
      </trkpt>
      <trkpt lat="43.12456" lon="2.99449">
        <ele>0.0</ele>
      </trkpt>
      <trkpt lat="43.12443" lon="2.99443">
        <ele>0.0</ele>
      </trkpt>
      <trkpt lat="43.12436" lon="2.99439">
        <ele>0.0</ele>
      </trkpt>
      <trkpt lat="43.12427" lon="2.99433">
        <ele>0.0</ele>
      </trkpt>
      <trkpt lat="43.12403" lon="2.99412">
        <ele>0.0</ele>
      </trkpt>
      <trkpt lat="43.12381" lon="2.99389">
        <ele>0.0</ele>
      </trkpt>
      <trkpt lat="43.12363" lon="2.99372">
        <ele>0.0</ele>
      </trkpt>
      <trkpt lat="43.12341" lon="2.99346">
        <ele>0.0</ele>
      </trkpt>
      <trkpt lat="43.1232" lon="2.9932">
        <ele>0.0</ele>
      </trkpt>
      <trkpt lat="43.12314" lon="2.99312">
        <ele>0.0</ele>
      </trkpt>
      <trkpt lat="43.12304" lon="2.99299">
        <ele>0.0</ele>
      </trkpt>
      <trkpt lat="43.123" lon="2.99294">
        <ele>0.0</ele>
      </trkpt>
      <trkpt lat="43.12295" lon="2.99287">
        <ele>0.0</ele>
      </trkpt>
      <trkpt lat="43.12294" lon="2.99284">
        <ele>0.0</ele>
      </trkpt>
      <trkpt lat="43.1229" lon="2.99275">
        <ele>0.0</ele>
      </trkpt>
      <trkpt lat="43.12288" lon="2.99269">
        <ele>0.0</ele>
      </trkpt>
      <trkpt lat="43.12286" lon="2.99257">
        <ele>0.0</ele>
      </trkpt>
      <trkpt lat="43.12285" lon="2.99232">
        <ele>0.0</ele>
      </trkpt>
      <trkpt lat="43.12283" lon="2.99223">
        <ele>0.0</ele>
      </trkpt>
      <trkpt lat="43.12282" lon="2.99217">
        <ele>0.0</ele>
      </trkpt>
      <trkpt lat="43.1227" lon="2.99186">
        <ele>0.0</ele>
      </trkpt>
      <trkpt lat="43.12258" lon="2.99162">
        <ele>0.0</ele>
      </trkpt>
      <trkpt lat="43.1225" lon="2.99145">
        <ele>0.0</ele>
      </trkpt>
      <trkpt lat="43.122323" lon="2.991244">
        <ele>7.458847</ele>
        <time>2018-08-15T09:18:37Z</time>
      </trkpt>
      <trkpt lat="43.121567" lon="2.990543">
        <ele>5.070951</ele>
        <time>2018-08-15T09:18:53Z</time>
      </trkpt>
      <trkpt lat="43.121310" lon="2.990493">
        <ele>4.473232</ele>
        <time>2018-08-15T09:19:20Z</time>
      </trkpt>
      <trkpt lat="43.121140" lon="2.990480">
        <ele>4.064242</ele>
        <time>2018-08-15T09:20:38Z</time>
      </trkpt>
      <trkpt lat="43.119966" lon="2.989302">
        <ele>3.532671</ele>
        <time>2018-08-15T09:20:54Z</time>
      </trkpt>
      <trkpt lat="43.118524" lon="2.988456">
        <ele>4.000000</ele>
        <time>2018-08-15T09:21:10Z</time>
      </trkpt>
      <trkpt lat="43.117168" lon="2.987247">
        <ele>20.672127</ele>
        <time>2018-08-15T09:21:25Z</time>
      </trkpt>
      <trkpt lat="43.115892" lon="2.986218">
        <ele>18.508230</ele>
        <time>2018-08-15T09:21:40Z</time>
      </trkpt>
      <trkpt lat="43.114262" lon="2.984807">
        <ele>6.561354</ele>
        <time>2018-08-15T09:21:56Z</time>
      </trkpt>
      <trkpt lat="43.112374" lon="2.983626">
        <ele>4.898972</ele>
        <time>2018-08-15T09:22:12Z</time>
      </trkpt>
      <trkpt lat="43.110768" lon="2.982089">
        <ele>3.922328</ele>
        <time>2018-08-15T09:22:28Z</time>
      </trkpt>
      <trkpt lat="43.109658" lon="2.980525">
        <ele>0.000000</ele>
        <time>2018-08-15T09:22:43Z</time>
      </trkpt>
      <trkpt lat="43.108437" lon="2.978804">
        <ele>0.000000</ele>
        <time>2018-08-15T09:22:59Z</time>
      </trkpt>
      <trkpt lat="43.107344" lon="2.977271">
        <ele>0.000000</ele>
        <time>2018-08-15T09:23:14Z</time>
      </trkpt>
      <trkpt lat="43.106046" lon="2.976043">
        <ele>0.000000</ele>
        <time>2018-08-15T09:23:29Z</time>
      </trkpt>
      <trkpt lat="43.104776" lon="2.974443">
        <ele>0.000000</ele>
        <time>2018-08-15T09:23:44Z</time>
      </trkpt>
      <trkpt lat="43.103779" lon="2.972349">
        <ele>0.000000</ele>
        <time>2018-08-15T09:24:00Z</time>
      </trkpt>
      <trkpt lat="43.102789" lon="2.970430">
        <ele>11.000000</ele>
        <time>2018-08-15T09:24:15Z</time>
      </trkpt>
      <trkpt lat="43.101336" lon="2.968802">
        <ele>3.121912</ele>
        <time>2018-08-15T09:24:31Z</time>
      </trkpt>
      <trkpt lat="43.100142" lon="2.967597">
        <ele>1.761488</ele>
        <time>2018-08-15T09:24:46Z</time>
      </trkpt>
      <trkpt lat="43.098908" lon="2.966505">
        <ele>2.707905</ele>
        <time>2018-08-15T09:25:01Z</time>
      </trkpt>
      <trkpt lat="43.097384" lon="2.965547">
        <ele>4.018222</ele>
        <time>2018-08-15T09:25:16Z</time>
      </trkpt>
      <trkpt lat="43.095720" lon="2.965023">
        <ele>3.471148</ele>
        <time>2018-08-15T09:25:31Z</time>
      </trkpt>
      <trkpt lat="43.093862" lon="2.963937">
        <ele>7.432962</ele>
        <time>2018-08-15T09:25:47Z</time>
      </trkpt>
      <trkpt lat="43.092455" lon="2.962719">
        <ele>3.209894</ele>
        <time>2018-08-15T09:26:03Z</time>
      </trkpt>
      <trkpt lat="43.091660" lon="2.961480">
        <ele>3.008202</ele>
        <time>2018-08-15T09:26:19Z</time>
      </trkpt>
      <trkpt lat="43.090618" lon="2.960616">
        <ele>4.196694</ele>
        <time>2018-08-15T09:26:34Z</time>
      </trkpt>
      <trkpt lat="43.090273" lon="2.960028">
        <ele>4.611699</ele>
        <time>2018-08-15T09:26:50Z</time>
      </trkpt>
      <trkpt lat="43.090162" lon="2.959919">
        <ele>4.370009</ele>
        <time>2018-08-15T09:27:18Z</time>
      </trkpt>
      <trkpt lat="43.090285" lon="2.959996">
        <ele>4.681932</ele>
        <time>2018-08-15T09:27:49Z</time>
      </trkpt>
      <trkpt lat="43.090418" lon="2.960251">
        <ele>4.552019</ele>
        <time>2018-08-15T09:28:06Z</time>
      </trkpt>
      <trkpt lat="43.090441" lon="2.960436">
        <ele>4.257550</ele>
        <time>2018-08-15T09:33:31Z</time>
      </trkpt>
      <trkpt lat="43.090568" lon="2.960579">
        <ele>4.195693</ele>
        <time>2018-08-15T09:33:46Z</time>
      </trkpt>
      <trkpt lat="43.090652" lon="2.960728">
        <ele>4.008899</ele>
        <time>2018-08-15T09:34:02Z</time>
      </trkpt>
      <trkpt lat="43.090658" lon="2.960914">
        <ele>3.809582</ele>
        <time>2018-08-15T09:34:25Z</time>
      </trkpt>
      <trkpt lat="43.090577" lon="2.961069">
        <ele>3.779714</ele>
        <time>2018-08-15T09:34:48Z</time>
      </trkpt>
      <trkpt lat="43.090442" lon="2.961084">
        <ele>3.671227</ele>
        <time>2018-08-15T09:35:12Z</time>
      </trkpt>
      <trkpt lat="43.090327" lon="2.960986">
        <ele>3.503915</ele>
        <time>2018-08-15T09:35:42Z</time>
      </trkpt>
      <trkpt lat="43.090216" lon="2.960880">
        <ele>3.299982</ele>
        <time>2018-08-15T09:35:58Z</time>
      </trkpt>
      <trkpt lat="43.090120" lon="2.961017">
        <ele>3.333103</ele>
        <time>2018-08-15T09:36:44Z</time>
      </trkpt>
      <trkpt lat="43.090028" lon="2.961153">
        <ele>3.404182</ele>
        <time>2018-08-15T09:37:05Z</time>
      </trkpt>
      <trkpt lat="43.089899" lon="2.961097">
        <ele>3.000000</ele>
        <time>2018-08-15T09:37:24Z</time>
      </trkpt>
      <trkpt lat="43.089768" lon="2.961042">
        <ele>3.000000</ele>
        <time>2018-08-15T09:37:47Z</time>
      </trkpt>
      <trkpt lat="43.089657" lon="2.960938">
        <ele>3.000000</ele>
        <time>2018-08-15T09:38:18Z</time>
      </trkpt>
      <trkpt lat="43.089542" lon="2.960837">
        <ele>3.000000</ele>
        <time>2018-08-15T09:38:36Z</time>
      </trkpt>
      <trkpt lat="43.089476" lon="2.960675">
        <ele>4.327582</ele>
        <time>2018-08-15T09:38:52Z</time>
      </trkpt>
      <trkpt lat="43.089555" lon="2.960831">
        <ele>4.069851</ele>
        <time>2018-08-15T09:39:46Z</time>
      </trkpt>
      <trkpt lat="43.089673" lon="2.960936">
        <ele>3.000000</ele>
        <time>2018-08-15T09:40:03Z</time>
      </trkpt>
      <trkpt lat="43.089798" lon="2.961025">
        <ele>3.000000</ele>
        <time>2018-08-15T09:40:19Z</time>
      </trkpt>
      <trkpt lat="43.089936" lon="2.961102">
        <ele>3.000000</ele>
        <time>2018-08-15T09:40:35Z</time>
      </trkpt>
      <trkpt lat="43.090070" lon="2.961055">
        <ele>3.327720</ele>
        <time>2018-08-15T09:41:00Z</time>
      </trkpt>
      <trkpt lat="43.090143" lon="2.960866">
        <ele>3.204011</ele>
        <time>2018-08-15T09:41:16Z</time>
      </trkpt>
      <trkpt lat="43.090279" lon="2.960925">
        <ele>3.407855</ele>
        <time>2018-08-15T09:41:31Z</time>
      </trkpt>
      <trkpt lat="43.090424" lon="2.961037">
        <ele>3.628580</ele>
        <time>2018-08-15T09:41:47Z</time>
      </trkpt>
      <trkpt lat="43.090555" lon="2.961147">
        <ele>3.791960</ele>
        <time>2018-08-15T09:42:03Z</time>
      </trkpt>
      <trkpt lat="43.090647" lon="2.961003">
        <ele>3.821397</ele>
        <time>2018-08-15T09:43:43Z</time>
      </trkpt>
      <trkpt lat="43.090783" lon="2.961009">
        <ele>3.952559</ele>
        <time>2018-08-15T09:44:02Z</time>
      </trkpt>
      <trkpt lat="43.090912" lon="2.961141">
        <ele>3.905952</ele>
        <time>2018-08-15T09:44:18Z</time>
      </trkpt>
      <trkpt lat="43.091018" lon="2.961276">
        <ele>3.778862</ele>
        <time>2018-08-15T09:44:45Z</time>
      </trkpt>
      <trkpt lat="43.091148" lon="2.961431">
        <ele>3.621857</ele>
        <time>2018-08-15T09:45:01Z</time>
      </trkpt>
      <trkpt lat="43.091242" lon="2.961634">
        <ele>3.509003</ele>
        <time>2018-08-15T09:45:17Z</time>
      </trkpt>
      <trkpt lat="43.091350" lon="2.961784">
        <ele>3.000000</ele>
        <time>2018-08-15T09:45:32Z</time>
      </trkpt>
      <trkpt lat="43.091473" lon="2.961901">
        <ele>3.000000</ele>
        <time>2018-08-15T09:45:47Z</time>
      </trkpt>
      <trkpt lat="43.091578" lon="2.962090">
        <ele>3.000000</ele>
        <time>2018-08-15T09:46:03Z</time>
      </trkpt>
      <trkpt lat="43.091536" lon="2.962266">
        <ele>3.000000</ele>
        <time>2018-08-15T09:46:26Z</time>
      </trkpt>
      <trkpt lat="43.091456" lon="2.962466">
        <ele>3.000000</ele>
        <time>2018-08-15T09:46:42Z</time>
      </trkpt>
      <trkpt lat="43.091382" lon="2.962690">
        <ele>0.000000</ele>
        <time>2018-08-15T09:46:58Z</time>
      </trkpt>
      <trkpt lat="43.091323" lon="2.962882">
        <ele>0.000000</ele>
        <time>2018-08-15T09:47:13Z</time>
      </trkpt>
      <trkpt lat="43.091243" lon="2.963111">
        <ele>0.000000</ele>
        <time>2018-08-15T09:47:29Z</time>
      </trkpt>
      <trkpt lat="43.091150" lon="2.963291">
        <ele>0.000000</ele>
        <time>2018-08-15T09:47:44Z</time>
      </trkpt>
      <trkpt lat="43.091053" lon="2.963511">
        <ele>0.000000</ele>
        <time>2018-08-15T09:48:00Z</time>
      </trkpt>
      <trkpt lat="43.090962" lon="2.963728">
        <ele>0.000000</ele>
        <time>2018-08-15T09:48:15Z</time>
      </trkpt>
      <trkpt lat="43.090896" lon="2.963941">
        <ele>0.000000</ele>
        <time>2018-08-15T09:48:30Z</time>
      </trkpt>
      <trkpt lat="43.090823" lon="2.964149">
        <ele>0.000000</ele>
        <time>2018-08-15T09:48:46Z</time>
      </trkpt>
      <trkpt lat="43.090752" lon="2.964322">
        <ele>0.000000</ele>
        <time>2018-08-15T09:49:02Z</time>
      </trkpt>
      <trkpt lat="43.090656" lon="2.964526">
        <ele>0.000000</ele>
        <time>2018-08-15T09:49:18Z</time>
      </trkpt>
      <trkpt lat="43.090561" lon="2.964692">
        <ele>0.000000</ele>
        <time>2018-08-15T09:49:34Z</time>
      </trkpt>
      <trkpt lat="43.090440" lon="2.964837">
        <ele>0.000000</ele>
        <time>2018-08-15T09:49:50Z</time>
      </trkpt>
      <trkpt lat="43.090311" lon="2.964990">
        <ele>0.000000</ele>
        <time>2018-08-15T09:50:06Z</time>
      </trkpt>
      <trkpt lat="43.090207" lon="2.965110">
        <ele>0.000000</ele>
        <time>2018-08-15T09:50:38Z</time>
      </trkpt>
      <trkpt lat="43.090236" lon="2.965292">
        <ele>0.000000</ele>
        <time>2018-08-15T09:51:26Z</time>
      </trkpt>
      <trkpt lat="43.090298" lon="2.965458">
        <ele>0.000000</ele>
        <time>2018-08-15T09:51:42Z</time>
      </trkpt>
      <trkpt lat="43.090366" lon="2.965620">
        <ele>0.000000</ele>
        <time>2018-08-15T09:53:17Z</time>
      </trkpt>
      <trkpt lat="43.090473" lon="2.965747">
        <ele>0.000000</ele>
        <time>2018-08-15T09:53:38Z</time>
      </trkpt>
      <trkpt lat="43.090535" lon="2.965934">
        <ele>4.000000</ele>
        <time>2018-08-15T09:53:54Z</time>
      </trkpt>
      <trkpt lat="43.090581" lon="2.966110">
        <ele>4.000000</ele>
        <time>2018-08-15T09:55:40Z</time>
      </trkpt>
      <trkpt lat="43.090483" lon="2.966308">
        <ele>4.000000</ele>
        <time>2018-08-15T09:55:56Z</time>
      </trkpt>
      <trkpt lat="43.090341" lon="2.966397">
        <ele>4.000000</ele>
        <time>2018-08-15T09:56:11Z</time>
      </trkpt>
      <trkpt lat="43.090232" lon="2.966530">
        <ele>4.000000</ele>
        <time>2018-08-15T09:56:27Z</time>
      </trkpt>
      <trkpt lat="43.090173" lon="2.966709">
        <ele>4.000000</ele>
        <time>2018-08-15T09:56:43Z</time>
      </trkpt>
      <trkpt lat="43.090106" lon="2.966876">
        <ele>4.000000</ele>
        <time>2018-08-15T09:57:04Z</time>
      </trkpt>
      <trkpt lat="43.090009" lon="2.967010">
        <ele>4.000000</ele>
        <time>2018-08-15T09:57:24Z</time>
      </trkpt>
      <trkpt lat="43.089906" lon="2.967142">
        <ele>6.280273</ele>
        <time>2018-08-15T09:57:51Z</time>
      </trkpt>
      <trkpt lat="43.089778" lon="2.967079">
        <ele>5.980469</ele>
        <time>2018-08-15T09:58:12Z</time>
      </trkpt>
      <trkpt lat="43.089681" lon="2.966951">
        <ele>5.365723</ele>
        <time>2018-08-15T09:58:32Z</time>
      </trkpt>
      <trkpt lat="43.089797" lon="2.967068">
        <ele>5.928223</ele>
        <time>2018-08-15T10:01:02Z</time>
      </trkpt>
      <trkpt lat="43.089847" lon="2.967262">
        <ele>6.856934</ele>
        <time>2018-08-15T10:01:17Z</time>
      </trkpt>
      <trkpt lat="43.089791" lon="2.967439">
        <ele>7.706055</ele>
        <time>2018-08-15T10:01:35Z</time>
      </trkpt>
      <trkpt lat="43.089658" lon="2.967468">
        <ele>7.846680</ele>
        <time>2018-08-15T10:02:02Z</time>
      </trkpt>
      <trkpt lat="43.089543" lon="2.967356">
        <ele>7.306641</ele>
        <time>2018-08-15T10:02:18Z</time>
      </trkpt>
      <trkpt lat="43.089412" lon="2.967290">
        <ele>6.993164</ele>
        <time>2018-08-15T10:02:37Z</time>
      </trkpt>
      <trkpt lat="43.089539" lon="2.967372">
        <ele>7.387207</ele>
        <time>2018-08-15T10:11:00Z</time>
      </trkpt>
      <trkpt lat="43.089656" lon="2.967516">
        <ele>8.595033</ele>
        <time>2018-08-15T10:11:15Z</time>
      </trkpt>
      <trkpt lat="43.089808" lon="2.967473">
        <ele>7.868164</ele>
        <time>2018-08-15T10:11:31Z</time>
      </trkpt>
      <trkpt lat="43.089843" lon="2.967292">
        <ele>7.000000</ele>
        <time>2018-08-15T10:11:51Z</time>
      </trkpt>
      <trkpt lat="43.089892" lon="2.967116">
        <ele>6.156738</ele>
        <time>2018-08-15T10:12:18Z</time>
      </trkpt>
      <trkpt lat="43.090003" lon="2.967012">
        <ele>4.000000</ele>
        <time>2018-08-15T10:12:38Z</time>
      </trkpt>
      <trkpt lat="43.090119" lon="2.966901">
        <ele>4.000000</ele>
        <time>2018-08-15T10:13:23Z</time>
      </trkpt>
      <trkpt lat="43.090206" lon="2.966758">
        <ele>4.000000</ele>
        <time>2018-08-15T10:13:40Z</time>
      </trkpt>
      <trkpt lat="43.090258" lon="2.966541">
        <ele>4.000000</ele>
        <time>2018-08-15T10:13:56Z</time>
      </trkpt>
      <trkpt lat="43.090351" lon="2.966394">
        <ele>4.000000</ele>
        <time>2018-08-15T10:14:16Z</time>
      </trkpt>
      <trkpt lat="43.090505" lon="2.966303">
        <ele>4.000000</ele>
        <time>2018-08-15T10:14:32Z</time>
      </trkpt>
      <trkpt lat="43.090579" lon="2.966122">
        <ele>4.000000</ele>
        <time>2018-08-15T10:14:47Z</time>
      </trkpt>
      <trkpt lat="43.090522" lon="2.965931">
        <ele>4.000000</ele>
        <time>2018-08-15T10:15:02Z</time>
      </trkpt>
      <trkpt lat="43.090451" lon="2.965734">
        <ele>0.000000</ele>
        <time>2018-08-15T10:15:17Z</time>
      </trkpt>
      <trkpt lat="43.090335" lon="2.965600">
        <ele>0.000000</ele>
        <time>2018-08-15T10:15:33Z</time>
      </trkpt>
      <trkpt lat="43.090268" lon="2.965391">
        <ele>0.000000</ele>
        <time>2018-08-15T10:15:48Z</time>
      </trkpt>
      <trkpt lat="43.090165" lon="2.965221">
        <ele>0.000000</ele>
        <time>2018-08-15T10:16:03Z</time>
      </trkpt>
      <trkpt lat="43.090222" lon="2.965053">
        <ele>0.000000</ele>
        <time>2018-08-15T10:16:21Z</time>
      </trkpt>
      <trkpt lat="43.090402" lon="2.964945">
        <ele>0.000000</ele>
        <time>2018-08-15T10:16:37Z</time>
      </trkpt>
      <trkpt lat="43.090521" lon="2.964820">
        <ele>0.000000</ele>
        <time>2018-08-15T10:16:52Z</time>
      </trkpt>
      <trkpt lat="43.090646" lon="2.964653">
        <ele>0.000000</ele>
        <time>2018-08-15T10:17:08Z</time>
      </trkpt>
      <trkpt lat="43.090738" lon="2.964446">
        <ele>0.000000</ele>
        <time>2018-08-15T10:17:24Z</time>
      </trkpt>
      <trkpt lat="43.090844" lon="2.964266">
        <ele>0.000000</ele>
        <time>2018-08-15T10:17:40Z</time>
      </trkpt>
      <trkpt lat="43.090923" lon="2.964104">
        <ele>0.000000</ele>
        <time>2018-08-15T10:17:55Z</time>
      </trkpt>
      <trkpt lat="43.090976" lon="2.963852">
        <ele>0.000000</ele>
        <time>2018-08-15T10:18:11Z</time>
      </trkpt>
      <trkpt lat="43.091047" lon="2.963641">
        <ele>0.000000</ele>
        <time>2018-08-15T10:18:26Z</time>
      </trkpt>
      <trkpt lat="43.091142" lon="2.963430">
        <ele>0.000000</ele>
        <time>2018-08-15T10:18:41Z</time>
      </trkpt>
      <trkpt lat="43.091242" lon="2.963210">
        <ele>0.000000</ele>
        <time>2018-08-15T10:18:57Z</time>
      </trkpt>
      <trkpt lat="43.091322" lon="2.963003">
        <ele>0.000000</ele>
        <time>2018-08-15T10:19:12Z</time>
      </trkpt>
      <trkpt lat="43.091407" lon="2.962792">
        <ele>0.000000</ele>
        <time>2018-08-15T10:19:27Z</time>
      </trkpt>
      <trkpt lat="43.091514" lon="2.962575">
        <ele>0.000000</ele>
        <time>2018-08-15T10:19:43Z</time>
      </trkpt>
      <trkpt lat="43.091582" lon="2.962344">
        <ele>3.000000</ele>
        <time>2018-08-15T10:19:58Z</time>
      </trkpt>
      <trkpt lat="43.091614" lon="2.962107">
        <ele>3.000000</ele>
        <time>2018-08-15T10:20:14Z</time>
      </trkpt>
      <trkpt lat="43.091453" lon="2.961909">
        <ele>3.000000</ele>
        <time>2018-08-15T10:20:29Z</time>
      </trkpt>
      <trkpt lat="43.091332" lon="2.961744">
        <ele>3.000000</ele>
        <time>2018-08-15T10:20:45Z</time>
      </trkpt>
      <trkpt lat="43.091251" lon="2.961528">
        <ele>3.498238</ele>
        <time>2018-08-15T10:21:00Z</time>
      </trkpt>
      <trkpt lat="43.091116" lon="2.961343">
        <ele>3.660225</ele>
        <time>2018-08-15T10:21:15Z</time>
      </trkpt>
      <trkpt lat="43.090961" lon="2.961156">
        <ele>3.847359</ele>
        <time>2018-08-15T10:21:31Z</time>
      </trkpt>
      <trkpt lat="43.090824" lon="2.960998">
        <ele>3.991001</ele>
        <time>2018-08-15T10:21:46Z</time>
      </trkpt>
      <trkpt lat="43.090682" lon="2.960851">
        <ele>3.822008</ele>
        <time>2018-08-15T10:22:01Z</time>
      </trkpt>
      <trkpt lat="43.090696" lon="2.960666">
        <ele>4.204556</ele>
        <time>2018-08-15T10:22:26Z</time>
      </trkpt>
      <trkpt lat="43.090574" lon="2.960526">
        <ele>4.311316</ele>
        <time>2018-08-15T10:22:42Z</time>
      </trkpt>
      <trkpt lat="43.090442" lon="2.960379">
        <ele>4.364232</ele>
        <time>2018-08-15T10:22:57Z</time>
      </trkpt>
      <trkpt lat="43.090362" lon="2.960212">
        <ele>4.503676</ele>
        <time>2018-08-15T10:23:13Z</time>
      </trkpt>
      <trkpt lat="43.090512" lon="2.960244">
        <ele>4.756454</ele>
        <time>2018-08-15T10:23:28Z</time>
      </trkpt>
      <trkpt lat="43.090394" lon="2.960147">
        <ele>4.685815</ele>
        <time>2018-08-15T10:31:42Z</time>
      </trkpt>
      <trkpt lat="43.090248" lon="2.960216">
        <ele>4.258842</ele>
        <time>2018-08-15T10:32:11Z</time>
      </trkpt>
      <trkpt lat="43.089733" lon="2.959576">
        <ele>4.810678</ele>
        <time>2018-08-15T10:32:26Z</time>
      </trkpt>
      <trkpt lat="43.089158" lon="2.959449">
        <ele>6.957375</ele>
        <time>2018-08-15T10:32:42Z</time>
      </trkpt>
      <trkpt lat="43.088564" lon="2.958935">
        <ele>7.388184</ele>
        <time>2018-08-15T10:32:57Z</time>
      </trkpt>
      <trkpt lat="43.087950" lon="2.959619">
        <ele>4.116364</ele>
        <time>2018-08-15T10:33:13Z</time>
      </trkpt>
      <trkpt lat="43.087635" lon="2.960340">
        <ele>3.808184</ele>
        <time>2018-08-15T10:33:28Z</time>
      </trkpt>
      <trkpt lat="43.087253" lon="2.959949">
        <ele>5.594392</ele>
        <time>2018-08-15T10:33:44Z</time>
      </trkpt>
      <trkpt lat="43.087178" lon="2.959734">
        <ele>6.621009</ele>
        <time>2018-08-15T10:33:59Z</time>
      </trkpt>
      <trkpt lat="43.087050" lon="2.959654">
        <ele>7.787742</ele>
        <time>2018-08-15T10:34:15Z</time>
      </trkpt>
      <trkpt lat="43.086882" lon="2.959721">
        <ele>8.790490</ele>
        <time>2018-08-15T10:34:32Z</time>
      </trkpt>
      <trkpt lat="43.087037" lon="2.959731">
        <ele>7.640587</ele>
        <time>2018-08-15T10:41:12Z</time>
      </trkpt>
      <trkpt lat="43.087341" lon="2.960192">
        <ele>4.995564</ele>
        <time>2018-08-15T10:41:27Z</time>
      </trkpt>
      <trkpt lat="43.087681" lon="2.960307">
        <ele>3.725621</ele>
        <time>2018-08-15T10:41:43Z</time>
      </trkpt>
      <trkpt lat="43.087986" lon="2.959538">
        <ele>4.359254</ele>
        <time>2018-08-15T10:41:58Z</time>
      </trkpt>
      <trkpt lat="43.088457" lon="2.959014">
        <ele>6.844910</ele>
        <time>2018-08-15T10:42:14Z</time>
      </trkpt>
      <trkpt lat="43.088210" lon="2.958701">
        <ele>7.610688</ele>
        <time>2018-08-15T10:42:29Z</time>
      </trkpt>
      <trkpt lat="43.087406" lon="2.958860">
        <ele>7.547252</ele>
        <time>2018-08-15T10:42:45Z</time>
      </trkpt>
      <trkpt lat="43.087231" lon="2.958634">
        <ele>10.965122</ele>
        <time>2018-08-15T10:43:00Z</time>
      </trkpt>
      <trkpt lat="43.087535" lon="2.957457">
        <ele>11.912622</ele>
        <time>2018-08-15T10:43:15Z</time>
      </trkpt>
      <trkpt lat="43.087917" lon="2.956232">
        <ele>12.521649</ele>
        <time>2018-08-15T10:43:31Z</time>
      </trkpt>
      <trkpt lat="43.088303" lon="2.954940">
        <ele>12.037994</ele>
        <time>2018-08-15T10:43:46Z</time>
      </trkpt>
      <trkpt lat="43.088826" lon="2.953171">
        <ele>6.524289</ele>
        <time>2018-08-15T10:44:02Z</time>
      </trkpt>
      <trkpt lat="43.089459" lon="2.951027">
        <ele>8.265882</ele>
        <time>2018-08-15T10:44:17Z</time>
      </trkpt>
      <trkpt lat="43.090063" lon="2.948969">
        <ele>9.237183</ele>
        <time>2018-08-15T10:44:32Z</time>
      </trkpt>
      <trkpt lat="43.090687" lon="2.946787">
        <ele>11.560200</ele>
        <time>2018-08-15T10:44:48Z</time>
      </trkpt>
      <trkpt lat="43.090784" lon="2.946163">
        <ele>11.443914</ele>
        <time>2018-08-15T10:45:04Z</time>
      </trkpt>
      <trkpt lat="43.089829" lon="2.945622">
        <ele>13.507080</ele>
        <time>2018-08-15T10:45:20Z</time>
      </trkpt>
      <trkpt lat="43.087408" lon="2.944511">
        <ele>19.237833</ele>
        <time>2018-08-15T10:45:35Z</time>
      </trkpt>
      <trkpt lat="43.084594" lon="2.943996">
        <ele>17.090824</ele>
        <time>2018-08-15T10:45:50Z</time>
      </trkpt>
      <trkpt lat="43.081325" lon="2.943421">
        <ele>22.104858</ele>
        <time>2018-08-15T10:46:06Z</time>
      </trkpt>
      <trkpt lat="43.078416" lon="2.942879">
        <ele>26.336899</ele>
        <time>2018-08-15T10:46:21Z</time>
      </trkpt>
      <trkpt lat="43.075752" lon="2.943141">
        <ele>28.720779</ele>
        <time>2018-08-15T10:46:36Z</time>
      </trkpt>
      <trkpt lat="43.072970" lon="2.943592">
        <ele>21.829838</ele>
        <time>2018-08-15T10:46:51Z</time>
      </trkpt>
      <trkpt lat="43.070385" lon="2.941362">
        <ele>10.489752</ele>
        <time>2018-08-15T10:47:07Z</time>
      </trkpt>
      <trkpt lat="43.068517" lon="2.939628">
        <ele>13.318939</ele>
        <time>2018-08-15T10:47:22Z</time>
      </trkpt>
      <trkpt lat="43.067623" lon="2.938771">
        <ele>11.244232</ele>
        <time>2018-08-15T10:47:38Z</time>
      </trkpt>
      <trkpt lat="43.065478" lon="2.937652">
        <ele>10.364895</ele>
        <time>2018-08-15T10:47:53Z</time>
      </trkpt>
      <trkpt lat="43.062279" lon="2.938456">
        <ele>6.078416</ele>
        <time>2018-08-15T10:48:09Z</time>
      </trkpt>
      <trkpt lat="43.059283" lon="2.940734">
        <ele>13.265907</ele>
        <time>2018-08-15T10:48:24Z</time>
      </trkpt>
      <trkpt lat="43.056267" lon="2.943000">
        <ele>26.538424</ele>
        <time>2018-08-15T10:48:40Z</time>
      </trkpt>
      <trkpt lat="43.054218" lon="2.945990">
        <ele>33.324318</ele>
        <time>2018-08-15T10:48:55Z</time>
      </trkpt>
      <trkpt lat="43.053908" lon="2.950246">
        <ele>27.123760</ele>
        <time>2018-08-15T10:49:10Z</time>
      </trkpt>
      <trkpt lat="43.053881" lon="2.954547">
        <ele>27.873999</ele>
        <time>2018-08-15T10:49:25Z</time>
      </trkpt>
      <trkpt lat="43.053922" lon="2.959317">
        <ele>14.827015</ele>
        <time>2018-08-15T10:49:41Z</time>
      </trkpt>
      <trkpt lat="43.051853" lon="2.962836">
        <ele>10.043168</ele>
        <time>2018-08-15T10:49:57Z</time>
      </trkpt>
      <trkpt lat="43.048720" lon="2.963780">
        <ele>10.215340</ele>
        <time>2018-08-15T10:50:12Z</time>
      </trkpt>
      <trkpt lat="43.045791" lon="2.965531">
        <ele>7.344204</ele>
        <time>2018-08-15T10:50:27Z</time>
      </trkpt>
      <trkpt lat="43.042664" lon="2.967513">
        <ele>6.184294</ele>
        <time>2018-08-15T10:50:43Z</time>
      </trkpt>
      <trkpt lat="43.039653" lon="2.969186">
        <ele>14.199326</ele>
        <time>2018-08-15T10:50:58Z</time>
      </trkpt>
      <trkpt lat="43.036260" lon="2.969098">
        <ele>8.813152</ele>
        <time>2018-08-15T10:51:14Z</time>
      </trkpt>
      <trkpt lat="43.032551" lon="2.968071">
        <ele>7.561737</ele>
        <time>2018-08-15T10:51:29Z</time>
      </trkpt>
      <trkpt lat="43.029132" lon="2.967143">
        <ele>19.059893</ele>
        <time>2018-08-15T10:51:44Z</time>
      </trkpt>
      <trkpt lat="43.025866" lon="2.964897">
        <ele>23.797716</ele>
        <time>2018-08-15T10:51:59Z</time>
      </trkpt>
      <trkpt lat="43.022068" lon="2.965101">
        <ele>28.809036</ele>
        <time>2018-08-15T10:52:15Z</time>
      </trkpt>
      <trkpt lat="43.019682" lon="2.968735">
        <ele>27.662903</ele>
        <time>2018-08-15T10:52:30Z</time>
      </trkpt>
      <trkpt lat="43.017068" lon="2.972303">
        <ele>33.166298</ele>
        <time>2018-08-15T10:52:45Z</time>
      </trkpt>
      <trkpt lat="43.013340" lon="2.971624">
        <ele>48.732079</ele>
        <time>2018-08-15T10:53:01Z</time>
      </trkpt>
      <trkpt lat="43.010164" lon="2.969960">
        <ele>72.390778</ele>
        <time>2018-08-15T10:53:16Z</time>
      </trkpt>
      <trkpt lat="43.006587" lon="2.969258">
        <ele>51.135674</ele>
        <time>2018-08-15T10:53:32Z</time>
      </trkpt>
      <trkpt lat="43.003307" lon="2.969364">
        <ele>39.339828</ele>
        <time>2018-08-15T10:53:47Z</time>
      </trkpt>
      <trkpt lat="42.999819" lon="2.969618">
        <ele>41.400036</ele>
        <time>2018-08-15T10:54:03Z</time>
      </trkpt>
      <trkpt lat="42.995868" lon="2.970197">
        <ele>53.531090</ele>
        <time>2018-08-15T10:54:19Z</time>
      </trkpt>
      <trkpt lat="42.992011" lon="2.971299">
        <ele>84.118652</ele>
        <time>2018-08-15T10:54:35Z</time>
      </trkpt>
      <trkpt lat="42.988625" lon="2.973073">
        <ele>84.387199</ele>
        <time>2018-08-15T10:54:50Z</time>
      </trkpt>
      <trkpt lat="42.986339" lon="2.976956">
        <ele>77.426651</ele>
        <time>2018-08-15T10:55:05Z</time>
      </trkpt>
      <trkpt lat="42.983608" lon="2.980271">
        <ele>62.357666</ele>
        <time>2018-08-15T10:55:21Z</time>
      </trkpt>
      <trkpt lat="42.979884" lon="2.979340">
        <ele>34.537621</ele>
        <time>2018-08-15T10:55:37Z</time>
      </trkpt>
      <trkpt lat="42.976333" lon="2.979351">
        <ele>21.198730</ele>
        <time>2018-08-15T10:55:52Z</time>
      </trkpt>
      <trkpt lat="42.972794" lon="2.980454">
        <ele>17.353027</ele>
        <time>2018-08-15T10:56:07Z</time>
      </trkpt>
      <trkpt lat="42.969219" lon="2.981515">
        <ele>12.182251</ele>
        <time>2018-08-15T10:56:22Z</time>
      </trkpt>
      <trkpt lat="42.965634" lon="2.982605">
        <ele>10.208584</ele>
        <time>2018-08-15T10:56:38Z</time>
      </trkpt>
      <trkpt lat="42.962180" lon="2.983635">
        <ele>8.160382</ele>
        <time>2018-08-15T10:56:54Z</time>
      </trkpt>
      <trkpt lat="42.959631" lon="2.984789">
        <ele>9.279898</ele>
        <time>2018-08-15T10:57:10Z</time>
      </trkpt>
      <trkpt lat="42.958565" lon="2.984895">
        <ele>12.200666</ele>
        <time>2018-08-15T10:57:25Z</time>
      </trkpt>
      <trkpt lat="42.956502" lon="2.985288">
        <ele>11.246981</ele>
        <time>2018-08-15T10:57:41Z</time>
      </trkpt>
      <trkpt lat="42.953367" lon="2.986228">
        <ele>13.000000</ele>
        <time>2018-08-15T10:57:56Z</time>
      </trkpt>
      <trkpt lat="42.949358" lon="2.987463">
        <ele>16.033859</ele>
        <time>2018-08-15T10:58:12Z</time>
      </trkpt>
      <trkpt lat="42.945691" lon="2.988531">
        <ele>18.566723</ele>
        <time>2018-08-15T10:58:27Z</time>
      </trkpt>
      <trkpt lat="42.942020" lon="2.989632">
        <ele>17.441528</ele>
        <time>2018-08-15T10:58:43Z</time>
      </trkpt>
      <trkpt lat="42.938446" lon="2.990676">
        <ele>15.188599</ele>
        <time>2018-08-15T10:58:58Z</time>
      </trkpt>
      <trkpt lat="42.934744" lon="2.991770">
        <ele>14.520852</ele>
        <time>2018-08-15T10:59:14Z</time>
      </trkpt>
      <trkpt lat="42.931303" lon="2.992781">
        <ele>14.889038</ele>
        <time>2018-08-15T10:59:29Z</time>
      </trkpt>
      <trkpt lat="42.928044" lon="2.993794">
        <ele>12.895264</ele>
        <time>2018-08-15T10:59:44Z</time>
      </trkpt>
      <trkpt lat="42.924883" lon="2.994709">
        <ele>12.719971</ele>
        <time>2018-08-15T10:59:59Z</time>
      </trkpt>
      <trkpt lat="42.921020" lon="2.995865">
        <ele>8.438481</ele>
        <time>2018-08-15T11:00:15Z</time>
      </trkpt>
      <trkpt lat="42.917264" lon="2.997052">
        <ele>7.454986</ele>
        <time>2018-08-15T11:00:31Z</time>
      </trkpt>
      <trkpt lat="42.913357" lon="2.998286">
        <ele>12.164294</ele>
        <time>2018-08-15T11:00:46Z</time>
      </trkpt>
      <trkpt lat="42.909333" lon="2.999243">
        <ele>8.799651</ele>
        <time>2018-08-15T11:01:01Z</time>
      </trkpt>
      <trkpt lat="42.905464" lon="3.000226">
        <ele>10.584522</ele>
        <time>2018-08-15T11:01:16Z</time>
      </trkpt>
      <trkpt lat="42.901471" lon="3.000645">
        <ele>9.804317</ele>
        <time>2018-08-15T11:01:32Z</time>
      </trkpt>
      <trkpt lat="42.898778" lon="2.998846">
        <ele>3.753307</ele>
        <time>2018-08-15T11:01:47Z</time>
      </trkpt>
      <trkpt lat="42.895403" lon="2.997530">
        <ele>2.000000</ele>
        <time>2018-08-15T11:02:03Z</time>
      </trkpt>
      <trkpt lat="42.892421" lon="2.996443">
        <ele>2.268555</ele>
        <time>2018-08-15T11:02:18Z</time>
      </trkpt>
      <trkpt lat="42.889491" lon="2.995351">
        <ele>1.931504</ele>
        <time>2018-08-15T11:02:34Z</time>
      </trkpt>
      <trkpt lat="42.887304" lon="2.994701">
        <ele>4.518460</ele>
        <time>2018-08-15T11:02:49Z</time>
      </trkpt>
      <trkpt lat="42.884698" lon="2.993695">
        <ele>5.976796</ele>
        <time>2018-08-15T11:03:05Z</time>
      </trkpt>
      <trkpt lat="42.881740" lon="2.992779">
        <ele>5.993492</ele>
        <time>2018-08-15T11:03:21Z</time>
      </trkpt>
      <trkpt lat="42.879081" lon="2.993033">
        <ele>6.081055</ele>
        <time>2018-08-15T11:03:36Z</time>
      </trkpt>
      <trkpt lat="42.875930" lon="2.992662">
        <ele>6.381206</ele>
        <time>2018-08-15T11:03:52Z</time>
      </trkpt>
      <trkpt lat="42.872131" lon="2.990034">
        <ele>4.850049</ele>
        <time>2018-08-15T11:04:08Z</time>
      </trkpt>
      <trkpt lat="42.869462" lon="2.987287">
        <ele>3.503695</ele>
        <time>2018-08-15T11:04:24Z</time>
      </trkpt>
      <trkpt lat="42.867180" lon="2.984633">
        <ele>12.219031</ele>
        <time>2018-08-15T11:04:39Z</time>
      </trkpt>
      <trkpt lat="42.866128" lon="2.981651">
        <ele>7.289833</ele>
        <time>2018-08-15T11:04:54Z</time>
      </trkpt>
      <trkpt lat="42.866045" lon="2.981449">
        <ele>7.596617</ele>
        <time>2018-08-15T11:09:52Z</time>
      </trkpt>
      <trkpt lat="42.864889" lon="2.979103">
        <ele>7.738596</ele>
        <time>2018-08-15T11:10:08Z</time>
      </trkpt>
      <trkpt lat="42.863304" lon="2.975627">
        <ele>4.134105</ele>
        <time>2018-08-15T11:10:23Z</time>
      </trkpt>
      <trkpt lat="42.861493" lon="2.971488">
        <ele>6.549597</ele>
        <time>2018-08-15T11:10:39Z</time>
      </trkpt>
      <trkpt lat="42.859827" lon="2.967637">
        <ele>6.712503</ele>
        <time>2018-08-15T11:10:54Z</time>
      </trkpt>
      <trkpt lat="42.858627" lon="2.963570">
        <ele>10.366464</ele>
        <time>2018-08-15T11:11:09Z</time>
      </trkpt>
      <trkpt lat="42.858340" lon="2.958838">
        <ele>3.972147</ele>
        <time>2018-08-15T11:11:25Z</time>
      </trkpt>
      <trkpt lat="42.857517" lon="2.954611">
        <ele>8.560411</ele>
        <time>2018-08-15T11:11:40Z</time>
      </trkpt>
      <trkpt lat="42.855981" lon="2.950687">
        <ele>13.351318</ele>
        <time>2018-08-15T11:11:55Z</time>
      </trkpt>
      <trkpt lat="42.854324" lon="2.946388">
        <ele>16.331701</ele>
        <time>2018-08-15T11:12:11Z</time>
      </trkpt>
      <trkpt lat="42.852815" lon="2.942366">
        <ele>8.278473</ele>
        <time>2018-08-15T11:12:26Z</time>
      </trkpt>
      <trkpt lat="42.851866" lon="2.939341">
        <ele>5.947878</ele>
        <time>2018-08-15T11:12:41Z</time>
      </trkpt>
      <trkpt lat="42.851031" lon="2.937557">
        <ele>4.868989</ele>
        <time>2018-08-15T11:12:56Z</time>
      </trkpt>
      <trkpt lat="42.850000" lon="2.934021">
        <ele>7.349365</ele>
        <time>2018-08-15T11:13:12Z</time>
      </trkpt>
      <trkpt lat="42.847554" lon="2.931555">
        <ele>5.327393</ele>
        <time>2018-08-15T11:13:27Z</time>
      </trkpt>
      <trkpt lat="42.844912" lon="2.928833">
        <ele>7.379146</ele>
        <time>2018-08-15T11:13:43Z</time>
      </trkpt>
      <trkpt lat="42.842668" lon="2.926610">
        <ele>8.215796</ele>
        <time>2018-08-15T11:13:58Z</time>
      </trkpt>
      <trkpt lat="42.840300" lon="2.924223">
        <ele>4.596697</ele>
        <time>2018-08-15T11:14:13Z</time>
      </trkpt>
      <trkpt lat="42.837601" lon="2.922231">
        <ele>4.809166</ele>
        <time>2018-08-15T11:14:28Z</time>
      </trkpt>
      <trkpt lat="42.834265" lon="2.922448">
        <ele>4.069449</ele>
        <time>2018-08-15T11:14:44Z</time>
      </trkpt>
      <trkpt lat="42.830821" lon="2.924025">
        <ele>6.002577</ele>
        <time>2018-08-15T11:15:00Z</time>
      </trkpt>
      <trkpt lat="42.827804" lon="2.923369">
        <ele>10.271362</ele>
        <time>2018-08-15T11:15:16Z</time>
      </trkpt>
      <trkpt lat="42.828621" lon="2.922099">
        <ele>10.899704</ele>
        <time>2018-08-15T11:15:32Z</time>
      </trkpt>
      <trkpt lat="42.828389" lon="2.923515">
        <ele>8.850958</ele>
        <time>2018-08-15T11:15:47Z</time>
      </trkpt>
      <trkpt lat="42.826325" lon="2.924859">
        <ele>13.989258</ele>
        <time>2018-08-15T11:16:02Z</time>
      </trkpt>
      <trkpt lat="42.824725" lon="2.924600">
        <ele>9.697544</ele>
        <time>2018-08-15T11:16:18Z</time>
      </trkpt>
      <trkpt lat="42.822466" lon="2.925745">
        <ele>5.116950</ele>
        <time>2018-08-15T11:16:33Z</time>
      </trkpt>
      <trkpt lat="42.820010" lon="2.926793">
        <ele>6.161743</ele>
        <time>2018-08-15T11:16:48Z</time>
      </trkpt>
      <trkpt lat="42.817470" lon="2.927986">
        <ele>8.021194</ele>
        <time>2018-08-15T11:17:04Z</time>
      </trkpt>
      <trkpt lat="42.815397" lon="2.930203">
        <ele>7.884222</ele>
        <time>2018-08-15T11:17:19Z</time>
      </trkpt>
      <trkpt lat="42.813198" lon="2.932426">
        <ele>6.910767</ele>
        <time>2018-08-15T11:17:35Z</time>
      </trkpt>
      <trkpt lat="42.811306" lon="2.934874">
        <ele>7.914505</ele>
        <time>2018-08-15T11:17:50Z</time>
      </trkpt>
      <trkpt lat="42.809146" lon="2.936908">
        <ele>8.692930</ele>
        <time>2018-08-15T11:18:05Z</time>
      </trkpt>
      <trkpt lat="42.806699" lon="2.938766">
        <ele>7.576937</ele>
        <time>2018-08-15T11:18:21Z</time>
      </trkpt>
      <trkpt lat="42.804578" lon="2.941413">
        <ele>7.153832</ele>
        <time>2018-08-15T11:18:37Z</time>
      </trkpt>
      <trkpt lat="42.802679" lon="2.944741">
        <ele>5.363640</ele>
        <time>2018-08-15T11:18:53Z</time>
      </trkpt>
      <trkpt lat="42.800631" lon="2.947964">
        <ele>6.349741</ele>
        <time>2018-08-15T11:19:09Z</time>
      </trkpt>
      <trkpt lat="42.798641" lon="2.951250">
        <ele>5.315306</ele>
        <time>2018-08-15T11:19:25Z</time>
      </trkpt>
      <trkpt lat="42.796552" lon="2.954410">
        <ele>3.080584</ele>
        <time>2018-08-15T11:19:41Z</time>
      </trkpt>
      <trkpt lat="42.794857" lon="2.957591">
        <ele>2.909863</ele>
        <time>2018-08-15T11:19:57Z</time>
      </trkpt>
      <trkpt lat="42.792771" lon="2.960465">
        <ele>1.557617</ele>
        <time>2018-08-15T11:20:13Z</time>
      </trkpt>
      <trkpt lat="42.790900" lon="2.961812">
        <ele>2.174805</ele>
        <time>2018-08-15T11:20:28Z</time>
      </trkpt>
      <trkpt lat="42.789773" lon="2.962469">
        <ele>2.010166</ele>
        <time>2018-08-15T11:20:43Z</time>
      </trkpt>
      <trkpt lat="42.788174" lon="2.963351">
        <ele>3.191040</ele>
        <time>2018-08-15T11:20:59Z</time>
      </trkpt>
      <trkpt lat="42.787142" lon="2.964243">
        <ele>4.000000</ele>
        <time>2018-08-15T11:21:15Z</time>
      </trkpt>
      <trkpt lat="42.786027" lon="2.965233">
        <ele>4.493793</ele>
        <time>2018-08-15T11:21:31Z</time>
      </trkpt>
      <trkpt lat="42.784850" lon="2.966351">
        <ele>6.180298</ele>
        <time>2018-08-15T11:21:47Z</time>
      </trkpt>
      <trkpt lat="42.784634" lon="2.967663">
        <ele>6.546529</ele>
        <time>2018-08-15T11:22:02Z</time>
      </trkpt>
      <trkpt lat="42.784671" lon="2.968973">
        <ele>4.189822</ele>
        <time>2018-08-15T11:22:18Z</time>
      </trkpt>
      <trkpt lat="42.784119" lon="2.970541">
        <ele>5.272259</ele>
        <time>2018-08-15T11:22:34Z</time>
      </trkpt>
      <trkpt lat="42.783345" lon="2.973192">
        <ele>7.934858</ele>
        <time>2018-08-15T11:22:50Z</time>
      </trkpt>
      <trkpt lat="42.781966" lon="2.975400">
        <ele>6.603723</ele>
        <time>2018-08-15T11:23:06Z</time>
      </trkpt>
      <trkpt lat="42.781770" lon="2.977239">
        <ele>3.829519</ele>
        <time>2018-08-15T11:23:21Z</time>
      </trkpt>
      <trkpt lat="42.780204" lon="2.978793">
        <ele>5.037621</ele>
        <time>2018-08-15T11:23:37Z</time>
      </trkpt>
      <trkpt lat="42.778976" lon="2.979884">
        <ele>5.304098</ele>
        <time>2018-08-15T11:23:52Z</time>
      </trkpt>
      <trkpt lat="42.777612" lon="2.981962">
        <ele>4.463767</ele>
        <time>2018-08-15T11:24:07Z</time>
      </trkpt>
      <trkpt lat="42.776530" lon="2.983671">
        <ele>3.666528</ele>
        <time>2018-08-15T11:24:23Z</time>
      </trkpt>
      <trkpt lat="42.775586" lon="2.985125">
        <ele>6.000000</ele>
        <time>2018-08-15T11:24:39Z</time>
      </trkpt>
      <trkpt lat="42.774532" lon="2.986766">
        <ele>6.189186</ele>
        <time>2018-08-15T11:24:55Z</time>
      </trkpt>
      <trkpt lat="42.773971" lon="2.988184">
        <ele>7.723151</ele>
        <time>2018-08-15T11:25:11Z</time>
      </trkpt>
      <trkpt lat="42.773036" lon="2.987739">
        <ele>6.388254</ele>
        <time>2018-08-15T11:25:27Z</time>
      </trkpt>
      <trkpt lat="42.772530" lon="2.988178">
        <ele>7.597518</ele>
        <time>2018-08-15T11:25:42Z</time>
      </trkpt>
      <trkpt lat="42.771186" lon="2.987216">
        <ele>6.082520</ele>
        <time>2018-08-15T11:25:58Z</time>
      </trkpt>
      <trkpt lat="42.769647" lon="2.986965">
        <ele>5.478127</ele>
        <time>2018-08-15T11:26:14Z</time>
      </trkpt>
      <trkpt lat="42.767922" lon="2.986932">
        <ele>5.654772</ele>
        <time>2018-08-15T11:26:30Z</time>
      </trkpt>
      <trkpt lat="42.766575" lon="2.987035">
        <ele>5.322927</ele>
        <time>2018-08-15T11:26:46Z</time>
      </trkpt>
      <trkpt lat="42.765243" lon="2.986686">
        <ele>7.675571</ele>
        <time>2018-08-15T11:27:01Z</time>
      </trkpt>
      <trkpt lat="42.763075" lon="2.987179">
        <ele>7.968010</ele>
        <time>2018-08-15T11:27:17Z</time>
      </trkpt>
      <trkpt lat="42.761328" lon="2.988865">
        <ele>6.259450</ele>
        <time>2018-08-15T11:27:33Z</time>
      </trkpt>
      <trkpt lat="42.760009" lon="2.989918">
        <ele>7.009582</ele>
        <time>2018-08-15T11:27:49Z</time>
      </trkpt>
      <trkpt lat="42.759021" lon="2.990726">
        <ele>6.000000</ele>
        <time>2018-08-15T11:28:04Z</time>
      </trkpt>
      <trkpt lat="42.757610" lon="2.991846">
        <ele>6.493957</ele>
        <time>2018-08-15T11:28:19Z</time>
      </trkpt>
      <trkpt lat="42.756214" lon="2.992781">
        <ele>5.903749</ele>
        <time>2018-08-15T11:28:34Z</time>
      </trkpt>
      <trkpt lat="42.755160" lon="2.993316">
        <ele>8.429137</ele>
        <time>2018-08-15T11:28:50Z</time>
      </trkpt>
      <trkpt lat="42.754199" lon="2.993995">
        <ele>7.442741</ele>
        <time>2018-08-15T11:29:06Z</time>
      </trkpt>
      <trkpt lat="42.753407" lon="2.995229">
        <ele>6.765240</ele>
        <time>2018-08-15T11:29:21Z</time>
      </trkpt>
      <trkpt lat="42.752500" lon="2.996113">
        <ele>3.992554</ele>
        <time>2018-08-15T11:29:36Z</time>
      </trkpt>
      <trkpt lat="42.751463" lon="2.997219">
        <ele>2.082538</ele>
        <time>2018-08-15T11:29:52Z</time>
      </trkpt>
      <trkpt lat="42.750401" lon="2.999095">
        <ele>3.958600</ele>
        <time>2018-08-15T11:30:08Z</time>
      </trkpt>
      <trkpt lat="42.748998" lon="3.000988">
        <ele>2.388193</ele>
        <time>2018-08-15T11:30:24Z</time>
      </trkpt>
      <trkpt lat="42.747485" lon="3.003152">
        <ele>1.250311</ele>
        <time>2018-08-15T11:30:40Z</time>
      </trkpt>
      <trkpt lat="42.745849" lon="3.005505">
        <ele>3.367389</ele>
        <time>2018-08-15T11:30:56Z</time>
      </trkpt>
      <trkpt lat="42.744005" lon="3.008154">
        <ele>1.826165</ele>
        <time>2018-08-15T11:31:12Z</time>
      </trkpt>
      <trkpt lat="42.741012" lon="3.009089">
        <ele>2.101349</ele>
        <time>2018-08-15T11:31:28Z</time>
      </trkpt>
      <trkpt lat="42.738230" lon="3.009705">
        <ele>2.609545</ele>
        <time>2018-08-15T11:31:44Z</time>
      </trkpt>
      <trkpt lat="42.736383" lon="3.010931">
        <ele>2.494788</ele>
        <time>2018-08-15T11:31:59Z</time>
      </trkpt>
      <trkpt lat="42.734696" lon="3.013179">
        <ele>2.703277</ele>
        <time>2018-08-15T11:32:14Z</time>
      </trkpt>
      <trkpt lat="42.732262" lon="3.013641">
        <ele>1.000000</ele>
        <time>2018-08-15T11:32:30Z</time>
      </trkpt>
      <trkpt lat="42.730674" lon="3.012608">
        <ele>2.753490</ele>
        <time>2018-08-15T11:32:46Z</time>
      </trkpt>
      <trkpt lat="42.728508" lon="3.012119">
        <ele>2.000000</ele>
        <time>2018-08-15T11:33:02Z</time>
      </trkpt>
      <trkpt lat="42.727185" lon="3.011169">
        <ele>4.351651</ele>
        <time>2018-08-15T11:33:18Z</time>
      </trkpt>
      <trkpt lat="42.726953" lon="3.011729">
        <ele>4.238409</ele>
        <time>2018-08-15T11:33:33Z</time>
      </trkpt>
      <trkpt lat="42.726958" lon="3.012003">
        <ele>3.896420</ele>
        <time>2018-08-15T11:33:48Z</time>
      </trkpt>
      <trkpt lat="42.726985" lon="3.012222">
        <ele>3.570523</ele>
        <time>2018-08-15T11:45:43Z</time>
      </trkpt>
      <trkpt lat="42.726952" lon="3.013270">
        <ele>3.315552</ele>
        <time>2018-08-15T11:45:58Z</time>
      </trkpt>
      <trkpt lat="42.726938" lon="3.015063">
        <ele>4.699342</ele>
        <time>2018-08-15T11:46:14Z</time>
      </trkpt>
      <trkpt lat="42.726902" lon="3.015387">
        <ele>4.848389</ele>
        <time>2018-08-15T11:46:32Z</time>
      </trkpt>
      <trkpt lat="42.726655" lon="3.015833">
        <ele>4.986205</ele>
        <time>2018-08-15T11:46:47Z</time>
      </trkpt>
      <trkpt lat="42.725460" lon="3.015715">
        <ele>3.410061</ele>
        <time>2018-08-15T11:47:02Z</time>
      </trkpt>
      <trkpt lat="42.723719" lon="3.016412">
        <ele>1.949155</ele>
        <time>2018-08-15T11:47:18Z</time>
      </trkpt>
      <trkpt lat="42.721304" lon="3.016153">
        <ele>3.080095</ele>
        <time>2018-08-15T11:47:34Z</time>
      </trkpt>
      <trkpt lat="42.718726" lon="3.015846">
        <ele>4.000000</ele>
        <time>2018-08-15T11:47:50Z</time>
      </trkpt>
      <trkpt lat="42.715875" lon="3.015392">
        <ele>6.502536</ele>
        <time>2018-08-15T11:48:06Z</time>
      </trkpt>
      <trkpt lat="42.713631" lon="3.014562">
        <ele>5.240437</ele>
        <time>2018-08-15T11:48:21Z</time>
      </trkpt>
      <trkpt lat="42.711172" lon="3.013138">
        <ele>5.138825</ele>
        <time>2018-08-15T11:48:37Z</time>
      </trkpt>
      <trkpt lat="42.708925" lon="3.011725">
        <ele>5.439345</ele>
        <time>2018-08-15T11:48:53Z</time>
      </trkpt>
      <trkpt lat="42.707112" lon="3.010687">
        <ele>7.175802</ele>
        <time>2018-08-15T11:49:09Z</time>
      </trkpt>
      <trkpt lat="42.706147" lon="3.010592">
        <ele>10.558939</ele>
        <time>2018-08-15T11:49:24Z</time>
      </trkpt>
      <trkpt lat="42.706061" lon="3.012824">
        <ele>5.893762</ele>
        <time>2018-08-15T11:49:39Z</time>
      </trkpt>
      <trkpt lat="42.705811" lon="3.015027">
        <ele>5.193733</ele>
        <time>2018-08-15T11:49:54Z</time>
      </trkpt>
      <trkpt lat="42.705910" lon="3.015300">
        <ele>5.293677</ele>
        <time>2018-08-15T11:50:09Z</time>
      </trkpt>
      <trkpt lat="42.705931" lon="3.015108">
        <ele>5.098905</ele>
        <time>2018-08-15T11:50:35Z</time>
      </trkpt>
      <trkpt lat="42.705899" lon="3.014915">
        <ele>5.000000</ele>
        <time>2018-08-15T11:53:30Z</time>
      </trkpt>
      <trkpt lat="42.705677" lon="3.015913">
        <ele>6.808452</ele>
        <time>2018-08-15T11:53:45Z</time>
      </trkpt>
      <trkpt lat="42.705039" lon="3.018193">
        <ele>5.359356</ele>
        <time>2018-08-15T11:54:01Z</time>
      </trkpt>
      <trkpt lat="42.704374" lon="3.020669">
        <ele>5.693249</ele>
        <time>2018-08-15T11:54:16Z</time>
      </trkpt>
      <trkpt lat="42.703575" lon="3.022372">
        <ele>3.617346</ele>
        <time>2018-08-15T11:54:32Z</time>
      </trkpt>
      <trkpt lat="42.702302" lon="3.022788">
        <ele>2.416628</ele>
        <time>2018-08-15T11:54:47Z</time>
      </trkpt>
      <trkpt lat="42.700895" lon="3.022748">
        <ele>1.977980</ele>
        <time>2018-08-15T11:55:03Z</time>
      </trkpt>
      <trkpt lat="42.699692" lon="3.022820">
        <ele>1.000000</ele>
        <time>2018-08-15T11:55:19Z</time>
      </trkpt>
      <trkpt lat="42.698685" lon="3.023189">
        <ele>2.202057</ele>
        <time>2018-08-15T11:55:35Z</time>
      </trkpt>
      <trkpt lat="42.697956" lon="3.023502">
        <ele>3.452515</ele>
        <time>2018-08-15T11:55:51Z</time>
      </trkpt>
      <trkpt lat="42.696939" lon="3.024304">
        <ele>2.764347</ele>
        <time>2018-08-15T11:56:06Z</time>
      </trkpt>
      <trkpt lat="42.695851" lon="3.025060">
        <ele>2.020813</ele>
        <time>2018-08-15T11:56:22Z</time>
      </trkpt>
      <trkpt lat="42.694225" lon="3.025477">
        <ele>2.940369</ele>
        <time>2018-08-15T11:56:38Z</time>
      </trkpt>
      <trkpt lat="42.691837" lon="3.025532">
        <ele>0.277050</ele>
        <time>2018-08-15T11:56:53Z</time>
      </trkpt>
      <trkpt lat="42.689508" lon="3.027445">
        <ele>2.733770</ele>
        <time>2018-08-15T11:57:09Z</time>
      </trkpt>
      <trkpt lat="42.687115" lon="3.029237">
        <ele>1.621803</ele>
        <time>2018-08-15T11:57:24Z</time>
      </trkpt>
      <trkpt lat="42.684253" lon="3.028676">
        <ele>1.368215</ele>
        <time>2018-08-15T11:57:40Z</time>
      </trkpt>
      <trkpt lat="42.681396" lon="3.028250">
        <ele>1.373726</ele>
        <time>2018-08-15T11:57:55Z</time>
      </trkpt>
      <trkpt lat="42.678467" lon="3.029241">
        <ele>2.163709</ele>
        <time>2018-08-15T11:58:11Z</time>
      </trkpt>
      <trkpt lat="42.676981" lon="3.030378">
        <ele>2.000915</ele>
        <time>2018-08-15T11:58:26Z</time>
      </trkpt>
      <trkpt lat="42.675650" lon="3.031427">
        <ele>1.063058</ele>
        <time>2018-08-15T11:58:42Z</time>
      </trkpt>
      <trkpt lat="42.674259" lon="3.032492">
        <ele>2.320834</ele>
        <time>2018-08-15T11:58:58Z</time>
      </trkpt>
      <trkpt lat="42.673134" lon="3.033067">
        <ele>1.913767</ele>
        <time>2018-08-15T11:59:13Z</time>
      </trkpt>
      <trkpt lat="42.671835" lon="3.033185">
        <ele>2.668251</ele>
        <time>2018-08-15T11:59:29Z</time>
      </trkpt>
      <trkpt lat="42.670725" lon="3.033174">
        <ele>3.406361</ele>
        <time>2018-08-15T11:59:44Z</time>
      </trkpt>
      <trkpt lat="42.669821" lon="3.033127">
        <ele>1.838368</ele>
        <time>2018-08-15T11:59:59Z</time>
      </trkpt>
      <trkpt lat="42.668742" lon="3.033094">
        <ele>1.650780</ele>
        <time>2018-08-15T12:00:15Z</time>
      </trkpt>
      <trkpt lat="42.667669" lon="3.033075">
        <ele>1.203247</ele>
        <time>2018-08-15T12:00:31Z</time>
      </trkpt>
      <trkpt lat="42.666742" lon="3.033028">
        <ele>1.333146</ele>
        <time>2018-08-15T12:00:47Z</time>
      </trkpt>
      <trkpt lat="42.666087" lon="3.033024">
        <ele>1.630359</ele>
        <time>2018-08-15T12:01:03Z</time>
      </trkpt>
      <trkpt lat="42.664503" lon="3.032750">
        <ele>1.582725</ele>
        <time>2018-08-15T12:01:18Z</time>
      </trkpt>
      <trkpt lat="42.662759" lon="3.032345">
        <ele>1.310608</ele>
        <time>2018-08-15T12:01:34Z</time>
      </trkpt>
      <trkpt lat="42.660903" lon="3.032578">
        <ele>2.837936</ele>
        <time>2018-08-15T12:01:49Z</time>
      </trkpt>
      <trkpt lat="42.659485" lon="3.032686">
        <ele>1.703749</ele>
        <time>2018-08-15T12:02:05Z</time>
      </trkpt>
      <trkpt lat="42.657775" lon="3.032842">
        <ele>2.000000</ele>
        <time>2018-08-15T12:02:21Z</time>
      </trkpt>
      <trkpt lat="42.655889" lon="3.032916">
        <ele>1.000000</ele>
        <time>2018-08-15T12:02:36Z</time>
      </trkpt>
      <trkpt lat="42.653692" lon="3.033044">
        <ele>1.197384</ele>
        <time>2018-08-15T12:02:51Z</time>
      </trkpt>
      <trkpt lat="42.652943" lon="3.033147">
        <ele>2.056136</ele>
        <time>2018-08-15T12:03:10Z</time>
      </trkpt>
      <trkpt lat="42.652767" lon="3.033056">
        <ele>2.466610</ele>
        <time>2018-08-15T12:07:15Z</time>
      </trkpt>
      <trkpt lat="42.651070" lon="3.033042">
        <ele>1.284363</ele>
        <time>2018-08-15T12:07:30Z</time>
      </trkpt>
      <trkpt lat="42.648869" lon="3.033080">
        <ele>1.465894</ele>
        <time>2018-08-15T12:07:45Z</time>
      </trkpt>
      <trkpt lat="42.646399" lon="3.033477">
        <ele>1.000000</ele>
        <time>2018-08-15T12:08:01Z</time>
      </trkpt>
      <trkpt lat="42.644088" lon="3.033677">
        <ele>2.493317</ele>
        <time>2018-08-15T12:08:17Z</time>
      </trkpt>
      <trkpt lat="42.642432" lon="3.033372">
        <ele>2.085874</ele>
        <time>2018-08-15T12:08:32Z</time>
      </trkpt>
      <trkpt lat="42.640894" lon="3.032821">
        <ele>2.341138</ele>
        <time>2018-08-15T12:08:47Z</time>
      </trkpt>
      <trkpt lat="42.639961" lon="3.032425">
        <ele>3.049747</ele>
        <time>2018-08-15T12:09:03Z</time>
      </trkpt>
      <trkpt lat="42.638445" lon="3.032835">
        <ele>4.386972</ele>
        <time>2018-08-15T12:09:19Z</time>
      </trkpt>
      <trkpt lat="42.636975" lon="3.033481">
        <ele>3.304132</ele>
        <time>2018-08-15T12:09:34Z</time>
      </trkpt>
      <trkpt lat="42.635347" lon="3.033313">
        <ele>3.000000</ele>
        <time>2018-08-15T12:09:50Z</time>
      </trkpt>
      <trkpt lat="42.634998" lon="3.033259">
        <ele>3.087379</ele>
        <time>2018-08-15T12:10:10Z</time>
      </trkpt>
      <trkpt lat="42.633933" lon="3.032990">
        <ele>2.873723</ele>
        <time>2018-08-15T12:10:26Z</time>
      </trkpt>
      <trkpt lat="42.632417" lon="3.032580">
        <ele>2.000000</ele>
        <time>2018-08-15T12:10:41Z</time>
      </trkpt>
      <trkpt lat="42.630590" lon="3.032120">
        <ele>1.518487</ele>
        <time>2018-08-15T12:10:56Z</time>
      </trkpt>
      <trkpt lat="42.629274" lon="3.032095">
        <ele>1.486542</ele>
        <time>2018-08-15T12:11:12Z</time>
      </trkpt>
      <trkpt lat="42.628948" lon="3.031624">
        <ele>1.737244</ele>
        <time>2018-08-15T12:11:27Z</time>
      </trkpt>
      <trkpt lat="42.628802" lon="3.030089">
        <ele>2.065783</ele>
        <time>2018-08-15T12:11:43Z</time>
      </trkpt>
      <trkpt lat="42.628670" lon="3.028377">
        <ele>1.435231</ele>
        <time>2018-08-15T12:11:59Z</time>
      </trkpt>
      <trkpt lat="42.628004" lon="3.026789">
        <ele>1.721066</ele>
        <time>2018-08-15T12:12:15Z</time>
      </trkpt>
      <trkpt lat="42.626772" lon="3.025006">
        <ele>1.993478</ele>
        <time>2018-08-15T12:12:31Z</time>
      </trkpt>
      <trkpt lat="42.625915" lon="3.024042">
        <ele>-1.065574</ele>
        <time>2018-08-15T12:12:46Z</time>
      </trkpt>
      <trkpt lat="42.625161" lon="3.022701">
        <ele>-0.581039</ele>
        <time>2018-08-15T12:13:02Z</time>
      </trkpt>
      <trkpt lat="42.623846" lon="3.022845">
        <ele>0.278657</ele>
        <time>2018-08-15T12:13:18Z</time>
      </trkpt>
      <trkpt lat="42.621616" lon="3.024340">
        <ele>1.846131</ele>
        <time>2018-08-15T12:13:34Z</time>
      </trkpt>
      <trkpt lat="42.618894" lon="3.025334">
        <ele>3.747686</ele>
        <time>2018-08-15T12:13:50Z</time>
      </trkpt>
      <trkpt lat="42.616151" lon="3.025287">
        <ele>2.512412</ele>
        <time>2018-08-15T12:14:05Z</time>
      </trkpt>
      <trkpt lat="42.614516" lon="3.025153">
        <ele>0.786511</ele>
        <time>2018-08-15T12:14:21Z</time>
      </trkpt>
      <trkpt lat="42.612260" lon="3.024941">
        <ele>1.682471</ele>
        <time>2018-08-15T12:14:36Z</time>
      </trkpt>
      <trkpt lat="42.609097" lon="3.024683">
        <ele>1.786039</ele>
        <time>2018-08-15T12:14:52Z</time>
      </trkpt>
      <trkpt lat="42.607353" lon="3.024469">
        <ele>2.452423</ele>
        <time>2018-08-15T12:15:07Z</time>
      </trkpt>
      <trkpt lat="42.604982" lon="3.024330">
        <ele>2.195765</ele>
        <time>2018-08-15T12:15:22Z</time>
      </trkpt>
      <trkpt lat="42.602006" lon="3.024137">
        <ele>2.985596</ele>
        <time>2018-08-15T12:15:37Z</time>
      </trkpt>
      <trkpt lat="42.598931" lon="3.024530">
        <ele>1.725078</ele>
        <time>2018-08-15T12:15:52Z</time>
      </trkpt>
      <trkpt lat="42.596508" lon="3.024775">
        <ele>2.487645</ele>
        <time>2018-08-15T12:16:07Z</time>
      </trkpt>
      <trkpt lat="42.594640" lon="3.025107">
        <ele>3.954200</ele>
        <time>2018-08-15T12:16:23Z</time>
      </trkpt>
      <trkpt lat="42.591671" lon="3.025630">
        <ele>3.751407</ele>
        <time>2018-08-15T12:16:39Z</time>
      </trkpt>
      <trkpt lat="42.589227" lon="3.027613">
        <ele>3.072205</ele>
        <time>2018-08-15T12:16:54Z</time>
      </trkpt>
      <trkpt lat="42.586464" lon="3.029787">
        <ele>2.881258</ele>
        <time>2018-08-15T12:17:10Z</time>
      </trkpt>
      <trkpt lat="42.583692" lon="3.031550">
        <ele>2.000000</ele>
        <time>2018-08-15T12:17:25Z</time>
      </trkpt>
      <trkpt lat="42.580925" lon="3.032642">
        <ele>3.927502</ele>
        <time>2018-08-15T12:17:41Z</time>
      </trkpt>
      <trkpt lat="42.578233" lon="3.033305">
        <ele>1.000000</ele>
        <time>2018-08-15T12:17:56Z</time>
      </trkpt>
      <trkpt lat="42.576064" lon="3.034282">
        <ele>1.338338</ele>
        <time>2018-08-15T12:18:12Z</time>
      </trkpt>
      <trkpt lat="42.575178" lon="3.035268">
        <ele>2.601993</ele>
        <time>2018-08-15T12:18:27Z</time>
      </trkpt>
      <trkpt lat="42.573874" lon="3.037511">
        <ele>1.355369</ele>
        <time>2018-08-15T12:18:42Z</time>
      </trkpt>
      <trkpt lat="42.571947" lon="3.039821">
        <ele>2.048955</ele>
        <time>2018-08-15T12:18:58Z</time>
      </trkpt>
      <trkpt lat="42.569808" lon="3.041012">
        <ele>3.257755</ele>
        <time>2018-08-15T12:19:14Z</time>
      </trkpt>
      <trkpt lat="42.567575" lon="3.041274">
        <ele>1.942627</ele>
        <time>2018-08-15T12:19:29Z</time>
      </trkpt>
      <trkpt lat="42.565484" lon="3.041198">
        <ele>2.603529</ele>
        <time>2018-08-15T12:19:45Z</time>
      </trkpt>
      <trkpt lat="42.564003" lon="3.040990">
        <ele>3.079557</ele>
        <time>2018-08-15T12:20:01Z</time>
      </trkpt>
      <trkpt lat="42.563825" lon="3.041616">
        <ele>5.276119</ele>
        <time>2018-08-15T12:20:16Z</time>
      </trkpt>
      <trkpt lat="42.564084" lon="3.043436">
        <ele>5.826785</ele>
        <time>2018-08-15T12:20:31Z</time>
      </trkpt>
      <trkpt lat="42.564203" lon="3.044609">
        <ele>6.062157</ele>
        <time>2018-08-15T12:20:47Z</time>
      </trkpt>
      <trkpt lat="42.563977" lon="3.044935">
        <ele>7.316931</ele>
        <time>2018-08-15T12:21:02Z</time>
      </trkpt>
      <trkpt lat="42.563003" lon="3.045073">
        <ele>8.375269</ele>
        <time>2018-08-15T12:21:17Z</time>
      </trkpt>
      <trkpt lat="42.562154" lon="3.045202">
        <ele>5.541903</ele>
        <time>2018-08-15T12:21:32Z</time>
      </trkpt>
      <trkpt lat="42.560983" lon="3.045463">
        <ele>2.444687</ele>
        <time>2018-08-15T12:21:47Z</time>
      </trkpt>
      <trkpt lat="42.560062" lon="3.045627">
        <ele>4.098663</ele>
        <time>2018-08-15T12:22:03Z</time>
      </trkpt>
      <trkpt lat="42.559430" lon="3.045675">
        <ele>5.851439</ele>
        <time>2018-08-15T12:22:18Z</time>
      </trkpt>
      <trkpt lat="42.559489" lon="3.045843">
        <ele>5.826890</ele>
        <time>2018-08-15T12:22:35Z</time>
      </trkpt>
      <trkpt lat="42.559555" lon="3.045663">
        <ele>5.478352</ele>
        <time>2018-08-15T12:23:08Z</time>
      </trkpt>
      <trkpt lat="42.559396" lon="3.045551">
        <ele>5.774972</ele>
        <time>2018-08-15T12:23:29Z</time>
      </trkpt>
      <trkpt lat="42.559439" lon="3.045352">
        <ele>5.430795</ele>
        <time>2018-08-15T12:27:02Z</time>
      </trkpt>
      <trkpt lat="42.559323" lon="3.044330">
        <ele>4.849181</ele>
        <time>2018-08-15T12:27:18Z</time>
      </trkpt>
      <trkpt lat="42.559234" lon="3.043357">
        <ele>4.105362</ele>
        <time>2018-08-15T12:27:33Z</time>
      </trkpt>
      <trkpt lat="42.559097" lon="3.042671">
        <ele>3.271700</ele>
        <time>2018-08-15T12:27:49Z</time>
      </trkpt>
      <trkpt lat="42.558122" lon="3.042864">
        <ele>3.856960</ele>
        <time>2018-08-15T12:28:04Z</time>
      </trkpt>
      <trkpt lat="42.557440" lon="3.043000">
        <ele>3.642663</ele>
        <time>2018-08-15T12:28:20Z</time>
      </trkpt>
      <trkpt lat="42.557033" lon="3.043091">
        <ele>4.107546</ele>
        <time>2018-08-15T12:28:35Z</time>
      </trkpt>
      <trkpt lat="42.556151" lon="3.043462">
        <ele>5.154099</ele>
        <time>2018-08-15T12:28:51Z</time>
      </trkpt>
      <trkpt lat="42.555302" lon="3.043822">
        <ele>4.948895</ele>
        <time>2018-08-15T12:29:06Z</time>
      </trkpt>
      <trkpt lat="42.554374" lon="3.044216">
        <ele>5.088732</ele>
        <time>2018-08-15T12:29:22Z</time>
      </trkpt>
      <trkpt lat="42.553892" lon="3.044414">
        <ele>5.496673</ele>
        <time>2018-08-15T12:29:37Z</time>
      </trkpt>
      <trkpt lat="42.553301" lon="3.044675">
        <ele>5.494644</ele>
        <time>2018-08-15T12:29:54Z</time>
      </trkpt>
      <trkpt lat="42.552938" lon="3.044831">
        <ele>4.376175</ele>
        <time>2018-08-15T12:30:09Z</time>
      </trkpt>
      <trkpt lat="42.552803" lon="3.045163">
        <ele>4.145833</ele>
        <time>2018-08-15T12:30:25Z</time>
      </trkpt>
      <trkpt lat="42.552560" lon="3.045488">
        <ele>3.717243</ele>
        <time>2018-08-15T12:30:40Z</time>
      </trkpt>
      <trkpt lat="42.552181" lon="3.045788">
        <ele>3.201129</ele>
        <time>2018-08-15T12:30:55Z</time>
      </trkpt>
      <trkpt lat="42.551445" lon="3.046442">
        <ele>4.334679</ele>
        <time>2018-08-15T12:31:10Z</time>
      </trkpt>
      <trkpt lat="42.551332" lon="3.046563">
        <ele>4.727689</ele>
        <time>2018-08-15T12:31:26Z</time>
      </trkpt>
      <trkpt lat="42.550665" lon="3.046819">
        <ele>4.871817</ele>
        <time>2018-08-15T12:31:41Z</time>
      </trkpt>
      <trkpt lat="42.549595" lon="3.047090">
        <ele>4.529808</ele>
        <time>2018-08-15T12:31:57Z</time>
      </trkpt>
      <trkpt lat="42.549192" lon="3.047194">
        <ele>4.296669</ele>
        <time>2018-08-15T12:32:12Z</time>
      </trkpt>
      <trkpt lat="42.548510" lon="3.047337">
        <ele>4.128730</ele>
        <time>2018-08-15T12:32:27Z</time>
      </trkpt>
      <trkpt lat="42.547911" lon="3.047462">
        <ele>3.492798</ele>
        <time>2018-08-15T12:32:42Z</time>
      </trkpt>
      <trkpt lat="42.547274" lon="3.047571">
        <ele>3.169739</ele>
        <time>2018-08-15T12:32:58Z</time>
      </trkpt>
      <trkpt lat="42.546657" lon="3.047805">
        <ele>3.728465</ele>
        <time>2018-08-15T12:33:14Z</time>
      </trkpt>
      <trkpt lat="42.545554" lon="3.048501">
        <ele>3.263584</ele>
        <time>2018-08-15T12:33:29Z</time>
      </trkpt>
      <trkpt lat="42.544595" lon="3.049431">
        <ele>2.336627</ele>
        <time>2018-08-15T12:33:45Z</time>
      </trkpt>
      <trkpt lat="42.543724" lon="3.049569">
        <ele>2.240703</ele>
        <time>2018-08-15T12:34:01Z</time>
      </trkpt>
      <trkpt lat="42.543157" lon="3.048895">
        <ele>2.845947</ele>
        <time>2018-08-15T12:34:17Z</time>
      </trkpt>
      <trkpt lat="42.542683" lon="3.047345">
        <ele>3.092400</ele>
        <time>2018-08-15T12:34:32Z</time>
      </trkpt>
      <trkpt lat="42.541675" lon="3.046479">
        <ele>2.544858</ele>
        <time>2018-08-15T12:34:48Z</time>
      </trkpt>
      <trkpt lat="42.541078" lon="3.046236">
        <ele>3.037482</ele>
        <time>2018-08-15T12:35:03Z</time>
      </trkpt>
      <trkpt lat="42.539723" lon="3.047136">
        <ele>3.436752</ele>
        <time>2018-08-15T12:35:18Z</time>
      </trkpt>
      <trkpt lat="42.538416" lon="3.046954">
        <ele>3.375985</ele>
        <time>2018-08-15T12:35:33Z</time>
      </trkpt>
      <trkpt lat="42.537742" lon="3.048909">
        <ele>4.598877</ele>
        <time>2018-08-15T12:35:48Z</time>
      </trkpt>
      <trkpt lat="42.536988" lon="3.049372">
        <ele>5.814828</ele>
        <time>2018-08-15T12:36:04Z</time>
      </trkpt>
      <trkpt lat="42.535841" lon="3.048024">
        <ele>7.976579</ele>
        <time>2018-08-15T12:36:19Z</time>
      </trkpt>
      <trkpt lat="42.535735" lon="3.047901">
        <ele>9.059145</ele>
        <time>2018-08-15T12:36:35Z</time>
      </trkpt>
      <trkpt lat="42.535263" lon="3.049307">
        <ele>13.417694</ele>
        <time>2018-08-15T12:36:51Z</time>
      </trkpt>
      <trkpt lat="42.534011" lon="3.051394">
        <ele>19.450569</ele>
        <time>2018-08-15T12:37:06Z</time>
      </trkpt>
      <trkpt lat="42.532590" lon="3.053779">
        <ele>25.881714</ele>
        <time>2018-08-15T12:37:22Z</time>
      </trkpt>
      <trkpt lat="42.531977" lon="3.054747">
        <ele>31.723742</ele>
        <time>2018-08-15T12:37:37Z</time>
      </trkpt>
      <trkpt lat="42.531470" lon="3.055165">
        <ele>35.171082</ele>
        <time>2018-08-15T12:37:52Z</time>
      </trkpt>
      <trkpt lat="42.531870" lon="3.056443">
        <ele>40.178699</ele>
        <time>2018-08-15T12:38:08Z</time>
      </trkpt>
      <trkpt lat="42.531968" lon="3.056671">
        <ele>41.339149</ele>
        <time>2018-08-15T12:43:07Z</time>
      </trkpt>
      <trkpt lat="42.533068" lon="3.058558">
        <ele>34.594543</ele>
        <time>2018-08-15T12:43:22Z</time>
      </trkpt>
      <trkpt lat="42.534134" lon="3.061655">
        <ele>26.439341</ele>
        <time>2018-08-15T12:43:37Z</time>
      </trkpt>
      <trkpt lat="42.534262" lon="3.064481">
        <ele>15.192713</ele>
        <time>2018-08-15T12:43:52Z</time>
      </trkpt>
      <trkpt lat="42.533094" lon="3.067168">
        <ele>11.663708</ele>
        <time>2018-08-15T12:44:08Z</time>
      </trkpt>
      <trkpt lat="42.531706" lon="3.067815">
        <ele>22.168934</ele>
        <time>2018-08-15T12:44:23Z</time>
      </trkpt>
      <trkpt lat="42.531074" lon="3.069335">
        <ele>25.301235</ele>
        <time>2018-08-15T12:44:38Z</time>
      </trkpt>
      <trkpt lat="42.529484" lon="3.070553">
        <ele>36.007610</ele>
        <time>2018-08-15T12:44:54Z</time>
      </trkpt>
      <trkpt lat="42.529712" lon="3.071850">
        <ele>40.750435</ele>
        <time>2018-08-15T12:45:10Z</time>
      </trkpt>
      <trkpt lat="42.530546" lon="3.072960">
        <ele>38.715897</ele>
        <time>2018-08-15T12:45:25Z</time>
      </trkpt>
      <trkpt lat="42.529724" lon="3.074783">
        <ele>53.445740</ele>
        <time>2018-08-15T12:45:41Z</time>
      </trkpt>
      <trkpt lat="42.529602" lon="3.076036">
        <ele>57.101677</ele>
        <time>2018-08-15T12:45:56Z</time>
      </trkpt>
      <trkpt lat="42.529631" lon="3.077014">
        <ele>50.900234</ele>
        <time>2018-08-15T12:46:12Z</time>
      </trkpt>
      <trkpt lat="42.529998" lon="3.077891">
        <ele>52.960468</ele>
        <time>2018-08-15T12:46:27Z</time>
      </trkpt>
      <trkpt lat="42.530099" lon="3.077732">
        <ele>54.191406</ele>
        <time>2018-08-15T12:46:45Z</time>
      </trkpt>
      <trkpt lat="42.530029" lon="3.076844">
        <ele>57.118351</ele>
        <time>2018-08-15T12:47:01Z</time>
      </trkpt>
      <trkpt lat="42.529979" lon="3.076275">
        <ele>58.340206</ele>
        <time>2018-08-15T12:47:16Z</time>
      </trkpt>
      <trkpt lat="42.529984" lon="3.075644">
        <ele>57.200596</ele>
        <time>2018-08-15T12:47:32Z</time>
      </trkpt>
      <trkpt lat="42.530576" lon="3.075800">
        <ele>55.039513</ele>
        <time>2018-08-15T12:47:48Z</time>
      </trkpt>
      <trkpt lat="42.530766" lon="3.075953">
        <ele>55.447098</ele>
        <time>2018-08-15T12:48:38Z</time>
      </trkpt>
      <trkpt lat="42.530638" lon="3.075868">
        <ele>55.415833</ele>
        <time>2018-08-15T12:51:06Z</time>
      </trkpt>
      <trkpt lat="42.530008" lon="3.075637">
        <ele>57.051754</ele>
        <time>2018-08-15T12:51:22Z</time>
      </trkpt>
      <trkpt lat="42.530016" lon="3.076707">
        <ele>57.841827</ele>
        <time>2018-08-15T12:51:37Z</time>
      </trkpt>
      <trkpt lat="42.530162" lon="3.077652">
        <ele>54.941528</ele>
        <time>2018-08-15T12:51:52Z</time>
      </trkpt>
      <trkpt lat="42.529699" lon="3.077001">
        <ele>51.942726</ele>
        <time>2018-08-15T12:52:08Z</time>
      </trkpt>
      <trkpt lat="42.529622" lon="3.076824">
        <ele>52.740917</ele>
        <time>2018-08-15T12:52:25Z</time>
      </trkpt>
      <trkpt lat="42.528934" lon="3.076247">
        <ele>52.413017</ele>
        <time>2018-08-15T12:52:41Z</time>
      </trkpt>
      <trkpt lat="42.528598" lon="3.075771">
        <ele>55.406029</ele>
        <time>2018-08-15T12:52:56Z</time>
      </trkpt>
      <trkpt lat="42.529282" lon="3.076635">
        <ele>51.336243</ele>
        <time>2018-08-15T12:53:11Z</time>
      </trkpt>
      <trkpt lat="42.528789" lon="3.076899">
        <ele>44.486931</ele>
        <time>2018-08-15T12:53:27Z</time>
      </trkpt>
      <trkpt lat="42.527988" lon="3.076964">
        <ele>37.410046</ele>
        <time>2018-08-15T12:53:42Z</time>
      </trkpt>
      <trkpt lat="42.527171" lon="3.077063">
        <ele>30.874336</ele>
        <time>2018-08-15T12:53:57Z</time>
      </trkpt>
      <trkpt lat="42.526252" lon="3.077131">
        <ele>39.725212</ele>
        <time>2018-08-15T12:54:13Z</time>
      </trkpt>
      <trkpt lat="42.525874" lon="3.078713">
        <ele>27.631243</ele>
        <time>2018-08-15T12:54:28Z</time>
      </trkpt>
      <trkpt lat="42.525117" lon="3.079053">
        <ele>24.456924</ele>
        <time>2018-08-15T12:54:44Z</time>
      </trkpt>
      <trkpt lat="42.524010" lon="3.079952">
        <ele>13.531931</ele>
        <time>2018-08-15T12:54:59Z</time>
      </trkpt>
      <trkpt lat="42.524429" lon="3.081804">
        <ele>15.729355</ele>
        <time>2018-08-15T12:55:15Z</time>
      </trkpt>
      <trkpt lat="42.524221" lon="3.083254">
        <ele>13.461557</ele>
        <time>2018-08-15T12:55:31Z</time>
      </trkpt>
      <trkpt lat="42.524096" lon="3.084888">
        <ele>10.610260</ele>
        <time>2018-08-15T12:55:47Z</time>
      </trkpt>
      <trkpt lat="42.523986" lon="3.085186">
        <ele>9.974365</ele>
        <time>2018-08-15T12:56:03Z</time>
      </trkpt>
      <trkpt lat="42.523601" lon="3.086031">
        <ele>8.080781</ele>
        <time>2018-08-15T12:56:18Z</time>
      </trkpt>
      <trkpt lat="42.523630" lon="3.086943">
        <ele>7.164693</ele>
        <time>2018-08-15T12:56:34Z</time>
      </trkpt>
      <trkpt lat="42.523745" lon="3.087736">
        <ele>12.345409</ele>
        <time>2018-08-15T12:56:50Z</time>
      </trkpt>
      <trkpt lat="42.524451" lon="3.088339">
        <ele>13.241379</ele>
        <time>2018-08-15T12:57:05Z</time>
      </trkpt>
      <trkpt lat="42.524205" lon="3.089524">
        <ele>23.084387</ele>
        <time>2018-08-15T12:57:21Z</time>
      </trkpt>
      <trkpt lat="42.524913" lon="3.089979">
        <ele>21.301517</ele>
        <time>2018-08-15T12:57:36Z</time>
      </trkpt>
      <trkpt lat="42.525222" lon="3.091551">
        <ele>18.710962</ele>
        <time>2018-08-15T12:57:52Z</time>
      </trkpt>
      <trkpt lat="42.523727" lon="3.092560">
        <ele>26.831184</ele>
        <time>2018-08-15T12:58:08Z</time>
      </trkpt>
      <trkpt lat="42.523510" lon="3.094099">
        <ele>18.331987</ele>
        <time>2018-08-15T12:58:23Z</time>
      </trkpt>
      <trkpt lat="42.523076" lon="3.094987">
        <ele>23.196434</ele>
        <time>2018-08-15T12:58:38Z</time>
      </trkpt>
      <trkpt lat="42.523341" lon="3.096830">
        <ele>19.536463</ele>
        <time>2018-08-15T12:58:54Z</time>
      </trkpt>
      <trkpt lat="42.523109" lon="3.099607">
        <ele>12.158401</ele>
        <time>2018-08-15T12:59:10Z</time>
      </trkpt>
      <trkpt lat="42.523068" lon="3.101687">
        <ele>26.191364</ele>
        <time>2018-08-15T12:59:25Z</time>
      </trkpt>
      <trkpt lat="42.522137" lon="3.103431">
        <ele>30.932240</ele>
        <time>2018-08-15T12:59:41Z</time>
      </trkpt>
      <trkpt lat="42.521501" lon="3.104869">
        <ele>26.309612</ele>
        <time>2018-08-15T12:59:56Z</time>
      </trkpt>
      <trkpt lat="42.520762" lon="3.105655">
        <ele>20.714384</ele>
        <time>2018-08-15T13:00:12Z</time>
      </trkpt>
      <trkpt lat="42.520202" lon="3.106897">
        <ele>12.028141</ele>
        <time>2018-08-15T13:00:28Z</time>
      </trkpt>
      <trkpt lat="42.519429" lon="3.107565">
        <ele>6.764365</ele>
        <time>2018-08-15T13:00:44Z</time>
      </trkpt>
      <trkpt lat="42.518515" lon="3.107315">
        <ele>4.934748</ele>
        <time>2018-08-15T13:01:00Z</time>
      </trkpt>
      <trkpt lat="42.517616" lon="3.106462">
        <ele>11.891717</ele>
        <time>2018-08-15T13:01:16Z</time>
      </trkpt>
      <trkpt lat="42.516810" lon="3.105745">
        <ele>5.384014</ele>
        <time>2018-08-15T13:01:31Z</time>
      </trkpt>
      <trkpt lat="42.516092" lon="3.105901">
        <ele>6.382778</ele>
        <time>2018-08-15T13:01:47Z</time>
      </trkpt>
      <trkpt lat="42.515334" lon="3.106932">
        <ele>11.387437</ele>
        <time>2018-08-15T13:02:02Z</time>
      </trkpt>
      <trkpt lat="42.515602" lon="3.107660">
        <ele>12.953258</ele>
        <time>2018-08-15T13:02:17Z</time>
      </trkpt>
      <trkpt lat="42.515355" lon="3.108712">
        <ele>21.725792</ele>
        <time>2018-08-15T13:02:33Z</time>
      </trkpt>
      <trkpt lat="42.514504" lon="3.109082">
        <ele>29.956894</ele>
        <time>2018-08-15T13:02:48Z</time>
      </trkpt>
      <trkpt lat="42.513581" lon="3.109733">
        <ele>33.785763</ele>
        <time>2018-08-15T13:03:04Z</time>
      </trkpt>
      <trkpt lat="42.513071" lon="3.109440">
        <ele>40.819866</ele>
        <time>2018-08-15T13:03:19Z</time>
      </trkpt>
      <trkpt lat="42.512995" lon="3.107529">
        <ele>27.333214</ele>
        <time>2018-08-15T13:03:35Z</time>
      </trkpt>
      <trkpt lat="42.512780" lon="3.105086">
        <ele>25.316916</ele>
        <time>2018-08-15T13:03:50Z</time>
      </trkpt>
      <trkpt lat="42.511992" lon="3.105030">
        <ele>35.720520</ele>
        <time>2018-08-15T13:04:06Z</time>
      </trkpt>
      <trkpt lat="42.512808" lon="3.105940">
        <ele>25.378023</ele>
        <time>2018-08-15T13:04:22Z</time>
      </trkpt>
      <trkpt lat="42.513012" lon="3.108675">
        <ele>37.561020</ele>
        <time>2018-08-15T13:04:38Z</time>
      </trkpt>
      <trkpt lat="42.512825" lon="3.110627">
        <ele>47.131321</ele>
        <time>2018-08-15T13:04:54Z</time>
      </trkpt>
      <trkpt lat="42.512411" lon="3.112286">
        <ele>59.096195</ele>
        <time>2018-08-15T13:05:09Z</time>
      </trkpt>
      <trkpt lat="42.512177" lon="3.114445">
        <ele>66.263641</ele>
        <time>2018-08-15T13:05:25Z</time>
      </trkpt>
      <trkpt lat="42.511371" lon="3.116501">
        <ele>70.655777</ele>
        <time>2018-08-15T13:05:40Z</time>
      </trkpt>
      <trkpt lat="42.509852" lon="3.115370">
        <ele>65.944870</ele>
        <time>2018-08-15T13:05:56Z</time>
      </trkpt>
      <trkpt lat="42.508293" lon="3.116507">
        <ele>47.233059</ele>
        <time>2018-08-15T13:06:12Z</time>
      </trkpt>
      <trkpt lat="42.506651" lon="3.116883">
        <ele>29.423576</ele>
        <time>2018-08-15T13:06:28Z</time>
      </trkpt>
      <trkpt lat="42.506219" lon="3.115798">
        <ele>40.381767</ele>
        <time>2018-08-15T13:06:44Z</time>
      </trkpt>
      <trkpt lat="42.506005" lon="3.117703">
        <ele>23.520485</ele>
        <time>2018-08-15T13:07:00Z</time>
      </trkpt>
      <trkpt lat="42.505855" lon="3.118199">
        <ele>20.046789</ele>
        <time>2018-08-15T13:07:15Z</time>
      </trkpt>
      <trkpt lat="42.505538" lon="3.120120">
        <ele>6.929881</ele>
        <time>2018-08-15T13:07:31Z</time>
      </trkpt>
      <trkpt lat="42.504415" lon="3.121138">
        <ele>3.484645</ele>
        <time>2018-08-15T13:07:46Z</time>
      </trkpt>
      <trkpt lat="42.504239" lon="3.121196">
        <ele>3.838222</ele>
        <time>2018-08-15T13:08:03Z</time>
      </trkpt>
      <trkpt lat="42.502799" lon="3.121135">
        <ele>5.207685</ele>
        <time>2018-08-15T13:08:18Z</time>
      </trkpt>
      <trkpt lat="42.501966" lon="3.120497">
        <ele>7.761228</ele>
        <time>2018-08-15T13:08:34Z</time>
      </trkpt>
      <trkpt lat="42.500444" lon="3.120664">
        <ele>10.036265</ele>
        <time>2018-08-15T13:08:49Z</time>
      </trkpt>
      <trkpt lat="42.498651" lon="3.119501">
        <ele>17.650410</ele>
        <time>2018-08-15T13:09:05Z</time>
      </trkpt>
      <trkpt lat="42.496473" lon="3.118880">
        <ele>36.280357</ele>
        <time>2018-08-15T13:09:20Z</time>
      </trkpt>
      <trkpt lat="42.494255" lon="3.118834">
        <ele>56.514435</ele>
        <time>2018-08-15T13:09:36Z</time>
      </trkpt>
      <trkpt lat="42.492367" lon="3.119080">
        <ele>67.865349</ele>
        <time>2018-08-15T13:09:52Z</time>
      </trkpt>
      <trkpt lat="42.490950" lon="3.119120">
        <ele>64.105850</ele>
        <time>2018-08-15T13:10:07Z</time>
      </trkpt>
      <trkpt lat="42.489505" lon="3.121746">
        <ele>47.779987</ele>
        <time>2018-08-15T13:10:22Z</time>
      </trkpt>
      <trkpt lat="42.488661" lon="3.124701">
        <ele>27.657887</ele>
        <time>2018-08-15T13:10:37Z</time>
      </trkpt>
      <trkpt lat="42.488388" lon="3.127254">
        <ele>11.584261</ele>
        <time>2018-08-15T13:10:53Z</time>
      </trkpt>
      <trkpt lat="42.487362" lon="3.126735">
        <ele>8.229013</ele>
        <time>2018-08-15T13:11:09Z</time>
      </trkpt>
      <trkpt lat="42.486401" lon="3.126074">
        <ele>11.944493</ele>
        <time>2018-08-15T13:11:24Z</time>
      </trkpt>
      <trkpt lat="42.485971" lon="3.126065">
        <ele>11.869636</ele>
        <time>2018-08-15T13:11:40Z</time>
      </trkpt>
      <trkpt lat="42.485612" lon="3.126511">
        <ele>18.414944</ele>
        <time>2018-08-15T13:11:55Z</time>
      </trkpt>
      <trkpt lat="42.486543" lon="3.128254">
        <ele>21.277510</ele>
        <time>2018-08-15T13:12:11Z</time>
      </trkpt>
      <trkpt lat="42.485800" lon="3.130116">
        <ele>29.001444</ele>
        <time>2018-08-15T13:12:27Z</time>
      </trkpt>
      <trkpt lat="42.484674" lon="3.131134">
        <ele>15.717776</ele>
        <time>2018-08-15T13:12:42Z</time>
      </trkpt>
      <trkpt lat="42.483940" lon="3.131058">
        <ele>10.646966</ele>
        <time>2018-08-15T13:12:57Z</time>
      </trkpt>
      <trkpt lat="42.483459" lon="3.130233">
        <ele>7.272776</ele>
        <time>2018-08-15T13:13:13Z</time>
      </trkpt>
      <trkpt lat="42.483195" lon="3.129337">
        <ele>7.093178</ele>
        <time>2018-08-15T13:13:29Z</time>
      </trkpt>
      <trkpt lat="42.482993" lon="3.129046">
        <ele>7.442360</ele>
        <time>2018-08-15T13:13:45Z</time>
      </trkpt>
      <trkpt lat="42.482851" lon="3.129003">
        <ele>7.129233</ele>
        <time>2018-08-15T13:14:05Z</time>
      </trkpt>
      <trkpt lat="42.482426" lon="3.129030">
        <ele>5.714046</ele>
        <time>2018-08-15T13:14:20Z</time>
      </trkpt>
      <trkpt lat="42.481883" lon="3.129202">
        <ele>5.751645</ele>
        <time>2018-08-15T13:14:36Z</time>
      </trkpt>
      <trkpt lat="42.481366" lon="3.129573">
        <ele>5.462768</ele>
        <time>2018-08-15T13:14:51Z</time>
      </trkpt>
      <trkpt lat="42.480571" lon="3.131301">
        <ele>5.715672</ele>
        <time>2018-08-15T13:15:07Z</time>
      </trkpt>
      <trkpt lat="42.480235" lon="3.133276">
        <ele>5.543275</ele>
        <time>2018-08-15T13:15:23Z</time>
      </trkpt>
      <trkpt lat="42.479904" lon="3.134549">
        <ele>6.478928</ele>
        <time>2018-08-15T13:15:39Z</time>
      </trkpt>
      <trkpt lat="42.479998" lon="3.135761">
        <ele>7.685292</ele>
        <time>2018-08-15T13:15:54Z</time>
      </trkpt>
      <trkpt lat="42.479678" lon="3.136914">
        <ele>15.815222</ele>
        <time>2018-08-15T13:16:09Z</time>
      </trkpt>
      <trkpt lat="42.480200" lon="3.137099">
        <ele>10.900272</ele>
        <time>2018-08-15T13:16:24Z</time>
      </trkpt>
      <trkpt lat="42.480072" lon="3.139044">
        <ele>25.587034</ele>
        <time>2018-08-15T13:16:39Z</time>
      </trkpt>
      <trkpt lat="42.479256" lon="3.139710">
        <ele>36.126595</ele>
        <time>2018-08-15T13:16:55Z</time>
      </trkpt>
      <trkpt lat="42.479230" lon="3.141376">
        <ele>40.217999</ele>
        <time>2018-08-15T13:17:10Z</time>
      </trkpt>
      <trkpt lat="42.478266" lon="3.142615">
        <ele>43.034790</ele>
        <time>2018-08-15T13:17:26Z</time>
      </trkpt>
      <trkpt lat="42.477345" lon="3.142037">
        <ele>58.773888</ele>
        <time>2018-08-15T13:17:41Z</time>
      </trkpt>
      <trkpt lat="42.476200" lon="3.142780">
        <ele>57.484009</ele>
        <time>2018-08-15T13:17:57Z</time>
      </trkpt>
      <trkpt lat="42.475592" lon="3.142085">
        <ele>66.417755</ele>
        <time>2018-08-15T13:18:12Z</time>
      </trkpt>
      <trkpt lat="42.474075" lon="3.142515">
        <ele>74.849968</ele>
        <time>2018-08-15T13:18:27Z</time>
      </trkpt>
      <trkpt lat="42.473815" lon="3.144554">
        <ele>78.831718</ele>
        <time>2018-08-15T13:18:43Z</time>
      </trkpt>
      <trkpt lat="42.473698" lon="3.146351">
        <ele>84.919174</ele>
        <time>2018-08-15T13:18:58Z</time>
      </trkpt>
      <trkpt lat="42.472540" lon="3.147719">
        <ele>93.792198</ele>
        <time>2018-08-15T13:19:14Z</time>
      </trkpt>
      <trkpt lat="42.471100" lon="3.148514">
        <ele>101.852966</ele>
        <time>2018-08-15T13:19:30Z</time>
      </trkpt>
      <trkpt lat="42.469945" lon="3.149191">
        <ele>109.350121</ele>
        <time>2018-08-15T13:19:45Z</time>
      </trkpt>
      <trkpt lat="42.468653" lon="3.150266">
        <ele>126.028992</ele>
        <time>2018-08-15T13:20:01Z</time>
      </trkpt>
      <trkpt lat="42.468206" lon="3.151858">
        <ele>129.824463</ele>
        <time>2018-08-15T13:20:17Z</time>
      </trkpt>
      <trkpt lat="42.468581" lon="3.153164">
        <ele>115.110947</ele>
        <time>2018-08-15T13:20:32Z</time>
      </trkpt>
      <trkpt lat="42.467784" lon="3.155046">
        <ele>113.288071</ele>
        <time>2018-08-15T13:20:48Z</time>
      </trkpt>
      <trkpt lat="42.467170" lon="3.155468">
        <ele>113.820076</ele>
        <time>2018-08-15T13:21:03Z</time>
      </trkpt>
      <trkpt lat="42.465949" lon="3.155552">
        <ele>106.647995</ele>
        <time>2018-08-15T13:21:19Z</time>
      </trkpt>
      <trkpt lat="42.465019" lon="3.154259">
        <ele>103.910896</ele>
        <time>2018-08-15T13:21:34Z</time>
      </trkpt>
      <trkpt lat="42.465240" lon="3.152371">
        <ele>101.913284</ele>
        <time>2018-08-15T13:21:49Z</time>
      </trkpt>
      <trkpt lat="42.465115" lon="3.151247">
        <ele>100.624161</ele>
        <time>2018-08-15T13:22:04Z</time>
      </trkpt>
      <trkpt lat="42.463624" lon="3.151310">
        <ele>83.354263</ele>
        <time>2018-08-15T13:22:20Z</time>
      </trkpt>
      <trkpt lat="42.462635" lon="3.149952">
        <ele>78.808838</ele>
        <time>2018-08-15T13:22:35Z</time>
      </trkpt>
      <trkpt lat="42.462009" lon="3.148841">
        <ele>82.364670</ele>
        <time>2018-08-15T13:22:51Z</time>
      </trkpt>
      <trkpt lat="42.461095" lon="3.149258">
        <ele>74.141853</ele>
        <time>2018-08-15T13:23:07Z</time>
      </trkpt>
      <trkpt lat="42.460367" lon="3.150047">
        <ele>55.208698</ele>
        <time>2018-08-15T13:23:23Z</time>
      </trkpt>
      <trkpt lat="42.460070" lon="3.147761">
        <ele>65.498505</ele>
        <time>2018-08-15T13:23:39Z</time>
      </trkpt>
      <trkpt lat="42.459414" lon="3.148152">
        <ele>65.968613</ele>
        <time>2018-08-15T13:23:55Z</time>
      </trkpt>
      <trkpt lat="42.458481" lon="3.148522">
        <ele>60.860687</ele>
        <time>2018-08-15T13:24:10Z</time>
      </trkpt>
      <trkpt lat="42.458209" lon="3.149905">
        <ele>58.134640</ele>
        <time>2018-08-15T13:24:25Z</time>
      </trkpt>
      <trkpt lat="42.458922" lon="3.151481">
        <ele>51.170666</ele>
        <time>2018-08-15T13:24:40Z</time>
      </trkpt>
      <trkpt lat="42.458934" lon="3.153903">
        <ele>42.909401</ele>
        <time>2018-08-15T13:24:56Z</time>
      </trkpt>
      <trkpt lat="42.457674" lon="3.153820">
        <ele>57.477905</ele>
        <time>2018-08-15T13:25:11Z</time>
      </trkpt>
      <trkpt lat="42.456513" lon="3.155316">
        <ele>53.874092</ele>
        <time>2018-08-15T13:25:27Z</time>
      </trkpt>
      <trkpt lat="42.456908" lon="3.156776">
        <ele>53.056404</ele>
        <time>2018-08-15T13:25:43Z</time>
      </trkpt>
      <trkpt lat="42.456600" lon="3.157551">
        <ele>51.743473</ele>
        <time>2018-08-15T13:25:58Z</time>
      </trkpt>
      <trkpt lat="42.455181" lon="3.158520">
        <ele>56.296093</ele>
        <time>2018-08-15T13:26:13Z</time>
      </trkpt>
      <trkpt lat="42.453371" lon="3.158793">
        <ele>53.608891</ele>
        <time>2018-08-15T13:26:28Z</time>
      </trkpt>
      <trkpt lat="42.451827" lon="3.157691">
        <ele>63.551537</ele>
        <time>2018-08-15T13:26:44Z</time>
      </trkpt>
      <trkpt lat="42.450965" lon="3.156800">
        <ele>66.923798</ele>
        <time>2018-08-15T13:27:00Z</time>
      </trkpt>
      <trkpt lat="42.449680" lon="3.157959">
        <ele>66.337173</ele>
        <time>2018-08-15T13:27:15Z</time>
      </trkpt>
      <trkpt lat="42.449211" lon="3.160068">
        <ele>58.172916</ele>
        <time>2018-08-15T13:27:30Z</time>
      </trkpt>
      <trkpt lat="42.448858" lon="3.161564">
        <ele>59.386818</ele>
        <time>2018-08-15T13:27:46Z</time>
      </trkpt>
      <trkpt lat="42.448388" lon="3.163597">
        <ele>54.788769</ele>
        <time>2018-08-15T13:28:02Z</time>
      </trkpt>
      <trkpt lat="42.447984" lon="3.165261">
        <ele>52.986069</ele>
        <time>2018-08-15T13:28:18Z</time>
      </trkpt>
      <trkpt lat="42.446621" lon="3.167077">
        <ele>48.070545</ele>
        <time>2018-08-15T13:28:34Z</time>
      </trkpt>
      <trkpt lat="42.445009" lon="3.167380">
        <ele>40.262897</ele>
        <time>2018-08-15T13:28:49Z</time>
      </trkpt>
      <trkpt lat="42.443599" lon="3.167961">
        <ele>17.403269</ele>
        <time>2018-08-15T13:29:05Z</time>
      </trkpt>
      <trkpt lat="42.442292" lon="3.166765">
        <ele>16.555737</ele>
        <time>2018-08-15T13:29:21Z</time>
      </trkpt>
      <trkpt lat="42.442239" lon="3.165731">
        <ele>12.916198</ele>
        <time>2018-08-15T13:29:37Z</time>
      </trkpt>
      <trkpt lat="42.441109" lon="3.165570">
        <ele>11.342523</ele>
        <time>2018-08-15T13:29:53Z</time>
      </trkpt>
      <trkpt lat="42.440190" lon="3.166312">
        <ele>22.737457</ele>
        <time>2018-08-15T13:30:09Z</time>
      </trkpt>
      <trkpt lat="42.440360" lon="3.167666">
        <ele>23.358374</ele>
        <time>2018-08-15T13:30:24Z</time>
      </trkpt>
      <trkpt lat="42.439670" lon="3.169044">
        <ele>28.413769</ele>
        <time>2018-08-15T13:30:39Z</time>
      </trkpt>
      <trkpt lat="42.439424" lon="3.169785">
        <ele>36.559082</ele>
        <time>2018-08-15T13:30:55Z</time>
      </trkpt>
      <trkpt lat="42.439700" lon="3.170827">
        <ele>36.900753</ele>
        <time>2018-08-15T13:31:11Z</time>
      </trkpt>
      <trkpt lat="42.439465" lon="3.172092">
        <ele>43.184654</ele>
        <time>2018-08-15T13:31:26Z</time>
      </trkpt>
      <trkpt lat="42.440369" lon="3.174091">
        <ele>41.760017</ele>
        <time>2018-08-15T13:31:42Z</time>
      </trkpt>
      <trkpt lat="42.440037" lon="3.174991">
        <ele>40.733353</ele>
        <time>2018-08-15T13:31:57Z</time>
      </trkpt>
      <trkpt lat="42.439442" lon="3.172789">
        <ele>50.570892</ele>
        <time>2018-08-15T13:32:13Z</time>
      </trkpt>
      <trkpt lat="42.438915" lon="3.171099">
        <ele>59.980293</ele>
        <time>2018-08-15T13:32:29Z</time>
      </trkpt>
      <trkpt lat="42.437690" lon="3.169710">
        <ele>83.850769</ele>
        <time>2018-08-15T13:32:45Z</time>
      </trkpt>
      <trkpt lat="42.438545" lon="3.168095">
        <ele>70.187981</ele>
        <time>2018-08-15T13:33:01Z</time>
      </trkpt>
      <trkpt lat="42.437081" lon="3.167045">
        <ele>107.829254</ele>
        <time>2018-08-15T13:33:17Z</time>
      </trkpt>
      <trkpt lat="42.438182" lon="3.165268">
        <ele>95.903076</ele>
        <time>2018-08-15T13:33:33Z</time>
      </trkpt>
      <trkpt lat="42.438385" lon="3.163050">
        <ele>103.196373</ele>
        <time>2018-08-15T13:33:49Z</time>
      </trkpt>
      <trkpt lat="42.437215" lon="3.161575">
        <ele>125.003113</ele>
        <time>2018-08-15T13:34:05Z</time>
      </trkpt>
      <trkpt lat="42.436225" lon="3.159912">
        <ele>132.671295</ele>
        <time>2018-08-15T13:34:20Z</time>
      </trkpt>
      <trkpt lat="42.435438" lon="3.157352">
        <ele>149.181747</ele>
        <time>2018-08-15T13:34:36Z</time>
      </trkpt>
      <trkpt lat="42.436164" lon="3.156350">
        <ele>163.795288</ele>
        <time>2018-08-15T13:34:51Z</time>
      </trkpt>
      <trkpt lat="42.434897" lon="3.157813">
        <ele>162.695496</ele>
        <time>2018-08-15T13:35:06Z</time>
      </trkpt>
      <trkpt lat="42.434964" lon="3.159572">
        <ele>161.710144</ele>
        <time>2018-08-15T13:35:22Z</time>
      </trkpt>
      <trkpt lat="42.434528" lon="3.161407">
        <ele>153.058472</ele>
        <time>2018-08-15T13:35:38Z</time>
      </trkpt>
      <trkpt lat="42.434422" lon="3.163690">
        <ele>143.695999</ele>
        <time>2018-08-15T13:35:53Z</time>
      </trkpt>
      <trkpt lat="42.434057" lon="3.165550">
        <ele>140.409821</ele>
        <time>2018-08-15T13:36:08Z</time>
      </trkpt>
      <trkpt lat="42.432647" lon="3.165841">
        <ele>116.060028</ele>
        <time>2018-08-15T13:36:24Z</time>
      </trkpt>
      <trkpt lat="42.431964" lon="3.166451">
        <ele>104.754921</ele>
        <time>2018-08-15T13:36:39Z</time>
      </trkpt>
      <trkpt lat="42.433208" lon="3.165438">
        <ele>112.138939</ele>
        <time>2018-08-15T13:36:54Z</time>
      </trkpt>
      <trkpt lat="42.433413" lon="3.163507">
        <ele>97.104774</ele>
        <time>2018-08-15T13:37:10Z</time>
      </trkpt>
      <trkpt lat="42.432422" lon="3.162463">
        <ele>79.565186</ele>
        <time>2018-08-15T13:37:25Z</time>
      </trkpt>
      <trkpt lat="42.432456" lon="3.160507">
        <ele>84.269989</ele>
        <time>2018-08-15T13:37:41Z</time>
      </trkpt>
      <trkpt lat="42.430848" lon="3.161484">
        <ele>60.927502</ele>
        <time>2018-08-15T13:37:56Z</time>
      </trkpt>
      <trkpt lat="42.429482" lon="3.160591">
        <ele>44.798355</ele>
        <time>2018-08-15T13:38:12Z</time>
      </trkpt>
      <trkpt lat="42.429850" lon="3.158806">
        <ele>53.439240</ele>
        <time>2018-08-15T13:38:28Z</time>
      </trkpt>
      <trkpt lat="42.428528" lon="3.159656">
        <ele>28.584324</ele>
        <time>2018-08-15T13:38:43Z</time>
      </trkpt>
      <trkpt lat="42.427675" lon="3.159201">
        <ele>16.421143</ele>
        <time>2018-08-15T13:38:58Z</time>
      </trkpt>
      <trkpt lat="42.427931" lon="3.158268">
        <ele>20.772785</ele>
        <time>2018-08-15T13:39:13Z</time>
      </trkpt>
      <trkpt lat="42.426947" lon="3.158784">
        <ele>13.980345</ele>
        <time>2018-08-15T13:39:28Z</time>
      </trkpt>
      <trkpt lat="42.426874" lon="3.160383">
        <ele>6.871464</ele>
        <time>2018-08-15T13:39:44Z</time>
      </trkpt>
      <trkpt lat="42.426141" lon="3.160207">
        <ele>10.496899</ele>
        <time>2018-08-15T13:39:59Z</time>
      </trkpt>
      <trkpt lat="42.425723" lon="3.160967">
        <ele>14.513018</ele>
        <time>2018-08-15T13:40:14Z</time>
      </trkpt>
      <trkpt lat="42.424853" lon="3.161869">
        <ele>24.644325</ele>
        <time>2018-08-15T13:40:30Z</time>
      </trkpt>
      <trkpt lat="42.425168" lon="3.160745">
        <ele>20.967768</ele>
        <time>2018-08-15T13:40:45Z</time>
      </trkpt>
      <trkpt lat="42.424207" lon="3.162126">
        <ele>37.190529</ele>
        <time>2018-08-15T13:41:00Z</time>
      </trkpt>
      <trkpt lat="42.425275" lon="3.162832">
        <ele>38.920998</ele>
        <time>2018-08-15T13:41:16Z</time>
      </trkpt>
      <trkpt lat="42.424946" lon="3.164643">
        <ele>52.993355</ele>
        <time>2018-08-15T13:41:32Z</time>
      </trkpt>
      <trkpt lat="42.423521" lon="3.163788">
        <ele>81.544884</ele>
        <time>2018-08-15T13:41:48Z</time>
      </trkpt>
      <trkpt lat="42.422595" lon="3.161069">
        <ele>91.287292</ele>
        <time>2018-08-15T13:42:03Z</time>
      </trkpt>
      <trkpt lat="42.418251" lon="3.160927">
        <ele>199.883163</ele>
        <time>2018-08-15T13:42:29Z</time>
      </trkpt>
      <trkpt lat="42.415343" lon="3.160226">
        <ele>92.255737</ele>
        <time>2018-08-15T13:42:45Z</time>
      </trkpt>
      <trkpt lat="42.413619" lon="3.158482">
        <ele>83.604713</ele>
        <time>2018-08-15T13:43:01Z</time>
      </trkpt>
      <trkpt lat="42.412631" lon="3.156316">
        <ele>79.876839</ele>
        <time>2018-08-15T13:43:17Z</time>
      </trkpt>
      <trkpt lat="42.412235" lon="3.153931">
        <ele>83.075256</ele>
        <time>2018-08-15T13:43:33Z</time>
      </trkpt>
      <trkpt lat="42.410964" lon="3.155369">
        <ele>57.781425</ele>
        <time>2018-08-15T13:43:48Z</time>
      </trkpt>
      <trkpt lat="42.409656" lon="3.152630">
        <ele>54.259407</ele>
        <time>2018-08-15T13:44:04Z</time>
      </trkpt>
      <trkpt lat="42.408360" lon="3.153861">
        <ele>40.983219</ele>
        <time>2018-08-15T13:44:20Z</time>
      </trkpt>
      <trkpt lat="42.407149" lon="3.152689">
        <ele>39.726986</ele>
        <time>2018-08-15T13:44:36Z</time>
      </trkpt>
      <trkpt lat="42.405469" lon="3.152652">
        <ele>32.744644</ele>
        <time>2018-08-15T13:44:51Z</time>
      </trkpt>
      <trkpt lat="42.404413" lon="3.149402">
        <ele>26.470469</ele>
        <time>2018-08-15T13:45:07Z</time>
      </trkpt>
      <trkpt lat="42.404733" lon="3.147458">
        <ele>25.296179</ele>
        <time>2018-08-15T13:45:22Z</time>
      </trkpt>
      <trkpt lat="42.403904" lon="3.145059">
        <ele>22.262241</ele>
        <time>2018-08-15T13:45:37Z</time>
      </trkpt>
      <trkpt lat="42.402318" lon="3.144517">
        <ele>18.224674</ele>
        <time>2018-08-15T13:45:52Z</time>
      </trkpt>
      <trkpt lat="42.401085" lon="3.143501">
        <ele>32.682068</ele>
        <time>2018-08-15T13:46:07Z</time>
      </trkpt>
      <trkpt lat="42.401224" lon="3.146232">
        <ele>44.481846</ele>
        <time>2018-08-15T13:46:22Z</time>
      </trkpt>
      <trkpt lat="42.400320" lon="3.148861">
        <ele>56.854431</ele>
        <time>2018-08-15T13:46:38Z</time>
      </trkpt>
      <trkpt lat="42.398859" lon="3.151016">
        <ele>64.765129</ele>
        <time>2018-08-15T13:46:53Z</time>
      </trkpt>
      <trkpt lat="42.397039" lon="3.152938">
        <ele>44.274551</ele>
        <time>2018-08-15T13:47:09Z</time>
      </trkpt>
      <trkpt lat="42.397680" lon="3.154387">
        <ele>39.101559</ele>
        <time>2018-08-15T13:47:24Z</time>
      </trkpt>
      <trkpt lat="42.396167" lon="3.153939">
        <ele>29.494858</ele>
        <time>2018-08-15T13:47:39Z</time>
      </trkpt>
      <trkpt lat="42.395422" lon="3.152690">
        <ele>13.107458</ele>
        <time>2018-08-15T13:47:55Z</time>
      </trkpt>
      <trkpt lat="42.394428" lon="3.151777">
        <ele>9.015840</ele>
        <time>2018-08-15T13:48:10Z</time>
      </trkpt>
      <trkpt lat="42.393632" lon="3.152226">
        <ele>5.956373</ele>
        <time>2018-08-15T13:48:26Z</time>
      </trkpt>
      <trkpt lat="42.393989" lon="3.152411">
        <ele>4.355560</ele>
        <time>2018-08-15T13:48:47Z</time>
      </trkpt>
      <trkpt lat="42.394138" lon="3.152451">
        <ele>4.294826</ele>
        <time>2018-08-15T13:49:25Z</time>
      </trkpt>
      <trkpt lat="42.394030" lon="3.152564">
        <ele>3.697917</ele>
        <time>2018-08-15T14:04:24Z</time>
      </trkpt>
      <trkpt lat="42.393913" lon="3.152667">
        <ele>3.513154</ele>
        <time>2018-08-15T14:05:00Z</time>
      </trkpt>
      <trkpt lat="42.394016" lon="3.152541">
        <ele>3.655270</ele>
        <time>2018-08-15T15:06:34Z</time>
      </trkpt>
      <trkpt lat="42.394128" lon="3.152433">
        <ele>4.412354</ele>
        <time>2018-08-15T15:07:04Z</time>
      </trkpt>
      <trkpt lat="42.393989" lon="3.152410">
        <ele>4.356618</ele>
        <time>2018-08-15T15:19:57Z</time>
      </trkpt>
      <trkpt lat="42.393835" lon="3.152353">
        <ele>4.681896</ele>
        <time>2018-08-15T15:20:16Z</time>
      </trkpt>
      <trkpt lat="42.393427" lon="3.151904">
        <ele>10.319783</ele>
        <time>2018-08-15T15:20:32Z</time>
      </trkpt>
      <trkpt lat="42.392101" lon="3.152012">
        <ele>17.125210</ele>
        <time>2018-08-15T15:20:47Z</time>
      </trkpt>
      <trkpt lat="42.390516" lon="3.153105">
        <ele>32.946556</ele>
        <time>2018-08-15T15:21:03Z</time>
      </trkpt>
      <trkpt lat="42.389650" lon="3.155720">
        <ele>34.989815</ele>
        <time>2018-08-15T15:21:19Z</time>
      </trkpt>
      <trkpt lat="42.388501" lon="3.158095">
        <ele>31.085676</ele>
        <time>2018-08-15T15:21:34Z</time>
      </trkpt>
      <trkpt lat="42.386607" lon="3.158403">
        <ele>22.385136</ele>
        <time>2018-08-15T15:21:50Z</time>
      </trkpt>
      <trkpt lat="42.385201" lon="3.157865">
        <ele>20.152166</ele>
        <time>2018-08-15T15:22:05Z</time>
      </trkpt>
      <trkpt lat="42.384181" lon="3.156369">
        <ele>20.501707</ele>
        <time>2018-08-15T15:22:21Z</time>
      </trkpt>
      <trkpt lat="42.382929" lon="3.157358">
        <ele>15.814671</ele>
        <time>2018-08-15T15:22:36Z</time>
      </trkpt>
      <trkpt lat="42.381902" lon="3.156033">
        <ele>11.396715</ele>
        <time>2018-08-15T15:22:52Z</time>
      </trkpt>
      <trkpt lat="42.381096" lon="3.154421">
        <ele>8.209030</ele>
        <time>2018-08-15T15:23:07Z</time>
      </trkpt>
      <trkpt lat="42.379018" lon="3.154693">
        <ele>12.799086</ele>
        <time>2018-08-15T15:23:23Z</time>
      </trkpt>
      <trkpt lat="42.377439" lon="3.156096">
        <ele>8.669215</ele>
        <time>2018-08-15T15:23:38Z</time>
      </trkpt>
      <trkpt lat="42.375218" lon="3.156322">
        <ele>6.282734</ele>
        <time>2018-08-15T15:23:54Z</time>
      </trkpt>
      <trkpt lat="42.373541" lon="3.156228">
        <ele>4.754073</ele>
        <time>2018-08-15T15:24:10Z</time>
      </trkpt>
      <trkpt lat="42.370901" lon="3.154888">
        <ele>2.494783</ele>
        <time>2018-08-15T15:24:26Z</time>
      </trkpt>
      <trkpt lat="42.368774" lon="3.152119">
        <ele>6.786757</ele>
        <time>2018-08-15T15:24:41Z</time>
      </trkpt>
      <trkpt lat="42.366660" lon="3.150919">
        <ele>9.575930</ele>
        <time>2018-08-15T15:24:56Z</time>
      </trkpt>
      <trkpt lat="42.366071" lon="3.150360">
        <ele>10.436638</ele>
        <time>2018-08-15T15:25:12Z</time>
      </trkpt>
      <trkpt lat="42.364722" lon="3.149264">
        <ele>6.155519</ele>
        <time>2018-08-15T15:25:28Z</time>
      </trkpt>
      <trkpt lat="42.363300" lon="3.147562">
        <ele>8.080017</ele>
        <time>2018-08-15T15:25:43Z</time>
      </trkpt>
      <trkpt lat="42.362063" lon="3.145238">
        <ele>9.388705</ele>
        <time>2018-08-15T15:25:59Z</time>
      </trkpt>
      <trkpt lat="42.360044" lon="3.143760">
        <ele>10.948042</ele>
        <time>2018-08-15T15:26:14Z</time>
      </trkpt>
      <trkpt lat="42.358477" lon="3.141198">
        <ele>11.745350</ele>
        <time>2018-08-15T15:26:30Z</time>
      </trkpt>
      <trkpt lat="42.356276" lon="3.140637">
        <ele>23.263163</ele>
        <time>2018-08-15T15:26:45Z</time>
      </trkpt>
      <trkpt lat="42.353747" lon="3.140109">
        <ele>26.578281</ele>
        <time>2018-08-15T15:27:01Z</time>
      </trkpt>
      <trkpt lat="42.352225" lon="3.138078">
        <ele>37.297359</ele>
        <time>2018-08-15T15:27:17Z</time>
      </trkpt>
      <trkpt lat="42.351998" lon="3.135150">
        <ele>55.082878</ele>
        <time>2018-08-15T15:27:32Z</time>
      </trkpt>
      <trkpt lat="42.349896" lon="3.132714">
        <ele>46.084808</ele>
        <time>2018-08-15T15:27:47Z</time>
      </trkpt>
      <trkpt lat="42.348722" lon="3.129196">
        <ele>44.656532</ele>
        <time>2018-08-15T15:28:02Z</time>
      </trkpt>
      <trkpt lat="42.348438" lon="3.125530">
        <ele>50.245361</ele>
        <time>2018-08-15T15:28:18Z</time>
      </trkpt>
      <trkpt lat="42.347957" lon="3.121773">
        <ele>52.624451</ele>
        <time>2018-08-15T15:28:33Z</time>
      </trkpt>
      <trkpt lat="42.348616" lon="3.117313">
        <ele>62.963966</ele>
        <time>2018-08-15T15:28:49Z</time>
      </trkpt>
      <trkpt lat="42.350745" lon="3.114054">
        <ele>65.394897</ele>
        <time>2018-08-15T15:29:05Z</time>
      </trkpt>
      <trkpt lat="42.352632" lon="3.110699">
        <ele>65.276924</ele>
        <time>2018-08-15T15:29:20Z</time>
      </trkpt>
      <trkpt lat="42.351783" lon="3.106208">
        <ele>80.556908</ele>
        <time>2018-08-15T15:29:36Z</time>
      </trkpt>
      <trkpt lat="42.350531" lon="3.101897">
        <ele>115.487366</ele>
        <time>2018-08-15T15:29:51Z</time>
      </trkpt>
      <trkpt lat="42.348817" lon="3.098987">
        <ele>119.638885</ele>
        <time>2018-08-15T15:30:06Z</time>
      </trkpt>
      <trkpt lat="42.346659" lon="3.095893">
        <ele>106.799110</ele>
        <time>2018-08-15T15:30:21Z</time>
      </trkpt>
      <trkpt lat="42.343982" lon="3.093730">
        <ele>110.754631</ele>
        <time>2018-08-15T15:30:37Z</time>
      </trkpt>
      <trkpt lat="42.341855" lon="3.091893">
        <ele>101.849945</ele>
        <time>2018-08-15T15:30:52Z</time>
      </trkpt>
      <trkpt lat="42.340699" lon="3.088543">
        <ele>84.585083</ele>
        <time>2018-08-15T15:31:08Z</time>
      </trkpt>
      <trkpt lat="42.338669" lon="3.087245">
        <ele>73.248032</ele>
        <time>2018-08-15T15:31:23Z</time>
      </trkpt>
      <trkpt lat="42.336664" lon="3.085347">
        <ele>59.649292</ele>
        <time>2018-08-15T15:31:38Z</time>
      </trkpt>
      <trkpt lat="42.334360" lon="3.082937">
        <ele>41.170906</ele>
        <time>2018-08-15T15:31:53Z</time>
      </trkpt>
      <trkpt lat="42.332043" lon="3.080523">
        <ele>34.705841</ele>
        <time>2018-08-15T15:32:09Z</time>
      </trkpt>
      <trkpt lat="42.329328" lon="3.077671">
        <ele>26.886007</ele>
        <time>2018-08-15T15:32:25Z</time>
      </trkpt>
      <trkpt lat="42.326749" lon="3.074959">
        <ele>22.960533</ele>
        <time>2018-08-15T15:32:41Z</time>
      </trkpt>
      <trkpt lat="42.323802" lon="3.071875">
        <ele>18.422010</ele>
        <time>2018-08-15T15:32:57Z</time>
      </trkpt>
      <trkpt lat="42.320818" lon="3.068759">
        <ele>17.961258</ele>
        <time>2018-08-15T15:33:12Z</time>
      </trkpt>
      <trkpt lat="42.317646" lon="3.065427">
        <ele>17.979996</ele>
        <time>2018-08-15T15:33:28Z</time>
      </trkpt>
      <trkpt lat="42.314773" lon="3.062435">
        <ele>27.528116</ele>
        <time>2018-08-15T15:33:43Z</time>
      </trkpt>
      <trkpt lat="42.311755" lon="3.059271">
        <ele>42.315636</ele>
        <time>2018-08-15T15:33:59Z</time>
      </trkpt>
      <trkpt lat="42.308848" lon="3.056022">
        <ele>40.618164</ele>
        <time>2018-08-15T15:34:15Z</time>
      </trkpt>
      <trkpt lat="42.306894" lon="3.052690">
        <ele>40.258713</ele>
        <time>2018-08-15T15:34:30Z</time>
      </trkpt>
      <trkpt lat="42.305189" lon="3.049448">
        <ele>33.488052</ele>
        <time>2018-08-15T15:34:45Z</time>
      </trkpt>
      <trkpt lat="42.303551" lon="3.046228">
        <ele>36.132378</ele>
        <time>2018-08-15T15:35:01Z</time>
      </trkpt>
      <trkpt lat="42.302030" lon="3.042929">
        <ele>34.647507</ele>
        <time>2018-08-15T15:35:16Z</time>
      </trkpt>
      <trkpt lat="42.300241" lon="3.039055">
        <ele>29.616798</ele>
        <time>2018-08-15T15:35:32Z</time>
      </trkpt>
      <trkpt lat="42.298459" lon="3.035148">
        <ele>21.711758</ele>
        <time>2018-08-15T15:35:48Z</time>
      </trkpt>
      <trkpt lat="42.297215" lon="3.031173">
        <ele>21.374794</ele>
        <time>2018-08-15T15:36:03Z</time>
      </trkpt>
      <trkpt lat="42.295686" lon="3.027791">
        <ele>20.651398</ele>
        <time>2018-08-15T15:36:18Z</time>
      </trkpt>
      <trkpt lat="42.293625" lon="3.024625">
        <ele>16.192511</ele>
        <time>2018-08-15T15:36:34Z</time>
      </trkpt>
      <trkpt lat="42.291800" lon="3.020733">
        <ele>16.679871</ele>
        <time>2018-08-15T15:36:50Z</time>
      </trkpt>
      <trkpt lat="42.289889" lon="3.016578">
        <ele>15.133148</ele>
        <time>2018-08-15T15:37:05Z</time>
      </trkpt>
      <trkpt lat="42.288014" lon="3.012548">
        <ele>16.662680</ele>
        <time>2018-08-15T15:37:21Z</time>
      </trkpt>
      <trkpt lat="42.286131" lon="3.008465">
        <ele>17.600101</ele>
        <time>2018-08-15T15:37:36Z</time>
      </trkpt>
      <trkpt lat="42.284055" lon="3.003949">
        <ele>16.034998</ele>
        <time>2018-08-15T15:37:52Z</time>
      </trkpt>
      <trkpt lat="42.282126" lon="2.999755">
        <ele>16.544191</ele>
        <time>2018-08-15T15:38:07Z</time>
      </trkpt>
      <trkpt lat="42.280019" lon="2.995195">
        <ele>15.982944</ele>
        <time>2018-08-15T15:38:23Z</time>
      </trkpt>
      <trkpt lat="42.278422" lon="2.991387">
        <ele>15.912864</ele>
        <time>2018-08-15T15:38:38Z</time>
      </trkpt>
      <trkpt lat="42.277602" lon="2.988314">
        <ele>14.921027</ele>
        <time>2018-08-15T15:38:53Z</time>
      </trkpt>
      <trkpt lat="42.276853" lon="2.986413">
        <ele>16.681856</ele>
        <time>2018-08-15T15:39:08Z</time>
      </trkpt>
      <trkpt lat="42.275790" lon="2.983711">
        <ele>18.574951</ele>
        <time>2018-08-15T15:39:24Z</time>
      </trkpt>
      <trkpt lat="42.274882" lon="2.980767">
        <ele>18.141602</ele>
        <time>2018-08-15T15:39:40Z</time>
      </trkpt>
      <trkpt lat="42.275565" lon="2.981911">
        <ele>19.416403</ele>
        <time>2018-08-15T15:39:56Z</time>
      </trkpt>
      <trkpt lat="42.273857" lon="2.984811">
        <ele>17.514442</ele>
        <time>2018-08-15T15:40:12Z</time>
      </trkpt>
      <trkpt lat="42.271374" lon="2.987095">
        <ele>17.315189</ele>
        <time>2018-08-15T15:40:27Z</time>
      </trkpt>
      <trkpt lat="42.268011" lon="2.988348">
        <ele>20.341419</ele>
        <time>2018-08-15T15:40:43Z</time>
      </trkpt>
      <trkpt lat="42.264580" lon="2.988020">
        <ele>18.691027</ele>
        <time>2018-08-15T15:40:58Z</time>
      </trkpt>
      <trkpt lat="42.260933" lon="2.986742">
        <ele>21.720850</ele>
        <time>2018-08-15T15:41:14Z</time>
      </trkpt>
      <trkpt lat="42.257639" lon="2.985754">
        <ele>22.015837</ele>
        <time>2018-08-15T15:41:29Z</time>
      </trkpt>
      <trkpt lat="42.254320" lon="2.985020">
        <ele>22.165228</ele>
        <time>2018-08-15T15:41:45Z</time>
      </trkpt>
      <trkpt lat="42.251100" lon="2.984529">
        <ele>24.370604</ele>
        <time>2018-08-15T15:42:00Z</time>
      </trkpt>
      <trkpt lat="42.248220" lon="2.984266">
        <ele>25.728745</ele>
        <time>2018-08-15T15:42:15Z</time>
      </trkpt>
      <trkpt lat="42.245242" lon="2.984121">
        <ele>26.709076</ele>
        <time>2018-08-15T15:42:30Z</time>
      </trkpt>
      <trkpt lat="42.242356" lon="2.983915">
        <ele>27.059618</ele>
        <time>2018-08-15T15:42:46Z</time>
      </trkpt>
      <trkpt lat="42.239476" lon="2.983192">
        <ele>25.395691</ele>
        <time>2018-08-15T15:43:02Z</time>
      </trkpt>
      <trkpt lat="42.236727" lon="2.981668">
        <ele>27.854614</ele>
        <time>2018-08-15T15:43:17Z</time>
      </trkpt>
      <trkpt lat="42.233979" lon="2.978983">
        <ele>30.532787</ele>
        <time>2018-08-15T15:43:33Z</time>
      </trkpt>
      <trkpt lat="42.231924" lon="2.975648">
        <ele>38.518990</ele>
        <time>2018-08-15T15:43:48Z</time>
      </trkpt>
      <trkpt lat="42.230525" lon="2.971975">
        <ele>43.629211</ele>
        <time>2018-08-15T15:44:03Z</time>
      </trkpt>
      <trkpt lat="42.229584" lon="2.968248">
        <ele>37.048702</ele>
        <time>2018-08-15T15:44:19Z</time>
      </trkpt>
      <trkpt lat="42.228612" lon="2.964109">
        <ele>39.000000</ele>
        <time>2018-08-15T15:44:35Z</time>
      </trkpt>
      <trkpt lat="42.227341" lon="2.959994">
        <ele>40.612427</ele>
        <time>2018-08-15T15:44:51Z</time>
      </trkpt>
      <trkpt lat="42.225880" lon="2.956034">
        <ele>45.335926</ele>
        <time>2018-08-15T15:45:07Z</time>
      </trkpt>
      <trkpt lat="42.225315" lon="2.953573">
        <ele>47.895832</ele>
        <time>2018-08-15T15:45:23Z</time>
      </trkpt>
      <trkpt lat="42.225576" lon="2.952426">
        <ele>47.549110</ele>
        <time>2018-08-15T15:45:38Z</time>
      </trkpt>
      <trkpt lat="42.226172" lon="2.949460">
        <ele>48.428650</ele>
        <time>2018-08-15T15:45:54Z</time>
      </trkpt>
      <trkpt lat="42.226645" lon="2.945695">
        <ele>51.056789</ele>
        <time>2018-08-15T15:46:10Z</time>
      </trkpt>
      <trkpt lat="42.226658" lon="2.943474">
        <ele>53.834732</ele>
        <time>2018-08-15T15:46:25Z</time>
      </trkpt>
      <trkpt lat="42.226644" lon="2.943084">
        <ele>53.700806</ele>
        <time>2018-08-15T15:46:41Z</time>
      </trkpt>
      <trkpt lat="42.226210" lon="2.940223">
        <ele>54.656708</ele>
        <time>2018-08-15T15:46:57Z</time>
      </trkpt>
      <trkpt lat="42.226335" lon="2.936876">
        <ele>53.649078</ele>
        <time>2018-08-15T15:47:12Z</time>
      </trkpt>
      <trkpt lat="42.226075" lon="2.938332">
        <ele>54.420433</ele>
        <time>2018-08-15T15:47:28Z</time>
      </trkpt>
      <trkpt lat="42.222652" lon="2.939426">
        <ele>58.381573</ele>
        <time>2018-08-15T15:47:43Z</time>
      </trkpt>
      <trkpt lat="42.218391" lon="2.940246">
        <ele>59.132324</ele>
        <time>2018-08-15T15:47:59Z</time>
      </trkpt>
      <trkpt lat="42.214093" lon="2.940201">
        <ele>65.131805</ele>
        <time>2018-08-15T15:48:14Z</time>
      </trkpt>
      <trkpt lat="42.209496" lon="2.939095">
        <ele>72.951935</ele>
        <time>2018-08-15T15:48:30Z</time>
      </trkpt>
      <trkpt lat="42.205083" lon="2.937096">
        <ele>91.382660</ele>
        <time>2018-08-15T15:48:46Z</time>
      </trkpt>
      <trkpt lat="42.200888" lon="2.934891">
        <ele>106.494102</ele>
        <time>2018-08-15T15:49:01Z</time>
      </trkpt>
      <trkpt lat="42.196291" lon="2.932968">
        <ele>109.974670</ele>
        <time>2018-08-15T15:49:17Z</time>
      </trkpt>
      <trkpt lat="42.191931" lon="2.932211">
        <ele>107.680527</ele>
        <time>2018-08-15T15:49:32Z</time>
      </trkpt>
      <trkpt lat="42.187587" lon="2.932565">
        <ele>100.591766</ele>
        <time>2018-08-15T15:49:47Z</time>
      </trkpt>
      <trkpt lat="42.183102" lon="2.933264">
        <ele>83.072388</ele>
        <time>2018-08-15T15:50:03Z</time>
      </trkpt>
      <trkpt lat="42.178527" lon="2.932961">
        <ele>67.704132</ele>
        <time>2018-08-15T15:50:19Z</time>
      </trkpt>
      <trkpt lat="42.175703" lon="2.931515">
        <ele>62.772934</ele>
        <time>2018-08-15T15:50:35Z</time>
      </trkpt>
      <trkpt lat="42.174650" lon="2.930835">
        <ele>63.156837</ele>
        <time>2018-08-15T15:50:50Z</time>
      </trkpt>
      <trkpt lat="42.174239" lon="2.930550">
        <ele>62.143318</ele>
        <time>2018-08-15T15:51:06Z</time>
      </trkpt>
      <trkpt lat="42.174501" lon="2.930840">
        <ele>62.787689</ele>
        <time>2018-08-15T15:51:25Z</time>
      </trkpt>
      <trkpt lat="42.174615" lon="2.930713">
        <ele>62.998928</ele>
        <time>2018-08-15T15:52:41Z</time>
      </trkpt>
      <trkpt lat="42.174480" lon="2.930695">
        <ele>62.689529</ele>
        <time>2018-08-15T15:53:03Z</time>
      </trkpt>
      <trkpt lat="42.174614" lon="2.930651">
        <ele>62.956879</ele>
        <time>2018-08-15T15:53:47Z</time>
      </trkpt>
      <trkpt lat="42.174747" lon="2.930681">
        <ele>63.266056</ele>
        <time>2018-08-15T15:54:31Z</time>
      </trkpt>
      <trkpt lat="42.174852" lon="2.930434">
        <ele>63.250732</ele>
        <time>2018-08-15T15:54:47Z</time>
      </trkpt>
      <trkpt lat="42.174977" lon="2.930246">
        <ele>63.258942</ele>
        <time>2018-08-15T15:55:03Z</time>
      </trkpt>
      <trkpt lat="42.174878" lon="2.930530">
        <ele>63.395611</ele>
        <time>2018-08-15T15:55:18Z</time>
      </trkpt>
      <trkpt lat="42.175033" lon="2.930362">
        <ele>63.439224</ele>
        <time>2018-08-15T15:56:23Z</time>
      </trkpt>
      <trkpt lat="42.174855" lon="2.930527">
        <ele>63.349205</ele>
        <time>2018-08-15T15:56:39Z</time>
      </trkpt>
      <trkpt lat="42.174830" lon="2.930731">
        <ele>63.494621</ele>
        <time>2018-08-15T15:56:55Z</time>
      </trkpt>
      <trkpt lat="42.174974" lon="2.930696">
        <ele>63.779091</ele>
        <time>2018-08-15T16:01:21Z</time>
      </trkpt>
      <trkpt lat="42.174811" lon="2.930764">
        <ele>63.480621</ele>
        <time>2018-08-15T16:02:55Z</time>
      </trkpt>
      <trkpt lat="42.174739" lon="2.930924">
        <ele>63.116215</ele>
        <time>2018-08-15T16:13:15Z</time>
      </trkpt>
      <trkpt lat="42.174797" lon="2.930734">
        <ele>63.422054</ele>
        <time>2018-08-15T16:14:50Z</time>
      </trkpt>
      <trkpt lat="42.174931" lon="2.930696">
        <ele>63.683064</ele>
        <time>2018-08-15T16:34:45Z</time>
      </trkpt>
      <trkpt lat="42.174857" lon="2.930407">
        <ele>63.233482</ele>
        <time>2018-08-15T16:35:01Z</time>
      </trkpt>
      <trkpt lat="42.174829" lon="2.930225">
        <ele>63.009102</ele>
        <time>2018-08-15T16:44:35Z</time>
      </trkpt>
      <trkpt lat="42.174647" lon="2.930711">
        <ele>63.067165</ele>
        <time>2018-08-15T16:44:50Z</time>
      </trkpt>
      <trkpt lat="42.174686" lon="2.930534">
        <ele>63.021610</ele>
        <time>2018-08-15T16:45:13Z</time>
      </trkpt>
      <trkpt lat="42.174568" lon="2.930636">
        <ele>62.848343</ele>
        <time>2018-08-15T16:55:34Z</time>
      </trkpt>
      <trkpt lat="42.174483" lon="2.930778">
        <ele>62.733681</ele>
        <time>2018-08-15T16:55:51Z</time>
      </trkpt>
      <trkpt lat="42.174311" lon="2.930711">
        <ele>62.320099</ele>
        <time>2018-08-15T16:58:49Z</time>
      </trkpt>
      <trkpt lat="42.173582" lon="2.930382">
        <ele>59.837410</ele>
        <time>2018-08-15T16:59:04Z</time>
      </trkpt>
      <trkpt lat="42.172354" lon="2.929769">
        <ele>56.090530</ele>
        <time>2018-08-15T16:59:20Z</time>
      </trkpt>
      <trkpt lat="42.169535" lon="2.927039">
        <ele>52.849354</ele>
        <time>2018-08-15T16:59:35Z</time>
      </trkpt>
      <trkpt lat="42.166189" lon="2.922960">
        <ele>46.127350</ele>
        <time>2018-08-15T16:59:50Z</time>
      </trkpt>
      <trkpt lat="42.162441" lon="2.918996">
        <ele>49.675930</ele>
        <time>2018-08-15T17:00:05Z</time>
      </trkpt>
      <trkpt lat="42.157695" lon="2.916736">
        <ele>65.843117</ele>
        <time>2018-08-15T17:00:21Z</time>
      </trkpt>
      <trkpt lat="42.152695" lon="2.917069">
        <ele>76.781799</ele>
        <time>2018-08-15T17:00:37Z</time>
      </trkpt>
      <trkpt lat="42.148130" lon="2.918379">
        <ele>87.353867</ele>
        <time>2018-08-15T17:00:52Z</time>
      </trkpt>
      <trkpt lat="42.143111" lon="2.918724">
        <ele>109.083328</ele>
        <time>2018-08-15T17:01:08Z</time>
      </trkpt>
      <trkpt lat="42.138612" lon="2.917531">
        <ele>124.667114</ele>
        <time>2018-08-15T17:01:23Z</time>
      </trkpt>
      <trkpt lat="42.134080" lon="2.914974">
        <ele>145.513367</ele>
        <time>2018-08-15T17:01:39Z</time>
      </trkpt>
      <trkpt lat="42.129618" lon="2.912770">
        <ele>145.742645</ele>
        <time>2018-08-15T17:01:54Z</time>
      </trkpt>
      <trkpt lat="42.124692" lon="2.911698">
        <ele>140.658035</ele>
        <time>2018-08-15T17:02:10Z</time>
      </trkpt>
      <trkpt lat="42.119927" lon="2.911973">
        <ele>128.805466</ele>
        <time>2018-08-15T17:02:25Z</time>
      </trkpt>
      <trkpt lat="42.114955" lon="2.912930">
        <ele>111.413834</ele>
        <time>2018-08-15T17:02:41Z</time>
      </trkpt>
      <trkpt lat="42.109814" lon="2.912282">
        <ele>98.994537</ele>
        <time>2018-08-15T17:02:57Z</time>
      </trkpt>
      <trkpt lat="42.105544" lon="2.909245">
        <ele>86.485756</ele>
        <time>2018-08-15T17:03:12Z</time>
      </trkpt>
      <trkpt lat="42.101952" lon="2.904144">
        <ele>84.700043</ele>
        <time>2018-08-15T17:03:28Z</time>
      </trkpt>
      <trkpt lat="42.098764" lon="2.899408">
        <ele>109.405502</ele>
        <time>2018-08-15T17:03:43Z</time>
      </trkpt>
      <trkpt lat="42.094697" lon="2.895208">
        <ele>131.293579</ele>
        <time>2018-08-15T17:03:59Z</time>
      </trkpt>
      <trkpt lat="42.090409" lon="2.892259">
        <ele>133.397476</ele>
        <time>2018-08-15T17:04:14Z</time>
      </trkpt>
      <trkpt lat="42.085467" lon="2.890129">
        <ele>119.824356</ele>
        <time>2018-08-15T17:04:30Z</time>
      </trkpt>
      <trkpt lat="42.080740" lon="2.889721">
        <ele>113.802856</ele>
        <time>2018-08-15T17:04:45Z</time>
      </trkpt>
      <trkpt lat="42.076102" lon="2.888590">
        <ele>103.129944</ele>
        <time>2018-08-15T17:05:00Z</time>
      </trkpt>
      <trkpt lat="42.071279" lon="2.886785">
        <ele>94.155609</ele>
        <time>2018-08-15T17:05:16Z</time>
      </trkpt>
      <trkpt lat="42.066362" lon="2.886360">
        <ele>85.661621</ele>
        <time>2018-08-15T17:05:32Z</time>
      </trkpt>
      <trkpt lat="42.061683" lon="2.885033">
        <ele>68.784592</ele>
        <time>2018-08-15T17:05:47Z</time>
      </trkpt>
      <trkpt lat="42.057087" lon="2.882150">
        <ele>64.441750</ele>
        <time>2018-08-15T17:06:03Z</time>
      </trkpt>
      <trkpt lat="42.053067" lon="2.877959">
        <ele>46.499153</ele>
        <time>2018-08-15T17:06:19Z</time>
      </trkpt>
      <trkpt lat="42.049616" lon="2.873374">
        <ele>46.362236</ele>
        <time>2018-08-15T17:06:34Z</time>
      </trkpt>
      <trkpt lat="42.046307" lon="2.868074">
        <ele>49.690979</ele>
        <time>2018-08-15T17:06:50Z</time>
      </trkpt>
      <trkpt lat="42.044157" lon="2.862522">
        <ele>49.014713</ele>
        <time>2018-08-15T17:07:05Z</time>
      </trkpt>
      <trkpt lat="42.043549" lon="2.856081">
        <ele>62.076942</ele>
        <time>2018-08-15T17:07:20Z</time>
      </trkpt>
      <trkpt lat="42.043794" lon="2.849240">
        <ele>67.105270</ele>
        <time>2018-08-15T17:07:36Z</time>
      </trkpt>
      <trkpt lat="42.042640" lon="2.843243">
        <ele>107.489532</ele>
        <time>2018-08-15T17:07:51Z</time>
      </trkpt>
      <trkpt lat="42.038580" lon="2.839095">
        <ele>114.644669</ele>
        <time>2018-08-15T17:08:07Z</time>
      </trkpt>
      <trkpt lat="42.034384" lon="2.835947">
        <ele>107.165512</ele>
        <time>2018-08-15T17:08:22Z</time>
      </trkpt>
      <trkpt lat="42.030774" lon="2.831098">
        <ele>84.679138</ele>
        <time>2018-08-15T17:08:38Z</time>
      </trkpt>
      <trkpt lat="42.028062" lon="2.825221">
        <ele>73.423210</ele>
        <time>2018-08-15T17:08:54Z</time>
      </trkpt>
      <trkpt lat="42.025216" lon="2.820202">
        <ele>70.019112</ele>
        <time>2018-08-15T17:09:09Z</time>
      </trkpt>
      <trkpt lat="42.021329" lon="2.816439">
        <ele>70.729645</ele>
        <time>2018-08-15T17:09:25Z</time>
      </trkpt>
      <trkpt lat="42.017210" lon="2.814225">
        <ele>87.954323</ele>
        <time>2018-08-15T17:09:40Z</time>
      </trkpt>
      <trkpt lat="42.012643" lon="2.811464">
        <ele>89.640251</ele>
        <time>2018-08-15T17:09:56Z</time>
      </trkpt>
      <trkpt lat="42.008245" lon="2.808422">
        <ele>77.080849</ele>
        <time>2018-08-15T17:10:12Z</time>
      </trkpt>
      <trkpt lat="42.003675" lon="2.805964">
        <ele>110.991348</ele>
        <time>2018-08-15T17:10:28Z</time>
      </trkpt>
      <trkpt lat="41.999777" lon="2.802221">
        <ele>94.663605</ele>
        <time>2018-08-15T17:10:43Z</time>
      </trkpt>
      <trkpt lat="41.996216" lon="2.797414">
        <ele>92.588089</ele>
        <time>2018-08-15T17:10:59Z</time>
      </trkpt>
      <trkpt lat="41.993216" lon="2.792729">
        <ele>95.048386</ele>
        <time>2018-08-15T17:11:14Z</time>
      </trkpt>
      <trkpt lat="41.989873" lon="2.787937">
        <ele>88.000000</ele>
        <time>2018-08-15T17:11:30Z</time>
      </trkpt>
      <trkpt lat="41.986290" lon="2.784126">
        <ele>85.049011</ele>
        <time>2018-08-15T17:11:45Z</time>
      </trkpt>
      <trkpt lat="41.982082" lon="2.781040">
        <ele>83.749084</ele>
        <time>2018-08-15T17:12:01Z</time>
      </trkpt>
      <trkpt lat="41.977536" lon="2.778959">
        <ele>86.196732</ele>
        <time>2018-08-15T17:12:17Z</time>
      </trkpt>
      <trkpt lat="41.972763" lon="2.778121">
        <ele>91.703224</ele>
        <time>2018-08-15T17:12:33Z</time>
      </trkpt>
      <trkpt lat="41.968213" lon="2.778597">
        <ele>91.115845</ele>
        <time>2018-08-15T17:12:48Z</time>
      </trkpt>
      <trkpt lat="41.963799" lon="2.780388">
        <ele>92.833801</ele>
        <time>2018-08-15T17:13:03Z</time>
      </trkpt>
      <trkpt lat="41.959635" lon="2.783079">
        <ele>97.874756</ele>
        <time>2018-08-15T17:13:18Z</time>
      </trkpt>
      <trkpt lat="41.955198" lon="2.785661">
        <ele>97.731445</ele>
        <time>2018-08-15T17:13:34Z</time>
      </trkpt>
      <trkpt lat="41.950551" lon="2.787538">
        <ele>102.384644</ele>
        <time>2018-08-15T17:13:50Z</time>
      </trkpt>
      <trkpt lat="41.945739" lon="2.788506">
        <ele>106.788177</ele>
        <time>2018-08-15T17:14:06Z</time>
      </trkpt>
      <trkpt lat="41.941040" lon="2.788618">
        <ele>113.410645</ele>
        <time>2018-08-15T17:14:21Z</time>
      </trkpt>
      <trkpt lat="41.936118" lon="2.787575">
        <ele>120.569855</ele>
        <time>2018-08-15T17:14:37Z</time>
      </trkpt>
      <trkpt lat="41.931694" lon="2.785506">
        <ele>119.012878</ele>
        <time>2018-08-15T17:14:52Z</time>
      </trkpt>
      <trkpt lat="41.927203" lon="2.782081">
        <ele>125.531288</ele>
        <time>2018-08-15T17:15:08Z</time>
      </trkpt>
      <trkpt lat="41.923171" lon="2.777840">
        <ele>130.855209</ele>
        <time>2018-08-15T17:15:24Z</time>
      </trkpt>
      <trkpt lat="41.918971" lon="2.774983">
        <ele>130.273865</ele>
        <time>2018-08-15T17:15:39Z</time>
      </trkpt>
      <trkpt lat="41.914056" lon="2.773749">
        <ele>126.400612</ele>
        <time>2018-08-15T17:15:55Z</time>
      </trkpt>
      <trkpt lat="41.909425" lon="2.772773">
        <ele>135.916107</ele>
        <time>2018-08-15T17:16:10Z</time>
      </trkpt>
      <trkpt lat="41.904858" lon="2.772935">
        <ele>138.785812</ele>
        <time>2018-08-15T17:16:25Z</time>
      </trkpt>
      <trkpt lat="41.899953" lon="2.774355">
        <ele>129.039185</ele>
        <time>2018-08-15T17:16:41Z</time>
      </trkpt>
      <trkpt lat="41.895222" lon="2.774925">
        <ele>111.953728</ele>
        <time>2018-08-15T17:16:56Z</time>
      </trkpt>
      <trkpt lat="41.890168" lon="2.774286">
        <ele>114.086502</ele>
        <time>2018-08-15T17:17:12Z</time>
      </trkpt>
      <trkpt lat="41.885217" lon="2.772427">
        <ele>108.348511</ele>
        <time>2018-08-15T17:17:28Z</time>
      </trkpt>
      <trkpt lat="41.880820" lon="2.769435">
        <ele>110.281036</ele>
        <time>2018-08-15T17:17:44Z</time>
      </trkpt>
      <trkpt lat="41.877052" lon="2.765635">
        <ele>113.820068</ele>
        <time>2018-08-15T17:17:59Z</time>
      </trkpt>
      <trkpt lat="41.873238" lon="2.761190">
        <ele>116.130409</ele>
        <time>2018-08-15T17:18:15Z</time>
      </trkpt>
      <trkpt lat="41.869330" lon="2.757671">
        <ele>124.627319</ele>
        <time>2018-08-15T17:18:30Z</time>
      </trkpt>
      <trkpt lat="41.864251" lon="2.755238">
        <ele>123.543900</ele>
        <time>2018-08-15T17:18:46Z</time>
      </trkpt>
      <trkpt lat="41.859553" lon="2.753752">
        <ele>120.576569</ele>
        <time>2018-08-15T17:19:01Z</time>
      </trkpt>
      <trkpt lat="41.854773" lon="2.751424">
        <ele>106.853149</ele>
        <time>2018-08-15T17:19:17Z</time>
      </trkpt>
      <trkpt lat="41.850343" lon="2.749270">
        <ele>107.255859</ele>
        <time>2018-08-15T17:19:32Z</time>
      </trkpt>
      <trkpt lat="41.845090" lon="2.748050">
        <ele>98.021362</ele>
        <time>2018-08-15T17:19:48Z</time>
      </trkpt>
      <trkpt lat="41.839885" lon="2.748177">
        <ele>90.727760</ele>
        <time>2018-08-15T17:20:04Z</time>
      </trkpt>
      <trkpt lat="41.834871" lon="2.749310">
        <ele>82.801231</ele>
        <time>2018-08-15T17:20:20Z</time>
      </trkpt>
      <trkpt lat="41.829720" lon="2.748971">
        <ele>89.569328</ele>
        <time>2018-08-15T17:20:36Z</time>
      </trkpt>
      <trkpt lat="41.824979" lon="2.746681">
        <ele>83.008865</ele>
        <time>2018-08-15T17:20:52Z</time>
      </trkpt>
      <trkpt lat="41.820319" lon="2.745690">
        <ele>76.974380</ele>
        <time>2018-08-15T17:21:07Z</time>
      </trkpt>
      <trkpt lat="41.815277" lon="2.746493">
        <ele>75.123718</ele>
        <time>2018-08-15T17:21:23Z</time>
      </trkpt>
      <trkpt lat="41.810686" lon="2.748230">
        <ele>82.806892</ele>
        <time>2018-08-15T17:21:38Z</time>
      </trkpt>
      <trkpt lat="41.805528" lon="2.748742">
        <ele>75.071495</ele>
        <time>2018-08-15T17:21:54Z</time>
      </trkpt>
      <trkpt lat="41.800516" lon="2.747400">
        <ele>75.525650</ele>
        <time>2018-08-15T17:22:10Z</time>
      </trkpt>
      <trkpt lat="41.795711" lon="2.746235">
        <ele>73.473007</ele>
        <time>2018-08-15T17:22:25Z</time>
      </trkpt>
      <trkpt lat="41.790649" lon="2.745678">
        <ele>76.432556</ele>
        <time>2018-08-15T17:22:41Z</time>
      </trkpt>
      <trkpt lat="41.786028" lon="2.744837">
        <ele>79.351791</ele>
        <time>2018-08-15T17:22:56Z</time>
      </trkpt>
      <trkpt lat="41.781046" lon="2.743374">
        <ele>79.842964</ele>
        <time>2018-08-15T17:23:12Z</time>
      </trkpt>
      <trkpt lat="41.776560" lon="2.741462">
        <ele>86.049164</ele>
        <time>2018-08-15T17:23:27Z</time>
      </trkpt>
      <trkpt lat="41.772057" lon="2.738746">
        <ele>84.777542</ele>
        <time>2018-08-15T17:23:43Z</time>
      </trkpt>
      <trkpt lat="41.768087" lon="2.734934">
        <ele>94.427032</ele>
        <time>2018-08-15T17:23:59Z</time>
      </trkpt>
      <trkpt lat="41.765048" lon="2.730564">
        <ele>113.563789</ele>
        <time>2018-08-15T17:24:14Z</time>
      </trkpt>
      <trkpt lat="41.762514" lon="2.724855">
        <ele>115.153481</ele>
        <time>2018-08-15T17:24:30Z</time>
      </trkpt>
      <trkpt lat="41.760450" lon="2.718778">
        <ele>105.319244</ele>
        <time>2018-08-15T17:24:46Z</time>
      </trkpt>
      <trkpt lat="41.757791" lon="2.713583">
        <ele>79.220406</ele>
        <time>2018-08-15T17:25:01Z</time>
      </trkpt>
      <trkpt lat="41.753870" lon="2.709458">
        <ele>75.437996</ele>
        <time>2018-08-15T17:25:17Z</time>
      </trkpt>
      <trkpt lat="41.750756" lon="2.704337">
        <ele>68.408905</ele>
        <time>2018-08-15T17:25:34Z</time>
      </trkpt>
      <trkpt lat="41.748208" lon="2.698405">
        <ele>61.329815</ele>
        <time>2018-08-15T17:25:49Z</time>
      </trkpt>
      <trkpt lat="41.746704" lon="2.692332">
        <ele>48.788960</ele>
        <time>2018-08-15T17:26:04Z</time>
      </trkpt>
      <trkpt lat="41.745950" lon="2.685580">
        <ele>55.726807</ele>
        <time>2018-08-15T17:26:20Z</time>
      </trkpt>
      <trkpt lat="41.744190" lon="2.679158">
        <ele>55.401001</ele>
        <time>2018-08-15T17:26:36Z</time>
      </trkpt>
      <trkpt lat="41.742209" lon="2.673364">
        <ele>47.985252</ele>
        <time>2018-08-15T17:26:51Z</time>
      </trkpt>
      <trkpt lat="41.740439" lon="2.667026">
        <ele>55.534981</ele>
        <time>2018-08-15T17:27:07Z</time>
      </trkpt>
      <trkpt lat="41.740591" lon="2.660114">
        <ele>52.766617</ele>
        <time>2018-08-15T17:27:23Z</time>
      </trkpt>
      <trkpt lat="41.741859" lon="2.653962">
        <ele>55.434750</ele>
        <time>2018-08-15T17:27:38Z</time>
      </trkpt>
      <trkpt lat="41.742098" lon="2.647897">
        <ele>57.246452</ele>
        <time>2018-08-15T17:27:53Z</time>
      </trkpt>
      <trkpt lat="41.739623" lon="2.642576">
        <ele>64.347710</ele>
        <time>2018-08-15T17:28:09Z</time>
      </trkpt>
      <trkpt lat="41.735341" lon="2.639493">
        <ele>65.080536</ele>
        <time>2018-08-15T17:28:25Z</time>
      </trkpt>
      <trkpt lat="41.731608" lon="2.635250">
        <ele>65.276558</ele>
        <time>2018-08-15T17:28:41Z</time>
      </trkpt>
      <trkpt lat="41.729633" lon="2.629526">
        <ele>68.512337</ele>
        <time>2018-08-15T17:28:56Z</time>
      </trkpt>
      <trkpt lat="41.729388" lon="2.622775">
        <ele>71.353157</ele>
        <time>2018-08-15T17:29:12Z</time>
      </trkpt>
      <trkpt lat="41.729259" lon="2.616053">
        <ele>71.165291</ele>
        <time>2018-08-15T17:29:28Z</time>
      </trkpt>
      <trkpt lat="41.728310" lon="2.609651">
        <ele>73.087814</ele>
        <time>2018-08-15T17:29:44Z</time>
      </trkpt>
      <trkpt lat="41.726826" lon="2.603803">
        <ele>78.636490</ele>
        <time>2018-08-15T17:29:59Z</time>
      </trkpt>
      <trkpt lat="41.726024" lon="2.597450">
        <ele>76.918564</ele>
        <time>2018-08-15T17:30:15Z</time>
      </trkpt>
      <trkpt lat="41.726172" lon="2.594033">
        <ele>77.943207</ele>
        <time>2018-08-15T17:30:31Z</time>
      </trkpt>
      <trkpt lat="41.726143" lon="2.593848">
        <ele>78.003784</ele>
        <time>2018-08-15T17:30:56Z</time>
      </trkpt>
      <trkpt lat="41.726163" lon="2.593623">
        <ele>77.448303</ele>
        <time>2018-08-15T17:34:16Z</time>
      </trkpt>
      <trkpt lat="41.725948" lon="2.591220">
        <ele>76.902344</ele>
        <time>2018-08-15T17:34:32Z</time>
      </trkpt>
      <trkpt lat="41.725493" lon="2.586449">
        <ele>76.911903</ele>
        <time>2018-08-15T17:34:47Z</time>
      </trkpt>
      <trkpt lat="41.724242" lon="2.580532">
        <ele>80.333038</ele>
        <time>2018-08-15T17:35:03Z</time>
      </trkpt>
      <trkpt lat="41.722176" lon="2.574788">
        <ele>82.709625</ele>
        <time>2018-08-15T17:35:19Z</time>
      </trkpt>
      <trkpt lat="41.719675" lon="2.569442">
        <ele>85.648193</ele>
        <time>2018-08-15T17:35:34Z</time>
      </trkpt>
      <trkpt lat="41.717078" lon="2.563848">
        <ele>91.103455</ele>
        <time>2018-08-15T17:35:49Z</time>
      </trkpt>
      <trkpt lat="41.715027" lon="2.557597">
        <ele>98.674850</ele>
        <time>2018-08-15T17:36:05Z</time>
      </trkpt>
      <trkpt lat="41.713913" lon="2.551621">
        <ele>96.347672</ele>
        <time>2018-08-15T17:36:20Z</time>
      </trkpt>
      <trkpt lat="41.713261" lon="2.545286">
        <ele>103.234283</ele>
        <time>2018-08-15T17:36:36Z</time>
      </trkpt>
      <trkpt lat="41.712240" lon="2.539384">
        <ele>101.651810</ele>
        <time>2018-08-15T17:36:51Z</time>
      </trkpt>
      <trkpt lat="41.709865" lon="2.534116">
        <ele>102.283714</ele>
        <time>2018-08-15T17:37:06Z</time>
      </trkpt>
      <trkpt lat="41.706776" lon="2.528788">
        <ele>116.997597</ele>
        <time>2018-08-15T17:37:22Z</time>
      </trkpt>
      <trkpt lat="41.704521" lon="2.523191">
        <ele>111.455315</ele>
        <time>2018-08-15T17:37:37Z</time>
      </trkpt>
      <trkpt lat="41.701658" lon="2.518267">
        <ele>114.781479</ele>
        <time>2018-08-15T17:37:52Z</time>
      </trkpt>
      <trkpt lat="41.698094" lon="2.514603">
        <ele>116.956360</ele>
        <time>2018-08-15T17:38:07Z</time>
      </trkpt>
      <trkpt lat="41.693929" lon="2.511204">
        <ele>128.468201</ele>
        <time>2018-08-15T17:38:23Z</time>
      </trkpt>
      <trkpt lat="41.690832" lon="2.506048">
        <ele>131.589645</ele>
        <time>2018-08-15T17:38:39Z</time>
      </trkpt>
      <trkpt lat="41.687396" lon="2.501388">
        <ele>132.165314</ele>
        <time>2018-08-15T17:38:55Z</time>
      </trkpt>
      <trkpt lat="41.684146" lon="2.496479">
        <ele>143.896927</ele>
        <time>2018-08-15T17:39:11Z</time>
      </trkpt>
      <trkpt lat="41.681363" lon="2.491283">
        <ele>144.095764</ele>
        <time>2018-08-15T17:39:26Z</time>
      </trkpt>
      <trkpt lat="41.677207" lon="2.487397">
        <ele>148.705536</ele>
        <time>2018-08-15T17:39:42Z</time>
      </trkpt>
      <trkpt lat="41.673933" lon="2.482965">
        <ele>154.533539</ele>
        <time>2018-08-15T17:39:57Z</time>
      </trkpt>
      <trkpt lat="41.671235" lon="2.477301">
        <ele>156.744171</ele>
        <time>2018-08-15T17:40:13Z</time>
      </trkpt>
      <trkpt lat="41.668476" lon="2.472174">
        <ele>163.076035</ele>
        <time>2018-08-15T17:40:28Z</time>
      </trkpt>
      <trkpt lat="41.664862" lon="2.467428">
        <ele>170.839798</ele>
        <time>2018-08-15T17:40:44Z</time>
      </trkpt>
      <trkpt lat="41.661692" lon="2.462668">
        <ele>173.961151</ele>
        <time>2018-08-15T17:40:59Z</time>
      </trkpt>
      <trkpt lat="41.660004" lon="2.456563">
        <ele>182.886353</ele>
        <time>2018-08-15T17:41:14Z</time>
      </trkpt>
      <trkpt lat="41.657549" lon="2.451105">
        <ele>193.855270</ele>
        <time>2018-08-15T17:41:29Z</time>
      </trkpt>
      <trkpt lat="41.653901" lon="2.446692">
        <ele>206.482391</ele>
        <time>2018-08-15T17:41:45Z</time>
      </trkpt>
      <trkpt lat="41.650965" lon="2.441294">
        <ele>220.087311</ele>
        <time>2018-08-15T17:42:01Z</time>
      </trkpt>
      <trkpt lat="41.649381" lon="2.435433">
        <ele>209.653503</ele>
        <time>2018-08-15T17:42:16Z</time>
      </trkpt>
      <trkpt lat="41.648232" lon="2.429035">
        <ele>208.739914</ele>
        <time>2018-08-15T17:42:32Z</time>
      </trkpt>
      <trkpt lat="41.646740" lon="2.423075">
        <ele>198.598846</ele>
        <time>2018-08-15T17:42:47Z</time>
      </trkpt>
      <trkpt lat="41.643885" lon="2.417795">
        <ele>190.955750</ele>
        <time>2018-08-15T17:43:03Z</time>
      </trkpt>
      <trkpt lat="41.640551" lon="2.413554">
        <ele>187.571762</ele>
        <time>2018-08-15T17:43:18Z</time>
      </trkpt>
      <trkpt lat="41.638103" lon="2.408492">
        <ele>184.105392</ele>
        <time>2018-08-15T17:43:33Z</time>
      </trkpt>
      <trkpt lat="41.635389" lon="2.403133">
        <ele>183.429260</ele>
        <time>2018-08-15T17:43:49Z</time>
      </trkpt>
      <trkpt lat="41.632822" lon="2.397648">
        <ele>183.864075</ele>
        <time>2018-08-15T17:44:05Z</time>
      </trkpt>
      <trkpt lat="41.632204" lon="2.391541">
        <ele>172.751785</ele>
        <time>2018-08-15T17:44:20Z</time>
      </trkpt>
      <trkpt lat="41.630968" lon="2.385390">
        <ele>167.962463</ele>
        <time>2018-08-15T17:44:35Z</time>
      </trkpt>
      <trkpt lat="41.628028" lon="2.380389">
        <ele>166.778061</ele>
        <time>2018-08-15T17:44:50Z</time>
      </trkpt>
      <trkpt lat="41.625780" lon="2.374754">
        <ele>164.137543</ele>
        <time>2018-08-15T17:45:05Z</time>
      </trkpt>
      <trkpt lat="41.624896" lon="2.368178">
        <ele>168.720032</ele>
        <time>2018-08-15T17:45:21Z</time>
      </trkpt>
      <trkpt lat="41.623253" lon="2.361950">
        <ele>170.242523</ele>
        <time>2018-08-15T17:45:37Z</time>
      </trkpt>
      <trkpt lat="41.619718" lon="2.357395">
        <ele>168.738403</ele>
        <time>2018-08-15T17:45:53Z</time>
      </trkpt>
      <trkpt lat="41.616713" lon="2.352117">
        <ele>157.676239</ele>
        <time>2018-08-15T17:46:09Z</time>
      </trkpt>
      <trkpt lat="41.613239" lon="2.348303">
        <ele>153.710892</ele>
        <time>2018-08-15T17:46:24Z</time>
      </trkpt>
      <trkpt lat="41.609035" lon="2.344998">
        <ele>143.001297</ele>
        <time>2018-08-15T17:46:40Z</time>
      </trkpt>
      <trkpt lat="41.605255" lon="2.340709">
        <ele>139.012451</ele>
        <time>2018-08-15T17:46:56Z</time>
      </trkpt>
      <trkpt lat="41.602280" lon="2.335610">
        <ele>154.686859</ele>
        <time>2018-08-15T17:47:12Z</time>
      </trkpt>
      <trkpt lat="41.599946" lon="2.329794">
        <ele>156.618256</ele>
        <time>2018-08-15T17:47:28Z</time>
      </trkpt>
      <trkpt lat="41.598107" lon="2.323690">
        <ele>138.440125</ele>
        <time>2018-08-15T17:47:44Z</time>
      </trkpt>
      <trkpt lat="41.596400" lon="2.318271">
        <ele>151.951233</ele>
        <time>2018-08-15T17:47:59Z</time>
      </trkpt>
      <trkpt lat="41.594795" lon="2.314236">
        <ele>151.534485</ele>
        <time>2018-08-15T17:48:15Z</time>
      </trkpt>
      <trkpt lat="41.593978" lon="2.311338">
        <ele>152.236832</ele>
        <time>2018-08-15T17:48:30Z</time>
      </trkpt>
      <trkpt lat="41.593756" lon="2.310513">
        <ele>152.788879</ele>
        <time>2018-08-15T17:48:52Z</time>
      </trkpt>
      <trkpt lat="41.593697" lon="2.310343">
        <ele>152.847595</ele>
        <time>2018-08-15T17:49:28Z</time>
      </trkpt>
      <trkpt lat="41.593618" lon="2.310131">
        <ele>152.810791</ele>
        <time>2018-08-15T17:50:08Z</time>
      </trkpt>
      <trkpt lat="41.591878" lon="2.308862">
        <ele>157.268799</ele>
        <time>2018-08-15T17:50:23Z</time>
      </trkpt>
      <trkpt lat="41.589620" lon="2.305870">
        <ele>154.114105</ele>
        <time>2018-08-15T17:50:39Z</time>
      </trkpt>
      <trkpt lat="41.586531" lon="2.301838">
        <ele>140.134674</ele>
        <time>2018-08-15T17:50:55Z</time>
      </trkpt>
      <trkpt lat="41.583693" lon="2.297079">
        <ele>139.503845</ele>
        <time>2018-08-15T17:51:11Z</time>
      </trkpt>
      <trkpt lat="41.582162" lon="2.291799">
        <ele>148.540451</ele>
        <time>2018-08-15T17:51:26Z</time>
      </trkpt>
      <trkpt lat="41.579486" lon="2.286691">
        <ele>124.954208</ele>
        <time>2018-08-15T17:51:42Z</time>
      </trkpt>
      <trkpt lat="41.575144" lon="2.284698">
        <ele>120.134094</ele>
        <time>2018-08-15T17:51:58Z</time>
      </trkpt>
      <trkpt lat="41.570804" lon="2.283514">
        <ele>116.163597</ele>
        <time>2018-08-15T17:52:13Z</time>
      </trkpt>
      <trkpt lat="41.567437" lon="2.279673">
        <ele>108.507202</ele>
        <time>2018-08-15T17:52:29Z</time>
      </trkpt>
      <trkpt lat="41.565124" lon="2.274492">
        <ele>101.369484</ele>
        <time>2018-08-15T17:52:45Z</time>
      </trkpt>
      <trkpt lat="41.561978" lon="2.269996">
        <ele>93.986053</ele>
        <time>2018-08-15T17:53:02Z</time>
      </trkpt>
      <trkpt lat="41.559677" lon="2.263383">
        <ele>84.922096</ele>
        <time>2018-08-15T17:53:18Z</time>
      </trkpt>
      <trkpt lat="41.558965" lon="2.257240">
        <ele>85.119064</ele>
        <time>2018-08-15T17:53:34Z</time>
      </trkpt>
      <trkpt lat="41.558909" lon="2.250669">
        <ele>104.877655</ele>
        <time>2018-08-15T17:53:50Z</time>
      </trkpt>
      <trkpt lat="41.558006" lon="2.244976">
        <ele>91.497971</ele>
        <time>2018-08-15T17:54:05Z</time>
      </trkpt>
      <trkpt lat="41.555722" lon="2.239853">
        <ele>77.800461</ele>
        <time>2018-08-15T17:54:21Z</time>
      </trkpt>
      <trkpt lat="41.552244" lon="2.236427">
        <ele>73.781281</ele>
        <time>2018-08-15T17:54:37Z</time>
      </trkpt>
      <trkpt lat="41.549363" lon="2.232982">
        <ele>69.136696</ele>
        <time>2018-08-15T17:54:52Z</time>
      </trkpt>
      <trkpt lat="41.549113" lon="2.227133">
        <ele>72.107208</ele>
        <time>2018-08-15T17:55:08Z</time>
      </trkpt>
      <trkpt lat="41.549114" lon="2.221396">
        <ele>71.080795</ele>
        <time>2018-08-15T17:55:23Z</time>
      </trkpt>
      <trkpt lat="41.550097" lon="2.215404">
        <ele>91.975998</ele>
        <time>2018-08-15T17:55:39Z</time>
      </trkpt>
      <trkpt lat="41.550293" lon="2.209607">
        <ele>93.592682</ele>
        <time>2018-08-15T17:55:54Z</time>
      </trkpt>
      <trkpt lat="41.549391" lon="2.203821">
        <ele>78.111732</ele>
        <time>2018-08-15T17:56:09Z</time>
      </trkpt>
      <trkpt lat="41.547530" lon="2.198709">
        <ele>95.799805</ele>
        <time>2018-08-15T17:56:24Z</time>
      </trkpt>
      <trkpt lat="41.545069" lon="2.193380">
        <ele>102.527267</ele>
        <time>2018-08-15T17:56:40Z</time>
      </trkpt>
      <trkpt lat="41.543013" lon="2.187534">
        <ele>81.805153</ele>
        <time>2018-08-15T17:56:56Z</time>
      </trkpt>
      <trkpt lat="41.541454" lon="2.181858">
        <ele>74.511551</ele>
        <time>2018-08-15T17:57:11Z</time>
      </trkpt>
      <trkpt lat="41.539818" lon="2.176289">
        <ele>81.177467</ele>
        <time>2018-08-15T17:57:27Z</time>
      </trkpt>
      <trkpt lat="41.537328" lon="2.172611">
        <ele>101.065262</ele>
        <time>2018-08-15T17:57:42Z</time>
      </trkpt>
      <trkpt lat="41.533983" lon="2.170529">
        <ele>94.261551</ele>
        <time>2018-08-15T17:57:58Z</time>
      </trkpt>
      <trkpt lat="41.530534" lon="2.169686">
        <ele>85.272575</ele>
        <time>2018-08-15T17:58:13Z</time>
      </trkpt>
      <trkpt lat="41.527460" lon="2.167951">
        <ele>79.119011</ele>
        <time>2018-08-15T17:58:29Z</time>
      </trkpt>
      <trkpt lat="41.526481" lon="2.167087">
        <ele>81.887444</ele>
        <time>2018-08-15T17:58:45Z</time>
      </trkpt>
      <trkpt lat="41.526170" lon="2.166771">
        <ele>81.925781</ele>
        <time>2018-08-15T17:59:07Z</time>
      </trkpt>
      <trkpt lat="41.526052" lon="2.166619">
        <ele>81.960968</ele>
        <time>2018-08-15T18:00:06Z</time>
      </trkpt>
      <trkpt lat="41.525080" lon="2.165769">
        <ele>80.771835</ele>
        <time>2018-08-15T18:00:22Z</time>
      </trkpt>
      <trkpt lat="41.523132" lon="2.163025">
        <ele>83.273880</ele>
        <time>2018-08-15T18:00:37Z</time>
      </trkpt>
      <trkpt lat="41.521282" lon="2.158516">
        <ele>104.731659</ele>
        <time>2018-08-15T18:00:53Z</time>
      </trkpt>
      <trkpt lat="41.519785" lon="2.153181">
        <ele>135.085327</ele>
        <time>2018-08-15T18:01:09Z</time>
      </trkpt>
      <trkpt lat="41.517597" lon="2.148500">
        <ele>130.534042</ele>
        <time>2018-08-15T18:01:24Z</time>
      </trkpt>
      <trkpt lat="41.514609" lon="2.144054">
        <ele>114.428925</ele>
        <time>2018-08-15T18:01:40Z</time>
      </trkpt>
      <trkpt lat="41.511531" lon="2.139789">
        <ele>95.173531</ele>
        <time>2018-08-15T18:01:55Z</time>
      </trkpt>
      <trkpt lat="41.509232" lon="2.134824">
        <ele>116.012245</ele>
        <time>2018-08-15T18:02:11Z</time>
      </trkpt>
      <trkpt lat="41.507413" lon="2.129514">
        <ele>111.462402</ele>
        <time>2018-08-15T18:02:27Z</time>
      </trkpt>
      <trkpt lat="41.505068" lon="2.124481">
        <ele>105.182068</ele>
        <time>2018-08-15T18:02:43Z</time>
      </trkpt>
      <trkpt lat="41.502338" lon="2.120131">
        <ele>104.372063</ele>
        <time>2018-08-15T18:02:58Z</time>
      </trkpt>
      <trkpt lat="41.499215" lon="2.116126">
        <ele>116.642441</ele>
        <time>2018-08-15T18:03:14Z</time>
      </trkpt>
      <trkpt lat="41.496373" lon="2.112146">
        <ele>115.811905</ele>
        <time>2018-08-15T18:03:29Z</time>
      </trkpt>
      <trkpt lat="41.494126" lon="2.107042">
        <ele>125.364372</ele>
        <time>2018-08-15T18:03:45Z</time>
      </trkpt>
      <trkpt lat="41.492888" lon="2.101261">
        <ele>138.672638</ele>
        <time>2018-08-15T18:04:01Z</time>
      </trkpt>
      <trkpt lat="41.492018" lon="2.095471">
        <ele>157.509796</ele>
        <time>2018-08-15T18:04:16Z</time>
      </trkpt>
      <trkpt lat="41.490264" lon="2.089982">
        <ele>140.579071</ele>
        <time>2018-08-15T18:04:31Z</time>
      </trkpt>
      <trkpt lat="41.488418" lon="2.084011">
        <ele>146.812256</ele>
        <time>2018-08-15T18:04:47Z</time>
      </trkpt>
      <trkpt lat="41.487900" lon="2.077554">
        <ele>159.680511</ele>
        <time>2018-08-15T18:05:03Z</time>
      </trkpt>
      <trkpt lat="41.488704" lon="2.071411">
        <ele>160.091949</ele>
        <time>2018-08-15T18:05:18Z</time>
      </trkpt>
      <trkpt lat="41.489695" lon="2.065675">
        <ele>166.750320</ele>
        <time>2018-08-15T18:05:34Z</time>
      </trkpt>
      <trkpt lat="41.489894" lon="2.061587">
        <ele>165.030136</ele>
        <time>2018-08-15T18:05:50Z</time>
      </trkpt>
      <trkpt lat="41.489211" lon="2.057682">
        <ele>157.973160</ele>
        <time>2018-08-15T18:06:06Z</time>
      </trkpt>
      <trkpt lat="41.490041" lon="2.058165">
        <ele>155.385162</ele>
        <time>2018-08-15T18:06:22Z</time>
      </trkpt>
      <trkpt lat="41.487481" lon="2.060354">
        <ele>149.854034</ele>
        <time>2018-08-15T18:06:40Z</time>
      </trkpt>
      <trkpt lat="41.483698" lon="2.062594">
        <ele>156.259552</ele>
        <time>2018-08-15T18:06:56Z</time>
      </trkpt>
      <trkpt lat="41.481452" lon="2.064896">
        <ele>151.419434</ele>
        <time>2018-08-15T18:07:11Z</time>
      </trkpt>
      <trkpt lat="41.479536" lon="2.065259">
        <ele>147.611115</ele>
        <time>2018-08-15T18:07:27Z</time>
      </trkpt>
      <trkpt lat="41.478950" lon="2.064912">
        <ele>149.469482</ele>
        <time>2018-08-15T18:07:42Z</time>
      </trkpt>
      <trkpt lat="41.478691" lon="2.067286">
        <ele>152.411514</ele>
        <time>2018-08-15T18:07:58Z</time>
      </trkpt>
      <trkpt lat="41.478356" lon="2.068334">
        <ele>153.948502</ele>
        <time>2018-08-15T18:08:13Z</time>
      </trkpt>
      <trkpt lat="41.478095" lon="2.069463">
        <ele>159.262665</ele>
        <time>2018-08-15T18:08:28Z</time>
      </trkpt>
      <trkpt lat="41.477599" lon="2.071521">
        <ele>162.046875</ele>
        <time>2018-08-15T18:08:44Z</time>
      </trkpt>
      <trkpt lat="41.476752" lon="2.073511">
        <ele>159.502640</ele>
        <time>2018-08-15T18:08:59Z</time>
      </trkpt>
      <trkpt lat="41.475964" lon="2.075043">
        <ele>153.560379</ele>
        <time>2018-08-15T18:09:14Z</time>
      </trkpt>
      <trkpt lat="41.474810" lon="2.076649">
        <ele>149.432098</ele>
        <time>2018-08-15T18:09:30Z</time>
      </trkpt>
      <trkpt lat="41.474091" lon="2.077693">
        <ele>144.916077</ele>
        <time>2018-08-15T18:09:45Z</time>
      </trkpt>
      <trkpt lat="41.472961" lon="2.079245">
        <ele>140.891556</ele>
        <time>2018-08-15T18:10:00Z</time>
      </trkpt>
      <trkpt lat="41.473549" lon="2.079848">
        <ele>143.729126</ele>
        <time>2018-08-15T18:10:16Z</time>
      </trkpt>
      <trkpt lat="41.474888" lon="2.080127">
        <ele>143.714691</ele>
        <time>2018-08-15T18:10:31Z</time>
      </trkpt>
      <trkpt lat="41.475307" lon="2.080774">
        <ele>138.507431</ele>
        <time>2018-08-15T18:10:47Z</time>
      </trkpt>
      <trkpt lat="41.475155" lon="2.082226">
        <ele>131.139282</ele>
        <time>2018-08-15T18:11:02Z</time>
      </trkpt>
      <trkpt lat="41.475854" lon="2.084011">
        <ele>124.488968</ele>
        <time>2018-08-15T18:11:17Z</time>
      </trkpt>
      <trkpt lat="41.476234" lon="2.085453">
        <ele>124.141228</ele>
        <time>2018-08-15T18:11:34Z</time>
      </trkpt>
      <trkpt lat="41.474865" lon="2.086124">
        <ele>121.856651</ele>
        <time>2018-08-15T18:11:49Z</time>
      </trkpt>
      <trkpt lat="41.473873" lon="2.086377">
        <ele>124.745384</ele>
        <time>2018-08-15T18:12:04Z</time>
      </trkpt>
      <trkpt lat="41.473548" lon="2.086305">
        <ele>123.739220</ele>
        <time>2018-08-15T18:12:19Z</time>
      </trkpt>
      <trkpt lat="41.473441" lon="2.086417">
        <ele>123.335693</ele>
        <time>2018-08-15T18:16:19Z</time>
      </trkpt>
      <trkpt lat="41.472498" lon="2.086545">
        <ele>115.437836</ele>
        <time>2018-08-15T18:16:34Z</time>
      </trkpt>
      <trkpt lat="41.472067" lon="2.086522">
        <ele>115.430161</ele>
        <time>2018-08-15T18:16:51Z</time>
      </trkpt>
      <trkpt lat="41.471346" lon="2.085267">
        <ele>120.054916</ele>
        <time>2018-08-15T18:17:07Z</time>
      </trkpt>
      <trkpt lat="41.470884" lon="2.084338">
        <ele>123.467438</ele>
        <time>2018-08-15T18:17:22Z</time>
      </trkpt>
      <trkpt lat="41.470585" lon="2.082957">
        <ele>123.970947</ele>
        <time>2018-08-15T18:17:38Z</time>
      </trkpt>
      <trkpt lat="41.470886" lon="2.082360">
        <ele>124.576263</ele>
        <time>2018-08-15T18:17:53Z</time>
      </trkpt>
      <trkpt lat="41.471636" lon="2.082213">
        <ele>128.211807</ele>
        <time>2018-08-15T18:18:09Z</time>
      </trkpt>
      <trkpt lat="41.471791" lon="2.082154">
        <ele>129.374786</ele>
        <time>2018-08-15T18:18:33Z</time>
      </trkpt>
      <trkpt lat="41.472212" lon="2.081025">
        <ele>134.349808</ele>
        <time>2018-08-15T18:18:49Z</time>
      </trkpt>
      <trkpt lat="41.472613" lon="2.079769">
        <ele>141.477783</ele>
        <time>2018-08-15T18:19:05Z</time>
      </trkpt>
      <trkpt lat="41.473099" lon="2.079682">
        <ele>142.567078</ele>
        <time>2018-08-15T18:19:20Z</time>
      </trkpt>
      <trkpt lat="41.473001" lon="2.080253">
        <ele>142.780563</ele>
        <time>2018-08-15T18:19:35Z</time>
      </trkpt>
      <trkpt lat="41.472916" lon="2.080400">
        <ele>142.038589</ele>
        <time>2018-08-15T18:19:52Z</time>
      </trkpt>
    </trkseg>
  </trk>
</gpx>
